<?xml version="1.0" encoding="UTF-8" standalone="no" ?>
<gpx xmlns="http://www.topografix.com/GPX/1/1" xmlns:xsi="http://www.w3.org/2001/XMLSchema-instance" xsi:schemaLocation="http://www.topografix.com/GPX/1/1 http://www.topografix.com/GPX/1/1/gpx.xsd" version="1.1" creator="VisuGPX - https://www.visugpx.com">
  <metadata>
    <name>L'odyssée des vikings </name>
  </metadata>
  <trk>
    <name><![CDATA[L'odyssée des vikings _1]]></name>
    <trkseg>
      <trkpt lat="49.5266" lon="-1.86681">
        <ele>76.2</ele>
        <time>2022-08-27T04:57:38Z</time>
      </trkpt>
      <trkpt lat="49.5266" lon="-1.86681">
        <ele>76.2</ele>
        <time>2022-08-27T04:57:39Z</time>
      </trkpt>
      <trkpt lat="49.52659" lon="-1.86675">
        <ele>76.6</ele>
        <time>2022-08-27T05:00:15Z</time>
      </trkpt>
      <trkpt lat="49.52659" lon="-1.8667">
        <ele>76.4</ele>
        <time>2022-08-27T05:00:17Z</time>
      </trkpt>
      <trkpt lat="49.52659" lon="-1.86668">
        <ele>76.4</ele>
        <time>2022-08-27T05:00:18Z</time>
      </trkpt>
      <trkpt lat="49.52662" lon="-1.86657">
        <ele>76.4</ele>
        <time>2022-08-27T05:00:22Z</time>
      </trkpt>
      <trkpt lat="49.52663" lon="-1.86652">
        <ele>76.4</ele>
        <time>2022-08-27T05:00:24Z</time>
      </trkpt>
      <trkpt lat="49.52666" lon="-1.86645">
        <ele>76.4</ele>
        <time>2022-08-27T05:00:26Z</time>
      </trkpt>
      <trkpt lat="49.52667" lon="-1.86641">
        <ele>76.6</ele>
        <time>2022-08-27T05:00:27Z</time>
      </trkpt>
      <trkpt lat="49.5267" lon="-1.8663">
        <ele>76.6</ele>
        <time>2022-08-27T05:00:30Z</time>
      </trkpt>
      <trkpt lat="49.52671" lon="-1.86626">
        <ele>76.6</ele>
        <time>2022-08-27T05:00:31Z</time>
      </trkpt>
      <trkpt lat="49.52674" lon="-1.86616">
        <ele>76.2</ele>
        <time>2022-08-27T05:00:34Z</time>
      </trkpt>
      <trkpt lat="49.52675" lon="-1.86613">
        <ele>76</ele>
        <time>2022-08-27T05:00:35Z</time>
      </trkpt>
      <trkpt lat="49.52676" lon="-1.86609">
        <ele>75.8</ele>
        <time>2022-08-27T05:00:36Z</time>
      </trkpt>
      <trkpt lat="49.52679" lon="-1.86601">
        <ele>75.6</ele>
        <time>2022-08-27T05:00:38Z</time>
      </trkpt>
      <trkpt lat="49.52681" lon="-1.86595">
        <ele>75.4</ele>
        <time>2022-08-27T05:00:40Z</time>
      </trkpt>
      <trkpt lat="49.52681" lon="-1.86579">
        <ele>75</ele>
        <time>2022-08-27T05:00:43Z</time>
      </trkpt>
      <trkpt lat="49.52684" lon="-1.8657">
        <ele>74.8</ele>
        <time>2022-08-27T05:00:45Z</time>
      </trkpt>
      <trkpt lat="49.52687" lon="-1.86561">
        <ele>74.6</ele>
        <time>2022-08-27T05:00:47Z</time>
      </trkpt>
      <trkpt lat="49.52688" lon="-1.86556">
        <ele>74.6</ele>
        <time>2022-08-27T05:00:48Z</time>
      </trkpt>
      <trkpt lat="49.5269" lon="-1.86547">
        <ele>74.2</ele>
        <time>2022-08-27T05:00:50Z</time>
      </trkpt>
      <trkpt lat="49.52698" lon="-1.86533">
        <ele>73.8</ele>
        <time>2022-08-27T05:00:53Z</time>
      </trkpt>
      <trkpt lat="49.52702" lon="-1.86529">
        <ele>73.6</ele>
        <time>2022-08-27T05:00:54Z</time>
      </trkpt>
      <trkpt lat="49.52705" lon="-1.86525">
        <ele>73.4</ele>
        <time>2022-08-27T05:00:55Z</time>
      </trkpt>
      <trkpt lat="49.52709" lon="-1.86513">
        <ele>73.2</ele>
        <time>2022-08-27T05:00:57Z</time>
      </trkpt>
      <trkpt lat="49.52711" lon="-1.86508">
        <ele>73</ele>
        <time>2022-08-27T05:00:58Z</time>
      </trkpt>
      <trkpt lat="49.52714" lon="-1.86498">
        <ele>72.6</ele>
        <time>2022-08-27T05:01:00Z</time>
      </trkpt>
      <trkpt lat="49.52724" lon="-1.86471">
        <ele>71.8</ele>
        <time>2022-08-27T05:01:05Z</time>
      </trkpt>
      <trkpt lat="49.52736" lon="-1.86463">
        <ele>71.6</ele>
        <time>2022-08-27T05:01:07Z</time>
      </trkpt>
      <trkpt lat="49.52746" lon="-1.86455">
        <ele>71.2</ele>
        <time>2022-08-27T05:01:09Z</time>
      </trkpt>
      <trkpt lat="49.5276" lon="-1.86444">
        <ele>70.4</ele>
        <time>2022-08-27T05:01:12Z</time>
      </trkpt>
      <trkpt lat="49.52779" lon="-1.86418">
        <ele>69.6</ele>
        <time>2022-08-27T05:01:17Z</time>
      </trkpt>
      <trkpt lat="49.52786" lon="-1.86395">
        <ele>69</ele>
        <time>2022-08-27T05:01:21Z</time>
      </trkpt>
      <trkpt lat="49.52786" lon="-1.86381">
        <ele>68.8</ele>
        <time>2022-08-27T05:01:23Z</time>
      </trkpt>
      <trkpt lat="49.52785" lon="-1.86365">
        <ele>68.6</ele>
        <time>2022-08-27T05:01:25Z</time>
      </trkpt>
      <trkpt lat="49.52782" lon="-1.86349">
        <ele>68.2</ele>
        <time>2022-08-27T05:01:27Z</time>
      </trkpt>
      <trkpt lat="49.52779" lon="-1.86341">
        <ele>68.2</ele>
        <time>2022-08-27T05:01:28Z</time>
      </trkpt>
      <trkpt lat="49.52777" lon="-1.86333">
        <ele>68.2</ele>
        <time>2022-08-27T05:01:29Z</time>
      </trkpt>
      <trkpt lat="49.52776" lon="-1.86317">
        <ele>68</ele>
        <time>2022-08-27T05:01:31Z</time>
      </trkpt>
      <trkpt lat="49.52779" lon="-1.86301">
        <ele>67.8</ele>
        <time>2022-08-27T05:01:33Z</time>
      </trkpt>
      <trkpt lat="49.52783" lon="-1.86289">
        <ele>67.6</ele>
        <time>2022-08-27T05:01:35Z</time>
      </trkpt>
      <trkpt lat="49.5279" lon="-1.86265">
        <ele>67.2</ele>
        <time>2022-08-27T05:01:39Z</time>
      </trkpt>
      <trkpt lat="49.52801" lon="-1.8623">
        <ele>66.6</ele>
        <time>2022-08-27T05:01:43Z</time>
      </trkpt>
      <trkpt lat="49.52809" lon="-1.86204">
        <ele>66.2</ele>
        <time>2022-08-27T05:01:46Z</time>
      </trkpt>
      <trkpt lat="49.52809" lon="-1.86193">
        <ele>66</ele>
        <time>2022-08-27T05:01:47Z</time>
      </trkpt>
      <trkpt lat="49.52809" lon="-1.86183">
        <ele>65.8</ele>
        <time>2022-08-27T05:01:48Z</time>
      </trkpt>
      <trkpt lat="49.52809" lon="-1.86165">
        <ele>65.6</ele>
        <time>2022-08-27T05:01:50Z</time>
      </trkpt>
      <trkpt lat="49.52808" lon="-1.86156">
        <ele>65.6</ele>
        <time>2022-08-27T05:01:51Z</time>
      </trkpt>
      <trkpt lat="49.52803" lon="-1.86141">
        <ele>65.6</ele>
        <time>2022-08-27T05:01:53Z</time>
      </trkpt>
      <trkpt lat="49.528" lon="-1.86129">
        <ele>65.4</ele>
        <time>2022-08-27T05:01:55Z</time>
      </trkpt>
      <trkpt lat="49.52798" lon="-1.86122">
        <ele>65.4</ele>
        <time>2022-08-27T05:01:56Z</time>
      </trkpt>
      <trkpt lat="49.52791" lon="-1.8607">
        <ele>65</ele>
        <time>2022-08-27T05:02:01Z</time>
      </trkpt>
      <trkpt lat="49.52787" lon="-1.86048">
        <ele>64.8</ele>
        <time>2022-08-27T05:02:03Z</time>
      </trkpt>
      <trkpt lat="49.52781" lon="-1.86028">
        <ele>64.6</ele>
        <time>2022-08-27T05:02:05Z</time>
      </trkpt>
      <trkpt lat="49.52775" lon="-1.86012">
        <ele>64.2</ele>
        <time>2022-08-27T05:02:07Z</time>
      </trkpt>
      <trkpt lat="49.52772" lon="-1.86007">
        <ele>64</ele>
        <time>2022-08-27T05:02:08Z</time>
      </trkpt>
      <trkpt lat="49.52768" lon="-1.86005">
        <ele>63.8</ele>
        <time>2022-08-27T05:02:09Z</time>
      </trkpt>
      <trkpt lat="49.52758" lon="-1.86002">
        <ele>63.6</ele>
        <time>2022-08-27T05:02:11Z</time>
      </trkpt>
      <trkpt lat="49.52746" lon="-1.86">
        <ele>63.2</ele>
        <time>2022-08-27T05:02:14Z</time>
      </trkpt>
      <trkpt lat="49.52741" lon="-1.85998">
        <ele>63</ele>
        <time>2022-08-27T05:02:15Z</time>
      </trkpt>
      <trkpt lat="49.52726" lon="-1.85993">
        <ele>62.4</ele>
        <time>2022-08-27T05:02:18Z</time>
      </trkpt>
      <trkpt lat="49.52721" lon="-1.85992">
        <ele>62</ele>
        <time>2022-08-27T05:02:19Z</time>
      </trkpt>
      <trkpt lat="49.52707" lon="-1.85991">
        <ele>61</ele>
        <time>2022-08-27T05:02:23Z</time>
      </trkpt>
      <trkpt lat="49.52704" lon="-1.8599">
        <ele>60.8</ele>
        <time>2022-08-27T05:02:25Z</time>
      </trkpt>
      <trkpt lat="49.52702" lon="-1.85985">
        <ele>60.6</ele>
        <time>2022-08-27T05:02:26Z</time>
      </trkpt>
      <trkpt lat="49.52696" lon="-1.85974">
        <ele>60.2</ele>
        <time>2022-08-27T05:02:27Z</time>
      </trkpt>
      <trkpt lat="49.52687" lon="-1.85957">
        <ele>59.8</ele>
        <time>2022-08-27T05:02:29Z</time>
      </trkpt>
      <trkpt lat="49.52675" lon="-1.85942">
        <ele>59.2</ele>
        <time>2022-08-27T05:02:33Z</time>
      </trkpt>
      <trkpt lat="49.52664" lon="-1.85931">
        <ele>58.8</ele>
        <time>2022-08-27T05:02:37Z</time>
      </trkpt>
      <trkpt lat="49.52643" lon="-1.85909">
        <ele>58</ele>
        <time>2022-08-27T05:02:41Z</time>
      </trkpt>
      <trkpt lat="49.5263" lon="-1.85901">
        <ele>57.4</ele>
        <time>2022-08-27T05:02:45Z</time>
      </trkpt>
      <trkpt lat="49.52627" lon="-1.85903">
        <ele>57.2</ele>
        <time>2022-08-27T05:02:46Z</time>
      </trkpt>
      <trkpt lat="49.52624" lon="-1.85905">
        <ele>57</ele>
        <time>2022-08-27T05:02:47Z</time>
      </trkpt>
      <trkpt lat="49.52615" lon="-1.85906">
        <ele>56.6</ele>
        <time>2022-08-27T05:02:49Z</time>
      </trkpt>
      <trkpt lat="49.52596" lon="-1.859">
        <ele>55.6</ele>
        <time>2022-08-27T05:02:54Z</time>
      </trkpt>
      <trkpt lat="49.52582" lon="-1.85898">
        <ele>54.6</ele>
        <time>2022-08-27T05:02:57Z</time>
      </trkpt>
      <trkpt lat="49.52566" lon="-1.85902">
        <ele>53.6</ele>
        <time>2022-08-27T05:03:01Z</time>
      </trkpt>
      <trkpt lat="49.52562" lon="-1.85899">
        <ele>53.4</ele>
        <time>2022-08-27T05:03:02Z</time>
      </trkpt>
      <trkpt lat="49.52558" lon="-1.85893">
        <ele>52.8</ele>
        <time>2022-08-27T05:03:04Z</time>
      </trkpt>
      <trkpt lat="49.52556" lon="-1.8588">
        <ele>52.2</ele>
        <time>2022-08-27T05:03:07Z</time>
      </trkpt>
      <trkpt lat="49.52554" lon="-1.85871">
        <ele>51.8</ele>
        <time>2022-08-27T05:03:08Z</time>
      </trkpt>
      <trkpt lat="49.52551" lon="-1.85862">
        <ele>51.6</ele>
        <time>2022-08-27T05:03:09Z</time>
      </trkpt>
      <trkpt lat="49.52544" lon="-1.85843">
        <ele>51.2</ele>
        <time>2022-08-27T05:03:11Z</time>
      </trkpt>
      <trkpt lat="49.52535" lon="-1.85809">
        <ele>50.6</ele>
        <time>2022-08-27T05:03:15Z</time>
      </trkpt>
      <trkpt lat="49.52531" lon="-1.85795">
        <ele>50.4</ele>
        <time>2022-08-27T05:03:17Z</time>
      </trkpt>
      <trkpt lat="49.52529" lon="-1.85786">
        <ele>50.2</ele>
        <time>2022-08-27T05:03:18Z</time>
      </trkpt>
      <trkpt lat="49.52526" lon="-1.85777">
        <ele>50</ele>
        <time>2022-08-27T05:03:19Z</time>
      </trkpt>
      <trkpt lat="49.52517" lon="-1.85762">
        <ele>49.6</ele>
        <time>2022-08-27T05:03:21Z</time>
      </trkpt>
      <trkpt lat="49.52511" lon="-1.85751">
        <ele>49.2</ele>
        <time>2022-08-27T05:03:23Z</time>
      </trkpt>
      <trkpt lat="49.52506" lon="-1.85746">
        <ele>49</ele>
        <time>2022-08-27T05:03:24Z</time>
      </trkpt>
      <trkpt lat="49.52493" lon="-1.85726">
        <ele>48.4</ele>
        <time>2022-08-27T05:03:27Z</time>
      </trkpt>
      <trkpt lat="49.52487" lon="-1.85707">
        <ele>47.8</ele>
        <time>2022-08-27T05:03:29Z</time>
      </trkpt>
      <trkpt lat="49.5248" lon="-1.8569">
        <ele>47.2</ele>
        <time>2022-08-27T05:03:31Z</time>
      </trkpt>
      <trkpt lat="49.52475" lon="-1.85682">
        <ele>47</ele>
        <time>2022-08-27T05:03:32Z</time>
      </trkpt>
      <trkpt lat="49.5247" lon="-1.85674">
        <ele>46.8</ele>
        <time>2022-08-27T05:03:33Z</time>
      </trkpt>
      <trkpt lat="49.52463" lon="-1.8566">
        <ele>46.2</ele>
        <time>2022-08-27T05:03:35Z</time>
      </trkpt>
      <trkpt lat="49.52461" lon="-1.85652">
        <ele>46</ele>
        <time>2022-08-27T05:03:36Z</time>
      </trkpt>
      <trkpt lat="49.5246" lon="-1.85632">
        <ele>45.4</ele>
        <time>2022-08-27T05:03:38Z</time>
      </trkpt>
      <trkpt lat="49.52458" lon="-1.85614">
        <ele>45.2</ele>
        <time>2022-08-27T05:03:40Z</time>
      </trkpt>
      <trkpt lat="49.52458" lon="-1.85607">
        <ele>45</ele>
        <time>2022-08-27T05:03:41Z</time>
      </trkpt>
      <trkpt lat="49.52456" lon="-1.85593">
        <ele>44.6</ele>
        <time>2022-08-27T05:03:43Z</time>
      </trkpt>
      <trkpt lat="49.52455" lon="-1.85579">
        <ele>44.2</ele>
        <time>2022-08-27T05:03:45Z</time>
      </trkpt>
      <trkpt lat="49.52454" lon="-1.85571">
        <ele>43.8</ele>
        <time>2022-08-27T05:03:46Z</time>
      </trkpt>
      <trkpt lat="49.52454" lon="-1.85564">
        <ele>43.6</ele>
        <time>2022-08-27T05:03:47Z</time>
      </trkpt>
      <trkpt lat="49.52457" lon="-1.85543">
        <ele>43.2</ele>
        <time>2022-08-27T05:03:50Z</time>
      </trkpt>
      <trkpt lat="49.5246" lon="-1.85536">
        <ele>43</ele>
        <time>2022-08-27T05:03:51Z</time>
      </trkpt>
      <trkpt lat="49.52469" lon="-1.85508">
        <ele>42.4</ele>
        <time>2022-08-27T05:03:55Z</time>
      </trkpt>
      <trkpt lat="49.52473" lon="-1.85496">
        <ele>42.2</ele>
        <time>2022-08-27T05:03:57Z</time>
      </trkpt>
      <trkpt lat="49.52478" lon="-1.85486">
        <ele>41.6</ele>
        <time>2022-08-27T05:03:59Z</time>
      </trkpt>
      <trkpt lat="49.52486" lon="-1.85472">
        <ele>40.8</ele>
        <time>2022-08-27T05:04:02Z</time>
      </trkpt>
      <trkpt lat="49.52486" lon="-1.85467">
        <ele>40.6</ele>
        <time>2022-08-27T05:04:03Z</time>
      </trkpt>
      <trkpt lat="49.5249" lon="-1.85446">
        <ele>39.2</ele>
        <time>2022-08-27T05:04:07Z</time>
      </trkpt>
      <trkpt lat="49.52485" lon="-1.8543">
        <ele>37.6</ele>
        <time>2022-08-27T05:04:11Z</time>
      </trkpt>
      <trkpt lat="49.52479" lon="-1.85429">
        <ele>36.6</ele>
        <time>2022-08-27T05:04:14Z</time>
      </trkpt>
      <trkpt lat="49.52473" lon="-1.85438">
        <ele>35.6</ele>
        <time>2022-08-27T05:04:18Z</time>
      </trkpt>
      <trkpt lat="49.52469" lon="-1.85445">
        <ele>35</ele>
        <time>2022-08-27T05:04:21Z</time>
      </trkpt>
      <trkpt lat="49.52464" lon="-1.85452">
        <ele>34.8</ele>
        <time>2022-08-27T05:04:23Z</time>
      </trkpt>
      <trkpt lat="49.52449" lon="-1.85465">
        <ele>34.6</ele>
        <time>2022-08-27T05:04:27Z</time>
      </trkpt>
      <trkpt lat="49.52426" lon="-1.85474">
        <ele>33.8</ele>
        <time>2022-08-27T05:04:32Z</time>
      </trkpt>
      <trkpt lat="49.52404" lon="-1.85478">
        <ele>33</ele>
        <time>2022-08-27T05:04:36Z</time>
      </trkpt>
      <trkpt lat="49.52399" lon="-1.85479">
        <ele>32.6</ele>
        <time>2022-08-27T05:04:37Z</time>
      </trkpt>
      <trkpt lat="49.52387" lon="-1.85479">
        <ele>31.8</ele>
        <time>2022-08-27T05:04:40Z</time>
      </trkpt>
      <trkpt lat="49.52369" lon="-1.8548">
        <ele>30.4</ele>
        <time>2022-08-27T05:04:44Z</time>
      </trkpt>
      <trkpt lat="49.52356" lon="-1.85483">
        <ele>30</ele>
        <time>2022-08-27T05:04:47Z</time>
      </trkpt>
      <trkpt lat="49.52352" lon="-1.85484">
        <ele>29.8</ele>
        <time>2022-08-27T05:04:48Z</time>
      </trkpt>
      <trkpt lat="49.52344" lon="-1.85487">
        <ele>29.4</ele>
        <time>2022-08-27T05:04:51Z</time>
      </trkpt>
      <trkpt lat="49.52341" lon="-1.85488">
        <ele>29.2</ele>
        <time>2022-08-27T05:04:52Z</time>
      </trkpt>
      <trkpt lat="49.52333" lon="-1.85495">
        <ele>28.8</ele>
        <time>2022-08-27T05:04:56Z</time>
      </trkpt>
      <trkpt lat="49.52328" lon="-1.85498">
        <ele>28.8</ele>
        <time>2022-08-27T05:04:58Z</time>
      </trkpt>
      <trkpt lat="49.52326" lon="-1.855">
        <ele>28.6</ele>
        <time>2022-08-27T05:05:00Z</time>
      </trkpt>
      <trkpt lat="49.52318" lon="-1.85512">
        <ele>28.4</ele>
        <time>2022-08-27T05:05:08Z</time>
      </trkpt>
      <trkpt lat="49.52312" lon="-1.85516">
        <ele>28.6</ele>
        <time>2022-08-27T05:05:11Z</time>
      </trkpt>
      <trkpt lat="49.52308" lon="-1.85513">
        <ele>27.8</ele>
        <time>2022-08-27T05:05:24Z</time>
      </trkpt>
      <trkpt lat="49.52309" lon="-1.85511">
        <ele>27.8</ele>
        <time>2022-08-27T05:05:25Z</time>
      </trkpt>
      <trkpt lat="49.52311" lon="-1.85504">
        <ele>27.6</ele>
        <time>2022-08-27T05:05:29Z</time>
      </trkpt>
      <trkpt lat="49.52312" lon="-1.855">
        <ele>27.4</ele>
        <time>2022-08-27T05:05:33Z</time>
      </trkpt>
      <trkpt lat="49.52311" lon="-1.85499">
        <ele>27.4</ele>
        <time>2022-08-27T05:05:34Z</time>
      </trkpt>
      <trkpt lat="49.52305" lon="-1.85497">
        <ele>27.4</ele>
        <time>2022-08-27T05:05:36Z</time>
      </trkpt>
      <trkpt lat="49.52296" lon="-1.85489">
        <ele>27.6</ele>
        <time>2022-08-27T05:05:40Z</time>
      </trkpt>
      <trkpt lat="49.52285" lon="-1.85472">
        <ele>27.6</ele>
        <time>2022-08-27T05:05:45Z</time>
      </trkpt>
      <trkpt lat="49.52276" lon="-1.85464">
        <ele>27.6</ele>
        <time>2022-08-27T05:05:49Z</time>
      </trkpt>
      <trkpt lat="49.52275" lon="-1.85464">
        <ele>27.2</ele>
        <time>2022-08-27T05:05:50Z</time>
      </trkpt>
      <trkpt lat="49.52266" lon="-1.85458">
        <ele>28</ele>
        <time>2022-08-27T05:05:54Z</time>
      </trkpt>
      <trkpt lat="49.52253" lon="-1.85456">
        <ele>29.4</ele>
        <time>2022-08-27T05:06:00Z</time>
      </trkpt>
      <trkpt lat="49.52247" lon="-1.8546">
        <ele>29.8</ele>
        <time>2022-08-27T05:06:04Z</time>
      </trkpt>
      <trkpt lat="49.52246" lon="-1.85462">
        <ele>30.2</ele>
        <time>2022-08-27T05:06:06Z</time>
      </trkpt>
      <trkpt lat="49.52243" lon="-1.85464">
        <ele>30.6</ele>
        <time>2022-08-27T05:06:08Z</time>
      </trkpt>
      <trkpt lat="49.5223" lon="-1.85488">
        <ele>34.6</ele>
        <time>2022-08-27T05:06:42Z</time>
      </trkpt>
      <trkpt lat="49.52223" lon="-1.85493">
        <ele>35.8</ele>
        <time>2022-08-27T05:06:46Z</time>
      </trkpt>
      <trkpt lat="49.52219" lon="-1.85493">
        <ele>36.2</ele>
        <time>2022-08-27T05:06:48Z</time>
      </trkpt>
      <trkpt lat="49.52215" lon="-1.85491">
        <ele>36.6</ele>
        <time>2022-08-27T05:06:50Z</time>
      </trkpt>
      <trkpt lat="49.52208" lon="-1.85481">
        <ele>37</ele>
        <time>2022-08-27T05:06:54Z</time>
      </trkpt>
      <trkpt lat="49.52206" lon="-1.85476">
        <ele>37.6</ele>
        <time>2022-08-27T05:06:57Z</time>
      </trkpt>
      <trkpt lat="49.52201" lon="-1.85466">
        <ele>38</ele>
        <time>2022-08-27T05:07:00Z</time>
      </trkpt>
      <trkpt lat="49.52199" lon="-1.85463">
        <ele>38</ele>
        <time>2022-08-27T05:07:01Z</time>
      </trkpt>
      <trkpt lat="49.52197" lon="-1.85462">
        <ele>38.2</ele>
        <time>2022-08-27T05:07:02Z</time>
      </trkpt>
      <trkpt lat="49.52183" lon="-1.8546">
        <ele>39</ele>
        <time>2022-08-27T05:07:07Z</time>
      </trkpt>
      <trkpt lat="49.52174" lon="-1.85465">
        <ele>39.6</ele>
        <time>2022-08-27T05:07:11Z</time>
      </trkpt>
      <trkpt lat="49.52168" lon="-1.85475">
        <ele>40.2</ele>
        <time>2022-08-27T05:07:15Z</time>
      </trkpt>
      <trkpt lat="49.52167" lon="-1.85478">
        <ele>40.4</ele>
        <time>2022-08-27T05:07:16Z</time>
      </trkpt>
      <trkpt lat="49.52161" lon="-1.85487">
        <ele>40.6</ele>
        <time>2022-08-27T05:07:19Z</time>
      </trkpt>
      <trkpt lat="49.52156" lon="-1.85497">
        <ele>41</ele>
        <time>2022-08-27T05:07:23Z</time>
      </trkpt>
      <trkpt lat="49.52152" lon="-1.85503">
        <ele>41.2</ele>
        <time>2022-08-27T05:07:27Z</time>
      </trkpt>
      <trkpt lat="49.52142" lon="-1.85513">
        <ele>42</ele>
        <time>2022-08-27T05:07:31Z</time>
      </trkpt>
      <trkpt lat="49.52125" lon="-1.85522">
        <ele>42.4</ele>
        <time>2022-08-27T05:07:36Z</time>
      </trkpt>
      <trkpt lat="49.52122" lon="-1.85522">
        <ele>42.4</ele>
        <time>2022-08-27T05:07:37Z</time>
      </trkpt>
      <trkpt lat="49.52119" lon="-1.85519">
        <ele>42.4</ele>
        <time>2022-08-27T05:07:40Z</time>
      </trkpt>
      <trkpt lat="49.52118" lon="-1.85504">
        <ele>42.4</ele>
        <time>2022-08-27T05:07:45Z</time>
      </trkpt>
      <trkpt lat="49.52119" lon="-1.855">
        <ele>42.6</ele>
        <time>2022-08-27T05:07:47Z</time>
      </trkpt>
      <trkpt lat="49.52119" lon="-1.85497">
        <ele>42.6</ele>
        <time>2022-08-27T05:07:48Z</time>
      </trkpt>
      <trkpt lat="49.5212" lon="-1.85491">
        <ele>43</ele>
        <time>2022-08-27T05:07:50Z</time>
      </trkpt>
      <trkpt lat="49.52121" lon="-1.85479">
        <ele>43</ele>
        <time>2022-08-27T05:07:53Z</time>
      </trkpt>
      <trkpt lat="49.5212" lon="-1.85461">
        <ele>43.6</ele>
        <time>2022-08-27T05:07:57Z</time>
      </trkpt>
      <trkpt lat="49.52118" lon="-1.85459">
        <ele>43.6</ele>
        <time>2022-08-27T05:07:58Z</time>
      </trkpt>
      <trkpt lat="49.52117" lon="-1.85457">
        <ele>44</ele>
        <time>2022-08-27T05:07:59Z</time>
      </trkpt>
      <trkpt lat="49.52109" lon="-1.85449">
        <ele>44.8</ele>
        <time>2022-08-27T05:08:02Z</time>
      </trkpt>
      <trkpt lat="49.52101" lon="-1.85454">
        <ele>45.4</ele>
        <time>2022-08-27T05:08:06Z</time>
      </trkpt>
      <trkpt lat="49.521" lon="-1.85457">
        <ele>45.6</ele>
        <time>2022-08-27T05:08:07Z</time>
      </trkpt>
      <trkpt lat="49.52098" lon="-1.85459">
        <ele>46.2</ele>
        <time>2022-08-27T05:08:10Z</time>
      </trkpt>
      <trkpt lat="49.52096" lon="-1.85462">
        <ele>46.2</ele>
        <time>2022-08-27T05:08:11Z</time>
      </trkpt>
      <trkpt lat="49.52088" lon="-1.85468">
        <ele>46.4</ele>
        <time>2022-08-27T05:08:14Z</time>
      </trkpt>
      <trkpt lat="49.52076" lon="-1.85469">
        <ele>46.6</ele>
        <time>2022-08-27T05:08:18Z</time>
      </trkpt>
      <trkpt lat="49.52068" lon="-1.85462">
        <ele>47</ele>
        <time>2022-08-27T05:08:22Z</time>
      </trkpt>
      <trkpt lat="49.52064" lon="-1.85455">
        <ele>47.2</ele>
        <time>2022-08-27T05:08:25Z</time>
      </trkpt>
      <trkpt lat="49.52061" lon="-1.85452">
        <ele>47.2</ele>
        <time>2022-08-27T05:08:26Z</time>
      </trkpt>
      <trkpt lat="49.52055" lon="-1.85445">
        <ele>47.4</ele>
        <time>2022-08-27T05:08:29Z</time>
      </trkpt>
      <trkpt lat="49.5205" lon="-1.85431">
        <ele>48</ele>
        <time>2022-08-27T05:08:32Z</time>
      </trkpt>
      <trkpt lat="49.52042" lon="-1.8541">
        <ele>48.8</ele>
        <time>2022-08-27T05:08:37Z</time>
      </trkpt>
      <trkpt lat="49.52033" lon="-1.85396">
        <ele>49.4</ele>
        <time>2022-08-27T05:08:41Z</time>
      </trkpt>
      <trkpt lat="49.52019" lon="-1.85394">
        <ele>50.4</ele>
        <time>2022-08-27T05:08:46Z</time>
      </trkpt>
      <trkpt lat="49.52007" lon="-1.85403">
        <ele>51.2</ele>
        <time>2022-08-27T05:08:51Z</time>
      </trkpt>
      <trkpt lat="49.52002" lon="-1.85406">
        <ele>51.6</ele>
        <time>2022-08-27T05:08:53Z</time>
      </trkpt>
      <trkpt lat="49.52" lon="-1.8541">
        <ele>52</ele>
        <time>2022-08-27T05:08:55Z</time>
      </trkpt>
      <trkpt lat="49.51998" lon="-1.85413">
        <ele>52.2</ele>
        <time>2022-08-27T05:08:57Z</time>
      </trkpt>
      <trkpt lat="49.51992" lon="-1.85421">
        <ele>52.4</ele>
        <time>2022-08-27T05:08:59Z</time>
      </trkpt>
      <trkpt lat="49.51981" lon="-1.85434">
        <ele>53.2</ele>
        <time>2022-08-27T05:09:03Z</time>
      </trkpt>
      <trkpt lat="49.5197" lon="-1.85434">
        <ele>54</ele>
        <time>2022-08-27T05:09:07Z</time>
      </trkpt>
      <trkpt lat="49.51962" lon="-1.85427">
        <ele>54.2</ele>
        <time>2022-08-27T05:09:10Z</time>
      </trkpt>
      <trkpt lat="49.51956" lon="-1.85408">
        <ele>54.8</ele>
        <time>2022-08-27T05:09:15Z</time>
      </trkpt>
      <trkpt lat="49.51951" lon="-1.85392">
        <ele>55.4</ele>
        <time>2022-08-27T05:09:19Z</time>
      </trkpt>
      <trkpt lat="49.51942" lon="-1.85383">
        <ele>55.8</ele>
        <time>2022-08-27T05:09:22Z</time>
      </trkpt>
      <trkpt lat="49.51932" lon="-1.85376">
        <ele>56</ele>
        <time>2022-08-27T05:09:25Z</time>
      </trkpt>
      <trkpt lat="49.51929" lon="-1.85374">
        <ele>56</ele>
        <time>2022-08-27T05:09:26Z</time>
      </trkpt>
      <trkpt lat="49.51927" lon="-1.85372">
        <ele>56</ele>
        <time>2022-08-27T05:09:27Z</time>
      </trkpt>
      <trkpt lat="49.51917" lon="-1.85362">
        <ele>56.2</ele>
        <time>2022-08-27T05:09:30Z</time>
      </trkpt>
      <trkpt lat="49.51899" lon="-1.85357">
        <ele>56.6</ele>
        <time>2022-08-27T05:09:34Z</time>
      </trkpt>
      <trkpt lat="49.51891" lon="-1.85364">
        <ele>56.6</ele>
        <time>2022-08-27T05:09:36Z</time>
      </trkpt>
      <trkpt lat="49.51888" lon="-1.85367">
        <ele>56.6</ele>
        <time>2022-08-27T05:09:37Z</time>
      </trkpt>
      <trkpt lat="49.51874" lon="-1.8537">
        <ele>56.8</ele>
        <time>2022-08-27T05:09:41Z</time>
      </trkpt>
      <trkpt lat="49.51864" lon="-1.85368">
        <ele>57</ele>
        <time>2022-08-27T05:09:44Z</time>
      </trkpt>
      <trkpt lat="49.51854" lon="-1.85354">
        <ele>57</ele>
        <time>2022-08-27T05:09:48Z</time>
      </trkpt>
      <trkpt lat="49.51836" lon="-1.85333">
        <ele>57.4</ele>
        <time>2022-08-27T05:09:53Z</time>
      </trkpt>
      <trkpt lat="49.51823" lon="-1.85325">
        <ele>57.8</ele>
        <time>2022-08-27T05:09:57Z</time>
      </trkpt>
      <trkpt lat="49.51799" lon="-1.8532">
        <ele>58.8</ele>
        <time>2022-08-27T05:10:04Z</time>
      </trkpt>
      <trkpt lat="49.51785" lon="-1.85318">
        <ele>59.8</ele>
        <time>2022-08-27T05:10:08Z</time>
      </trkpt>
      <trkpt lat="49.5177" lon="-1.85328">
        <ele>60.8</ele>
        <time>2022-08-27T05:10:13Z</time>
      </trkpt>
      <trkpt lat="49.51755" lon="-1.85351">
        <ele>61.8</ele>
        <time>2022-08-27T05:10:20Z</time>
      </trkpt>
      <trkpt lat="49.51737" lon="-1.85375">
        <ele>62.8</ele>
        <time>2022-08-27T05:10:27Z</time>
      </trkpt>
      <trkpt lat="49.51713" lon="-1.85403">
        <ele>64.4</ele>
        <time>2022-08-27T05:10:36Z</time>
      </trkpt>
      <trkpt lat="49.51694" lon="-1.85415">
        <ele>65.6</ele>
        <time>2022-08-27T05:10:42Z</time>
      </trkpt>
      <trkpt lat="49.51673" lon="-1.85412">
        <ele>66.8</ele>
        <time>2022-08-27T05:10:48Z</time>
      </trkpt>
      <trkpt lat="49.51647" lon="-1.85396">
        <ele>68.2</ele>
        <time>2022-08-27T05:10:56Z</time>
      </trkpt>
      <trkpt lat="49.5162" lon="-1.85383">
        <ele>69.6</ele>
        <time>2022-08-27T05:11:04Z</time>
      </trkpt>
      <trkpt lat="49.51602" lon="-1.85391">
        <ele>70.4</ele>
        <time>2022-08-27T05:11:09Z</time>
      </trkpt>
      <trkpt lat="49.51576" lon="-1.85415">
        <ele>71.6</ele>
        <time>2022-08-27T05:11:17Z</time>
      </trkpt>
      <trkpt lat="49.51552" lon="-1.85433">
        <ele>72.8</ele>
        <time>2022-08-27T05:11:25Z</time>
      </trkpt>
      <trkpt lat="49.51549" lon="-1.85435">
        <ele>73.4</ele>
        <time>2022-08-27T05:11:28Z</time>
      </trkpt>
      <trkpt lat="49.51545" lon="-1.85435">
        <ele>73.8</ele>
        <time>2022-08-27T05:11:30Z</time>
      </trkpt>
      <trkpt lat="49.51543" lon="-1.85432">
        <ele>74</ele>
        <time>2022-08-27T05:11:31Z</time>
      </trkpt>
      <trkpt lat="49.51541" lon="-1.85427">
        <ele>74</ele>
        <time>2022-08-27T05:11:32Z</time>
      </trkpt>
      <trkpt lat="49.51538" lon="-1.85406">
        <ele>74.4</ele>
        <time>2022-08-27T05:11:35Z</time>
      </trkpt>
      <trkpt lat="49.51528" lon="-1.8536">
        <ele>75</ele>
        <time>2022-08-27T05:11:41Z</time>
      </trkpt>
      <trkpt lat="49.51509" lon="-1.85281">
        <ele>75.8</ele>
        <time>2022-08-27T05:11:50Z</time>
      </trkpt>
      <trkpt lat="49.51484" lon="-1.85205">
        <ele>76.6</ele>
        <time>2022-08-27T05:11:59Z</time>
      </trkpt>
      <trkpt lat="49.51477" lon="-1.85189">
        <ele>76.8</ele>
        <time>2022-08-27T05:12:01Z</time>
      </trkpt>
      <trkpt lat="49.51453" lon="-1.85126">
        <ele>77.4</ele>
        <time>2022-08-27T05:12:09Z</time>
      </trkpt>
      <trkpt lat="49.51437" lon="-1.85077">
        <ele>77.6</ele>
        <time>2022-08-27T05:12:15Z</time>
      </trkpt>
      <trkpt lat="49.51425" lon="-1.85012">
        <ele>78</ele>
        <time>2022-08-27T05:12:22Z</time>
      </trkpt>
      <trkpt lat="49.51424" lon="-1.84993">
        <ele>78.2</ele>
        <time>2022-08-27T05:12:24Z</time>
      </trkpt>
      <trkpt lat="49.51419" lon="-1.84982">
        <ele>78.2</ele>
        <time>2022-08-27T05:12:26Z</time>
      </trkpt>
      <trkpt lat="49.51408" lon="-1.84978">
        <ele>78.2</ele>
        <time>2022-08-27T05:12:29Z</time>
      </trkpt>
      <trkpt lat="49.51403" lon="-1.8498">
        <ele>78.2</ele>
        <time>2022-08-27T05:12:30Z</time>
      </trkpt>
      <trkpt lat="49.51398" lon="-1.84983">
        <ele>78</ele>
        <time>2022-08-27T05:12:31Z</time>
      </trkpt>
      <trkpt lat="49.51387" lon="-1.84996">
        <ele>78</ele>
        <time>2022-08-27T05:12:34Z</time>
      </trkpt>
      <trkpt lat="49.51376" lon="-1.85011">
        <ele>78.4</ele>
        <time>2022-08-27T05:12:37Z</time>
      </trkpt>
      <trkpt lat="49.51371" lon="-1.8502">
        <ele>77.8</ele>
        <time>2022-08-27T05:12:39Z</time>
      </trkpt>
      <trkpt lat="49.51358" lon="-1.85044">
        <ele>77.2</ele>
        <time>2022-08-27T05:12:44Z</time>
      </trkpt>
      <trkpt lat="49.5134" lon="-1.85071">
        <ele>76</ele>
        <time>2022-08-27T05:12:49Z</time>
      </trkpt>
      <trkpt lat="49.51333" lon="-1.85087">
        <ele>75.4</ele>
        <time>2022-08-27T05:12:52Z</time>
      </trkpt>
      <trkpt lat="49.51331" lon="-1.85093">
        <ele>75.2</ele>
        <time>2022-08-27T05:12:53Z</time>
      </trkpt>
      <trkpt lat="49.5133" lon="-1.851">
        <ele>75</ele>
        <time>2022-08-27T05:12:54Z</time>
      </trkpt>
      <trkpt lat="49.51327" lon="-1.85124">
        <ele>74.2</ele>
        <time>2022-08-27T05:12:57Z</time>
      </trkpt>
      <trkpt lat="49.51323" lon="-1.85163">
        <ele>73</ele>
        <time>2022-08-27T05:13:02Z</time>
      </trkpt>
      <trkpt lat="49.51321" lon="-1.85206">
        <ele>71.8</ele>
        <time>2022-08-27T05:13:06Z</time>
      </trkpt>
      <trkpt lat="49.51318" lon="-1.85234">
        <ele>70.8</ele>
        <time>2022-08-27T05:13:09Z</time>
      </trkpt>
      <trkpt lat="49.51312" lon="-1.85246">
        <ele>70.2</ele>
        <time>2022-08-27T05:13:11Z</time>
      </trkpt>
      <trkpt lat="49.51308" lon="-1.85251">
        <ele>70</ele>
        <time>2022-08-27T05:13:12Z</time>
      </trkpt>
      <trkpt lat="49.51298" lon="-1.8526">
        <ele>69.4</ele>
        <time>2022-08-27T05:13:14Z</time>
      </trkpt>
      <trkpt lat="49.51286" lon="-1.8527">
        <ele>68.8</ele>
        <time>2022-08-27T05:13:16Z</time>
      </trkpt>
      <trkpt lat="49.51272" lon="-1.85273">
        <ele>68.2</ele>
        <time>2022-08-27T05:13:18Z</time>
      </trkpt>
      <trkpt lat="49.51264" lon="-1.85273">
        <ele>68</ele>
        <time>2022-08-27T05:13:19Z</time>
      </trkpt>
      <trkpt lat="49.51258" lon="-1.85274">
        <ele>67.6</ele>
        <time>2022-08-27T05:13:20Z</time>
      </trkpt>
      <trkpt lat="49.51249" lon="-1.85277">
        <ele>66.8</ele>
        <time>2022-08-27T05:13:22Z</time>
      </trkpt>
      <trkpt lat="49.51244" lon="-1.8528">
        <ele>66.4</ele>
        <time>2022-08-27T05:13:23Z</time>
      </trkpt>
      <trkpt lat="49.51237" lon="-1.85288">
        <ele>65.8</ele>
        <time>2022-08-27T05:13:25Z</time>
      </trkpt>
      <trkpt lat="49.51233" lon="-1.85294">
        <ele>65.6</ele>
        <time>2022-08-27T05:13:26Z</time>
      </trkpt>
      <trkpt lat="49.51231" lon="-1.85301">
        <ele>65.2</ele>
        <time>2022-08-27T05:13:27Z</time>
      </trkpt>
      <trkpt lat="49.51227" lon="-1.85318">
        <ele>64.4</ele>
        <time>2022-08-27T05:13:29Z</time>
      </trkpt>
      <trkpt lat="49.51227" lon="-1.85328">
        <ele>64</ele>
        <time>2022-08-27T05:13:30Z</time>
      </trkpt>
      <trkpt lat="49.51228" lon="-1.85349">
        <ele>63.4</ele>
        <time>2022-08-27T05:13:32Z</time>
      </trkpt>
      <trkpt lat="49.5123" lon="-1.85364">
        <ele>62.4</ele>
        <time>2022-08-27T05:13:34Z</time>
      </trkpt>
      <trkpt lat="49.51231" lon="-1.85372">
        <ele>61.8</ele>
        <time>2022-08-27T05:13:36Z</time>
      </trkpt>
      <trkpt lat="49.51228" lon="-1.85375">
        <ele>61.2</ele>
        <time>2022-08-27T05:13:37Z</time>
      </trkpt>
      <trkpt lat="49.51214" lon="-1.8537">
        <ele>60</ele>
        <time>2022-08-27T05:13:40Z</time>
      </trkpt>
      <trkpt lat="49.51208" lon="-1.85368">
        <ele>59.6</ele>
        <time>2022-08-27T05:13:41Z</time>
      </trkpt>
      <trkpt lat="49.51196" lon="-1.85368">
        <ele>58.6</ele>
        <time>2022-08-27T05:13:43Z</time>
      </trkpt>
      <trkpt lat="49.51184" lon="-1.85369">
        <ele>57.2</ele>
        <time>2022-08-27T05:13:46Z</time>
      </trkpt>
      <trkpt lat="49.51181" lon="-1.85367">
        <ele>56.8</ele>
        <time>2022-08-27T05:13:47Z</time>
      </trkpt>
      <trkpt lat="49.51175" lon="-1.85362">
        <ele>55.8</ele>
        <time>2022-08-27T05:13:49Z</time>
      </trkpt>
      <trkpt lat="49.51169" lon="-1.85359">
        <ele>54.4</ele>
        <time>2022-08-27T05:13:52Z</time>
      </trkpt>
      <trkpt lat="49.51167" lon="-1.85361">
        <ele>54</ele>
        <time>2022-08-27T05:13:53Z</time>
      </trkpt>
      <trkpt lat="49.51165" lon="-1.85363">
        <ele>53.6</ele>
        <time>2022-08-27T05:13:54Z</time>
      </trkpt>
      <trkpt lat="49.51163" lon="-1.85367">
        <ele>53</ele>
        <time>2022-08-27T05:13:56Z</time>
      </trkpt>
      <trkpt lat="49.51163" lon="-1.85366">
        <ele>52.6</ele>
        <time>2022-08-27T05:13:57Z</time>
      </trkpt>
      <trkpt lat="49.51166" lon="-1.85359">
        <ele>40</ele>
        <time>2022-08-27T05:14:54Z</time>
      </trkpt>
      <trkpt lat="49.51167" lon="-1.85352">
        <ele>39.8</ele>
        <time>2022-08-27T05:14:56Z</time>
      </trkpt>
      <trkpt lat="49.51165" lon="-1.85323">
        <ele>39.4</ele>
        <time>2022-08-27T05:15:01Z</time>
      </trkpt>
      <trkpt lat="49.5116" lon="-1.85289">
        <ele>39</ele>
        <time>2022-08-27T05:15:06Z</time>
      </trkpt>
      <trkpt lat="49.51157" lon="-1.85278">
        <ele>38.8</ele>
        <time>2022-08-27T05:15:08Z</time>
      </trkpt>
      <trkpt lat="49.51155" lon="-1.85265">
        <ele>38.6</ele>
        <time>2022-08-27T05:15:12Z</time>
      </trkpt>
      <trkpt lat="49.51154" lon="-1.85264">
        <ele>38.4</ele>
        <time>2022-08-27T05:15:15Z</time>
      </trkpt>
      <trkpt lat="49.51153" lon="-1.85259">
        <ele>38</ele>
        <time>2022-08-27T05:15:21Z</time>
      </trkpt>
      <trkpt lat="49.51152" lon="-1.85257">
        <ele>38</ele>
        <time>2022-08-27T05:15:22Z</time>
      </trkpt>
      <trkpt lat="49.51145" lon="-1.85232">
        <ele>37.4</ele>
        <time>2022-08-27T05:15:28Z</time>
      </trkpt>
      <trkpt lat="49.5113" lon="-1.85186">
        <ele>36.6</ele>
        <time>2022-08-27T05:15:36Z</time>
      </trkpt>
      <trkpt lat="49.51115" lon="-1.85137">
        <ele>36.2</ele>
        <time>2022-08-27T05:15:42Z</time>
      </trkpt>
      <trkpt lat="49.51097" lon="-1.8508">
        <ele>35.6</ele>
        <time>2022-08-27T05:15:47Z</time>
      </trkpt>
      <trkpt lat="49.51074" lon="-1.8501">
        <ele>34.8</ele>
        <time>2022-08-27T05:15:53Z</time>
      </trkpt>
      <trkpt lat="49.51052" lon="-1.84945">
        <ele>34.6</ele>
        <time>2022-08-27T05:16:00Z</time>
      </trkpt>
      <trkpt lat="49.51028" lon="-1.84876">
        <ele>34.4</ele>
        <time>2022-08-27T05:16:08Z</time>
      </trkpt>
      <trkpt lat="49.51002" lon="-1.84812">
        <ele>34.2</ele>
        <time>2022-08-27T05:16:16Z</time>
      </trkpt>
      <trkpt lat="49.50979" lon="-1.84775">
        <ele>33.8</ele>
        <time>2022-08-27T05:16:22Z</time>
      </trkpt>
      <trkpt lat="49.50953" lon="-1.84737">
        <ele>33.8</ele>
        <time>2022-08-27T05:16:30Z</time>
      </trkpt>
      <trkpt lat="49.50927" lon="-1.847">
        <ele>33.8</ele>
        <time>2022-08-27T05:16:38Z</time>
      </trkpt>
      <trkpt lat="49.50911" lon="-1.84675">
        <ele>33.8</ele>
        <time>2022-08-27T05:16:43Z</time>
      </trkpt>
      <trkpt lat="49.50905" lon="-1.84666">
        <ele>33.6</ele>
        <time>2022-08-27T05:16:45Z</time>
      </trkpt>
      <trkpt lat="49.50892" lon="-1.84645">
        <ele>34</ele>
        <time>2022-08-27T05:16:50Z</time>
      </trkpt>
      <trkpt lat="49.50879" lon="-1.84629">
        <ele>34</ele>
        <time>2022-08-27T05:16:55Z</time>
      </trkpt>
      <trkpt lat="49.5086" lon="-1.84604">
        <ele>33.8</ele>
        <time>2022-08-27T05:17:01Z</time>
      </trkpt>
      <trkpt lat="49.50852" lon="-1.84599">
        <ele>34</ele>
        <time>2022-08-27T05:17:03Z</time>
      </trkpt>
      <trkpt lat="49.50842" lon="-1.846">
        <ele>34</ele>
        <time>2022-08-27T05:17:05Z</time>
      </trkpt>
      <trkpt lat="49.5083" lon="-1.84607">
        <ele>34</ele>
        <time>2022-08-27T05:17:07Z</time>
      </trkpt>
      <trkpt lat="49.50815" lon="-1.84617">
        <ele>33.6</ele>
        <time>2022-08-27T05:17:09Z</time>
      </trkpt>
      <trkpt lat="49.50777" lon="-1.84634">
        <ele>32.6</ele>
        <time>2022-08-27T05:17:13Z</time>
      </trkpt>
      <trkpt lat="49.50725" lon="-1.84644">
        <ele>31</ele>
        <time>2022-08-27T05:17:18Z</time>
      </trkpt>
      <trkpt lat="49.50704" lon="-1.8465">
        <ele>30.2</ele>
        <time>2022-08-27T05:17:21Z</time>
      </trkpt>
      <trkpt lat="49.50699" lon="-1.84654">
        <ele>30</ele>
        <time>2022-08-27T05:17:22Z</time>
      </trkpt>
      <trkpt lat="49.50689" lon="-1.84665">
        <ele>29.4</ele>
        <time>2022-08-27T05:17:24Z</time>
      </trkpt>
      <trkpt lat="49.50676" lon="-1.8467">
        <ele>28.8</ele>
        <time>2022-08-27T05:17:26Z</time>
      </trkpt>
      <trkpt lat="49.5067" lon="-1.84669">
        <ele>28.6</ele>
        <time>2022-08-27T05:17:27Z</time>
      </trkpt>
      <trkpt lat="49.50634" lon="-1.8465">
        <ele>27.4</ele>
        <time>2022-08-27T05:17:33Z</time>
      </trkpt>
      <trkpt lat="49.50623" lon="-1.84643">
        <ele>27</ele>
        <time>2022-08-27T05:17:35Z</time>
      </trkpt>
      <trkpt lat="49.50612" lon="-1.8464">
        <ele>26.6</ele>
        <time>2022-08-27T05:17:37Z</time>
      </trkpt>
      <trkpt lat="49.50607" lon="-1.84641">
        <ele>26.4</ele>
        <time>2022-08-27T05:17:38Z</time>
      </trkpt>
      <trkpt lat="49.50575" lon="-1.84652">
        <ele>25.4</ele>
        <time>2022-08-27T05:17:43Z</time>
      </trkpt>
      <trkpt lat="49.50533" lon="-1.84662">
        <ele>24.2</ele>
        <time>2022-08-27T05:17:49Z</time>
      </trkpt>
      <trkpt lat="49.50484" lon="-1.84651">
        <ele>22.8</ele>
        <time>2022-08-27T05:17:56Z</time>
      </trkpt>
      <trkpt lat="49.50441" lon="-1.84646">
        <ele>21.8</ele>
        <time>2022-08-27T05:18:02Z</time>
      </trkpt>
      <trkpt lat="49.50383" lon="-1.84645">
        <ele>20.6</ele>
        <time>2022-08-27T05:18:11Z</time>
      </trkpt>
      <trkpt lat="49.50352" lon="-1.84636">
        <ele>20</ele>
        <time>2022-08-27T05:18:16Z</time>
      </trkpt>
      <trkpt lat="49.5031" lon="-1.84619">
        <ele>19.4</ele>
        <time>2022-08-27T05:18:23Z</time>
      </trkpt>
      <trkpt lat="49.50273" lon="-1.84614">
        <ele>18.6</ele>
        <time>2022-08-27T05:18:28Z</time>
      </trkpt>
      <trkpt lat="49.50224" lon="-1.84612">
        <ele>17.8</ele>
        <time>2022-08-27T05:18:35Z</time>
      </trkpt>
      <trkpt lat="49.50218" lon="-1.84609">
        <ele>17.8</ele>
        <time>2022-08-27T05:18:36Z</time>
      </trkpt>
      <trkpt lat="49.502" lon="-1.846">
        <ele>17.6</ele>
        <time>2022-08-27T05:18:39Z</time>
      </trkpt>
      <trkpt lat="49.50195" lon="-1.84596">
        <ele>17.4</ele>
        <time>2022-08-27T05:18:40Z</time>
      </trkpt>
      <trkpt lat="49.50185" lon="-1.8459">
        <ele>17.2</ele>
        <time>2022-08-27T05:18:42Z</time>
      </trkpt>
      <trkpt lat="49.5018" lon="-1.84587">
        <ele>17</ele>
        <time>2022-08-27T05:18:43Z</time>
      </trkpt>
      <trkpt lat="49.50154" lon="-1.84572">
        <ele>16.6</ele>
        <time>2022-08-27T05:18:48Z</time>
      </trkpt>
      <trkpt lat="49.50116" lon="-1.84542">
        <ele>16.2</ele>
        <time>2022-08-27T05:18:56Z</time>
      </trkpt>
      <trkpt lat="49.50065" lon="-1.845">
        <ele>15.6</ele>
        <time>2022-08-27T05:19:06Z</time>
      </trkpt>
      <trkpt lat="49.50037" lon="-1.84469">
        <ele>15.2</ele>
        <time>2022-08-27T05:19:12Z</time>
      </trkpt>
      <trkpt lat="49.50012" lon="-1.84441">
        <ele>14.8</ele>
        <time>2022-08-27T05:19:18Z</time>
      </trkpt>
      <trkpt lat="49.49974" lon="-1.84406">
        <ele>14.4</ele>
        <time>2022-08-27T05:19:26Z</time>
      </trkpt>
      <trkpt lat="49.49939" lon="-1.84378">
        <ele>14.2</ele>
        <time>2022-08-27T05:19:33Z</time>
      </trkpt>
      <trkpt lat="49.49908" lon="-1.84342">
        <ele>13.8</ele>
        <time>2022-08-27T05:19:40Z</time>
      </trkpt>
      <trkpt lat="49.49867" lon="-1.84284">
        <ele>13.4</ele>
        <time>2022-08-27T05:19:50Z</time>
      </trkpt>
      <trkpt lat="49.49834" lon="-1.84247">
        <ele>13</ele>
        <time>2022-08-27T05:19:57Z</time>
      </trkpt>
      <trkpt lat="49.49796" lon="-1.84211">
        <ele>13</ele>
        <time>2022-08-27T05:20:05Z</time>
      </trkpt>
      <trkpt lat="49.4976" lon="-1.84173">
        <ele>12.6</ele>
        <time>2022-08-27T05:20:13Z</time>
      </trkpt>
      <trkpt lat="49.49739" lon="-1.84133">
        <ele>12.6</ele>
        <time>2022-08-27T05:20:19Z</time>
      </trkpt>
      <trkpt lat="49.49713" lon="-1.84076">
        <ele>12.4</ele>
        <time>2022-08-27T05:20:27Z</time>
      </trkpt>
      <trkpt lat="49.49691" lon="-1.84002">
        <ele>12.4</ele>
        <time>2022-08-27T05:20:36Z</time>
      </trkpt>
      <trkpt lat="49.49682" lon="-1.83942">
        <ele>12.4</ele>
        <time>2022-08-27T05:20:43Z</time>
      </trkpt>
      <trkpt lat="49.49679" lon="-1.83863">
        <ele>12.4</ele>
        <time>2022-08-27T05:20:52Z</time>
      </trkpt>
      <trkpt lat="49.49676" lon="-1.83774">
        <ele>12.6</ele>
        <time>2022-08-27T05:21:02Z</time>
      </trkpt>
      <trkpt lat="49.49669" lon="-1.83721">
        <ele>12.8</ele>
        <time>2022-08-27T05:21:08Z</time>
      </trkpt>
      <trkpt lat="49.49651" lon="-1.83649">
        <ele>12.8</ele>
        <time>2022-08-27T05:21:17Z</time>
      </trkpt>
      <trkpt lat="49.49629" lon="-1.8357">
        <ele>13</ele>
        <time>2022-08-27T05:21:27Z</time>
      </trkpt>
      <trkpt lat="49.49608" lon="-1.83492">
        <ele>12.8</ele>
        <time>2022-08-27T05:21:37Z</time>
      </trkpt>
      <trkpt lat="49.49585" lon="-1.83418">
        <ele>13</ele>
        <time>2022-08-27T05:21:47Z</time>
      </trkpt>
      <trkpt lat="49.49566" lon="-1.83369">
        <ele>13.2</ele>
        <time>2022-08-27T05:21:54Z</time>
      </trkpt>
      <trkpt lat="49.49554" lon="-1.83311">
        <ele>13.4</ele>
        <time>2022-08-27T05:22:02Z</time>
      </trkpt>
      <trkpt lat="49.49541" lon="-1.83246">
        <ele>14</ele>
        <time>2022-08-27T05:22:11Z</time>
      </trkpt>
      <trkpt lat="49.4953" lon="-1.83178">
        <ele>14.4</ele>
        <time>2022-08-27T05:22:20Z</time>
      </trkpt>
      <trkpt lat="49.49526" lon="-1.83109">
        <ele>15</ele>
        <time>2022-08-27T05:22:29Z</time>
      </trkpt>
      <trkpt lat="49.49525" lon="-1.83101">
        <ele>15</ele>
        <time>2022-08-27T05:22:30Z</time>
      </trkpt>
      <trkpt lat="49.49522" lon="-1.83087">
        <ele>15.2</ele>
        <time>2022-08-27T05:22:32Z</time>
      </trkpt>
      <trkpt lat="49.49517" lon="-1.83075">
        <ele>15.2</ele>
        <time>2022-08-27T05:22:34Z</time>
      </trkpt>
      <trkpt lat="49.4951" lon="-1.83066">
        <ele>15.4</ele>
        <time>2022-08-27T05:22:36Z</time>
      </trkpt>
      <trkpt lat="49.495" lon="-1.83056">
        <ele>15.4</ele>
        <time>2022-08-27T05:22:39Z</time>
      </trkpt>
      <trkpt lat="49.49492" lon="-1.83041">
        <ele>15.8</ele>
        <time>2022-08-27T05:22:44Z</time>
      </trkpt>
      <trkpt lat="49.49479" lon="-1.83009">
        <ele>16.2</ele>
        <time>2022-08-27T05:22:50Z</time>
      </trkpt>
      <trkpt lat="49.49459" lon="-1.82966">
        <ele>16.6</ele>
        <time>2022-08-27T05:22:58Z</time>
      </trkpt>
      <trkpt lat="49.49448" lon="-1.82949">
        <ele>16.8</ele>
        <time>2022-08-27T05:23:02Z</time>
      </trkpt>
      <trkpt lat="49.49442" lon="-1.82942">
        <ele>17</ele>
        <time>2022-08-27T05:23:04Z</time>
      </trkpt>
      <trkpt lat="49.49435" lon="-1.82935">
        <ele>17</ele>
        <time>2022-08-27T05:23:06Z</time>
      </trkpt>
      <trkpt lat="49.49427" lon="-1.8293">
        <ele>17.2</ele>
        <time>2022-08-27T05:23:08Z</time>
      </trkpt>
      <trkpt lat="49.4942" lon="-1.82923">
        <ele>17.2</ele>
        <time>2022-08-27T05:23:10Z</time>
      </trkpt>
      <trkpt lat="49.4939" lon="-1.82898">
        <ele>17</ele>
        <time>2022-08-27T05:23:17Z</time>
      </trkpt>
      <trkpt lat="49.49385" lon="-1.82894">
        <ele>17</ele>
        <time>2022-08-27T05:23:18Z</time>
      </trkpt>
      <trkpt lat="49.49375" lon="-1.82887">
        <ele>17</ele>
        <time>2022-08-27T05:23:20Z</time>
      </trkpt>
      <trkpt lat="49.49369" lon="-1.82883">
        <ele>17.4</ele>
        <time>2022-08-27T05:23:21Z</time>
      </trkpt>
      <trkpt lat="49.49337" lon="-1.82865">
        <ele>16.2</ele>
        <time>2022-08-27T05:23:26Z</time>
      </trkpt>
      <trkpt lat="49.49291" lon="-1.82842">
        <ele>15</ele>
        <time>2022-08-27T05:23:32Z</time>
      </trkpt>
      <trkpt lat="49.49274" lon="-1.82838">
        <ele>14.6</ele>
        <time>2022-08-27T05:23:34Z</time>
      </trkpt>
      <trkpt lat="49.49256" lon="-1.82837">
        <ele>14.4</ele>
        <time>2022-08-27T05:23:36Z</time>
      </trkpt>
      <trkpt lat="49.49203" lon="-1.82831">
        <ele>13.6</ele>
        <time>2022-08-27T05:23:42Z</time>
      </trkpt>
      <trkpt lat="49.49186" lon="-1.82827">
        <ele>13.2</ele>
        <time>2022-08-27T05:23:44Z</time>
      </trkpt>
      <trkpt lat="49.49178" lon="-1.8282">
        <ele>13</ele>
        <time>2022-08-27T05:23:45Z</time>
      </trkpt>
      <trkpt lat="49.49173" lon="-1.82811">
        <ele>12.8</ele>
        <time>2022-08-27T05:23:46Z</time>
      </trkpt>
      <trkpt lat="49.49165" lon="-1.8279">
        <ele>12.8</ele>
        <time>2022-08-27T05:23:48Z</time>
      </trkpt>
      <trkpt lat="49.49153" lon="-1.82756">
        <ele>12.8</ele>
        <time>2022-08-27T05:23:52Z</time>
      </trkpt>
      <trkpt lat="49.49149" lon="-1.8275">
        <ele>12.8</ele>
        <time>2022-08-27T05:23:53Z</time>
      </trkpt>
      <trkpt lat="49.4914" lon="-1.82743">
        <ele>12.8</ele>
        <time>2022-08-27T05:23:55Z</time>
      </trkpt>
      <trkpt lat="49.49121" lon="-1.82745">
        <ele>13</ele>
        <time>2022-08-27T05:23:58Z</time>
      </trkpt>
      <trkpt lat="49.49082" lon="-1.82764">
        <ele>12.6</ele>
        <time>2022-08-27T05:24:04Z</time>
      </trkpt>
      <trkpt lat="49.4905" lon="-1.82788">
        <ele>12.6</ele>
        <time>2022-08-27T05:24:10Z</time>
      </trkpt>
      <trkpt lat="49.49022" lon="-1.82808">
        <ele>13</ele>
        <time>2022-08-27T05:24:17Z</time>
      </trkpt>
      <trkpt lat="49.49" lon="-1.82822">
        <ele>13.2</ele>
        <time>2022-08-27T05:24:24Z</time>
      </trkpt>
      <trkpt lat="49.48985" lon="-1.82831">
        <ele>13.6</ele>
        <time>2022-08-27T05:24:29Z</time>
      </trkpt>
      <trkpt lat="49.48958" lon="-1.82847">
        <ele>14.4</ele>
        <time>2022-08-27T05:24:36Z</time>
      </trkpt>
      <trkpt lat="49.4895" lon="-1.8285">
        <ele>14.6</ele>
        <time>2022-08-27T05:24:38Z</time>
      </trkpt>
      <trkpt lat="49.48932" lon="-1.82854">
        <ele>14.8</ele>
        <time>2022-08-27T05:24:42Z</time>
      </trkpt>
      <trkpt lat="49.48907" lon="-1.82859">
        <ele>15</ele>
        <time>2022-08-27T05:24:47Z</time>
      </trkpt>
      <trkpt lat="49.48901" lon="-1.82861">
        <ele>15.2</ele>
        <time>2022-08-27T05:24:48Z</time>
      </trkpt>
      <trkpt lat="49.48867" lon="-1.82874">
        <ele>15.4</ele>
        <time>2022-08-27T05:24:54Z</time>
      </trkpt>
      <trkpt lat="49.48812" lon="-1.82887">
        <ele>15.8</ele>
        <time>2022-08-27T05:25:03Z</time>
      </trkpt>
      <trkpt lat="49.48807" lon="-1.8289">
        <ele>16</ele>
        <time>2022-08-27T05:25:04Z</time>
      </trkpt>
      <trkpt lat="49.48795" lon="-1.82895">
        <ele>16</ele>
        <time>2022-08-27T05:25:06Z</time>
      </trkpt>
      <trkpt lat="49.48789" lon="-1.82896">
        <ele>16</ele>
        <time>2022-08-27T05:25:07Z</time>
      </trkpt>
      <trkpt lat="49.48783" lon="-1.82896">
        <ele>16</ele>
        <time>2022-08-27T05:25:08Z</time>
      </trkpt>
      <trkpt lat="49.48765" lon="-1.82894">
        <ele>16</ele>
        <time>2022-08-27T05:25:11Z</time>
      </trkpt>
      <trkpt lat="49.48759" lon="-1.82894">
        <ele>16</ele>
        <time>2022-08-27T05:25:12Z</time>
      </trkpt>
      <trkpt lat="49.48746" lon="-1.82897">
        <ele>16</ele>
        <time>2022-08-27T05:25:14Z</time>
      </trkpt>
      <trkpt lat="49.48739" lon="-1.82896">
        <ele>16</ele>
        <time>2022-08-27T05:25:15Z</time>
      </trkpt>
      <trkpt lat="49.48733" lon="-1.82893">
        <ele>16</ele>
        <time>2022-08-27T05:25:16Z</time>
      </trkpt>
      <trkpt lat="49.48715" lon="-1.82884">
        <ele>16</ele>
        <time>2022-08-27T05:25:19Z</time>
      </trkpt>
      <trkpt lat="49.48685" lon="-1.82873">
        <ele>16</ele>
        <time>2022-08-27T05:25:24Z</time>
      </trkpt>
      <trkpt lat="49.48673" lon="-1.82873">
        <ele>16</ele>
        <time>2022-08-27T05:25:26Z</time>
      </trkpt>
      <trkpt lat="49.48638" lon="-1.82883">
        <ele>16</ele>
        <time>2022-08-27T05:25:32Z</time>
      </trkpt>
      <trkpt lat="49.48605" lon="-1.82895">
        <ele>16.2</ele>
        <time>2022-08-27T05:25:38Z</time>
      </trkpt>
      <trkpt lat="49.48601" lon="-1.829">
        <ele>16.2</ele>
        <time>2022-08-27T05:25:39Z</time>
      </trkpt>
      <trkpt lat="49.48596" lon="-1.82901">
        <ele>16.2</ele>
        <time>2022-08-27T05:25:40Z</time>
      </trkpt>
      <trkpt lat="49.48587" lon="-1.82895">
        <ele>16</ele>
        <time>2022-08-27T05:25:42Z</time>
      </trkpt>
      <trkpt lat="49.4858" lon="-1.82874">
        <ele>15.8</ele>
        <time>2022-08-27T05:25:45Z</time>
      </trkpt>
      <trkpt lat="49.48574" lon="-1.82863">
        <ele>15.8</ele>
        <time>2022-08-27T05:25:47Z</time>
      </trkpt>
      <trkpt lat="49.48565" lon="-1.82854">
        <ele>15.6</ele>
        <time>2022-08-27T05:25:49Z</time>
      </trkpt>
      <trkpt lat="49.48555" lon="-1.8285">
        <ele>15.6</ele>
        <time>2022-08-27T05:25:51Z</time>
      </trkpt>
      <trkpt lat="49.48512" lon="-1.82836">
        <ele>15.6</ele>
        <time>2022-08-27T05:26:00Z</time>
      </trkpt>
      <trkpt lat="49.48478" lon="-1.8282">
        <ele>16</ele>
        <time>2022-08-27T05:26:08Z</time>
      </trkpt>
      <trkpt lat="49.4847" lon="-1.82815">
        <ele>16</ele>
        <time>2022-08-27T05:26:10Z</time>
      </trkpt>
      <trkpt lat="49.48455" lon="-1.82801">
        <ele>16</ele>
        <time>2022-08-27T05:26:14Z</time>
      </trkpt>
      <trkpt lat="49.48431" lon="-1.82779">
        <ele>16.2</ele>
        <time>2022-08-27T05:26:21Z</time>
      </trkpt>
      <trkpt lat="49.48416" lon="-1.82766">
        <ele>16.4</ele>
        <time>2022-08-27T05:26:26Z</time>
      </trkpt>
      <trkpt lat="49.48398" lon="-1.82752">
        <ele>16.8</ele>
        <time>2022-08-27T05:26:32Z</time>
      </trkpt>
      <trkpt lat="49.48378" lon="-1.82738">
        <ele>17.2</ele>
        <time>2022-08-27T05:26:39Z</time>
      </trkpt>
      <trkpt lat="49.48353" lon="-1.82728">
        <ele>18</ele>
        <time>2022-08-27T05:26:47Z</time>
      </trkpt>
      <trkpt lat="49.48332" lon="-1.82726">
        <ele>19</ele>
        <time>2022-08-27T05:26:54Z</time>
      </trkpt>
      <trkpt lat="49.48305" lon="-1.82722">
        <ele>20.4</ele>
        <time>2022-08-27T05:27:03Z</time>
      </trkpt>
      <trkpt lat="49.48281" lon="-1.82725">
        <ele>22</ele>
        <time>2022-08-27T05:27:11Z</time>
      </trkpt>
      <trkpt lat="49.48258" lon="-1.82734">
        <ele>22.8</ele>
        <time>2022-08-27T05:27:18Z</time>
      </trkpt>
      <trkpt lat="49.48233" lon="-1.82746">
        <ele>24</ele>
        <time>2022-08-27T05:27:26Z</time>
      </trkpt>
      <trkpt lat="49.48203" lon="-1.82759">
        <ele>25.4</ele>
        <time>2022-08-27T05:27:35Z</time>
      </trkpt>
      <trkpt lat="49.48167" lon="-1.82776">
        <ele>27</ele>
        <time>2022-08-27T05:27:46Z</time>
      </trkpt>
      <trkpt lat="49.48138" lon="-1.82789">
        <ele>28.2</ele>
        <time>2022-08-27T05:27:55Z</time>
      </trkpt>
      <trkpt lat="49.48112" lon="-1.828">
        <ele>29.4</ele>
        <time>2022-08-27T05:28:03Z</time>
      </trkpt>
      <trkpt lat="49.48087" lon="-1.82811">
        <ele>30.6</ele>
        <time>2022-08-27T05:28:11Z</time>
      </trkpt>
      <trkpt lat="49.4806" lon="-1.82822">
        <ele>32</ele>
        <time>2022-08-27T05:28:20Z</time>
      </trkpt>
      <trkpt lat="49.48037" lon="-1.82831">
        <ele>33.4</ele>
        <time>2022-08-27T05:28:28Z</time>
      </trkpt>
      <trkpt lat="49.48012" lon="-1.82844">
        <ele>35</ele>
        <time>2022-08-27T05:28:37Z</time>
      </trkpt>
      <trkpt lat="49.47989" lon="-1.82859">
        <ele>36.6</ele>
        <time>2022-08-27T05:28:46Z</time>
      </trkpt>
      <trkpt lat="49.47971" lon="-1.8287">
        <ele>38.4</ele>
        <time>2022-08-27T05:28:54Z</time>
      </trkpt>
      <trkpt lat="49.47955" lon="-1.82878">
        <ele>39.8</ele>
        <time>2022-08-27T05:29:02Z</time>
      </trkpt>
      <trkpt lat="49.47935" lon="-1.82886">
        <ele>41.6</ele>
        <time>2022-08-27T05:29:12Z</time>
      </trkpt>
      <trkpt lat="49.47918" lon="-1.82893">
        <ele>43</ele>
        <time>2022-08-27T05:29:20Z</time>
      </trkpt>
      <trkpt lat="49.47897" lon="-1.82909">
        <ele>44.4</ele>
        <time>2022-08-27T05:29:28Z</time>
      </trkpt>
      <trkpt lat="49.47877" lon="-1.82923">
        <ele>45.2</ele>
        <time>2022-08-27T05:29:34Z</time>
      </trkpt>
      <trkpt lat="49.47863" lon="-1.82932">
        <ele>45.6</ele>
        <time>2022-08-27T05:29:38Z</time>
      </trkpt>
      <trkpt lat="49.4786" lon="-1.8293">
        <ele>45.8</ele>
        <time>2022-08-27T05:29:39Z</time>
      </trkpt>
      <trkpt lat="49.47836" lon="-1.8292">
        <ele>46.8</ele>
        <time>2022-08-27T05:29:47Z</time>
      </trkpt>
      <trkpt lat="49.47819" lon="-1.82924">
        <ele>48</ele>
        <time>2022-08-27T05:29:54Z</time>
      </trkpt>
      <trkpt lat="49.47795" lon="-1.82935">
        <ele>49.4</ele>
        <time>2022-08-27T05:30:04Z</time>
      </trkpt>
      <trkpt lat="49.47778" lon="-1.82942">
        <ele>50.2</ele>
        <time>2022-08-27T05:30:11Z</time>
      </trkpt>
      <trkpt lat="49.4776" lon="-1.82951">
        <ele>51.2</ele>
        <time>2022-08-27T05:30:18Z</time>
      </trkpt>
      <trkpt lat="49.47742" lon="-1.82964">
        <ele>52.4</ele>
        <time>2022-08-27T05:30:25Z</time>
      </trkpt>
      <trkpt lat="49.47722" lon="-1.82984">
        <ele>53.4</ele>
        <time>2022-08-27T05:30:33Z</time>
      </trkpt>
      <trkpt lat="49.47705" lon="-1.82994">
        <ele>54</ele>
        <time>2022-08-27T05:30:39Z</time>
      </trkpt>
      <trkpt lat="49.47683" lon="-1.83002">
        <ele>55</ele>
        <time>2022-08-27T05:30:46Z</time>
      </trkpt>
      <trkpt lat="49.47659" lon="-1.83006">
        <ele>55.8</ele>
        <time>2022-08-27T05:30:53Z</time>
      </trkpt>
      <trkpt lat="49.47631" lon="-1.83006">
        <ele>56.6</ele>
        <time>2022-08-27T05:31:01Z</time>
      </trkpt>
      <trkpt lat="49.47603" lon="-1.83003">
        <ele>57.4</ele>
        <time>2022-08-27T05:31:08Z</time>
      </trkpt>
      <trkpt lat="49.47599" lon="-1.83002">
        <ele>57.6</ele>
        <time>2022-08-27T05:31:09Z</time>
      </trkpt>
      <trkpt lat="49.47564" lon="-1.82997">
        <ele>58.4</ele>
        <time>2022-08-27T05:31:17Z</time>
      </trkpt>
      <trkpt lat="49.47533" lon="-1.82993">
        <ele>58.8</ele>
        <time>2022-08-27T05:31:23Z</time>
      </trkpt>
      <trkpt lat="49.47493" lon="-1.82989">
        <ele>59</ele>
        <time>2022-08-27T05:31:29Z</time>
      </trkpt>
      <trkpt lat="49.47454" lon="-1.82993">
        <ele>58.8</ele>
        <time>2022-08-27T05:31:34Z</time>
      </trkpt>
      <trkpt lat="49.47428" lon="-1.83004">
        <ele>58.6</ele>
        <time>2022-08-27T05:31:37Z</time>
      </trkpt>
      <trkpt lat="49.47419" lon="-1.8301">
        <ele>59.4</ele>
        <time>2022-08-27T05:31:38Z</time>
      </trkpt>
      <trkpt lat="49.47375" lon="-1.83043">
        <ele>57.6</ele>
        <time>2022-08-27T05:31:43Z</time>
      </trkpt>
      <trkpt lat="49.47358" lon="-1.8305">
        <ele>56.8</ele>
        <time>2022-08-27T05:31:45Z</time>
      </trkpt>
      <trkpt lat="49.47348" lon="-1.8305">
        <ele>56.4</ele>
        <time>2022-08-27T05:31:46Z</time>
      </trkpt>
      <trkpt lat="49.47339" lon="-1.83046">
        <ele>55.8</ele>
        <time>2022-08-27T05:31:47Z</time>
      </trkpt>
      <trkpt lat="49.47309" lon="-1.83032">
        <ele>54.4</ele>
        <time>2022-08-27T05:31:50Z</time>
      </trkpt>
      <trkpt lat="49.47285" lon="-1.83019">
        <ele>53</ele>
        <time>2022-08-27T05:31:53Z</time>
      </trkpt>
      <trkpt lat="49.47278" lon="-1.83016">
        <ele>52.4</ele>
        <time>2022-08-27T05:31:54Z</time>
      </trkpt>
      <trkpt lat="49.47266" lon="-1.83022">
        <ele>51.6</ele>
        <time>2022-08-27T05:31:56Z</time>
      </trkpt>
      <trkpt lat="49.47258" lon="-1.83045">
        <ele>50.4</ele>
        <time>2022-08-27T05:31:58Z</time>
      </trkpt>
      <trkpt lat="49.47248" lon="-1.83111">
        <ele>48.2</ele>
        <time>2022-08-27T05:32:02Z</time>
      </trkpt>
      <trkpt lat="49.47244" lon="-1.83128">
        <ele>47.6</ele>
        <time>2022-08-27T05:32:03Z</time>
      </trkpt>
      <trkpt lat="49.47229" lon="-1.8316">
        <ele>46.4</ele>
        <time>2022-08-27T05:32:05Z</time>
      </trkpt>
      <trkpt lat="49.47207" lon="-1.83184">
        <ele>45</ele>
        <time>2022-08-27T05:32:07Z</time>
      </trkpt>
      <trkpt lat="49.47155" lon="-1.83214">
        <ele>42.2</ele>
        <time>2022-08-27T05:32:11Z</time>
      </trkpt>
      <trkpt lat="49.47122" lon="-1.83231">
        <ele>40.2</ele>
        <time>2022-08-27T05:32:14Z</time>
      </trkpt>
      <trkpt lat="49.47111" lon="-1.83233">
        <ele>39.4</ele>
        <time>2022-08-27T05:32:15Z</time>
      </trkpt>
      <trkpt lat="49.47091" lon="-1.8323">
        <ele>38.2</ele>
        <time>2022-08-27T05:32:17Z</time>
      </trkpt>
      <trkpt lat="49.47082" lon="-1.83224">
        <ele>37.4</ele>
        <time>2022-08-27T05:32:18Z</time>
      </trkpt>
      <trkpt lat="49.47074" lon="-1.83215">
        <ele>36.8</ele>
        <time>2022-08-27T05:32:19Z</time>
      </trkpt>
      <trkpt lat="49.4707" lon="-1.83202">
        <ele>36.2</ele>
        <time>2022-08-27T05:32:20Z</time>
      </trkpt>
      <trkpt lat="49.47057" lon="-1.83166">
        <ele>34.4</ele>
        <time>2022-08-27T05:32:23Z</time>
      </trkpt>
      <trkpt lat="49.47046" lon="-1.83146">
        <ele>33.6</ele>
        <time>2022-08-27T05:32:25Z</time>
      </trkpt>
      <trkpt lat="49.47023" lon="-1.83103">
        <ele>31.2</ele>
        <time>2022-08-27T05:32:30Z</time>
      </trkpt>
      <trkpt lat="49.46992" lon="-1.83049">
        <ele>28.8</ele>
        <time>2022-08-27T05:32:37Z</time>
      </trkpt>
      <trkpt lat="49.46965" lon="-1.8301">
        <ele>26.6</ele>
        <time>2022-08-27T05:32:43Z</time>
      </trkpt>
      <trkpt lat="49.46931" lon="-1.82971">
        <ele>24</ele>
        <time>2022-08-27T05:32:50Z</time>
      </trkpt>
      <trkpt lat="49.46889" lon="-1.82926">
        <ele>21.4</ele>
        <time>2022-08-27T05:32:58Z</time>
      </trkpt>
      <trkpt lat="49.46857" lon="-1.82882">
        <ele>19</ele>
        <time>2022-08-27T05:33:05Z</time>
      </trkpt>
      <trkpt lat="49.46826" lon="-1.82827">
        <ele>17</ele>
        <time>2022-08-27T05:33:13Z</time>
      </trkpt>
      <trkpt lat="49.46796" lon="-1.82773">
        <ele>15.2</ele>
        <time>2022-08-27T05:33:21Z</time>
      </trkpt>
      <trkpt lat="49.46766" lon="-1.82719">
        <ele>13.8</ele>
        <time>2022-08-27T05:33:29Z</time>
      </trkpt>
      <trkpt lat="49.46743" lon="-1.82674">
        <ele>13</ele>
        <time>2022-08-27T05:33:36Z</time>
      </trkpt>
      <trkpt lat="49.46717" lon="-1.82625">
        <ele>11.8</ele>
        <time>2022-08-27T05:33:43Z</time>
      </trkpt>
      <trkpt lat="49.46694" lon="-1.82581">
        <ele>10.8</ele>
        <time>2022-08-27T05:33:49Z</time>
      </trkpt>
      <trkpt lat="49.46673" lon="-1.82541">
        <ele>9.8</ele>
        <time>2022-08-27T05:33:55Z</time>
      </trkpt>
      <trkpt lat="49.46663" lon="-1.8254">
        <ele>9.6</ele>
        <time>2022-08-27T05:33:57Z</time>
      </trkpt>
      <trkpt lat="49.4665" lon="-1.82558">
        <ele>9.4</ele>
        <time>2022-08-27T05:34:00Z</time>
      </trkpt>
      <trkpt lat="49.46624" lon="-1.82594">
        <ele>9.4</ele>
        <time>2022-08-27T05:34:06Z</time>
      </trkpt>
      <trkpt lat="49.4662" lon="-1.82598">
        <ele>9.4</ele>
        <time>2022-08-27T05:34:07Z</time>
      </trkpt>
      <trkpt lat="49.46615" lon="-1.82602">
        <ele>9.4</ele>
        <time>2022-08-27T05:34:08Z</time>
      </trkpt>
      <trkpt lat="49.46594" lon="-1.82609">
        <ele>9.2</ele>
        <time>2022-08-27T05:34:12Z</time>
      </trkpt>
      <trkpt lat="49.46585" lon="-1.82618">
        <ele>9</ele>
        <time>2022-08-27T05:34:14Z</time>
      </trkpt>
      <trkpt lat="49.46578" lon="-1.8263">
        <ele>8.8</ele>
        <time>2022-08-27T05:34:16Z</time>
      </trkpt>
      <trkpt lat="49.46561" lon="-1.82661">
        <ele>8.6</ele>
        <time>2022-08-27T05:34:21Z</time>
      </trkpt>
      <trkpt lat="49.46553" lon="-1.82677">
        <ele>8.4</ele>
        <time>2022-08-27T05:34:24Z</time>
      </trkpt>
      <trkpt lat="49.4655" lon="-1.82678">
        <ele>8.2</ele>
        <time>2022-08-27T05:34:25Z</time>
      </trkpt>
      <trkpt lat="49.46547" lon="-1.82676">
        <ele>8.2</ele>
        <time>2022-08-27T05:34:26Z</time>
      </trkpt>
      <trkpt lat="49.46537" lon="-1.82658">
        <ele>8.2</ele>
        <time>2022-08-27T05:34:30Z</time>
      </trkpt>
      <trkpt lat="49.46532" lon="-1.82649">
        <ele>8</ele>
        <time>2022-08-27T05:34:32Z</time>
      </trkpt>
      <trkpt lat="49.46526" lon="-1.82641">
        <ele>8</ele>
        <time>2022-08-27T05:34:34Z</time>
      </trkpt>
      <trkpt lat="49.46523" lon="-1.82636">
        <ele>8</ele>
        <time>2022-08-27T05:34:35Z</time>
      </trkpt>
      <trkpt lat="49.46502" lon="-1.826">
        <ele>7.2</ele>
        <time>2022-08-27T05:34:42Z</time>
      </trkpt>
      <trkpt lat="49.46485" lon="-1.82577">
        <ele>6.6</ele>
        <time>2022-08-27T05:34:47Z</time>
      </trkpt>
      <trkpt lat="49.46481" lon="-1.82574">
        <ele>6.6</ele>
        <time>2022-08-27T05:34:48Z</time>
      </trkpt>
      <trkpt lat="49.46457" lon="-1.82547">
        <ele>5.8</ele>
        <time>2022-08-27T05:34:55Z</time>
      </trkpt>
      <trkpt lat="49.46437" lon="-1.82527">
        <ele>4.8</ele>
        <time>2022-08-27T05:35:01Z</time>
      </trkpt>
      <trkpt lat="49.46424" lon="-1.82514">
        <ele>4.6</ele>
        <time>2022-08-27T05:35:06Z</time>
      </trkpt>
      <trkpt lat="49.46423" lon="-1.82511">
        <ele>4.4</ele>
        <time>2022-08-27T05:35:07Z</time>
      </trkpt>
      <trkpt lat="49.46423" lon="-1.825">
        <ele>4.6</ele>
        <time>2022-08-27T05:35:09Z</time>
      </trkpt>
      <trkpt lat="49.46439" lon="-1.82469">
        <ele>4.6</ele>
        <time>2022-08-27T05:35:15Z</time>
      </trkpt>
      <trkpt lat="49.46462" lon="-1.82428">
        <ele>4</ele>
        <time>2022-08-27T05:35:23Z</time>
      </trkpt>
      <trkpt lat="49.46465" lon="-1.82418">
        <ele>4.6</ele>
        <time>2022-08-27T05:35:26Z</time>
      </trkpt>
      <trkpt lat="49.46466" lon="-1.82418">
        <ele>4.8</ele>
        <time>2022-08-27T05:35:28Z</time>
      </trkpt>
      <trkpt lat="49.4647" lon="-1.82413">
        <ele>5.2</ele>
        <time>2022-08-27T05:36:27Z</time>
      </trkpt>
      <trkpt lat="49.46471" lon="-1.82411">
        <ele>5.2</ele>
        <time>2022-08-27T05:36:28Z</time>
      </trkpt>
      <trkpt lat="49.46482" lon="-1.82393">
        <ele>5.4</ele>
        <time>2022-08-27T05:36:33Z</time>
      </trkpt>
      <trkpt lat="49.46495" lon="-1.82364">
        <ele>5.4</ele>
        <time>2022-08-27T05:36:39Z</time>
      </trkpt>
      <trkpt lat="49.46507" lon="-1.82326">
        <ele>5.8</ele>
        <time>2022-08-27T05:36:46Z</time>
      </trkpt>
      <trkpt lat="49.46515" lon="-1.82277">
        <ele>6</ele>
        <time>2022-08-27T05:36:54Z</time>
      </trkpt>
      <trkpt lat="49.46521" lon="-1.82248">
        <ele>6.6</ele>
        <time>2022-08-27T05:37:00Z</time>
      </trkpt>
      <trkpt lat="49.4652" lon="-1.82243">
        <ele>6.6</ele>
        <time>2022-08-27T05:37:01Z</time>
      </trkpt>
      <trkpt lat="49.46515" lon="-1.82235">
        <ele>6.8</ele>
        <time>2022-08-27T05:37:03Z</time>
      </trkpt>
      <trkpt lat="49.46495" lon="-1.82207">
        <ele>7.2</ele>
        <time>2022-08-27T05:37:09Z</time>
      </trkpt>
      <trkpt lat="49.46471" lon="-1.82181">
        <ele>7.4</ele>
        <time>2022-08-27T05:37:15Z</time>
      </trkpt>
      <trkpt lat="49.4644" lon="-1.82154">
        <ele>7.4</ele>
        <time>2022-08-27T05:37:22Z</time>
      </trkpt>
      <trkpt lat="49.46398" lon="-1.82125">
        <ele>7.6</ele>
        <time>2022-08-27T05:37:31Z</time>
      </trkpt>
      <trkpt lat="49.46358" lon="-1.82101">
        <ele>7.6</ele>
        <time>2022-08-27T05:37:39Z</time>
      </trkpt>
      <trkpt lat="49.46353" lon="-1.82097">
        <ele>7.6</ele>
        <time>2022-08-27T05:37:40Z</time>
      </trkpt>
      <trkpt lat="49.46331" lon="-1.82071">
        <ele>7.4</ele>
        <time>2022-08-27T05:37:45Z</time>
      </trkpt>
      <trkpt lat="49.4631" lon="-1.82042">
        <ele>7.2</ele>
        <time>2022-08-27T05:37:50Z</time>
      </trkpt>
      <trkpt lat="49.46302" lon="-1.8203">
        <ele>7.2</ele>
        <time>2022-08-27T05:37:52Z</time>
      </trkpt>
      <trkpt lat="49.46267" lon="-1.81988">
        <ele>6.8</ele>
        <time>2022-08-27T05:38:00Z</time>
      </trkpt>
      <trkpt lat="49.46221" lon="-1.81946">
        <ele>6.2</ele>
        <time>2022-08-27T05:38:09Z</time>
      </trkpt>
      <trkpt lat="49.46211" lon="-1.81937">
        <ele>6.2</ele>
        <time>2022-08-27T05:38:11Z</time>
      </trkpt>
      <trkpt lat="49.46194" lon="-1.81922">
        <ele>5.8</ele>
        <time>2022-08-27T05:38:15Z</time>
      </trkpt>
      <trkpt lat="49.46181" lon="-1.81911">
        <ele>5.8</ele>
        <time>2022-08-27T05:38:19Z</time>
      </trkpt>
      <trkpt lat="49.46179" lon="-1.81908">
        <ele>5.6</ele>
        <time>2022-08-27T05:38:20Z</time>
      </trkpt>
      <trkpt lat="49.46175" lon="-1.81896">
        <ele>5.6</ele>
        <time>2022-08-27T05:38:22Z</time>
      </trkpt>
      <trkpt lat="49.46165" lon="-1.81839">
        <ele>5.8</ele>
        <time>2022-08-27T05:38:30Z</time>
      </trkpt>
      <trkpt lat="49.46151" lon="-1.81766">
        <ele>5.2</ele>
        <time>2022-08-27T05:38:40Z</time>
      </trkpt>
      <trkpt lat="49.46143" lon="-1.81722">
        <ele>5.8</ele>
        <time>2022-08-27T05:38:46Z</time>
      </trkpt>
      <trkpt lat="49.46138" lon="-1.81699">
        <ele>5.8</ele>
        <time>2022-08-27T05:38:49Z</time>
      </trkpt>
      <trkpt lat="49.46131" lon="-1.81646">
        <ele>6</ele>
        <time>2022-08-27T05:38:56Z</time>
      </trkpt>
      <trkpt lat="49.4612" lon="-1.81596">
        <ele>6.4</ele>
        <time>2022-08-27T05:39:03Z</time>
      </trkpt>
      <trkpt lat="49.46113" lon="-1.81555">
        <ele>6.6</ele>
        <time>2022-08-27T05:39:09Z</time>
      </trkpt>
      <trkpt lat="49.46108" lon="-1.81518">
        <ele>7</ele>
        <time>2022-08-27T05:39:15Z</time>
      </trkpt>
      <trkpt lat="49.46106" lon="-1.81512">
        <ele>7</ele>
        <time>2022-08-27T05:39:16Z</time>
      </trkpt>
      <trkpt lat="49.46098" lon="-1.81458">
        <ele>7.6</ele>
        <time>2022-08-27T05:39:24Z</time>
      </trkpt>
      <trkpt lat="49.46092" lon="-1.81434">
        <ele>7.8</ele>
        <time>2022-08-27T05:39:28Z</time>
      </trkpt>
      <trkpt lat="49.4609" lon="-1.81429">
        <ele>8</ele>
        <time>2022-08-27T05:39:29Z</time>
      </trkpt>
      <trkpt lat="49.46077" lon="-1.81403">
        <ele>8.6</ele>
        <time>2022-08-27T05:39:35Z</time>
      </trkpt>
      <trkpt lat="49.46054" lon="-1.81371">
        <ele>9</ele>
        <time>2022-08-27T05:39:44Z</time>
      </trkpt>
      <trkpt lat="49.4603" lon="-1.8134">
        <ele>9.2</ele>
        <time>2022-08-27T05:39:51Z</time>
      </trkpt>
      <trkpt lat="49.46009" lon="-1.81311">
        <ele>9.2</ele>
        <time>2022-08-27T05:39:56Z</time>
      </trkpt>
      <trkpt lat="49.46004" lon="-1.81306">
        <ele>9.2</ele>
        <time>2022-08-27T05:39:57Z</time>
      </trkpt>
      <trkpt lat="49.45997" lon="-1.81302">
        <ele>9.2</ele>
        <time>2022-08-27T05:39:58Z</time>
      </trkpt>
      <trkpt lat="49.45982" lon="-1.81297">
        <ele>9.2</ele>
        <time>2022-08-27T05:40:00Z</time>
      </trkpt>
      <trkpt lat="49.45966" lon="-1.81297">
        <ele>9.2</ele>
        <time>2022-08-27T05:40:02Z</time>
      </trkpt>
      <trkpt lat="49.45949" lon="-1.81303">
        <ele>9.4</ele>
        <time>2022-08-27T05:40:04Z</time>
      </trkpt>
      <trkpt lat="49.45941" lon="-1.81305">
        <ele>9.4</ele>
        <time>2022-08-27T05:40:05Z</time>
      </trkpt>
      <trkpt lat="49.45919" lon="-1.81305">
        <ele>9.6</ele>
        <time>2022-08-27T05:40:08Z</time>
      </trkpt>
      <trkpt lat="49.45892" lon="-1.81301">
        <ele>9.8</ele>
        <time>2022-08-27T05:40:12Z</time>
      </trkpt>
      <trkpt lat="49.45879" lon="-1.81301">
        <ele>9.8</ele>
        <time>2022-08-27T05:40:14Z</time>
      </trkpt>
      <trkpt lat="49.45868" lon="-1.813">
        <ele>9.8</ele>
        <time>2022-08-27T05:40:16Z</time>
      </trkpt>
      <trkpt lat="49.45858" lon="-1.81301">
        <ele>9.8</ele>
        <time>2022-08-27T05:40:18Z</time>
      </trkpt>
      <trkpt lat="49.45848" lon="-1.81296">
        <ele>9.8</ele>
        <time>2022-08-27T05:40:20Z</time>
      </trkpt>
      <trkpt lat="49.45838" lon="-1.8129">
        <ele>9.8</ele>
        <time>2022-08-27T05:40:22Z</time>
      </trkpt>
      <trkpt lat="49.45795" lon="-1.81262">
        <ele>10</ele>
        <time>2022-08-27T05:40:31Z</time>
      </trkpt>
      <trkpt lat="49.45757" lon="-1.81239">
        <ele>10.2</ele>
        <time>2022-08-27T05:40:38Z</time>
      </trkpt>
      <trkpt lat="49.45734" lon="-1.8123">
        <ele>10.2</ele>
        <time>2022-08-27T05:40:42Z</time>
      </trkpt>
      <trkpt lat="49.45722" lon="-1.81228">
        <ele>10.2</ele>
        <time>2022-08-27T05:40:44Z</time>
      </trkpt>
      <trkpt lat="49.45684" lon="-1.81226">
        <ele>10</ele>
        <time>2022-08-27T05:40:51Z</time>
      </trkpt>
      <trkpt lat="49.4564" lon="-1.81224">
        <ele>10.2</ele>
        <time>2022-08-27T05:40:59Z</time>
      </trkpt>
      <trkpt lat="49.45635" lon="-1.81224">
        <ele>10.2</ele>
        <time>2022-08-27T05:41:00Z</time>
      </trkpt>
      <trkpt lat="49.45607" lon="-1.81217">
        <ele>10.2</ele>
        <time>2022-08-27T05:41:05Z</time>
      </trkpt>
      <trkpt lat="49.45587" lon="-1.8121">
        <ele>10.2</ele>
        <time>2022-08-27T05:41:09Z</time>
      </trkpt>
      <trkpt lat="49.45572" lon="-1.81203">
        <ele>10.6</ele>
        <time>2022-08-27T05:41:12Z</time>
      </trkpt>
      <trkpt lat="49.45568" lon="-1.812">
        <ele>10.6</ele>
        <time>2022-08-27T05:41:13Z</time>
      </trkpt>
      <trkpt lat="49.45549" lon="-1.81185">
        <ele>10.8</ele>
        <time>2022-08-27T05:41:17Z</time>
      </trkpt>
      <trkpt lat="49.45524" lon="-1.81161">
        <ele>11.2</ele>
        <time>2022-08-27T05:41:23Z</time>
      </trkpt>
      <trkpt lat="49.45492" lon="-1.81128">
        <ele>11.6</ele>
        <time>2022-08-27T05:41:31Z</time>
      </trkpt>
      <trkpt lat="49.45472" lon="-1.81108">
        <ele>11.8</ele>
        <time>2022-08-27T05:41:36Z</time>
      </trkpt>
      <trkpt lat="49.45442" lon="-1.8108">
        <ele>12.2</ele>
        <time>2022-08-27T05:41:43Z</time>
      </trkpt>
      <trkpt lat="49.45407" lon="-1.81046">
        <ele>12.2</ele>
        <time>2022-08-27T05:41:51Z</time>
      </trkpt>
      <trkpt lat="49.45372" lon="-1.81021">
        <ele>12.2</ele>
        <time>2022-08-27T05:41:58Z</time>
      </trkpt>
      <trkpt lat="49.45367" lon="-1.81019">
        <ele>12.2</ele>
        <time>2022-08-27T05:41:59Z</time>
      </trkpt>
      <trkpt lat="49.45356" lon="-1.81016">
        <ele>12.2</ele>
        <time>2022-08-27T05:42:01Z</time>
      </trkpt>
      <trkpt lat="49.4535" lon="-1.81016">
        <ele>12.2</ele>
        <time>2022-08-27T05:42:02Z</time>
      </trkpt>
      <trkpt lat="49.45344" lon="-1.81019">
        <ele>11.8</ele>
        <time>2022-08-27T05:42:03Z</time>
      </trkpt>
      <trkpt lat="49.45339" lon="-1.81026">
        <ele>12</ele>
        <time>2022-08-27T05:42:04Z</time>
      </trkpt>
      <trkpt lat="49.45337" lon="-1.81034">
        <ele>11.8</ele>
        <time>2022-08-27T05:42:05Z</time>
      </trkpt>
      <trkpt lat="49.45336" lon="-1.8105">
        <ele>11.8</ele>
        <time>2022-08-27T05:42:07Z</time>
      </trkpt>
      <trkpt lat="49.45343" lon="-1.81061">
        <ele>11.6</ele>
        <time>2022-08-27T05:42:09Z</time>
      </trkpt>
      <trkpt lat="49.45348" lon="-1.81066">
        <ele>11.6</ele>
        <time>2022-08-27T05:42:10Z</time>
      </trkpt>
      <trkpt lat="49.45352" lon="-1.81071">
        <ele>11.4</ele>
        <time>2022-08-27T05:42:11Z</time>
      </trkpt>
      <trkpt lat="49.45355" lon="-1.81087">
        <ele>11.2</ele>
        <time>2022-08-27T05:42:13Z</time>
      </trkpt>
      <trkpt lat="49.45354" lon="-1.81124">
        <ele>10.8</ele>
        <time>2022-08-27T05:42:17Z</time>
      </trkpt>
      <trkpt lat="49.45357" lon="-1.81184">
        <ele>10</ele>
        <time>2022-08-27T05:42:23Z</time>
      </trkpt>
      <trkpt lat="49.45356" lon="-1.81203">
        <ele>9.8</ele>
        <time>2022-08-27T05:42:25Z</time>
      </trkpt>
      <trkpt lat="49.45352" lon="-1.81223">
        <ele>9.6</ele>
        <time>2022-08-27T05:42:27Z</time>
      </trkpt>
      <trkpt lat="49.45348" lon="-1.81251">
        <ele>9.4</ele>
        <time>2022-08-27T05:42:30Z</time>
      </trkpt>
      <trkpt lat="49.45349" lon="-1.81269">
        <ele>9.2</ele>
        <time>2022-08-27T05:42:32Z</time>
      </trkpt>
      <trkpt lat="49.4535" lon="-1.81286">
        <ele>9</ele>
        <time>2022-08-27T05:42:34Z</time>
      </trkpt>
      <trkpt lat="49.45346" lon="-1.81301">
        <ele>8.8</ele>
        <time>2022-08-27T05:42:36Z</time>
      </trkpt>
      <trkpt lat="49.45337" lon="-1.8131">
        <ele>8.6</ele>
        <time>2022-08-27T05:42:38Z</time>
      </trkpt>
      <trkpt lat="49.45331" lon="-1.81312">
        <ele>8.4</ele>
        <time>2022-08-27T05:42:39Z</time>
      </trkpt>
      <trkpt lat="49.45326" lon="-1.81314">
        <ele>8.4</ele>
        <time>2022-08-27T05:42:40Z</time>
      </trkpt>
      <trkpt lat="49.45306" lon="-1.8132">
        <ele>8.2</ele>
        <time>2022-08-27T05:42:44Z</time>
      </trkpt>
      <trkpt lat="49.45276" lon="-1.81331">
        <ele>8.2</ele>
        <time>2022-08-27T05:42:50Z</time>
      </trkpt>
      <trkpt lat="49.45245" lon="-1.81337">
        <ele>7.8</ele>
        <time>2022-08-27T05:42:56Z</time>
      </trkpt>
      <trkpt lat="49.4521" lon="-1.81353">
        <ele>7.8</ele>
        <time>2022-08-27T05:43:03Z</time>
      </trkpt>
      <trkpt lat="49.45181" lon="-1.81368">
        <ele>7.6</ele>
        <time>2022-08-27T05:43:09Z</time>
      </trkpt>
      <trkpt lat="49.45171" lon="-1.8137">
        <ele>7.6</ele>
        <time>2022-08-27T05:43:11Z</time>
      </trkpt>
      <trkpt lat="49.45167" lon="-1.8137">
        <ele>7.6</ele>
        <time>2022-08-27T05:43:12Z</time>
      </trkpt>
      <trkpt lat="49.45158" lon="-1.81373">
        <ele>7.6</ele>
        <time>2022-08-27T05:43:14Z</time>
      </trkpt>
      <trkpt lat="49.45153" lon="-1.81385">
        <ele>7.6</ele>
        <time>2022-08-27T05:43:16Z</time>
      </trkpt>
      <trkpt lat="49.45151" lon="-1.81392">
        <ele>7.6</ele>
        <time>2022-08-27T05:43:17Z</time>
      </trkpt>
      <trkpt lat="49.45137" lon="-1.81441">
        <ele>7.6</ele>
        <time>2022-08-27T05:43:24Z</time>
      </trkpt>
      <trkpt lat="49.45123" lon="-1.81483">
        <ele>7.6</ele>
        <time>2022-08-27T05:43:30Z</time>
      </trkpt>
      <trkpt lat="49.4512" lon="-1.8149">
        <ele>7.6</ele>
        <time>2022-08-27T05:43:31Z</time>
      </trkpt>
      <trkpt lat="49.45098" lon="-1.81544">
        <ele>7.6</ele>
        <time>2022-08-27T05:43:39Z</time>
      </trkpt>
      <trkpt lat="49.45077" lon="-1.81604">
        <ele>7.8</ele>
        <time>2022-08-27T05:43:48Z</time>
      </trkpt>
      <trkpt lat="49.45075" lon="-1.8161">
        <ele>7.8</ele>
        <time>2022-08-27T05:43:49Z</time>
      </trkpt>
      <trkpt lat="49.45061" lon="-1.81641">
        <ele>7.8</ele>
        <time>2022-08-27T05:43:54Z</time>
      </trkpt>
      <trkpt lat="49.45053" lon="-1.81645">
        <ele>7.8</ele>
        <time>2022-08-27T05:43:56Z</time>
      </trkpt>
      <trkpt lat="49.45048" lon="-1.81643">
        <ele>7.8</ele>
        <time>2022-08-27T05:43:57Z</time>
      </trkpt>
      <trkpt lat="49.45045" lon="-1.8164">
        <ele>7.8</ele>
        <time>2022-08-27T05:43:58Z</time>
      </trkpt>
      <trkpt lat="49.45037" lon="-1.81633">
        <ele>7.8</ele>
        <time>2022-08-27T05:44:00Z</time>
      </trkpt>
      <trkpt lat="49.45029" lon="-1.81626">
        <ele>7.8</ele>
        <time>2022-08-27T05:44:02Z</time>
      </trkpt>
      <trkpt lat="49.44997" lon="-1.816">
        <ele>7.4</ele>
        <time>2022-08-27T05:44:09Z</time>
      </trkpt>
      <trkpt lat="49.4496" lon="-1.81569">
        <ele>7.2</ele>
        <time>2022-08-27T05:44:17Z</time>
      </trkpt>
      <trkpt lat="49.44918" lon="-1.81536">
        <ele>7</ele>
        <time>2022-08-27T05:44:26Z</time>
      </trkpt>
      <trkpt lat="49.4489" lon="-1.81515">
        <ele>7</ele>
        <time>2022-08-27T05:44:32Z</time>
      </trkpt>
      <trkpt lat="49.44842" lon="-1.81479">
        <ele>6.8</ele>
        <time>2022-08-27T05:44:42Z</time>
      </trkpt>
      <trkpt lat="49.44794" lon="-1.81442">
        <ele>6.6</ele>
        <time>2022-08-27T05:44:52Z</time>
      </trkpt>
      <trkpt lat="49.44761" lon="-1.81412">
        <ele>6.2</ele>
        <time>2022-08-27T05:44:59Z</time>
      </trkpt>
      <trkpt lat="49.44756" lon="-1.81407">
        <ele>6</ele>
        <time>2022-08-27T05:45:00Z</time>
      </trkpt>
      <trkpt lat="49.44714" lon="-1.81367">
        <ele>5.2</ele>
        <time>2022-08-27T05:45:09Z</time>
      </trkpt>
      <trkpt lat="49.44672" lon="-1.81325">
        <ele>4.6</ele>
        <time>2022-08-27T05:45:18Z</time>
      </trkpt>
      <trkpt lat="49.44633" lon="-1.81291">
        <ele>4</ele>
        <time>2022-08-27T05:45:27Z</time>
      </trkpt>
      <trkpt lat="49.44607" lon="-1.81269">
        <ele>3.8</ele>
        <time>2022-08-27T05:45:33Z</time>
      </trkpt>
      <trkpt lat="49.44571" lon="-1.81238">
        <ele>3.6</ele>
        <time>2022-08-27T05:45:41Z</time>
      </trkpt>
      <trkpt lat="49.4454" lon="-1.81206">
        <ele>3.4</ele>
        <time>2022-08-27T05:45:48Z</time>
      </trkpt>
      <trkpt lat="49.44497" lon="-1.8116">
        <ele>3</ele>
        <time>2022-08-27T05:45:58Z</time>
      </trkpt>
      <trkpt lat="49.4446" lon="-1.8113">
        <ele>3</ele>
        <time>2022-08-27T05:46:06Z</time>
      </trkpt>
      <trkpt lat="49.44455" lon="-1.81128">
        <ele>3</ele>
        <time>2022-08-27T05:46:07Z</time>
      </trkpt>
      <trkpt lat="49.4445" lon="-1.81125">
        <ele>3</ele>
        <time>2022-08-27T05:46:08Z</time>
      </trkpt>
      <trkpt lat="49.44432" lon="-1.8111">
        <ele>2.8</ele>
        <time>2022-08-27T05:46:12Z</time>
      </trkpt>
      <trkpt lat="49.44386" lon="-1.81079">
        <ele>2.4</ele>
        <time>2022-08-27T05:46:21Z</time>
      </trkpt>
      <trkpt lat="49.44347" lon="-1.81053">
        <ele>2</ele>
        <time>2022-08-27T05:46:29Z</time>
      </trkpt>
      <trkpt lat="49.44313" lon="-1.81036">
        <ele>1.4</ele>
        <time>2022-08-27T05:46:36Z</time>
      </trkpt>
      <trkpt lat="49.44271" lon="-1.81013">
        <ele>1.6</ele>
        <time>2022-08-27T05:46:44Z</time>
      </trkpt>
      <trkpt lat="49.44219" lon="-1.80986">
        <ele>2.4</ele>
        <time>2022-08-27T05:46:54Z</time>
      </trkpt>
      <trkpt lat="49.44187" lon="-1.80969">
        <ele>2.2</ele>
        <time>2022-08-27T05:47:01Z</time>
      </trkpt>
      <trkpt lat="49.4416" lon="-1.80956">
        <ele>2.2</ele>
        <time>2022-08-27T05:47:07Z</time>
      </trkpt>
      <trkpt lat="49.44122" lon="-1.80939">
        <ele>2.6</ele>
        <time>2022-08-27T05:47:15Z</time>
      </trkpt>
      <trkpt lat="49.44117" lon="-1.80936">
        <ele>2.6</ele>
        <time>2022-08-27T05:47:16Z</time>
      </trkpt>
      <trkpt lat="49.44099" lon="-1.80929">
        <ele>2.8</ele>
        <time>2022-08-27T05:47:20Z</time>
      </trkpt>
      <trkpt lat="49.44063" lon="-1.80913">
        <ele>3</ele>
        <time>2022-08-27T05:47:28Z</time>
      </trkpt>
      <trkpt lat="49.44035" lon="-1.80901">
        <ele>2.6</ele>
        <time>2022-08-27T05:47:34Z</time>
      </trkpt>
      <trkpt lat="49.44007" lon="-1.80889">
        <ele>2.2</ele>
        <time>2022-08-27T05:47:40Z</time>
      </trkpt>
      <trkpt lat="49.43976" lon="-1.80883">
        <ele>2.6</ele>
        <time>2022-08-27T05:47:47Z</time>
      </trkpt>
      <trkpt lat="49.43937" lon="-1.80878">
        <ele>3</ele>
        <time>2022-08-27T05:47:55Z</time>
      </trkpt>
      <trkpt lat="49.43906" lon="-1.80875">
        <ele>3</ele>
        <time>2022-08-27T05:48:02Z</time>
      </trkpt>
      <trkpt lat="49.43897" lon="-1.80874">
        <ele>3</ele>
        <time>2022-08-27T05:48:04Z</time>
      </trkpt>
      <trkpt lat="49.43885" lon="-1.80872">
        <ele>3</ele>
        <time>2022-08-27T05:48:07Z</time>
      </trkpt>
      <trkpt lat="49.43876" lon="-1.80871">
        <ele>3</ele>
        <time>2022-08-27T05:48:09Z</time>
      </trkpt>
      <trkpt lat="49.43853" lon="-1.80869">
        <ele>3</ele>
        <time>2022-08-27T05:48:14Z</time>
      </trkpt>
      <trkpt lat="49.43817" lon="-1.80864">
        <ele>3.4</ele>
        <time>2022-08-27T05:48:22Z</time>
      </trkpt>
      <trkpt lat="49.43808" lon="-1.80862">
        <ele>3.4</ele>
        <time>2022-08-27T05:48:24Z</time>
      </trkpt>
      <trkpt lat="49.43791" lon="-1.8086">
        <ele>3.4</ele>
        <time>2022-08-27T05:48:28Z</time>
      </trkpt>
      <trkpt lat="49.4377" lon="-1.80859">
        <ele>3.4</ele>
        <time>2022-08-27T05:48:33Z</time>
      </trkpt>
      <trkpt lat="49.43742" lon="-1.80856">
        <ele>3</ele>
        <time>2022-08-27T05:48:39Z</time>
      </trkpt>
      <trkpt lat="49.43712" lon="-1.80852">
        <ele>2.8</ele>
        <time>2022-08-27T05:48:45Z</time>
      </trkpt>
      <trkpt lat="49.43687" lon="-1.8085">
        <ele>2.8</ele>
        <time>2022-08-27T05:48:50Z</time>
      </trkpt>
      <trkpt lat="49.43683" lon="-1.80849">
        <ele>2.6</ele>
        <time>2022-08-27T05:48:51Z</time>
      </trkpt>
      <trkpt lat="49.43678" lon="-1.80849">
        <ele>2.6</ele>
        <time>2022-08-27T05:48:52Z</time>
      </trkpt>
      <trkpt lat="49.43663" lon="-1.80849">
        <ele>2.4</ele>
        <time>2022-08-27T05:48:55Z</time>
      </trkpt>
      <trkpt lat="49.43644" lon="-1.80848">
        <ele>2</ele>
        <time>2022-08-27T05:48:59Z</time>
      </trkpt>
      <trkpt lat="49.43635" lon="-1.80847">
        <ele>1.6</ele>
        <time>2022-08-27T05:49:01Z</time>
      </trkpt>
      <trkpt lat="49.43597" lon="-1.80842">
        <ele>1.2</ele>
        <time>2022-08-27T05:49:08Z</time>
      </trkpt>
      <trkpt lat="49.43567" lon="-1.80836">
        <ele>1</ele>
        <time>2022-08-27T05:49:14Z</time>
      </trkpt>
      <trkpt lat="49.43547" lon="-1.80835">
        <ele>1</ele>
        <time>2022-08-27T05:49:18Z</time>
      </trkpt>
      <trkpt lat="49.43542" lon="-1.80834">
        <ele>1</ele>
        <time>2022-08-27T05:49:19Z</time>
      </trkpt>
      <trkpt lat="49.43533" lon="-1.80833">
        <ele>0.80000000000001</ele>
        <time>2022-08-27T05:49:21Z</time>
      </trkpt>
      <trkpt lat="49.43521" lon="-1.80832">
        <ele>0.39999999999998</ele>
        <time>2022-08-27T05:49:24Z</time>
      </trkpt>
      <trkpt lat="49.43498" lon="-1.80831">
        <ele>0.39999999999998</ele>
        <time>2022-08-27T05:49:29Z</time>
      </trkpt>
      <trkpt lat="49.43488" lon="-1.8083">
        <ele>-0.19999999999999</ele>
        <time>2022-08-27T05:49:31Z</time>
      </trkpt>
      <trkpt lat="49.43476" lon="-1.80828">
        <ele>-0.39999999999998</ele>
        <time>2022-08-27T05:49:34Z</time>
      </trkpt>
      <trkpt lat="49.43467" lon="-1.80826">
        <ele>-0.60000000000002</ele>
        <time>2022-08-27T05:49:36Z</time>
      </trkpt>
      <trkpt lat="49.4345" lon="-1.80823">
        <ele>-0.80000000000001</ele>
        <time>2022-08-27T05:49:40Z</time>
      </trkpt>
      <trkpt lat="49.43438" lon="-1.80822">
        <ele>-1</ele>
        <time>2022-08-27T05:49:43Z</time>
      </trkpt>
      <trkpt lat="49.43428" lon="-1.80821">
        <ele>-1.2</ele>
        <time>2022-08-27T05:49:45Z</time>
      </trkpt>
      <trkpt lat="49.43399" lon="-1.80816">
        <ele>-1.4</ele>
        <time>2022-08-27T05:49:51Z</time>
      </trkpt>
      <trkpt lat="49.43369" lon="-1.80813">
        <ele>-1</ele>
        <time>2022-08-27T05:49:57Z</time>
      </trkpt>
      <trkpt lat="49.43335" lon="-1.80808">
        <ele>-0.39999999999998</ele>
        <time>2022-08-27T05:50:04Z</time>
      </trkpt>
      <trkpt lat="49.4333" lon="-1.80807">
        <ele>-0.39999999999998</ele>
        <time>2022-08-27T05:50:05Z</time>
      </trkpt>
      <trkpt lat="49.43321" lon="-1.80805">
        <ele>-0.80000000000001</ele>
        <time>2022-08-27T05:50:07Z</time>
      </trkpt>
      <trkpt lat="49.43316" lon="-1.80805">
        <ele>-0.80000000000001</ele>
        <time>2022-08-27T05:50:08Z</time>
      </trkpt>
      <trkpt lat="49.43296" lon="-1.80802">
        <ele>-0.60000000000002</ele>
        <time>2022-08-27T05:50:13Z</time>
      </trkpt>
      <trkpt lat="49.43266" lon="-1.80799">
        <ele>-0.39999999999998</ele>
        <time>2022-08-27T05:50:20Z</time>
      </trkpt>
      <trkpt lat="49.43256" lon="-1.80798">
        <ele>-0.19999999999999</ele>
        <time>2022-08-27T05:50:22Z</time>
      </trkpt>
      <trkpt lat="49.43237" lon="-1.80797">
        <ele>-0.19999999999999</ele>
        <time>2022-08-27T05:50:26Z</time>
      </trkpt>
      <trkpt lat="49.43219" lon="-1.80795">
        <ele>0.19999999999999</ele>
        <time>2022-08-27T05:50:30Z</time>
      </trkpt>
      <trkpt lat="49.4321" lon="-1.80794">
        <ele>0.39999999999998</ele>
        <time>2022-08-27T05:50:32Z</time>
      </trkpt>
      <trkpt lat="49.43161" lon="-1.80788">
        <ele>1.2</ele>
        <time>2022-08-27T05:50:41Z</time>
      </trkpt>
      <trkpt lat="49.43136" lon="-1.80784">
        <ele>1.4</ele>
        <time>2022-08-27T05:50:46Z</time>
      </trkpt>
      <trkpt lat="49.43132" lon="-1.80783">
        <ele>1.6</ele>
        <time>2022-08-27T05:50:47Z</time>
      </trkpt>
      <trkpt lat="49.43119" lon="-1.80783">
        <ele>1.6</ele>
        <time>2022-08-27T05:50:50Z</time>
      </trkpt>
      <trkpt lat="49.43114" lon="-1.80782">
        <ele>1.6</ele>
        <time>2022-08-27T05:50:51Z</time>
      </trkpt>
      <trkpt lat="49.43091" lon="-1.8078">
        <ele>1.6</ele>
        <time>2022-08-27T05:50:56Z</time>
      </trkpt>
      <trkpt lat="49.43055" lon="-1.8078">
        <ele>1.4</ele>
        <time>2022-08-27T05:51:03Z</time>
      </trkpt>
      <trkpt lat="49.43039" lon="-1.80778">
        <ele>2.2</ele>
        <time>2022-08-27T05:51:06Z</time>
      </trkpt>
      <trkpt lat="49.43025" lon="-1.80776">
        <ele>1.6</ele>
        <time>2022-08-27T05:51:09Z</time>
      </trkpt>
      <trkpt lat="49.43007" lon="-1.80773">
        <ele>2</ele>
        <time>2022-08-27T05:51:14Z</time>
      </trkpt>
      <trkpt lat="49.43004" lon="-1.8076">
        <ele>2.4</ele>
        <time>2022-08-27T05:51:17Z</time>
      </trkpt>
      <trkpt lat="49.43" lon="-1.80719">
        <ele>3.4</ele>
        <time>2022-08-27T05:51:24Z</time>
      </trkpt>
      <trkpt lat="49.42995" lon="-1.80674">
        <ele>4.6</ele>
        <time>2022-08-27T05:51:32Z</time>
      </trkpt>
      <trkpt lat="49.42991" lon="-1.80639">
        <ele>5.8</ele>
        <time>2022-08-27T05:51:39Z</time>
      </trkpt>
      <trkpt lat="49.42987" lon="-1.80609">
        <ele>7</ele>
        <time>2022-08-27T05:51:46Z</time>
      </trkpt>
      <trkpt lat="49.42985" lon="-1.80578">
        <ele>8.6</ele>
        <time>2022-08-27T05:51:54Z</time>
      </trkpt>
      <trkpt lat="49.42982" lon="-1.80563">
        <ele>9.6</ele>
        <time>2022-08-27T05:51:59Z</time>
      </trkpt>
      <trkpt lat="49.4298" lon="-1.80534">
        <ele>11.6</ele>
        <time>2022-08-27T05:52:08Z</time>
      </trkpt>
      <trkpt lat="49.42979" lon="-1.80522">
        <ele>12.4</ele>
        <time>2022-08-27T05:52:12Z</time>
      </trkpt>
      <trkpt lat="49.42979" lon="-1.80519">
        <ele>12.6</ele>
        <time>2022-08-27T05:52:13Z</time>
      </trkpt>
      <trkpt lat="49.42977" lon="-1.805">
        <ele>14</ele>
        <time>2022-08-27T05:52:19Z</time>
      </trkpt>
      <trkpt lat="49.42979" lon="-1.80473">
        <ele>15.8</ele>
        <time>2022-08-27T05:52:28Z</time>
      </trkpt>
      <trkpt lat="49.42979" lon="-1.80454">
        <ele>17.2</ele>
        <time>2022-08-27T05:52:35Z</time>
      </trkpt>
      <trkpt lat="49.42978" lon="-1.80452">
        <ele>17.4</ele>
        <time>2022-08-27T05:52:36Z</time>
      </trkpt>
      <trkpt lat="49.42977" lon="-1.80446">
        <ele>17.8</ele>
        <time>2022-08-27T05:52:38Z</time>
      </trkpt>
      <trkpt lat="49.42977" lon="-1.80443">
        <ele>18.2</ele>
        <time>2022-08-27T05:52:39Z</time>
      </trkpt>
      <trkpt lat="49.42975" lon="-1.80423">
        <ele>19.2</ele>
        <time>2022-08-27T05:52:45Z</time>
      </trkpt>
      <trkpt lat="49.42973" lon="-1.80401">
        <ele>20.4</ele>
        <time>2022-08-27T05:52:51Z</time>
      </trkpt>
      <trkpt lat="49.4297" lon="-1.80359">
        <ele>22.2</ele>
        <time>2022-08-27T05:53:01Z</time>
      </trkpt>
      <trkpt lat="49.42963" lon="-1.80332">
        <ele>23.4</ele>
        <time>2022-08-27T05:53:07Z</time>
      </trkpt>
      <trkpt lat="49.42949" lon="-1.80296">
        <ele>24.8</ele>
        <time>2022-08-27T05:53:15Z</time>
      </trkpt>
      <trkpt lat="49.42931" lon="-1.80265">
        <ele>25.8</ele>
        <time>2022-08-27T05:53:23Z</time>
      </trkpt>
      <trkpt lat="49.42912" lon="-1.80228">
        <ele>27.4</ele>
        <time>2022-08-27T05:53:32Z</time>
      </trkpt>
      <trkpt lat="49.42898" lon="-1.80195">
        <ele>28.6</ele>
        <time>2022-08-27T05:53:40Z</time>
      </trkpt>
      <trkpt lat="49.42883" lon="-1.80164">
        <ele>29.6</ele>
        <time>2022-08-27T05:53:48Z</time>
      </trkpt>
      <trkpt lat="49.42869" lon="-1.80142">
        <ele>30.6</ele>
        <time>2022-08-27T05:53:54Z</time>
      </trkpt>
      <trkpt lat="49.42847" lon="-1.80121">
        <ele>31.6</ele>
        <time>2022-08-27T05:54:02Z</time>
      </trkpt>
      <trkpt lat="49.42826" lon="-1.80099">
        <ele>32.6</ele>
        <time>2022-08-27T05:54:10Z</time>
      </trkpt>
      <trkpt lat="49.42802" lon="-1.80083">
        <ele>33.6</ele>
        <time>2022-08-27T05:54:18Z</time>
      </trkpt>
      <trkpt lat="49.42774" lon="-1.80068">
        <ele>34.8</ele>
        <time>2022-08-27T05:54:27Z</time>
      </trkpt>
      <trkpt lat="49.4274" lon="-1.80049">
        <ele>36</ele>
        <time>2022-08-27T05:54:38Z</time>
      </trkpt>
      <trkpt lat="49.42716" lon="-1.80037">
        <ele>37</ele>
        <time>2022-08-27T05:54:46Z</time>
      </trkpt>
      <trkpt lat="49.42695" lon="-1.80026">
        <ele>38.2</ele>
        <time>2022-08-27T05:54:54Z</time>
      </trkpt>
      <trkpt lat="49.4267" lon="-1.80013">
        <ele>39.4</ele>
        <time>2022-08-27T05:55:03Z</time>
      </trkpt>
      <trkpt lat="49.4265" lon="-1.80002">
        <ele>40.4</ele>
        <time>2022-08-27T05:55:11Z</time>
      </trkpt>
      <trkpt lat="49.4262" lon="-1.79989">
        <ele>41.8</ele>
        <time>2022-08-27T05:55:21Z</time>
      </trkpt>
      <trkpt lat="49.42597" lon="-1.79983">
        <ele>42.8</ele>
        <time>2022-08-27T05:55:29Z</time>
      </trkpt>
      <trkpt lat="49.42567" lon="-1.79983">
        <ele>43.6</ele>
        <time>2022-08-27T05:55:38Z</time>
      </trkpt>
      <trkpt lat="49.42544" lon="-1.79972">
        <ele>44</ele>
        <time>2022-08-27T05:55:44Z</time>
      </trkpt>
      <trkpt lat="49.42541" lon="-1.79968">
        <ele>44.2</ele>
        <time>2022-08-27T05:55:45Z</time>
      </trkpt>
      <trkpt lat="49.42535" lon="-1.79957">
        <ele>44.2</ele>
        <time>2022-08-27T05:55:47Z</time>
      </trkpt>
      <trkpt lat="49.42531" lon="-1.79945">
        <ele>44.4</ele>
        <time>2022-08-27T05:55:49Z</time>
      </trkpt>
      <trkpt lat="49.42518" lon="-1.79916">
        <ele>44.8</ele>
        <time>2022-08-27T05:55:54Z</time>
      </trkpt>
      <trkpt lat="49.42513" lon="-1.79904">
        <ele>44.8</ele>
        <time>2022-08-27T05:55:56Z</time>
      </trkpt>
      <trkpt lat="49.42485" lon="-1.79848">
        <ele>45.4</ele>
        <time>2022-08-27T05:56:05Z</time>
      </trkpt>
      <trkpt lat="49.42464" lon="-1.79804">
        <ele>45.8</ele>
        <time>2022-08-27T05:56:12Z</time>
      </trkpt>
      <trkpt lat="49.42441" lon="-1.79765">
        <ele>46.2</ele>
        <time>2022-08-27T05:56:19Z</time>
      </trkpt>
      <trkpt lat="49.42412" lon="-1.79729">
        <ele>46.6</ele>
        <time>2022-08-27T05:56:27Z</time>
      </trkpt>
      <trkpt lat="49.42389" lon="-1.79714">
        <ele>47</ele>
        <time>2022-08-27T05:56:32Z</time>
      </trkpt>
      <trkpt lat="49.42384" lon="-1.79712">
        <ele>47</ele>
        <time>2022-08-27T05:56:33Z</time>
      </trkpt>
      <trkpt lat="49.42355" lon="-1.79706">
        <ele>47.2</ele>
        <time>2022-08-27T05:56:39Z</time>
      </trkpt>
      <trkpt lat="49.42311" lon="-1.79705">
        <ele>47.6</ele>
        <time>2022-08-27T05:56:48Z</time>
      </trkpt>
      <trkpt lat="49.4227" lon="-1.79701">
        <ele>47.8</ele>
        <time>2022-08-27T05:56:56Z</time>
      </trkpt>
      <trkpt lat="49.42243" lon="-1.79697">
        <ele>48</ele>
        <time>2022-08-27T05:57:00Z</time>
      </trkpt>
      <trkpt lat="49.42199" lon="-1.7969">
        <ele>48.2</ele>
        <time>2022-08-27T05:57:07Z</time>
      </trkpt>
      <trkpt lat="49.42171" lon="-1.79684">
        <ele>48.6</ele>
        <time>2022-08-27T05:57:13Z</time>
      </trkpt>
      <trkpt lat="49.42144" lon="-1.79679">
        <ele>49</ele>
        <time>2022-08-27T05:57:19Z</time>
      </trkpt>
      <trkpt lat="49.4212" lon="-1.79673">
        <ele>49.4</ele>
        <time>2022-08-27T05:57:25Z</time>
      </trkpt>
      <trkpt lat="49.42098" lon="-1.79669">
        <ele>49.6</ele>
        <time>2022-08-27T05:57:31Z</time>
      </trkpt>
      <trkpt lat="49.42076" lon="-1.79665">
        <ele>50.2</ele>
        <time>2022-08-27T05:57:38Z</time>
      </trkpt>
      <trkpt lat="49.42055" lon="-1.79659">
        <ele>50.6</ele>
        <time>2022-08-27T05:57:45Z</time>
      </trkpt>
      <trkpt lat="49.42034" lon="-1.79655">
        <ele>51.2</ele>
        <time>2022-08-27T05:57:52Z</time>
      </trkpt>
      <trkpt lat="49.42007" lon="-1.79653">
        <ele>51.8</ele>
        <time>2022-08-27T05:58:00Z</time>
      </trkpt>
      <trkpt lat="49.41979" lon="-1.79655">
        <ele>52.4</ele>
        <time>2022-08-27T05:58:07Z</time>
      </trkpt>
      <trkpt lat="49.4195" lon="-1.79659">
        <ele>53</ele>
        <time>2022-08-27T05:58:14Z</time>
      </trkpt>
      <trkpt lat="49.41917" lon="-1.79665">
        <ele>53.8</ele>
        <time>2022-08-27T05:58:21Z</time>
      </trkpt>
      <trkpt lat="49.41872" lon="-1.79671">
        <ele>54.4</ele>
        <time>2022-08-27T05:58:30Z</time>
      </trkpt>
      <trkpt lat="49.41833" lon="-1.79676">
        <ele>55</ele>
        <time>2022-08-27T05:58:38Z</time>
      </trkpt>
      <trkpt lat="49.41792" lon="-1.79677">
        <ele>55.2</ele>
        <time>2022-08-27T05:58:46Z</time>
      </trkpt>
      <trkpt lat="49.41756" lon="-1.79671">
        <ele>55.2</ele>
        <time>2022-08-27T05:58:52Z</time>
      </trkpt>
      <trkpt lat="49.41741" lon="-1.79671">
        <ele>55</ele>
        <time>2022-08-27T05:58:54Z</time>
      </trkpt>
      <trkpt lat="49.41725" lon="-1.79675">
        <ele>54.2</ele>
        <time>2022-08-27T05:58:56Z</time>
      </trkpt>
      <trkpt lat="49.41685" lon="-1.79682">
        <ele>53.2</ele>
        <time>2022-08-27T05:59:00Z</time>
      </trkpt>
      <trkpt lat="49.41674" lon="-1.79682">
        <ele>52.8</ele>
        <time>2022-08-27T05:59:01Z</time>
      </trkpt>
      <trkpt lat="49.41652" lon="-1.79678">
        <ele>52</ele>
        <time>2022-08-27T05:59:03Z</time>
      </trkpt>
      <trkpt lat="49.4161" lon="-1.79669">
        <ele>49.8</ele>
        <time>2022-08-27T05:59:07Z</time>
      </trkpt>
      <trkpt lat="49.41599" lon="-1.79668">
        <ele>49.4</ele>
        <time>2022-08-27T05:59:08Z</time>
      </trkpt>
      <trkpt lat="49.41576" lon="-1.79672">
        <ele>48.2</ele>
        <time>2022-08-27T05:59:10Z</time>
      </trkpt>
      <trkpt lat="49.41549" lon="-1.79684">
        <ele>46.8</ele>
        <time>2022-08-27T05:59:13Z</time>
      </trkpt>
      <trkpt lat="49.41542" lon="-1.7969">
        <ele>46.2</ele>
        <time>2022-08-27T05:59:14Z</time>
      </trkpt>
      <trkpt lat="49.41537" lon="-1.79696">
        <ele>45.8</ele>
        <time>2022-08-27T05:59:15Z</time>
      </trkpt>
      <trkpt lat="49.41524" lon="-1.79706">
        <ele>44.8</ele>
        <time>2022-08-27T05:59:17Z</time>
      </trkpt>
      <trkpt lat="49.4151" lon="-1.79703">
        <ele>43.8</ele>
        <time>2022-08-27T05:59:19Z</time>
      </trkpt>
      <trkpt lat="49.41502" lon="-1.79698">
        <ele>43.6</ele>
        <time>2022-08-27T05:59:20Z</time>
      </trkpt>
      <trkpt lat="49.41484" lon="-1.79677">
        <ele>43</ele>
        <time>2022-08-27T05:59:23Z</time>
      </trkpt>
      <trkpt lat="49.41471" lon="-1.79668">
        <ele>42.4</ele>
        <time>2022-08-27T05:59:25Z</time>
      </trkpt>
      <trkpt lat="49.41458" lon="-1.79658">
        <ele>41.8</ele>
        <time>2022-08-27T05:59:27Z</time>
      </trkpt>
      <trkpt lat="49.41441" lon="-1.79642">
        <ele>41</ele>
        <time>2022-08-27T05:59:30Z</time>
      </trkpt>
      <trkpt lat="49.41405" lon="-1.79602">
        <ele>39.2</ele>
        <time>2022-08-27T05:59:37Z</time>
      </trkpt>
      <trkpt lat="49.41389" lon="-1.79579">
        <ele>38.2</ele>
        <time>2022-08-27T05:59:42Z</time>
      </trkpt>
      <trkpt lat="49.41379" lon="-1.79561">
        <ele>37.2</ele>
        <time>2022-08-27T05:59:47Z</time>
      </trkpt>
      <trkpt lat="49.41369" lon="-1.79542">
        <ele>36.2</ele>
        <time>2022-08-27T05:59:54Z</time>
      </trkpt>
      <trkpt lat="49.41363" lon="-1.79526">
        <ele>36.4</ele>
        <time>2022-08-27T06:00:00Z</time>
      </trkpt>
      <trkpt lat="49.41353" lon="-1.79509">
        <ele>36.6</ele>
        <time>2022-08-27T06:00:06Z</time>
      </trkpt>
      <trkpt lat="49.41344" lon="-1.79493">
        <ele>35.6</ele>
        <time>2022-08-27T06:00:12Z</time>
      </trkpt>
      <trkpt lat="49.41335" lon="-1.79477">
        <ele>36</ele>
        <time>2022-08-27T06:00:17Z</time>
      </trkpt>
      <trkpt lat="49.41324" lon="-1.79458">
        <ele>37</ele>
        <time>2022-08-27T06:00:22Z</time>
      </trkpt>
      <trkpt lat="49.41313" lon="-1.79437">
        <ele>36.6</ele>
        <time>2022-08-27T06:00:27Z</time>
      </trkpt>
      <trkpt lat="49.41297" lon="-1.79414">
        <ele>36.8</ele>
        <time>2022-08-27T06:00:32Z</time>
      </trkpt>
      <trkpt lat="49.41295" lon="-1.7941">
        <ele>36.8</ele>
        <time>2022-08-27T06:00:33Z</time>
      </trkpt>
      <trkpt lat="49.4129" lon="-1.79401">
        <ele>37.2</ele>
        <time>2022-08-27T06:00:35Z</time>
      </trkpt>
      <trkpt lat="49.41269" lon="-1.79366">
        <ele>37.8</ele>
        <time>2022-08-27T06:00:42Z</time>
      </trkpt>
      <trkpt lat="49.41251" lon="-1.79332">
        <ele>38.4</ele>
        <time>2022-08-27T06:00:49Z</time>
      </trkpt>
      <trkpt lat="49.41242" lon="-1.79301">
        <ele>38.8</ele>
        <time>2022-08-27T06:00:55Z</time>
      </trkpt>
      <trkpt lat="49.41235" lon="-1.79258">
        <ele>40</ele>
        <time>2022-08-27T06:01:04Z</time>
      </trkpt>
      <trkpt lat="49.41234" lon="-1.79218">
        <ele>41.2</ele>
        <time>2022-08-27T06:01:13Z</time>
      </trkpt>
      <trkpt lat="49.41237" lon="-1.79192">
        <ele>42</ele>
        <time>2022-08-27T06:01:19Z</time>
      </trkpt>
      <trkpt lat="49.4124" lon="-1.79164">
        <ele>42.8</ele>
        <time>2022-08-27T06:01:25Z</time>
      </trkpt>
      <trkpt lat="49.41241" lon="-1.79127">
        <ele>43.6</ele>
        <time>2022-08-27T06:01:32Z</time>
      </trkpt>
      <trkpt lat="49.41232" lon="-1.79097">
        <ele>44.4</ele>
        <time>2022-08-27T06:01:39Z</time>
      </trkpt>
      <trkpt lat="49.41223" lon="-1.79082">
        <ele>45.2</ele>
        <time>2022-08-27T06:01:44Z</time>
      </trkpt>
      <trkpt lat="49.41213" lon="-1.79071">
        <ele>46.2</ele>
        <time>2022-08-27T06:01:49Z</time>
      </trkpt>
      <trkpt lat="49.41204" lon="-1.79065">
        <ele>47</ele>
        <time>2022-08-27T06:01:54Z</time>
      </trkpt>
      <trkpt lat="49.41192" lon="-1.79056">
        <ele>47.4</ele>
        <time>2022-08-27T06:01:59Z</time>
      </trkpt>
      <trkpt lat="49.41176" lon="-1.79039">
        <ele>48.4</ele>
        <time>2022-08-27T06:02:08Z</time>
      </trkpt>
      <trkpt lat="49.41162" lon="-1.79022">
        <ele>50</ele>
        <time>2022-08-27T06:02:17Z</time>
      </trkpt>
      <trkpt lat="49.41151" lon="-1.79006">
        <ele>51.4</ele>
        <time>2022-08-27T06:02:25Z</time>
      </trkpt>
      <trkpt lat="49.41142" lon="-1.78988">
        <ele>52.6</ele>
        <time>2022-08-27T06:02:33Z</time>
      </trkpt>
      <trkpt lat="49.41135" lon="-1.7897">
        <ele>54</ele>
        <time>2022-08-27T06:02:40Z</time>
      </trkpt>
      <trkpt lat="49.41125" lon="-1.78949">
        <ele>55.2</ele>
        <time>2022-08-27T06:02:48Z</time>
      </trkpt>
      <trkpt lat="49.4111" lon="-1.78926">
        <ele>56.4</ele>
        <time>2022-08-27T06:02:56Z</time>
      </trkpt>
      <trkpt lat="49.4109" lon="-1.78895">
        <ele>57.8</ele>
        <time>2022-08-27T06:03:06Z</time>
      </trkpt>
      <trkpt lat="49.41072" lon="-1.78869">
        <ele>59</ele>
        <time>2022-08-27T06:03:15Z</time>
      </trkpt>
      <trkpt lat="49.41055" lon="-1.78859">
        <ele>59.8</ele>
        <time>2022-08-27T06:03:22Z</time>
      </trkpt>
      <trkpt lat="49.41034" lon="-1.78855">
        <ele>60.6</ele>
        <time>2022-08-27T06:03:30Z</time>
      </trkpt>
      <trkpt lat="49.4102" lon="-1.78843">
        <ele>61</ele>
        <time>2022-08-27T06:03:37Z</time>
      </trkpt>
      <trkpt lat="49.41016" lon="-1.7882">
        <ele>61.6</ele>
        <time>2022-08-27T06:03:43Z</time>
      </trkpt>
      <trkpt lat="49.41011" lon="-1.78791">
        <ele>62.2</ele>
        <time>2022-08-27T06:03:49Z</time>
      </trkpt>
      <trkpt lat="49.41001" lon="-1.78777">
        <ele>62.6</ele>
        <time>2022-08-27T06:03:53Z</time>
      </trkpt>
      <trkpt lat="49.40982" lon="-1.78768">
        <ele>63.2</ele>
        <time>2022-08-27T06:03:59Z</time>
      </trkpt>
      <trkpt lat="49.40948" lon="-1.78754">
        <ele>64.4</ele>
        <time>2022-08-27T06:04:10Z</time>
      </trkpt>
      <trkpt lat="49.40924" lon="-1.78738">
        <ele>65.4</ele>
        <time>2022-08-27T06:04:18Z</time>
      </trkpt>
      <trkpt lat="49.409" lon="-1.78719">
        <ele>66</ele>
        <time>2022-08-27T06:04:25Z</time>
      </trkpt>
      <trkpt lat="49.40872" lon="-1.78712">
        <ele>66.8</ele>
        <time>2022-08-27T06:04:32Z</time>
      </trkpt>
      <trkpt lat="49.40828" lon="-1.7871">
        <ele>67.6</ele>
        <time>2022-08-27T06:04:42Z</time>
      </trkpt>
      <trkpt lat="49.40821" lon="-1.78703">
        <ele>67.6</ele>
        <time>2022-08-27T06:04:44Z</time>
      </trkpt>
      <trkpt lat="49.40818" lon="-1.78698">
        <ele>67.8</ele>
        <time>2022-08-27T06:04:45Z</time>
      </trkpt>
      <trkpt lat="49.40803" lon="-1.78659">
        <ele>68.4</ele>
        <time>2022-08-27T06:04:52Z</time>
      </trkpt>
      <trkpt lat="49.40796" lon="-1.78643">
        <ele>68.6</ele>
        <time>2022-08-27T06:04:55Z</time>
      </trkpt>
      <trkpt lat="49.4079" lon="-1.78637">
        <ele>68.8</ele>
        <time>2022-08-27T06:04:57Z</time>
      </trkpt>
      <trkpt lat="49.40782" lon="-1.7864">
        <ele>69</ele>
        <time>2022-08-27T06:04:59Z</time>
      </trkpt>
      <trkpt lat="49.4078" lon="-1.78644">
        <ele>69.2</ele>
        <time>2022-08-27T06:05:00Z</time>
      </trkpt>
      <trkpt lat="49.40758" lon="-1.78683">
        <ele>70.2</ele>
        <time>2022-08-27T06:05:08Z</time>
      </trkpt>
      <trkpt lat="49.40738" lon="-1.78729">
        <ele>71</ele>
        <time>2022-08-27T06:05:16Z</time>
      </trkpt>
      <trkpt lat="49.40715" lon="-1.78788">
        <ele>71.8</ele>
        <time>2022-08-27T06:05:25Z</time>
      </trkpt>
      <trkpt lat="49.40688" lon="-1.78859">
        <ele>73</ele>
        <time>2022-08-27T06:05:35Z</time>
      </trkpt>
      <trkpt lat="49.40657" lon="-1.78937">
        <ele>73.8</ele>
        <time>2022-08-27T06:05:45Z</time>
      </trkpt>
      <trkpt lat="49.40631" lon="-1.79001">
        <ele>74.2</ele>
        <time>2022-08-27T06:05:53Z</time>
      </trkpt>
      <trkpt lat="49.40601" lon="-1.79074">
        <ele>74.8</ele>
        <time>2022-08-27T06:06:02Z</time>
      </trkpt>
      <trkpt lat="49.40586" lon="-1.79114">
        <ele>75.2</ele>
        <time>2022-08-27T06:06:07Z</time>
      </trkpt>
      <trkpt lat="49.40556" lon="-1.79189">
        <ele>75.8</ele>
        <time>2022-08-27T06:06:16Z</time>
      </trkpt>
      <trkpt lat="49.40553" lon="-1.79198">
        <ele>76</ele>
        <time>2022-08-27T06:06:17Z</time>
      </trkpt>
      <trkpt lat="49.40523" lon="-1.79276">
        <ele>76.4</ele>
        <time>2022-08-27T06:06:26Z</time>
      </trkpt>
      <trkpt lat="49.4052" lon="-1.79285">
        <ele>76.4</ele>
        <time>2022-08-27T06:06:27Z</time>
      </trkpt>
      <trkpt lat="49.40491" lon="-1.79364">
        <ele>76.8</ele>
        <time>2022-08-27T06:06:36Z</time>
      </trkpt>
      <trkpt lat="49.40488" lon="-1.79373">
        <ele>76.8</ele>
        <time>2022-08-27T06:06:37Z</time>
      </trkpt>
      <trkpt lat="49.40466" lon="-1.79423">
        <ele>76.8</ele>
        <time>2022-08-27T06:06:43Z</time>
      </trkpt>
      <trkpt lat="49.40456" lon="-1.79439">
        <ele>76.8</ele>
        <time>2022-08-27T06:06:45Z</time>
      </trkpt>
      <trkpt lat="49.40412" lon="-1.79496">
        <ele>76.8</ele>
        <time>2022-08-27T06:06:53Z</time>
      </trkpt>
      <trkpt lat="49.40406" lon="-1.79502">
        <ele>76.8</ele>
        <time>2022-08-27T06:06:54Z</time>
      </trkpt>
      <trkpt lat="49.40363" lon="-1.79535">
        <ele>76.6</ele>
        <time>2022-08-27T06:07:01Z</time>
      </trkpt>
      <trkpt lat="49.40312" lon="-1.79569">
        <ele>76.4</ele>
        <time>2022-08-27T06:07:09Z</time>
      </trkpt>
      <trkpt lat="49.40306" lon="-1.79573">
        <ele>76.4</ele>
        <time>2022-08-27T06:07:10Z</time>
      </trkpt>
      <trkpt lat="49.4028" lon="-1.79597">
        <ele>76.4</ele>
        <time>2022-08-27T06:07:15Z</time>
      </trkpt>
      <trkpt lat="49.40258" lon="-1.79625">
        <ele>76.4</ele>
        <time>2022-08-27T06:07:20Z</time>
      </trkpt>
      <trkpt lat="49.40215" lon="-1.79685">
        <ele>76.6</ele>
        <time>2022-08-27T06:07:30Z</time>
      </trkpt>
      <trkpt lat="49.40174" lon="-1.79746">
        <ele>76.4</ele>
        <time>2022-08-27T06:07:40Z</time>
      </trkpt>
      <trkpt lat="49.40149" lon="-1.79784">
        <ele>76.4</ele>
        <time>2022-08-27T06:07:46Z</time>
      </trkpt>
      <trkpt lat="49.40119" lon="-1.79823">
        <ele>76.2</ele>
        <time>2022-08-27T06:07:53Z</time>
      </trkpt>
      <trkpt lat="49.40086" lon="-1.79871">
        <ele>76</ele>
        <time>2022-08-27T06:08:01Z</time>
      </trkpt>
      <trkpt lat="49.40066" lon="-1.79914">
        <ele>76</ele>
        <time>2022-08-27T06:08:08Z</time>
      </trkpt>
      <trkpt lat="49.40059" lon="-1.79923">
        <ele>76</ele>
        <time>2022-08-27T06:08:10Z</time>
      </trkpt>
      <trkpt lat="49.40054" lon="-1.79924">
        <ele>75.8</ele>
        <time>2022-08-27T06:08:11Z</time>
      </trkpt>
      <trkpt lat="49.40049" lon="-1.79923">
        <ele>75.8</ele>
        <time>2022-08-27T06:08:12Z</time>
      </trkpt>
      <trkpt lat="49.40038" lon="-1.79913">
        <ele>75.6</ele>
        <time>2022-08-27T06:08:14Z</time>
      </trkpt>
      <trkpt lat="49.39996" lon="-1.7987">
        <ele>74.8</ele>
        <time>2022-08-27T06:08:21Z</time>
      </trkpt>
      <trkpt lat="49.39968" lon="-1.7985">
        <ele>74.2</ele>
        <time>2022-08-27T06:08:25Z</time>
      </trkpt>
      <trkpt lat="49.39953" lon="-1.79843">
        <ele>73.8</ele>
        <time>2022-08-27T06:08:27Z</time>
      </trkpt>
      <trkpt lat="49.39933" lon="-1.79831">
        <ele>73.4</ele>
        <time>2022-08-27T06:08:30Z</time>
      </trkpt>
      <trkpt lat="49.39929" lon="-1.79824">
        <ele>73.4</ele>
        <time>2022-08-27T06:08:31Z</time>
      </trkpt>
      <trkpt lat="49.39925" lon="-1.79816">
        <ele>73.2</ele>
        <time>2022-08-27T06:08:32Z</time>
      </trkpt>
      <trkpt lat="49.39922" lon="-1.79798">
        <ele>73</ele>
        <time>2022-08-27T06:08:34Z</time>
      </trkpt>
      <trkpt lat="49.39919" lon="-1.79783">
        <ele>72.6</ele>
        <time>2022-08-27T06:08:36Z</time>
      </trkpt>
      <trkpt lat="49.39912" lon="-1.79773">
        <ele>72.2</ele>
        <time>2022-08-27T06:08:38Z</time>
      </trkpt>
      <trkpt lat="49.39903" lon="-1.79771">
        <ele>72</ele>
        <time>2022-08-27T06:08:40Z</time>
      </trkpt>
      <trkpt lat="49.39894" lon="-1.79772">
        <ele>71.8</ele>
        <time>2022-08-27T06:08:42Z</time>
      </trkpt>
      <trkpt lat="49.39884" lon="-1.79772">
        <ele>71.4</ele>
        <time>2022-08-27T06:08:44Z</time>
      </trkpt>
      <trkpt lat="49.39873" lon="-1.79769">
        <ele>71.2</ele>
        <time>2022-08-27T06:08:46Z</time>
      </trkpt>
      <trkpt lat="49.39852" lon="-1.7976">
        <ele>70.6</ele>
        <time>2022-08-27T06:08:50Z</time>
      </trkpt>
      <trkpt lat="49.39846" lon="-1.79759">
        <ele>70.6</ele>
        <time>2022-08-27T06:08:51Z</time>
      </trkpt>
      <trkpt lat="49.39835" lon="-1.79756">
        <ele>70.6</ele>
        <time>2022-08-27T06:08:53Z</time>
      </trkpt>
      <trkpt lat="49.39819" lon="-1.79752">
        <ele>70.6</ele>
        <time>2022-08-27T06:08:56Z</time>
      </trkpt>
      <trkpt lat="49.39809" lon="-1.7975">
        <ele>70.4</ele>
        <time>2022-08-27T06:08:58Z</time>
      </trkpt>
      <trkpt lat="49.39782" lon="-1.79742">
        <ele>70.2</ele>
        <time>2022-08-27T06:09:03Z</time>
      </trkpt>
      <trkpt lat="49.39738" lon="-1.79736">
        <ele>69.8</ele>
        <time>2022-08-27T06:09:11Z</time>
      </trkpt>
      <trkpt lat="49.39681" lon="-1.79734">
        <ele>69.4</ele>
        <time>2022-08-27T06:09:21Z</time>
      </trkpt>
      <trkpt lat="49.39629" lon="-1.79738">
        <ele>69</ele>
        <time>2022-08-27T06:09:30Z</time>
      </trkpt>
      <trkpt lat="49.3958" lon="-1.79745">
        <ele>68.8</ele>
        <time>2022-08-27T06:09:38Z</time>
      </trkpt>
      <trkpt lat="49.39534" lon="-1.79754">
        <ele>68.2</ele>
        <time>2022-08-27T06:09:45Z</time>
      </trkpt>
      <trkpt lat="49.39476" lon="-1.79765">
        <ele>67.4</ele>
        <time>2022-08-27T06:09:53Z</time>
      </trkpt>
      <trkpt lat="49.39461" lon="-1.79767">
        <ele>67.2</ele>
        <time>2022-08-27T06:09:55Z</time>
      </trkpt>
      <trkpt lat="49.3941" lon="-1.79772">
        <ele>66.6</ele>
        <time>2022-08-27T06:10:01Z</time>
      </trkpt>
      <trkpt lat="49.39358" lon="-1.79774">
        <ele>65.4</ele>
        <time>2022-08-27T06:10:06Z</time>
      </trkpt>
      <trkpt lat="49.39312" lon="-1.79771">
        <ele>63.8</ele>
        <time>2022-08-27T06:10:10Z</time>
      </trkpt>
      <trkpt lat="49.39281" lon="-1.79764">
        <ele>62.6</ele>
        <time>2022-08-27T06:10:13Z</time>
      </trkpt>
      <trkpt lat="49.39272" lon="-1.79758">
        <ele>62</ele>
        <time>2022-08-27T06:10:14Z</time>
      </trkpt>
      <trkpt lat="49.39263" lon="-1.79748">
        <ele>61.6</ele>
        <time>2022-08-27T06:10:15Z</time>
      </trkpt>
      <trkpt lat="49.39257" lon="-1.79736">
        <ele>61</ele>
        <time>2022-08-27T06:10:16Z</time>
      </trkpt>
      <trkpt lat="49.39253" lon="-1.79721">
        <ele>60.6</ele>
        <time>2022-08-27T06:10:17Z</time>
      </trkpt>
      <trkpt lat="49.39252" lon="-1.79704">
        <ele>60</ele>
        <time>2022-08-27T06:10:18Z</time>
      </trkpt>
      <trkpt lat="49.39253" lon="-1.7967">
        <ele>59</ele>
        <time>2022-08-27T06:10:20Z</time>
      </trkpt>
      <trkpt lat="49.39248" lon="-1.79636">
        <ele>58</ele>
        <time>2022-08-27T06:10:22Z</time>
      </trkpt>
      <trkpt lat="49.39233" lon="-1.79615">
        <ele>57.2</ele>
        <time>2022-08-27T06:10:24Z</time>
      </trkpt>
      <trkpt lat="49.39214" lon="-1.7961">
        <ele>56.4</ele>
        <time>2022-08-27T06:10:26Z</time>
      </trkpt>
      <trkpt lat="49.39189" lon="-1.79617">
        <ele>55.6</ele>
        <time>2022-08-27T06:10:29Z</time>
      </trkpt>
      <trkpt lat="49.39172" lon="-1.79615">
        <ele>55.2</ele>
        <time>2022-08-27T06:10:31Z</time>
      </trkpt>
      <trkpt lat="49.39164" lon="-1.7961">
        <ele>54.8</ele>
        <time>2022-08-27T06:10:32Z</time>
      </trkpt>
      <trkpt lat="49.39157" lon="-1.79604">
        <ele>54.6</ele>
        <time>2022-08-27T06:10:33Z</time>
      </trkpt>
      <trkpt lat="49.39139" lon="-1.7958">
        <ele>53.8</ele>
        <time>2022-08-27T06:10:36Z</time>
      </trkpt>
      <trkpt lat="49.39102" lon="-1.79533">
        <ele>52.2</ele>
        <time>2022-08-27T06:10:42Z</time>
      </trkpt>
      <trkpt lat="49.39061" lon="-1.79489">
        <ele>50.6</ele>
        <time>2022-08-27T06:10:48Z</time>
      </trkpt>
      <trkpt lat="49.39015" lon="-1.79443">
        <ele>48.6</ele>
        <time>2022-08-27T06:10:54Z</time>
      </trkpt>
      <trkpt lat="49.39007" lon="-1.79435">
        <ele>48.2</ele>
        <time>2022-08-27T06:10:55Z</time>
      </trkpt>
      <trkpt lat="49.38962" lon="-1.79387">
        <ele>46.4</ele>
        <time>2022-08-27T06:11:01Z</time>
      </trkpt>
      <trkpt lat="49.38929" lon="-1.79357">
        <ele>44.8</ele>
        <time>2022-08-27T06:11:06Z</time>
      </trkpt>
      <trkpt lat="49.38885" lon="-1.79331">
        <ele>43</ele>
        <time>2022-08-27T06:11:13Z</time>
      </trkpt>
      <trkpt lat="49.38873" lon="-1.79327">
        <ele>42.6</ele>
        <time>2022-08-27T06:11:15Z</time>
      </trkpt>
      <trkpt lat="49.38856" lon="-1.7932">
        <ele>41.8</ele>
        <time>2022-08-27T06:11:18Z</time>
      </trkpt>
      <trkpt lat="49.38801" lon="-1.79305">
        <ele>40.6</ele>
        <time>2022-08-27T06:11:27Z</time>
      </trkpt>
      <trkpt lat="49.38794" lon="-1.79303">
        <ele>40.4</ele>
        <time>2022-08-27T06:11:28Z</time>
      </trkpt>
      <trkpt lat="49.38767" lon="-1.79293">
        <ele>40</ele>
        <time>2022-08-27T06:11:32Z</time>
      </trkpt>
      <trkpt lat="49.3872" lon="-1.7928">
        <ele>38.8</ele>
        <time>2022-08-27T06:11:38Z</time>
      </trkpt>
      <trkpt lat="49.38667" lon="-1.79272">
        <ele>37.6</ele>
        <time>2022-08-27T06:11:44Z</time>
      </trkpt>
      <trkpt lat="49.3862" lon="-1.79277">
        <ele>36.2</ele>
        <time>2022-08-27T06:11:49Z</time>
      </trkpt>
      <trkpt lat="49.3856" lon="-1.79295">
        <ele>34.6</ele>
        <time>2022-08-27T06:11:55Z</time>
      </trkpt>
      <trkpt lat="49.3855" lon="-1.79298">
        <ele>34.2</ele>
        <time>2022-08-27T06:11:56Z</time>
      </trkpt>
      <trkpt lat="49.38505" lon="-1.79314">
        <ele>32.6</ele>
        <time>2022-08-27T06:12:01Z</time>
      </trkpt>
      <trkpt lat="49.38447" lon="-1.79329">
        <ele>30.2</ele>
        <time>2022-08-27T06:12:08Z</time>
      </trkpt>
      <trkpt lat="49.38439" lon="-1.79329">
        <ele>29.8</ele>
        <time>2022-08-27T06:12:09Z</time>
      </trkpt>
      <trkpt lat="49.38417" lon="-1.79321">
        <ele>28.8</ele>
        <time>2022-08-27T06:12:12Z</time>
      </trkpt>
      <trkpt lat="49.38384" lon="-1.79297">
        <ele>27.4</ele>
        <time>2022-08-27T06:12:17Z</time>
      </trkpt>
      <trkpt lat="49.38336" lon="-1.79257">
        <ele>25.4</ele>
        <time>2022-08-27T06:12:25Z</time>
      </trkpt>
      <trkpt lat="49.38331" lon="-1.79252">
        <ele>25</ele>
        <time>2022-08-27T06:12:26Z</time>
      </trkpt>
      <trkpt lat="49.38314" lon="-1.79239">
        <ele>24.4</ele>
        <time>2022-08-27T06:12:29Z</time>
      </trkpt>
      <trkpt lat="49.38282" lon="-1.79213">
        <ele>23</ele>
        <time>2022-08-27T06:12:35Z</time>
      </trkpt>
      <trkpt lat="49.38276" lon="-1.79209">
        <ele>22.8</ele>
        <time>2022-08-27T06:12:36Z</time>
      </trkpt>
      <trkpt lat="49.3825" lon="-1.79185">
        <ele>22</ele>
        <time>2022-08-27T06:12:41Z</time>
      </trkpt>
      <trkpt lat="49.38241" lon="-1.79174">
        <ele>21.6</ele>
        <time>2022-08-27T06:12:43Z</time>
      </trkpt>
      <trkpt lat="49.38209" lon="-1.79127">
        <ele>20.2</ele>
        <time>2022-08-27T06:12:50Z</time>
      </trkpt>
      <trkpt lat="49.38173" lon="-1.79069">
        <ele>18.8</ele>
        <time>2022-08-27T06:12:58Z</time>
      </trkpt>
      <trkpt lat="49.38136" lon="-1.79011">
        <ele>17.6</ele>
        <time>2022-08-27T06:13:06Z</time>
      </trkpt>
      <trkpt lat="49.38123" lon="-1.7899">
        <ele>17.2</ele>
        <time>2022-08-27T06:13:09Z</time>
      </trkpt>
      <trkpt lat="49.3811" lon="-1.78969">
        <ele>16.6</ele>
        <time>2022-08-27T06:13:12Z</time>
      </trkpt>
      <trkpt lat="49.38106" lon="-1.78962">
        <ele>16.4</ele>
        <time>2022-08-27T06:13:13Z</time>
      </trkpt>
      <trkpt lat="49.38093" lon="-1.78941">
        <ele>15.8</ele>
        <time>2022-08-27T06:13:16Z</time>
      </trkpt>
      <trkpt lat="49.38076" lon="-1.78913">
        <ele>15</ele>
        <time>2022-08-27T06:13:20Z</time>
      </trkpt>
      <trkpt lat="49.38072" lon="-1.78907">
        <ele>14.8</ele>
        <time>2022-08-27T06:13:21Z</time>
      </trkpt>
      <trkpt lat="49.38058" lon="-1.78887">
        <ele>14.2</ele>
        <time>2022-08-27T06:13:24Z</time>
      </trkpt>
      <trkpt lat="49.38046" lon="-1.78866">
        <ele>13.6</ele>
        <time>2022-08-27T06:13:27Z</time>
      </trkpt>
      <trkpt lat="49.38042" lon="-1.78858">
        <ele>13.4</ele>
        <time>2022-08-27T06:13:28Z</time>
      </trkpt>
      <trkpt lat="49.38034" lon="-1.78845">
        <ele>13</ele>
        <time>2022-08-27T06:13:30Z</time>
      </trkpt>
      <trkpt lat="49.38016" lon="-1.78815">
        <ele>12.4</ele>
        <time>2022-08-27T06:13:34Z</time>
      </trkpt>
      <trkpt lat="49.37997" lon="-1.78789">
        <ele>11.6</ele>
        <time>2022-08-27T06:13:38Z</time>
      </trkpt>
      <trkpt lat="49.37967" lon="-1.7874">
        <ele>10.4</ele>
        <time>2022-08-27T06:13:44Z</time>
      </trkpt>
      <trkpt lat="49.37956" lon="-1.78724">
        <ele>10</ele>
        <time>2022-08-27T06:13:46Z</time>
      </trkpt>
      <trkpt lat="49.37941" lon="-1.787">
        <ele>9.6</ele>
        <time>2022-08-27T06:13:49Z</time>
      </trkpt>
      <trkpt lat="49.37926" lon="-1.78675">
        <ele>8.8</ele>
        <time>2022-08-27T06:13:53Z</time>
      </trkpt>
      <trkpt lat="49.37907" lon="-1.78648">
        <ele>8.4</ele>
        <time>2022-08-27T06:13:57Z</time>
      </trkpt>
      <trkpt lat="49.37902" lon="-1.78643">
        <ele>8.2</ele>
        <time>2022-08-27T06:13:58Z</time>
      </trkpt>
      <trkpt lat="49.37898" lon="-1.78637">
        <ele>8</ele>
        <time>2022-08-27T06:13:59Z</time>
      </trkpt>
      <trkpt lat="49.37884" lon="-1.78619">
        <ele>7.4</ele>
        <time>2022-08-27T06:14:02Z</time>
      </trkpt>
      <trkpt lat="49.37878" lon="-1.78607">
        <ele>7.2</ele>
        <time>2022-08-27T06:14:04Z</time>
      </trkpt>
      <trkpt lat="49.37877" lon="-1.78591">
        <ele>6.8</ele>
        <time>2022-08-27T06:14:08Z</time>
      </trkpt>
      <trkpt lat="49.37881" lon="-1.78584">
        <ele>6.8</ele>
        <time>2022-08-27T06:14:10Z</time>
      </trkpt>
      <trkpt lat="49.37884" lon="-1.78583">
        <ele>6.6</ele>
        <time>2022-08-27T06:14:11Z</time>
      </trkpt>
      <trkpt lat="49.37902" lon="-1.7857">
        <ele>7.2</ele>
        <time>2022-08-27T06:14:17Z</time>
      </trkpt>
      <trkpt lat="49.37912" lon="-1.78559">
        <ele>7.2</ele>
        <time>2022-08-27T06:14:20Z</time>
      </trkpt>
      <trkpt lat="49.37917" lon="-1.78549">
        <ele>7</ele>
        <time>2022-08-27T06:14:22Z</time>
      </trkpt>
      <trkpt lat="49.37922" lon="-1.78538">
        <ele>7</ele>
        <time>2022-08-27T06:14:24Z</time>
      </trkpt>
      <trkpt lat="49.37925" lon="-1.78527">
        <ele>7</ele>
        <time>2022-08-27T06:14:26Z</time>
      </trkpt>
      <trkpt lat="49.37929" lon="-1.78514">
        <ele>7</ele>
        <time>2022-08-27T06:14:28Z</time>
      </trkpt>
      <trkpt lat="49.37942" lon="-1.78467">
        <ele>6.8</ele>
        <time>2022-08-27T06:14:35Z</time>
      </trkpt>
      <trkpt lat="49.37943" lon="-1.7846">
        <ele>7</ele>
        <time>2022-08-27T06:14:36Z</time>
      </trkpt>
      <trkpt lat="49.37946" lon="-1.78447">
        <ele>6.8</ele>
        <time>2022-08-27T06:14:38Z</time>
      </trkpt>
      <trkpt lat="49.3795" lon="-1.78432">
        <ele>6.8</ele>
        <time>2022-08-27T06:14:40Z</time>
      </trkpt>
      <trkpt lat="49.37961" lon="-1.78395">
        <ele>7</ele>
        <time>2022-08-27T06:14:45Z</time>
      </trkpt>
      <trkpt lat="49.37963" lon="-1.78387">
        <ele>7.2</ele>
        <time>2022-08-27T06:14:46Z</time>
      </trkpt>
      <trkpt lat="49.37974" lon="-1.78349">
        <ele>7.2</ele>
        <time>2022-08-27T06:14:51Z</time>
      </trkpt>
      <trkpt lat="49.37981" lon="-1.78327">
        <ele>7</ele>
        <time>2022-08-27T06:14:54Z</time>
      </trkpt>
      <trkpt lat="49.37997" lon="-1.78269">
        <ele>7</ele>
        <time>2022-08-27T06:15:02Z</time>
      </trkpt>
      <trkpt lat="49.37998" lon="-1.78261">
        <ele>7</ele>
        <time>2022-08-27T06:15:03Z</time>
      </trkpt>
      <trkpt lat="49.38007" lon="-1.7823">
        <ele>7.2</ele>
        <time>2022-08-27T06:15:07Z</time>
      </trkpt>
      <trkpt lat="49.3802" lon="-1.78184">
        <ele>7.2</ele>
        <time>2022-08-27T06:15:13Z</time>
      </trkpt>
      <trkpt lat="49.38023" lon="-1.78168">
        <ele>7.4</ele>
        <time>2022-08-27T06:15:15Z</time>
      </trkpt>
      <trkpt lat="49.38027" lon="-1.78152">
        <ele>7.2</ele>
        <time>2022-08-27T06:15:17Z</time>
      </trkpt>
      <trkpt lat="49.38036" lon="-1.78121">
        <ele>7</ele>
        <time>2022-08-27T06:15:21Z</time>
      </trkpt>
      <trkpt lat="49.3804" lon="-1.78105">
        <ele>7</ele>
        <time>2022-08-27T06:15:23Z</time>
      </trkpt>
      <trkpt lat="49.38042" lon="-1.78097">
        <ele>7.2</ele>
        <time>2022-08-27T06:15:24Z</time>
      </trkpt>
      <trkpt lat="49.38046" lon="-1.78073">
        <ele>7</ele>
        <time>2022-08-27T06:15:27Z</time>
      </trkpt>
      <trkpt lat="49.38061" lon="-1.78027">
        <ele>6.8</ele>
        <time>2022-08-27T06:15:33Z</time>
      </trkpt>
      <trkpt lat="49.38081" lon="-1.77962">
        <ele>6.6</ele>
        <time>2022-08-27T06:15:41Z</time>
      </trkpt>
      <trkpt lat="49.38095" lon="-1.77905">
        <ele>6.6</ele>
        <time>2022-08-27T06:15:48Z</time>
      </trkpt>
      <trkpt lat="49.38116" lon="-1.77832">
        <ele>6.6</ele>
        <time>2022-08-27T06:15:57Z</time>
      </trkpt>
      <trkpt lat="49.38122" lon="-1.77809">
        <ele>6.6</ele>
        <time>2022-08-27T06:16:00Z</time>
      </trkpt>
      <trkpt lat="49.38128" lon="-1.77786">
        <ele>6.6</ele>
        <time>2022-08-27T06:16:03Z</time>
      </trkpt>
      <trkpt lat="49.38147" lon="-1.77718">
        <ele>6.6</ele>
        <time>2022-08-27T06:16:12Z</time>
      </trkpt>
      <trkpt lat="49.38149" lon="-1.7771">
        <ele>6.6</ele>
        <time>2022-08-27T06:16:13Z</time>
      </trkpt>
      <trkpt lat="49.38159" lon="-1.77672">
        <ele>6.6</ele>
        <time>2022-08-27T06:16:18Z</time>
      </trkpt>
      <trkpt lat="49.38162" lon="-1.77658">
        <ele>6.6</ele>
        <time>2022-08-27T06:16:20Z</time>
      </trkpt>
      <trkpt lat="49.38166" lon="-1.77643">
        <ele>6.8</ele>
        <time>2022-08-27T06:16:22Z</time>
      </trkpt>
      <trkpt lat="49.3817" lon="-1.77629">
        <ele>6.8</ele>
        <time>2022-08-27T06:16:24Z</time>
      </trkpt>
      <trkpt lat="49.38177" lon="-1.776">
        <ele>6.8</ele>
        <time>2022-08-27T06:16:28Z</time>
      </trkpt>
      <trkpt lat="49.38182" lon="-1.77585">
        <ele>7</ele>
        <time>2022-08-27T06:16:30Z</time>
      </trkpt>
      <trkpt lat="49.38196" lon="-1.77533">
        <ele>7</ele>
        <time>2022-08-27T06:16:37Z</time>
      </trkpt>
      <trkpt lat="49.38202" lon="-1.77511">
        <ele>7.2</ele>
        <time>2022-08-27T06:16:40Z</time>
      </trkpt>
      <trkpt lat="49.38205" lon="-1.77497">
        <ele>7.2</ele>
        <time>2022-08-27T06:16:42Z</time>
      </trkpt>
      <trkpt lat="49.38224" lon="-1.77431">
        <ele>7.4</ele>
        <time>2022-08-27T06:16:51Z</time>
      </trkpt>
      <trkpt lat="49.38235" lon="-1.77388">
        <ele>7.8</ele>
        <time>2022-08-27T06:16:57Z</time>
      </trkpt>
      <trkpt lat="49.38249" lon="-1.77328">
        <ele>8</ele>
        <time>2022-08-27T06:17:05Z</time>
      </trkpt>
      <trkpt lat="49.38256" lon="-1.77296">
        <ele>8.2</ele>
        <time>2022-08-27T06:17:09Z</time>
      </trkpt>
      <trkpt lat="49.38261" lon="-1.7728">
        <ele>8.2</ele>
        <time>2022-08-27T06:17:11Z</time>
      </trkpt>
      <trkpt lat="49.38276" lon="-1.77242">
        <ele>8.4</ele>
        <time>2022-08-27T06:17:16Z</time>
      </trkpt>
      <trkpt lat="49.38278" lon="-1.77234">
        <ele>8.4</ele>
        <time>2022-08-27T06:17:17Z</time>
      </trkpt>
      <trkpt lat="49.38292" lon="-1.77182">
        <ele>8.6</ele>
        <time>2022-08-27T06:17:24Z</time>
      </trkpt>
      <trkpt lat="49.3831" lon="-1.77116">
        <ele>9.2</ele>
        <time>2022-08-27T06:17:33Z</time>
      </trkpt>
      <trkpt lat="49.38329" lon="-1.77047">
        <ele>9.6</ele>
        <time>2022-08-27T06:17:42Z</time>
      </trkpt>
      <trkpt lat="49.38342" lon="-1.77001">
        <ele>9.8</ele>
        <time>2022-08-27T06:17:48Z</time>
      </trkpt>
      <trkpt lat="49.38344" lon="-1.76994">
        <ele>9.8</ele>
        <time>2022-08-27T06:17:49Z</time>
      </trkpt>
      <trkpt lat="49.38353" lon="-1.76957">
        <ele>10</ele>
        <time>2022-08-27T06:17:54Z</time>
      </trkpt>
      <trkpt lat="49.38371" lon="-1.76892">
        <ele>10.4</ele>
        <time>2022-08-27T06:18:03Z</time>
      </trkpt>
      <trkpt lat="49.38387" lon="-1.76841">
        <ele>10.8</ele>
        <time>2022-08-27T06:18:10Z</time>
      </trkpt>
      <trkpt lat="49.38404" lon="-1.76789">
        <ele>11</ele>
        <time>2022-08-27T06:18:17Z</time>
      </trkpt>
      <trkpt lat="49.38405" lon="-1.76772">
        <ele>11.2</ele>
        <time>2022-08-27T06:18:19Z</time>
      </trkpt>
      <trkpt lat="49.38412" lon="-1.76749">
        <ele>11.2</ele>
        <time>2022-08-27T06:18:22Z</time>
      </trkpt>
      <trkpt lat="49.38414" lon="-1.76741">
        <ele>11.2</ele>
        <time>2022-08-27T06:18:23Z</time>
      </trkpt>
      <trkpt lat="49.38418" lon="-1.76713">
        <ele>11.6</ele>
        <time>2022-08-27T06:18:27Z</time>
      </trkpt>
      <trkpt lat="49.38416" lon="-1.76699">
        <ele>11.6</ele>
        <time>2022-08-27T06:18:29Z</time>
      </trkpt>
      <trkpt lat="49.38414" lon="-1.76692">
        <ele>11.6</ele>
        <time>2022-08-27T06:18:30Z</time>
      </trkpt>
      <trkpt lat="49.38402" lon="-1.76652">
        <ele>11.6</ele>
        <time>2022-08-27T06:18:35Z</time>
      </trkpt>
      <trkpt lat="49.38386" lon="-1.76584">
        <ele>11.6</ele>
        <time>2022-08-27T06:18:42Z</time>
      </trkpt>
      <trkpt lat="49.38371" lon="-1.76511">
        <ele>10.4</ele>
        <time>2022-08-27T06:18:49Z</time>
      </trkpt>
      <trkpt lat="49.38358" lon="-1.76453">
        <ele>10</ele>
        <time>2022-08-27T06:18:55Z</time>
      </trkpt>
      <trkpt lat="49.38346" lon="-1.76401">
        <ele>9.4</ele>
        <time>2022-08-27T06:19:01Z</time>
      </trkpt>
      <trkpt lat="49.38334" lon="-1.76335">
        <ele>8.8</ele>
        <time>2022-08-27T06:19:09Z</time>
      </trkpt>
      <trkpt lat="49.38323" lon="-1.76284">
        <ele>8.6</ele>
        <time>2022-08-27T06:19:16Z</time>
      </trkpt>
      <trkpt lat="49.38311" lon="-1.7622">
        <ele>8.6</ele>
        <time>2022-08-27T06:19:25Z</time>
      </trkpt>
      <trkpt lat="49.38302" lon="-1.76167">
        <ele>8.4</ele>
        <time>2022-08-27T06:19:33Z</time>
      </trkpt>
      <trkpt lat="49.3829" lon="-1.76096">
        <ele>9.2</ele>
        <time>2022-08-27T06:19:44Z</time>
      </trkpt>
      <trkpt lat="49.38284" lon="-1.76052">
        <ele>9.8</ele>
        <time>2022-08-27T06:19:51Z</time>
      </trkpt>
      <trkpt lat="49.38278" lon="-1.75996">
        <ele>10.4</ele>
        <time>2022-08-27T06:20:00Z</time>
      </trkpt>
      <trkpt lat="49.38271" lon="-1.75935">
        <ele>11.6</ele>
        <time>2022-08-27T06:20:10Z</time>
      </trkpt>
      <trkpt lat="49.38266" lon="-1.75869">
        <ele>12.8</ele>
        <time>2022-08-27T06:20:21Z</time>
      </trkpt>
      <trkpt lat="49.38262" lon="-1.7581">
        <ele>14.2</ele>
        <time>2022-08-27T06:20:31Z</time>
      </trkpt>
      <trkpt lat="49.38258" lon="-1.75768">
        <ele>15</ele>
        <time>2022-08-27T06:20:38Z</time>
      </trkpt>
      <trkpt lat="49.38257" lon="-1.75725">
        <ele>16</ele>
        <time>2022-08-27T06:20:45Z</time>
      </trkpt>
      <trkpt lat="49.38255" lon="-1.75689">
        <ele>16.8</ele>
        <time>2022-08-27T06:20:51Z</time>
      </trkpt>
      <trkpt lat="49.38253" lon="-1.75641">
        <ele>17.6</ele>
        <time>2022-08-27T06:20:59Z</time>
      </trkpt>
      <trkpt lat="49.38251" lon="-1.75585">
        <ele>18.8</ele>
        <time>2022-08-27T06:21:08Z</time>
      </trkpt>
      <trkpt lat="49.38242" lon="-1.75543">
        <ele>19.6</ele>
        <time>2022-08-27T06:21:16Z</time>
      </trkpt>
      <trkpt lat="49.38239" lon="-1.75536">
        <ele>19.8</ele>
        <time>2022-08-27T06:21:18Z</time>
      </trkpt>
      <trkpt lat="49.38239" lon="-1.75531">
        <ele>20</ele>
        <time>2022-08-27T06:21:19Z</time>
      </trkpt>
      <trkpt lat="49.38235" lon="-1.75511">
        <ele>20.4</ele>
        <time>2022-08-27T06:21:23Z</time>
      </trkpt>
      <trkpt lat="49.38225" lon="-1.75484">
        <ele>21</ele>
        <time>2022-08-27T06:21:29Z</time>
      </trkpt>
      <trkpt lat="49.38216" lon="-1.75462">
        <ele>21.2</ele>
        <time>2022-08-27T06:21:34Z</time>
      </trkpt>
      <trkpt lat="49.38204" lon="-1.75436">
        <ele>21.4</ele>
        <time>2022-08-27T06:21:40Z</time>
      </trkpt>
      <trkpt lat="49.38195" lon="-1.75421">
        <ele>21.4</ele>
        <time>2022-08-27T06:21:45Z</time>
      </trkpt>
      <trkpt lat="49.38194" lon="-1.75418">
        <ele>22</ele>
        <time>2022-08-27T06:21:48Z</time>
      </trkpt>
      <trkpt lat="49.38193" lon="-1.75416">
        <ele>22</ele>
        <time>2022-08-27T06:21:49Z</time>
      </trkpt>
      <trkpt lat="49.3819" lon="-1.75407">
        <ele>22.4</ele>
        <time>2022-08-27T06:21:52Z</time>
      </trkpt>
      <trkpt lat="49.38186" lon="-1.75401">
        <ele>22.4</ele>
        <time>2022-08-27T06:21:54Z</time>
      </trkpt>
      <trkpt lat="49.38178" lon="-1.75381">
        <ele>22.6</ele>
        <time>2022-08-27T06:21:58Z</time>
      </trkpt>
      <trkpt lat="49.38169" lon="-1.75358">
        <ele>22.8</ele>
        <time>2022-08-27T06:22:03Z</time>
      </trkpt>
      <trkpt lat="49.38157" lon="-1.7533">
        <ele>22.8</ele>
        <time>2022-08-27T06:22:09Z</time>
      </trkpt>
      <trkpt lat="49.38148" lon="-1.75293">
        <ele>23</ele>
        <time>2022-08-27T06:22:17Z</time>
      </trkpt>
      <trkpt lat="49.38138" lon="-1.7527">
        <ele>22.8</ele>
        <time>2022-08-27T06:22:23Z</time>
      </trkpt>
      <trkpt lat="49.38127" lon="-1.75273">
        <ele>23.2</ele>
        <time>2022-08-27T06:22:27Z</time>
      </trkpt>
      <trkpt lat="49.38107" lon="-1.75291">
        <ele>23.6</ele>
        <time>2022-08-27T06:22:31Z</time>
      </trkpt>
      <trkpt lat="49.3807" lon="-1.75325">
        <ele>23.6</ele>
        <time>2022-08-27T06:22:36Z</time>
      </trkpt>
      <trkpt lat="49.38025" lon="-1.75366">
        <ele>23.4</ele>
        <time>2022-08-27T06:22:41Z</time>
      </trkpt>
      <trkpt lat="49.37972" lon="-1.75406">
        <ele>22.6</ele>
        <time>2022-08-27T06:22:46Z</time>
      </trkpt>
      <trkpt lat="49.37961" lon="-1.75414">
        <ele>22.4</ele>
        <time>2022-08-27T06:22:47Z</time>
      </trkpt>
      <trkpt lat="49.37905" lon="-1.75457">
        <ele>21</ele>
        <time>2022-08-27T06:22:52Z</time>
      </trkpt>
      <trkpt lat="49.3787" lon="-1.75482">
        <ele>20.4</ele>
        <time>2022-08-27T06:22:55Z</time>
      </trkpt>
      <trkpt lat="49.37816" lon="-1.75522">
        <ele>19.8</ele>
        <time>2022-08-27T06:23:00Z</time>
      </trkpt>
      <trkpt lat="49.37806" lon="-1.75529">
        <ele>19.6</ele>
        <time>2022-08-27T06:23:01Z</time>
      </trkpt>
      <trkpt lat="49.3775" lon="-1.75575">
        <ele>18.8</ele>
        <time>2022-08-27T06:23:07Z</time>
      </trkpt>
      <trkpt lat="49.37703" lon="-1.75624">
        <ele>17.8</ele>
        <time>2022-08-27T06:23:13Z</time>
      </trkpt>
      <trkpt lat="49.37696" lon="-1.75632">
        <ele>17.6</ele>
        <time>2022-08-27T06:23:14Z</time>
      </trkpt>
      <trkpt lat="49.37658" lon="-1.75675">
        <ele>16.8</ele>
        <time>2022-08-27T06:23:20Z</time>
      </trkpt>
      <trkpt lat="49.3763" lon="-1.75714">
        <ele>16.4</ele>
        <time>2022-08-27T06:23:26Z</time>
      </trkpt>
      <trkpt lat="49.376" lon="-1.75752">
        <ele>15.8</ele>
        <time>2022-08-27T06:23:32Z</time>
      </trkpt>
      <trkpt lat="49.37567" lon="-1.75785">
        <ele>15.2</ele>
        <time>2022-08-27T06:23:38Z</time>
      </trkpt>
      <trkpt lat="49.37532" lon="-1.75805">
        <ele>14.6</ele>
        <time>2022-08-27T06:23:44Z</time>
      </trkpt>
      <trkpt lat="49.37479" lon="-1.75833">
        <ele>13.8</ele>
        <time>2022-08-27T06:23:53Z</time>
      </trkpt>
      <trkpt lat="49.37441" lon="-1.7586">
        <ele>13.4</ele>
        <time>2022-08-27T06:24:00Z</time>
      </trkpt>
      <trkpt lat="49.37417" lon="-1.7589">
        <ele>13</ele>
        <time>2022-08-27T06:24:05Z</time>
      </trkpt>
      <trkpt lat="49.37413" lon="-1.75897">
        <ele>13</ele>
        <time>2022-08-27T06:24:06Z</time>
      </trkpt>
      <trkpt lat="49.3738" lon="-1.75953">
        <ele>13</ele>
        <time>2022-08-27T06:24:14Z</time>
      </trkpt>
      <trkpt lat="49.37344" lon="-1.76015">
        <ele>12.6</ele>
        <time>2022-08-27T06:24:23Z</time>
      </trkpt>
      <trkpt lat="49.37314" lon="-1.76069">
        <ele>12.2</ele>
        <time>2022-08-27T06:24:31Z</time>
      </trkpt>
      <trkpt lat="49.37275" lon="-1.76138">
        <ele>11.8</ele>
        <time>2022-08-27T06:24:41Z</time>
      </trkpt>
      <trkpt lat="49.37271" lon="-1.76145">
        <ele>11.8</ele>
        <time>2022-08-27T06:24:42Z</time>
      </trkpt>
      <trkpt lat="49.37235" lon="-1.76207">
        <ele>11.6</ele>
        <time>2022-08-27T06:24:51Z</time>
      </trkpt>
      <trkpt lat="49.37231" lon="-1.76214">
        <ele>11.4</ele>
        <time>2022-08-27T06:24:52Z</time>
      </trkpt>
      <trkpt lat="49.37192" lon="-1.76283">
        <ele>11.2</ele>
        <time>2022-08-27T06:25:02Z</time>
      </trkpt>
      <trkpt lat="49.3716" lon="-1.7634">
        <ele>11</ele>
        <time>2022-08-27T06:25:10Z</time>
      </trkpt>
      <trkpt lat="49.37125" lon="-1.764">
        <ele>10.6</ele>
        <time>2022-08-27T06:25:19Z</time>
      </trkpt>
      <trkpt lat="49.37099" lon="-1.76442">
        <ele>10.6</ele>
        <time>2022-08-27T06:25:26Z</time>
      </trkpt>
      <trkpt lat="49.3709" lon="-1.76442">
        <ele>10.4</ele>
        <time>2022-08-27T06:25:28Z</time>
      </trkpt>
      <trkpt lat="49.37083" lon="-1.7643">
        <ele>10.4</ele>
        <time>2022-08-27T06:25:30Z</time>
      </trkpt>
      <trkpt lat="49.3708" lon="-1.76422">
        <ele>10.2</ele>
        <time>2022-08-27T06:25:31Z</time>
      </trkpt>
      <trkpt lat="49.37055" lon="-1.76351">
        <ele>9.8</ele>
        <time>2022-08-27T06:25:40Z</time>
      </trkpt>
      <trkpt lat="49.37037" lon="-1.76305">
        <ele>9.4</ele>
        <time>2022-08-27T06:25:46Z</time>
      </trkpt>
      <trkpt lat="49.37011" lon="-1.76235">
        <ele>9</ele>
        <time>2022-08-27T06:25:55Z</time>
      </trkpt>
      <trkpt lat="49.36985" lon="-1.76164">
        <ele>8.4</ele>
        <time>2022-08-27T06:26:04Z</time>
      </trkpt>
      <trkpt lat="49.36956" lon="-1.76086">
        <ele>8</ele>
        <time>2022-08-27T06:26:14Z</time>
      </trkpt>
      <trkpt lat="49.36928" lon="-1.76007">
        <ele>7.6</ele>
        <time>2022-08-27T06:26:24Z</time>
      </trkpt>
      <trkpt lat="49.36922" lon="-1.75991">
        <ele>7.6</ele>
        <time>2022-08-27T06:26:26Z</time>
      </trkpt>
      <trkpt lat="49.36893" lon="-1.75913">
        <ele>7.2</ele>
        <time>2022-08-27T06:26:36Z</time>
      </trkpt>
      <trkpt lat="49.36865" lon="-1.75835">
        <ele>7</ele>
        <time>2022-08-27T06:26:46Z</time>
      </trkpt>
      <trkpt lat="49.36862" lon="-1.75827">
        <ele>7</ele>
        <time>2022-08-27T06:26:47Z</time>
      </trkpt>
      <trkpt lat="49.36835" lon="-1.75758">
        <ele>6.6</ele>
        <time>2022-08-27T06:26:56Z</time>
      </trkpt>
      <trkpt lat="49.36807" lon="-1.75709">
        <ele>6.4</ele>
        <time>2022-08-27T06:27:03Z</time>
      </trkpt>
      <trkpt lat="49.36773" lon="-1.75642">
        <ele>6</ele>
        <time>2022-08-27T06:27:12Z</time>
      </trkpt>
      <trkpt lat="49.36769" lon="-1.75635">
        <ele>6</ele>
        <time>2022-08-27T06:27:13Z</time>
      </trkpt>
      <trkpt lat="49.36765" lon="-1.75628">
        <ele>6</ele>
        <time>2022-08-27T06:27:14Z</time>
      </trkpt>
      <trkpt lat="49.3675" lon="-1.75599">
        <ele>5.8</ele>
        <time>2022-08-27T06:27:18Z</time>
      </trkpt>
      <trkpt lat="49.36728" lon="-1.75558">
        <ele>5.4</ele>
        <time>2022-08-27T06:27:24Z</time>
      </trkpt>
      <trkpt lat="49.36714" lon="-1.75531">
        <ele>5</ele>
        <time>2022-08-27T06:27:28Z</time>
      </trkpt>
      <trkpt lat="49.36684" lon="-1.75476">
        <ele>4.6</ele>
        <time>2022-08-27T06:27:36Z</time>
      </trkpt>
      <trkpt lat="49.36669" lon="-1.75446">
        <ele>4.4</ele>
        <time>2022-08-27T06:27:41Z</time>
      </trkpt>
      <trkpt lat="49.36665" lon="-1.75441">
        <ele>4.2</ele>
        <time>2022-08-27T06:27:42Z</time>
      </trkpt>
      <trkpt lat="49.36661" lon="-1.75435">
        <ele>4.2</ele>
        <time>2022-08-27T06:27:44Z</time>
      </trkpt>
      <trkpt lat="49.36652" lon="-1.75418">
        <ele>3.6</ele>
        <time>2022-08-27T06:27:49Z</time>
      </trkpt>
      <trkpt lat="49.36637" lon="-1.75386">
        <ele>3</ele>
        <time>2022-08-27T06:27:54Z</time>
      </trkpt>
      <trkpt lat="49.36627" lon="-1.75367">
        <ele>2.6</ele>
        <time>2022-08-27T06:27:57Z</time>
      </trkpt>
      <trkpt lat="49.36621" lon="-1.75354">
        <ele>2.4</ele>
        <time>2022-08-27T06:27:59Z</time>
      </trkpt>
      <trkpt lat="49.36601" lon="-1.753">
        <ele>1.2</ele>
        <time>2022-08-27T06:28:06Z</time>
      </trkpt>
      <trkpt lat="49.36584" lon="-1.75245">
        <ele>0.80000000000001</ele>
        <time>2022-08-27T06:28:13Z</time>
      </trkpt>
      <trkpt lat="49.36563" lon="-1.75201">
        <ele>0.39999999999998</ele>
        <time>2022-08-27T06:28:19Z</time>
      </trkpt>
      <trkpt lat="49.36534" lon="-1.75167">
        <ele>0.60000000000002</ele>
        <time>2022-08-27T06:28:25Z</time>
      </trkpt>
      <trkpt lat="49.36492" lon="-1.75128">
        <ele>0.60000000000002</ele>
        <time>2022-08-27T06:28:33Z</time>
      </trkpt>
      <trkpt lat="49.36458" lon="-1.75091">
        <ele>1</ele>
        <time>2022-08-27T06:28:40Z</time>
      </trkpt>
      <trkpt lat="49.36438" lon="-1.75059">
        <ele>1</ele>
        <time>2022-08-27T06:28:45Z</time>
      </trkpt>
      <trkpt lat="49.36427" lon="-1.75041">
        <ele>1</ele>
        <time>2022-08-27T06:28:49Z</time>
      </trkpt>
      <trkpt lat="49.36422" lon="-1.75028">
        <ele>1.2</ele>
        <time>2022-08-27T06:28:54Z</time>
      </trkpt>
      <trkpt lat="49.3642" lon="-1.75023">
        <ele>1.2</ele>
        <time>2022-08-27T06:28:55Z</time>
      </trkpt>
      <trkpt lat="49.36411" lon="-1.75004">
        <ele>1.4</ele>
        <time>2022-08-27T06:28:58Z</time>
      </trkpt>
      <trkpt lat="49.36408" lon="-1.74998">
        <ele>1.2</ele>
        <time>2022-08-27T06:28:59Z</time>
      </trkpt>
      <trkpt lat="49.36394" lon="-1.74972">
        <ele>1.2</ele>
        <time>2022-08-27T06:29:03Z</time>
      </trkpt>
      <trkpt lat="49.36362" lon="-1.74909">
        <ele>1</ele>
        <time>2022-08-27T06:29:12Z</time>
      </trkpt>
      <trkpt lat="49.36336" lon="-1.74857">
        <ele>1.4</ele>
        <time>2022-08-27T06:29:19Z</time>
      </trkpt>
      <trkpt lat="49.36302" lon="-1.74789">
        <ele>1.6</ele>
        <time>2022-08-27T06:29:28Z</time>
      </trkpt>
      <trkpt lat="49.36298" lon="-1.74782">
        <ele>1.6</ele>
        <time>2022-08-27T06:29:29Z</time>
      </trkpt>
      <trkpt lat="49.36263" lon="-1.74714">
        <ele>1.6</ele>
        <time>2022-08-27T06:29:38Z</time>
      </trkpt>
      <trkpt lat="49.36259" lon="-1.74707">
        <ele>1.6</ele>
        <time>2022-08-27T06:29:39Z</time>
      </trkpt>
      <trkpt lat="49.36228" lon="-1.74648">
        <ele>2</ele>
        <time>2022-08-27T06:29:47Z</time>
      </trkpt>
      <trkpt lat="49.36193" lon="-1.7458">
        <ele>2.2</ele>
        <time>2022-08-27T06:29:56Z</time>
      </trkpt>
      <trkpt lat="49.36158" lon="-1.74511">
        <ele>2.4</ele>
        <time>2022-08-27T06:30:05Z</time>
      </trkpt>
      <trkpt lat="49.36154" lon="-1.74503">
        <ele>2.4</ele>
        <time>2022-08-27T06:30:06Z</time>
      </trkpt>
      <trkpt lat="49.36123" lon="-1.74441">
        <ele>2.6</ele>
        <time>2022-08-27T06:30:14Z</time>
      </trkpt>
      <trkpt lat="49.36097" lon="-1.74389">
        <ele>2.6</ele>
        <time>2022-08-27T06:30:21Z</time>
      </trkpt>
      <trkpt lat="49.36079" lon="-1.74354">
        <ele>2.6</ele>
        <time>2022-08-27T06:30:27Z</time>
      </trkpt>
      <trkpt lat="49.3607" lon="-1.74337">
        <ele>2.4</ele>
        <time>2022-08-27T06:30:32Z</time>
      </trkpt>
      <trkpt lat="49.36052" lon="-1.74308">
        <ele>2</ele>
        <time>2022-08-27T06:30:37Z</time>
      </trkpt>
      <trkpt lat="49.3603" lon="-1.74272">
        <ele>1.8</ele>
        <time>2022-08-27T06:30:43Z</time>
      </trkpt>
      <trkpt lat="49.36007" lon="-1.74235">
        <ele>1.2</ele>
        <time>2022-08-27T06:30:49Z</time>
      </trkpt>
      <trkpt lat="49.3598" lon="-1.74187">
        <ele>0.80000000000001</ele>
        <time>2022-08-27T06:30:56Z</time>
      </trkpt>
      <trkpt lat="49.35949" lon="-1.74129">
        <ele>0.39999999999998</ele>
        <time>2022-08-27T06:31:04Z</time>
      </trkpt>
      <trkpt lat="49.35912" lon="-1.74063">
        <ele>0.39999999999998</ele>
        <time>2022-08-27T06:31:13Z</time>
      </trkpt>
      <trkpt lat="49.35883" lon="-1.74014">
        <ele>0.19999999999999</ele>
        <time>2022-08-27T06:31:20Z</time>
      </trkpt>
      <trkpt lat="49.35853" lon="-1.73957">
        <ele>0.19999999999999</ele>
        <time>2022-08-27T06:31:28Z</time>
      </trkpt>
      <trkpt lat="49.35848" lon="-1.7395">
        <ele>0.19999999999999</ele>
        <time>2022-08-27T06:31:29Z</time>
      </trkpt>
      <trkpt lat="49.35832" lon="-1.7392">
        <ele>0.19999999999999</ele>
        <time>2022-08-27T06:31:33Z</time>
      </trkpt>
      <trkpt lat="49.35802" lon="-1.73864">
        <ele>0.39999999999998</ele>
        <time>2022-08-27T06:31:41Z</time>
      </trkpt>
      <trkpt lat="49.35789" lon="-1.73843">
        <ele>0.39999999999998</ele>
        <time>2022-08-27T06:31:46Z</time>
      </trkpt>
      <trkpt lat="49.35776" lon="-1.73823">
        <ele>0.80000000000001</ele>
        <time>2022-08-27T06:31:51Z</time>
      </trkpt>
      <trkpt lat="49.35754" lon="-1.73788">
        <ele>1</ele>
        <time>2022-08-27T06:31:58Z</time>
      </trkpt>
      <trkpt lat="49.35731" lon="-1.73748">
        <ele>0.80000000000001</ele>
        <time>2022-08-27T06:32:05Z</time>
      </trkpt>
      <trkpt lat="49.35709" lon="-1.73713">
        <ele>0.39999999999998</ele>
        <time>2022-08-27T06:32:11Z</time>
      </trkpt>
      <trkpt lat="49.35688" lon="-1.73677">
        <ele>0.39999999999998</ele>
        <time>2022-08-27T06:32:17Z</time>
      </trkpt>
      <trkpt lat="49.35658" lon="-1.73625">
        <ele>0.60000000000002</ele>
        <time>2022-08-27T06:32:25Z</time>
      </trkpt>
      <trkpt lat="49.35623" lon="-1.73563">
        <ele>0.60000000000002</ele>
        <time>2022-08-27T06:32:34Z</time>
      </trkpt>
      <trkpt lat="49.35587" lon="-1.73501">
        <ele>1</ele>
        <time>2022-08-27T06:32:43Z</time>
      </trkpt>
      <trkpt lat="49.35551" lon="-1.73438">
        <ele>1.4</ele>
        <time>2022-08-27T06:32:52Z</time>
      </trkpt>
      <trkpt lat="49.35519" lon="-1.73383">
        <ele>1.4</ele>
        <time>2022-08-27T06:33:00Z</time>
      </trkpt>
      <trkpt lat="49.35507" lon="-1.73362">
        <ele>1.4</ele>
        <time>2022-08-27T06:33:03Z</time>
      </trkpt>
      <trkpt lat="49.35496" lon="-1.73341">
        <ele>1.2</ele>
        <time>2022-08-27T06:33:06Z</time>
      </trkpt>
      <trkpt lat="49.35466" lon="-1.73286">
        <ele>0.60000000000002</ele>
        <time>2022-08-27T06:33:14Z</time>
      </trkpt>
      <trkpt lat="49.35431" lon="-1.73221">
        <ele>0.60000000000002</ele>
        <time>2022-08-27T06:33:23Z</time>
      </trkpt>
      <trkpt lat="49.35427" lon="-1.73214">
        <ele>0.60000000000002</ele>
        <time>2022-08-27T06:33:24Z</time>
      </trkpt>
      <trkpt lat="49.35392" lon="-1.73149">
        <ele>0.60000000000002</ele>
        <time>2022-08-27T06:33:33Z</time>
      </trkpt>
      <trkpt lat="49.35358" lon="-1.73084">
        <ele>1</ele>
        <time>2022-08-27T06:33:42Z</time>
      </trkpt>
      <trkpt lat="49.35354" lon="-1.73076">
        <ele>1.2</ele>
        <time>2022-08-27T06:33:43Z</time>
      </trkpt>
      <trkpt lat="49.35319" lon="-1.73011">
        <ele>1.8</ele>
        <time>2022-08-27T06:33:52Z</time>
      </trkpt>
      <trkpt lat="49.35307" lon="-1.7299">
        <ele>1.8</ele>
        <time>2022-08-27T06:33:55Z</time>
      </trkpt>
      <trkpt lat="49.35273" lon="-1.72926">
        <ele>2</ele>
        <time>2022-08-27T06:34:04Z</time>
      </trkpt>
      <trkpt lat="49.35243" lon="-1.72871">
        <ele>2</ele>
        <time>2022-08-27T06:34:12Z</time>
      </trkpt>
      <trkpt lat="49.3524" lon="-1.72864">
        <ele>2</ele>
        <time>2022-08-27T06:34:13Z</time>
      </trkpt>
      <trkpt lat="49.35224" lon="-1.72834">
        <ele>2.2</ele>
        <time>2022-08-27T06:34:18Z</time>
      </trkpt>
      <trkpt lat="49.35218" lon="-1.72825">
        <ele>2.2</ele>
        <time>2022-08-27T06:34:21Z</time>
      </trkpt>
      <trkpt lat="49.35216" lon="-1.72821">
        <ele>2.2</ele>
        <time>2022-08-27T06:34:22Z</time>
      </trkpt>
      <trkpt lat="49.35209" lon="-1.72805">
        <ele>2.2</ele>
        <time>2022-08-27T06:34:25Z</time>
      </trkpt>
      <trkpt lat="49.35202" lon="-1.72793">
        <ele>2.2</ele>
        <time>2022-08-27T06:34:27Z</time>
      </trkpt>
      <trkpt lat="49.35185" lon="-1.72762">
        <ele>2.2</ele>
        <time>2022-08-27T06:34:32Z</time>
      </trkpt>
      <trkpt lat="49.35175" lon="-1.72742">
        <ele>2.2</ele>
        <time>2022-08-27T06:34:35Z</time>
      </trkpt>
      <trkpt lat="49.35164" lon="-1.72724">
        <ele>2.2</ele>
        <time>2022-08-27T06:34:38Z</time>
      </trkpt>
      <trkpt lat="49.35153" lon="-1.72704">
        <ele>2.4</ele>
        <time>2022-08-27T06:34:41Z</time>
      </trkpt>
      <trkpt lat="49.35122" lon="-1.72644">
        <ele>2.6</ele>
        <time>2022-08-27T06:34:50Z</time>
      </trkpt>
      <trkpt lat="49.35107" lon="-1.72601">
        <ele>2.6</ele>
        <time>2022-08-27T06:34:56Z</time>
      </trkpt>
      <trkpt lat="49.35089" lon="-1.72547">
        <ele>2.6</ele>
        <time>2022-08-27T06:35:03Z</time>
      </trkpt>
      <trkpt lat="49.35062" lon="-1.72475">
        <ele>3</ele>
        <time>2022-08-27T06:35:12Z</time>
      </trkpt>
      <trkpt lat="49.35059" lon="-1.72467">
        <ele>3</ele>
        <time>2022-08-27T06:35:13Z</time>
      </trkpt>
      <trkpt lat="49.35036" lon="-1.72402">
        <ele>3.2</ele>
        <time>2022-08-27T06:35:21Z</time>
      </trkpt>
      <trkpt lat="49.35032" lon="-1.72394">
        <ele>3.2</ele>
        <time>2022-08-27T06:35:22Z</time>
      </trkpt>
      <trkpt lat="49.35003" lon="-1.72334">
        <ele>3.2</ele>
        <time>2022-08-27T06:35:30Z</time>
      </trkpt>
      <trkpt lat="49.34969" lon="-1.7227">
        <ele>3.4</ele>
        <time>2022-08-27T06:35:39Z</time>
      </trkpt>
      <trkpt lat="49.34965" lon="-1.72263">
        <ele>3.4</ele>
        <time>2022-08-27T06:35:40Z</time>
      </trkpt>
      <trkpt lat="49.34932" lon="-1.72203">
        <ele>3.4</ele>
        <time>2022-08-27T06:35:48Z</time>
      </trkpt>
      <trkpt lat="49.3489" lon="-1.72139">
        <ele>3.4</ele>
        <time>2022-08-27T06:35:57Z</time>
      </trkpt>
      <trkpt lat="49.34885" lon="-1.72132">
        <ele>3.4</ele>
        <time>2022-08-27T06:35:58Z</time>
      </trkpt>
      <trkpt lat="49.34858" lon="-1.72088">
        <ele>3.4</ele>
        <time>2022-08-27T06:36:04Z</time>
      </trkpt>
      <trkpt lat="49.34819" lon="-1.72024">
        <ele>3.2</ele>
        <time>2022-08-27T06:36:12Z</time>
      </trkpt>
      <trkpt lat="49.34814" lon="-1.72016">
        <ele>3.4</ele>
        <time>2022-08-27T06:36:13Z</time>
      </trkpt>
      <trkpt lat="49.3478" lon="-1.71951">
        <ele>3.4</ele>
        <time>2022-08-27T06:36:21Z</time>
      </trkpt>
      <trkpt lat="49.34755" lon="-1.71902">
        <ele>3.4</ele>
        <time>2022-08-27T06:36:27Z</time>
      </trkpt>
      <trkpt lat="49.34727" lon="-1.71847">
        <ele>3.4</ele>
        <time>2022-08-27T06:36:34Z</time>
      </trkpt>
      <trkpt lat="49.34699" lon="-1.71793">
        <ele>3.4</ele>
        <time>2022-08-27T06:36:41Z</time>
      </trkpt>
      <trkpt lat="49.34688" lon="-1.71774">
        <ele>3.4</ele>
        <time>2022-08-27T06:36:44Z</time>
      </trkpt>
      <trkpt lat="49.34684" lon="-1.71772">
        <ele>3.6</ele>
        <time>2022-08-27T06:36:45Z</time>
      </trkpt>
      <trkpt lat="49.3468" lon="-1.71771">
        <ele>3.6</ele>
        <time>2022-08-27T06:36:46Z</time>
      </trkpt>
      <trkpt lat="49.34675" lon="-1.71779">
        <ele>3.6</ele>
        <time>2022-08-27T06:36:48Z</time>
      </trkpt>
      <trkpt lat="49.34675" lon="-1.71786">
        <ele>3.6</ele>
        <time>2022-08-27T06:36:49Z</time>
      </trkpt>
      <trkpt lat="49.34674" lon="-1.71801">
        <ele>3.8</ele>
        <time>2022-08-27T06:36:51Z</time>
      </trkpt>
      <trkpt lat="49.34673" lon="-1.71809">
        <ele>3.8</ele>
        <time>2022-08-27T06:36:52Z</time>
      </trkpt>
      <trkpt lat="49.34663" lon="-1.71849">
        <ele>4</ele>
        <time>2022-08-27T06:36:57Z</time>
      </trkpt>
      <trkpt lat="49.3466" lon="-1.71857">
        <ele>4</ele>
        <time>2022-08-27T06:36:58Z</time>
      </trkpt>
      <trkpt lat="49.34639" lon="-1.71915">
        <ele>4.4</ele>
        <time>2022-08-27T06:37:05Z</time>
      </trkpt>
      <trkpt lat="49.34618" lon="-1.71972">
        <ele>4.6</ele>
        <time>2022-08-27T06:37:12Z</time>
      </trkpt>
      <trkpt lat="49.34595" lon="-1.72026">
        <ele>4.8</ele>
        <time>2022-08-27T06:37:19Z</time>
      </trkpt>
      <trkpt lat="49.34588" lon="-1.72042">
        <ele>4.8</ele>
        <time>2022-08-27T06:37:21Z</time>
      </trkpt>
      <trkpt lat="49.34575" lon="-1.72072">
        <ele>5</ele>
        <time>2022-08-27T06:37:25Z</time>
      </trkpt>
      <trkpt lat="49.3455" lon="-1.7213">
        <ele>5.4</ele>
        <time>2022-08-27T06:37:33Z</time>
      </trkpt>
      <trkpt lat="49.34525" lon="-1.72188">
        <ele>6</ele>
        <time>2022-08-27T06:37:41Z</time>
      </trkpt>
      <trkpt lat="49.34518" lon="-1.72201">
        <ele>6</ele>
        <time>2022-08-27T06:37:43Z</time>
      </trkpt>
      <trkpt lat="49.34508" lon="-1.72209">
        <ele>6.2</ele>
        <time>2022-08-27T06:37:45Z</time>
      </trkpt>
      <trkpt lat="49.34491" lon="-1.72218">
        <ele>6.2</ele>
        <time>2022-08-27T06:37:48Z</time>
      </trkpt>
      <trkpt lat="49.34481" lon="-1.72228">
        <ele>6.4</ele>
        <time>2022-08-27T06:37:50Z</time>
      </trkpt>
      <trkpt lat="49.34468" lon="-1.72258">
        <ele>6.6</ele>
        <time>2022-08-27T06:37:54Z</time>
      </trkpt>
      <trkpt lat="49.34445" lon="-1.72318">
        <ele>7.2</ele>
        <time>2022-08-27T06:38:02Z</time>
      </trkpt>
      <trkpt lat="49.34423" lon="-1.72371">
        <ele>7.4</ele>
        <time>2022-08-27T06:38:09Z</time>
      </trkpt>
      <trkpt lat="49.344" lon="-1.72433">
        <ele>7.8</ele>
        <time>2022-08-27T06:38:17Z</time>
      </trkpt>
      <trkpt lat="49.34377" lon="-1.72479">
        <ele>8.2</ele>
        <time>2022-08-27T06:38:23Z</time>
      </trkpt>
      <trkpt lat="49.34337" lon="-1.72541">
        <ele>8.6</ele>
        <time>2022-08-27T06:38:32Z</time>
      </trkpt>
      <trkpt lat="49.34324" lon="-1.72562">
        <ele>8.6</ele>
        <time>2022-08-27T06:38:35Z</time>
      </trkpt>
      <trkpt lat="49.34285" lon="-1.72623">
        <ele>8.8</ele>
        <time>2022-08-27T06:38:44Z</time>
      </trkpt>
      <trkpt lat="49.34246" lon="-1.72685">
        <ele>9</ele>
        <time>2022-08-27T06:38:53Z</time>
      </trkpt>
      <trkpt lat="49.34241" lon="-1.72692">
        <ele>9</ele>
        <time>2022-08-27T06:38:54Z</time>
      </trkpt>
      <trkpt lat="49.34201" lon="-1.72756">
        <ele>9</ele>
        <time>2022-08-27T06:39:03Z</time>
      </trkpt>
      <trkpt lat="49.34196" lon="-1.72764">
        <ele>9</ele>
        <time>2022-08-27T06:39:04Z</time>
      </trkpt>
      <trkpt lat="49.34156" lon="-1.72827">
        <ele>9</ele>
        <time>2022-08-27T06:39:13Z</time>
      </trkpt>
      <trkpt lat="49.34147" lon="-1.72841">
        <ele>9</ele>
        <time>2022-08-27T06:39:15Z</time>
      </trkpt>
      <trkpt lat="49.34107" lon="-1.72905">
        <ele>9</ele>
        <time>2022-08-27T06:39:24Z</time>
      </trkpt>
      <trkpt lat="49.34098" lon="-1.72918">
        <ele>9.2</ele>
        <time>2022-08-27T06:39:26Z</time>
      </trkpt>
      <trkpt lat="49.34058" lon="-1.72982">
        <ele>9</ele>
        <time>2022-08-27T06:39:35Z</time>
      </trkpt>
      <trkpt lat="49.34054" lon="-1.72989">
        <ele>9</ele>
        <time>2022-08-27T06:39:36Z</time>
      </trkpt>
      <trkpt lat="49.34015" lon="-1.73051">
        <ele>9</ele>
        <time>2022-08-27T06:39:45Z</time>
      </trkpt>
      <trkpt lat="49.33988" lon="-1.73094">
        <ele>8.8</ele>
        <time>2022-08-27T06:39:52Z</time>
      </trkpt>
      <trkpt lat="49.33977" lon="-1.73115">
        <ele>8.8</ele>
        <time>2022-08-27T06:39:55Z</time>
      </trkpt>
      <trkpt lat="49.33971" lon="-1.73131">
        <ele>8.8</ele>
        <time>2022-08-27T06:39:57Z</time>
      </trkpt>
      <trkpt lat="49.33955" lon="-1.73195">
        <ele>8.6</ele>
        <time>2022-08-27T06:40:04Z</time>
      </trkpt>
      <trkpt lat="49.33949" lon="-1.73222">
        <ele>8.4</ele>
        <time>2022-08-27T06:40:07Z</time>
      </trkpt>
      <trkpt lat="49.33939" lon="-1.73245">
        <ele>8.4</ele>
        <time>2022-08-27T06:40:10Z</time>
      </trkpt>
      <trkpt lat="49.33912" lon="-1.73299">
        <ele>8.6</ele>
        <time>2022-08-27T06:40:18Z</time>
      </trkpt>
      <trkpt lat="49.33883" lon="-1.73358">
        <ele>8.8</ele>
        <time>2022-08-27T06:40:27Z</time>
      </trkpt>
      <trkpt lat="49.33872" lon="-1.73376">
        <ele>8.8</ele>
        <time>2022-08-27T06:40:30Z</time>
      </trkpt>
      <trkpt lat="49.33862" lon="-1.73379">
        <ele>9</ele>
        <time>2022-08-27T06:40:32Z</time>
      </trkpt>
      <trkpt lat="49.33852" lon="-1.73368">
        <ele>8.8</ele>
        <time>2022-08-27T06:40:34Z</time>
      </trkpt>
      <trkpt lat="49.33833" lon="-1.73333">
        <ele>8.8</ele>
        <time>2022-08-27T06:40:38Z</time>
      </trkpt>
      <trkpt lat="49.33829" lon="-1.73323">
        <ele>8.8</ele>
        <time>2022-08-27T06:40:39Z</time>
      </trkpt>
      <trkpt lat="49.33796" lon="-1.73254">
        <ele>8.6</ele>
        <time>2022-08-27T06:40:47Z</time>
      </trkpt>
      <trkpt lat="49.33769" lon="-1.73201">
        <ele>8.4</ele>
        <time>2022-08-27T06:40:54Z</time>
      </trkpt>
      <trkpt lat="49.33741" lon="-1.73143">
        <ele>8.2</ele>
        <time>2022-08-27T06:41:02Z</time>
      </trkpt>
      <trkpt lat="49.33707" lon="-1.73076">
        <ele>7.8</ele>
        <time>2022-08-27T06:41:11Z</time>
      </trkpt>
      <trkpt lat="49.33687" lon="-1.73035">
        <ele>7.6</ele>
        <time>2022-08-27T06:41:17Z</time>
      </trkpt>
      <trkpt lat="49.33682" lon="-1.73017">
        <ele>7.4</ele>
        <time>2022-08-27T06:41:20Z</time>
      </trkpt>
      <trkpt lat="49.33682" lon="-1.73012">
        <ele>7.4</ele>
        <time>2022-08-27T06:41:21Z</time>
      </trkpt>
      <trkpt lat="49.33691" lon="-1.72994">
        <ele>7.2</ele>
        <time>2022-08-27T06:41:25Z</time>
      </trkpt>
      <trkpt lat="49.33698" lon="-1.72979">
        <ele>7.2</ele>
        <time>2022-08-27T06:41:28Z</time>
      </trkpt>
      <trkpt lat="49.33704" lon="-1.72968">
        <ele>7.2</ele>
        <time>2022-08-27T06:41:30Z</time>
      </trkpt>
      <trkpt lat="49.33732" lon="-1.72915">
        <ele>7</ele>
        <time>2022-08-27T06:41:40Z</time>
      </trkpt>
      <trkpt lat="49.3375" lon="-1.72878">
        <ele>6.8</ele>
        <time>2022-08-27T06:41:47Z</time>
      </trkpt>
      <trkpt lat="49.33768" lon="-1.72846">
        <ele>7</ele>
        <time>2022-08-27T06:41:53Z</time>
      </trkpt>
      <trkpt lat="49.33784" lon="-1.72816">
        <ele>7</ele>
        <time>2022-08-27T06:41:59Z</time>
      </trkpt>
      <trkpt lat="49.33791" lon="-1.72793">
        <ele>7</ele>
        <time>2022-08-27T06:42:04Z</time>
      </trkpt>
      <trkpt lat="49.33785" lon="-1.72774">
        <ele>6.8</ele>
        <time>2022-08-27T06:42:08Z</time>
      </trkpt>
      <trkpt lat="49.33771" lon="-1.72738">
        <ele>6.8</ele>
        <time>2022-08-27T06:42:15Z</time>
      </trkpt>
      <trkpt lat="49.33757" lon="-1.72695">
        <ele>6.8</ele>
        <time>2022-08-27T06:42:22Z</time>
      </trkpt>
      <trkpt lat="49.33748" lon="-1.7267">
        <ele>6.8</ele>
        <time>2022-08-27T06:42:26Z</time>
      </trkpt>
      <trkpt lat="49.33742" lon="-1.7266">
        <ele>6.8</ele>
        <time>2022-08-27T06:42:28Z</time>
      </trkpt>
      <trkpt lat="49.33735" lon="-1.72651">
        <ele>6.8</ele>
        <time>2022-08-27T06:42:30Z</time>
      </trkpt>
      <trkpt lat="49.33724" lon="-1.7264">
        <ele>6.6</ele>
        <time>2022-08-27T06:42:33Z</time>
      </trkpt>
      <trkpt lat="49.3372" lon="-1.72636">
        <ele>6.6</ele>
        <time>2022-08-27T06:42:34Z</time>
      </trkpt>
      <trkpt lat="49.33695" lon="-1.72606">
        <ele>6.4</ele>
        <time>2022-08-27T06:42:41Z</time>
      </trkpt>
      <trkpt lat="49.33691" lon="-1.72597">
        <ele>6.4</ele>
        <time>2022-08-27T06:42:43Z</time>
      </trkpt>
      <trkpt lat="49.3369" lon="-1.72591">
        <ele>6.4</ele>
        <time>2022-08-27T06:42:44Z</time>
      </trkpt>
      <trkpt lat="49.33692" lon="-1.72585">
        <ele>6.4</ele>
        <time>2022-08-27T06:42:45Z</time>
      </trkpt>
      <trkpt lat="49.33697" lon="-1.72574">
        <ele>6.2</ele>
        <time>2022-08-27T06:42:47Z</time>
      </trkpt>
      <trkpt lat="49.337" lon="-1.72569">
        <ele>6.2</ele>
        <time>2022-08-27T06:42:48Z</time>
      </trkpt>
      <trkpt lat="49.33724" lon="-1.72523">
        <ele>6.4</ele>
        <time>2022-08-27T06:42:57Z</time>
      </trkpt>
      <trkpt lat="49.33736" lon="-1.72502">
        <ele>6.4</ele>
        <time>2022-08-27T06:43:02Z</time>
      </trkpt>
      <trkpt lat="49.33739" lon="-1.72494">
        <ele>6.4</ele>
        <time>2022-08-27T06:43:05Z</time>
      </trkpt>
      <trkpt lat="49.33739" lon="-1.72494">
        <ele>6.4</ele>
        <time>2022-08-27T06:43:06Z</time>
      </trkpt>
      <trkpt lat="49.33736" lon="-1.72486">
        <ele>6.8</ele>
        <time>2022-08-27T06:44:37Z</time>
      </trkpt>
      <trkpt lat="49.33731" lon="-1.72482">
        <ele>6.6</ele>
        <time>2022-08-27T06:44:39Z</time>
      </trkpt>
      <trkpt lat="49.33715" lon="-1.72463">
        <ele>6.6</ele>
        <time>2022-08-27T06:44:45Z</time>
      </trkpt>
      <trkpt lat="49.33694" lon="-1.72438">
        <ele>6.4</ele>
        <time>2022-08-27T06:44:52Z</time>
      </trkpt>
      <trkpt lat="49.33676" lon="-1.72417">
        <ele>6</ele>
        <time>2022-08-27T06:44:58Z</time>
      </trkpt>
      <trkpt lat="49.33656" lon="-1.72394">
        <ele>6</ele>
        <time>2022-08-27T06:45:04Z</time>
      </trkpt>
      <trkpt lat="49.33632" lon="-1.72368">
        <ele>5.8</ele>
        <time>2022-08-27T06:45:10Z</time>
      </trkpt>
      <trkpt lat="49.33604" lon="-1.72336">
        <ele>5.8</ele>
        <time>2022-08-27T06:45:17Z</time>
      </trkpt>
      <trkpt lat="49.33588" lon="-1.72318">
        <ele>5.6</ele>
        <time>2022-08-27T06:45:21Z</time>
      </trkpt>
      <trkpt lat="49.33579" lon="-1.72308">
        <ele>5.4</ele>
        <time>2022-08-27T06:45:23Z</time>
      </trkpt>
      <trkpt lat="49.33564" lon="-1.72288">
        <ele>5.4</ele>
        <time>2022-08-27T06:45:27Z</time>
      </trkpt>
      <trkpt lat="49.33555" lon="-1.72279">
        <ele>5.2</ele>
        <time>2022-08-27T06:45:29Z</time>
      </trkpt>
      <trkpt lat="49.3352" lon="-1.72241">
        <ele>5.2</ele>
        <time>2022-08-27T06:45:37Z</time>
      </trkpt>
      <trkpt lat="49.33511" lon="-1.72231">
        <ele>5.2</ele>
        <time>2022-08-27T06:45:39Z</time>
      </trkpt>
      <trkpt lat="49.33494" lon="-1.72213">
        <ele>5.2</ele>
        <time>2022-08-27T06:45:43Z</time>
      </trkpt>
      <trkpt lat="49.33487" lon="-1.72204">
        <ele>5.2</ele>
        <time>2022-08-27T06:45:45Z</time>
      </trkpt>
      <trkpt lat="49.33474" lon="-1.7219">
        <ele>5.2</ele>
        <time>2022-08-27T06:45:49Z</time>
      </trkpt>
      <trkpt lat="49.33451" lon="-1.72164">
        <ele>5.2</ele>
        <time>2022-08-27T06:45:55Z</time>
      </trkpt>
      <trkpt lat="49.33422" lon="-1.72129">
        <ele>5.4</ele>
        <time>2022-08-27T06:46:02Z</time>
      </trkpt>
      <trkpt lat="49.33387" lon="-1.7209">
        <ele>5.4</ele>
        <time>2022-08-27T06:46:10Z</time>
      </trkpt>
      <trkpt lat="49.33362" lon="-1.72061">
        <ele>5.2</ele>
        <time>2022-08-27T06:46:16Z</time>
      </trkpt>
      <trkpt lat="49.33358" lon="-1.72056">
        <ele>5</ele>
        <time>2022-08-27T06:46:17Z</time>
      </trkpt>
      <trkpt lat="49.3334" lon="-1.72036">
        <ele>4.8</ele>
        <time>2022-08-27T06:46:22Z</time>
      </trkpt>
      <trkpt lat="49.33316" lon="-1.72011">
        <ele>4</ele>
        <time>2022-08-27T06:46:28Z</time>
      </trkpt>
      <trkpt lat="49.33286" lon="-1.71983">
        <ele>3</ele>
        <time>2022-08-27T06:46:35Z</time>
      </trkpt>
      <trkpt lat="49.33254" lon="-1.71951">
        <ele>2.8</ele>
        <time>2022-08-27T06:46:42Z</time>
      </trkpt>
      <trkpt lat="49.3325" lon="-1.71945">
        <ele>2.8</ele>
        <time>2022-08-27T06:46:43Z</time>
      </trkpt>
      <trkpt lat="49.33245" lon="-1.7194">
        <ele>2.8</ele>
        <time>2022-08-27T06:46:44Z</time>
      </trkpt>
      <trkpt lat="49.3322" lon="-1.71915">
        <ele>3.2</ele>
        <time>2022-08-27T06:46:49Z</time>
      </trkpt>
      <trkpt lat="49.33193" lon="-1.71887">
        <ele>3</ele>
        <time>2022-08-27T06:46:55Z</time>
      </trkpt>
      <trkpt lat="49.33189" lon="-1.71882">
        <ele>3</ele>
        <time>2022-08-27T06:46:56Z</time>
      </trkpt>
      <trkpt lat="49.33166" lon="-1.71857">
        <ele>2.8</ele>
        <time>2022-08-27T06:47:01Z</time>
      </trkpt>
      <trkpt lat="49.33162" lon="-1.71852">
        <ele>2.8</ele>
        <time>2022-08-27T06:47:02Z</time>
      </trkpt>
      <trkpt lat="49.33156" lon="-1.7184">
        <ele>2.6</ele>
        <time>2022-08-27T06:47:04Z</time>
      </trkpt>
      <trkpt lat="49.3315" lon="-1.71826">
        <ele>2.6</ele>
        <time>2022-08-27T06:47:06Z</time>
      </trkpt>
      <trkpt lat="49.33137" lon="-1.71798">
        <ele>2.8</ele>
        <time>2022-08-27T06:47:10Z</time>
      </trkpt>
      <trkpt lat="49.33129" lon="-1.71783">
        <ele>2.6</ele>
        <time>2022-08-27T06:47:12Z</time>
      </trkpt>
      <trkpt lat="49.3311" lon="-1.7175">
        <ele>2.4</ele>
        <time>2022-08-27T06:47:17Z</time>
      </trkpt>
      <trkpt lat="49.33093" lon="-1.71717">
        <ele>2</ele>
        <time>2022-08-27T06:47:22Z</time>
      </trkpt>
      <trkpt lat="49.33062" lon="-1.71667">
        <ele>2</ele>
        <time>2022-08-27T06:47:30Z</time>
      </trkpt>
      <trkpt lat="49.33042" lon="-1.71639">
        <ele>2</ele>
        <time>2022-08-27T06:47:36Z</time>
      </trkpt>
      <trkpt lat="49.33033" lon="-1.71626">
        <ele>2.4</ele>
        <time>2022-08-27T06:47:40Z</time>
      </trkpt>
      <trkpt lat="49.33036" lon="-1.71606">
        <ele>2.4</ele>
        <time>2022-08-27T06:47:43Z</time>
      </trkpt>
      <trkpt lat="49.33049" lon="-1.71535">
        <ele>2.8</ele>
        <time>2022-08-27T06:47:52Z</time>
      </trkpt>
      <trkpt lat="49.33054" lon="-1.71503">
        <ele>3</ele>
        <time>2022-08-27T06:47:56Z</time>
      </trkpt>
      <trkpt lat="49.33057" lon="-1.71477">
        <ele>3.2</ele>
        <time>2022-08-27T06:47:59Z</time>
      </trkpt>
      <trkpt lat="49.33059" lon="-1.71416">
        <ele>3.6</ele>
        <time>2022-08-27T06:48:06Z</time>
      </trkpt>
      <trkpt lat="49.33056" lon="-1.71351">
        <ele>4</ele>
        <time>2022-08-27T06:48:13Z</time>
      </trkpt>
      <trkpt lat="49.33047" lon="-1.71277">
        <ele>4</ele>
        <time>2022-08-27T06:48:21Z</time>
      </trkpt>
      <trkpt lat="49.33038" lon="-1.71222">
        <ele>4.2</ele>
        <time>2022-08-27T06:48:27Z</time>
      </trkpt>
      <trkpt lat="49.33025" lon="-1.71139">
        <ele>4.4</ele>
        <time>2022-08-27T06:48:36Z</time>
      </trkpt>
      <trkpt lat="49.33011" lon="-1.71054">
        <ele>4.6</ele>
        <time>2022-08-27T06:48:45Z</time>
      </trkpt>
      <trkpt lat="49.33001" lon="-1.70997">
        <ele>4.8</ele>
        <time>2022-08-27T06:48:51Z</time>
      </trkpt>
      <trkpt lat="49.32986" lon="-1.70918">
        <ele>4.8</ele>
        <time>2022-08-27T06:48:59Z</time>
      </trkpt>
      <trkpt lat="49.32975" lon="-1.70863">
        <ele>5</ele>
        <time>2022-08-27T06:49:05Z</time>
      </trkpt>
      <trkpt lat="49.32966" lon="-1.70815">
        <ele>5.2</ele>
        <time>2022-08-27T06:49:10Z</time>
      </trkpt>
      <trkpt lat="49.32965" lon="-1.70785">
        <ele>5.2</ele>
        <time>2022-08-27T06:49:13Z</time>
      </trkpt>
      <trkpt lat="49.32967" lon="-1.70755">
        <ele>5.2</ele>
        <time>2022-08-27T06:49:16Z</time>
      </trkpt>
      <trkpt lat="49.3297" lon="-1.70736">
        <ele>5.4</ele>
        <time>2022-08-27T06:49:18Z</time>
      </trkpt>
      <trkpt lat="49.32986" lon="-1.70686">
        <ele>5.4</ele>
        <time>2022-08-27T06:49:24Z</time>
      </trkpt>
      <trkpt lat="49.32997" lon="-1.70665">
        <ele>5.6</ele>
        <time>2022-08-27T06:49:27Z</time>
      </trkpt>
      <trkpt lat="49.3301" lon="-1.70645">
        <ele>5.6</ele>
        <time>2022-08-27T06:49:30Z</time>
      </trkpt>
      <trkpt lat="49.33045" lon="-1.70591">
        <ele>5.4</ele>
        <time>2022-08-27T06:49:38Z</time>
      </trkpt>
      <trkpt lat="49.33081" lon="-1.70538">
        <ele>5.6</ele>
        <time>2022-08-27T06:49:46Z</time>
      </trkpt>
      <trkpt lat="49.33104" lon="-1.70503">
        <ele>5.8</ele>
        <time>2022-08-27T06:49:52Z</time>
      </trkpt>
      <trkpt lat="49.33136" lon="-1.70456">
        <ele>6</ele>
        <time>2022-08-27T06:50:00Z</time>
      </trkpt>
      <trkpt lat="49.3317" lon="-1.70404">
        <ele>6</ele>
        <time>2022-08-27T06:50:08Z</time>
      </trkpt>
      <trkpt lat="49.33209" lon="-1.70348">
        <ele>6.2</ele>
        <time>2022-08-27T06:50:17Z</time>
      </trkpt>
      <trkpt lat="49.33238" lon="-1.70304">
        <ele>6.2</ele>
        <time>2022-08-27T06:50:24Z</time>
      </trkpt>
      <trkpt lat="49.33262" lon="-1.70268">
        <ele>6.2</ele>
        <time>2022-08-27T06:50:30Z</time>
      </trkpt>
      <trkpt lat="49.33266" lon="-1.70262">
        <ele>6.4</ele>
        <time>2022-08-27T06:50:31Z</time>
      </trkpt>
      <trkpt lat="49.33293" lon="-1.70221">
        <ele>6.4</ele>
        <time>2022-08-27T06:50:38Z</time>
      </trkpt>
      <trkpt lat="49.33311" lon="-1.70196">
        <ele>6.4</ele>
        <time>2022-08-27T06:50:43Z</time>
      </trkpt>
      <trkpt lat="49.33315" lon="-1.70192">
        <ele>6.4</ele>
        <time>2022-08-27T06:50:44Z</time>
      </trkpt>
      <trkpt lat="49.33323" lon="-1.70186">
        <ele>6.4</ele>
        <time>2022-08-27T06:50:46Z</time>
      </trkpt>
      <trkpt lat="49.33334" lon="-1.70172">
        <ele>6.4</ele>
        <time>2022-08-27T06:50:49Z</time>
      </trkpt>
      <trkpt lat="49.33358" lon="-1.70136">
        <ele>6.6</ele>
        <time>2022-08-27T06:50:56Z</time>
      </trkpt>
      <trkpt lat="49.33392" lon="-1.70085">
        <ele>6.6</ele>
        <time>2022-08-27T06:51:06Z</time>
      </trkpt>
      <trkpt lat="49.3342" lon="-1.70043">
        <ele>6.8</ele>
        <time>2022-08-27T06:51:14Z</time>
      </trkpt>
      <trkpt lat="49.33446" lon="-1.70004">
        <ele>6.4</ele>
        <time>2022-08-27T06:51:22Z</time>
      </trkpt>
      <trkpt lat="49.33454" lon="-1.69991">
        <ele>6.6</ele>
        <time>2022-08-27T06:51:25Z</time>
      </trkpt>
      <trkpt lat="49.33454" lon="-1.69987">
        <ele>6.6</ele>
        <time>2022-08-27T06:51:26Z</time>
      </trkpt>
      <trkpt lat="49.33454" lon="-1.69985">
        <ele>6.6</ele>
        <time>2022-08-27T06:51:27Z</time>
      </trkpt>
      <trkpt lat="49.33455" lon="-1.69984">
        <ele>6.6</ele>
        <time>2022-08-27T06:51:29Z</time>
      </trkpt>
      <trkpt lat="49.33455" lon="-1.69984">
        <ele>6.6</ele>
        <time>2022-08-27T06:51:30Z</time>
      </trkpt>
      <trkpt lat="49.33451" lon="-1.6998">
        <ele>6.4</ele>
        <time>2022-08-27T06:51:40Z</time>
      </trkpt>
      <trkpt lat="49.3345" lon="-1.69976">
        <ele>6.4</ele>
        <time>2022-08-27T06:51:41Z</time>
      </trkpt>
      <trkpt lat="49.33455" lon="-1.69955">
        <ele>6</ele>
        <time>2022-08-27T06:51:45Z</time>
      </trkpt>
      <trkpt lat="49.33451" lon="-1.69947">
        <ele>6</ele>
        <time>2022-08-27T06:51:47Z</time>
      </trkpt>
      <trkpt lat="49.33448" lon="-1.69945">
        <ele>5.8</ele>
        <time>2022-08-27T06:51:48Z</time>
      </trkpt>
      <trkpt lat="49.33443" lon="-1.69942">
        <ele>5.8</ele>
        <time>2022-08-27T06:51:49Z</time>
      </trkpt>
      <trkpt lat="49.33428" lon="-1.69932">
        <ele>5.4</ele>
        <time>2022-08-27T06:51:52Z</time>
      </trkpt>
      <trkpt lat="49.33409" lon="-1.69903">
        <ele>5</ele>
        <time>2022-08-27T06:51:56Z</time>
      </trkpt>
      <trkpt lat="49.33399" lon="-1.6989">
        <ele>4.8</ele>
        <time>2022-08-27T06:51:58Z</time>
      </trkpt>
      <trkpt lat="49.33381" lon="-1.69863">
        <ele>4.6</ele>
        <time>2022-08-27T06:52:02Z</time>
      </trkpt>
      <trkpt lat="49.33369" lon="-1.69843">
        <ele>4.4</ele>
        <time>2022-08-27T06:52:05Z</time>
      </trkpt>
      <trkpt lat="49.33365" lon="-1.69836">
        <ele>4.2</ele>
        <time>2022-08-27T06:52:06Z</time>
      </trkpt>
      <trkpt lat="49.33349" lon="-1.69814">
        <ele>4.2</ele>
        <time>2022-08-27T06:52:10Z</time>
      </trkpt>
      <trkpt lat="49.33344" lon="-1.69809">
        <ele>4.2</ele>
        <time>2022-08-27T06:52:11Z</time>
      </trkpt>
      <trkpt lat="49.33305" lon="-1.69777">
        <ele>4.4</ele>
        <time>2022-08-27T06:52:19Z</time>
      </trkpt>
      <trkpt lat="49.33268" lon="-1.69743">
        <ele>4</ele>
        <time>2022-08-27T06:52:27Z</time>
      </trkpt>
      <trkpt lat="49.33218" lon="-1.697">
        <ele>4.4</ele>
        <time>2022-08-27T06:52:37Z</time>
      </trkpt>
      <trkpt lat="49.33187" lon="-1.69662">
        <ele>4.6</ele>
        <time>2022-08-27T06:52:44Z</time>
      </trkpt>
      <trkpt lat="49.33156" lon="-1.69622">
        <ele>4.8</ele>
        <time>2022-08-27T06:52:51Z</time>
      </trkpt>
      <trkpt lat="49.33117" lon="-1.69572">
        <ele>5</ele>
        <time>2022-08-27T06:53:00Z</time>
      </trkpt>
      <trkpt lat="49.33101" lon="-1.69548">
        <ele>5</ele>
        <time>2022-08-27T06:53:04Z</time>
      </trkpt>
      <trkpt lat="49.33096" lon="-1.69533">
        <ele>5</ele>
        <time>2022-08-27T06:53:06Z</time>
      </trkpt>
      <trkpt lat="49.33094" lon="-1.69525">
        <ele>5</ele>
        <time>2022-08-27T06:53:07Z</time>
      </trkpt>
      <trkpt lat="49.33086" lon="-1.69485">
        <ele>5</ele>
        <time>2022-08-27T06:53:12Z</time>
      </trkpt>
      <trkpt lat="49.33079" lon="-1.69439">
        <ele>5</ele>
        <time>2022-08-27T06:53:18Z</time>
      </trkpt>
      <trkpt lat="49.33078" lon="-1.69431">
        <ele>5</ele>
        <time>2022-08-27T06:53:19Z</time>
      </trkpt>
      <trkpt lat="49.33073" lon="-1.6939">
        <ele>5.2</ele>
        <time>2022-08-27T06:53:24Z</time>
      </trkpt>
      <trkpt lat="49.33072" lon="-1.69374">
        <ele>5.2</ele>
        <time>2022-08-27T06:53:26Z</time>
      </trkpt>
      <trkpt lat="49.33069" lon="-1.69358">
        <ele>5.2</ele>
        <time>2022-08-27T06:53:28Z</time>
      </trkpt>
      <trkpt lat="49.33061" lon="-1.69335">
        <ele>5.4</ele>
        <time>2022-08-27T06:53:31Z</time>
      </trkpt>
      <trkpt lat="49.33046" lon="-1.69298">
        <ele>5.4</ele>
        <time>2022-08-27T06:53:36Z</time>
      </trkpt>
      <trkpt lat="49.33042" lon="-1.69292">
        <ele>5.4</ele>
        <time>2022-08-27T06:53:37Z</time>
      </trkpt>
      <trkpt lat="49.33038" lon="-1.69286">
        <ele>5.4</ele>
        <time>2022-08-27T06:53:38Z</time>
      </trkpt>
      <trkpt lat="49.33029" lon="-1.69275">
        <ele>5.6</ele>
        <time>2022-08-27T06:53:40Z</time>
      </trkpt>
      <trkpt lat="49.33019" lon="-1.69266">
        <ele>5.4</ele>
        <time>2022-08-27T06:53:42Z</time>
      </trkpt>
      <trkpt lat="49.33007" lon="-1.69249">
        <ele>5.4</ele>
        <time>2022-08-27T06:53:45Z</time>
      </trkpt>
      <trkpt lat="49.33004" lon="-1.69242">
        <ele>5.4</ele>
        <time>2022-08-27T06:53:46Z</time>
      </trkpt>
      <trkpt lat="49.32999" lon="-1.69218">
        <ele>5.4</ele>
        <time>2022-08-27T06:53:49Z</time>
      </trkpt>
      <trkpt lat="49.32996" lon="-1.692">
        <ele>5.4</ele>
        <time>2022-08-27T06:53:51Z</time>
      </trkpt>
      <trkpt lat="49.32993" lon="-1.69112">
        <ele>5.4</ele>
        <time>2022-08-27T06:54:00Z</time>
      </trkpt>
      <trkpt lat="49.32989" lon="-1.69045">
        <ele>5.4</ele>
        <time>2022-08-27T06:54:07Z</time>
      </trkpt>
      <trkpt lat="49.32989" lon="-1.68979">
        <ele>5.6</ele>
        <time>2022-08-27T06:54:14Z</time>
      </trkpt>
      <trkpt lat="49.32992" lon="-1.68952">
        <ele>5.6</ele>
        <time>2022-08-27T06:54:17Z</time>
      </trkpt>
      <trkpt lat="49.32997" lon="-1.68935">
        <ele>5.6</ele>
        <time>2022-08-27T06:54:19Z</time>
      </trkpt>
      <trkpt lat="49.33004" lon="-1.68919">
        <ele>5.6</ele>
        <time>2022-08-27T06:54:21Z</time>
      </trkpt>
      <trkpt lat="49.33009" lon="-1.68903">
        <ele>5.6</ele>
        <time>2022-08-27T06:54:23Z</time>
      </trkpt>
      <trkpt lat="49.33011" lon="-1.68894">
        <ele>5.4</ele>
        <time>2022-08-27T06:54:24Z</time>
      </trkpt>
      <trkpt lat="49.33017" lon="-1.68869">
        <ele>5.4</ele>
        <time>2022-08-27T06:54:27Z</time>
      </trkpt>
      <trkpt lat="49.33018" lon="-1.68852">
        <ele>5.2</ele>
        <time>2022-08-27T06:54:29Z</time>
      </trkpt>
      <trkpt lat="49.33019" lon="-1.68844">
        <ele>5.2</ele>
        <time>2022-08-27T06:54:30Z</time>
      </trkpt>
      <trkpt lat="49.33025" lon="-1.68821">
        <ele>5.2</ele>
        <time>2022-08-27T06:54:33Z</time>
      </trkpt>
      <trkpt lat="49.33043" lon="-1.68772">
        <ele>5</ele>
        <time>2022-08-27T06:54:40Z</time>
      </trkpt>
      <trkpt lat="49.33056" lon="-1.68739">
        <ele>5</ele>
        <time>2022-08-27T06:54:46Z</time>
      </trkpt>
      <trkpt lat="49.33057" lon="-1.68726">
        <ele>5</ele>
        <time>2022-08-27T06:54:48Z</time>
      </trkpt>
      <trkpt lat="49.33056" lon="-1.68704">
        <ele>4.8</ele>
        <time>2022-08-27T06:54:51Z</time>
      </trkpt>
      <trkpt lat="49.33057" lon="-1.6869">
        <ele>5.2</ele>
        <time>2022-08-27T06:54:53Z</time>
      </trkpt>
      <trkpt lat="49.33061" lon="-1.68678">
        <ele>5.4</ele>
        <time>2022-08-27T06:54:55Z</time>
      </trkpt>
      <trkpt lat="49.33068" lon="-1.68661">
        <ele>5.2</ele>
        <time>2022-08-27T06:54:58Z</time>
      </trkpt>
      <trkpt lat="49.33071" lon="-1.68648">
        <ele>5.4</ele>
        <time>2022-08-27T06:55:00Z</time>
      </trkpt>
      <trkpt lat="49.33071" lon="-1.68642">
        <ele>5.4</ele>
        <time>2022-08-27T06:55:01Z</time>
      </trkpt>
      <trkpt lat="49.33069" lon="-1.68607">
        <ele>5.8</ele>
        <time>2022-08-27T06:55:07Z</time>
      </trkpt>
      <trkpt lat="49.3307" lon="-1.68585">
        <ele>6</ele>
        <time>2022-08-27T06:55:11Z</time>
      </trkpt>
      <trkpt lat="49.33073" lon="-1.68582">
        <ele>6</ele>
        <time>2022-08-27T06:55:12Z</time>
      </trkpt>
      <trkpt lat="49.33076" lon="-1.68581">
        <ele>6</ele>
        <time>2022-08-27T06:55:13Z</time>
      </trkpt>
      <trkpt lat="49.33084" lon="-1.68585">
        <ele>6.2</ele>
        <time>2022-08-27T06:55:15Z</time>
      </trkpt>
      <trkpt lat="49.33115" lon="-1.68606">
        <ele>6.6</ele>
        <time>2022-08-27T06:55:23Z</time>
      </trkpt>
      <trkpt lat="49.33123" lon="-1.6861">
        <ele>6.6</ele>
        <time>2022-08-27T06:55:25Z</time>
      </trkpt>
      <trkpt lat="49.3314" lon="-1.68621">
        <ele>6.8</ele>
        <time>2022-08-27T06:55:29Z</time>
      </trkpt>
      <trkpt lat="49.33156" lon="-1.68632">
        <ele>7</ele>
        <time>2022-08-27T06:55:33Z</time>
      </trkpt>
      <trkpt lat="49.33164" lon="-1.68638">
        <ele>7</ele>
        <time>2022-08-27T06:55:35Z</time>
      </trkpt>
      <trkpt lat="49.33183" lon="-1.68651">
        <ele>7.2</ele>
        <time>2022-08-27T06:55:40Z</time>
      </trkpt>
      <trkpt lat="49.3319" lon="-1.68657">
        <ele>7.4</ele>
        <time>2022-08-27T06:55:42Z</time>
      </trkpt>
      <trkpt lat="49.33198" lon="-1.68663">
        <ele>7.4</ele>
        <time>2022-08-27T06:55:44Z</time>
      </trkpt>
      <trkpt lat="49.33214" lon="-1.68673">
        <ele>7.6</ele>
        <time>2022-08-27T06:55:48Z</time>
      </trkpt>
      <trkpt lat="49.33242" lon="-1.6869">
        <ele>8</ele>
        <time>2022-08-27T06:55:55Z</time>
      </trkpt>
      <trkpt lat="49.33267" lon="-1.68704">
        <ele>8.2</ele>
        <time>2022-08-27T06:56:01Z</time>
      </trkpt>
      <trkpt lat="49.33275" lon="-1.68705">
        <ele>8.4</ele>
        <time>2022-08-27T06:56:03Z</time>
      </trkpt>
      <trkpt lat="49.33289" lon="-1.68697">
        <ele>8.6</ele>
        <time>2022-08-27T06:56:07Z</time>
      </trkpt>
      <trkpt lat="49.33295" lon="-1.68688">
        <ele>8.8</ele>
        <time>2022-08-27T06:56:09Z</time>
      </trkpt>
      <trkpt lat="49.33303" lon="-1.68672">
        <ele>9</ele>
        <time>2022-08-27T06:56:12Z</time>
      </trkpt>
      <trkpt lat="49.33312" lon="-1.68649">
        <ele>9.2</ele>
        <time>2022-08-27T06:56:16Z</time>
      </trkpt>
      <trkpt lat="49.33317" lon="-1.68636">
        <ele>9.4</ele>
        <time>2022-08-27T06:56:18Z</time>
      </trkpt>
      <trkpt lat="49.33335" lon="-1.68587">
        <ele>9.4</ele>
        <time>2022-08-27T06:56:25Z</time>
      </trkpt>
      <trkpt lat="49.33355" lon="-1.68542">
        <ele>9.4</ele>
        <time>2022-08-27T06:56:31Z</time>
      </trkpt>
      <trkpt lat="49.33364" lon="-1.6853">
        <ele>9.4</ele>
        <time>2022-08-27T06:56:33Z</time>
      </trkpt>
      <trkpt lat="49.33374" lon="-1.68522">
        <ele>9.4</ele>
        <time>2022-08-27T06:56:35Z</time>
      </trkpt>
      <trkpt lat="49.33404" lon="-1.68517">
        <ele>9.4</ele>
        <time>2022-08-27T06:56:40Z</time>
      </trkpt>
      <trkpt lat="49.3341" lon="-1.68517">
        <ele>9.4</ele>
        <time>2022-08-27T06:56:41Z</time>
      </trkpt>
      <trkpt lat="49.33432" lon="-1.68511">
        <ele>9.6</ele>
        <time>2022-08-27T06:56:45Z</time>
      </trkpt>
      <trkpt lat="49.33462" lon="-1.68498">
        <ele>9.6</ele>
        <time>2022-08-27T06:56:51Z</time>
      </trkpt>
      <trkpt lat="49.33476" lon="-1.68493">
        <ele>10</ele>
        <time>2022-08-27T06:56:55Z</time>
      </trkpt>
      <trkpt lat="49.33486" lon="-1.68492">
        <ele>10.4</ele>
        <time>2022-08-27T06:56:58Z</time>
      </trkpt>
      <trkpt lat="49.3349" lon="-1.6849">
        <ele>10.4</ele>
        <time>2022-08-27T06:56:59Z</time>
      </trkpt>
      <trkpt lat="49.335" lon="-1.68483">
        <ele>10.6</ele>
        <time>2022-08-27T06:57:01Z</time>
      </trkpt>
      <trkpt lat="49.33508" lon="-1.68471">
        <ele>10.8</ele>
        <time>2022-08-27T06:57:03Z</time>
      </trkpt>
      <trkpt lat="49.33528" lon="-1.68434">
        <ele>11</ele>
        <time>2022-08-27T06:57:09Z</time>
      </trkpt>
      <trkpt lat="49.33535" lon="-1.68422">
        <ele>11</ele>
        <time>2022-08-27T06:57:11Z</time>
      </trkpt>
      <trkpt lat="49.33537" lon="-1.68407">
        <ele>11</ele>
        <time>2022-08-27T06:57:13Z</time>
      </trkpt>
      <trkpt lat="49.33536" lon="-1.68358">
        <ele>11.2</ele>
        <time>2022-08-27T06:57:19Z</time>
      </trkpt>
      <trkpt lat="49.33535" lon="-1.68352">
        <ele>11.4</ele>
        <time>2022-08-27T06:57:20Z</time>
      </trkpt>
      <trkpt lat="49.33532" lon="-1.68339">
        <ele>11.4</ele>
        <time>2022-08-27T06:57:22Z</time>
      </trkpt>
      <trkpt lat="49.33529" lon="-1.68282">
        <ele>11.8</ele>
        <time>2022-08-27T06:57:29Z</time>
      </trkpt>
      <trkpt lat="49.33528" lon="-1.68266">
        <ele>11.8</ele>
        <time>2022-08-27T06:57:31Z</time>
      </trkpt>
      <trkpt lat="49.33526" lon="-1.68233">
        <ele>12</ele>
        <time>2022-08-27T06:57:35Z</time>
      </trkpt>
      <trkpt lat="49.33524" lon="-1.6817">
        <ele>12.2</ele>
        <time>2022-08-27T06:57:42Z</time>
      </trkpt>
      <trkpt lat="49.33523" lon="-1.68152">
        <ele>12.4</ele>
        <time>2022-08-27T06:57:44Z</time>
      </trkpt>
      <trkpt lat="49.33523" lon="-1.68138">
        <ele>12.4</ele>
        <time>2022-08-27T06:57:46Z</time>
      </trkpt>
      <trkpt lat="49.33524" lon="-1.68091">
        <ele>12.4</ele>
        <time>2022-08-27T06:57:52Z</time>
      </trkpt>
      <trkpt lat="49.33523" lon="-1.68051">
        <ele>12.4</ele>
        <time>2022-08-27T06:57:56Z</time>
      </trkpt>
      <trkpt lat="49.33524" lon="-1.68039">
        <ele>12.2</ele>
        <time>2022-08-27T06:57:57Z</time>
      </trkpt>
      <trkpt lat="49.33525" lon="-1.67973">
        <ele>11.8</ele>
        <time>2022-08-27T06:58:02Z</time>
      </trkpt>
      <trkpt lat="49.33525" lon="-1.67938">
        <ele>11.4</ele>
        <time>2022-08-27T06:58:05Z</time>
      </trkpt>
      <trkpt lat="49.33527" lon="-1.67888">
        <ele>11.2</ele>
        <time>2022-08-27T06:58:10Z</time>
      </trkpt>
      <trkpt lat="49.33529" lon="-1.67818">
        <ele>11.6</ele>
        <time>2022-08-27T06:58:18Z</time>
      </trkpt>
      <trkpt lat="49.33531" lon="-1.6776">
        <ele>11.8</ele>
        <time>2022-08-27T06:58:24Z</time>
      </trkpt>
      <trkpt lat="49.33531" lon="-1.67741">
        <ele>11.6</ele>
        <time>2022-08-27T06:58:26Z</time>
      </trkpt>
      <trkpt lat="49.33531" lon="-1.67723">
        <ele>11.2</ele>
        <time>2022-08-27T06:58:28Z</time>
      </trkpt>
      <trkpt lat="49.33533" lon="-1.67685">
        <ele>11</ele>
        <time>2022-08-27T06:58:32Z</time>
      </trkpt>
      <trkpt lat="49.33534" lon="-1.67657">
        <ele>10.6</ele>
        <time>2022-08-27T06:58:35Z</time>
      </trkpt>
      <trkpt lat="49.33535" lon="-1.6763">
        <ele>10</ele>
        <time>2022-08-27T06:58:38Z</time>
      </trkpt>
      <trkpt lat="49.33536" lon="-1.67583">
        <ele>9.6</ele>
        <time>2022-08-27T06:58:43Z</time>
      </trkpt>
      <trkpt lat="49.33536" lon="-1.67574">
        <ele>9.6</ele>
        <time>2022-08-27T06:58:44Z</time>
      </trkpt>
      <trkpt lat="49.33536" lon="-1.67554">
        <ele>9.2</ele>
        <time>2022-08-27T06:58:47Z</time>
      </trkpt>
      <trkpt lat="49.33537" lon="-1.67549">
        <ele>9.2</ele>
        <time>2022-08-27T06:58:48Z</time>
      </trkpt>
      <trkpt lat="49.33535" lon="-1.67533">
        <ele>9.2</ele>
        <time>2022-08-27T06:58:51Z</time>
      </trkpt>
      <trkpt lat="49.33534" lon="-1.67507">
        <ele>9.4</ele>
        <time>2022-08-27T06:58:56Z</time>
      </trkpt>
      <trkpt lat="49.33534" lon="-1.67494">
        <ele>9.4</ele>
        <time>2022-08-27T06:58:58Z</time>
      </trkpt>
      <trkpt lat="49.33535" lon="-1.6748">
        <ele>9.2</ele>
        <time>2022-08-27T06:59:00Z</time>
      </trkpt>
      <trkpt lat="49.33535" lon="-1.67451">
        <ele>8.8</ele>
        <time>2022-08-27T06:59:04Z</time>
      </trkpt>
      <trkpt lat="49.33535" lon="-1.67427">
        <ele>8.4</ele>
        <time>2022-08-27T06:59:07Z</time>
      </trkpt>
      <trkpt lat="49.33535" lon="-1.67402">
        <ele>7.8</ele>
        <time>2022-08-27T06:59:10Z</time>
      </trkpt>
      <trkpt lat="49.33538" lon="-1.67355">
        <ele>6.8</ele>
        <time>2022-08-27T06:59:16Z</time>
      </trkpt>
      <trkpt lat="49.33541" lon="-1.67318">
        <ele>6.2</ele>
        <time>2022-08-27T06:59:20Z</time>
      </trkpt>
      <trkpt lat="49.33541" lon="-1.67297">
        <ele>5.8</ele>
        <time>2022-08-27T06:59:22Z</time>
      </trkpt>
      <trkpt lat="49.33544" lon="-1.67227">
        <ele>5.2</ele>
        <time>2022-08-27T06:59:29Z</time>
      </trkpt>
      <trkpt lat="49.33545" lon="-1.67208">
        <ele>5.2</ele>
        <time>2022-08-27T06:59:31Z</time>
      </trkpt>
      <trkpt lat="49.33546" lon="-1.67184">
        <ele>4.8</ele>
        <time>2022-08-27T06:59:34Z</time>
      </trkpt>
      <trkpt lat="49.33548" lon="-1.67141">
        <ele>4.4</ele>
        <time>2022-08-27T06:59:39Z</time>
      </trkpt>
      <trkpt lat="49.33549" lon="-1.67124">
        <ele>4</ele>
        <time>2022-08-27T06:59:41Z</time>
      </trkpt>
      <trkpt lat="49.33548" lon="-1.67107">
        <ele>3.8</ele>
        <time>2022-08-27T06:59:43Z</time>
      </trkpt>
      <trkpt lat="49.33548" lon="-1.67097">
        <ele>3.8</ele>
        <time>2022-08-27T06:59:44Z</time>
      </trkpt>
      <trkpt lat="49.33548" lon="-1.67088">
        <ele>4</ele>
        <time>2022-08-27T06:59:45Z</time>
      </trkpt>
      <trkpt lat="49.33545" lon="-1.67065">
        <ele>4.6</ele>
        <time>2022-08-27T06:59:48Z</time>
      </trkpt>
      <trkpt lat="49.33545" lon="-1.67051">
        <ele>5.4</ele>
        <time>2022-08-27T06:59:51Z</time>
      </trkpt>
      <trkpt lat="49.33545" lon="-1.67046">
        <ele>6.2</ele>
        <time>2022-08-27T06:59:52Z</time>
      </trkpt>
      <trkpt lat="49.33545" lon="-1.6703">
        <ele>5.4</ele>
        <time>2022-08-27T06:59:55Z</time>
      </trkpt>
      <trkpt lat="49.33543" lon="-1.67014">
        <ele>5.6</ele>
        <time>2022-08-27T06:59:58Z</time>
      </trkpt>
      <trkpt lat="49.33544" lon="-1.67007">
        <ele>5.6</ele>
        <time>2022-08-27T06:59:59Z</time>
      </trkpt>
      <trkpt lat="49.33545" lon="-1.66992">
        <ele>5.8</ele>
        <time>2022-08-27T07:00:01Z</time>
      </trkpt>
      <trkpt lat="49.33546" lon="-1.66967">
        <ele>5.8</ele>
        <time>2022-08-27T07:00:04Z</time>
      </trkpt>
      <trkpt lat="49.33549" lon="-1.66925">
        <ele>5.8</ele>
        <time>2022-08-27T07:00:09Z</time>
      </trkpt>
      <trkpt lat="49.33548" lon="-1.66916">
        <ele>5.8</ele>
        <time>2022-08-27T07:00:10Z</time>
      </trkpt>
      <trkpt lat="49.33548" lon="-1.66908">
        <ele>5.8</ele>
        <time>2022-08-27T07:00:11Z</time>
      </trkpt>
      <trkpt lat="49.33549" lon="-1.66883">
        <ele>5.6</ele>
        <time>2022-08-27T07:00:14Z</time>
      </trkpt>
      <trkpt lat="49.33547" lon="-1.66847">
        <ele>5.8</ele>
        <time>2022-08-27T07:00:18Z</time>
      </trkpt>
      <trkpt lat="49.33547" lon="-1.66837">
        <ele>5.8</ele>
        <time>2022-08-27T07:00:19Z</time>
      </trkpt>
      <trkpt lat="49.33547" lon="-1.66802">
        <ele>5.8</ele>
        <time>2022-08-27T07:00:23Z</time>
      </trkpt>
      <trkpt lat="49.33546" lon="-1.66792">
        <ele>5.8</ele>
        <time>2022-08-27T07:00:24Z</time>
      </trkpt>
      <trkpt lat="49.33545" lon="-1.66741">
        <ele>6.2</ele>
        <time>2022-08-27T07:00:29Z</time>
      </trkpt>
      <trkpt lat="49.33538" lon="-1.66656">
        <ele>7</ele>
        <time>2022-08-27T07:00:38Z</time>
      </trkpt>
      <trkpt lat="49.33536" lon="-1.66636">
        <ele>7.2</ele>
        <time>2022-08-27T07:00:42Z</time>
      </trkpt>
      <trkpt lat="49.33528" lon="-1.66627">
        <ele>7.6</ele>
        <time>2022-08-27T07:00:46Z</time>
      </trkpt>
      <trkpt lat="49.33522" lon="-1.66614">
        <ele>7.8</ele>
        <time>2022-08-27T07:00:50Z</time>
      </trkpt>
      <trkpt lat="49.33523" lon="-1.6661">
        <ele>7.6</ele>
        <time>2022-08-27T07:00:51Z</time>
      </trkpt>
      <trkpt lat="49.33527" lon="-1.66601">
        <ele>7.8</ele>
        <time>2022-08-27T07:00:53Z</time>
      </trkpt>
      <trkpt lat="49.33529" lon="-1.66589">
        <ele>8.2</ele>
        <time>2022-08-27T07:00:55Z</time>
      </trkpt>
      <trkpt lat="49.33529" lon="-1.66579">
        <ele>8.4</ele>
        <time>2022-08-27T07:00:57Z</time>
      </trkpt>
      <trkpt lat="49.33527" lon="-1.66575">
        <ele>8.6</ele>
        <time>2022-08-27T07:00:58Z</time>
      </trkpt>
      <trkpt lat="49.33523" lon="-1.66549">
        <ele>9</ele>
        <time>2022-08-27T07:01:02Z</time>
      </trkpt>
      <trkpt lat="49.33516" lon="-1.665">
        <ele>9.4</ele>
        <time>2022-08-27T07:01:08Z</time>
      </trkpt>
      <trkpt lat="49.33503" lon="-1.66433">
        <ele>9.6</ele>
        <time>2022-08-27T07:01:15Z</time>
      </trkpt>
      <trkpt lat="49.33485" lon="-1.66351">
        <ele>9.6</ele>
        <time>2022-08-27T07:01:23Z</time>
      </trkpt>
      <trkpt lat="49.33469" lon="-1.66286">
        <ele>9.6</ele>
        <time>2022-08-27T07:01:29Z</time>
      </trkpt>
      <trkpt lat="49.33453" lon="-1.66219">
        <ele>9.8</ele>
        <time>2022-08-27T07:01:35Z</time>
      </trkpt>
      <trkpt lat="49.33437" lon="-1.66148">
        <ele>9.8</ele>
        <time>2022-08-27T07:01:41Z</time>
      </trkpt>
      <trkpt lat="49.33422" lon="-1.66082">
        <ele>9.4</ele>
        <time>2022-08-27T07:01:47Z</time>
      </trkpt>
      <trkpt lat="49.33407" lon="-1.66019">
        <ele>9.2</ele>
        <time>2022-08-27T07:01:53Z</time>
      </trkpt>
      <trkpt lat="49.33393" lon="-1.65961">
        <ele>8.8</ele>
        <time>2022-08-27T07:01:59Z</time>
      </trkpt>
      <trkpt lat="49.33376" lon="-1.65881">
        <ele>8.2</ele>
        <time>2022-08-27T07:02:06Z</time>
      </trkpt>
      <trkpt lat="49.33361" lon="-1.65816">
        <ele>8.2</ele>
        <time>2022-08-27T07:02:12Z</time>
      </trkpt>
      <trkpt lat="49.33342" lon="-1.65734">
        <ele>8</ele>
        <time>2022-08-27T07:02:20Z</time>
      </trkpt>
      <trkpt lat="49.33339" lon="-1.65724">
        <ele>8</ele>
        <time>2022-08-27T07:02:21Z</time>
      </trkpt>
      <trkpt lat="49.33323" lon="-1.65655">
        <ele>8</ele>
        <time>2022-08-27T07:02:28Z</time>
      </trkpt>
      <trkpt lat="49.33306" lon="-1.6558">
        <ele>8.6</ele>
        <time>2022-08-27T07:02:36Z</time>
      </trkpt>
      <trkpt lat="49.33297" lon="-1.65534">
        <ele>8.8</ele>
        <time>2022-08-27T07:02:41Z</time>
      </trkpt>
      <trkpt lat="49.33296" lon="-1.65526">
        <ele>8.8</ele>
        <time>2022-08-27T07:02:42Z</time>
      </trkpt>
      <trkpt lat="49.33283" lon="-1.65446">
        <ele>9.2</ele>
        <time>2022-08-27T07:02:51Z</time>
      </trkpt>
      <trkpt lat="49.33277" lon="-1.65394">
        <ele>9.4</ele>
        <time>2022-08-27T07:02:57Z</time>
      </trkpt>
      <trkpt lat="49.3327" lon="-1.65324">
        <ele>9.8</ele>
        <time>2022-08-27T07:03:05Z</time>
      </trkpt>
      <trkpt lat="49.33267" lon="-1.65299">
        <ele>10</ele>
        <time>2022-08-27T07:03:08Z</time>
      </trkpt>
      <trkpt lat="49.33264" lon="-1.65276">
        <ele>10.2</ele>
        <time>2022-08-27T07:03:11Z</time>
      </trkpt>
      <trkpt lat="49.33262" lon="-1.65252">
        <ele>10.2</ele>
        <time>2022-08-27T07:03:14Z</time>
      </trkpt>
      <trkpt lat="49.33262" lon="-1.65244">
        <ele>10.4</ele>
        <time>2022-08-27T07:03:15Z</time>
      </trkpt>
      <trkpt lat="49.33259" lon="-1.65213">
        <ele>10.4</ele>
        <time>2022-08-27T07:03:19Z</time>
      </trkpt>
      <trkpt lat="49.33257" lon="-1.65182">
        <ele>10.4</ele>
        <time>2022-08-27T07:03:23Z</time>
      </trkpt>
      <trkpt lat="49.33256" lon="-1.65173">
        <ele>10.4</ele>
        <time>2022-08-27T07:03:24Z</time>
      </trkpt>
      <trkpt lat="49.33254" lon="-1.65155">
        <ele>10.2</ele>
        <time>2022-08-27T07:03:26Z</time>
      </trkpt>
      <trkpt lat="49.33251" lon="-1.65136">
        <ele>10.4</ele>
        <time>2022-08-27T07:03:28Z</time>
      </trkpt>
      <trkpt lat="49.33248" lon="-1.65109">
        <ele>10.4</ele>
        <time>2022-08-27T07:03:31Z</time>
      </trkpt>
      <trkpt lat="49.33247" lon="-1.65093">
        <ele>10.4</ele>
        <time>2022-08-27T07:03:33Z</time>
      </trkpt>
      <trkpt lat="49.33243" lon="-1.65058">
        <ele>10.6</ele>
        <time>2022-08-27T07:03:37Z</time>
      </trkpt>
      <trkpt lat="49.33239" lon="-1.65009">
        <ele>10.6</ele>
        <time>2022-08-27T07:03:43Z</time>
      </trkpt>
      <trkpt lat="49.33233" lon="-1.6496">
        <ele>10.6</ele>
        <time>2022-08-27T07:03:49Z</time>
      </trkpt>
      <trkpt lat="49.33225" lon="-1.64884">
        <ele>11.2</ele>
        <time>2022-08-27T07:03:58Z</time>
      </trkpt>
      <trkpt lat="49.3322" lon="-1.64835">
        <ele>11.4</ele>
        <time>2022-08-27T07:04:04Z</time>
      </trkpt>
      <trkpt lat="49.33216" lon="-1.64795">
        <ele>11.8</ele>
        <time>2022-08-27T07:04:09Z</time>
      </trkpt>
      <trkpt lat="49.33215" lon="-1.64779">
        <ele>11.8</ele>
        <time>2022-08-27T07:04:11Z</time>
      </trkpt>
      <trkpt lat="49.3321" lon="-1.64729">
        <ele>12</ele>
        <time>2022-08-27T07:04:17Z</time>
      </trkpt>
      <trkpt lat="49.33207" lon="-1.64688">
        <ele>12.2</ele>
        <time>2022-08-27T07:04:22Z</time>
      </trkpt>
      <trkpt lat="49.33206" lon="-1.64679">
        <ele>12.2</ele>
        <time>2022-08-27T07:04:23Z</time>
      </trkpt>
      <trkpt lat="49.33205" lon="-1.64665">
        <ele>12.2</ele>
        <time>2022-08-27T07:04:25Z</time>
      </trkpt>
      <trkpt lat="49.33204" lon="-1.64651">
        <ele>12.2</ele>
        <time>2022-08-27T07:04:27Z</time>
      </trkpt>
      <trkpt lat="49.33204" lon="-1.64642">
        <ele>12.2</ele>
        <time>2022-08-27T07:04:28Z</time>
      </trkpt>
      <trkpt lat="49.332" lon="-1.64616">
        <ele>12</ele>
        <time>2022-08-27T07:04:31Z</time>
      </trkpt>
      <trkpt lat="49.33197" lon="-1.64581">
        <ele>12</ele>
        <time>2022-08-27T07:04:35Z</time>
      </trkpt>
      <trkpt lat="49.33196" lon="-1.64572">
        <ele>12</ele>
        <time>2022-08-27T07:04:36Z</time>
      </trkpt>
      <trkpt lat="49.33189" lon="-1.64513">
        <ele>12</ele>
        <time>2022-08-27T07:04:42Z</time>
      </trkpt>
      <trkpt lat="49.33181" lon="-1.64453">
        <ele>11.6</ele>
        <time>2022-08-27T07:04:48Z</time>
      </trkpt>
      <trkpt lat="49.3318" lon="-1.64443">
        <ele>11.6</ele>
        <time>2022-08-27T07:04:49Z</time>
      </trkpt>
      <trkpt lat="49.33171" lon="-1.64383">
        <ele>11.6</ele>
        <time>2022-08-27T07:04:55Z</time>
      </trkpt>
      <trkpt lat="49.33163" lon="-1.6432">
        <ele>12</ele>
        <time>2022-08-27T07:05:01Z</time>
      </trkpt>
      <trkpt lat="49.33159" lon="-1.64298">
        <ele>12</ele>
        <time>2022-08-27T07:05:03Z</time>
      </trkpt>
      <trkpt lat="49.33154" lon="-1.64266">
        <ele>12.2</ele>
        <time>2022-08-27T07:05:06Z</time>
      </trkpt>
      <trkpt lat="49.33141" lon="-1.642">
        <ele>12.6</ele>
        <time>2022-08-27T07:05:12Z</time>
      </trkpt>
      <trkpt lat="49.3313" lon="-1.64149">
        <ele>12.8</ele>
        <time>2022-08-27T07:05:17Z</time>
      </trkpt>
      <trkpt lat="49.33116" lon="-1.64094">
        <ele>13.2</ele>
        <time>2022-08-27T07:05:23Z</time>
      </trkpt>
      <trkpt lat="49.3311" lon="-1.64071">
        <ele>13.4</ele>
        <time>2022-08-27T07:05:27Z</time>
      </trkpt>
      <trkpt lat="49.33109" lon="-1.64066">
        <ele>13.4</ele>
        <time>2022-08-27T07:05:28Z</time>
      </trkpt>
      <trkpt lat="49.33106" lon="-1.64059">
        <ele>13.4</ele>
        <time>2022-08-27T07:05:30Z</time>
      </trkpt>
      <trkpt lat="49.33105" lon="-1.64052">
        <ele>13.2</ele>
        <time>2022-08-27T07:05:32Z</time>
      </trkpt>
      <trkpt lat="49.33106" lon="-1.64046">
        <ele>13.2</ele>
        <time>2022-08-27T07:05:34Z</time>
      </trkpt>
      <trkpt lat="49.33111" lon="-1.6403">
        <ele>13.4</ele>
        <time>2022-08-27T07:05:38Z</time>
      </trkpt>
      <trkpt lat="49.33114" lon="-1.64022">
        <ele>13.4</ele>
        <time>2022-08-27T07:05:40Z</time>
      </trkpt>
      <trkpt lat="49.33117" lon="-1.64015">
        <ele>13.6</ele>
        <time>2022-08-27T07:05:42Z</time>
      </trkpt>
      <trkpt lat="49.33114" lon="-1.63987">
        <ele>13.6</ele>
        <time>2022-08-27T07:05:46Z</time>
      </trkpt>
      <trkpt lat="49.33103" lon="-1.63946">
        <ele>13.8</ele>
        <time>2022-08-27T07:05:52Z</time>
      </trkpt>
      <trkpt lat="49.33099" lon="-1.63932">
        <ele>13.6</ele>
        <time>2022-08-27T07:05:54Z</time>
      </trkpt>
      <trkpt lat="49.33089" lon="-1.63909">
        <ele>13.6</ele>
        <time>2022-08-27T07:05:57Z</time>
      </trkpt>
      <trkpt lat="49.33073" lon="-1.63886">
        <ele>13.4</ele>
        <time>2022-08-27T07:06:01Z</time>
      </trkpt>
      <trkpt lat="49.33055" lon="-1.63861">
        <ele>13</ele>
        <time>2022-08-27T07:06:06Z</time>
      </trkpt>
      <trkpt lat="49.33052" lon="-1.63855">
        <ele>13</ele>
        <time>2022-08-27T07:06:07Z</time>
      </trkpt>
      <trkpt lat="49.33044" lon="-1.63841">
        <ele>13</ele>
        <time>2022-08-27T07:06:09Z</time>
      </trkpt>
      <trkpt lat="49.33039" lon="-1.63836">
        <ele>13</ele>
        <time>2022-08-27T07:06:10Z</time>
      </trkpt>
      <trkpt lat="49.3303" lon="-1.63827">
        <ele>13</ele>
        <time>2022-08-27T07:06:12Z</time>
      </trkpt>
      <trkpt lat="49.33022" lon="-1.63816">
        <ele>13</ele>
        <time>2022-08-27T07:06:14Z</time>
      </trkpt>
      <trkpt lat="49.33002" lon="-1.63768">
        <ele>12.4</ele>
        <time>2022-08-27T07:06:20Z</time>
      </trkpt>
      <trkpt lat="49.32987" lon="-1.63728">
        <ele>12</ele>
        <time>2022-08-27T07:06:25Z</time>
      </trkpt>
      <trkpt lat="49.32983" lon="-1.63721">
        <ele>11.8</ele>
        <time>2022-08-27T07:06:26Z</time>
      </trkpt>
      <trkpt lat="49.3298" lon="-1.63714">
        <ele>11.8</ele>
        <time>2022-08-27T07:06:27Z</time>
      </trkpt>
      <trkpt lat="49.32973" lon="-1.63698">
        <ele>11.2</ele>
        <time>2022-08-27T07:06:30Z</time>
      </trkpt>
      <trkpt lat="49.32961" lon="-1.6367">
        <ele>10.4</ele>
        <time>2022-08-27T07:06:34Z</time>
      </trkpt>
      <trkpt lat="49.32947" lon="-1.63634">
        <ele>9.4</ele>
        <time>2022-08-27T07:06:39Z</time>
      </trkpt>
      <trkpt lat="49.32943" lon="-1.63626">
        <ele>9.2</ele>
        <time>2022-08-27T07:06:40Z</time>
      </trkpt>
      <trkpt lat="49.32933" lon="-1.63599">
        <ele>8.6</ele>
        <time>2022-08-27T07:06:43Z</time>
      </trkpt>
      <trkpt lat="49.32917" lon="-1.63556">
        <ele>8</ele>
        <time>2022-08-27T07:06:48Z</time>
      </trkpt>
      <trkpt lat="49.32908" lon="-1.63535">
        <ele>7.6</ele>
        <time>2022-08-27T07:06:51Z</time>
      </trkpt>
      <trkpt lat="49.32905" lon="-1.63526">
        <ele>7.4</ele>
        <time>2022-08-27T07:06:52Z</time>
      </trkpt>
      <trkpt lat="49.32887" lon="-1.6348">
        <ele>6.8</ele>
        <time>2022-08-27T07:06:57Z</time>
      </trkpt>
      <trkpt lat="49.32866" lon="-1.63426">
        <ele>6.4</ele>
        <time>2022-08-27T07:07:03Z</time>
      </trkpt>
      <trkpt lat="49.32852" lon="-1.63389">
        <ele>6.2</ele>
        <time>2022-08-27T07:07:07Z</time>
      </trkpt>
      <trkpt lat="49.32829" lon="-1.63332">
        <ele>6.6</ele>
        <time>2022-08-27T07:07:13Z</time>
      </trkpt>
      <trkpt lat="49.32817" lon="-1.63297">
        <ele>5.8</ele>
        <time>2022-08-27T07:07:17Z</time>
      </trkpt>
      <trkpt lat="49.3281" lon="-1.63282">
        <ele>6.4</ele>
        <time>2022-08-27T07:07:19Z</time>
      </trkpt>
      <trkpt lat="49.32793" lon="-1.63236">
        <ele>7.4</ele>
        <time>2022-08-27T07:07:24Z</time>
      </trkpt>
      <trkpt lat="49.3277" lon="-1.63176">
        <ele>7</ele>
        <time>2022-08-27T07:07:31Z</time>
      </trkpt>
      <trkpt lat="49.32753" lon="-1.63134">
        <ele>7.2</ele>
        <time>2022-08-27T07:07:36Z</time>
      </trkpt>
      <trkpt lat="49.32735" lon="-1.63085">
        <ele>7.4</ele>
        <time>2022-08-27T07:07:42Z</time>
      </trkpt>
      <trkpt lat="49.32722" lon="-1.63051">
        <ele>7.6</ele>
        <time>2022-08-27T07:07:47Z</time>
      </trkpt>
      <trkpt lat="49.32717" lon="-1.63038">
        <ele>7.8</ele>
        <time>2022-08-27T07:07:49Z</time>
      </trkpt>
      <trkpt lat="49.32715" lon="-1.63034">
        <ele>8</ele>
        <time>2022-08-27T07:07:50Z</time>
      </trkpt>
      <trkpt lat="49.32712" lon="-1.63027">
        <ele>8</ele>
        <time>2022-08-27T07:07:51Z</time>
      </trkpt>
      <trkpt lat="49.32708" lon="-1.63014">
        <ele>8.2</ele>
        <time>2022-08-27T07:07:53Z</time>
      </trkpt>
      <trkpt lat="49.32698" lon="-1.62991">
        <ele>8.4</ele>
        <time>2022-08-27T07:07:57Z</time>
      </trkpt>
      <trkpt lat="49.32693" lon="-1.62979">
        <ele>8.4</ele>
        <time>2022-08-27T07:07:59Z</time>
      </trkpt>
      <trkpt lat="49.32688" lon="-1.62968">
        <ele>8.4</ele>
        <time>2022-08-27T07:08:01Z</time>
      </trkpt>
      <trkpt lat="49.32685" lon="-1.62961">
        <ele>8.4</ele>
        <time>2022-08-27T07:08:02Z</time>
      </trkpt>
      <trkpt lat="49.32667" lon="-1.62915">
        <ele>8.2</ele>
        <time>2022-08-27T07:08:08Z</time>
      </trkpt>
      <trkpt lat="49.3265" lon="-1.62871">
        <ele>8.2</ele>
        <time>2022-08-27T07:08:14Z</time>
      </trkpt>
      <trkpt lat="49.32635" lon="-1.62834">
        <ele>7.6</ele>
        <time>2022-08-27T07:08:19Z</time>
      </trkpt>
      <trkpt lat="49.32619" lon="-1.62794">
        <ele>7.4</ele>
        <time>2022-08-27T07:08:24Z</time>
      </trkpt>
      <trkpt lat="49.32603" lon="-1.62752">
        <ele>7</ele>
        <time>2022-08-27T07:08:29Z</time>
      </trkpt>
      <trkpt lat="49.32587" lon="-1.62709">
        <ele>6.8</ele>
        <time>2022-08-27T07:08:34Z</time>
      </trkpt>
      <trkpt lat="49.3257" lon="-1.62666">
        <ele>6.4</ele>
        <time>2022-08-27T07:08:39Z</time>
      </trkpt>
      <trkpt lat="49.32549" lon="-1.62612">
        <ele>6.4</ele>
        <time>2022-08-27T07:08:45Z</time>
      </trkpt>
      <trkpt lat="49.32535" lon="-1.62578">
        <ele>6.4</ele>
        <time>2022-08-27T07:08:49Z</time>
      </trkpt>
      <trkpt lat="49.32515" lon="-1.62526">
        <ele>6.2</ele>
        <time>2022-08-27T07:08:55Z</time>
      </trkpt>
      <trkpt lat="49.32511" lon="-1.62517">
        <ele>6.2</ele>
        <time>2022-08-27T07:08:56Z</time>
      </trkpt>
      <trkpt lat="49.32485" lon="-1.62445">
        <ele>6.2</ele>
        <time>2022-08-27T07:09:04Z</time>
      </trkpt>
      <trkpt lat="49.32464" lon="-1.62394">
        <ele>6.2</ele>
        <time>2022-08-27T07:09:10Z</time>
      </trkpt>
      <trkpt lat="49.32447" lon="-1.62351">
        <ele>6.4</ele>
        <time>2022-08-27T07:09:15Z</time>
      </trkpt>
      <trkpt lat="49.3243" lon="-1.62306">
        <ele>6.8</ele>
        <time>2022-08-27T07:09:20Z</time>
      </trkpt>
      <trkpt lat="49.32409" lon="-1.62255">
        <ele>7</ele>
        <time>2022-08-27T07:09:26Z</time>
      </trkpt>
      <trkpt lat="49.32389" lon="-1.62203">
        <ele>7.2</ele>
        <time>2022-08-27T07:09:32Z</time>
      </trkpt>
      <trkpt lat="49.32369" lon="-1.62151">
        <ele>7.4</ele>
        <time>2022-08-27T07:09:38Z</time>
      </trkpt>
      <trkpt lat="49.32349" lon="-1.62099">
        <ele>7.6</ele>
        <time>2022-08-27T07:09:44Z</time>
      </trkpt>
      <trkpt lat="49.32321" lon="-1.6203">
        <ele>8</ele>
        <time>2022-08-27T07:09:52Z</time>
      </trkpt>
      <trkpt lat="49.32314" lon="-1.62013">
        <ele>8</ele>
        <time>2022-08-27T07:09:54Z</time>
      </trkpt>
      <trkpt lat="49.32308" lon="-1.61995">
        <ele>8</ele>
        <time>2022-08-27T07:09:56Z</time>
      </trkpt>
      <trkpt lat="49.32294" lon="-1.61959">
        <ele>8</ele>
        <time>2022-08-27T07:10:00Z</time>
      </trkpt>
      <trkpt lat="49.32288" lon="-1.61942">
        <ele>8.2</ele>
        <time>2022-08-27T07:10:02Z</time>
      </trkpt>
      <trkpt lat="49.32275" lon="-1.6191">
        <ele>8.4</ele>
        <time>2022-08-27T07:10:06Z</time>
      </trkpt>
      <trkpt lat="49.32253" lon="-1.61856">
        <ele>8.4</ele>
        <time>2022-08-27T07:10:12Z</time>
      </trkpt>
      <trkpt lat="49.32236" lon="-1.61811">
        <ele>8.4</ele>
        <time>2022-08-27T07:10:17Z</time>
      </trkpt>
      <trkpt lat="49.32214" lon="-1.61757">
        <ele>8.6</ele>
        <time>2022-08-27T07:10:23Z</time>
      </trkpt>
      <trkpt lat="49.32201" lon="-1.61721">
        <ele>8.4</ele>
        <time>2022-08-27T07:10:27Z</time>
      </trkpt>
      <trkpt lat="49.32183" lon="-1.61676">
        <ele>8.2</ele>
        <time>2022-08-27T07:10:32Z</time>
      </trkpt>
      <trkpt lat="49.32165" lon="-1.61631">
        <ele>8.2</ele>
        <time>2022-08-27T07:10:37Z</time>
      </trkpt>
      <trkpt lat="49.32151" lon="-1.61596">
        <ele>8.4</ele>
        <time>2022-08-27T07:10:41Z</time>
      </trkpt>
      <trkpt lat="49.32133" lon="-1.61551">
        <ele>8.4</ele>
        <time>2022-08-27T07:10:46Z</time>
      </trkpt>
      <trkpt lat="49.32122" lon="-1.61524">
        <ele>8.2</ele>
        <time>2022-08-27T07:10:49Z</time>
      </trkpt>
      <trkpt lat="49.32116" lon="-1.61506">
        <ele>8.2</ele>
        <time>2022-08-27T07:10:51Z</time>
      </trkpt>
      <trkpt lat="49.32094" lon="-1.61443">
        <ele>8.4</ele>
        <time>2022-08-27T07:10:58Z</time>
      </trkpt>
      <trkpt lat="49.32083" lon="-1.6141">
        <ele>8.6</ele>
        <time>2022-08-27T07:11:02Z</time>
      </trkpt>
      <trkpt lat="49.3208" lon="-1.61402">
        <ele>8.4</ele>
        <time>2022-08-27T07:11:03Z</time>
      </trkpt>
      <trkpt lat="49.32072" lon="-1.61378">
        <ele>8.2</ele>
        <time>2022-08-27T07:11:06Z</time>
      </trkpt>
      <trkpt lat="49.32066" lon="-1.61361">
        <ele>8.2</ele>
        <time>2022-08-27T07:11:08Z</time>
      </trkpt>
      <trkpt lat="49.32061" lon="-1.61343">
        <ele>8.2</ele>
        <time>2022-08-27T07:11:10Z</time>
      </trkpt>
      <trkpt lat="49.32048" lon="-1.61296">
        <ele>8</ele>
        <time>2022-08-27T07:11:15Z</time>
      </trkpt>
      <trkpt lat="49.32034" lon="-1.61252">
        <ele>8</ele>
        <time>2022-08-27T07:11:20Z</time>
      </trkpt>
      <trkpt lat="49.32032" lon="-1.61243">
        <ele>8</ele>
        <time>2022-08-27T07:11:21Z</time>
      </trkpt>
      <trkpt lat="49.32013" lon="-1.61181">
        <ele>8.4</ele>
        <time>2022-08-27T07:11:28Z</time>
      </trkpt>
      <trkpt lat="49.32001" lon="-1.6114">
        <ele>8.4</ele>
        <time>2022-08-27T07:11:33Z</time>
      </trkpt>
      <trkpt lat="49.31987" lon="-1.61092">
        <ele>8.4</ele>
        <time>2022-08-27T07:11:39Z</time>
      </trkpt>
      <trkpt lat="49.31972" lon="-1.61043">
        <ele>8.6</ele>
        <time>2022-08-27T07:11:45Z</time>
      </trkpt>
      <trkpt lat="49.31954" lon="-1.60985">
        <ele>9</ele>
        <time>2022-08-27T07:11:52Z</time>
      </trkpt>
      <trkpt lat="49.31948" lon="-1.60963">
        <ele>9</ele>
        <time>2022-08-27T07:11:55Z</time>
      </trkpt>
      <trkpt lat="49.31932" lon="-1.60909">
        <ele>9</ele>
        <time>2022-08-27T07:12:02Z</time>
      </trkpt>
      <trkpt lat="49.31929" lon="-1.60901">
        <ele>9.2</ele>
        <time>2022-08-27T07:12:03Z</time>
      </trkpt>
      <trkpt lat="49.31921" lon="-1.60871">
        <ele>9.2</ele>
        <time>2022-08-27T07:12:07Z</time>
      </trkpt>
      <trkpt lat="49.3191" lon="-1.60835">
        <ele>9.2</ele>
        <time>2022-08-27T07:12:12Z</time>
      </trkpt>
      <trkpt lat="49.31891" lon="-1.6077">
        <ele>9.6</ele>
        <time>2022-08-27T07:12:20Z</time>
      </trkpt>
      <trkpt lat="49.31878" lon="-1.60725">
        <ele>10</ele>
        <time>2022-08-27T07:12:25Z</time>
      </trkpt>
      <trkpt lat="49.31859" lon="-1.60665">
        <ele>10.4</ele>
        <time>2022-08-27T07:12:32Z</time>
      </trkpt>
      <trkpt lat="49.31852" lon="-1.60639">
        <ele>10.6</ele>
        <time>2022-08-27T07:12:35Z</time>
      </trkpt>
      <trkpt lat="49.31846" lon="-1.60622">
        <ele>11</ele>
        <time>2022-08-27T07:12:37Z</time>
      </trkpt>
      <trkpt lat="49.3184" lon="-1.60606">
        <ele>11.2</ele>
        <time>2022-08-27T07:12:39Z</time>
      </trkpt>
      <trkpt lat="49.31835" lon="-1.60589">
        <ele>11.4</ele>
        <time>2022-08-27T07:12:41Z</time>
      </trkpt>
      <trkpt lat="49.31823" lon="-1.60547">
        <ele>11.8</ele>
        <time>2022-08-27T07:12:47Z</time>
      </trkpt>
      <trkpt lat="49.31822" lon="-1.60541">
        <ele>12</ele>
        <time>2022-08-27T07:12:48Z</time>
      </trkpt>
      <trkpt lat="49.31818" lon="-1.60524">
        <ele>12</ele>
        <time>2022-08-27T07:12:51Z</time>
      </trkpt>
      <trkpt lat="49.31811" lon="-1.60507">
        <ele>12.2</ele>
        <time>2022-08-27T07:12:55Z</time>
      </trkpt>
      <trkpt lat="49.31809" lon="-1.60498">
        <ele>12.4</ele>
        <time>2022-08-27T07:12:57Z</time>
      </trkpt>
      <trkpt lat="49.31805" lon="-1.6049">
        <ele>12.4</ele>
        <time>2022-08-27T07:12:59Z</time>
      </trkpt>
      <trkpt lat="49.31798" lon="-1.60469">
        <ele>12.6</ele>
        <time>2022-08-27T07:13:03Z</time>
      </trkpt>
      <trkpt lat="49.31795" lon="-1.60451">
        <ele>12.8</ele>
        <time>2022-08-27T07:13:05Z</time>
      </trkpt>
      <trkpt lat="49.3179" lon="-1.60437">
        <ele>12.6</ele>
        <time>2022-08-27T07:13:07Z</time>
      </trkpt>
      <trkpt lat="49.31778" lon="-1.60399">
        <ele>12.6</ele>
        <time>2022-08-27T07:13:12Z</time>
      </trkpt>
      <trkpt lat="49.31765" lon="-1.60353">
        <ele>12.2</ele>
        <time>2022-08-27T07:13:18Z</time>
      </trkpt>
      <trkpt lat="49.31763" lon="-1.60344">
        <ele>11.8</ele>
        <time>2022-08-27T07:13:19Z</time>
      </trkpt>
      <trkpt lat="49.31759" lon="-1.60328">
        <ele>12.2</ele>
        <time>2022-08-27T07:13:21Z</time>
      </trkpt>
      <trkpt lat="49.31753" lon="-1.60311">
        <ele>12</ele>
        <time>2022-08-27T07:13:23Z</time>
      </trkpt>
      <trkpt lat="49.31741" lon="-1.6027">
        <ele>11.8</ele>
        <time>2022-08-27T07:13:28Z</time>
      </trkpt>
      <trkpt lat="49.31731" lon="-1.60234">
        <ele>11.6</ele>
        <time>2022-08-27T07:13:33Z</time>
      </trkpt>
      <trkpt lat="49.3172" lon="-1.60198">
        <ele>11.6</ele>
        <time>2022-08-27T07:13:37Z</time>
      </trkpt>
      <trkpt lat="49.31717" lon="-1.60189">
        <ele>11.6</ele>
        <time>2022-08-27T07:13:38Z</time>
      </trkpt>
      <trkpt lat="49.31709" lon="-1.60162">
        <ele>11.8</ele>
        <time>2022-08-27T07:13:41Z</time>
      </trkpt>
      <trkpt lat="49.31694" lon="-1.6011">
        <ele>11.4</ele>
        <time>2022-08-27T07:13:47Z</time>
      </trkpt>
      <trkpt lat="49.31681" lon="-1.60067">
        <ele>12</ele>
        <time>2022-08-27T07:13:52Z</time>
      </trkpt>
      <trkpt lat="49.31676" lon="-1.60052">
        <ele>12</ele>
        <time>2022-08-27T07:13:54Z</time>
      </trkpt>
      <trkpt lat="49.31671" lon="-1.60036">
        <ele>12.2</ele>
        <time>2022-08-27T07:13:56Z</time>
      </trkpt>
      <trkpt lat="49.31665" lon="-1.60013">
        <ele>12.2</ele>
        <time>2022-08-27T07:13:59Z</time>
      </trkpt>
      <trkpt lat="49.31661" lon="-1.60004">
        <ele>12.2</ele>
        <time>2022-08-27T07:14:00Z</time>
      </trkpt>
      <trkpt lat="49.31653" lon="-1.59977">
        <ele>12.2</ele>
        <time>2022-08-27T07:14:03Z</time>
      </trkpt>
      <trkpt lat="49.31636" lon="-1.59922">
        <ele>12.4</ele>
        <time>2022-08-27T07:14:09Z</time>
      </trkpt>
      <trkpt lat="49.31623" lon="-1.59883">
        <ele>12.8</ele>
        <time>2022-08-27T07:14:14Z</time>
      </trkpt>
      <trkpt lat="49.31609" lon="-1.5984">
        <ele>13</ele>
        <time>2022-08-27T07:14:19Z</time>
      </trkpt>
      <trkpt lat="49.31606" lon="-1.59831">
        <ele>13</ele>
        <time>2022-08-27T07:14:20Z</time>
      </trkpt>
      <trkpt lat="49.31596" lon="-1.59806">
        <ele>13.4</ele>
        <time>2022-08-27T07:14:23Z</time>
      </trkpt>
      <trkpt lat="49.31583" lon="-1.59772">
        <ele>13.6</ele>
        <time>2022-08-27T07:14:27Z</time>
      </trkpt>
      <trkpt lat="49.3157" lon="-1.59735">
        <ele>14.2</ele>
        <time>2022-08-27T07:14:31Z</time>
      </trkpt>
      <trkpt lat="49.31555" lon="-1.59697">
        <ele>14.6</ele>
        <time>2022-08-27T07:14:35Z</time>
      </trkpt>
      <trkpt lat="49.31552" lon="-1.59688">
        <ele>14.8</ele>
        <time>2022-08-27T07:14:36Z</time>
      </trkpt>
      <trkpt lat="49.31522" lon="-1.59616">
        <ele>15.6</ele>
        <time>2022-08-27T07:14:44Z</time>
      </trkpt>
      <trkpt lat="49.31503" lon="-1.59574">
        <ele>16</ele>
        <time>2022-08-27T07:14:49Z</time>
      </trkpt>
      <trkpt lat="49.31485" lon="-1.59533">
        <ele>16.6</ele>
        <time>2022-08-27T07:14:54Z</time>
      </trkpt>
      <trkpt lat="49.31465" lon="-1.59484">
        <ele>16.8</ele>
        <time>2022-08-27T07:15:00Z</time>
      </trkpt>
      <trkpt lat="49.31458" lon="-1.59467">
        <ele>17</ele>
        <time>2022-08-27T07:15:02Z</time>
      </trkpt>
      <trkpt lat="49.31448" lon="-1.59445">
        <ele>17.2</ele>
        <time>2022-08-27T07:15:05Z</time>
      </trkpt>
      <trkpt lat="49.31439" lon="-1.59424">
        <ele>17.6</ele>
        <time>2022-08-27T07:15:08Z</time>
      </trkpt>
      <trkpt lat="49.31438" lon="-1.59418">
        <ele>17.6</ele>
        <time>2022-08-27T07:15:09Z</time>
      </trkpt>
      <trkpt lat="49.31429" lon="-1.594">
        <ele>17.8</ele>
        <time>2022-08-27T07:15:13Z</time>
      </trkpt>
      <trkpt lat="49.31423" lon="-1.59386">
        <ele>18</ele>
        <time>2022-08-27T07:15:17Z</time>
      </trkpt>
      <trkpt lat="49.31419" lon="-1.59371">
        <ele>18.4</ele>
        <time>2022-08-27T07:15:20Z</time>
      </trkpt>
      <trkpt lat="49.31413" lon="-1.59362">
        <ele>18.8</ele>
        <time>2022-08-27T07:15:22Z</time>
      </trkpt>
      <trkpt lat="49.31406" lon="-1.59349">
        <ele>19</ele>
        <time>2022-08-27T07:15:24Z</time>
      </trkpt>
      <trkpt lat="49.31395" lon="-1.59324">
        <ele>19.2</ele>
        <time>2022-08-27T07:15:28Z</time>
      </trkpt>
      <trkpt lat="49.31377" lon="-1.59286">
        <ele>19.4</ele>
        <time>2022-08-27T07:15:34Z</time>
      </trkpt>
      <trkpt lat="49.31356" lon="-1.59237">
        <ele>19.8</ele>
        <time>2022-08-27T07:15:41Z</time>
      </trkpt>
      <trkpt lat="49.31338" lon="-1.59194">
        <ele>20.2</ele>
        <time>2022-08-27T07:15:47Z</time>
      </trkpt>
      <trkpt lat="49.31316" lon="-1.59141">
        <ele>21.2</ele>
        <time>2022-08-27T07:15:54Z</time>
      </trkpt>
      <trkpt lat="49.31295" lon="-1.59087">
        <ele>22.2</ele>
        <time>2022-08-27T07:16:01Z</time>
      </trkpt>
      <trkpt lat="49.31277" lon="-1.59041">
        <ele>22.8</ele>
        <time>2022-08-27T07:16:07Z</time>
      </trkpt>
      <trkpt lat="49.31257" lon="-1.58987">
        <ele>23.8</ele>
        <time>2022-08-27T07:16:14Z</time>
      </trkpt>
      <trkpt lat="49.31238" lon="-1.58933">
        <ele>24.8</ele>
        <time>2022-08-27T07:16:21Z</time>
      </trkpt>
      <trkpt lat="49.31218" lon="-1.58883">
        <ele>25.4</ele>
        <time>2022-08-27T07:16:28Z</time>
      </trkpt>
      <trkpt lat="49.31202" lon="-1.58837">
        <ele>26.2</ele>
        <time>2022-08-27T07:16:34Z</time>
      </trkpt>
      <trkpt lat="49.31182" lon="-1.58783">
        <ele>27.4</ele>
        <time>2022-08-27T07:16:41Z</time>
      </trkpt>
      <trkpt lat="49.31161" lon="-1.58727">
        <ele>28.4</ele>
        <time>2022-08-27T07:16:48Z</time>
      </trkpt>
      <trkpt lat="49.31141" lon="-1.58671">
        <ele>29.6</ele>
        <time>2022-08-27T07:16:55Z</time>
      </trkpt>
      <trkpt lat="49.31125" lon="-1.58625">
        <ele>30.4</ele>
        <time>2022-08-27T07:17:01Z</time>
      </trkpt>
      <trkpt lat="49.31112" lon="-1.58599">
        <ele>31</ele>
        <time>2022-08-27T07:17:06Z</time>
      </trkpt>
      <trkpt lat="49.31111" lon="-1.58597">
        <ele>31</ele>
        <time>2022-08-27T07:17:07Z</time>
      </trkpt>
      <trkpt lat="49.31108" lon="-1.58587">
        <ele>31</ele>
        <time>2022-08-27T07:17:10Z</time>
      </trkpt>
      <trkpt lat="49.31102" lon="-1.58567">
        <ele>30.8</ele>
        <time>2022-08-27T07:17:13Z</time>
      </trkpt>
      <trkpt lat="49.31093" lon="-1.58545">
        <ele>30.8</ele>
        <time>2022-08-27T07:17:16Z</time>
      </trkpt>
      <trkpt lat="49.3109" lon="-1.58538">
        <ele>30.8</ele>
        <time>2022-08-27T07:17:17Z</time>
      </trkpt>
      <trkpt lat="49.31084" lon="-1.58522">
        <ele>30.8</ele>
        <time>2022-08-27T07:17:19Z</time>
      </trkpt>
      <trkpt lat="49.31077" lon="-1.58504">
        <ele>30.8</ele>
        <time>2022-08-27T07:17:21Z</time>
      </trkpt>
      <trkpt lat="49.31065" lon="-1.58471">
        <ele>31</ele>
        <time>2022-08-27T07:17:25Z</time>
      </trkpt>
      <trkpt lat="49.31049" lon="-1.58429">
        <ele>31.2</ele>
        <time>2022-08-27T07:17:30Z</time>
      </trkpt>
      <trkpt lat="49.31026" lon="-1.58364">
        <ele>31.2</ele>
        <time>2022-08-27T07:17:37Z</time>
      </trkpt>
      <trkpt lat="49.31006" lon="-1.58308">
        <ele>31.2</ele>
        <time>2022-08-27T07:17:43Z</time>
      </trkpt>
      <trkpt lat="49.30985" lon="-1.58252">
        <ele>30.8</ele>
        <time>2022-08-27T07:17:49Z</time>
      </trkpt>
      <trkpt lat="49.30968" lon="-1.58207">
        <ele>30.4</ele>
        <time>2022-08-27T07:17:54Z</time>
      </trkpt>
      <trkpt lat="49.30954" lon="-1.58172">
        <ele>30</ele>
        <time>2022-08-27T07:17:58Z</time>
      </trkpt>
      <trkpt lat="49.30939" lon="-1.5813">
        <ele>29.6</ele>
        <time>2022-08-27T07:18:02Z</time>
      </trkpt>
      <trkpt lat="49.30921" lon="-1.5808">
        <ele>29.2</ele>
        <time>2022-08-27T07:18:07Z</time>
      </trkpt>
      <trkpt lat="49.30903" lon="-1.5803">
        <ele>29</ele>
        <time>2022-08-27T07:18:12Z</time>
      </trkpt>
      <trkpt lat="49.30884" lon="-1.5798">
        <ele>28.6</ele>
        <time>2022-08-27T07:18:17Z</time>
      </trkpt>
      <trkpt lat="49.30865" lon="-1.57928">
        <ele>28.2</ele>
        <time>2022-08-27T07:18:22Z</time>
      </trkpt>
      <trkpt lat="49.30858" lon="-1.57907">
        <ele>28.2</ele>
        <time>2022-08-27T07:18:24Z</time>
      </trkpt>
      <trkpt lat="49.30848" lon="-1.57876">
        <ele>28</ele>
        <time>2022-08-27T07:18:27Z</time>
      </trkpt>
      <trkpt lat="49.3083" lon="-1.57826">
        <ele>27.8</ele>
        <time>2022-08-27T07:18:32Z</time>
      </trkpt>
      <trkpt lat="49.30808" lon="-1.57772">
        <ele>27.6</ele>
        <time>2022-08-27T07:18:38Z</time>
      </trkpt>
      <trkpt lat="49.30792" lon="-1.57737">
        <ele>27.6</ele>
        <time>2022-08-27T07:18:42Z</time>
      </trkpt>
      <trkpt lat="49.30784" lon="-1.57719">
        <ele>27.6</ele>
        <time>2022-08-27T07:18:44Z</time>
      </trkpt>
      <trkpt lat="49.30772" lon="-1.57694">
        <ele>27.4</ele>
        <time>2022-08-27T07:18:47Z</time>
      </trkpt>
      <trkpt lat="49.3075" lon="-1.5765">
        <ele>27.4</ele>
        <time>2022-08-27T07:18:52Z</time>
      </trkpt>
      <trkpt lat="49.30728" lon="-1.57606">
        <ele>27.2</ele>
        <time>2022-08-27T07:18:57Z</time>
      </trkpt>
      <trkpt lat="49.30692" lon="-1.57546">
        <ele>27.8</ele>
        <time>2022-08-27T07:19:04Z</time>
      </trkpt>
      <trkpt lat="49.30675" lon="-1.5752">
        <ele>27.8</ele>
        <time>2022-08-27T07:19:07Z</time>
      </trkpt>
      <trkpt lat="49.30664" lon="-1.57502">
        <ele>27.4</ele>
        <time>2022-08-27T07:19:09Z</time>
      </trkpt>
      <trkpt lat="49.30649" lon="-1.57479">
        <ele>27.2</ele>
        <time>2022-08-27T07:19:13Z</time>
      </trkpt>
      <trkpt lat="49.30642" lon="-1.5747">
        <ele>27</ele>
        <time>2022-08-27T07:19:16Z</time>
      </trkpt>
      <trkpt lat="49.3063" lon="-1.57456">
        <ele>26.4</ele>
        <time>2022-08-27T07:19:19Z</time>
      </trkpt>
      <trkpt lat="49.30624" lon="-1.57441">
        <ele>26</ele>
        <time>2022-08-27T07:19:21Z</time>
      </trkpt>
      <trkpt lat="49.30622" lon="-1.57436">
        <ele>26</ele>
        <time>2022-08-27T07:19:22Z</time>
      </trkpt>
      <trkpt lat="49.30615" lon="-1.57425">
        <ele>25.4</ele>
        <time>2022-08-27T07:19:27Z</time>
      </trkpt>
      <trkpt lat="49.30604" lon="-1.57413">
        <ele>25.2</ele>
        <time>2022-08-27T07:19:31Z</time>
      </trkpt>
      <trkpt lat="49.30592" lon="-1.57396">
        <ele>25</ele>
        <time>2022-08-27T07:19:34Z</time>
      </trkpt>
      <trkpt lat="49.30584" lon="-1.5738">
        <ele>24.8</ele>
        <time>2022-08-27T07:19:36Z</time>
      </trkpt>
      <trkpt lat="49.30576" lon="-1.57365">
        <ele>24.6</ele>
        <time>2022-08-27T07:19:38Z</time>
      </trkpt>
      <trkpt lat="49.30568" lon="-1.57354">
        <ele>24.4</ele>
        <time>2022-08-27T07:19:40Z</time>
      </trkpt>
      <trkpt lat="49.30564" lon="-1.57348">
        <ele>24.4</ele>
        <time>2022-08-27T07:19:41Z</time>
      </trkpt>
      <trkpt lat="49.30543" lon="-1.57313">
        <ele>23.8</ele>
        <time>2022-08-27T07:19:46Z</time>
      </trkpt>
      <trkpt lat="49.30509" lon="-1.57259">
        <ele>23.4</ele>
        <time>2022-08-27T07:19:53Z</time>
      </trkpt>
      <trkpt lat="49.30481" lon="-1.57213">
        <ele>23</ele>
        <time>2022-08-27T07:19:59Z</time>
      </trkpt>
      <trkpt lat="49.30471" lon="-1.57198">
        <ele>23</ele>
        <time>2022-08-27T07:20:01Z</time>
      </trkpt>
      <trkpt lat="49.30457" lon="-1.57177">
        <ele>22.6</ele>
        <time>2022-08-27T07:20:04Z</time>
      </trkpt>
      <trkpt lat="49.30439" lon="-1.57147">
        <ele>22.4</ele>
        <time>2022-08-27T07:20:08Z</time>
      </trkpt>
      <trkpt lat="49.30409" lon="-1.571">
        <ele>22.4</ele>
        <time>2022-08-27T07:20:14Z</time>
      </trkpt>
      <trkpt lat="49.30385" lon="-1.57061">
        <ele>22.4</ele>
        <time>2022-08-27T07:20:19Z</time>
      </trkpt>
      <trkpt lat="49.30362" lon="-1.57026">
        <ele>22.4</ele>
        <time>2022-08-27T07:20:24Z</time>
      </trkpt>
      <trkpt lat="49.30336" lon="-1.56982">
        <ele>22.4</ele>
        <time>2022-08-27T07:20:30Z</time>
      </trkpt>
      <trkpt lat="49.30326" lon="-1.56967">
        <ele>22.4</ele>
        <time>2022-08-27T07:20:32Z</time>
      </trkpt>
      <trkpt lat="49.30322" lon="-1.56961">
        <ele>22.4</ele>
        <time>2022-08-27T07:20:33Z</time>
      </trkpt>
      <trkpt lat="49.30295" lon="-1.5692">
        <ele>22.8</ele>
        <time>2022-08-27T07:20:39Z</time>
      </trkpt>
      <trkpt lat="49.3029" lon="-1.56913">
        <ele>23</ele>
        <time>2022-08-27T07:20:40Z</time>
      </trkpt>
      <trkpt lat="49.30272" lon="-1.56883">
        <ele>23.2</ele>
        <time>2022-08-27T07:20:44Z</time>
      </trkpt>
      <trkpt lat="49.30242" lon="-1.56831">
        <ele>23.4</ele>
        <time>2022-08-27T07:20:51Z</time>
      </trkpt>
      <trkpt lat="49.30239" lon="-1.56823">
        <ele>23.4</ele>
        <time>2022-08-27T07:20:52Z</time>
      </trkpt>
      <trkpt lat="49.30237" lon="-1.56816">
        <ele>23.4</ele>
        <time>2022-08-27T07:20:53Z</time>
      </trkpt>
      <trkpt lat="49.30231" lon="-1.56808">
        <ele>23.6</ele>
        <time>2022-08-27T07:20:55Z</time>
      </trkpt>
      <trkpt lat="49.30225" lon="-1.56801">
        <ele>23.6</ele>
        <time>2022-08-27T07:20:59Z</time>
      </trkpt>
      <trkpt lat="49.30216" lon="-1.56785">
        <ele>23.6</ele>
        <time>2022-08-27T07:21:03Z</time>
      </trkpt>
      <trkpt lat="49.30209" lon="-1.56767">
        <ele>23.8</ele>
        <time>2022-08-27T07:21:06Z</time>
      </trkpt>
      <trkpt lat="49.30203" lon="-1.56755">
        <ele>23.8</ele>
        <time>2022-08-27T07:21:08Z</time>
      </trkpt>
      <trkpt lat="49.30174" lon="-1.56703">
        <ele>24</ele>
        <time>2022-08-27T07:21:16Z</time>
      </trkpt>
      <trkpt lat="49.30152" lon="-1.5666">
        <ele>24.4</ele>
        <time>2022-08-27T07:21:22Z</time>
      </trkpt>
      <trkpt lat="49.30132" lon="-1.56615">
        <ele>24.6</ele>
        <time>2022-08-27T07:21:28Z</time>
      </trkpt>
      <trkpt lat="49.30129" lon="-1.56607">
        <ele>24.6</ele>
        <time>2022-08-27T07:21:29Z</time>
      </trkpt>
      <trkpt lat="49.30114" lon="-1.56578">
        <ele>24.6</ele>
        <time>2022-08-27T07:21:33Z</time>
      </trkpt>
      <trkpt lat="49.30097" lon="-1.5654">
        <ele>24.8</ele>
        <time>2022-08-27T07:21:38Z</time>
      </trkpt>
      <trkpt lat="49.3009" lon="-1.56525">
        <ele>24.8</ele>
        <time>2022-08-27T07:21:40Z</time>
      </trkpt>
      <trkpt lat="49.3008" lon="-1.56501">
        <ele>24.8</ele>
        <time>2022-08-27T07:21:43Z</time>
      </trkpt>
      <trkpt lat="49.30073" lon="-1.56486">
        <ele>24.8</ele>
        <time>2022-08-27T07:21:45Z</time>
      </trkpt>
      <trkpt lat="49.3006" lon="-1.56455">
        <ele>24.8</ele>
        <time>2022-08-27T07:21:49Z</time>
      </trkpt>
      <trkpt lat="49.30054" lon="-1.56439">
        <ele>24.8</ele>
        <time>2022-08-27T07:21:51Z</time>
      </trkpt>
      <trkpt lat="49.30045" lon="-1.56415">
        <ele>24.8</ele>
        <time>2022-08-27T07:21:54Z</time>
      </trkpt>
      <trkpt lat="49.30039" lon="-1.56399">
        <ele>24.8</ele>
        <time>2022-08-27T07:21:56Z</time>
      </trkpt>
      <trkpt lat="49.30036" lon="-1.5639">
        <ele>24.8</ele>
        <time>2022-08-27T07:21:57Z</time>
      </trkpt>
      <trkpt lat="49.30023" lon="-1.56358">
        <ele>25</ele>
        <time>2022-08-27T07:22:01Z</time>
      </trkpt>
      <trkpt lat="49.30005" lon="-1.56302">
        <ele>25</ele>
        <time>2022-08-27T07:22:08Z</time>
      </trkpt>
      <trkpt lat="49.29996" lon="-1.5627">
        <ele>25.2</ele>
        <time>2022-08-27T07:22:12Z</time>
      </trkpt>
      <trkpt lat="49.2999" lon="-1.56256">
        <ele>25.2</ele>
        <time>2022-08-27T07:22:14Z</time>
      </trkpt>
      <trkpt lat="49.29985" lon="-1.56242">
        <ele>25.2</ele>
        <time>2022-08-27T07:22:16Z</time>
      </trkpt>
      <trkpt lat="49.29982" lon="-1.5623">
        <ele>25.2</ele>
        <time>2022-08-27T07:22:18Z</time>
      </trkpt>
      <trkpt lat="49.29978" lon="-1.56209">
        <ele>25</ele>
        <time>2022-08-27T07:22:22Z</time>
      </trkpt>
      <trkpt lat="49.29973" lon="-1.56186">
        <ele>25</ele>
        <time>2022-08-27T07:22:26Z</time>
      </trkpt>
      <trkpt lat="49.29957" lon="-1.56137">
        <ele>25</ele>
        <time>2022-08-27T07:22:33Z</time>
      </trkpt>
      <trkpt lat="49.2995" lon="-1.56107">
        <ele>24.8</ele>
        <time>2022-08-27T07:22:37Z</time>
      </trkpt>
      <trkpt lat="49.29945" lon="-1.56093">
        <ele>24.8</ele>
        <time>2022-08-27T07:22:39Z</time>
      </trkpt>
      <trkpt lat="49.29933" lon="-1.56046">
        <ele>24.8</ele>
        <time>2022-08-27T07:22:46Z</time>
      </trkpt>
      <trkpt lat="49.29922" lon="-1.56005">
        <ele>25.2</ele>
        <time>2022-08-27T07:22:52Z</time>
      </trkpt>
      <trkpt lat="49.2992" lon="-1.55998">
        <ele>25.2</ele>
        <time>2022-08-27T07:22:53Z</time>
      </trkpt>
      <trkpt lat="49.29911" lon="-1.55969">
        <ele>25.2</ele>
        <time>2022-08-27T07:22:57Z</time>
      </trkpt>
      <trkpt lat="49.29901" lon="-1.55934">
        <ele>25.2</ele>
        <time>2022-08-27T07:23:02Z</time>
      </trkpt>
      <trkpt lat="49.29899" lon="-1.55928">
        <ele>25.2</ele>
        <time>2022-08-27T07:23:03Z</time>
      </trkpt>
      <trkpt lat="49.29895" lon="-1.55914">
        <ele>25.4</ele>
        <time>2022-08-27T07:23:05Z</time>
      </trkpt>
      <trkpt lat="49.29884" lon="-1.55874">
        <ele>25.6</ele>
        <time>2022-08-27T07:23:11Z</time>
      </trkpt>
      <trkpt lat="49.29878" lon="-1.55856">
        <ele>25.8</ele>
        <time>2022-08-27T07:23:14Z</time>
      </trkpt>
      <trkpt lat="49.29877" lon="-1.5585">
        <ele>25.8</ele>
        <time>2022-08-27T07:23:15Z</time>
      </trkpt>
      <trkpt lat="49.29875" lon="-1.55844">
        <ele>25.8</ele>
        <time>2022-08-27T07:23:16Z</time>
      </trkpt>
      <trkpt lat="49.2987" lon="-1.55825">
        <ele>26</ele>
        <time>2022-08-27T07:23:19Z</time>
      </trkpt>
      <trkpt lat="49.29868" lon="-1.55817">
        <ele>26</ele>
        <time>2022-08-27T07:23:21Z</time>
      </trkpt>
      <trkpt lat="49.29865" lon="-1.55799">
        <ele>25.8</ele>
        <time>2022-08-27T07:23:27Z</time>
      </trkpt>
      <trkpt lat="49.29852" lon="-1.55761">
        <ele>25.2</ele>
        <time>2022-08-27T07:23:33Z</time>
      </trkpt>
      <trkpt lat="49.29838" lon="-1.5571">
        <ele>25.2</ele>
        <time>2022-08-27T07:23:38Z</time>
      </trkpt>
      <trkpt lat="49.29831" lon="-1.55686">
        <ele>25.2</ele>
        <time>2022-08-27T07:23:41Z</time>
      </trkpt>
      <trkpt lat="49.29828" lon="-1.5567">
        <ele>25.2</ele>
        <time>2022-08-27T07:23:43Z</time>
      </trkpt>
      <trkpt lat="49.29826" lon="-1.55662">
        <ele>25.2</ele>
        <time>2022-08-27T07:23:44Z</time>
      </trkpt>
      <trkpt lat="49.29816" lon="-1.55629">
        <ele>25</ele>
        <time>2022-08-27T07:23:49Z</time>
      </trkpt>
      <trkpt lat="49.29814" lon="-1.55616">
        <ele>25.2</ele>
        <time>2022-08-27T07:23:52Z</time>
      </trkpt>
      <trkpt lat="49.29814" lon="-1.55616">
        <ele>25.2</ele>
        <time>2022-08-27T07:23:53Z</time>
      </trkpt>
      <trkpt lat="49.29814" lon="-1.55602">
        <ele>25</ele>
        <time>2022-08-27T07:24:32Z</time>
      </trkpt>
      <trkpt lat="49.29816" lon="-1.5559">
        <ele>25</ele>
        <time>2022-08-27T07:24:34Z</time>
      </trkpt>
      <trkpt lat="49.29817" lon="-1.55584">
        <ele>25</ele>
        <time>2022-08-27T07:24:35Z</time>
      </trkpt>
      <trkpt lat="49.29816" lon="-1.55574">
        <ele>25</ele>
        <time>2022-08-27T07:24:37Z</time>
      </trkpt>
      <trkpt lat="49.29816" lon="-1.55567">
        <ele>25</ele>
        <time>2022-08-27T07:24:40Z</time>
      </trkpt>
      <trkpt lat="49.29814" lon="-1.55571">
        <ele>25.2</ele>
        <time>2022-08-27T07:25:12Z</time>
      </trkpt>
      <trkpt lat="49.29812" lon="-1.55572">
        <ele>25.2</ele>
        <time>2022-08-27T07:25:15Z</time>
      </trkpt>
      <trkpt lat="49.29808" lon="-1.55575">
        <ele>25.2</ele>
        <time>2022-08-27T07:25:23Z</time>
      </trkpt>
      <trkpt lat="49.29804" lon="-1.55578">
        <ele>25.2</ele>
        <time>2022-08-27T07:25:25Z</time>
      </trkpt>
      <trkpt lat="49.29788" lon="-1.55586">
        <ele>25.4</ele>
        <time>2022-08-27T07:25:31Z</time>
      </trkpt>
      <trkpt lat="49.29784" lon="-1.55585">
        <ele>25.6</ele>
        <time>2022-08-27T07:25:34Z</time>
      </trkpt>
      <trkpt lat="49.29783" lon="-1.55583">
        <ele>26.4</ele>
        <time>2022-08-27T07:26:39Z</time>
      </trkpt>
      <trkpt lat="49.29781" lon="-1.55581">
        <ele>26.2</ele>
        <time>2022-08-27T07:26:41Z</time>
      </trkpt>
      <trkpt lat="49.2978" lon="-1.55578">
        <ele>26.2</ele>
        <time>2022-08-27T07:26:43Z</time>
      </trkpt>
      <trkpt lat="49.29784" lon="-1.55569">
        <ele>26.2</ele>
        <time>2022-08-27T07:26:48Z</time>
      </trkpt>
      <trkpt lat="49.29786" lon="-1.55566">
        <ele>26.2</ele>
        <time>2022-08-27T07:26:49Z</time>
      </trkpt>
      <trkpt lat="49.2979" lon="-1.55553">
        <ele>26</ele>
        <time>2022-08-27T07:26:53Z</time>
      </trkpt>
      <trkpt lat="49.29784" lon="-1.55532">
        <ele>25.8</ele>
        <time>2022-08-27T07:26:59Z</time>
      </trkpt>
      <trkpt lat="49.29781" lon="-1.55523">
        <ele>26</ele>
        <time>2022-08-27T07:27:03Z</time>
      </trkpt>
      <trkpt lat="49.29772" lon="-1.55505">
        <ele>26.2</ele>
        <time>2022-08-27T07:27:08Z</time>
      </trkpt>
      <trkpt lat="49.29761" lon="-1.55481">
        <ele>25.8</ele>
        <time>2022-08-27T07:27:12Z</time>
      </trkpt>
      <trkpt lat="49.29755" lon="-1.55467">
        <ele>25.6</ele>
        <time>2022-08-27T07:27:14Z</time>
      </trkpt>
      <trkpt lat="49.29749" lon="-1.55454">
        <ele>25.4</ele>
        <time>2022-08-27T07:27:16Z</time>
      </trkpt>
      <trkpt lat="49.29738" lon="-1.55425">
        <ele>25</ele>
        <time>2022-08-27T07:27:20Z</time>
      </trkpt>
      <trkpt lat="49.29733" lon="-1.55411">
        <ele>25</ele>
        <time>2022-08-27T07:27:22Z</time>
      </trkpt>
      <trkpt lat="49.29725" lon="-1.5539">
        <ele>25</ele>
        <time>2022-08-27T07:27:25Z</time>
      </trkpt>
      <trkpt lat="49.29701" lon="-1.55326">
        <ele>24.6</ele>
        <time>2022-08-27T07:27:33Z</time>
      </trkpt>
      <trkpt lat="49.29688" lon="-1.5529">
        <ele>25.8</ele>
        <time>2022-08-27T07:27:39Z</time>
      </trkpt>
      <trkpt lat="49.2968" lon="-1.55271">
        <ele>25.8</ele>
        <time>2022-08-27T07:27:45Z</time>
      </trkpt>
      <trkpt lat="49.29672" lon="-1.55256">
        <ele>26</ele>
        <time>2022-08-27T07:27:48Z</time>
      </trkpt>
      <trkpt lat="49.29666" lon="-1.55244">
        <ele>26</ele>
        <time>2022-08-27T07:27:50Z</time>
      </trkpt>
      <trkpt lat="49.29646" lon="-1.55204">
        <ele>26.2</ele>
        <time>2022-08-27T07:27:57Z</time>
      </trkpt>
      <trkpt lat="49.29639" lon="-1.55191">
        <ele>26.2</ele>
        <time>2022-08-27T07:27:59Z</time>
      </trkpt>
      <trkpt lat="49.29631" lon="-1.55181">
        <ele>26.2</ele>
        <time>2022-08-27T07:28:01Z</time>
      </trkpt>
      <trkpt lat="49.29627" lon="-1.55178">
        <ele>26.2</ele>
        <time>2022-08-27T07:28:02Z</time>
      </trkpt>
      <trkpt lat="49.29622" lon="-1.55175">
        <ele>26.2</ele>
        <time>2022-08-27T07:28:03Z</time>
      </trkpt>
      <trkpt lat="49.29612" lon="-1.55171">
        <ele>26.4</ele>
        <time>2022-08-27T07:28:05Z</time>
      </trkpt>
      <trkpt lat="49.29603" lon="-1.55163">
        <ele>26.6</ele>
        <time>2022-08-27T07:28:07Z</time>
      </trkpt>
      <trkpt lat="49.29598" lon="-1.55158">
        <ele>26.8</ele>
        <time>2022-08-27T07:28:08Z</time>
      </trkpt>
      <trkpt lat="49.29591" lon="-1.55145">
        <ele>26.8</ele>
        <time>2022-08-27T07:28:10Z</time>
      </trkpt>
      <trkpt lat="49.29588" lon="-1.55138">
        <ele>26.8</ele>
        <time>2022-08-27T07:28:11Z</time>
      </trkpt>
      <trkpt lat="49.29571" lon="-1.55083">
        <ele>27.2</ele>
        <time>2022-08-27T07:28:18Z</time>
      </trkpt>
      <trkpt lat="49.29558" lon="-1.55041">
        <ele>27.6</ele>
        <time>2022-08-27T07:28:24Z</time>
      </trkpt>
      <trkpt lat="49.29551" lon="-1.55021">
        <ele>27.8</ele>
        <time>2022-08-27T07:28:28Z</time>
      </trkpt>
      <trkpt lat="49.2955" lon="-1.55014">
        <ele>27.8</ele>
        <time>2022-08-27T07:28:29Z</time>
      </trkpt>
      <trkpt lat="49.29549" lon="-1.55007">
        <ele>27.8</ele>
        <time>2022-08-27T07:28:30Z</time>
      </trkpt>
      <trkpt lat="49.29549" lon="-1.54991">
        <ele>28</ele>
        <time>2022-08-27T07:28:32Z</time>
      </trkpt>
      <trkpt lat="49.2955" lon="-1.54984">
        <ele>28</ele>
        <time>2022-08-27T07:28:33Z</time>
      </trkpt>
      <trkpt lat="49.29552" lon="-1.54977">
        <ele>28.2</ele>
        <time>2022-08-27T07:28:34Z</time>
      </trkpt>
      <trkpt lat="49.29558" lon="-1.54954">
        <ele>28.4</ele>
        <time>2022-08-27T07:28:37Z</time>
      </trkpt>
      <trkpt lat="49.29558" lon="-1.54946">
        <ele>28.4</ele>
        <time>2022-08-27T07:28:38Z</time>
      </trkpt>
      <trkpt lat="49.29558" lon="-1.54937">
        <ele>28.4</ele>
        <time>2022-08-27T07:28:39Z</time>
      </trkpt>
      <trkpt lat="49.29551" lon="-1.54904">
        <ele>28.8</ele>
        <time>2022-08-27T07:28:43Z</time>
      </trkpt>
      <trkpt lat="49.29542" lon="-1.54823">
        <ele>29.4</ele>
        <time>2022-08-27T07:28:52Z</time>
      </trkpt>
      <trkpt lat="49.29536" lon="-1.54738">
        <ele>29.8</ele>
        <time>2022-08-27T07:29:01Z</time>
      </trkpt>
      <trkpt lat="49.2953" lon="-1.5465">
        <ele>30.2</ele>
        <time>2022-08-27T07:29:10Z</time>
      </trkpt>
      <trkpt lat="49.29525" lon="-1.54573">
        <ele>30.6</ele>
        <time>2022-08-27T07:29:18Z</time>
      </trkpt>
      <trkpt lat="49.29521" lon="-1.54498">
        <ele>31</ele>
        <time>2022-08-27T07:29:26Z</time>
      </trkpt>
      <trkpt lat="49.29514" lon="-1.54434">
        <ele>31.4</ele>
        <time>2022-08-27T07:29:33Z</time>
      </trkpt>
      <trkpt lat="49.29506" lon="-1.5438">
        <ele>31.8</ele>
        <time>2022-08-27T07:29:39Z</time>
      </trkpt>
      <trkpt lat="49.29504" lon="-1.54372">
        <ele>31.8</ele>
        <time>2022-08-27T07:29:40Z</time>
      </trkpt>
      <trkpt lat="49.29494" lon="-1.54328">
        <ele>31.8</ele>
        <time>2022-08-27T07:29:45Z</time>
      </trkpt>
      <trkpt lat="49.2949" lon="-1.54311">
        <ele>31.8</ele>
        <time>2022-08-27T07:29:47Z</time>
      </trkpt>
      <trkpt lat="49.29477" lon="-1.54262">
        <ele>31.6</ele>
        <time>2022-08-27T07:29:53Z</time>
      </trkpt>
      <trkpt lat="49.29467" lon="-1.54231">
        <ele>31.6</ele>
        <time>2022-08-27T07:29:57Z</time>
      </trkpt>
      <trkpt lat="49.29462" lon="-1.54216">
        <ele>31.8</ele>
        <time>2022-08-27T07:29:59Z</time>
      </trkpt>
      <trkpt lat="49.29435" lon="-1.54154">
        <ele>32</ele>
        <time>2022-08-27T07:30:08Z</time>
      </trkpt>
      <trkpt lat="49.29419" lon="-1.54119">
        <ele>32.4</ele>
        <time>2022-08-27T07:30:14Z</time>
      </trkpt>
      <trkpt lat="49.29414" lon="-1.54113">
        <ele>32.4</ele>
        <time>2022-08-27T07:30:16Z</time>
      </trkpt>
      <trkpt lat="49.29413" lon="-1.54109">
        <ele>32.4</ele>
        <time>2022-08-27T07:30:17Z</time>
      </trkpt>
      <trkpt lat="49.29409" lon="-1.54098">
        <ele>32.4</ele>
        <time>2022-08-27T07:30:22Z</time>
      </trkpt>
      <trkpt lat="49.29409" lon="-1.54097">
        <ele>32.4</ele>
        <time>2022-08-27T07:30:23Z</time>
      </trkpt>
      <trkpt lat="49.29406" lon="-1.54093">
        <ele>32.4</ele>
        <time>2022-08-27T07:30:27Z</time>
      </trkpt>
      <trkpt lat="49.29404" lon="-1.54089">
        <ele>32.4</ele>
        <time>2022-08-27T07:30:28Z</time>
      </trkpt>
      <trkpt lat="49.29392" lon="-1.54063">
        <ele>32.6</ele>
        <time>2022-08-27T07:30:34Z</time>
      </trkpt>
      <trkpt lat="49.29378" lon="-1.54046">
        <ele>32.8</ele>
        <time>2022-08-27T07:30:39Z</time>
      </trkpt>
      <trkpt lat="49.29359" lon="-1.54025">
        <ele>33.2</ele>
        <time>2022-08-27T07:30:46Z</time>
      </trkpt>
      <trkpt lat="49.29349" lon="-1.54015">
        <ele>33.4</ele>
        <time>2022-08-27T07:30:49Z</time>
      </trkpt>
      <trkpt lat="49.29342" lon="-1.54008">
        <ele>33.4</ele>
        <time>2022-08-27T07:30:51Z</time>
      </trkpt>
      <trkpt lat="49.29324" lon="-1.53991">
        <ele>33.4</ele>
        <time>2022-08-27T07:30:56Z</time>
      </trkpt>
      <trkpt lat="49.29321" lon="-1.53988">
        <ele>33.2</ele>
        <time>2022-08-27T07:30:57Z</time>
      </trkpt>
      <trkpt lat="49.29304" lon="-1.53972">
        <ele>33.2</ele>
        <time>2022-08-27T07:31:02Z</time>
      </trkpt>
      <trkpt lat="49.2929" lon="-1.53958">
        <ele>33.4</ele>
        <time>2022-08-27T07:31:06Z</time>
      </trkpt>
      <trkpt lat="49.29261" lon="-1.53933">
        <ele>33.2</ele>
        <time>2022-08-27T07:31:12Z</time>
      </trkpt>
      <trkpt lat="49.29241" lon="-1.53919">
        <ele>33.6</ele>
        <time>2022-08-27T07:31:16Z</time>
      </trkpt>
      <trkpt lat="49.29223" lon="-1.53908">
        <ele>34</ele>
        <time>2022-08-27T07:31:20Z</time>
      </trkpt>
      <trkpt lat="49.29193" lon="-1.53895">
        <ele>34.6</ele>
        <time>2022-08-27T07:31:26Z</time>
      </trkpt>
      <trkpt lat="49.29176" lon="-1.5389">
        <ele>34.8</ele>
        <time>2022-08-27T07:31:30Z</time>
      </trkpt>
      <trkpt lat="49.29172" lon="-1.53887">
        <ele>34.8</ele>
        <time>2022-08-27T07:31:31Z</time>
      </trkpt>
      <trkpt lat="49.29162" lon="-1.53884">
        <ele>34.8</ele>
        <time>2022-08-27T07:31:33Z</time>
      </trkpt>
      <trkpt lat="49.29157" lon="-1.53882">
        <ele>34.8</ele>
        <time>2022-08-27T07:31:34Z</time>
      </trkpt>
      <trkpt lat="49.29135" lon="-1.53878">
        <ele>34.8</ele>
        <time>2022-08-27T07:31:38Z</time>
      </trkpt>
      <trkpt lat="49.29118" lon="-1.53872">
        <ele>34.6</ele>
        <time>2022-08-27T07:31:41Z</time>
      </trkpt>
      <trkpt lat="49.29112" lon="-1.53871">
        <ele>34.6</ele>
        <time>2022-08-27T07:31:42Z</time>
      </trkpt>
      <trkpt lat="49.29101" lon="-1.53868">
        <ele>34.6</ele>
        <time>2022-08-27T07:31:44Z</time>
      </trkpt>
      <trkpt lat="49.29091" lon="-1.53867">
        <ele>34.8</ele>
        <time>2022-08-27T07:31:46Z</time>
      </trkpt>
      <trkpt lat="49.29085" lon="-1.53866">
        <ele>34.8</ele>
        <time>2022-08-27T07:31:47Z</time>
      </trkpt>
      <trkpt lat="49.29076" lon="-1.53865">
        <ele>34.8</ele>
        <time>2022-08-27T07:31:49Z</time>
      </trkpt>
      <trkpt lat="49.29066" lon="-1.53863">
        <ele>35</ele>
        <time>2022-08-27T07:31:51Z</time>
      </trkpt>
      <trkpt lat="49.29036" lon="-1.53861">
        <ele>35</ele>
        <time>2022-08-27T07:31:57Z</time>
      </trkpt>
      <trkpt lat="49.29026" lon="-1.5386">
        <ele>35</ele>
        <time>2022-08-27T07:32:00Z</time>
      </trkpt>
      <trkpt lat="49.29017" lon="-1.53859">
        <ele>34.8</ele>
        <time>2022-08-27T07:32:02Z</time>
      </trkpt>
      <trkpt lat="49.29002" lon="-1.5386">
        <ele>35</ele>
        <time>2022-08-27T07:32:05Z</time>
      </trkpt>
      <trkpt lat="49.28997" lon="-1.53861">
        <ele>35</ele>
        <time>2022-08-27T07:32:06Z</time>
      </trkpt>
      <trkpt lat="49.28982" lon="-1.5386">
        <ele>34.6</ele>
        <time>2022-08-27T07:32:09Z</time>
      </trkpt>
      <trkpt lat="49.28969" lon="-1.5386">
        <ele>34.6</ele>
        <time>2022-08-27T07:32:12Z</time>
      </trkpt>
      <trkpt lat="49.28965" lon="-1.53861">
        <ele>34.6</ele>
        <time>2022-08-27T07:32:13Z</time>
      </trkpt>
      <trkpt lat="49.28953" lon="-1.53862">
        <ele>35.2</ele>
        <time>2022-08-27T07:32:16Z</time>
      </trkpt>
      <trkpt lat="49.28933" lon="-1.53863">
        <ele>35.8</ele>
        <time>2022-08-27T07:32:21Z</time>
      </trkpt>
      <trkpt lat="49.2893" lon="-1.53863">
        <ele>35.8</ele>
        <time>2022-08-27T07:32:22Z</time>
      </trkpt>
      <trkpt lat="49.28924" lon="-1.53862">
        <ele>36</ele>
        <time>2022-08-27T07:32:25Z</time>
      </trkpt>
      <trkpt lat="49.28922" lon="-1.53864">
        <ele>36.2</ele>
        <time>2022-08-27T07:32:28Z</time>
      </trkpt>
      <trkpt lat="49.28916" lon="-1.53864">
        <ele>36</ele>
        <time>2022-08-27T07:32:29Z</time>
      </trkpt>
      <trkpt lat="49.28864" lon="-1.5386">
        <ele>35.8</ele>
        <time>2022-08-27T07:32:32Z</time>
      </trkpt>
      <trkpt lat="49.2886" lon="-1.5386">
        <ele>36.2</ele>
        <time>2022-08-27T07:32:33Z</time>
      </trkpt>
      <trkpt lat="49.28839" lon="-1.53859">
        <ele>36.8</ele>
        <time>2022-08-27T07:32:37Z</time>
      </trkpt>
      <trkpt lat="49.28828" lon="-1.5386">
        <ele>37.6</ele>
        <time>2022-08-27T07:32:40Z</time>
      </trkpt>
      <trkpt lat="49.28808" lon="-1.5386">
        <ele>38</ele>
        <time>2022-08-27T07:32:45Z</time>
      </trkpt>
      <trkpt lat="49.28781" lon="-1.53858">
        <ele>38.4</ele>
        <time>2022-08-27T07:32:50Z</time>
      </trkpt>
      <trkpt lat="49.28771" lon="-1.53859">
        <ele>38.4</ele>
        <time>2022-08-27T07:32:52Z</time>
      </trkpt>
      <trkpt lat="49.2876" lon="-1.53857">
        <ele>38.4</ele>
        <time>2022-08-27T07:32:54Z</time>
      </trkpt>
      <trkpt lat="49.28732" lon="-1.53852">
        <ele>38.6</ele>
        <time>2022-08-27T07:32:59Z</time>
      </trkpt>
      <trkpt lat="49.28716" lon="-1.53851">
        <ele>38.6</ele>
        <time>2022-08-27T07:33:02Z</time>
      </trkpt>
      <trkpt lat="49.2871" lon="-1.53849">
        <ele>38.8</ele>
        <time>2022-08-27T07:33:03Z</time>
      </trkpt>
      <trkpt lat="49.28682" lon="-1.53845">
        <ele>38.8</ele>
        <time>2022-08-27T07:33:08Z</time>
      </trkpt>
      <trkpt lat="49.28662" lon="-1.53843">
        <ele>38.8</ele>
        <time>2022-08-27T07:33:11Z</time>
      </trkpt>
      <trkpt lat="49.2865" lon="-1.53841">
        <ele>38.8</ele>
        <time>2022-08-27T07:33:13Z</time>
      </trkpt>
      <trkpt lat="49.28638" lon="-1.53839">
        <ele>38.8</ele>
        <time>2022-08-27T07:33:15Z</time>
      </trkpt>
      <trkpt lat="49.28626" lon="-1.53838">
        <ele>38.8</ele>
        <time>2022-08-27T07:33:17Z</time>
      </trkpt>
      <trkpt lat="49.2862" lon="-1.53836">
        <ele>38.8</ele>
        <time>2022-08-27T07:33:18Z</time>
      </trkpt>
      <trkpt lat="49.28607" lon="-1.53834">
        <ele>38.8</ele>
        <time>2022-08-27T07:33:20Z</time>
      </trkpt>
      <trkpt lat="49.28581" lon="-1.53831">
        <ele>38.8</ele>
        <time>2022-08-27T07:33:24Z</time>
      </trkpt>
      <trkpt lat="49.28551" lon="-1.53825">
        <ele>39</ele>
        <time>2022-08-27T07:33:29Z</time>
      </trkpt>
      <trkpt lat="49.28545" lon="-1.53822">
        <ele>39</ele>
        <time>2022-08-27T07:33:30Z</time>
      </trkpt>
      <trkpt lat="49.2854" lon="-1.53821">
        <ele>39</ele>
        <time>2022-08-27T07:33:31Z</time>
      </trkpt>
      <trkpt lat="49.28532" lon="-1.53821">
        <ele>39.4</ele>
        <time>2022-08-27T07:33:33Z</time>
      </trkpt>
      <trkpt lat="49.28518" lon="-1.53818">
        <ele>39.6</ele>
        <time>2022-08-27T07:33:37Z</time>
      </trkpt>
      <trkpt lat="49.2851" lon="-1.53816">
        <ele>39.6</ele>
        <time>2022-08-27T07:33:39Z</time>
      </trkpt>
      <trkpt lat="49.28501" lon="-1.53817">
        <ele>39.8</ele>
        <time>2022-08-27T07:33:41Z</time>
      </trkpt>
      <trkpt lat="49.28497" lon="-1.53818">
        <ele>39.8</ele>
        <time>2022-08-27T07:33:42Z</time>
      </trkpt>
      <trkpt lat="49.2848" lon="-1.53815">
        <ele>40</ele>
        <time>2022-08-27T07:33:45Z</time>
      </trkpt>
      <trkpt lat="49.28452" lon="-1.53814">
        <ele>40</ele>
        <time>2022-08-27T07:33:50Z</time>
      </trkpt>
      <trkpt lat="49.2842" lon="-1.53811">
        <ele>40.2</ele>
        <time>2022-08-27T07:33:55Z</time>
      </trkpt>
      <trkpt lat="49.28406" lon="-1.53809">
        <ele>40</ele>
        <time>2022-08-27T07:33:57Z</time>
      </trkpt>
      <trkpt lat="49.28393" lon="-1.53808">
        <ele>40</ele>
        <time>2022-08-27T07:33:59Z</time>
      </trkpt>
      <trkpt lat="49.28367" lon="-1.53804">
        <ele>40</ele>
        <time>2022-08-27T07:34:03Z</time>
      </trkpt>
      <trkpt lat="49.28353" lon="-1.53802">
        <ele>40</ele>
        <time>2022-08-27T07:34:05Z</time>
      </trkpt>
      <trkpt lat="49.28337" lon="-1.53797">
        <ele>40.2</ele>
        <time>2022-08-27T07:34:07Z</time>
      </trkpt>
      <trkpt lat="49.28293" lon="-1.53788">
        <ele>39.8</ele>
        <time>2022-08-27T07:34:13Z</time>
      </trkpt>
      <trkpt lat="49.28279" lon="-1.53787">
        <ele>39.8</ele>
        <time>2022-08-27T07:34:15Z</time>
      </trkpt>
      <trkpt lat="49.28257" lon="-1.53783">
        <ele>40</ele>
        <time>2022-08-27T07:34:18Z</time>
      </trkpt>
      <trkpt lat="49.28206" lon="-1.53778">
        <ele>40.6</ele>
        <time>2022-08-27T07:34:25Z</time>
      </trkpt>
      <trkpt lat="49.28178" lon="-1.53775">
        <ele>40.8</ele>
        <time>2022-08-27T07:34:29Z</time>
      </trkpt>
      <trkpt lat="49.28171" lon="-1.53776">
        <ele>40.8</ele>
        <time>2022-08-27T07:34:30Z</time>
      </trkpt>
      <trkpt lat="49.28164" lon="-1.53777">
        <ele>40.8</ele>
        <time>2022-08-27T07:34:31Z</time>
      </trkpt>
      <trkpt lat="49.28142" lon="-1.53774">
        <ele>40.8</ele>
        <time>2022-08-27T07:34:34Z</time>
      </trkpt>
      <trkpt lat="49.28129" lon="-1.53771">
        <ele>40.8</ele>
        <time>2022-08-27T07:34:36Z</time>
      </trkpt>
      <trkpt lat="49.28115" lon="-1.53768">
        <ele>40.8</ele>
        <time>2022-08-27T07:34:38Z</time>
      </trkpt>
      <trkpt lat="49.28087" lon="-1.53764">
        <ele>41</ele>
        <time>2022-08-27T07:34:42Z</time>
      </trkpt>
      <trkpt lat="49.2808" lon="-1.53764">
        <ele>41</ele>
        <time>2022-08-27T07:34:43Z</time>
      </trkpt>
      <trkpt lat="49.28074" lon="-1.53763">
        <ele>41</ele>
        <time>2022-08-27T07:34:44Z</time>
      </trkpt>
      <trkpt lat="49.2805" lon="-1.53758">
        <ele>41.2</ele>
        <time>2022-08-27T07:34:47Z</time>
      </trkpt>
      <trkpt lat="49.28027" lon="-1.53754">
        <ele>41.2</ele>
        <time>2022-08-27T07:34:50Z</time>
      </trkpt>
      <trkpt lat="49.28013" lon="-1.53753">
        <ele>41.2</ele>
        <time>2022-08-27T07:34:52Z</time>
      </trkpt>
      <trkpt lat="49.27976" lon="-1.53748">
        <ele>41.4</ele>
        <time>2022-08-27T07:34:57Z</time>
      </trkpt>
      <trkpt lat="49.27937" lon="-1.53742">
        <ele>41.4</ele>
        <time>2022-08-27T07:35:02Z</time>
      </trkpt>
      <trkpt lat="49.27899" lon="-1.53737">
        <ele>41.2</ele>
        <time>2022-08-27T07:35:07Z</time>
      </trkpt>
      <trkpt lat="49.27862" lon="-1.53732">
        <ele>40.8</ele>
        <time>2022-08-27T07:35:12Z</time>
      </trkpt>
      <trkpt lat="49.27824" lon="-1.53725">
        <ele>40.8</ele>
        <time>2022-08-27T07:35:17Z</time>
      </trkpt>
      <trkpt lat="49.27809" lon="-1.53721">
        <ele>40.8</ele>
        <time>2022-08-27T07:35:19Z</time>
      </trkpt>
      <trkpt lat="49.27794" lon="-1.53718">
        <ele>40.6</ele>
        <time>2022-08-27T07:35:21Z</time>
      </trkpt>
      <trkpt lat="49.27749" lon="-1.53712">
        <ele>40.4</ele>
        <time>2022-08-27T07:35:27Z</time>
      </trkpt>
      <trkpt lat="49.27707" lon="-1.53706">
        <ele>40</ele>
        <time>2022-08-27T07:35:33Z</time>
      </trkpt>
      <trkpt lat="49.27671" lon="-1.537">
        <ele>39.6</ele>
        <time>2022-08-27T07:35:38Z</time>
      </trkpt>
      <trkpt lat="49.27637" lon="-1.53696">
        <ele>39.2</ele>
        <time>2022-08-27T07:35:43Z</time>
      </trkpt>
      <trkpt lat="49.27603" lon="-1.53689">
        <ele>38.8</ele>
        <time>2022-08-27T07:35:48Z</time>
      </trkpt>
      <trkpt lat="49.27568" lon="-1.53684">
        <ele>38.4</ele>
        <time>2022-08-27T07:35:53Z</time>
      </trkpt>
      <trkpt lat="49.27533" lon="-1.53679">
        <ele>38</ele>
        <time>2022-08-27T07:35:58Z</time>
      </trkpt>
      <trkpt lat="49.27486" lon="-1.53672">
        <ele>37.8</ele>
        <time>2022-08-27T07:36:05Z</time>
      </trkpt>
      <trkpt lat="49.27448" lon="-1.53667">
        <ele>37.2</ele>
        <time>2022-08-27T07:36:11Z</time>
      </trkpt>
      <trkpt lat="49.27421" lon="-1.53662">
        <ele>37</ele>
        <time>2022-08-27T07:36:16Z</time>
      </trkpt>
      <trkpt lat="49.274" lon="-1.53659">
        <ele>36.8</ele>
        <time>2022-08-27T07:36:21Z</time>
      </trkpt>
      <trkpt lat="49.2739" lon="-1.53658">
        <ele>37</ele>
        <time>2022-08-27T07:36:23Z</time>
      </trkpt>
      <trkpt lat="49.2738" lon="-1.53657">
        <ele>37</ele>
        <time>2022-08-27T07:36:25Z</time>
      </trkpt>
      <trkpt lat="49.27368" lon="-1.53653">
        <ele>37</ele>
        <time>2022-08-27T07:36:27Z</time>
      </trkpt>
      <trkpt lat="49.27357" lon="-1.53652">
        <ele>36.8</ele>
        <time>2022-08-27T07:36:29Z</time>
      </trkpt>
      <trkpt lat="49.27326" lon="-1.53648">
        <ele>36.6</ele>
        <time>2022-08-27T07:36:34Z</time>
      </trkpt>
      <trkpt lat="49.27307" lon="-1.53645">
        <ele>36.4</ele>
        <time>2022-08-27T07:36:37Z</time>
      </trkpt>
      <trkpt lat="49.27294" lon="-1.53643">
        <ele>36.4</ele>
        <time>2022-08-27T07:36:39Z</time>
      </trkpt>
      <trkpt lat="49.27274" lon="-1.5364">
        <ele>36</ele>
        <time>2022-08-27T07:36:42Z</time>
      </trkpt>
      <trkpt lat="49.27267" lon="-1.53638">
        <ele>36</ele>
        <time>2022-08-27T07:36:43Z</time>
      </trkpt>
      <trkpt lat="49.27227" lon="-1.53634">
        <ele>35.6</ele>
        <time>2022-08-27T07:36:49Z</time>
      </trkpt>
      <trkpt lat="49.2718" lon="-1.53633">
        <ele>36</ele>
        <time>2022-08-27T07:36:56Z</time>
      </trkpt>
      <trkpt lat="49.2714" lon="-1.53636">
        <ele>36.6</ele>
        <time>2022-08-27T07:37:02Z</time>
      </trkpt>
      <trkpt lat="49.27106" lon="-1.53641">
        <ele>36.8</ele>
        <time>2022-08-27T07:37:07Z</time>
      </trkpt>
      <trkpt lat="49.27081" lon="-1.53645">
        <ele>37.2</ele>
        <time>2022-08-27T07:37:11Z</time>
      </trkpt>
      <trkpt lat="49.27051" lon="-1.53651">
        <ele>37.4</ele>
        <time>2022-08-27T07:37:16Z</time>
      </trkpt>
      <trkpt lat="49.27031" lon="-1.53656">
        <ele>37.6</ele>
        <time>2022-08-27T07:37:19Z</time>
      </trkpt>
      <trkpt lat="49.27017" lon="-1.53659">
        <ele>37.8</ele>
        <time>2022-08-27T07:37:21Z</time>
      </trkpt>
      <trkpt lat="49.26999" lon="-1.53665">
        <ele>38</ele>
        <time>2022-08-27T07:37:24Z</time>
      </trkpt>
      <trkpt lat="49.26981" lon="-1.5367">
        <ele>38.2</ele>
        <time>2022-08-27T07:37:27Z</time>
      </trkpt>
      <trkpt lat="49.26943" lon="-1.53684">
        <ele>38.6</ele>
        <time>2022-08-27T07:37:33Z</time>
      </trkpt>
      <trkpt lat="49.26905" lon="-1.53699">
        <ele>39</ele>
        <time>2022-08-27T07:37:39Z</time>
      </trkpt>
      <trkpt lat="49.26858" lon="-1.53718">
        <ele>39.8</ele>
        <time>2022-08-27T07:37:47Z</time>
      </trkpt>
      <trkpt lat="49.26824" lon="-1.53731">
        <ele>40.4</ele>
        <time>2022-08-27T07:37:53Z</time>
      </trkpt>
      <trkpt lat="49.26805" lon="-1.5374">
        <ele>40.6</ele>
        <time>2022-08-27T07:37:57Z</time>
      </trkpt>
      <trkpt lat="49.26784" lon="-1.53748">
        <ele>41</ele>
        <time>2022-08-27T07:38:01Z</time>
      </trkpt>
      <trkpt lat="49.26759" lon="-1.53757">
        <ele>41.2</ele>
        <time>2022-08-27T07:38:06Z</time>
      </trkpt>
      <trkpt lat="49.26738" lon="-1.53765">
        <ele>41.4</ele>
        <time>2022-08-27T07:38:10Z</time>
      </trkpt>
      <trkpt lat="49.26727" lon="-1.53766">
        <ele>41.4</ele>
        <time>2022-08-27T07:38:12Z</time>
      </trkpt>
      <trkpt lat="49.26716" lon="-1.53773">
        <ele>41.6</ele>
        <time>2022-08-27T07:38:15Z</time>
      </trkpt>
      <trkpt lat="49.26705" lon="-1.53778">
        <ele>42</ele>
        <time>2022-08-27T07:38:20Z</time>
      </trkpt>
      <trkpt lat="49.26692" lon="-1.53785">
        <ele>42</ele>
        <time>2022-08-27T07:38:23Z</time>
      </trkpt>
      <trkpt lat="49.26655" lon="-1.53796">
        <ele>42.2</ele>
        <time>2022-08-27T07:38:28Z</time>
      </trkpt>
      <trkpt lat="49.26623" lon="-1.53808">
        <ele>42.6</ele>
        <time>2022-08-27T07:38:33Z</time>
      </trkpt>
      <trkpt lat="49.26592" lon="-1.53819">
        <ele>43</ele>
        <time>2022-08-27T07:38:38Z</time>
      </trkpt>
      <trkpt lat="49.26586" lon="-1.53821">
        <ele>43.2</ele>
        <time>2022-08-27T07:38:39Z</time>
      </trkpt>
      <trkpt lat="49.26546" lon="-1.53831">
        <ele>43.6</ele>
        <time>2022-08-27T07:38:45Z</time>
      </trkpt>
      <trkpt lat="49.26498" lon="-1.5384">
        <ele>44</ele>
        <time>2022-08-27T07:38:52Z</time>
      </trkpt>
      <trkpt lat="49.26456" lon="-1.53846">
        <ele>44.2</ele>
        <time>2022-08-27T07:38:58Z</time>
      </trkpt>
      <trkpt lat="49.26421" lon="-1.53846">
        <ele>44.6</ele>
        <time>2022-08-27T07:39:03Z</time>
      </trkpt>
      <trkpt lat="49.26377" lon="-1.53844">
        <ele>45</ele>
        <time>2022-08-27T07:39:09Z</time>
      </trkpt>
      <trkpt lat="49.26326" lon="-1.5384">
        <ele>45.2</ele>
        <time>2022-08-27T07:39:16Z</time>
      </trkpt>
      <trkpt lat="49.26301" lon="-1.53836">
        <ele>45.4</ele>
        <time>2022-08-27T07:39:20Z</time>
      </trkpt>
      <trkpt lat="49.26295" lon="-1.53834">
        <ele>45.4</ele>
        <time>2022-08-27T07:39:21Z</time>
      </trkpt>
      <trkpt lat="49.26275" lon="-1.53829">
        <ele>45.4</ele>
        <time>2022-08-27T07:39:24Z</time>
      </trkpt>
      <trkpt lat="49.26261" lon="-1.53825">
        <ele>45.6</ele>
        <time>2022-08-27T07:39:26Z</time>
      </trkpt>
      <trkpt lat="49.26214" lon="-1.53811">
        <ele>45.2</ele>
        <time>2022-08-27T07:39:33Z</time>
      </trkpt>
      <trkpt lat="49.26189" lon="-1.53803">
        <ele>45.2</ele>
        <time>2022-08-27T07:39:37Z</time>
      </trkpt>
      <trkpt lat="49.26178" lon="-1.53798">
        <ele>45.2</ele>
        <time>2022-08-27T07:39:39Z</time>
      </trkpt>
      <trkpt lat="49.26168" lon="-1.53796">
        <ele>45.2</ele>
        <time>2022-08-27T07:39:42Z</time>
      </trkpt>
      <trkpt lat="49.26152" lon="-1.53789">
        <ele>45</ele>
        <time>2022-08-27T07:39:47Z</time>
      </trkpt>
      <trkpt lat="49.26143" lon="-1.53787">
        <ele>45.2</ele>
        <time>2022-08-27T07:39:49Z</time>
      </trkpt>
      <trkpt lat="49.26133" lon="-1.53785">
        <ele>45.2</ele>
        <time>2022-08-27T07:39:52Z</time>
      </trkpt>
      <trkpt lat="49.26121" lon="-1.53782">
        <ele>45.2</ele>
        <time>2022-08-27T07:39:57Z</time>
      </trkpt>
      <trkpt lat="49.26115" lon="-1.5378">
        <ele>45</ele>
        <time>2022-08-27T07:39:59Z</time>
      </trkpt>
      <trkpt lat="49.26113" lon="-1.53782">
        <ele>45.2</ele>
        <time>2022-08-27T07:40:00Z</time>
      </trkpt>
      <trkpt lat="49.26103" lon="-1.5378">
        <ele>44.8</ele>
        <time>2022-08-27T07:40:03Z</time>
      </trkpt>
      <trkpt lat="49.26081" lon="-1.53775">
        <ele>44.6</ele>
        <time>2022-08-27T07:40:07Z</time>
      </trkpt>
      <trkpt lat="49.26071" lon="-1.53773">
        <ele>44.4</ele>
        <time>2022-08-27T07:40:09Z</time>
      </trkpt>
      <trkpt lat="49.26054" lon="-1.53768">
        <ele>44.2</ele>
        <time>2022-08-27T07:40:12Z</time>
      </trkpt>
      <trkpt lat="49.26015" lon="-1.53755">
        <ele>44</ele>
        <time>2022-08-27T07:40:18Z</time>
      </trkpt>
      <trkpt lat="49.25982" lon="-1.53746">
        <ele>43.8</ele>
        <time>2022-08-27T07:40:23Z</time>
      </trkpt>
      <trkpt lat="49.25949" lon="-1.53736">
        <ele>43.8</ele>
        <time>2022-08-27T07:40:28Z</time>
      </trkpt>
      <trkpt lat="49.25898" lon="-1.53721">
        <ele>43.8</ele>
        <time>2022-08-27T07:40:35Z</time>
      </trkpt>
      <trkpt lat="49.2584" lon="-1.53702">
        <ele>43.8</ele>
        <time>2022-08-27T07:40:43Z</time>
      </trkpt>
      <trkpt lat="49.25804" lon="-1.53694">
        <ele>43.6</ele>
        <time>2022-08-27T07:40:49Z</time>
      </trkpt>
      <trkpt lat="49.25797" lon="-1.53693">
        <ele>43.6</ele>
        <time>2022-08-27T07:40:51Z</time>
      </trkpt>
      <trkpt lat="49.25795" lon="-1.5369">
        <ele>43.6</ele>
        <time>2022-08-27T07:40:52Z</time>
      </trkpt>
      <trkpt lat="49.25791" lon="-1.53671">
        <ele>43.4</ele>
        <time>2022-08-27T07:40:56Z</time>
      </trkpt>
      <trkpt lat="49.25782" lon="-1.53668">
        <ele>43.6</ele>
        <time>2022-08-27T07:40:58Z</time>
      </trkpt>
      <trkpt lat="49.25778" lon="-1.53671">
        <ele>43.6</ele>
        <time>2022-08-27T07:40:59Z</time>
      </trkpt>
      <trkpt lat="49.25773" lon="-1.53675">
        <ele>43.6</ele>
        <time>2022-08-27T07:41:00Z</time>
      </trkpt>
      <trkpt lat="49.25761" lon="-1.53678">
        <ele>43.4</ele>
        <time>2022-08-27T07:41:02Z</time>
      </trkpt>
      <trkpt lat="49.25741" lon="-1.53671">
        <ele>43.4</ele>
        <time>2022-08-27T07:41:06Z</time>
      </trkpt>
      <trkpt lat="49.25723" lon="-1.53667">
        <ele>43.2</ele>
        <time>2022-08-27T07:41:09Z</time>
      </trkpt>
      <trkpt lat="49.25688" lon="-1.53658">
        <ele>43.2</ele>
        <time>2022-08-27T07:41:14Z</time>
      </trkpt>
      <trkpt lat="49.25655" lon="-1.53648">
        <ele>43.2</ele>
        <time>2022-08-27T07:41:19Z</time>
      </trkpt>
      <trkpt lat="49.25615" lon="-1.53637">
        <ele>43</ele>
        <time>2022-08-27T07:41:25Z</time>
      </trkpt>
      <trkpt lat="49.25576" lon="-1.53626">
        <ele>42.6</ele>
        <time>2022-08-27T07:41:31Z</time>
      </trkpt>
      <trkpt lat="49.25541" lon="-1.53616">
        <ele>42.2</ele>
        <time>2022-08-27T07:41:36Z</time>
      </trkpt>
      <trkpt lat="49.25502" lon="-1.53604">
        <ele>41.4</ele>
        <time>2022-08-27T07:41:42Z</time>
      </trkpt>
      <trkpt lat="49.25463" lon="-1.53592">
        <ele>40.6</ele>
        <time>2022-08-27T07:41:47Z</time>
      </trkpt>
      <trkpt lat="49.25407" lon="-1.53575">
        <ele>39.4</ele>
        <time>2022-08-27T07:41:54Z</time>
      </trkpt>
      <trkpt lat="49.25399" lon="-1.53572">
        <ele>39.4</ele>
        <time>2022-08-27T07:41:55Z</time>
      </trkpt>
      <trkpt lat="49.25346" lon="-1.53557">
        <ele>38.2</ele>
        <time>2022-08-27T07:42:02Z</time>
      </trkpt>
      <trkpt lat="49.25294" lon="-1.53542">
        <ele>37.2</ele>
        <time>2022-08-27T07:42:09Z</time>
      </trkpt>
      <trkpt lat="49.25247" lon="-1.53531">
        <ele>36.6</ele>
        <time>2022-08-27T07:42:15Z</time>
      </trkpt>
      <trkpt lat="49.25201" lon="-1.5352">
        <ele>36</ele>
        <time>2022-08-27T07:42:21Z</time>
      </trkpt>
      <trkpt lat="49.25145" lon="-1.53503">
        <ele>35</ele>
        <time>2022-08-27T07:42:28Z</time>
      </trkpt>
      <trkpt lat="49.251" lon="-1.53489">
        <ele>34</ele>
        <time>2022-08-27T07:42:34Z</time>
      </trkpt>
      <trkpt lat="49.25055" lon="-1.53474">
        <ele>33.4</ele>
        <time>2022-08-27T07:42:40Z</time>
      </trkpt>
      <trkpt lat="49.25042" lon="-1.53473">
        <ele>33.2</ele>
        <time>2022-08-27T07:42:42Z</time>
      </trkpt>
      <trkpt lat="49.25037" lon="-1.53471">
        <ele>33.2</ele>
        <time>2022-08-27T07:42:43Z</time>
      </trkpt>
      <trkpt lat="49.25025" lon="-1.53466">
        <ele>33</ele>
        <time>2022-08-27T07:42:46Z</time>
      </trkpt>
      <trkpt lat="49.25014" lon="-1.53461">
        <ele>33</ele>
        <time>2022-08-27T07:42:49Z</time>
      </trkpt>
      <trkpt lat="49.25009" lon="-1.5346">
        <ele>33</ele>
        <time>2022-08-27T07:42:50Z</time>
      </trkpt>
      <trkpt lat="49.24996" lon="-1.53457">
        <ele>32.6</ele>
        <time>2022-08-27T07:42:53Z</time>
      </trkpt>
      <trkpt lat="49.24987" lon="-1.53453">
        <ele>32.4</ele>
        <time>2022-08-27T07:42:55Z</time>
      </trkpt>
      <trkpt lat="49.24981" lon="-1.53451">
        <ele>32.2</ele>
        <time>2022-08-27T07:42:56Z</time>
      </trkpt>
      <trkpt lat="49.2496" lon="-1.53447">
        <ele>32</ele>
        <time>2022-08-27T07:42:59Z</time>
      </trkpt>
      <trkpt lat="49.24944" lon="-1.53443">
        <ele>31.8</ele>
        <time>2022-08-27T07:43:01Z</time>
      </trkpt>
      <trkpt lat="49.2492" lon="-1.53437">
        <ele>31.2</ele>
        <time>2022-08-27T07:43:04Z</time>
      </trkpt>
      <trkpt lat="49.24905" lon="-1.53433">
        <ele>31</ele>
        <time>2022-08-27T07:43:06Z</time>
      </trkpt>
      <trkpt lat="49.24867" lon="-1.53426">
        <ele>31</ele>
        <time>2022-08-27T07:43:11Z</time>
      </trkpt>
      <trkpt lat="49.24828" lon="-1.53415">
        <ele>31</ele>
        <time>2022-08-27T07:43:16Z</time>
      </trkpt>
      <trkpt lat="49.24789" lon="-1.53406">
        <ele>31.2</ele>
        <time>2022-08-27T07:43:21Z</time>
      </trkpt>
      <trkpt lat="49.24748" lon="-1.534">
        <ele>31.2</ele>
        <time>2022-08-27T07:43:26Z</time>
      </trkpt>
      <trkpt lat="49.24741" lon="-1.53399">
        <ele>31</ele>
        <time>2022-08-27T07:43:27Z</time>
      </trkpt>
      <trkpt lat="49.24712" lon="-1.53398">
        <ele>30.8</ele>
        <time>2022-08-27T07:43:31Z</time>
      </trkpt>
      <trkpt lat="49.24665" lon="-1.53391">
        <ele>30.4</ele>
        <time>2022-08-27T07:43:37Z</time>
      </trkpt>
      <trkpt lat="49.24627" lon="-1.53387">
        <ele>30.2</ele>
        <time>2022-08-27T07:43:42Z</time>
      </trkpt>
      <trkpt lat="49.24592" lon="-1.53385">
        <ele>30.2</ele>
        <time>2022-08-27T07:43:47Z</time>
      </trkpt>
      <trkpt lat="49.24578" lon="-1.53384">
        <ele>30.2</ele>
        <time>2022-08-27T07:43:49Z</time>
      </trkpt>
      <trkpt lat="49.24565" lon="-1.53384">
        <ele>30.4</ele>
        <time>2022-08-27T07:43:51Z</time>
      </trkpt>
      <trkpt lat="49.24554" lon="-1.53384">
        <ele>30.4</ele>
        <time>2022-08-27T07:43:53Z</time>
      </trkpt>
      <trkpt lat="49.2455" lon="-1.53383">
        <ele>30.4</ele>
        <time>2022-08-27T07:43:54Z</time>
      </trkpt>
      <trkpt lat="49.2454" lon="-1.5338">
        <ele>30.6</ele>
        <time>2022-08-27T07:43:57Z</time>
      </trkpt>
      <trkpt lat="49.2453" lon="-1.5338">
        <ele>30.8</ele>
        <time>2022-08-27T07:43:59Z</time>
      </trkpt>
      <trkpt lat="49.24523" lon="-1.53382">
        <ele>31</ele>
        <time>2022-08-27T07:44:00Z</time>
      </trkpt>
      <trkpt lat="49.24516" lon="-1.53382">
        <ele>30.6</ele>
        <time>2022-08-27T07:44:01Z</time>
      </trkpt>
      <trkpt lat="49.24507" lon="-1.53382">
        <ele>30.6</ele>
        <time>2022-08-27T07:44:03Z</time>
      </trkpt>
      <trkpt lat="49.24474" lon="-1.5338">
        <ele>30.8</ele>
        <time>2022-08-27T07:44:08Z</time>
      </trkpt>
      <trkpt lat="49.24459" lon="-1.53379">
        <ele>30.6</ele>
        <time>2022-08-27T07:44:10Z</time>
      </trkpt>
      <trkpt lat="49.24451" lon="-1.53379">
        <ele>30.6</ele>
        <time>2022-08-27T07:44:11Z</time>
      </trkpt>
      <trkpt lat="49.24423" lon="-1.53379">
        <ele>30.6</ele>
        <time>2022-08-27T07:44:15Z</time>
      </trkpt>
      <trkpt lat="49.24415" lon="-1.53379">
        <ele>30.6</ele>
        <time>2022-08-27T07:44:16Z</time>
      </trkpt>
      <trkpt lat="49.24408" lon="-1.53379">
        <ele>30.8</ele>
        <time>2022-08-27T07:44:17Z</time>
      </trkpt>
      <trkpt lat="49.24393" lon="-1.53379">
        <ele>30.4</ele>
        <time>2022-08-27T07:44:19Z</time>
      </trkpt>
      <trkpt lat="49.24355" lon="-1.53377">
        <ele>30.2</ele>
        <time>2022-08-27T07:44:24Z</time>
      </trkpt>
      <trkpt lat="49.24317" lon="-1.53374">
        <ele>29.8</ele>
        <time>2022-08-27T07:44:29Z</time>
      </trkpt>
      <trkpt lat="49.24295" lon="-1.53374">
        <ele>29.6</ele>
        <time>2022-08-27T07:44:32Z</time>
      </trkpt>
      <trkpt lat="49.2428" lon="-1.53373">
        <ele>29.6</ele>
        <time>2022-08-27T07:44:34Z</time>
      </trkpt>
      <trkpt lat="49.24242" lon="-1.53371">
        <ele>29.2</ele>
        <time>2022-08-27T07:44:39Z</time>
      </trkpt>
      <trkpt lat="49.24205" lon="-1.53372">
        <ele>29</ele>
        <time>2022-08-27T07:44:44Z</time>
      </trkpt>
      <trkpt lat="49.24173" lon="-1.5337">
        <ele>28.8</ele>
        <time>2022-08-27T07:44:48Z</time>
      </trkpt>
      <trkpt lat="49.24141" lon="-1.5337">
        <ele>28.6</ele>
        <time>2022-08-27T07:44:52Z</time>
      </trkpt>
      <trkpt lat="49.24086" lon="-1.53367">
        <ele>27.8</ele>
        <time>2022-08-27T07:44:59Z</time>
      </trkpt>
      <trkpt lat="49.2406" lon="-1.53366">
        <ele>27.6</ele>
        <time>2022-08-27T07:45:02Z</time>
      </trkpt>
      <trkpt lat="49.24052" lon="-1.53367">
        <ele>27.4</ele>
        <time>2022-08-27T07:45:03Z</time>
      </trkpt>
      <trkpt lat="49.24013" lon="-1.53364">
        <ele>26.8</ele>
        <time>2022-08-27T07:45:08Z</time>
      </trkpt>
      <trkpt lat="49.23965" lon="-1.53361">
        <ele>26.4</ele>
        <time>2022-08-27T07:45:14Z</time>
      </trkpt>
      <trkpt lat="49.23917" lon="-1.53359">
        <ele>25.8</ele>
        <time>2022-08-27T07:45:20Z</time>
      </trkpt>
      <trkpt lat="49.23868" lon="-1.53358">
        <ele>25.4</ele>
        <time>2022-08-27T07:45:26Z</time>
      </trkpt>
      <trkpt lat="49.23813" lon="-1.53357">
        <ele>25</ele>
        <time>2022-08-27T07:45:33Z</time>
      </trkpt>
      <trkpt lat="49.23768" lon="-1.53358">
        <ele>24.2</ele>
        <time>2022-08-27T07:45:39Z</time>
      </trkpt>
      <trkpt lat="49.23731" lon="-1.53356">
        <ele>23.6</ele>
        <time>2022-08-27T07:45:44Z</time>
      </trkpt>
      <trkpt lat="49.23675" lon="-1.53353">
        <ele>22.8</ele>
        <time>2022-08-27T07:45:51Z</time>
      </trkpt>
      <trkpt lat="49.23638" lon="-1.53351">
        <ele>22.6</ele>
        <time>2022-08-27T07:45:56Z</time>
      </trkpt>
      <trkpt lat="49.236" lon="-1.53349">
        <ele>22.2</ele>
        <time>2022-08-27T07:46:01Z</time>
      </trkpt>
      <trkpt lat="49.23568" lon="-1.53348">
        <ele>21.8</ele>
        <time>2022-08-27T07:46:05Z</time>
      </trkpt>
      <trkpt lat="49.2353" lon="-1.53349">
        <ele>20.8</ele>
        <time>2022-08-27T07:46:10Z</time>
      </trkpt>
      <trkpt lat="49.23501" lon="-1.53349">
        <ele>20</ele>
        <time>2022-08-27T07:46:14Z</time>
      </trkpt>
      <trkpt lat="49.23494" lon="-1.5335">
        <ele>19.8</ele>
        <time>2022-08-27T07:46:15Z</time>
      </trkpt>
      <trkpt lat="49.2346" lon="-1.53347">
        <ele>19</ele>
        <time>2022-08-27T07:46:20Z</time>
      </trkpt>
      <trkpt lat="49.2343" lon="-1.53344">
        <ele>18.4</ele>
        <time>2022-08-27T07:46:24Z</time>
      </trkpt>
      <trkpt lat="49.23424" lon="-1.53344">
        <ele>18.2</ele>
        <time>2022-08-27T07:46:25Z</time>
      </trkpt>
      <trkpt lat="49.23404" lon="-1.53344">
        <ele>17.6</ele>
        <time>2022-08-27T07:46:28Z</time>
      </trkpt>
      <trkpt lat="49.23361" lon="-1.53342">
        <ele>16.4</ele>
        <time>2022-08-27T07:46:34Z</time>
      </trkpt>
      <trkpt lat="49.23323" lon="-1.53344">
        <ele>15.4</ele>
        <time>2022-08-27T07:46:39Z</time>
      </trkpt>
      <trkpt lat="49.233" lon="-1.53342">
        <ele>14.8</ele>
        <time>2022-08-27T07:46:42Z</time>
      </trkpt>
      <trkpt lat="49.23283" lon="-1.53342">
        <ele>14.6</ele>
        <time>2022-08-27T07:46:44Z</time>
      </trkpt>
      <trkpt lat="49.23245" lon="-1.53339">
        <ele>14.2</ele>
        <time>2022-08-27T07:46:49Z</time>
      </trkpt>
      <trkpt lat="49.23199" lon="-1.53337">
        <ele>13.4</ele>
        <time>2022-08-27T07:46:55Z</time>
      </trkpt>
      <trkpt lat="49.23185" lon="-1.53337">
        <ele>13.2</ele>
        <time>2022-08-27T07:46:57Z</time>
      </trkpt>
      <trkpt lat="49.23172" lon="-1.53337">
        <ele>13</ele>
        <time>2022-08-27T07:46:59Z</time>
      </trkpt>
      <trkpt lat="49.23166" lon="-1.53337">
        <ele>12.8</ele>
        <time>2022-08-27T07:47:00Z</time>
      </trkpt>
      <trkpt lat="49.23153" lon="-1.53334">
        <ele>12.2</ele>
        <time>2022-08-27T07:47:02Z</time>
      </trkpt>
      <trkpt lat="49.23133" lon="-1.53332">
        <ele>11.8</ele>
        <time>2022-08-27T07:47:05Z</time>
      </trkpt>
      <trkpt lat="49.23095" lon="-1.53329">
        <ele>10.6</ele>
        <time>2022-08-27T07:47:10Z</time>
      </trkpt>
      <trkpt lat="49.23063" lon="-1.53328">
        <ele>10</ele>
        <time>2022-08-27T07:47:14Z</time>
      </trkpt>
      <trkpt lat="49.23033" lon="-1.53326">
        <ele>9.4</ele>
        <time>2022-08-27T07:47:18Z</time>
      </trkpt>
      <trkpt lat="49.23011" lon="-1.53323">
        <ele>9.4</ele>
        <time>2022-08-27T07:47:21Z</time>
      </trkpt>
      <trkpt lat="49.22969" lon="-1.53317">
        <ele>9.2</ele>
        <time>2022-08-27T07:47:26Z</time>
      </trkpt>
      <trkpt lat="49.22926" lon="-1.5331">
        <ele>9.4</ele>
        <time>2022-08-27T07:47:31Z</time>
      </trkpt>
      <trkpt lat="49.22908" lon="-1.53306">
        <ele>9.4</ele>
        <time>2022-08-27T07:47:33Z</time>
      </trkpt>
      <trkpt lat="49.22893" lon="-1.53301">
        <ele>9.4</ele>
        <time>2022-08-27T07:47:35Z</time>
      </trkpt>
      <trkpt lat="49.22845" lon="-1.53284">
        <ele>9</ele>
        <time>2022-08-27T07:47:41Z</time>
      </trkpt>
      <trkpt lat="49.2281" lon="-1.5327">
        <ele>8.6</ele>
        <time>2022-08-27T07:47:46Z</time>
      </trkpt>
      <trkpt lat="49.22803" lon="-1.53267">
        <ele>8.6</ele>
        <time>2022-08-27T07:47:47Z</time>
      </trkpt>
      <trkpt lat="49.22778" lon="-1.53258">
        <ele>8.6</ele>
        <time>2022-08-27T07:47:51Z</time>
      </trkpt>
      <trkpt lat="49.22772" lon="-1.53256">
        <ele>8.6</ele>
        <time>2022-08-27T07:47:52Z</time>
      </trkpt>
      <trkpt lat="49.22761" lon="-1.53257">
        <ele>8.8</ele>
        <time>2022-08-27T07:47:54Z</time>
      </trkpt>
      <trkpt lat="49.22743" lon="-1.53247">
        <ele>9.4</ele>
        <time>2022-08-27T07:47:58Z</time>
      </trkpt>
      <trkpt lat="49.22722" lon="-1.53241">
        <ele>9.6</ele>
        <time>2022-08-27T07:48:03Z</time>
      </trkpt>
      <trkpt lat="49.22712" lon="-1.53241">
        <ele>9.6</ele>
        <time>2022-08-27T07:48:05Z</time>
      </trkpt>
      <trkpt lat="49.22702" lon="-1.53235">
        <ele>9.6</ele>
        <time>2022-08-27T07:48:07Z</time>
      </trkpt>
      <trkpt lat="49.2267" lon="-1.53225">
        <ele>9.4</ele>
        <time>2022-08-27T07:48:12Z</time>
      </trkpt>
      <trkpt lat="49.22663" lon="-1.53223">
        <ele>9.4</ele>
        <time>2022-08-27T07:48:13Z</time>
      </trkpt>
      <trkpt lat="49.22651" lon="-1.53218">
        <ele>9.4</ele>
        <time>2022-08-27T07:48:15Z</time>
      </trkpt>
      <trkpt lat="49.22644" lon="-1.53216">
        <ele>9.4</ele>
        <time>2022-08-27T07:48:16Z</time>
      </trkpt>
      <trkpt lat="49.22633" lon="-1.53211">
        <ele>9.4</ele>
        <time>2022-08-27T07:48:18Z</time>
      </trkpt>
      <trkpt lat="49.22618" lon="-1.53207">
        <ele>9.4</ele>
        <time>2022-08-27T07:48:20Z</time>
      </trkpt>
      <trkpt lat="49.22569" lon="-1.53189">
        <ele>9.6</ele>
        <time>2022-08-27T07:48:27Z</time>
      </trkpt>
      <trkpt lat="49.22547" lon="-1.53182">
        <ele>9.6</ele>
        <time>2022-08-27T07:48:30Z</time>
      </trkpt>
      <trkpt lat="49.2254" lon="-1.53179">
        <ele>9.6</ele>
        <time>2022-08-27T07:48:31Z</time>
      </trkpt>
      <trkpt lat="49.22498" lon="-1.53164">
        <ele>9.4</ele>
        <time>2022-08-27T07:48:37Z</time>
      </trkpt>
      <trkpt lat="49.22456" lon="-1.53149">
        <ele>8.6</ele>
        <time>2022-08-27T07:48:43Z</time>
      </trkpt>
      <trkpt lat="49.22419" lon="-1.53138">
        <ele>7.8</ele>
        <time>2022-08-27T07:48:48Z</time>
      </trkpt>
      <trkpt lat="49.22398" lon="-1.5313">
        <ele>7.4</ele>
        <time>2022-08-27T07:48:51Z</time>
      </trkpt>
      <trkpt lat="49.22384" lon="-1.53126">
        <ele>7</ele>
        <time>2022-08-27T07:48:53Z</time>
      </trkpt>
      <trkpt lat="49.22378" lon="-1.53123">
        <ele>7</ele>
        <time>2022-08-27T07:48:54Z</time>
      </trkpt>
      <trkpt lat="49.22358" lon="-1.53113">
        <ele>6.8</ele>
        <time>2022-08-27T07:48:57Z</time>
      </trkpt>
      <trkpt lat="49.22342" lon="-1.53104">
        <ele>6.4</ele>
        <time>2022-08-27T07:49:00Z</time>
      </trkpt>
      <trkpt lat="49.22331" lon="-1.53104">
        <ele>6.2</ele>
        <time>2022-08-27T07:49:02Z</time>
      </trkpt>
      <trkpt lat="49.22319" lon="-1.53099">
        <ele>6.4</ele>
        <time>2022-08-27T07:49:05Z</time>
      </trkpt>
      <trkpt lat="49.22306" lon="-1.53096">
        <ele>6.4</ele>
        <time>2022-08-27T07:49:09Z</time>
      </trkpt>
      <trkpt lat="49.22302" lon="-1.53095">
        <ele>6.4</ele>
        <time>2022-08-27T07:49:10Z</time>
      </trkpt>
      <trkpt lat="49.22297" lon="-1.53094">
        <ele>6.4</ele>
        <time>2022-08-27T07:49:11Z</time>
      </trkpt>
      <trkpt lat="49.22286" lon="-1.53088">
        <ele>6</ele>
        <time>2022-08-27T07:49:13Z</time>
      </trkpt>
      <trkpt lat="49.22253" lon="-1.53077">
        <ele>5.8</ele>
        <time>2022-08-27T07:49:18Z</time>
      </trkpt>
      <trkpt lat="49.22246" lon="-1.53075">
        <ele>5.8</ele>
        <time>2022-08-27T07:49:19Z</time>
      </trkpt>
      <trkpt lat="49.22229" lon="-1.53068">
        <ele>5.6</ele>
        <time>2022-08-27T07:49:22Z</time>
      </trkpt>
      <trkpt lat="49.22219" lon="-1.53064">
        <ele>5.6</ele>
        <time>2022-08-27T07:49:24Z</time>
      </trkpt>
      <trkpt lat="49.22203" lon="-1.53057">
        <ele>5.4</ele>
        <time>2022-08-27T07:49:27Z</time>
      </trkpt>
      <trkpt lat="49.22192" lon="-1.53053">
        <ele>5.4</ele>
        <time>2022-08-27T07:49:29Z</time>
      </trkpt>
      <trkpt lat="49.22181" lon="-1.53049">
        <ele>5.4</ele>
        <time>2022-08-27T07:49:31Z</time>
      </trkpt>
      <trkpt lat="49.22169" lon="-1.53045">
        <ele>5.2</ele>
        <time>2022-08-27T07:49:33Z</time>
      </trkpt>
      <trkpt lat="49.22153" lon="-1.53038">
        <ele>5.2</ele>
        <time>2022-08-27T07:49:36Z</time>
      </trkpt>
      <trkpt lat="49.22135" lon="-1.53034">
        <ele>4.8</ele>
        <time>2022-08-27T07:49:39Z</time>
      </trkpt>
      <trkpt lat="49.22129" lon="-1.53032">
        <ele>4.8</ele>
        <time>2022-08-27T07:49:40Z</time>
      </trkpt>
      <trkpt lat="49.22123" lon="-1.53031">
        <ele>4.8</ele>
        <time>2022-08-27T07:49:41Z</time>
      </trkpt>
      <trkpt lat="49.22113" lon="-1.53028">
        <ele>4.4</ele>
        <time>2022-08-27T07:49:43Z</time>
      </trkpt>
      <trkpt lat="49.22105" lon="-1.53025">
        <ele>4.2</ele>
        <time>2022-08-27T07:49:45Z</time>
      </trkpt>
      <trkpt lat="49.22102" lon="-1.53026">
        <ele>4</ele>
        <time>2022-08-27T07:49:46Z</time>
      </trkpt>
      <trkpt lat="49.22101" lon="-1.53037">
        <ele>3.8</ele>
        <time>2022-08-27T07:49:48Z</time>
      </trkpt>
      <trkpt lat="49.22101" lon="-1.53043">
        <ele>3.8</ele>
        <time>2022-08-27T07:49:49Z</time>
      </trkpt>
      <trkpt lat="49.22103" lon="-1.53057">
        <ele>3.6</ele>
        <time>2022-08-27T07:49:51Z</time>
      </trkpt>
      <trkpt lat="49.22106" lon="-1.53071">
        <ele>3.2</ele>
        <time>2022-08-27T07:49:53Z</time>
      </trkpt>
      <trkpt lat="49.22119" lon="-1.53107">
        <ele>2.4</ele>
        <time>2022-08-27T07:49:58Z</time>
      </trkpt>
      <trkpt lat="49.22131" lon="-1.53132">
        <ele>2.2</ele>
        <time>2022-08-27T07:50:01Z</time>
      </trkpt>
      <trkpt lat="49.22137" lon="-1.53148">
        <ele>2</ele>
        <time>2022-08-27T07:50:03Z</time>
      </trkpt>
      <trkpt lat="49.22139" lon="-1.53155">
        <ele>2.2</ele>
        <time>2022-08-27T07:50:04Z</time>
      </trkpt>
      <trkpt lat="49.22142" lon="-1.53161">
        <ele>2.2</ele>
        <time>2022-08-27T07:50:05Z</time>
      </trkpt>
      <trkpt lat="49.22152" lon="-1.53176">
        <ele>2.4</ele>
        <time>2022-08-27T07:50:08Z</time>
      </trkpt>
      <trkpt lat="49.22154" lon="-1.5318">
        <ele>2.4</ele>
        <time>2022-08-27T07:50:09Z</time>
      </trkpt>
      <trkpt lat="49.22155" lon="-1.53187">
        <ele>2.6</ele>
        <time>2022-08-27T07:50:11Z</time>
      </trkpt>
      <trkpt lat="49.22155" lon="-1.53191">
        <ele>2</ele>
        <time>2022-08-27T07:50:14Z</time>
      </trkpt>
      <trkpt lat="49.22155" lon="-1.53193">
        <ele>2.2</ele>
        <time>2022-08-27T07:50:25Z</time>
      </trkpt>
      <trkpt lat="49.22154" lon="-1.53197">
        <ele>2.6</ele>
        <time>2022-08-27T07:50:26Z</time>
      </trkpt>
      <trkpt lat="49.22148" lon="-1.53201">
        <ele>2.4</ele>
        <time>2022-08-27T07:50:28Z</time>
      </trkpt>
      <trkpt lat="49.22144" lon="-1.53202">
        <ele>2.4</ele>
        <time>2022-08-27T07:50:29Z</time>
      </trkpt>
      <trkpt lat="49.22134" lon="-1.53198">
        <ele>2.4</ele>
        <time>2022-08-27T07:50:31Z</time>
      </trkpt>
      <trkpt lat="49.22128" lon="-1.53197">
        <ele>2.4</ele>
        <time>2022-08-27T07:50:32Z</time>
      </trkpt>
      <trkpt lat="49.22104" lon="-1.53192">
        <ele>2.6</ele>
        <time>2022-08-27T07:50:36Z</time>
      </trkpt>
      <trkpt lat="49.22052" lon="-1.53175">
        <ele>2.6</ele>
        <time>2022-08-27T07:50:45Z</time>
      </trkpt>
      <trkpt lat="49.22022" lon="-1.53172">
        <ele>3</ele>
        <time>2022-08-27T07:50:50Z</time>
      </trkpt>
      <trkpt lat="49.22001" lon="-1.53163">
        <ele>3.2</ele>
        <time>2022-08-27T07:50:54Z</time>
      </trkpt>
      <trkpt lat="49.21992" lon="-1.53158">
        <ele>3.2</ele>
        <time>2022-08-27T07:50:56Z</time>
      </trkpt>
      <trkpt lat="49.2195" lon="-1.53148">
        <ele>3.6</ele>
        <time>2022-08-27T07:51:03Z</time>
      </trkpt>
      <trkpt lat="49.21904" lon="-1.53144">
        <ele>3.8</ele>
        <time>2022-08-27T07:51:10Z</time>
      </trkpt>
      <trkpt lat="49.21862" lon="-1.53145">
        <ele>4.2</ele>
        <time>2022-08-27T07:51:16Z</time>
      </trkpt>
      <trkpt lat="49.21813" lon="-1.53144">
        <ele>4.4</ele>
        <time>2022-08-27T07:51:23Z</time>
      </trkpt>
      <trkpt lat="49.21777" lon="-1.53142">
        <ele>4.6</ele>
        <time>2022-08-27T07:51:29Z</time>
      </trkpt>
      <trkpt lat="49.21774" lon="-1.53134">
        <ele>4.6</ele>
        <time>2022-08-27T07:51:31Z</time>
      </trkpt>
      <trkpt lat="49.21766" lon="-1.53125">
        <ele>4.6</ele>
        <time>2022-08-27T07:51:34Z</time>
      </trkpt>
      <trkpt lat="49.21763" lon="-1.53116">
        <ele>4.8</ele>
        <time>2022-08-27T07:51:36Z</time>
      </trkpt>
      <trkpt lat="49.21761" lon="-1.53113">
        <ele>4.8</ele>
        <time>2022-08-27T07:51:37Z</time>
      </trkpt>
      <trkpt lat="49.21754" lon="-1.53116">
        <ele>4.8</ele>
        <time>2022-08-27T07:51:39Z</time>
      </trkpt>
      <trkpt lat="49.21751" lon="-1.53122">
        <ele>4.8</ele>
        <time>2022-08-27T07:51:40Z</time>
      </trkpt>
      <trkpt lat="49.21744" lon="-1.53132">
        <ele>4.8</ele>
        <time>2022-08-27T07:51:42Z</time>
      </trkpt>
      <trkpt lat="49.21726" lon="-1.53132">
        <ele>4.8</ele>
        <time>2022-08-27T07:51:45Z</time>
      </trkpt>
      <trkpt lat="49.21678" lon="-1.5312">
        <ele>4.8</ele>
        <time>2022-08-27T07:51:53Z</time>
      </trkpt>
      <trkpt lat="49.21628" lon="-1.5311">
        <ele>5.2</ele>
        <time>2022-08-27T07:52:02Z</time>
      </trkpt>
      <trkpt lat="49.21619" lon="-1.53109">
        <ele>5.2</ele>
        <time>2022-08-27T07:52:04Z</time>
      </trkpt>
      <trkpt lat="49.21617" lon="-1.5311">
        <ele>5.2</ele>
        <time>2022-08-27T07:52:05Z</time>
      </trkpt>
      <trkpt lat="49.21617" lon="-1.53111">
        <ele>5</ele>
        <time>2022-08-27T07:52:07Z</time>
      </trkpt>
      <trkpt lat="49.21617" lon="-1.53117">
        <ele>5</ele>
        <time>2022-08-27T07:52:10Z</time>
      </trkpt>
      <trkpt lat="49.21614" lon="-1.53123">
        <ele>5.2</ele>
        <time>2022-08-27T07:52:12Z</time>
      </trkpt>
      <trkpt lat="49.21611" lon="-1.53123">
        <ele>5.4</ele>
        <time>2022-08-27T07:52:13Z</time>
      </trkpt>
      <trkpt lat="49.21588" lon="-1.53118">
        <ele>5.4</ele>
        <time>2022-08-27T07:52:19Z</time>
      </trkpt>
      <trkpt lat="49.21556" lon="-1.5311">
        <ele>5.8</ele>
        <time>2022-08-27T07:52:26Z</time>
      </trkpt>
      <trkpt lat="49.21548" lon="-1.53107">
        <ele>5.8</ele>
        <time>2022-08-27T07:52:28Z</time>
      </trkpt>
      <trkpt lat="49.2153" lon="-1.53098">
        <ele>6</ele>
        <time>2022-08-27T07:52:32Z</time>
      </trkpt>
      <trkpt lat="49.21498" lon="-1.53083">
        <ele>6.6</ele>
        <time>2022-08-27T07:52:39Z</time>
      </trkpt>
      <trkpt lat="49.21461" lon="-1.53059">
        <ele>7.2</ele>
        <time>2022-08-27T07:52:47Z</time>
      </trkpt>
      <trkpt lat="49.21429" lon="-1.53031">
        <ele>7.6</ele>
        <time>2022-08-27T07:52:54Z</time>
      </trkpt>
      <trkpt lat="49.21389" lon="-1.52999">
        <ele>8.2</ele>
        <time>2022-08-27T07:53:02Z</time>
      </trkpt>
      <trkpt lat="49.2138" lon="-1.52993">
        <ele>8.2</ele>
        <time>2022-08-27T07:53:04Z</time>
      </trkpt>
      <trkpt lat="49.21372" lon="-1.52987">
        <ele>8.4</ele>
        <time>2022-08-27T07:53:06Z</time>
      </trkpt>
      <trkpt lat="49.21361" lon="-1.52973">
        <ele>8.4</ele>
        <time>2022-08-27T07:53:09Z</time>
      </trkpt>
      <trkpt lat="49.21352" lon="-1.52964">
        <ele>8.6</ele>
        <time>2022-08-27T07:53:11Z</time>
      </trkpt>
      <trkpt lat="49.21318" lon="-1.52938">
        <ele>9</ele>
        <time>2022-08-27T07:53:18Z</time>
      </trkpt>
      <trkpt lat="49.21313" lon="-1.52934">
        <ele>9</ele>
        <time>2022-08-27T07:53:19Z</time>
      </trkpt>
      <trkpt lat="49.21304" lon="-1.52927">
        <ele>9.2</ele>
        <time>2022-08-27T07:53:21Z</time>
      </trkpt>
      <trkpt lat="49.213" lon="-1.52922">
        <ele>9.2</ele>
        <time>2022-08-27T07:53:22Z</time>
      </trkpt>
      <trkpt lat="49.21292" lon="-1.52912">
        <ele>9.2</ele>
        <time>2022-08-27T07:53:24Z</time>
      </trkpt>
      <trkpt lat="49.21286" lon="-1.5291">
        <ele>9.4</ele>
        <time>2022-08-27T07:53:26Z</time>
      </trkpt>
      <trkpt lat="49.2128" lon="-1.52915">
        <ele>9.4</ele>
        <time>2022-08-27T07:53:28Z</time>
      </trkpt>
      <trkpt lat="49.21272" lon="-1.5292">
        <ele>9.6</ele>
        <time>2022-08-27T07:53:30Z</time>
      </trkpt>
      <trkpt lat="49.21255" lon="-1.52927">
        <ele>9.8</ele>
        <time>2022-08-27T07:53:34Z</time>
      </trkpt>
      <trkpt lat="49.21248" lon="-1.5293">
        <ele>10</ele>
        <time>2022-08-27T07:53:36Z</time>
      </trkpt>
      <trkpt lat="49.21236" lon="-1.52941">
        <ele>10</ele>
        <time>2022-08-27T07:53:40Z</time>
      </trkpt>
      <trkpt lat="49.21222" lon="-1.52945">
        <ele>10.2</ele>
        <time>2022-08-27T07:53:44Z</time>
      </trkpt>
      <trkpt lat="49.21221" lon="-1.52945">
        <ele>10.2</ele>
        <time>2022-08-27T07:53:46Z</time>
      </trkpt>
      <trkpt lat="49.21217" lon="-1.52948">
        <ele>10.6</ele>
        <time>2022-08-27T07:53:52Z</time>
      </trkpt>
      <trkpt lat="49.21211" lon="-1.52947">
        <ele>10.6</ele>
        <time>2022-08-27T07:53:54Z</time>
      </trkpt>
      <trkpt lat="49.21208" lon="-1.52942">
        <ele>10.6</ele>
        <time>2022-08-27T07:53:55Z</time>
      </trkpt>
      <trkpt lat="49.21206" lon="-1.52935">
        <ele>10.6</ele>
        <time>2022-08-27T07:53:56Z</time>
      </trkpt>
      <trkpt lat="49.21206" lon="-1.52919">
        <ele>10.6</ele>
        <time>2022-08-27T07:53:58Z</time>
      </trkpt>
      <trkpt lat="49.21209" lon="-1.52888">
        <ele>10.8</ele>
        <time>2022-08-27T07:54:02Z</time>
      </trkpt>
      <trkpt lat="49.21209" lon="-1.52882">
        <ele>10.8</ele>
        <time>2022-08-27T07:54:03Z</time>
      </trkpt>
      <trkpt lat="49.21206" lon="-1.52871">
        <ele>10.8</ele>
        <time>2022-08-27T07:54:05Z</time>
      </trkpt>
      <trkpt lat="49.21203" lon="-1.52866">
        <ele>10.8</ele>
        <time>2022-08-27T07:54:06Z</time>
      </trkpt>
      <trkpt lat="49.21201" lon="-1.5286">
        <ele>10.8</ele>
        <time>2022-08-27T07:54:07Z</time>
      </trkpt>
      <trkpt lat="49.21196" lon="-1.52847">
        <ele>10.8</ele>
        <time>2022-08-27T07:54:09Z</time>
      </trkpt>
      <trkpt lat="49.21193" lon="-1.5284">
        <ele>10.8</ele>
        <time>2022-08-27T07:54:10Z</time>
      </trkpt>
      <trkpt lat="49.21189" lon="-1.52834">
        <ele>11</ele>
        <time>2022-08-27T07:54:11Z</time>
      </trkpt>
      <trkpt lat="49.21179" lon="-1.52826">
        <ele>10.8</ele>
        <time>2022-08-27T07:54:13Z</time>
      </trkpt>
      <trkpt lat="49.21147" lon="-1.52806">
        <ele>11.2</ele>
        <time>2022-08-27T07:54:19Z</time>
      </trkpt>
      <trkpt lat="49.21111" lon="-1.52773">
        <ele>11.4</ele>
        <time>2022-08-27T07:54:26Z</time>
      </trkpt>
      <trkpt lat="49.21063" lon="-1.52733">
        <ele>11.8</ele>
        <time>2022-08-27T07:54:35Z</time>
      </trkpt>
      <trkpt lat="49.21057" lon="-1.52729">
        <ele>11.8</ele>
        <time>2022-08-27T07:54:36Z</time>
      </trkpt>
      <trkpt lat="49.21007" lon="-1.5269">
        <ele>12.2</ele>
        <time>2022-08-27T07:54:45Z</time>
      </trkpt>
      <trkpt lat="49.21001" lon="-1.52685">
        <ele>12.2</ele>
        <time>2022-08-27T07:54:46Z</time>
      </trkpt>
      <trkpt lat="49.20949" lon="-1.52645">
        <ele>12.8</ele>
        <time>2022-08-27T07:54:55Z</time>
      </trkpt>
      <trkpt lat="49.20898" lon="-1.52604">
        <ele>13.2</ele>
        <time>2022-08-27T07:55:04Z</time>
      </trkpt>
      <trkpt lat="49.20848" lon="-1.52566">
        <ele>13.6</ele>
        <time>2022-08-27T07:55:13Z</time>
      </trkpt>
      <trkpt lat="49.20836" lon="-1.52557">
        <ele>13.6</ele>
        <time>2022-08-27T07:55:15Z</time>
      </trkpt>
      <trkpt lat="49.20787" lon="-1.52519">
        <ele>13.8</ele>
        <time>2022-08-27T07:55:24Z</time>
      </trkpt>
      <trkpt lat="49.20781" lon="-1.52514">
        <ele>13.8</ele>
        <time>2022-08-27T07:55:25Z</time>
      </trkpt>
      <trkpt lat="49.20735" lon="-1.52477">
        <ele>14</ele>
        <time>2022-08-27T07:55:33Z</time>
      </trkpt>
      <trkpt lat="49.20686" lon="-1.5244">
        <ele>14.4</ele>
        <time>2022-08-27T07:55:41Z</time>
      </trkpt>
      <trkpt lat="49.2064" lon="-1.52415">
        <ele>14.6</ele>
        <time>2022-08-27T07:55:48Z</time>
      </trkpt>
      <trkpt lat="49.20585" lon="-1.52394">
        <ele>14.8</ele>
        <time>2022-08-27T07:55:56Z</time>
      </trkpt>
      <trkpt lat="49.20578" lon="-1.52392">
        <ele>14.8</ele>
        <time>2022-08-27T07:55:57Z</time>
      </trkpt>
      <trkpt lat="49.2052" lon="-1.5237">
        <ele>15.2</ele>
        <time>2022-08-27T07:56:06Z</time>
      </trkpt>
      <trkpt lat="49.20513" lon="-1.52368">
        <ele>15.2</ele>
        <time>2022-08-27T07:56:07Z</time>
      </trkpt>
      <trkpt lat="49.20455" lon="-1.52346">
        <ele>15.6</ele>
        <time>2022-08-27T07:56:16Z</time>
      </trkpt>
      <trkpt lat="49.20397" lon="-1.52325">
        <ele>15.8</ele>
        <time>2022-08-27T07:56:25Z</time>
      </trkpt>
      <trkpt lat="49.20347" lon="-1.52306">
        <ele>16.2</ele>
        <time>2022-08-27T07:56:33Z</time>
      </trkpt>
      <trkpt lat="49.20321" lon="-1.52298">
        <ele>16.2</ele>
        <time>2022-08-27T07:56:37Z</time>
      </trkpt>
      <trkpt lat="49.20295" lon="-1.52293">
        <ele>16.6</ele>
        <time>2022-08-27T07:56:41Z</time>
      </trkpt>
      <trkpt lat="49.20242" lon="-1.52282">
        <ele>16.8</ele>
        <time>2022-08-27T07:56:49Z</time>
      </trkpt>
      <trkpt lat="49.20182" lon="-1.52271">
        <ele>16.6</ele>
        <time>2022-08-27T07:56:57Z</time>
      </trkpt>
      <trkpt lat="49.20125" lon="-1.5226">
        <ele>16.6</ele>
        <time>2022-08-27T07:57:04Z</time>
      </trkpt>
      <trkpt lat="49.2011" lon="-1.52257">
        <ele>16.6</ele>
        <time>2022-08-27T07:57:06Z</time>
      </trkpt>
      <trkpt lat="49.20051" lon="-1.52248">
        <ele>17</ele>
        <time>2022-08-27T07:57:14Z</time>
      </trkpt>
      <trkpt lat="49.19996" lon="-1.52249">
        <ele>17</ele>
        <time>2022-08-27T07:57:22Z</time>
      </trkpt>
      <trkpt lat="49.19989" lon="-1.52249">
        <ele>17</ele>
        <time>2022-08-27T07:57:23Z</time>
      </trkpt>
      <trkpt lat="49.19935" lon="-1.52257">
        <ele>17.2</ele>
        <time>2022-08-27T07:57:31Z</time>
      </trkpt>
      <trkpt lat="49.19928" lon="-1.52258">
        <ele>17.2</ele>
        <time>2022-08-27T07:57:32Z</time>
      </trkpt>
      <trkpt lat="49.19869" lon="-1.52265">
        <ele>17.4</ele>
        <time>2022-08-27T07:57:40Z</time>
      </trkpt>
      <trkpt lat="49.19813" lon="-1.52264">
        <ele>17</ele>
        <time>2022-08-27T07:57:47Z</time>
      </trkpt>
      <trkpt lat="49.19805" lon="-1.52264">
        <ele>16.8</ele>
        <time>2022-08-27T07:57:48Z</time>
      </trkpt>
      <trkpt lat="49.19759" lon="-1.52261">
        <ele>16.6</ele>
        <time>2022-08-27T07:57:54Z</time>
      </trkpt>
      <trkpt lat="49.19707" lon="-1.52258">
        <ele>16.4</ele>
        <time>2022-08-27T07:58:01Z</time>
      </trkpt>
      <trkpt lat="49.19651" lon="-1.52255">
        <ele>16.4</ele>
        <time>2022-08-27T07:58:09Z</time>
      </trkpt>
      <trkpt lat="49.19605" lon="-1.52256">
        <ele>16.4</ele>
        <time>2022-08-27T07:58:16Z</time>
      </trkpt>
      <trkpt lat="49.19562" lon="-1.52263">
        <ele>16.6</ele>
        <time>2022-08-27T07:58:23Z</time>
      </trkpt>
      <trkpt lat="49.19528" lon="-1.5227">
        <ele>16.8</ele>
        <time>2022-08-27T07:58:29Z</time>
      </trkpt>
      <trkpt lat="49.19518" lon="-1.52272">
        <ele>16.8</ele>
        <time>2022-08-27T07:58:31Z</time>
      </trkpt>
      <trkpt lat="49.19507" lon="-1.52274">
        <ele>16.8</ele>
        <time>2022-08-27T07:58:33Z</time>
      </trkpt>
      <trkpt lat="49.19477" lon="-1.52281">
        <ele>17.2</ele>
        <time>2022-08-27T07:58:39Z</time>
      </trkpt>
      <trkpt lat="49.19458" lon="-1.52286">
        <ele>17.4</ele>
        <time>2022-08-27T07:58:43Z</time>
      </trkpt>
      <trkpt lat="49.1943" lon="-1.52292">
        <ele>17.8</ele>
        <time>2022-08-27T07:58:49Z</time>
      </trkpt>
      <trkpt lat="49.19393" lon="-1.52301">
        <ele>18.4</ele>
        <time>2022-08-27T07:58:57Z</time>
      </trkpt>
      <trkpt lat="49.1937" lon="-1.52308">
        <ele>18.8</ele>
        <time>2022-08-27T07:59:02Z</time>
      </trkpt>
      <trkpt lat="49.19335" lon="-1.52318">
        <ele>19.4</ele>
        <time>2022-08-27T07:59:09Z</time>
      </trkpt>
      <trkpt lat="49.19302" lon="-1.52328">
        <ele>20</ele>
        <time>2022-08-27T07:59:16Z</time>
      </trkpt>
      <trkpt lat="49.19265" lon="-1.52338">
        <ele>20.8</ele>
        <time>2022-08-27T07:59:24Z</time>
      </trkpt>
      <trkpt lat="49.1923" lon="-1.52346">
        <ele>21.4</ele>
        <time>2022-08-27T07:59:31Z</time>
      </trkpt>
      <trkpt lat="49.19204" lon="-1.5235">
        <ele>22</ele>
        <time>2022-08-27T07:59:36Z</time>
      </trkpt>
      <trkpt lat="49.19161" lon="-1.52348">
        <ele>22.6</ele>
        <time>2022-08-27T07:59:44Z</time>
      </trkpt>
      <trkpt lat="49.19116" lon="-1.52339">
        <ele>23.2</ele>
        <time>2022-08-27T07:59:52Z</time>
      </trkpt>
      <trkpt lat="49.19075" lon="-1.52326">
        <ele>24</ele>
        <time>2022-08-27T07:59:59Z</time>
      </trkpt>
      <trkpt lat="49.19069" lon="-1.52324">
        <ele>24</ele>
        <time>2022-08-27T08:00:00Z</time>
      </trkpt>
      <trkpt lat="49.19046" lon="-1.52316">
        <ele>24.4</ele>
        <time>2022-08-27T08:00:04Z</time>
      </trkpt>
      <trkpt lat="49.1901" lon="-1.52304">
        <ele>24.8</ele>
        <time>2022-08-27T08:00:10Z</time>
      </trkpt>
      <trkpt lat="49.18963" lon="-1.52288">
        <ele>25.4</ele>
        <time>2022-08-27T08:00:18Z</time>
      </trkpt>
      <trkpt lat="49.18938" lon="-1.52281">
        <ele>25.6</ele>
        <time>2022-08-27T08:00:22Z</time>
      </trkpt>
      <trkpt lat="49.18926" lon="-1.52277">
        <ele>25.6</ele>
        <time>2022-08-27T08:00:24Z</time>
      </trkpt>
      <trkpt lat="49.18903" lon="-1.5227">
        <ele>25.6</ele>
        <time>2022-08-27T08:00:28Z</time>
      </trkpt>
      <trkpt lat="49.1886" lon="-1.52255">
        <ele>25.6</ele>
        <time>2022-08-27T08:00:35Z</time>
      </trkpt>
      <trkpt lat="49.18829" lon="-1.52245">
        <ele>26</ele>
        <time>2022-08-27T08:00:40Z</time>
      </trkpt>
      <trkpt lat="49.1881" lon="-1.52239">
        <ele>24.8</ele>
        <time>2022-08-27T08:00:43Z</time>
      </trkpt>
      <trkpt lat="49.18783" lon="-1.52232">
        <ele>24.8</ele>
        <time>2022-08-27T08:00:47Z</time>
      </trkpt>
      <trkpt lat="49.18777" lon="-1.5223">
        <ele>24.6</ele>
        <time>2022-08-27T08:00:48Z</time>
      </trkpt>
      <trkpt lat="49.18745" lon="-1.52218">
        <ele>24.2</ele>
        <time>2022-08-27T08:00:53Z</time>
      </trkpt>
      <trkpt lat="49.18705" lon="-1.52204">
        <ele>23.6</ele>
        <time>2022-08-27T08:00:59Z</time>
      </trkpt>
      <trkpt lat="49.18678" lon="-1.52195">
        <ele>23.2</ele>
        <time>2022-08-27T08:01:03Z</time>
      </trkpt>
      <trkpt lat="49.1862" lon="-1.52176">
        <ele>23</ele>
        <time>2022-08-27T08:01:11Z</time>
      </trkpt>
      <trkpt lat="49.18613" lon="-1.52174">
        <ele>23.8</ele>
        <time>2022-08-27T08:01:12Z</time>
      </trkpt>
      <trkpt lat="49.18557" lon="-1.52155">
        <ele>24.6</ele>
        <time>2022-08-27T08:01:20Z</time>
      </trkpt>
      <trkpt lat="49.18544" lon="-1.52151">
        <ele>24.8</ele>
        <time>2022-08-27T08:01:22Z</time>
      </trkpt>
      <trkpt lat="49.18539" lon="-1.52148">
        <ele>24.8</ele>
        <time>2022-08-27T08:01:23Z</time>
      </trkpt>
      <trkpt lat="49.18532" lon="-1.52146">
        <ele>25</ele>
        <time>2022-08-27T08:01:24Z</time>
      </trkpt>
      <trkpt lat="49.18519" lon="-1.52142">
        <ele>25</ele>
        <time>2022-08-27T08:01:26Z</time>
      </trkpt>
      <trkpt lat="49.18494" lon="-1.52135">
        <ele>25.2</ele>
        <time>2022-08-27T08:01:30Z</time>
      </trkpt>
      <trkpt lat="49.18466" lon="-1.52128">
        <ele>25.2</ele>
        <time>2022-08-27T08:01:34Z</time>
      </trkpt>
      <trkpt lat="49.1841" lon="-1.52109">
        <ele>25.6</ele>
        <time>2022-08-27T08:01:42Z</time>
      </trkpt>
      <trkpt lat="49.18403" lon="-1.52106">
        <ele>25.6</ele>
        <time>2022-08-27T08:01:43Z</time>
      </trkpt>
      <trkpt lat="49.18369" lon="-1.52096">
        <ele>26</ele>
        <time>2022-08-27T08:01:48Z</time>
      </trkpt>
      <trkpt lat="49.18323" lon="-1.5208">
        <ele>26.4</ele>
        <time>2022-08-27T08:01:55Z</time>
      </trkpt>
      <trkpt lat="49.18269" lon="-1.52062">
        <ele>26.8</ele>
        <time>2022-08-27T08:02:03Z</time>
      </trkpt>
      <trkpt lat="49.18263" lon="-1.5206">
        <ele>26.8</ele>
        <time>2022-08-27T08:02:04Z</time>
      </trkpt>
      <trkpt lat="49.18217" lon="-1.52045">
        <ele>27.4</ele>
        <time>2022-08-27T08:02:11Z</time>
      </trkpt>
      <trkpt lat="49.18164" lon="-1.52028">
        <ele>27.8</ele>
        <time>2022-08-27T08:02:19Z</time>
      </trkpt>
      <trkpt lat="49.18138" lon="-1.52019">
        <ele>28</ele>
        <time>2022-08-27T08:02:23Z</time>
      </trkpt>
      <trkpt lat="49.18131" lon="-1.52018">
        <ele>28</ele>
        <time>2022-08-27T08:02:24Z</time>
      </trkpt>
      <trkpt lat="49.18124" lon="-1.52017">
        <ele>28.2</ele>
        <time>2022-08-27T08:02:25Z</time>
      </trkpt>
      <trkpt lat="49.18105" lon="-1.52011">
        <ele>28.4</ele>
        <time>2022-08-27T08:02:28Z</time>
      </trkpt>
      <trkpt lat="49.18072" lon="-1.52001">
        <ele>28.6</ele>
        <time>2022-08-27T08:02:33Z</time>
      </trkpt>
      <trkpt lat="49.18048" lon="-1.51992">
        <ele>28.8</ele>
        <time>2022-08-27T08:02:37Z</time>
      </trkpt>
      <trkpt lat="49.18016" lon="-1.51983">
        <ele>29</ele>
        <time>2022-08-27T08:02:42Z</time>
      </trkpt>
      <trkpt lat="49.17999" lon="-1.51978">
        <ele>29.2</ele>
        <time>2022-08-27T08:02:45Z</time>
      </trkpt>
      <trkpt lat="49.17978" lon="-1.51969">
        <ele>29.4</ele>
        <time>2022-08-27T08:02:49Z</time>
      </trkpt>
      <trkpt lat="49.17973" lon="-1.51966">
        <ele>29.4</ele>
        <time>2022-08-27T08:02:50Z</time>
      </trkpt>
      <trkpt lat="49.1796" lon="-1.51964">
        <ele>29.6</ele>
        <time>2022-08-27T08:02:52Z</time>
      </trkpt>
      <trkpt lat="49.17953" lon="-1.51963">
        <ele>29.6</ele>
        <time>2022-08-27T08:02:53Z</time>
      </trkpt>
      <trkpt lat="49.17947" lon="-1.51961">
        <ele>29.6</ele>
        <time>2022-08-27T08:02:54Z</time>
      </trkpt>
      <trkpt lat="49.17938" lon="-1.51956">
        <ele>29.6</ele>
        <time>2022-08-27T08:02:56Z</time>
      </trkpt>
      <trkpt lat="49.17927" lon="-1.51952">
        <ele>29.6</ele>
        <time>2022-08-27T08:02:58Z</time>
      </trkpt>
      <trkpt lat="49.17915" lon="-1.51948">
        <ele>29.6</ele>
        <time>2022-08-27T08:03:00Z</time>
      </trkpt>
      <trkpt lat="49.17877" lon="-1.51935">
        <ele>29.8</ele>
        <time>2022-08-27T08:03:06Z</time>
      </trkpt>
      <trkpt lat="49.17863" lon="-1.51933">
        <ele>30</ele>
        <time>2022-08-27T08:03:08Z</time>
      </trkpt>
      <trkpt lat="49.1785" lon="-1.5193">
        <ele>30</ele>
        <time>2022-08-27T08:03:10Z</time>
      </trkpt>
      <trkpt lat="49.1783" lon="-1.51922">
        <ele>30</ele>
        <time>2022-08-27T08:03:14Z</time>
      </trkpt>
      <trkpt lat="49.1782" lon="-1.51925">
        <ele>30.2</ele>
        <time>2022-08-27T08:03:16Z</time>
      </trkpt>
      <trkpt lat="49.17818" lon="-1.51929">
        <ele>30.2</ele>
        <time>2022-08-27T08:03:17Z</time>
      </trkpt>
      <trkpt lat="49.17816" lon="-1.51948">
        <ele>30.2</ele>
        <time>2022-08-27T08:03:20Z</time>
      </trkpt>
      <trkpt lat="49.17813" lon="-1.51956">
        <ele>30.2</ele>
        <time>2022-08-27T08:03:21Z</time>
      </trkpt>
      <trkpt lat="49.1781" lon="-1.51965">
        <ele>30.2</ele>
        <time>2022-08-27T08:03:22Z</time>
      </trkpt>
      <trkpt lat="49.17806" lon="-1.51983">
        <ele>30.2</ele>
        <time>2022-08-27T08:03:24Z</time>
      </trkpt>
      <trkpt lat="49.17804" lon="-1.52002">
        <ele>30.2</ele>
        <time>2022-08-27T08:03:26Z</time>
      </trkpt>
      <trkpt lat="49.178" lon="-1.5203">
        <ele>30.2</ele>
        <time>2022-08-27T08:03:29Z</time>
      </trkpt>
      <trkpt lat="49.17799" lon="-1.5204">
        <ele>30.2</ele>
        <time>2022-08-27T08:03:30Z</time>
      </trkpt>
      <trkpt lat="49.17794" lon="-1.52082">
        <ele>30.2</ele>
        <time>2022-08-27T08:03:34Z</time>
      </trkpt>
      <trkpt lat="49.17794" lon="-1.52091">
        <ele>30.4</ele>
        <time>2022-08-27T08:03:35Z</time>
      </trkpt>
      <trkpt lat="49.17794" lon="-1.52112">
        <ele>30.4</ele>
        <time>2022-08-27T08:03:37Z</time>
      </trkpt>
      <trkpt lat="49.1779" lon="-1.52133">
        <ele>30.4</ele>
        <time>2022-08-27T08:03:39Z</time>
      </trkpt>
      <trkpt lat="49.17789" lon="-1.52144">
        <ele>30.4</ele>
        <time>2022-08-27T08:03:40Z</time>
      </trkpt>
      <trkpt lat="49.17788" lon="-1.52155">
        <ele>30.4</ele>
        <time>2022-08-27T08:03:41Z</time>
      </trkpt>
      <trkpt lat="49.17785" lon="-1.52177">
        <ele>30.6</ele>
        <time>2022-08-27T08:03:43Z</time>
      </trkpt>
      <trkpt lat="49.17781" lon="-1.52221">
        <ele>30.6</ele>
        <time>2022-08-27T08:03:47Z</time>
      </trkpt>
      <trkpt lat="49.17781" lon="-1.52231">
        <ele>30.6</ele>
        <time>2022-08-27T08:03:48Z</time>
      </trkpt>
      <trkpt lat="49.17776" lon="-1.52296">
        <ele>30.6</ele>
        <time>2022-08-27T08:03:54Z</time>
      </trkpt>
      <trkpt lat="49.17773" lon="-1.52316">
        <ele>30.6</ele>
        <time>2022-08-27T08:03:56Z</time>
      </trkpt>
      <trkpt lat="49.17769" lon="-1.52338">
        <ele>30.6</ele>
        <time>2022-08-27T08:03:58Z</time>
      </trkpt>
      <trkpt lat="49.17766" lon="-1.52371">
        <ele>30.6</ele>
        <time>2022-08-27T08:04:01Z</time>
      </trkpt>
      <trkpt lat="49.17763" lon="-1.52402">
        <ele>30.6</ele>
        <time>2022-08-27T08:04:04Z</time>
      </trkpt>
      <trkpt lat="49.17762" lon="-1.52411">
        <ele>30.6</ele>
        <time>2022-08-27T08:04:05Z</time>
      </trkpt>
      <trkpt lat="49.17762" lon="-1.52421">
        <ele>30.8</ele>
        <time>2022-08-27T08:04:06Z</time>
      </trkpt>
      <trkpt lat="49.17764" lon="-1.5244">
        <ele>30.4</ele>
        <time>2022-08-27T08:04:08Z</time>
      </trkpt>
      <trkpt lat="49.17763" lon="-1.5246">
        <ele>30.4</ele>
        <time>2022-08-27T08:04:10Z</time>
      </trkpt>
      <trkpt lat="49.17759" lon="-1.52481">
        <ele>30.4</ele>
        <time>2022-08-27T08:04:12Z</time>
      </trkpt>
      <trkpt lat="49.17752" lon="-1.52532">
        <ele>30.2</ele>
        <time>2022-08-27T08:04:17Z</time>
      </trkpt>
      <trkpt lat="49.1775" lon="-1.52542">
        <ele>30.2</ele>
        <time>2022-08-27T08:04:18Z</time>
      </trkpt>
      <trkpt lat="49.17744" lon="-1.52583">
        <ele>30.2</ele>
        <time>2022-08-27T08:04:22Z</time>
      </trkpt>
      <trkpt lat="49.17743" lon="-1.52604">
        <ele>30.6</ele>
        <time>2022-08-27T08:04:24Z</time>
      </trkpt>
      <trkpt lat="49.17736" lon="-1.52661">
        <ele>31</ele>
        <time>2022-08-27T08:04:29Z</time>
      </trkpt>
      <trkpt lat="49.17735" lon="-1.52682">
        <ele>31</ele>
        <time>2022-08-27T08:04:31Z</time>
      </trkpt>
      <trkpt lat="49.17732" lon="-1.52711">
        <ele>31.2</ele>
        <time>2022-08-27T08:04:34Z</time>
      </trkpt>
      <trkpt lat="49.17731" lon="-1.52721">
        <ele>31.2</ele>
        <time>2022-08-27T08:04:35Z</time>
      </trkpt>
      <trkpt lat="49.17728" lon="-1.52739">
        <ele>31</ele>
        <time>2022-08-27T08:04:37Z</time>
      </trkpt>
      <trkpt lat="49.17724" lon="-1.52797">
        <ele>31.2</ele>
        <time>2022-08-27T08:04:43Z</time>
      </trkpt>
      <trkpt lat="49.17717" lon="-1.52856">
        <ele>31.2</ele>
        <time>2022-08-27T08:04:49Z</time>
      </trkpt>
      <trkpt lat="49.17716" lon="-1.52866">
        <ele>31.2</ele>
        <time>2022-08-27T08:04:50Z</time>
      </trkpt>
      <trkpt lat="49.17715" lon="-1.52886">
        <ele>31.2</ele>
        <time>2022-08-27T08:04:52Z</time>
      </trkpt>
      <trkpt lat="49.17714" lon="-1.52895">
        <ele>31.2</ele>
        <time>2022-08-27T08:04:53Z</time>
      </trkpt>
      <trkpt lat="49.17712" lon="-1.52915">
        <ele>31.4</ele>
        <time>2022-08-27T08:04:55Z</time>
      </trkpt>
      <trkpt lat="49.1771" lon="-1.52944">
        <ele>31.4</ele>
        <time>2022-08-27T08:04:58Z</time>
      </trkpt>
      <trkpt lat="49.17706" lon="-1.52973">
        <ele>31.4</ele>
        <time>2022-08-27T08:05:01Z</time>
      </trkpt>
      <trkpt lat="49.17704" lon="-1.53001">
        <ele>31.6</ele>
        <time>2022-08-27T08:05:04Z</time>
      </trkpt>
      <trkpt lat="49.17702" lon="-1.53021">
        <ele>31.6</ele>
        <time>2022-08-27T08:05:06Z</time>
      </trkpt>
      <trkpt lat="49.17698" lon="-1.53059">
        <ele>31.6</ele>
        <time>2022-08-27T08:05:10Z</time>
      </trkpt>
      <trkpt lat="49.17694" lon="-1.53104">
        <ele>31.6</ele>
        <time>2022-08-27T08:05:15Z</time>
      </trkpt>
      <trkpt lat="49.17688" lon="-1.53171">
        <ele>31.6</ele>
        <time>2022-08-27T08:05:22Z</time>
      </trkpt>
      <trkpt lat="49.17684" lon="-1.53202">
        <ele>31.6</ele>
        <time>2022-08-27T08:05:25Z</time>
      </trkpt>
      <trkpt lat="49.17683" lon="-1.53211">
        <ele>31.6</ele>
        <time>2022-08-27T08:05:26Z</time>
      </trkpt>
      <trkpt lat="49.17681" lon="-1.53231">
        <ele>31.4</ele>
        <time>2022-08-27T08:05:28Z</time>
      </trkpt>
      <trkpt lat="49.17676" lon="-1.53259">
        <ele>31.4</ele>
        <time>2022-08-27T08:05:31Z</time>
      </trkpt>
      <trkpt lat="49.17671" lon="-1.53314">
        <ele>31</ele>
        <time>2022-08-27T08:05:37Z</time>
      </trkpt>
      <trkpt lat="49.17667" lon="-1.53353">
        <ele>30.6</ele>
        <time>2022-08-27T08:05:41Z</time>
      </trkpt>
      <trkpt lat="49.17665" lon="-1.53373">
        <ele>30.4</ele>
        <time>2022-08-27T08:05:43Z</time>
      </trkpt>
      <trkpt lat="49.17658" lon="-1.53401">
        <ele>29.8</ele>
        <time>2022-08-27T08:05:46Z</time>
      </trkpt>
      <trkpt lat="49.17657" lon="-1.5341">
        <ele>29.6</ele>
        <time>2022-08-27T08:05:47Z</time>
      </trkpt>
      <trkpt lat="49.17656" lon="-1.53429">
        <ele>29.2</ele>
        <time>2022-08-27T08:05:49Z</time>
      </trkpt>
      <trkpt lat="49.17656" lon="-1.53438">
        <ele>29.2</ele>
        <time>2022-08-27T08:05:50Z</time>
      </trkpt>
      <trkpt lat="49.17656" lon="-1.53447">
        <ele>29</ele>
        <time>2022-08-27T08:05:51Z</time>
      </trkpt>
      <trkpt lat="49.17656" lon="-1.53464">
        <ele>28.6</ele>
        <time>2022-08-27T08:05:53Z</time>
      </trkpt>
      <trkpt lat="49.17657" lon="-1.53473">
        <ele>28.6</ele>
        <time>2022-08-27T08:05:54Z</time>
      </trkpt>
      <trkpt lat="49.17652" lon="-1.53503">
        <ele>28</ele>
        <time>2022-08-27T08:05:57Z</time>
      </trkpt>
      <trkpt lat="49.17651" lon="-1.53513">
        <ele>28</ele>
        <time>2022-08-27T08:05:58Z</time>
      </trkpt>
      <trkpt lat="49.1765" lon="-1.53543">
        <ele>27.6</ele>
        <time>2022-08-27T08:06:01Z</time>
      </trkpt>
      <trkpt lat="49.17648" lon="-1.53564">
        <ele>27.4</ele>
        <time>2022-08-27T08:06:03Z</time>
      </trkpt>
      <trkpt lat="49.17642" lon="-1.53595">
        <ele>27</ele>
        <time>2022-08-27T08:06:06Z</time>
      </trkpt>
      <trkpt lat="49.1764" lon="-1.53614">
        <ele>26.8</ele>
        <time>2022-08-27T08:06:08Z</time>
      </trkpt>
      <trkpt lat="49.17639" lon="-1.53632">
        <ele>26.6</ele>
        <time>2022-08-27T08:06:10Z</time>
      </trkpt>
      <trkpt lat="49.17636" lon="-1.53678">
        <ele>26</ele>
        <time>2022-08-27T08:06:15Z</time>
      </trkpt>
      <trkpt lat="49.17629" lon="-1.5372">
        <ele>25.2</ele>
        <time>2022-08-27T08:06:19Z</time>
      </trkpt>
      <trkpt lat="49.17623" lon="-1.53774">
        <ele>24.2</ele>
        <time>2022-08-27T08:06:25Z</time>
      </trkpt>
      <trkpt lat="49.17621" lon="-1.53814">
        <ele>23.4</ele>
        <time>2022-08-27T08:06:30Z</time>
      </trkpt>
      <trkpt lat="49.1762" lon="-1.53838">
        <ele>23.2</ele>
        <time>2022-08-27T08:06:33Z</time>
      </trkpt>
      <trkpt lat="49.17617" lon="-1.53864">
        <ele>23</ele>
        <time>2022-08-27T08:06:36Z</time>
      </trkpt>
      <trkpt lat="49.17616" lon="-1.53871">
        <ele>22.8</ele>
        <time>2022-08-27T08:06:37Z</time>
      </trkpt>
      <trkpt lat="49.17616" lon="-1.53895">
        <ele>22.6</ele>
        <time>2022-08-27T08:06:40Z</time>
      </trkpt>
      <trkpt lat="49.17613" lon="-1.5391">
        <ele>22.6</ele>
        <time>2022-08-27T08:06:42Z</time>
      </trkpt>
      <trkpt lat="49.17609" lon="-1.53926">
        <ele>22.4</ele>
        <time>2022-08-27T08:06:44Z</time>
      </trkpt>
      <trkpt lat="49.17608" lon="-1.53946">
        <ele>22.4</ele>
        <time>2022-08-27T08:06:47Z</time>
      </trkpt>
      <trkpt lat="49.17606" lon="-1.53975">
        <ele>22.6</ele>
        <time>2022-08-27T08:06:51Z</time>
      </trkpt>
      <trkpt lat="49.17602" lon="-1.53997">
        <ele>22.4</ele>
        <time>2022-08-27T08:06:54Z</time>
      </trkpt>
      <trkpt lat="49.17602" lon="-1.54005">
        <ele>22.6</ele>
        <time>2022-08-27T08:06:55Z</time>
      </trkpt>
      <trkpt lat="49.17601" lon="-1.54012">
        <ele>22.6</ele>
        <time>2022-08-27T08:06:56Z</time>
      </trkpt>
      <trkpt lat="49.17599" lon="-1.54027">
        <ele>22.6</ele>
        <time>2022-08-27T08:06:58Z</time>
      </trkpt>
      <trkpt lat="49.17597" lon="-1.54034">
        <ele>22.6</ele>
        <time>2022-08-27T08:06:59Z</time>
      </trkpt>
      <trkpt lat="49.17596" lon="-1.5405">
        <ele>22.6</ele>
        <time>2022-08-27T08:07:02Z</time>
      </trkpt>
      <trkpt lat="49.17595" lon="-1.54067">
        <ele>22.4</ele>
        <time>2022-08-27T08:07:04Z</time>
      </trkpt>
      <trkpt lat="49.17594" lon="-1.54083">
        <ele>22.8</ele>
        <time>2022-08-27T08:07:06Z</time>
      </trkpt>
      <trkpt lat="49.17593" lon="-1.54091">
        <ele>22.8</ele>
        <time>2022-08-27T08:07:07Z</time>
      </trkpt>
      <trkpt lat="49.17589" lon="-1.54115">
        <ele>22.8</ele>
        <time>2022-08-27T08:07:10Z</time>
      </trkpt>
      <trkpt lat="49.17586" lon="-1.54123">
        <ele>22.8</ele>
        <time>2022-08-27T08:07:11Z</time>
      </trkpt>
      <trkpt lat="49.17583" lon="-1.54131">
        <ele>22.8</ele>
        <time>2022-08-27T08:07:12Z</time>
      </trkpt>
      <trkpt lat="49.17578" lon="-1.54154">
        <ele>22.6</ele>
        <time>2022-08-27T08:07:15Z</time>
      </trkpt>
      <trkpt lat="49.1758" lon="-1.54178">
        <ele>22.4</ele>
        <time>2022-08-27T08:07:18Z</time>
      </trkpt>
      <trkpt lat="49.1758" lon="-1.54185">
        <ele>22.4</ele>
        <time>2022-08-27T08:07:19Z</time>
      </trkpt>
      <trkpt lat="49.1758" lon="-1.54193">
        <ele>22.4</ele>
        <time>2022-08-27T08:07:20Z</time>
      </trkpt>
      <trkpt lat="49.1758" lon="-1.54213">
        <ele>22.4</ele>
        <time>2022-08-27T08:07:23Z</time>
      </trkpt>
      <trkpt lat="49.1758" lon="-1.5422">
        <ele>22.4</ele>
        <time>2022-08-27T08:07:24Z</time>
      </trkpt>
      <trkpt lat="49.17578" lon="-1.54234">
        <ele>22.4</ele>
        <time>2022-08-27T08:07:26Z</time>
      </trkpt>
      <trkpt lat="49.17575" lon="-1.54251">
        <ele>22.8</ele>
        <time>2022-08-27T08:07:28Z</time>
      </trkpt>
      <trkpt lat="49.17572" lon="-1.54281">
        <ele>23</ele>
        <time>2022-08-27T08:07:32Z</time>
      </trkpt>
      <trkpt lat="49.17571" lon="-1.54295">
        <ele>23</ele>
        <time>2022-08-27T08:07:34Z</time>
      </trkpt>
      <trkpt lat="49.1757" lon="-1.5431">
        <ele>23</ele>
        <time>2022-08-27T08:07:36Z</time>
      </trkpt>
      <trkpt lat="49.17566" lon="-1.54325">
        <ele>23</ele>
        <time>2022-08-27T08:07:38Z</time>
      </trkpt>
      <trkpt lat="49.17561" lon="-1.54343">
        <ele>23</ele>
        <time>2022-08-27T08:07:40Z</time>
      </trkpt>
      <trkpt lat="49.17562" lon="-1.54352">
        <ele>22.8</ele>
        <time>2022-08-27T08:07:41Z</time>
      </trkpt>
      <trkpt lat="49.17562" lon="-1.5436">
        <ele>23.2</ele>
        <time>2022-08-27T08:07:42Z</time>
      </trkpt>
      <trkpt lat="49.17569" lon="-1.54386">
        <ele>22.4</ele>
        <time>2022-08-27T08:07:45Z</time>
      </trkpt>
      <trkpt lat="49.17573" lon="-1.54403">
        <ele>22.4</ele>
        <time>2022-08-27T08:07:47Z</time>
      </trkpt>
      <trkpt lat="49.17578" lon="-1.5442">
        <ele>22.6</ele>
        <time>2022-08-27T08:07:49Z</time>
      </trkpt>
      <trkpt lat="49.17583" lon="-1.54444">
        <ele>22.4</ele>
        <time>2022-08-27T08:07:52Z</time>
      </trkpt>
      <trkpt lat="49.17585" lon="-1.54451">
        <ele>22.4</ele>
        <time>2022-08-27T08:07:53Z</time>
      </trkpt>
      <trkpt lat="49.17587" lon="-1.54465">
        <ele>22</ele>
        <time>2022-08-27T08:07:55Z</time>
      </trkpt>
      <trkpt lat="49.17588" lon="-1.54479">
        <ele>22.4</ele>
        <time>2022-08-27T08:07:57Z</time>
      </trkpt>
      <trkpt lat="49.1759" lon="-1.54494">
        <ele>22.4</ele>
        <time>2022-08-27T08:07:59Z</time>
      </trkpt>
      <trkpt lat="49.17593" lon="-1.54509">
        <ele>22.2</ele>
        <time>2022-08-27T08:08:01Z</time>
      </trkpt>
      <trkpt lat="49.17593" lon="-1.54518">
        <ele>22</ele>
        <time>2022-08-27T08:08:02Z</time>
      </trkpt>
      <trkpt lat="49.17594" lon="-1.54544">
        <ele>21.6</ele>
        <time>2022-08-27T08:08:05Z</time>
      </trkpt>
      <trkpt lat="49.17595" lon="-1.54551">
        <ele>21.6</ele>
        <time>2022-08-27T08:08:06Z</time>
      </trkpt>
      <trkpt lat="49.17602" lon="-1.54571">
        <ele>21.2</ele>
        <time>2022-08-27T08:08:10Z</time>
      </trkpt>
      <trkpt lat="49.17602" lon="-1.54574">
        <ele>21.2</ele>
        <time>2022-08-27T08:08:12Z</time>
      </trkpt>
      <trkpt lat="49.176" lon="-1.54574">
        <ele>21.2</ele>
        <time>2022-08-27T08:08:13Z</time>
      </trkpt>
      <trkpt lat="49.17596" lon="-1.5457">
        <ele>21.4</ele>
        <time>2022-08-27T08:08:15Z</time>
      </trkpt>
      <trkpt lat="49.17593" lon="-1.54554">
        <ele>20.6</ele>
        <time>2022-08-27T08:08:19Z</time>
      </trkpt>
      <trkpt lat="49.1759" lon="-1.5454">
        <ele>20</ele>
        <time>2022-08-27T08:08:22Z</time>
      </trkpt>
      <trkpt lat="49.17586" lon="-1.54521">
        <ele>18.8</ele>
        <time>2022-08-27T08:08:26Z</time>
      </trkpt>
      <trkpt lat="49.17589" lon="-1.54493">
        <ele>18.4</ele>
        <time>2022-08-27T08:08:30Z</time>
      </trkpt>
      <trkpt lat="49.17585" lon="-1.54462">
        <ele>17.6</ele>
        <time>2022-08-27T08:08:35Z</time>
      </trkpt>
      <trkpt lat="49.17584" lon="-1.54456">
        <ele>17.4</ele>
        <time>2022-08-27T08:08:36Z</time>
      </trkpt>
      <trkpt lat="49.17581" lon="-1.54437">
        <ele>16.8</ele>
        <time>2022-08-27T08:08:39Z</time>
      </trkpt>
      <trkpt lat="49.17573" lon="-1.54413">
        <ele>15.8</ele>
        <time>2022-08-27T08:08:43Z</time>
      </trkpt>
      <trkpt lat="49.17567" lon="-1.54395">
        <ele>14.6</ele>
        <time>2022-08-27T08:08:46Z</time>
      </trkpt>
      <trkpt lat="49.17566" lon="-1.54388">
        <ele>14.4</ele>
        <time>2022-08-27T08:08:47Z</time>
      </trkpt>
      <trkpt lat="49.1756" lon="-1.54363">
        <ele>13.2</ele>
        <time>2022-08-27T08:08:51Z</time>
      </trkpt>
      <trkpt lat="49.17559" lon="-1.54344">
        <ele>12.4</ele>
        <time>2022-08-27T08:08:54Z</time>
      </trkpt>
      <trkpt lat="49.17558" lon="-1.54338">
        <ele>12.2</ele>
        <time>2022-08-27T08:08:55Z</time>
      </trkpt>
      <trkpt lat="49.17559" lon="-1.54326">
        <ele>11.6</ele>
        <time>2022-08-27T08:08:57Z</time>
      </trkpt>
      <trkpt lat="49.17559" lon="-1.54315">
        <ele>10.8</ele>
        <time>2022-08-27T08:08:59Z</time>
      </trkpt>
      <trkpt lat="49.1756" lon="-1.54303">
        <ele>10.4</ele>
        <time>2022-08-27T08:09:01Z</time>
      </trkpt>
      <trkpt lat="49.17557" lon="-1.54301">
        <ele>10.2</ele>
        <time>2022-08-27T08:09:02Z</time>
      </trkpt>
      <trkpt lat="49.17558" lon="-1.54299">
        <ele>10.2</ele>
        <time>2022-08-27T08:09:03Z</time>
      </trkpt>
      <trkpt lat="49.17562" lon="-1.54294">
        <ele>10.6</ele>
        <time>2022-08-27T08:09:05Z</time>
      </trkpt>
      <trkpt lat="49.17566" lon="-1.54289">
        <ele>11.4</ele>
        <time>2022-08-27T08:09:06Z</time>
      </trkpt>
      <trkpt lat="49.17566" lon="-1.54292">
        <ele>9.4</ele>
        <time>2022-08-27T08:09:08Z</time>
      </trkpt>
      <trkpt lat="49.17564" lon="-1.54301">
        <ele>14.8</ele>
        <time>2022-08-27T08:09:10Z</time>
      </trkpt>
      <trkpt lat="49.17559" lon="-1.54313">
        <ele>17</ele>
        <time>2022-08-27T08:09:12Z</time>
      </trkpt>
      <trkpt lat="49.17556" lon="-1.54325">
        <ele>14.2</ele>
        <time>2022-08-27T08:09:14Z</time>
      </trkpt>
      <trkpt lat="49.17556" lon="-1.54331">
        <ele>14.4</ele>
        <time>2022-08-27T08:09:15Z</time>
      </trkpt>
      <trkpt lat="49.17554" lon="-1.54343">
        <ele>14.6</ele>
        <time>2022-08-27T08:09:17Z</time>
      </trkpt>
      <trkpt lat="49.17552" lon="-1.54356">
        <ele>14.8</ele>
        <time>2022-08-27T08:09:19Z</time>
      </trkpt>
      <trkpt lat="49.17552" lon="-1.54374">
        <ele>15</ele>
        <time>2022-08-27T08:09:22Z</time>
      </trkpt>
      <trkpt lat="49.17552" lon="-1.5438">
        <ele>15.2</ele>
        <time>2022-08-27T08:09:23Z</time>
      </trkpt>
      <trkpt lat="49.17548" lon="-1.54393">
        <ele>15.2</ele>
        <time>2022-08-27T08:09:25Z</time>
      </trkpt>
      <trkpt lat="49.17546" lon="-1.54418">
        <ele>15.4</ele>
        <time>2022-08-27T08:09:29Z</time>
      </trkpt>
      <trkpt lat="49.17545" lon="-1.5443">
        <ele>15.6</ele>
        <time>2022-08-27T08:09:31Z</time>
      </trkpt>
      <trkpt lat="49.17543" lon="-1.54436">
        <ele>15.6</ele>
        <time>2022-08-27T08:09:32Z</time>
      </trkpt>
      <trkpt lat="49.17539" lon="-1.5446">
        <ele>16.4</ele>
        <time>2022-08-27T08:09:36Z</time>
      </trkpt>
      <trkpt lat="49.1754" lon="-1.54466">
        <ele>16.4</ele>
        <time>2022-08-27T08:09:37Z</time>
      </trkpt>
      <trkpt lat="49.1754" lon="-1.54472">
        <ele>16.6</ele>
        <time>2022-08-27T08:09:38Z</time>
      </trkpt>
      <trkpt lat="49.17539" lon="-1.54492">
        <ele>17</ele>
        <time>2022-08-27T08:09:41Z</time>
      </trkpt>
      <trkpt lat="49.17538" lon="-1.54499">
        <ele>17.2</ele>
        <time>2022-08-27T08:09:42Z</time>
      </trkpt>
      <trkpt lat="49.17537" lon="-1.54518">
        <ele>17.8</ele>
        <time>2022-08-27T08:09:45Z</time>
      </trkpt>
      <trkpt lat="49.17536" lon="-1.54525">
        <ele>18</ele>
        <time>2022-08-27T08:09:46Z</time>
      </trkpt>
      <trkpt lat="49.17535" lon="-1.54538">
        <ele>18</ele>
        <time>2022-08-27T08:09:48Z</time>
      </trkpt>
      <trkpt lat="49.17532" lon="-1.54544">
        <ele>18.2</ele>
        <time>2022-08-27T08:09:49Z</time>
      </trkpt>
      <trkpt lat="49.17528" lon="-1.54573">
        <ele>18.6</ele>
        <time>2022-08-27T08:09:54Z</time>
      </trkpt>
      <trkpt lat="49.17526" lon="-1.54585">
        <ele>18.6</ele>
        <time>2022-08-27T08:09:56Z</time>
      </trkpt>
      <trkpt lat="49.17526" lon="-1.5459">
        <ele>18.8</ele>
        <time>2022-08-27T08:09:57Z</time>
      </trkpt>
      <trkpt lat="49.17524" lon="-1.54595">
        <ele>18.8</ele>
        <time>2022-08-27T08:09:58Z</time>
      </trkpt>
      <trkpt lat="49.17522" lon="-1.54601">
        <ele>18.8</ele>
        <time>2022-08-27T08:09:59Z</time>
      </trkpt>
      <trkpt lat="49.17519" lon="-1.5462">
        <ele>18.8</ele>
        <time>2022-08-27T08:10:02Z</time>
      </trkpt>
      <trkpt lat="49.17519" lon="-1.54627">
        <ele>19</ele>
        <time>2022-08-27T08:10:03Z</time>
      </trkpt>
      <trkpt lat="49.17517" lon="-1.54639">
        <ele>19.2</ele>
        <time>2022-08-27T08:10:05Z</time>
      </trkpt>
      <trkpt lat="49.17514" lon="-1.54646">
        <ele>19</ele>
        <time>2022-08-27T08:10:06Z</time>
      </trkpt>
      <trkpt lat="49.17513" lon="-1.54653">
        <ele>19.2</ele>
        <time>2022-08-27T08:10:07Z</time>
      </trkpt>
      <trkpt lat="49.17514" lon="-1.54668">
        <ele>19.4</ele>
        <time>2022-08-27T08:10:09Z</time>
      </trkpt>
      <trkpt lat="49.17515" lon="-1.54675">
        <ele>19.4</ele>
        <time>2022-08-27T08:10:10Z</time>
      </trkpt>
      <trkpt lat="49.17514" lon="-1.54687">
        <ele>19.6</ele>
        <time>2022-08-27T08:10:12Z</time>
      </trkpt>
      <trkpt lat="49.17512" lon="-1.54701">
        <ele>19.8</ele>
        <time>2022-08-27T08:10:14Z</time>
      </trkpt>
      <trkpt lat="49.17512" lon="-1.54724">
        <ele>20</ele>
        <time>2022-08-27T08:10:18Z</time>
      </trkpt>
      <trkpt lat="49.17508" lon="-1.54742">
        <ele>20.2</ele>
        <time>2022-08-27T08:10:21Z</time>
      </trkpt>
      <trkpt lat="49.17507" lon="-1.54748">
        <ele>20.2</ele>
        <time>2022-08-27T08:10:22Z</time>
      </trkpt>
      <trkpt lat="49.17506" lon="-1.54754">
        <ele>20.4</ele>
        <time>2022-08-27T08:10:23Z</time>
      </trkpt>
      <trkpt lat="49.17507" lon="-1.54765">
        <ele>20.4</ele>
        <time>2022-08-27T08:10:25Z</time>
      </trkpt>
      <trkpt lat="49.17503" lon="-1.54792">
        <ele>20.8</ele>
        <time>2022-08-27T08:10:30Z</time>
      </trkpt>
      <trkpt lat="49.175" lon="-1.54804">
        <ele>20.8</ele>
        <time>2022-08-27T08:10:32Z</time>
      </trkpt>
      <trkpt lat="49.17498" lon="-1.54817">
        <ele>21</ele>
        <time>2022-08-27T08:10:34Z</time>
      </trkpt>
      <trkpt lat="49.17493" lon="-1.54852">
        <ele>21</ele>
        <time>2022-08-27T08:10:40Z</time>
      </trkpt>
      <trkpt lat="49.17491" lon="-1.54869">
        <ele>21</ele>
        <time>2022-08-27T08:10:43Z</time>
      </trkpt>
      <trkpt lat="49.17489" lon="-1.5488">
        <ele>21</ele>
        <time>2022-08-27T08:10:45Z</time>
      </trkpt>
      <trkpt lat="49.17488" lon="-1.54887">
        <ele>21</ele>
        <time>2022-08-27T08:10:46Z</time>
      </trkpt>
      <trkpt lat="49.17487" lon="-1.54899">
        <ele>21</ele>
        <time>2022-08-27T08:10:48Z</time>
      </trkpt>
      <trkpt lat="49.17486" lon="-1.54905">
        <ele>21</ele>
        <time>2022-08-27T08:10:49Z</time>
      </trkpt>
      <trkpt lat="49.17481" lon="-1.54922">
        <ele>20.8</ele>
        <time>2022-08-27T08:10:52Z</time>
      </trkpt>
      <trkpt lat="49.1748" lon="-1.54928">
        <ele>20.8</ele>
        <time>2022-08-27T08:10:53Z</time>
      </trkpt>
      <trkpt lat="49.17476" lon="-1.54957">
        <ele>20.4</ele>
        <time>2022-08-27T08:10:58Z</time>
      </trkpt>
      <trkpt lat="49.17473" lon="-1.55">
        <ele>20.6</ele>
        <time>2022-08-27T08:11:05Z</time>
      </trkpt>
      <trkpt lat="49.17471" lon="-1.55025">
        <ele>20.6</ele>
        <time>2022-08-27T08:11:09Z</time>
      </trkpt>
      <trkpt lat="49.1747" lon="-1.55041">
        <ele>21</ele>
        <time>2022-08-27T08:11:12Z</time>
      </trkpt>
      <trkpt lat="49.17467" lon="-1.5505">
        <ele>20.8</ele>
        <time>2022-08-27T08:11:14Z</time>
      </trkpt>
      <trkpt lat="49.17469" lon="-1.55056">
        <ele>20.6</ele>
        <time>2022-08-27T08:11:16Z</time>
      </trkpt>
      <trkpt lat="49.17468" lon="-1.55061">
        <ele>20.4</ele>
        <time>2022-08-27T08:11:17Z</time>
      </trkpt>
      <trkpt lat="49.17467" lon="-1.55087">
        <ele>21</ele>
        <time>2022-08-27T08:11:22Z</time>
      </trkpt>
      <trkpt lat="49.17466" lon="-1.55103">
        <ele>21</ele>
        <time>2022-08-27T08:11:25Z</time>
      </trkpt>
      <trkpt lat="49.17461" lon="-1.5512">
        <ele>21</ele>
        <time>2022-08-27T08:11:29Z</time>
      </trkpt>
      <trkpt lat="49.17458" lon="-1.55132">
        <ele>21.2</ele>
        <time>2022-08-27T08:11:32Z</time>
      </trkpt>
      <trkpt lat="49.17455" lon="-1.55138">
        <ele>21.4</ele>
        <time>2022-08-27T08:11:34Z</time>
      </trkpt>
      <trkpt lat="49.17452" lon="-1.55137">
        <ele>21.4</ele>
        <time>2022-08-27T08:11:36Z</time>
      </trkpt>
      <trkpt lat="49.17445" lon="-1.55133">
        <ele>21.4</ele>
        <time>2022-08-27T08:11:40Z</time>
      </trkpt>
      <trkpt lat="49.17443" lon="-1.55133">
        <ele>21.4</ele>
        <time>2022-08-27T08:11:41Z</time>
      </trkpt>
      <trkpt lat="49.17437" lon="-1.55133">
        <ele>21.4</ele>
        <time>2022-08-27T08:11:44Z</time>
      </trkpt>
      <trkpt lat="49.17433" lon="-1.55131">
        <ele>21.4</ele>
        <time>2022-08-27T08:11:46Z</time>
      </trkpt>
      <trkpt lat="49.17421" lon="-1.5513">
        <ele>21.2</ele>
        <time>2022-08-27T08:11:50Z</time>
      </trkpt>
      <trkpt lat="49.17413" lon="-1.55127">
        <ele>20.6</ele>
        <time>2022-08-27T08:11:55Z</time>
      </trkpt>
      <trkpt lat="49.17413" lon="-1.55128">
        <ele>20.6</ele>
        <time>2022-08-27T08:11:56Z</time>
      </trkpt>
      <trkpt lat="49.17412" lon="-1.55132">
        <ele>20.4</ele>
        <time>2022-08-27T08:11:58Z</time>
      </trkpt>
      <trkpt lat="49.17408" lon="-1.55147">
        <ele>20.4</ele>
        <time>2022-08-27T08:12:02Z</time>
      </trkpt>
      <trkpt lat="49.17408" lon="-1.55166">
        <ele>20.6</ele>
        <time>2022-08-27T08:12:06Z</time>
      </trkpt>
      <trkpt lat="49.17409" lon="-1.55187">
        <ele>20.6</ele>
        <time>2022-08-27T08:12:10Z</time>
      </trkpt>
      <trkpt lat="49.1741" lon="-1.55206">
        <ele>20.2</ele>
        <time>2022-08-27T08:12:13Z</time>
      </trkpt>
      <trkpt lat="49.17413" lon="-1.55223">
        <ele>20.6</ele>
        <time>2022-08-27T08:12:16Z</time>
      </trkpt>
      <trkpt lat="49.17413" lon="-1.5523">
        <ele>20.6</ele>
        <time>2022-08-27T08:12:17Z</time>
      </trkpt>
      <trkpt lat="49.17412" lon="-1.55242">
        <ele>20.4</ele>
        <time>2022-08-27T08:12:19Z</time>
      </trkpt>
      <trkpt lat="49.17411" lon="-1.55261">
        <ele>20.8</ele>
        <time>2022-08-27T08:12:22Z</time>
      </trkpt>
      <trkpt lat="49.1741" lon="-1.55267">
        <ele>20.8</ele>
        <time>2022-08-27T08:12:23Z</time>
      </trkpt>
      <trkpt lat="49.17409" lon="-1.55274">
        <ele>21</ele>
        <time>2022-08-27T08:12:24Z</time>
      </trkpt>
      <trkpt lat="49.17407" lon="-1.5528">
        <ele>20.8</ele>
        <time>2022-08-27T08:12:25Z</time>
      </trkpt>
      <trkpt lat="49.17406" lon="-1.55304">
        <ele>20.8</ele>
        <time>2022-08-27T08:12:29Z</time>
      </trkpt>
      <trkpt lat="49.17403" lon="-1.55329">
        <ele>21</ele>
        <time>2022-08-27T08:12:33Z</time>
      </trkpt>
      <trkpt lat="49.17401" lon="-1.55353">
        <ele>20.4</ele>
        <time>2022-08-27T08:12:37Z</time>
      </trkpt>
      <trkpt lat="49.174" lon="-1.55367">
        <ele>20.4</ele>
        <time>2022-08-27T08:12:40Z</time>
      </trkpt>
      <trkpt lat="49.174" lon="-1.55371">
        <ele>20.4</ele>
        <time>2022-08-27T08:12:41Z</time>
      </trkpt>
      <trkpt lat="49.17405" lon="-1.5539">
        <ele>20.4</ele>
        <time>2022-08-27T08:12:45Z</time>
      </trkpt>
      <trkpt lat="49.17403" lon="-1.55408">
        <ele>20.4</ele>
        <time>2022-08-27T08:12:49Z</time>
      </trkpt>
      <trkpt lat="49.17398" lon="-1.55429">
        <ele>20.8</ele>
        <time>2022-08-27T08:12:53Z</time>
      </trkpt>
      <trkpt lat="49.17394" lon="-1.55449">
        <ele>20.8</ele>
        <time>2022-08-27T08:12:57Z</time>
      </trkpt>
      <trkpt lat="49.17393" lon="-1.55458">
        <ele>20.8</ele>
        <time>2022-08-27T08:12:59Z</time>
      </trkpt>
      <trkpt lat="49.17391" lon="-1.55465">
        <ele>20.8</ele>
        <time>2022-08-27T08:13:00Z</time>
      </trkpt>
      <trkpt lat="49.17383" lon="-1.55503">
        <ele>21</ele>
        <time>2022-08-27T08:13:05Z</time>
      </trkpt>
      <trkpt lat="49.17375" lon="-1.5554">
        <ele>21</ele>
        <time>2022-08-27T08:13:11Z</time>
      </trkpt>
      <trkpt lat="49.17372" lon="-1.55546">
        <ele>21</ele>
        <time>2022-08-27T08:13:12Z</time>
      </trkpt>
      <trkpt lat="49.17371" lon="-1.55559">
        <ele>20.8</ele>
        <time>2022-08-27T08:13:14Z</time>
      </trkpt>
      <trkpt lat="49.17371" lon="-1.55583">
        <ele>21</ele>
        <time>2022-08-27T08:13:17Z</time>
      </trkpt>
      <trkpt lat="49.1737" lon="-1.55597">
        <ele>20.6</ele>
        <time>2022-08-27T08:13:19Z</time>
      </trkpt>
      <trkpt lat="49.17369" lon="-1.55603">
        <ele>20.6</ele>
        <time>2022-08-27T08:13:20Z</time>
      </trkpt>
      <trkpt lat="49.17368" lon="-1.55629">
        <ele>20.6</ele>
        <time>2022-08-27T08:13:24Z</time>
      </trkpt>
      <trkpt lat="49.17367" lon="-1.55633">
        <ele>20.6</ele>
        <time>2022-08-27T08:13:25Z</time>
      </trkpt>
      <trkpt lat="49.17364" lon="-1.55635">
        <ele>20.6</ele>
        <time>2022-08-27T08:13:27Z</time>
      </trkpt>
      <trkpt lat="49.17361" lon="-1.55641">
        <ele>20.6</ele>
        <time>2022-08-27T08:13:32Z</time>
      </trkpt>
      <trkpt lat="49.17362" lon="-1.55641">
        <ele>21</ele>
        <time>2022-08-27T08:13:35Z</time>
      </trkpt>
      <trkpt lat="49.17364" lon="-1.5564">
        <ele>21.2</ele>
        <time>2022-08-27T08:13:37Z</time>
      </trkpt>
      <trkpt lat="49.17367" lon="-1.55642">
        <ele>21.4</ele>
        <time>2022-08-27T08:13:39Z</time>
      </trkpt>
      <trkpt lat="49.17368" lon="-1.55645">
        <ele>21.4</ele>
        <time>2022-08-27T08:13:40Z</time>
      </trkpt>
      <trkpt lat="49.17369" lon="-1.55658">
        <ele>21.2</ele>
        <time>2022-08-27T08:13:43Z</time>
      </trkpt>
      <trkpt lat="49.17374" lon="-1.55674">
        <ele>21</ele>
        <time>2022-08-27T08:13:47Z</time>
      </trkpt>
      <trkpt lat="49.17377" lon="-1.5569">
        <ele>20.6</ele>
        <time>2022-08-27T08:13:51Z</time>
      </trkpt>
      <trkpt lat="49.17364" lon="-1.55704">
        <ele>20</ele>
        <time>2022-08-27T08:13:56Z</time>
      </trkpt>
      <trkpt lat="49.1736" lon="-1.55708">
        <ele>19.8</ele>
        <time>2022-08-27T08:13:57Z</time>
      </trkpt>
      <trkpt lat="49.17348" lon="-1.55716">
        <ele>19.2</ele>
        <time>2022-08-27T08:14:00Z</time>
      </trkpt>
      <trkpt lat="49.17328" lon="-1.55731">
        <ele>18.4</ele>
        <time>2022-08-27T08:14:05Z</time>
      </trkpt>
      <trkpt lat="49.17306" lon="-1.55749">
        <ele>17.2</ele>
        <time>2022-08-27T08:14:10Z</time>
      </trkpt>
      <trkpt lat="49.17301" lon="-1.55751">
        <ele>16.8</ele>
        <time>2022-08-27T08:14:11Z</time>
      </trkpt>
      <trkpt lat="49.17276" lon="-1.55762">
        <ele>16.4</ele>
        <time>2022-08-27T08:14:15Z</time>
      </trkpt>
      <trkpt lat="49.1727" lon="-1.55765">
        <ele>16.2</ele>
        <time>2022-08-27T08:14:16Z</time>
      </trkpt>
      <trkpt lat="49.17245" lon="-1.55779">
        <ele>15.8</ele>
        <time>2022-08-27T08:14:20Z</time>
      </trkpt>
      <trkpt lat="49.17239" lon="-1.55783">
        <ele>15.8</ele>
        <time>2022-08-27T08:14:21Z</time>
      </trkpt>
      <trkpt lat="49.17228" lon="-1.5579">
        <ele>15.4</ele>
        <time>2022-08-27T08:14:23Z</time>
      </trkpt>
      <trkpt lat="49.17217" lon="-1.558">
        <ele>15</ele>
        <time>2022-08-27T08:14:25Z</time>
      </trkpt>
      <trkpt lat="49.17209" lon="-1.5581">
        <ele>14.6</ele>
        <time>2022-08-27T08:14:27Z</time>
      </trkpt>
      <trkpt lat="49.17201" lon="-1.55822">
        <ele>14.4</ele>
        <time>2022-08-27T08:14:29Z</time>
      </trkpt>
      <trkpt lat="49.17192" lon="-1.55829">
        <ele>14</ele>
        <time>2022-08-27T08:14:31Z</time>
      </trkpt>
      <trkpt lat="49.17168" lon="-1.55835">
        <ele>13.6</ele>
        <time>2022-08-27T08:14:35Z</time>
      </trkpt>
      <trkpt lat="49.17146" lon="-1.55836">
        <ele>13.4</ele>
        <time>2022-08-27T08:14:39Z</time>
      </trkpt>
      <trkpt lat="49.17121" lon="-1.55833">
        <ele>13.4</ele>
        <time>2022-08-27T08:14:44Z</time>
      </trkpt>
      <trkpt lat="49.17117" lon="-1.55833">
        <ele>13.4</ele>
        <time>2022-08-27T08:14:45Z</time>
      </trkpt>
      <trkpt lat="49.17112" lon="-1.55833">
        <ele>13.2</ele>
        <time>2022-08-27T08:14:46Z</time>
      </trkpt>
      <trkpt lat="49.17099" lon="-1.55833">
        <ele>13.2</ele>
        <time>2022-08-27T08:14:49Z</time>
      </trkpt>
      <trkpt lat="49.17072" lon="-1.55838">
        <ele>12.6</ele>
        <time>2022-08-27T08:14:56Z</time>
      </trkpt>
      <trkpt lat="49.17049" lon="-1.55847">
        <ele>12.4</ele>
        <time>2022-08-27T08:15:02Z</time>
      </trkpt>
      <trkpt lat="49.1703" lon="-1.55864">
        <ele>12.6</ele>
        <time>2022-08-27T08:15:07Z</time>
      </trkpt>
      <trkpt lat="49.17028" lon="-1.55868">
        <ele>12.6</ele>
        <time>2022-08-27T08:15:08Z</time>
      </trkpt>
      <trkpt lat="49.17025" lon="-1.55874">
        <ele>12.6</ele>
        <time>2022-08-27T08:15:10Z</time>
      </trkpt>
      <trkpt lat="49.17014" lon="-1.55887">
        <ele>12.4</ele>
        <time>2022-08-27T08:15:13Z</time>
      </trkpt>
      <trkpt lat="49.17009" lon="-1.55891">
        <ele>12.4</ele>
        <time>2022-08-27T08:15:14Z</time>
      </trkpt>
      <trkpt lat="49.17006" lon="-1.55896">
        <ele>12.4</ele>
        <time>2022-08-27T08:15:15Z</time>
      </trkpt>
      <trkpt lat="49.16999" lon="-1.55906">
        <ele>12.4</ele>
        <time>2022-08-27T08:15:17Z</time>
      </trkpt>
      <trkpt lat="49.16984" lon="-1.55934">
        <ele>12.2</ele>
        <time>2022-08-27T08:15:23Z</time>
      </trkpt>
      <trkpt lat="49.16978" lon="-1.55949">
        <ele>12</ele>
        <time>2022-08-27T08:15:26Z</time>
      </trkpt>
      <trkpt lat="49.16969" lon="-1.55966">
        <ele>11.6</ele>
        <time>2022-08-27T08:15:29Z</time>
      </trkpt>
      <trkpt lat="49.16966" lon="-1.55972">
        <ele>11.6</ele>
        <time>2022-08-27T08:15:30Z</time>
      </trkpt>
      <trkpt lat="49.16949" lon="-1.56003">
        <ele>11.4</ele>
        <time>2022-08-27T08:15:35Z</time>
      </trkpt>
      <trkpt lat="49.16945" lon="-1.56011">
        <ele>11.2</ele>
        <time>2022-08-27T08:15:36Z</time>
      </trkpt>
      <trkpt lat="49.16938" lon="-1.56023">
        <ele>10.8</ele>
        <time>2022-08-27T08:15:38Z</time>
      </trkpt>
      <trkpt lat="49.16935" lon="-1.56036">
        <ele>10.4</ele>
        <time>2022-08-27T08:15:40Z</time>
      </trkpt>
      <trkpt lat="49.16933" lon="-1.56043">
        <ele>10.4</ele>
        <time>2022-08-27T08:15:41Z</time>
      </trkpt>
      <trkpt lat="49.16927" lon="-1.56063">
        <ele>10</ele>
        <time>2022-08-27T08:15:44Z</time>
      </trkpt>
      <trkpt lat="49.16914" lon="-1.56085">
        <ele>10</ele>
        <time>2022-08-27T08:15:47Z</time>
      </trkpt>
      <trkpt lat="49.16908" lon="-1.56101">
        <ele>9.6</ele>
        <time>2022-08-27T08:15:49Z</time>
      </trkpt>
      <trkpt lat="49.16903" lon="-1.56116">
        <ele>9.4</ele>
        <time>2022-08-27T08:15:51Z</time>
      </trkpt>
      <trkpt lat="49.16901" lon="-1.56124">
        <ele>9.4</ele>
        <time>2022-08-27T08:15:52Z</time>
      </trkpt>
      <trkpt lat="49.16896" lon="-1.5614">
        <ele>9.4</ele>
        <time>2022-08-27T08:15:54Z</time>
      </trkpt>
      <trkpt lat="49.16892" lon="-1.56156">
        <ele>9.4</ele>
        <time>2022-08-27T08:15:56Z</time>
      </trkpt>
      <trkpt lat="49.1689" lon="-1.56162">
        <ele>9.4</ele>
        <time>2022-08-27T08:15:57Z</time>
      </trkpt>
      <trkpt lat="49.16886" lon="-1.56176">
        <ele>9.4</ele>
        <time>2022-08-27T08:15:59Z</time>
      </trkpt>
      <trkpt lat="49.16882" lon="-1.56183">
        <ele>9.4</ele>
        <time>2022-08-27T08:16:00Z</time>
      </trkpt>
      <trkpt lat="49.16879" lon="-1.5619">
        <ele>9.2</ele>
        <time>2022-08-27T08:16:01Z</time>
      </trkpt>
      <trkpt lat="49.16874" lon="-1.56204">
        <ele>9.2</ele>
        <time>2022-08-27T08:16:03Z</time>
      </trkpt>
      <trkpt lat="49.16872" lon="-1.56211">
        <ele>9.2</ele>
        <time>2022-08-27T08:16:04Z</time>
      </trkpt>
      <trkpt lat="49.16865" lon="-1.56236">
        <ele>8.8</ele>
        <time>2022-08-27T08:16:07Z</time>
      </trkpt>
      <trkpt lat="49.16862" lon="-1.56245">
        <ele>8.6</ele>
        <time>2022-08-27T08:16:08Z</time>
      </trkpt>
      <trkpt lat="49.16854" lon="-1.56276">
        <ele>8.4</ele>
        <time>2022-08-27T08:16:12Z</time>
      </trkpt>
      <trkpt lat="49.16846" lon="-1.56307">
        <ele>7.8</ele>
        <time>2022-08-27T08:16:16Z</time>
      </trkpt>
      <trkpt lat="49.1684" lon="-1.56328">
        <ele>7.6</ele>
        <time>2022-08-27T08:16:19Z</time>
      </trkpt>
      <trkpt lat="49.16837" lon="-1.56333">
        <ele>7.4</ele>
        <time>2022-08-27T08:16:20Z</time>
      </trkpt>
      <trkpt lat="49.16819" lon="-1.56373">
        <ele>7</ele>
        <time>2022-08-27T08:16:27Z</time>
      </trkpt>
      <trkpt lat="49.16814" lon="-1.56385">
        <ele>6.8</ele>
        <time>2022-08-27T08:16:29Z</time>
      </trkpt>
      <trkpt lat="49.16809" lon="-1.56397">
        <ele>6.4</ele>
        <time>2022-08-27T08:16:31Z</time>
      </trkpt>
      <trkpt lat="49.16801" lon="-1.56415">
        <ele>6.2</ele>
        <time>2022-08-27T08:16:34Z</time>
      </trkpt>
      <trkpt lat="49.16801" lon="-1.5642">
        <ele>6</ele>
        <time>2022-08-27T08:16:35Z</time>
      </trkpt>
      <trkpt lat="49.16796" lon="-1.56434">
        <ele>5.6</ele>
        <time>2022-08-27T08:16:38Z</time>
      </trkpt>
      <trkpt lat="49.16792" lon="-1.56444">
        <ele>5.4</ele>
        <time>2022-08-27T08:16:40Z</time>
      </trkpt>
      <trkpt lat="49.1679" lon="-1.56451">
        <ele>5.4</ele>
        <time>2022-08-27T08:16:41Z</time>
      </trkpt>
      <trkpt lat="49.16788" lon="-1.56457">
        <ele>5.2</ele>
        <time>2022-08-27T08:16:42Z</time>
      </trkpt>
      <trkpt lat="49.16779" lon="-1.56464">
        <ele>5</ele>
        <time>2022-08-27T08:16:44Z</time>
      </trkpt>
      <trkpt lat="49.16759" lon="-1.56473">
        <ele>5</ele>
        <time>2022-08-27T08:16:47Z</time>
      </trkpt>
      <trkpt lat="49.16753" lon="-1.56475">
        <ele>4.8</ele>
        <time>2022-08-27T08:16:48Z</time>
      </trkpt>
      <trkpt lat="49.16728" lon="-1.5648">
        <ele>4.8</ele>
        <time>2022-08-27T08:16:52Z</time>
      </trkpt>
      <trkpt lat="49.1671" lon="-1.56482">
        <ele>4.6</ele>
        <time>2022-08-27T08:16:56Z</time>
      </trkpt>
      <trkpt lat="49.16701" lon="-1.56483">
        <ele>4.4</ele>
        <time>2022-08-27T08:16:58Z</time>
      </trkpt>
      <trkpt lat="49.16691" lon="-1.56484">
        <ele>4.4</ele>
        <time>2022-08-27T08:17:00Z</time>
      </trkpt>
      <trkpt lat="49.16682" lon="-1.56486">
        <ele>4.4</ele>
        <time>2022-08-27T08:17:02Z</time>
      </trkpt>
      <trkpt lat="49.16674" lon="-1.56489">
        <ele>4.4</ele>
        <time>2022-08-27T08:17:04Z</time>
      </trkpt>
      <trkpt lat="49.16666" lon="-1.56492">
        <ele>4.2</ele>
        <time>2022-08-27T08:17:06Z</time>
      </trkpt>
      <trkpt lat="49.16661" lon="-1.56495">
        <ele>4.2</ele>
        <time>2022-08-27T08:17:07Z</time>
      </trkpt>
      <trkpt lat="49.16634" lon="-1.56502">
        <ele>3.6</ele>
        <time>2022-08-27T08:17:14Z</time>
      </trkpt>
      <trkpt lat="49.16616" lon="-1.56513">
        <ele>3.4</ele>
        <time>2022-08-27T08:17:19Z</time>
      </trkpt>
      <trkpt lat="49.16609" lon="-1.56531">
        <ele>3.6</ele>
        <time>2022-08-27T08:17:22Z</time>
      </trkpt>
      <trkpt lat="49.16601" lon="-1.56546">
        <ele>3.6</ele>
        <time>2022-08-27T08:17:24Z</time>
      </trkpt>
      <trkpt lat="49.16599" lon="-1.56553">
        <ele>4</ele>
        <time>2022-08-27T08:17:25Z</time>
      </trkpt>
      <trkpt lat="49.16597" lon="-1.56566">
        <ele>3.2</ele>
        <time>2022-08-27T08:17:27Z</time>
      </trkpt>
      <trkpt lat="49.16595" lon="-1.56579">
        <ele>3.6</ele>
        <time>2022-08-27T08:17:29Z</time>
      </trkpt>
      <trkpt lat="49.16589" lon="-1.56623">
        <ele>3</ele>
        <time>2022-08-27T08:17:35Z</time>
      </trkpt>
      <trkpt lat="49.16581" lon="-1.5667">
        <ele>4.2</ele>
        <time>2022-08-27T08:17:41Z</time>
      </trkpt>
      <trkpt lat="49.16579" lon="-1.56686">
        <ele>4.4</ele>
        <time>2022-08-27T08:17:43Z</time>
      </trkpt>
      <trkpt lat="49.16575" lon="-1.56707">
        <ele>4.4</ele>
        <time>2022-08-27T08:17:46Z</time>
      </trkpt>
      <trkpt lat="49.16572" lon="-1.5672">
        <ele>4.6</ele>
        <time>2022-08-27T08:17:48Z</time>
      </trkpt>
      <trkpt lat="49.16568" lon="-1.56741">
        <ele>4.8</ele>
        <time>2022-08-27T08:17:51Z</time>
      </trkpt>
      <trkpt lat="49.16567" lon="-1.56756">
        <ele>4.8</ele>
        <time>2022-08-27T08:17:53Z</time>
      </trkpt>
      <trkpt lat="49.16567" lon="-1.56775">
        <ele>4.8</ele>
        <time>2022-08-27T08:17:56Z</time>
      </trkpt>
      <trkpt lat="49.16563" lon="-1.56821">
        <ele>5.8</ele>
        <time>2022-08-27T08:18:03Z</time>
      </trkpt>
      <trkpt lat="49.16564" lon="-1.56827">
        <ele>5.8</ele>
        <time>2022-08-27T08:18:04Z</time>
      </trkpt>
      <trkpt lat="49.16566" lon="-1.56841">
        <ele>6</ele>
        <time>2022-08-27T08:18:06Z</time>
      </trkpt>
      <trkpt lat="49.16567" lon="-1.56864">
        <ele>6.2</ele>
        <time>2022-08-27T08:18:09Z</time>
      </trkpt>
      <trkpt lat="49.16567" lon="-1.5687">
        <ele>6.2</ele>
        <time>2022-08-27T08:18:10Z</time>
      </trkpt>
      <trkpt lat="49.16566" lon="-1.56889">
        <ele>6.2</ele>
        <time>2022-08-27T08:18:13Z</time>
      </trkpt>
      <trkpt lat="49.16567" lon="-1.56898">
        <ele>6.2</ele>
        <time>2022-08-27T08:18:15Z</time>
      </trkpt>
      <trkpt lat="49.16559" lon="-1.56912">
        <ele>6.4</ele>
        <time>2022-08-27T08:18:17Z</time>
      </trkpt>
      <trkpt lat="49.16545" lon="-1.56937">
        <ele>6.6</ele>
        <time>2022-08-27T08:18:20Z</time>
      </trkpt>
      <trkpt lat="49.1654" lon="-1.56944">
        <ele>6.6</ele>
        <time>2022-08-27T08:18:21Z</time>
      </trkpt>
      <trkpt lat="49.16534" lon="-1.56949">
        <ele>6.6</ele>
        <time>2022-08-27T08:18:22Z</time>
      </trkpt>
      <trkpt lat="49.1651" lon="-1.56965">
        <ele>6.6</ele>
        <time>2022-08-27T08:18:26Z</time>
      </trkpt>
      <trkpt lat="49.16499" lon="-1.56975">
        <ele>6.6</ele>
        <time>2022-08-27T08:18:28Z</time>
      </trkpt>
      <trkpt lat="49.16491" lon="-1.56988">
        <ele>6.8</ele>
        <time>2022-08-27T08:18:30Z</time>
      </trkpt>
      <trkpt lat="49.16478" lon="-1.57028">
        <ele>7</ele>
        <time>2022-08-27T08:18:36Z</time>
      </trkpt>
      <trkpt lat="49.16476" lon="-1.57034">
        <ele>7</ele>
        <time>2022-08-27T08:18:37Z</time>
      </trkpt>
      <trkpt lat="49.16468" lon="-1.57056">
        <ele>7.2</ele>
        <time>2022-08-27T08:18:41Z</time>
      </trkpt>
      <trkpt lat="49.16466" lon="-1.57062">
        <ele>7.2</ele>
        <time>2022-08-27T08:18:42Z</time>
      </trkpt>
      <trkpt lat="49.16459" lon="-1.57079">
        <ele>7.2</ele>
        <time>2022-08-27T08:18:45Z</time>
      </trkpt>
      <trkpt lat="49.16449" lon="-1.57109">
        <ele>7.6</ele>
        <time>2022-08-27T08:18:50Z</time>
      </trkpt>
      <trkpt lat="49.16444" lon="-1.57128">
        <ele>7.8</ele>
        <time>2022-08-27T08:18:53Z</time>
      </trkpt>
      <trkpt lat="49.1644" lon="-1.57147">
        <ele>8</ele>
        <time>2022-08-27T08:18:56Z</time>
      </trkpt>
      <trkpt lat="49.16438" lon="-1.57154">
        <ele>8</ele>
        <time>2022-08-27T08:18:57Z</time>
      </trkpt>
      <trkpt lat="49.16436" lon="-1.57161">
        <ele>8</ele>
        <time>2022-08-27T08:18:58Z</time>
      </trkpt>
      <trkpt lat="49.16434" lon="-1.57175">
        <ele>8</ele>
        <time>2022-08-27T08:19:00Z</time>
      </trkpt>
      <trkpt lat="49.16434" lon="-1.57181">
        <ele>8.2</ele>
        <time>2022-08-27T08:19:01Z</time>
      </trkpt>
      <trkpt lat="49.16433" lon="-1.57194">
        <ele>8.2</ele>
        <time>2022-08-27T08:19:03Z</time>
      </trkpt>
      <trkpt lat="49.16431" lon="-1.57198">
        <ele>8.2</ele>
        <time>2022-08-27T08:19:04Z</time>
      </trkpt>
      <trkpt lat="49.16426" lon="-1.57203">
        <ele>8.2</ele>
        <time>2022-08-27T08:19:06Z</time>
      </trkpt>
      <trkpt lat="49.16422" lon="-1.57206">
        <ele>8.2</ele>
        <time>2022-08-27T08:19:07Z</time>
      </trkpt>
      <trkpt lat="49.1641" lon="-1.57216">
        <ele>8</ele>
        <time>2022-08-27T08:19:11Z</time>
      </trkpt>
      <trkpt lat="49.16397" lon="-1.57228">
        <ele>7.6</ele>
        <time>2022-08-27T08:19:15Z</time>
      </trkpt>
      <trkpt lat="49.16381" lon="-1.57243">
        <ele>7.4</ele>
        <time>2022-08-27T08:19:19Z</time>
      </trkpt>
      <trkpt lat="49.16365" lon="-1.57256">
        <ele>7</ele>
        <time>2022-08-27T08:19:22Z</time>
      </trkpt>
      <trkpt lat="49.16349" lon="-1.57268">
        <ele>6.6</ele>
        <time>2022-08-27T08:19:27Z</time>
      </trkpt>
      <trkpt lat="49.16347" lon="-1.57271">
        <ele>6.6</ele>
        <time>2022-08-27T08:19:29Z</time>
      </trkpt>
      <trkpt lat="49.16341" lon="-1.5727">
        <ele>6.6</ele>
        <time>2022-08-27T08:19:33Z</time>
      </trkpt>
      <trkpt lat="49.16326" lon="-1.5726">
        <ele>7.2</ele>
        <time>2022-08-27T08:19:37Z</time>
      </trkpt>
      <trkpt lat="49.16314" lon="-1.57229">
        <ele>7.6</ele>
        <time>2022-08-27T08:19:43Z</time>
      </trkpt>
      <trkpt lat="49.16304" lon="-1.57204">
        <ele>7.6</ele>
        <time>2022-08-27T08:19:47Z</time>
      </trkpt>
      <trkpt lat="49.16295" lon="-1.57184">
        <ele>7.6</ele>
        <time>2022-08-27T08:19:50Z</time>
      </trkpt>
      <trkpt lat="49.16274" lon="-1.57132">
        <ele>7.2</ele>
        <time>2022-08-27T08:19:57Z</time>
      </trkpt>
      <trkpt lat="49.16251" lon="-1.57072">
        <ele>8.2</ele>
        <time>2022-08-27T08:20:05Z</time>
      </trkpt>
      <trkpt lat="49.16226" lon="-1.57002">
        <ele>8.2</ele>
        <time>2022-08-27T08:20:14Z</time>
      </trkpt>
      <trkpt lat="49.16205" lon="-1.56939">
        <ele>8.6</ele>
        <time>2022-08-27T08:20:22Z</time>
      </trkpt>
      <trkpt lat="49.16182" lon="-1.56873">
        <ele>8.8</ele>
        <time>2022-08-27T08:20:30Z</time>
      </trkpt>
      <trkpt lat="49.16173" lon="-1.56859">
        <ele>9</ele>
        <time>2022-08-27T08:20:32Z</time>
      </trkpt>
      <trkpt lat="49.16163" lon="-1.56849">
        <ele>9</ele>
        <time>2022-08-27T08:20:34Z</time>
      </trkpt>
      <trkpt lat="49.1613" lon="-1.56805">
        <ele>9.2</ele>
        <time>2022-08-27T08:20:41Z</time>
      </trkpt>
      <trkpt lat="49.16091" lon="-1.56761">
        <ele>9.6</ele>
        <time>2022-08-27T08:20:49Z</time>
      </trkpt>
      <trkpt lat="49.16052" lon="-1.56732">
        <ele>10</ele>
        <time>2022-08-27T08:20:56Z</time>
      </trkpt>
      <trkpt lat="49.15998" lon="-1.56706">
        <ele>10.6</ele>
        <time>2022-08-27T08:21:05Z</time>
      </trkpt>
      <trkpt lat="49.1596" lon="-1.56692">
        <ele>10.8</ele>
        <time>2022-08-27T08:21:11Z</time>
      </trkpt>
      <trkpt lat="49.15919" lon="-1.56693">
        <ele>11</ele>
        <time>2022-08-27T08:21:17Z</time>
      </trkpt>
      <trkpt lat="49.15874" lon="-1.56691">
        <ele>11.2</ele>
        <time>2022-08-27T08:21:23Z</time>
      </trkpt>
      <trkpt lat="49.15844" lon="-1.5669">
        <ele>11.2</ele>
        <time>2022-08-27T08:21:27Z</time>
      </trkpt>
      <trkpt lat="49.15836" lon="-1.56693">
        <ele>11.4</ele>
        <time>2022-08-27T08:21:28Z</time>
      </trkpt>
      <trkpt lat="49.15829" lon="-1.56697">
        <ele>11.4</ele>
        <time>2022-08-27T08:21:29Z</time>
      </trkpt>
      <trkpt lat="49.1581" lon="-1.56714">
        <ele>11.4</ele>
        <time>2022-08-27T08:21:32Z</time>
      </trkpt>
      <trkpt lat="49.15799" lon="-1.56727">
        <ele>11.2</ele>
        <time>2022-08-27T08:21:34Z</time>
      </trkpt>
      <trkpt lat="49.1579" lon="-1.56743">
        <ele>11.2</ele>
        <time>2022-08-27T08:21:36Z</time>
      </trkpt>
      <trkpt lat="49.15765" lon="-1.56788">
        <ele>10.8</ele>
        <time>2022-08-27T08:21:42Z</time>
      </trkpt>
      <trkpt lat="49.15761" lon="-1.56796">
        <ele>11</ele>
        <time>2022-08-27T08:21:43Z</time>
      </trkpt>
      <trkpt lat="49.15755" lon="-1.56813">
        <ele>11</ele>
        <time>2022-08-27T08:21:45Z</time>
      </trkpt>
      <trkpt lat="49.15752" lon="-1.56823">
        <ele>10.8</ele>
        <time>2022-08-27T08:21:46Z</time>
      </trkpt>
      <trkpt lat="49.1574" lon="-1.56879">
        <ele>11.4</ele>
        <time>2022-08-27T08:21:52Z</time>
      </trkpt>
      <trkpt lat="49.15726" lon="-1.56942">
        <ele>11.6</ele>
        <time>2022-08-27T08:21:59Z</time>
      </trkpt>
      <trkpt lat="49.15706" lon="-1.57004">
        <ele>11.8</ele>
        <time>2022-08-27T08:22:06Z</time>
      </trkpt>
      <trkpt lat="49.15681" lon="-1.57064">
        <ele>12</ele>
        <time>2022-08-27T08:22:13Z</time>
      </trkpt>
      <trkpt lat="49.15651" lon="-1.57119">
        <ele>12.2</ele>
        <time>2022-08-27T08:22:20Z</time>
      </trkpt>
      <trkpt lat="49.15626" lon="-1.57182">
        <ele>12.2</ele>
        <time>2022-08-27T08:22:27Z</time>
      </trkpt>
      <trkpt lat="49.15609" lon="-1.57242">
        <ele>12.2</ele>
        <time>2022-08-27T08:22:33Z</time>
      </trkpt>
      <trkpt lat="49.156" lon="-1.57301">
        <ele>12</ele>
        <time>2022-08-27T08:22:38Z</time>
      </trkpt>
      <trkpt lat="49.15595" lon="-1.57358">
        <ele>11.6</ele>
        <time>2022-08-27T08:22:43Z</time>
      </trkpt>
      <trkpt lat="49.15594" lon="-1.57375">
        <ele>11.6</ele>
        <time>2022-08-27T08:22:45Z</time>
      </trkpt>
      <trkpt lat="49.15594" lon="-1.57382">
        <ele>11.6</ele>
        <time>2022-08-27T08:22:46Z</time>
      </trkpt>
      <trkpt lat="49.15594" lon="-1.57389">
        <ele>11.6</ele>
        <time>2022-08-27T08:22:47Z</time>
      </trkpt>
      <trkpt lat="49.15589" lon="-1.574">
        <ele>11.6</ele>
        <time>2022-08-27T08:22:49Z</time>
      </trkpt>
      <trkpt lat="49.15567" lon="-1.57417">
        <ele>11.4</ele>
        <time>2022-08-27T08:22:53Z</time>
      </trkpt>
      <trkpt lat="49.15535" lon="-1.5744">
        <ele>11</ele>
        <time>2022-08-27T08:22:58Z</time>
      </trkpt>
      <trkpt lat="49.15523" lon="-1.57449">
        <ele>10.8</ele>
        <time>2022-08-27T08:23:00Z</time>
      </trkpt>
      <trkpt lat="49.15517" lon="-1.57451">
        <ele>10.8</ele>
        <time>2022-08-27T08:23:01Z</time>
      </trkpt>
      <trkpt lat="49.1551" lon="-1.57451">
        <ele>10.8</ele>
        <time>2022-08-27T08:23:02Z</time>
      </trkpt>
      <trkpt lat="49.15499" lon="-1.57448">
        <ele>10.8</ele>
        <time>2022-08-27T08:23:04Z</time>
      </trkpt>
      <trkpt lat="49.15473" lon="-1.57438">
        <ele>10.8</ele>
        <time>2022-08-27T08:23:10Z</time>
      </trkpt>
      <trkpt lat="49.15445" lon="-1.57434">
        <ele>11.6</ele>
        <time>2022-08-27T08:23:17Z</time>
      </trkpt>
      <trkpt lat="49.15422" lon="-1.57431">
        <ele>11.8</ele>
        <time>2022-08-27T08:23:22Z</time>
      </trkpt>
      <trkpt lat="49.15417" lon="-1.57431">
        <ele>11.8</ele>
        <time>2022-08-27T08:23:23Z</time>
      </trkpt>
      <trkpt lat="49.15398" lon="-1.57426">
        <ele>11.8</ele>
        <time>2022-08-27T08:23:27Z</time>
      </trkpt>
      <trkpt lat="49.15371" lon="-1.57422">
        <ele>12</ele>
        <time>2022-08-27T08:23:33Z</time>
      </trkpt>
      <trkpt lat="49.15366" lon="-1.57423">
        <ele>12</ele>
        <time>2022-08-27T08:23:34Z</time>
      </trkpt>
      <trkpt lat="49.15351" lon="-1.57427">
        <ele>12</ele>
        <time>2022-08-27T08:23:37Z</time>
      </trkpt>
      <trkpt lat="49.15336" lon="-1.5743">
        <ele>12</ele>
        <time>2022-08-27T08:23:41Z</time>
      </trkpt>
      <trkpt lat="49.15327" lon="-1.57432">
        <ele>12</ele>
        <time>2022-08-27T08:23:44Z</time>
      </trkpt>
      <trkpt lat="49.15308" lon="-1.57435">
        <ele>11.8</ele>
        <time>2022-08-27T08:23:49Z</time>
      </trkpt>
      <trkpt lat="49.15284" lon="-1.57439">
        <ele>11.4</ele>
        <time>2022-08-27T08:23:54Z</time>
      </trkpt>
      <trkpt lat="49.15266" lon="-1.5744">
        <ele>11.4</ele>
        <time>2022-08-27T08:23:58Z</time>
      </trkpt>
      <trkpt lat="49.15256" lon="-1.5744">
        <ele>11.2</ele>
        <time>2022-08-27T08:24:00Z</time>
      </trkpt>
      <trkpt lat="49.15247" lon="-1.57439">
        <ele>11</ele>
        <time>2022-08-27T08:24:02Z</time>
      </trkpt>
      <trkpt lat="49.15208" lon="-1.57431">
        <ele>10.6</ele>
        <time>2022-08-27T08:24:10Z</time>
      </trkpt>
      <trkpt lat="49.15195" lon="-1.5743">
        <ele>10.6</ele>
        <time>2022-08-27T08:24:13Z</time>
      </trkpt>
      <trkpt lat="49.1519" lon="-1.57431">
        <ele>10.6</ele>
        <time>2022-08-27T08:24:14Z</time>
      </trkpt>
      <trkpt lat="49.15169" lon="-1.57433">
        <ele>10.6</ele>
        <time>2022-08-27T08:24:18Z</time>
      </trkpt>
      <trkpt lat="49.15164" lon="-1.57432">
        <ele>10.6</ele>
        <time>2022-08-27T08:24:19Z</time>
      </trkpt>
      <trkpt lat="49.15139" lon="-1.57432">
        <ele>10.6</ele>
        <time>2022-08-27T08:24:24Z</time>
      </trkpt>
      <trkpt lat="49.15129" lon="-1.57433">
        <ele>10.4</ele>
        <time>2022-08-27T08:24:26Z</time>
      </trkpt>
      <trkpt lat="49.15121" lon="-1.57436">
        <ele>10.2</ele>
        <time>2022-08-27T08:24:28Z</time>
      </trkpt>
      <trkpt lat="49.15118" lon="-1.5744">
        <ele>10.2</ele>
        <time>2022-08-27T08:24:29Z</time>
      </trkpt>
      <trkpt lat="49.15112" lon="-1.57452">
        <ele>10.2</ele>
        <time>2022-08-27T08:24:31Z</time>
      </trkpt>
      <trkpt lat="49.15108" lon="-1.57465">
        <ele>10.4</ele>
        <time>2022-08-27T08:24:33Z</time>
      </trkpt>
      <trkpt lat="49.15105" lon="-1.57479">
        <ele>10.4</ele>
        <time>2022-08-27T08:24:35Z</time>
      </trkpt>
      <trkpt lat="49.15103" lon="-1.57486">
        <ele>10.2</ele>
        <time>2022-08-27T08:24:36Z</time>
      </trkpt>
      <trkpt lat="49.15101" lon="-1.57492">
        <ele>10.2</ele>
        <time>2022-08-27T08:24:37Z</time>
      </trkpt>
      <trkpt lat="49.15099" lon="-1.57511">
        <ele>10</ele>
        <time>2022-08-27T08:24:40Z</time>
      </trkpt>
      <trkpt lat="49.15094" lon="-1.57534">
        <ele>9.6</ele>
        <time>2022-08-27T08:24:44Z</time>
      </trkpt>
      <trkpt lat="49.15089" lon="-1.57552">
        <ele>9.2</ele>
        <time>2022-08-27T08:24:47Z</time>
      </trkpt>
      <trkpt lat="49.15086" lon="-1.57558">
        <ele>9</ele>
        <time>2022-08-27T08:24:48Z</time>
      </trkpt>
      <trkpt lat="49.15069" lon="-1.57579">
        <ele>8.2</ele>
        <time>2022-08-27T08:24:53Z</time>
      </trkpt>
      <trkpt lat="49.15039" lon="-1.57598">
        <ele>7.8</ele>
        <time>2022-08-27T08:24:59Z</time>
      </trkpt>
      <trkpt lat="49.14998" lon="-1.57616">
        <ele>8</ele>
        <time>2022-08-27T08:25:06Z</time>
      </trkpt>
      <trkpt lat="49.14985" lon="-1.57622">
        <ele>8</ele>
        <time>2022-08-27T08:25:08Z</time>
      </trkpt>
      <trkpt lat="49.14957" lon="-1.57632">
        <ele>7.4</ele>
        <time>2022-08-27T08:25:13Z</time>
      </trkpt>
      <trkpt lat="49.14924" lon="-1.57644">
        <ele>8.4</ele>
        <time>2022-08-27T08:25:19Z</time>
      </trkpt>
      <trkpt lat="49.1489" lon="-1.57654">
        <ele>8.8</ele>
        <time>2022-08-27T08:25:25Z</time>
      </trkpt>
      <trkpt lat="49.14847" lon="-1.57665">
        <ele>9</ele>
        <time>2022-08-27T08:25:32Z</time>
      </trkpt>
      <trkpt lat="49.14812" lon="-1.57668">
        <ele>8.8</ele>
        <time>2022-08-27T08:25:38Z</time>
      </trkpt>
      <trkpt lat="49.14807" lon="-1.57667">
        <ele>8.8</ele>
        <time>2022-08-27T08:25:39Z</time>
      </trkpt>
      <trkpt lat="49.1479" lon="-1.57664">
        <ele>8.6</ele>
        <time>2022-08-27T08:25:42Z</time>
      </trkpt>
      <trkpt lat="49.14784" lon="-1.57662">
        <ele>8.4</ele>
        <time>2022-08-27T08:25:43Z</time>
      </trkpt>
      <trkpt lat="49.1476" lon="-1.57657">
        <ele>8.2</ele>
        <time>2022-08-27T08:25:47Z</time>
      </trkpt>
      <trkpt lat="49.14755" lon="-1.57659">
        <ele>8.2</ele>
        <time>2022-08-27T08:25:48Z</time>
      </trkpt>
      <trkpt lat="49.14751" lon="-1.57663">
        <ele>8</ele>
        <time>2022-08-27T08:25:49Z</time>
      </trkpt>
      <trkpt lat="49.14746" lon="-1.57676">
        <ele>8.4</ele>
        <time>2022-08-27T08:25:51Z</time>
      </trkpt>
      <trkpt lat="49.14742" lon="-1.57691">
        <ele>8.6</ele>
        <time>2022-08-27T08:25:53Z</time>
      </trkpt>
      <trkpt lat="49.14734" lon="-1.57713">
        <ele>8.8</ele>
        <time>2022-08-27T08:25:56Z</time>
      </trkpt>
      <trkpt lat="49.1471" lon="-1.57763">
        <ele>8.8</ele>
        <time>2022-08-27T08:26:03Z</time>
      </trkpt>
      <trkpt lat="49.14707" lon="-1.5777">
        <ele>8.8</ele>
        <time>2022-08-27T08:26:04Z</time>
      </trkpt>
      <trkpt lat="49.14703" lon="-1.5778">
        <ele>8.8</ele>
        <time>2022-08-27T08:26:06Z</time>
      </trkpt>
      <trkpt lat="49.14699" lon="-1.57786">
        <ele>8.8</ele>
        <time>2022-08-27T08:26:08Z</time>
      </trkpt>
      <trkpt lat="49.14695" lon="-1.57786">
        <ele>8.8</ele>
        <time>2022-08-27T08:26:09Z</time>
      </trkpt>
      <trkpt lat="49.14687" lon="-1.57777">
        <ele>8.8</ele>
        <time>2022-08-27T08:26:12Z</time>
      </trkpt>
      <trkpt lat="49.14678" lon="-1.5776">
        <ele>8.2</ele>
        <time>2022-08-27T08:26:16Z</time>
      </trkpt>
      <trkpt lat="49.14662" lon="-1.5773">
        <ele>8</ele>
        <time>2022-08-27T08:26:22Z</time>
      </trkpt>
      <trkpt lat="49.14657" lon="-1.57719">
        <ele>7.8</ele>
        <time>2022-08-27T08:26:24Z</time>
      </trkpt>
      <trkpt lat="49.14649" lon="-1.57699">
        <ele>7.2</ele>
        <time>2022-08-27T08:26:28Z</time>
      </trkpt>
      <trkpt lat="49.14641" lon="-1.57674">
        <ele>6.6</ele>
        <time>2022-08-27T08:26:32Z</time>
      </trkpt>
      <trkpt lat="49.14638" lon="-1.5766">
        <ele>6.4</ele>
        <time>2022-08-27T08:26:34Z</time>
      </trkpt>
      <trkpt lat="49.14632" lon="-1.57645">
        <ele>6</ele>
        <time>2022-08-27T08:26:37Z</time>
      </trkpt>
      <trkpt lat="49.1463" lon="-1.57643">
        <ele>6</ele>
        <time>2022-08-27T08:26:38Z</time>
      </trkpt>
      <trkpt lat="49.14622" lon="-1.57645">
        <ele>5.8</ele>
        <time>2022-08-27T08:26:40Z</time>
      </trkpt>
      <trkpt lat="49.14612" lon="-1.57652">
        <ele>5.8</ele>
        <time>2022-08-27T08:26:43Z</time>
      </trkpt>
      <trkpt lat="49.14609" lon="-1.57651">
        <ele>5.6</ele>
        <time>2022-08-27T08:26:44Z</time>
      </trkpt>
      <trkpt lat="49.146" lon="-1.5765">
        <ele>5.4</ele>
        <time>2022-08-27T08:26:46Z</time>
      </trkpt>
      <trkpt lat="49.14594" lon="-1.57648">
        <ele>5.4</ele>
        <time>2022-08-27T08:26:47Z</time>
      </trkpt>
      <trkpt lat="49.1457" lon="-1.57639">
        <ele>4.6</ele>
        <time>2022-08-27T08:26:52Z</time>
      </trkpt>
      <trkpt lat="49.14562" lon="-1.57637">
        <ele>4.4</ele>
        <time>2022-08-27T08:26:55Z</time>
      </trkpt>
      <trkpt lat="49.14561" lon="-1.57637">
        <ele>4.2</ele>
        <time>2022-08-27T08:26:56Z</time>
      </trkpt>
      <trkpt lat="49.14534" lon="-1.57594">
        <ele>1</ele>
        <time>2022-08-27T08:29:01Z</time>
      </trkpt>
      <trkpt lat="49.14532" lon="-1.5759">
        <ele>1.2</ele>
        <time>2022-08-27T08:29:03Z</time>
      </trkpt>
      <trkpt lat="49.14529" lon="-1.57586">
        <ele>1.4</ele>
        <time>2022-08-27T08:29:07Z</time>
      </trkpt>
      <trkpt lat="49.14527" lon="-1.57583">
        <ele>1.6</ele>
        <time>2022-08-27T08:29:12Z</time>
      </trkpt>
      <trkpt lat="49.14518" lon="-1.57569">
        <ele>1.8</ele>
        <time>2022-08-27T08:29:17Z</time>
      </trkpt>
      <trkpt lat="49.14503" lon="-1.57553">
        <ele>2</ele>
        <time>2022-08-27T08:29:23Z</time>
      </trkpt>
      <trkpt lat="49.14486" lon="-1.57536">
        <ele>2</ele>
        <time>2022-08-27T08:29:29Z</time>
      </trkpt>
      <trkpt lat="49.14474" lon="-1.57525">
        <ele>2.2</ele>
        <time>2022-08-27T08:29:33Z</time>
      </trkpt>
      <trkpt lat="49.14454" lon="-1.5751">
        <ele>2.2</ele>
        <time>2022-08-27T08:29:38Z</time>
      </trkpt>
      <trkpt lat="49.1445" lon="-1.57507">
        <ele>2.2</ele>
        <time>2022-08-27T08:29:39Z</time>
      </trkpt>
      <trkpt lat="49.14439" lon="-1.57498">
        <ele>2.2</ele>
        <time>2022-08-27T08:29:42Z</time>
      </trkpt>
      <trkpt lat="49.14431" lon="-1.57493">
        <ele>1.8</ele>
        <time>2022-08-27T08:29:44Z</time>
      </trkpt>
      <trkpt lat="49.1442" lon="-1.57485">
        <ele>1.6</ele>
        <time>2022-08-27T08:29:47Z</time>
      </trkpt>
      <trkpt lat="49.14394" lon="-1.57465">
        <ele>0.60000000000002</ele>
        <time>2022-08-27T08:29:54Z</time>
      </trkpt>
      <trkpt lat="49.14374" lon="-1.57444">
        <ele>0.39999999999998</ele>
        <time>2022-08-27T08:30:00Z</time>
      </trkpt>
      <trkpt lat="49.14351" lon="-1.57422">
        <ele>0.19999999999999</ele>
        <time>2022-08-27T08:30:06Z</time>
      </trkpt>
      <trkpt lat="49.14347" lon="-1.57419">
        <ele>0.19999999999999</ele>
        <time>2022-08-27T08:30:07Z</time>
      </trkpt>
      <trkpt lat="49.14321" lon="-1.57407">
        <ele>-0.39999999999998</ele>
        <time>2022-08-27T08:30:13Z</time>
      </trkpt>
      <trkpt lat="49.14294" lon="-1.57389">
        <ele>-0.80000000000001</ele>
        <time>2022-08-27T08:30:20Z</time>
      </trkpt>
      <trkpt lat="49.14269" lon="-1.5737">
        <ele>-1</ele>
        <time>2022-08-27T08:30:27Z</time>
      </trkpt>
      <trkpt lat="49.14255" lon="-1.57345">
        <ele>-1.2</ele>
        <time>2022-08-27T08:30:32Z</time>
      </trkpt>
      <trkpt lat="49.14251" lon="-1.57343">
        <ele>-1.2</ele>
        <time>2022-08-27T08:30:33Z</time>
      </trkpt>
      <trkpt lat="49.14237" lon="-1.57334">
        <ele>-1.4</ele>
        <time>2022-08-27T08:30:36Z</time>
      </trkpt>
      <trkpt lat="49.14203" lon="-1.5732">
        <ele>-0.60000000000002</ele>
        <time>2022-08-27T08:30:42Z</time>
      </trkpt>
      <trkpt lat="49.14166" lon="-1.5731">
        <ele>-0.60000000000002</ele>
        <time>2022-08-27T08:30:48Z</time>
      </trkpt>
      <trkpt lat="49.14122" lon="-1.57292">
        <ele>0.80000000000001</ele>
        <time>2022-08-27T08:30:56Z</time>
      </trkpt>
      <trkpt lat="49.14107" lon="-1.57285">
        <ele>1.2</ele>
        <time>2022-08-27T08:30:59Z</time>
      </trkpt>
      <trkpt lat="49.14091" lon="-1.57282">
        <ele>1.6</ele>
        <time>2022-08-27T08:31:02Z</time>
      </trkpt>
      <trkpt lat="49.14043" lon="-1.57269">
        <ele>2.6</ele>
        <time>2022-08-27T08:31:11Z</time>
      </trkpt>
      <trkpt lat="49.14023" lon="-1.57262">
        <ele>3</ele>
        <time>2022-08-27T08:31:15Z</time>
      </trkpt>
      <trkpt lat="49.14013" lon="-1.57258">
        <ele>3.2</ele>
        <time>2022-08-27T08:31:17Z</time>
      </trkpt>
      <trkpt lat="49.13979" lon="-1.57246">
        <ele>4</ele>
        <time>2022-08-27T08:31:24Z</time>
      </trkpt>
      <trkpt lat="49.13947" lon="-1.57236">
        <ele>4.4</ele>
        <time>2022-08-27T08:31:30Z</time>
      </trkpt>
      <trkpt lat="49.13906" lon="-1.57229">
        <ele>4.8</ele>
        <time>2022-08-27T08:31:37Z</time>
      </trkpt>
      <trkpt lat="49.13858" lon="-1.57219">
        <ele>5</ele>
        <time>2022-08-27T08:31:45Z</time>
      </trkpt>
      <trkpt lat="49.13828" lon="-1.57205">
        <ele>5.2</ele>
        <time>2022-08-27T08:31:50Z</time>
      </trkpt>
      <trkpt lat="49.13822" lon="-1.57201">
        <ele>5.2</ele>
        <time>2022-08-27T08:31:51Z</time>
      </trkpt>
      <trkpt lat="49.13784" lon="-1.57174">
        <ele>5.2</ele>
        <time>2022-08-27T08:31:58Z</time>
      </trkpt>
      <trkpt lat="49.13738" lon="-1.5714">
        <ele>5.6</ele>
        <time>2022-08-27T08:32:07Z</time>
      </trkpt>
      <trkpt lat="49.13723" lon="-1.57128">
        <ele>5.6</ele>
        <time>2022-08-27T08:32:10Z</time>
      </trkpt>
      <trkpt lat="49.13716" lon="-1.57118">
        <ele>6</ele>
        <time>2022-08-27T08:32:12Z</time>
      </trkpt>
      <trkpt lat="49.13711" lon="-1.57105">
        <ele>6</ele>
        <time>2022-08-27T08:32:14Z</time>
      </trkpt>
      <trkpt lat="49.13707" lon="-1.5709">
        <ele>6</ele>
        <time>2022-08-27T08:32:16Z</time>
      </trkpt>
      <trkpt lat="49.13699" lon="-1.57058">
        <ele>6.2</ele>
        <time>2022-08-27T08:32:21Z</time>
      </trkpt>
      <trkpt lat="49.13697" lon="-1.57053">
        <ele>6.2</ele>
        <time>2022-08-27T08:32:22Z</time>
      </trkpt>
      <trkpt lat="49.13694" lon="-1.57049">
        <ele>6.4</ele>
        <time>2022-08-27T08:32:23Z</time>
      </trkpt>
      <trkpt lat="49.13686" lon="-1.57049">
        <ele>6.4</ele>
        <time>2022-08-27T08:32:25Z</time>
      </trkpt>
      <trkpt lat="49.13661" lon="-1.57066">
        <ele>6.4</ele>
        <time>2022-08-27T08:32:30Z</time>
      </trkpt>
      <trkpt lat="49.13619" lon="-1.57092">
        <ele>6.8</ele>
        <time>2022-08-27T08:32:37Z</time>
      </trkpt>
      <trkpt lat="49.13574" lon="-1.57119">
        <ele>7.2</ele>
        <time>2022-08-27T08:32:44Z</time>
      </trkpt>
      <trkpt lat="49.13524" lon="-1.57145">
        <ele>7.4</ele>
        <time>2022-08-27T08:32:51Z</time>
      </trkpt>
      <trkpt lat="49.13479" lon="-1.57168">
        <ele>7.6</ele>
        <time>2022-08-27T08:32:57Z</time>
      </trkpt>
      <trkpt lat="49.13423" lon="-1.572">
        <ele>7.8</ele>
        <time>2022-08-27T08:33:04Z</time>
      </trkpt>
      <trkpt lat="49.13415" lon="-1.57204">
        <ele>7.8</ele>
        <time>2022-08-27T08:33:05Z</time>
      </trkpt>
      <trkpt lat="49.13361" lon="-1.57232">
        <ele>7.8</ele>
        <time>2022-08-27T08:33:12Z</time>
      </trkpt>
      <trkpt lat="49.13313" lon="-1.57259">
        <ele>8</ele>
        <time>2022-08-27T08:33:19Z</time>
      </trkpt>
      <trkpt lat="49.13262" lon="-1.57287">
        <ele>8.2</ele>
        <time>2022-08-27T08:33:27Z</time>
      </trkpt>
      <trkpt lat="49.13256" lon="-1.57291">
        <ele>8.2</ele>
        <time>2022-08-27T08:33:28Z</time>
      </trkpt>
      <trkpt lat="49.13217" lon="-1.57318">
        <ele>8.4</ele>
        <time>2022-08-27T08:33:35Z</time>
      </trkpt>
      <trkpt lat="49.13178" lon="-1.57343">
        <ele>8.4</ele>
        <time>2022-08-27T08:33:42Z</time>
      </trkpt>
      <trkpt lat="49.13147" lon="-1.57357">
        <ele>8.4</ele>
        <time>2022-08-27T08:33:47Z</time>
      </trkpt>
      <trkpt lat="49.13095" lon="-1.57374">
        <ele>8.2</ele>
        <time>2022-08-27T08:33:54Z</time>
      </trkpt>
      <trkpt lat="49.13054" lon="-1.57391">
        <ele>8.4</ele>
        <time>2022-08-27T08:34:00Z</time>
      </trkpt>
      <trkpt lat="49.13021" lon="-1.57414">
        <ele>8.2</ele>
        <time>2022-08-27T08:34:05Z</time>
      </trkpt>
      <trkpt lat="49.12972" lon="-1.57454">
        <ele>8.6</ele>
        <time>2022-08-27T08:34:13Z</time>
      </trkpt>
      <trkpt lat="49.12966" lon="-1.57459">
        <ele>8.4</ele>
        <time>2022-08-27T08:34:14Z</time>
      </trkpt>
      <trkpt lat="49.12914" lon="-1.57492">
        <ele>8.4</ele>
        <time>2022-08-27T08:34:22Z</time>
      </trkpt>
      <trkpt lat="49.12906" lon="-1.57495">
        <ele>8.4</ele>
        <time>2022-08-27T08:34:23Z</time>
      </trkpt>
      <trkpt lat="49.12847" lon="-1.57517">
        <ele>8.4</ele>
        <time>2022-08-27T08:34:31Z</time>
      </trkpt>
      <trkpt lat="49.12795" lon="-1.57537">
        <ele>8.6</ele>
        <time>2022-08-27T08:34:38Z</time>
      </trkpt>
      <trkpt lat="49.1278" lon="-1.57542">
        <ele>8.6</ele>
        <time>2022-08-27T08:34:40Z</time>
      </trkpt>
      <trkpt lat="49.12725" lon="-1.57562">
        <ele>8.6</ele>
        <time>2022-08-27T08:34:48Z</time>
      </trkpt>
      <trkpt lat="49.12719" lon="-1.57564">
        <ele>8.6</ele>
        <time>2022-08-27T08:34:49Z</time>
      </trkpt>
      <trkpt lat="49.12661" lon="-1.57577">
        <ele>8.6</ele>
        <time>2022-08-27T08:34:57Z</time>
      </trkpt>
      <trkpt lat="49.1261" lon="-1.57591">
        <ele>8.4</ele>
        <time>2022-08-27T08:35:04Z</time>
      </trkpt>
      <trkpt lat="49.1257" lon="-1.57617">
        <ele>8.8</ele>
        <time>2022-08-27T08:35:10Z</time>
      </trkpt>
      <trkpt lat="49.12518" lon="-1.57655">
        <ele>9</ele>
        <time>2022-08-27T08:35:18Z</time>
      </trkpt>
      <trkpt lat="49.12512" lon="-1.5766">
        <ele>9</ele>
        <time>2022-08-27T08:35:19Z</time>
      </trkpt>
      <trkpt lat="49.12462" lon="-1.57697">
        <ele>9.2</ele>
        <time>2022-08-27T08:35:27Z</time>
      </trkpt>
      <trkpt lat="49.12443" lon="-1.5771">
        <ele>9.4</ele>
        <time>2022-08-27T08:35:30Z</time>
      </trkpt>
      <trkpt lat="49.12392" lon="-1.57746">
        <ele>9.6</ele>
        <time>2022-08-27T08:35:38Z</time>
      </trkpt>
      <trkpt lat="49.12378" lon="-1.57754">
        <ele>9.8</ele>
        <time>2022-08-27T08:35:40Z</time>
      </trkpt>
      <trkpt lat="49.12326" lon="-1.5778">
        <ele>10</ele>
        <time>2022-08-27T08:35:48Z</time>
      </trkpt>
      <trkpt lat="49.12319" lon="-1.57784">
        <ele>10</ele>
        <time>2022-08-27T08:35:49Z</time>
      </trkpt>
      <trkpt lat="49.12269" lon="-1.57806">
        <ele>10.2</ele>
        <time>2022-08-27T08:35:56Z</time>
      </trkpt>
      <trkpt lat="49.12261" lon="-1.57808">
        <ele>10.2</ele>
        <time>2022-08-27T08:35:57Z</time>
      </trkpt>
      <trkpt lat="49.12229" lon="-1.57813">
        <ele>10.2</ele>
        <time>2022-08-27T08:36:01Z</time>
      </trkpt>
      <trkpt lat="49.12214" lon="-1.57818">
        <ele>10.2</ele>
        <time>2022-08-27T08:36:03Z</time>
      </trkpt>
      <trkpt lat="49.122" lon="-1.57831">
        <ele>10.2</ele>
        <time>2022-08-27T08:36:05Z</time>
      </trkpt>
      <trkpt lat="49.12171" lon="-1.57871">
        <ele>10.2</ele>
        <time>2022-08-27T08:36:10Z</time>
      </trkpt>
      <trkpt lat="49.12141" lon="-1.57901">
        <ele>10.2</ele>
        <time>2022-08-27T08:36:15Z</time>
      </trkpt>
      <trkpt lat="49.12101" lon="-1.57925">
        <ele>10.2</ele>
        <time>2022-08-27T08:36:21Z</time>
      </trkpt>
      <trkpt lat="49.12046" lon="-1.57943">
        <ele>10.6</ele>
        <time>2022-08-27T08:36:29Z</time>
      </trkpt>
      <trkpt lat="49.12039" lon="-1.57945">
        <ele>10.6</ele>
        <time>2022-08-27T08:36:30Z</time>
      </trkpt>
      <trkpt lat="49.1199" lon="-1.57962">
        <ele>10.8</ele>
        <time>2022-08-27T08:36:37Z</time>
      </trkpt>
      <trkpt lat="49.11956" lon="-1.57976">
        <ele>10.8</ele>
        <time>2022-08-27T08:36:42Z</time>
      </trkpt>
      <trkpt lat="49.11915" lon="-1.57994">
        <ele>11</ele>
        <time>2022-08-27T08:36:49Z</time>
      </trkpt>
      <trkpt lat="49.1191" lon="-1.57996">
        <ele>11</ele>
        <time>2022-08-27T08:36:50Z</time>
      </trkpt>
      <trkpt lat="49.11898" lon="-1.57996">
        <ele>11</ele>
        <time>2022-08-27T08:36:52Z</time>
      </trkpt>
      <trkpt lat="49.11874" lon="-1.57996">
        <ele>11.2</ele>
        <time>2022-08-27T08:36:57Z</time>
      </trkpt>
      <trkpt lat="49.1186" lon="-1.57987">
        <ele>11.2</ele>
        <time>2022-08-27T08:37:02Z</time>
      </trkpt>
      <trkpt lat="49.11858" lon="-1.57986">
        <ele>11.2</ele>
        <time>2022-08-27T08:37:03Z</time>
      </trkpt>
      <trkpt lat="49.11857" lon="-1.57986">
        <ele>11</ele>
        <time>2022-08-27T08:37:05Z</time>
      </trkpt>
      <trkpt lat="49.11857" lon="-1.57986">
        <ele>11</ele>
        <time>2022-08-27T08:37:06Z</time>
      </trkpt>
      <trkpt lat="49.11859" lon="-1.57985">
        <ele>10.8</ele>
        <time>2022-08-27T08:40:13Z</time>
      </trkpt>
      <trkpt lat="49.11861" lon="-1.57992">
        <ele>10.8</ele>
        <time>2022-08-27T08:40:15Z</time>
      </trkpt>
      <trkpt lat="49.1187" lon="-1.57995">
        <ele>10.6</ele>
        <time>2022-08-27T08:40:18Z</time>
      </trkpt>
      <trkpt lat="49.11881" lon="-1.58007">
        <ele>10.4</ele>
        <time>2022-08-27T08:40:22Z</time>
      </trkpt>
      <trkpt lat="49.11879" lon="-1.58017">
        <ele>10.4</ele>
        <time>2022-08-27T08:40:24Z</time>
      </trkpt>
      <trkpt lat="49.11877" lon="-1.58022">
        <ele>10.4</ele>
        <time>2022-08-27T08:40:25Z</time>
      </trkpt>
      <trkpt lat="49.11873" lon="-1.58026">
        <ele>10.4</ele>
        <time>2022-08-27T08:40:26Z</time>
      </trkpt>
      <trkpt lat="49.11866" lon="-1.58037">
        <ele>10.6</ele>
        <time>2022-08-27T08:40:28Z</time>
      </trkpt>
      <trkpt lat="49.11861" lon="-1.5805">
        <ele>10.8</ele>
        <time>2022-08-27T08:40:30Z</time>
      </trkpt>
      <trkpt lat="49.11856" lon="-1.58066">
        <ele>11</ele>
        <time>2022-08-27T08:40:33Z</time>
      </trkpt>
      <trkpt lat="49.11849" lon="-1.5807">
        <ele>11</ele>
        <time>2022-08-27T08:40:35Z</time>
      </trkpt>
      <trkpt lat="49.1184" lon="-1.58071">
        <ele>11</ele>
        <time>2022-08-27T08:40:37Z</time>
      </trkpt>
      <trkpt lat="49.11823" lon="-1.58073">
        <ele>11.2</ele>
        <time>2022-08-27T08:40:41Z</time>
      </trkpt>
      <trkpt lat="49.11815" lon="-1.58078">
        <ele>11.2</ele>
        <time>2022-08-27T08:40:43Z</time>
      </trkpt>
      <trkpt lat="49.11792" lon="-1.58095">
        <ele>11.2</ele>
        <time>2022-08-27T08:40:48Z</time>
      </trkpt>
      <trkpt lat="49.11781" lon="-1.58102">
        <ele>11.2</ele>
        <time>2022-08-27T08:40:50Z</time>
      </trkpt>
      <trkpt lat="49.11769" lon="-1.58104">
        <ele>11.2</ele>
        <time>2022-08-27T08:40:52Z</time>
      </trkpt>
      <trkpt lat="49.11746" lon="-1.58111">
        <ele>11.2</ele>
        <time>2022-08-27T08:40:56Z</time>
      </trkpt>
      <trkpt lat="49.1174" lon="-1.58115">
        <ele>11.2</ele>
        <time>2022-08-27T08:40:57Z</time>
      </trkpt>
      <trkpt lat="49.11736" lon="-1.58122">
        <ele>11.2</ele>
        <time>2022-08-27T08:40:58Z</time>
      </trkpt>
      <trkpt lat="49.11731" lon="-1.58138">
        <ele>11.2</ele>
        <time>2022-08-27T08:41:00Z</time>
      </trkpt>
      <trkpt lat="49.11722" lon="-1.58183">
        <ele>11</ele>
        <time>2022-08-27T08:41:05Z</time>
      </trkpt>
      <trkpt lat="49.11721" lon="-1.58192">
        <ele>11</ele>
        <time>2022-08-27T08:41:06Z</time>
      </trkpt>
      <trkpt lat="49.11712" lon="-1.58206">
        <ele>11</ele>
        <time>2022-08-27T08:41:08Z</time>
      </trkpt>
      <trkpt lat="49.11693" lon="-1.58209">
        <ele>11</ele>
        <time>2022-08-27T08:41:11Z</time>
      </trkpt>
      <trkpt lat="49.11687" lon="-1.58209">
        <ele>11</ele>
        <time>2022-08-27T08:41:12Z</time>
      </trkpt>
      <trkpt lat="49.11669" lon="-1.58206">
        <ele>11</ele>
        <time>2022-08-27T08:41:15Z</time>
      </trkpt>
      <trkpt lat="49.11658" lon="-1.58204">
        <ele>10.8</ele>
        <time>2022-08-27T08:41:17Z</time>
      </trkpt>
      <trkpt lat="49.11647" lon="-1.58202">
        <ele>11</ele>
        <time>2022-08-27T08:41:19Z</time>
      </trkpt>
      <trkpt lat="49.11608" lon="-1.58193">
        <ele>11</ele>
        <time>2022-08-27T08:41:26Z</time>
      </trkpt>
      <trkpt lat="49.11598" lon="-1.5819">
        <ele>11</ele>
        <time>2022-08-27T08:41:28Z</time>
      </trkpt>
      <trkpt lat="49.11582" lon="-1.58188">
        <ele>11</ele>
        <time>2022-08-27T08:41:31Z</time>
      </trkpt>
      <trkpt lat="49.1157" lon="-1.58188">
        <ele>11</ele>
        <time>2022-08-27T08:41:33Z</time>
      </trkpt>
      <trkpt lat="49.11553" lon="-1.58189">
        <ele>10.8</ele>
        <time>2022-08-27T08:41:36Z</time>
      </trkpt>
      <trkpt lat="49.115" lon="-1.58192">
        <ele>10.8</ele>
        <time>2022-08-27T08:41:45Z</time>
      </trkpt>
      <trkpt lat="49.11473" lon="-1.58193">
        <ele>10.8</ele>
        <time>2022-08-27T08:41:49Z</time>
      </trkpt>
      <trkpt lat="49.11467" lon="-1.58194">
        <ele>10.8</ele>
        <time>2022-08-27T08:41:50Z</time>
      </trkpt>
      <trkpt lat="49.11428" lon="-1.58203">
        <ele>10.6</ele>
        <time>2022-08-27T08:41:56Z</time>
      </trkpt>
      <trkpt lat="49.11399" lon="-1.58223">
        <ele>10.6</ele>
        <time>2022-08-27T08:42:01Z</time>
      </trkpt>
      <trkpt lat="49.11357" lon="-1.58256">
        <ele>10.6</ele>
        <time>2022-08-27T08:42:08Z</time>
      </trkpt>
      <trkpt lat="49.11322" lon="-1.58287">
        <ele>10</ele>
        <time>2022-08-27T08:42:14Z</time>
      </trkpt>
      <trkpt lat="49.1131" lon="-1.58296">
        <ele>9.8</ele>
        <time>2022-08-27T08:42:16Z</time>
      </trkpt>
      <trkpt lat="49.11296" lon="-1.58302">
        <ele>9.4</ele>
        <time>2022-08-27T08:42:18Z</time>
      </trkpt>
      <trkpt lat="49.11289" lon="-1.58303">
        <ele>9.4</ele>
        <time>2022-08-27T08:42:19Z</time>
      </trkpt>
      <trkpt lat="49.11256" lon="-1.58306">
        <ele>9.2</ele>
        <time>2022-08-27T08:42:23Z</time>
      </trkpt>
      <trkpt lat="49.11234" lon="-1.58309">
        <ele>9</ele>
        <time>2022-08-27T08:42:26Z</time>
      </trkpt>
      <trkpt lat="49.11221" lon="-1.58317">
        <ele>9</ele>
        <time>2022-08-27T08:42:28Z</time>
      </trkpt>
      <trkpt lat="49.11193" lon="-1.58329">
        <ele>9</ele>
        <time>2022-08-27T08:42:32Z</time>
      </trkpt>
      <trkpt lat="49.11186" lon="-1.5833">
        <ele>9</ele>
        <time>2022-08-27T08:42:33Z</time>
      </trkpt>
      <trkpt lat="49.11141" lon="-1.58323">
        <ele>9.2</ele>
        <time>2022-08-27T08:42:39Z</time>
      </trkpt>
      <trkpt lat="49.11113" lon="-1.58313">
        <ele>9.2</ele>
        <time>2022-08-27T08:42:43Z</time>
      </trkpt>
      <trkpt lat="49.11065" lon="-1.58281">
        <ele>9.4</ele>
        <time>2022-08-27T08:42:50Z</time>
      </trkpt>
      <trkpt lat="49.11033" lon="-1.5826">
        <ele>9.2</ele>
        <time>2022-08-27T08:42:55Z</time>
      </trkpt>
      <trkpt lat="49.11027" lon="-1.58257">
        <ele>9</ele>
        <time>2022-08-27T08:42:56Z</time>
      </trkpt>
      <trkpt lat="49.10977" lon="-1.58234">
        <ele>8.8</ele>
        <time>2022-08-27T08:43:04Z</time>
      </trkpt>
      <trkpt lat="49.10933" lon="-1.58223">
        <ele>8.8</ele>
        <time>2022-08-27T08:43:11Z</time>
      </trkpt>
      <trkpt lat="49.10888" lon="-1.58216">
        <ele>9.2</ele>
        <time>2022-08-27T08:43:18Z</time>
      </trkpt>
      <trkpt lat="49.10836" lon="-1.58218">
        <ele>9.2</ele>
        <time>2022-08-27T08:43:26Z</time>
      </trkpt>
      <trkpt lat="49.10788" lon="-1.58224">
        <ele>9.2</ele>
        <time>2022-08-27T08:43:33Z</time>
      </trkpt>
      <trkpt lat="49.10747" lon="-1.5823">
        <ele>9.2</ele>
        <time>2022-08-27T08:43:39Z</time>
      </trkpt>
      <trkpt lat="49.10727" lon="-1.58235">
        <ele>9.2</ele>
        <time>2022-08-27T08:43:42Z</time>
      </trkpt>
      <trkpt lat="49.1072" lon="-1.58237">
        <ele>9.2</ele>
        <time>2022-08-27T08:43:43Z</time>
      </trkpt>
      <trkpt lat="49.10682" lon="-1.58248">
        <ele>9</ele>
        <time>2022-08-27T08:43:49Z</time>
      </trkpt>
      <trkpt lat="49.1065" lon="-1.58263">
        <ele>8.6</ele>
        <time>2022-08-27T08:43:54Z</time>
      </trkpt>
      <trkpt lat="49.10624" lon="-1.58281">
        <ele>8.4</ele>
        <time>2022-08-27T08:43:58Z</time>
      </trkpt>
      <trkpt lat="49.10583" lon="-1.58309">
        <ele>8.4</ele>
        <time>2022-08-27T08:44:04Z</time>
      </trkpt>
      <trkpt lat="49.1053" lon="-1.58343">
        <ele>8.2</ele>
        <time>2022-08-27T08:44:12Z</time>
      </trkpt>
      <trkpt lat="49.10499" lon="-1.58359">
        <ele>8.4</ele>
        <time>2022-08-27T08:44:17Z</time>
      </trkpt>
      <trkpt lat="49.10492" lon="-1.58363">
        <ele>8.4</ele>
        <time>2022-08-27T08:44:18Z</time>
      </trkpt>
      <trkpt lat="49.10481" lon="-1.58376">
        <ele>8.2</ele>
        <time>2022-08-27T08:44:20Z</time>
      </trkpt>
      <trkpt lat="49.10456" lon="-1.58394">
        <ele>8.2</ele>
        <time>2022-08-27T08:44:24Z</time>
      </trkpt>
      <trkpt lat="49.1041" lon="-1.58424">
        <ele>7.8</ele>
        <time>2022-08-27T08:44:31Z</time>
      </trkpt>
      <trkpt lat="49.10356" lon="-1.58458">
        <ele>7.4</ele>
        <time>2022-08-27T08:44:39Z</time>
      </trkpt>
      <trkpt lat="49.10316" lon="-1.58484">
        <ele>7.4</ele>
        <time>2022-08-27T08:44:45Z</time>
      </trkpt>
      <trkpt lat="49.10282" lon="-1.58498">
        <ele>7.2</ele>
        <time>2022-08-27T08:44:50Z</time>
      </trkpt>
      <trkpt lat="49.10268" lon="-1.58502">
        <ele>7.2</ele>
        <time>2022-08-27T08:44:52Z</time>
      </trkpt>
      <trkpt lat="49.10261" lon="-1.58504">
        <ele>7.2</ele>
        <time>2022-08-27T08:44:53Z</time>
      </trkpt>
      <trkpt lat="49.1022" lon="-1.58511">
        <ele>7.2</ele>
        <time>2022-08-27T08:44:59Z</time>
      </trkpt>
      <trkpt lat="49.1017" lon="-1.58519">
        <ele>7.4</ele>
        <time>2022-08-27T08:45:06Z</time>
      </trkpt>
      <trkpt lat="49.10143" lon="-1.58519">
        <ele>7.4</ele>
        <time>2022-08-27T08:45:10Z</time>
      </trkpt>
      <trkpt lat="49.10103" lon="-1.58523">
        <ele>7.6</ele>
        <time>2022-08-27T08:45:16Z</time>
      </trkpt>
      <trkpt lat="49.10085" lon="-1.58525">
        <ele>7.6</ele>
        <time>2022-08-27T08:45:19Z</time>
      </trkpt>
      <trkpt lat="49.10078" lon="-1.58526">
        <ele>7.6</ele>
        <time>2022-08-27T08:45:20Z</time>
      </trkpt>
      <trkpt lat="49.10032" lon="-1.58534">
        <ele>7.6</ele>
        <time>2022-08-27T08:45:27Z</time>
      </trkpt>
      <trkpt lat="49.10019" lon="-1.58533">
        <ele>7.6</ele>
        <time>2022-08-27T08:45:29Z</time>
      </trkpt>
      <trkpt lat="49.09999" lon="-1.58531">
        <ele>7.6</ele>
        <time>2022-08-27T08:45:32Z</time>
      </trkpt>
      <trkpt lat="49.09955" lon="-1.58525">
        <ele>7.6</ele>
        <time>2022-08-27T08:45:39Z</time>
      </trkpt>
      <trkpt lat="49.09918" lon="-1.58516">
        <ele>7.6</ele>
        <time>2022-08-27T08:45:45Z</time>
      </trkpt>
      <trkpt lat="49.09882" lon="-1.58512">
        <ele>8</ele>
        <time>2022-08-27T08:45:51Z</time>
      </trkpt>
      <trkpt lat="49.09825" lon="-1.58507">
        <ele>8.4</ele>
        <time>2022-08-27T08:46:00Z</time>
      </trkpt>
      <trkpt lat="49.09782" lon="-1.58504">
        <ele>8.6</ele>
        <time>2022-08-27T08:46:07Z</time>
      </trkpt>
      <trkpt lat="49.09753" lon="-1.58503">
        <ele>8.8</ele>
        <time>2022-08-27T08:46:12Z</time>
      </trkpt>
      <trkpt lat="49.09739" lon="-1.58504">
        <ele>9</ele>
        <time>2022-08-27T08:46:16Z</time>
      </trkpt>
      <trkpt lat="49.09739" lon="-1.58502">
        <ele>9</ele>
        <time>2022-08-27T08:46:18Z</time>
      </trkpt>
      <trkpt lat="49.09737" lon="-1.585">
        <ele>9.2</ele>
        <time>2022-08-27T08:46:25Z</time>
      </trkpt>
      <trkpt lat="49.09737" lon="-1.58496">
        <ele>9.2</ele>
        <time>2022-08-27T08:46:26Z</time>
      </trkpt>
      <trkpt lat="49.09736" lon="-1.58476">
        <ele>9.4</ele>
        <time>2022-08-27T08:46:30Z</time>
      </trkpt>
      <trkpt lat="49.0974" lon="-1.58418">
        <ele>9.6</ele>
        <time>2022-08-27T08:46:39Z</time>
      </trkpt>
      <trkpt lat="49.09737" lon="-1.58392">
        <ele>10</ele>
        <time>2022-08-27T08:46:44Z</time>
      </trkpt>
      <trkpt lat="49.0972" lon="-1.58394">
        <ele>10</ele>
        <time>2022-08-27T08:46:48Z</time>
      </trkpt>
      <trkpt lat="49.09699" lon="-1.58398">
        <ele>10.4</ele>
        <time>2022-08-27T08:46:53Z</time>
      </trkpt>
      <trkpt lat="49.09694" lon="-1.58397">
        <ele>10.4</ele>
        <time>2022-08-27T08:46:54Z</time>
      </trkpt>
      <trkpt lat="49.09689" lon="-1.58395">
        <ele>10.4</ele>
        <time>2022-08-27T08:46:55Z</time>
      </trkpt>
      <trkpt lat="49.09682" lon="-1.58384">
        <ele>10.6</ele>
        <time>2022-08-27T08:46:57Z</time>
      </trkpt>
      <trkpt lat="49.0968" lon="-1.5837">
        <ele>10.8</ele>
        <time>2022-08-27T08:46:59Z</time>
      </trkpt>
      <trkpt lat="49.0968" lon="-1.58362">
        <ele>10.8</ele>
        <time>2022-08-27T08:47:00Z</time>
      </trkpt>
      <trkpt lat="49.09677" lon="-1.58313">
        <ele>11.2</ele>
        <time>2022-08-27T08:47:07Z</time>
      </trkpt>
      <trkpt lat="49.09675" lon="-1.58299">
        <ele>11.2</ele>
        <time>2022-08-27T08:47:09Z</time>
      </trkpt>
      <trkpt lat="49.09668" lon="-1.58255">
        <ele>11.6</ele>
        <time>2022-08-27T08:47:16Z</time>
      </trkpt>
      <trkpt lat="49.09659" lon="-1.58208">
        <ele>12.2</ele>
        <time>2022-08-27T08:47:24Z</time>
      </trkpt>
      <trkpt lat="49.0965" lon="-1.58176">
        <ele>12.8</ele>
        <time>2022-08-27T08:47:30Z</time>
      </trkpt>
      <trkpt lat="49.09638" lon="-1.58185">
        <ele>13</ele>
        <time>2022-08-27T08:47:33Z</time>
      </trkpt>
      <trkpt lat="49.09613" lon="-1.58212">
        <ele>13.4</ele>
        <time>2022-08-27T08:47:39Z</time>
      </trkpt>
      <trkpt lat="49.09582" lon="-1.58238">
        <ele>13.6</ele>
        <time>2022-08-27T08:47:45Z</time>
      </trkpt>
      <trkpt lat="49.0953" lon="-1.58277">
        <ele>13.2</ele>
        <time>2022-08-27T08:47:53Z</time>
      </trkpt>
      <trkpt lat="49.09482" lon="-1.5831">
        <ele>12.6</ele>
        <time>2022-08-27T08:48:00Z</time>
      </trkpt>
      <trkpt lat="49.09433" lon="-1.5833">
        <ele>12.8</ele>
        <time>2022-08-27T08:48:07Z</time>
      </trkpt>
      <trkpt lat="49.09391" lon="-1.58347">
        <ele>12.6</ele>
        <time>2022-08-27T08:48:13Z</time>
      </trkpt>
      <trkpt lat="49.09357" lon="-1.58355">
        <ele>12.6</ele>
        <time>2022-08-27T08:48:18Z</time>
      </trkpt>
      <trkpt lat="49.09317" lon="-1.58364">
        <ele>12.8</ele>
        <time>2022-08-27T08:48:24Z</time>
      </trkpt>
      <trkpt lat="49.09277" lon="-1.58373">
        <ele>12.4</ele>
        <time>2022-08-27T08:48:30Z</time>
      </trkpt>
      <trkpt lat="49.09233" lon="-1.5838">
        <ele>12.4</ele>
        <time>2022-08-27T08:48:36Z</time>
      </trkpt>
      <trkpt lat="49.09193" lon="-1.58387">
        <ele>12.4</ele>
        <time>2022-08-27T08:48:42Z</time>
      </trkpt>
      <trkpt lat="49.09143" lon="-1.58414">
        <ele>12.4</ele>
        <time>2022-08-27T08:48:50Z</time>
      </trkpt>
      <trkpt lat="49.09099" lon="-1.58434">
        <ele>12.2</ele>
        <time>2022-08-27T08:48:57Z</time>
      </trkpt>
      <trkpt lat="49.09069" lon="-1.58447">
        <ele>12.2</ele>
        <time>2022-08-27T08:49:03Z</time>
      </trkpt>
      <trkpt lat="49.09061" lon="-1.58452">
        <ele>12.2</ele>
        <time>2022-08-27T08:49:06Z</time>
      </trkpt>
      <trkpt lat="49.09057" lon="-1.58455">
        <ele>12.2</ele>
        <time>2022-08-27T08:49:09Z</time>
      </trkpt>
      <trkpt lat="49.09054" lon="-1.58454">
        <ele>12.2</ele>
        <time>2022-08-27T08:49:10Z</time>
      </trkpt>
      <trkpt lat="49.09053" lon="-1.5845">
        <ele>12.2</ele>
        <time>2022-08-27T08:49:11Z</time>
      </trkpt>
      <trkpt lat="49.09053" lon="-1.58432">
        <ele>12.2</ele>
        <time>2022-08-27T08:49:14Z</time>
      </trkpt>
      <trkpt lat="49.09053" lon="-1.58396">
        <ele>12</ele>
        <time>2022-08-27T08:49:18Z</time>
      </trkpt>
      <trkpt lat="49.09048" lon="-1.5834">
        <ele>12.2</ele>
        <time>2022-08-27T08:49:24Z</time>
      </trkpt>
      <trkpt lat="49.09034" lon="-1.5829">
        <ele>12.2</ele>
        <time>2022-08-27T08:49:30Z</time>
      </trkpt>
      <trkpt lat="49.09017" lon="-1.58241">
        <ele>12.2</ele>
        <time>2022-08-27T08:49:36Z</time>
      </trkpt>
      <trkpt lat="49.09002" lon="-1.58189">
        <ele>12.2</ele>
        <time>2022-08-27T08:49:42Z</time>
      </trkpt>
      <trkpt lat="49.09003" lon="-1.58152">
        <ele>12.2</ele>
        <time>2022-08-27T08:49:46Z</time>
      </trkpt>
      <trkpt lat="49.09002" lon="-1.58114">
        <ele>12.2</ele>
        <time>2022-08-27T08:49:51Z</time>
      </trkpt>
      <trkpt lat="49.09002" lon="-1.58107">
        <ele>12.2</ele>
        <time>2022-08-27T08:49:52Z</time>
      </trkpt>
      <trkpt lat="49.09" lon="-1.58102">
        <ele>12.2</ele>
        <time>2022-08-27T08:49:53Z</time>
      </trkpt>
      <trkpt lat="49.08997" lon="-1.581">
        <ele>12.2</ele>
        <time>2022-08-27T08:49:54Z</time>
      </trkpt>
      <trkpt lat="49.08985" lon="-1.58095">
        <ele>12.2</ele>
        <time>2022-08-27T08:49:58Z</time>
      </trkpt>
      <trkpt lat="49.08978" lon="-1.58089">
        <ele>12.2</ele>
        <time>2022-08-27T08:50:00Z</time>
      </trkpt>
      <trkpt lat="49.08969" lon="-1.58083">
        <ele>12.4</ele>
        <time>2022-08-27T08:50:02Z</time>
      </trkpt>
      <trkpt lat="49.08961" lon="-1.58076">
        <ele>12.4</ele>
        <time>2022-08-27T08:50:04Z</time>
      </trkpt>
      <trkpt lat="49.08948" lon="-1.58066">
        <ele>12.4</ele>
        <time>2022-08-27T08:50:07Z</time>
      </trkpt>
      <trkpt lat="49.08944" lon="-1.58063">
        <ele>12.4</ele>
        <time>2022-08-27T08:50:08Z</time>
      </trkpt>
      <trkpt lat="49.08938" lon="-1.58056">
        <ele>12.4</ele>
        <time>2022-08-27T08:50:10Z</time>
      </trkpt>
      <trkpt lat="49.08923" lon="-1.58042">
        <ele>12.6</ele>
        <time>2022-08-27T08:50:15Z</time>
      </trkpt>
      <trkpt lat="49.08922" lon="-1.5804">
        <ele>12.8</ele>
        <time>2022-08-27T08:50:16Z</time>
      </trkpt>
      <trkpt lat="49.0892" lon="-1.58035">
        <ele>12.8</ele>
        <time>2022-08-27T08:50:18Z</time>
      </trkpt>
      <trkpt lat="49.0891" lon="-1.58028">
        <ele>12.8</ele>
        <time>2022-08-27T08:50:21Z</time>
      </trkpt>
      <trkpt lat="49.08887" lon="-1.58008">
        <ele>13</ele>
        <time>2022-08-27T08:50:26Z</time>
      </trkpt>
      <trkpt lat="49.08865" lon="-1.57988">
        <ele>13.2</ele>
        <time>2022-08-27T08:50:31Z</time>
      </trkpt>
      <trkpt lat="49.08856" lon="-1.57982">
        <ele>13.2</ele>
        <time>2022-08-27T08:50:33Z</time>
      </trkpt>
      <trkpt lat="49.08835" lon="-1.5797">
        <ele>13.4</ele>
        <time>2022-08-27T08:50:38Z</time>
      </trkpt>
      <trkpt lat="49.08815" lon="-1.57961">
        <ele>13.6</ele>
        <time>2022-08-27T08:50:43Z</time>
      </trkpt>
      <trkpt lat="49.0881" lon="-1.57959">
        <ele>13.6</ele>
        <time>2022-08-27T08:50:44Z</time>
      </trkpt>
      <trkpt lat="49.08795" lon="-1.57958">
        <ele>13.6</ele>
        <time>2022-08-27T08:50:47Z</time>
      </trkpt>
      <trkpt lat="49.0879" lon="-1.57957">
        <ele>13.6</ele>
        <time>2022-08-27T08:50:48Z</time>
      </trkpt>
      <trkpt lat="49.08779" lon="-1.57952">
        <ele>13.4</ele>
        <time>2022-08-27T08:50:51Z</time>
      </trkpt>
      <trkpt lat="49.08772" lon="-1.57944">
        <ele>13.2</ele>
        <time>2022-08-27T08:50:53Z</time>
      </trkpt>
      <trkpt lat="49.08766" lon="-1.5793">
        <ele>13</ele>
        <time>2022-08-27T08:50:55Z</time>
      </trkpt>
      <trkpt lat="49.08762" lon="-1.57917">
        <ele>12.8</ele>
        <time>2022-08-27T08:50:57Z</time>
      </trkpt>
      <trkpt lat="49.08756" lon="-1.57899">
        <ele>12.6</ele>
        <time>2022-08-27T08:51:00Z</time>
      </trkpt>
      <trkpt lat="49.08745" lon="-1.57861">
        <ele>12.2</ele>
        <time>2022-08-27T08:51:06Z</time>
      </trkpt>
      <trkpt lat="49.08741" lon="-1.57857">
        <ele>12.2</ele>
        <time>2022-08-27T08:51:07Z</time>
      </trkpt>
      <trkpt lat="49.08729" lon="-1.57842">
        <ele>12.6</ele>
        <time>2022-08-27T08:51:11Z</time>
      </trkpt>
      <trkpt lat="49.08725" lon="-1.5784">
        <ele>13.2</ele>
        <time>2022-08-27T08:51:12Z</time>
      </trkpt>
      <trkpt lat="49.08717" lon="-1.57836">
        <ele>13.6</ele>
        <time>2022-08-27T08:51:14Z</time>
      </trkpt>
      <trkpt lat="49.08713" lon="-1.57834">
        <ele>13.8</ele>
        <time>2022-08-27T08:51:15Z</time>
      </trkpt>
      <trkpt lat="49.087" lon="-1.5783">
        <ele>13.4</ele>
        <time>2022-08-27T08:51:19Z</time>
      </trkpt>
      <trkpt lat="49.08689" lon="-1.57824">
        <ele>13.4</ele>
        <time>2022-08-27T08:51:22Z</time>
      </trkpt>
      <trkpt lat="49.08684" lon="-1.57822">
        <ele>13.4</ele>
        <time>2022-08-27T08:51:23Z</time>
      </trkpt>
      <trkpt lat="49.08667" lon="-1.57815">
        <ele>13.4</ele>
        <time>2022-08-27T08:51:27Z</time>
      </trkpt>
      <trkpt lat="49.08663" lon="-1.57811">
        <ele>13.4</ele>
        <time>2022-08-27T08:51:28Z</time>
      </trkpt>
      <trkpt lat="49.08645" lon="-1.57802">
        <ele>13.4</ele>
        <time>2022-08-27T08:51:32Z</time>
      </trkpt>
      <trkpt lat="49.0864" lon="-1.57802">
        <ele>13.4</ele>
        <time>2022-08-27T08:51:33Z</time>
      </trkpt>
      <trkpt lat="49.08606" lon="-1.57804">
        <ele>13.8</ele>
        <time>2022-08-27T08:51:40Z</time>
      </trkpt>
      <trkpt lat="49.08586" lon="-1.57805">
        <ele>14</ele>
        <time>2022-08-27T08:51:44Z</time>
      </trkpt>
      <trkpt lat="49.08581" lon="-1.57803">
        <ele>14.2</ele>
        <time>2022-08-27T08:51:45Z</time>
      </trkpt>
      <trkpt lat="49.08577" lon="-1.57803">
        <ele>14.2</ele>
        <time>2022-08-27T08:51:46Z</time>
      </trkpt>
      <trkpt lat="49.08568" lon="-1.57807">
        <ele>14.2</ele>
        <time>2022-08-27T08:51:48Z</time>
      </trkpt>
      <trkpt lat="49.08564" lon="-1.57809">
        <ele>14.2</ele>
        <time>2022-08-27T08:51:49Z</time>
      </trkpt>
      <trkpt lat="49.08548" lon="-1.5781">
        <ele>14.2</ele>
        <time>2022-08-27T08:51:53Z</time>
      </trkpt>
      <trkpt lat="49.08531" lon="-1.5781">
        <ele>14.2</ele>
        <time>2022-08-27T08:51:57Z</time>
      </trkpt>
      <trkpt lat="49.0851" lon="-1.57805">
        <ele>14</ele>
        <time>2022-08-27T08:52:01Z</time>
      </trkpt>
      <trkpt lat="49.08499" lon="-1.57802">
        <ele>14.2</ele>
        <time>2022-08-27T08:52:03Z</time>
      </trkpt>
      <trkpt lat="49.08495" lon="-1.578">
        <ele>13.8</ele>
        <time>2022-08-27T08:52:04Z</time>
      </trkpt>
      <trkpt lat="49.08482" lon="-1.57796">
        <ele>13.8</ele>
        <time>2022-08-27T08:52:07Z</time>
      </trkpt>
      <trkpt lat="49.0847" lon="-1.57792">
        <ele>13.4</ele>
        <time>2022-08-27T08:52:10Z</time>
      </trkpt>
      <trkpt lat="49.08467" lon="-1.57793">
        <ele>13.4</ele>
        <time>2022-08-27T08:52:11Z</time>
      </trkpt>
      <trkpt lat="49.08464" lon="-1.578">
        <ele>13.4</ele>
        <time>2022-08-27T08:52:13Z</time>
      </trkpt>
      <trkpt lat="49.08464" lon="-1.5781">
        <ele>13.4</ele>
        <time>2022-08-27T08:52:15Z</time>
      </trkpt>
      <trkpt lat="49.08463" lon="-1.57818">
        <ele>13.2</ele>
        <time>2022-08-27T08:52:16Z</time>
      </trkpt>
      <trkpt lat="49.08461" lon="-1.57826">
        <ele>13.2</ele>
        <time>2022-08-27T08:52:17Z</time>
      </trkpt>
      <trkpt lat="49.08459" lon="-1.57842">
        <ele>13.4</ele>
        <time>2022-08-27T08:52:19Z</time>
      </trkpt>
      <trkpt lat="49.08456" lon="-1.5785">
        <ele>13.4</ele>
        <time>2022-08-27T08:52:20Z</time>
      </trkpt>
      <trkpt lat="49.0844" lon="-1.5789">
        <ele>13.2</ele>
        <time>2022-08-27T08:52:25Z</time>
      </trkpt>
      <trkpt lat="49.08427" lon="-1.57942">
        <ele>12.8</ele>
        <time>2022-08-27T08:52:31Z</time>
      </trkpt>
      <trkpt lat="49.08416" lon="-1.57995">
        <ele>12.4</ele>
        <time>2022-08-27T08:52:37Z</time>
      </trkpt>
      <trkpt lat="49.08404" lon="-1.58042">
        <ele>12.2</ele>
        <time>2022-08-27T08:52:42Z</time>
      </trkpt>
      <trkpt lat="49.08381" lon="-1.58096">
        <ele>12</ele>
        <time>2022-08-27T08:52:48Z</time>
      </trkpt>
      <trkpt lat="49.08373" lon="-1.58113">
        <ele>11.8</ele>
        <time>2022-08-27T08:52:50Z</time>
      </trkpt>
      <trkpt lat="49.08359" lon="-1.58134">
        <ele>11.8</ele>
        <time>2022-08-27T08:52:53Z</time>
      </trkpt>
      <trkpt lat="49.08328" lon="-1.58173">
        <ele>11.6</ele>
        <time>2022-08-27T08:52:59Z</time>
      </trkpt>
      <trkpt lat="49.08314" lon="-1.58195">
        <ele>11.6</ele>
        <time>2022-08-27T08:53:02Z</time>
      </trkpt>
      <trkpt lat="49.08307" lon="-1.58212">
        <ele>11.6</ele>
        <time>2022-08-27T08:53:04Z</time>
      </trkpt>
      <trkpt lat="49.08299" lon="-1.58247">
        <ele>11.4</ele>
        <time>2022-08-27T08:53:08Z</time>
      </trkpt>
      <trkpt lat="49.08299" lon="-1.58254">
        <ele>11.4</ele>
        <time>2022-08-27T08:53:09Z</time>
      </trkpt>
      <trkpt lat="49.083" lon="-1.58282">
        <ele>11.4</ele>
        <time>2022-08-27T08:53:14Z</time>
      </trkpt>
      <trkpt lat="49.08292" lon="-1.58286">
        <ele>11.4</ele>
        <time>2022-08-27T08:53:17Z</time>
      </trkpt>
      <trkpt lat="49.08287" lon="-1.58287">
        <ele>11.4</ele>
        <time>2022-08-27T08:53:19Z</time>
      </trkpt>
      <trkpt lat="49.08276" lon="-1.58286">
        <ele>11.4</ele>
        <time>2022-08-27T08:53:22Z</time>
      </trkpt>
      <trkpt lat="49.08272" lon="-1.58287">
        <ele>11.4</ele>
        <time>2022-08-27T08:53:23Z</time>
      </trkpt>
      <trkpt lat="49.08256" lon="-1.58288">
        <ele>11.4</ele>
        <time>2022-08-27T08:53:26Z</time>
      </trkpt>
      <trkpt lat="49.08233" lon="-1.58289">
        <ele>11.4</ele>
        <time>2022-08-27T08:53:30Z</time>
      </trkpt>
      <trkpt lat="49.08227" lon="-1.58287">
        <ele>11.4</ele>
        <time>2022-08-27T08:53:31Z</time>
      </trkpt>
      <trkpt lat="49.08217" lon="-1.58282">
        <ele>11.2</ele>
        <time>2022-08-27T08:53:33Z</time>
      </trkpt>
      <trkpt lat="49.08203" lon="-1.58271">
        <ele>11.2</ele>
        <time>2022-08-27T08:53:36Z</time>
      </trkpt>
      <trkpt lat="49.08175" lon="-1.58246">
        <ele>11.2</ele>
        <time>2022-08-27T08:53:42Z</time>
      </trkpt>
      <trkpt lat="49.08167" lon="-1.58237">
        <ele>11</ele>
        <time>2022-08-27T08:53:44Z</time>
      </trkpt>
      <trkpt lat="49.08151" lon="-1.58223">
        <ele>10.6</ele>
        <time>2022-08-27T08:53:48Z</time>
      </trkpt>
      <trkpt lat="49.08128" lon="-1.58203">
        <ele>10.2</ele>
        <time>2022-08-27T08:53:53Z</time>
      </trkpt>
      <trkpt lat="49.08106" lon="-1.58189">
        <ele>9.6</ele>
        <time>2022-08-27T08:53:58Z</time>
      </trkpt>
      <trkpt lat="49.0808" lon="-1.58172">
        <ele>9.6</ele>
        <time>2022-08-27T08:54:03Z</time>
      </trkpt>
      <trkpt lat="49.08075" lon="-1.58168">
        <ele>9.6</ele>
        <time>2022-08-27T08:54:04Z</time>
      </trkpt>
      <trkpt lat="49.08059" lon="-1.58159">
        <ele>9.6</ele>
        <time>2022-08-27T08:54:07Z</time>
      </trkpt>
      <trkpt lat="49.08035" lon="-1.58136">
        <ele>11.2</ele>
        <time>2022-08-27T08:54:13Z</time>
      </trkpt>
      <trkpt lat="49.08017" lon="-1.58123">
        <ele>10.6</ele>
        <time>2022-08-27T08:54:19Z</time>
      </trkpt>
      <trkpt lat="49.07998" lon="-1.58105">
        <ele>10.8</ele>
        <time>2022-08-27T08:54:25Z</time>
      </trkpt>
      <trkpt lat="49.07986" lon="-1.58096">
        <ele>10.8</ele>
        <time>2022-08-27T08:54:28Z</time>
      </trkpt>
      <trkpt lat="49.07978" lon="-1.5809">
        <ele>10.8</ele>
        <time>2022-08-27T08:54:30Z</time>
      </trkpt>
      <trkpt lat="49.07958" lon="-1.5807">
        <ele>11</ele>
        <time>2022-08-27T08:54:35Z</time>
      </trkpt>
      <trkpt lat="49.07955" lon="-1.58065">
        <ele>11</ele>
        <time>2022-08-27T08:54:36Z</time>
      </trkpt>
      <trkpt lat="49.07946" lon="-1.58059">
        <ele>11.2</ele>
        <time>2022-08-27T08:54:38Z</time>
      </trkpt>
      <trkpt lat="49.07935" lon="-1.58044">
        <ele>11.4</ele>
        <time>2022-08-27T08:54:41Z</time>
      </trkpt>
      <trkpt lat="49.07916" lon="-1.58024">
        <ele>11.8</ele>
        <time>2022-08-27T08:54:46Z</time>
      </trkpt>
      <trkpt lat="49.07912" lon="-1.58021">
        <ele>11.8</ele>
        <time>2022-08-27T08:54:47Z</time>
      </trkpt>
      <trkpt lat="49.07901" lon="-1.58009">
        <ele>12</ele>
        <time>2022-08-27T08:54:50Z</time>
      </trkpt>
      <trkpt lat="49.07892" lon="-1.58004">
        <ele>12</ele>
        <time>2022-08-27T08:54:52Z</time>
      </trkpt>
      <trkpt lat="49.07887" lon="-1.58002">
        <ele>12.2</ele>
        <time>2022-08-27T08:54:53Z</time>
      </trkpt>
      <trkpt lat="49.07874" lon="-1.57994">
        <ele>12.4</ele>
        <time>2022-08-27T08:54:56Z</time>
      </trkpt>
      <trkpt lat="49.07862" lon="-1.57986">
        <ele>12.6</ele>
        <time>2022-08-27T08:54:59Z</time>
      </trkpt>
      <trkpt lat="49.07837" lon="-1.57974">
        <ele>13</ele>
        <time>2022-08-27T08:55:05Z</time>
      </trkpt>
      <trkpt lat="49.07808" lon="-1.57974">
        <ele>13.8</ele>
        <time>2022-08-27T08:55:11Z</time>
      </trkpt>
      <trkpt lat="49.07775" lon="-1.57977">
        <ele>14.4</ele>
        <time>2022-08-27T08:55:17Z</time>
      </trkpt>
      <trkpt lat="49.07754" lon="-1.57979">
        <ele>14.4</ele>
        <time>2022-08-27T08:55:21Z</time>
      </trkpt>
      <trkpt lat="49.07748" lon="-1.57979">
        <ele>14.4</ele>
        <time>2022-08-27T08:55:22Z</time>
      </trkpt>
      <trkpt lat="49.07713" lon="-1.57982">
        <ele>14.8</ele>
        <time>2022-08-27T08:55:28Z</time>
      </trkpt>
      <trkpt lat="49.07694" lon="-1.57981">
        <ele>15</ele>
        <time>2022-08-27T08:55:31Z</time>
      </trkpt>
      <trkpt lat="49.07682" lon="-1.57981">
        <ele>15.2</ele>
        <time>2022-08-27T08:55:33Z</time>
      </trkpt>
      <trkpt lat="49.07642" lon="-1.5798">
        <ele>15.6</ele>
        <time>2022-08-27T08:55:40Z</time>
      </trkpt>
      <trkpt lat="49.07622" lon="-1.57979">
        <ele>15.8</ele>
        <time>2022-08-27T08:55:44Z</time>
      </trkpt>
      <trkpt lat="49.07582" lon="-1.57979">
        <ele>16</ele>
        <time>2022-08-27T08:55:50Z</time>
      </trkpt>
      <trkpt lat="49.07544" lon="-1.57978">
        <ele>16.2</ele>
        <time>2022-08-27T08:55:56Z</time>
      </trkpt>
      <trkpt lat="49.07524" lon="-1.57973">
        <ele>16.2</ele>
        <time>2022-08-27T08:55:59Z</time>
      </trkpt>
      <trkpt lat="49.07509" lon="-1.57966">
        <ele>16.4</ele>
        <time>2022-08-27T08:56:01Z</time>
      </trkpt>
      <trkpt lat="49.07468" lon="-1.57941">
        <ele>16.6</ele>
        <time>2022-08-27T08:56:07Z</time>
      </trkpt>
      <trkpt lat="49.07431" lon="-1.57914">
        <ele>17</ele>
        <time>2022-08-27T08:56:13Z</time>
      </trkpt>
      <trkpt lat="49.07415" lon="-1.57902">
        <ele>17.2</ele>
        <time>2022-08-27T08:56:16Z</time>
      </trkpt>
      <trkpt lat="49.07404" lon="-1.57894">
        <ele>17.4</ele>
        <time>2022-08-27T08:56:18Z</time>
      </trkpt>
      <trkpt lat="49.07382" lon="-1.57871">
        <ele>17.4</ele>
        <time>2022-08-27T08:56:23Z</time>
      </trkpt>
      <trkpt lat="49.07378" lon="-1.57868">
        <ele>17.6</ele>
        <time>2022-08-27T08:56:24Z</time>
      </trkpt>
      <trkpt lat="49.07359" lon="-1.57858">
        <ele>17.8</ele>
        <time>2022-08-27T08:56:28Z</time>
      </trkpt>
      <trkpt lat="49.07349" lon="-1.57854">
        <ele>18</ele>
        <time>2022-08-27T08:56:30Z</time>
      </trkpt>
      <trkpt lat="49.07308" lon="-1.5784">
        <ele>18.6</ele>
        <time>2022-08-27T08:56:39Z</time>
      </trkpt>
      <trkpt lat="49.07273" lon="-1.57826">
        <ele>19.2</ele>
        <time>2022-08-27T08:56:46Z</time>
      </trkpt>
      <trkpt lat="49.07269" lon="-1.57825">
        <ele>19.4</ele>
        <time>2022-08-27T08:56:47Z</time>
      </trkpt>
      <trkpt lat="49.07257" lon="-1.57825">
        <ele>19.4</ele>
        <time>2022-08-27T08:56:50Z</time>
      </trkpt>
      <trkpt lat="49.0725" lon="-1.57825">
        <ele>19.4</ele>
        <time>2022-08-27T08:56:52Z</time>
      </trkpt>
      <trkpt lat="49.07248" lon="-1.57821">
        <ele>19.4</ele>
        <time>2022-08-27T08:56:53Z</time>
      </trkpt>
      <trkpt lat="49.07248" lon="-1.57816">
        <ele>19.4</ele>
        <time>2022-08-27T08:56:54Z</time>
      </trkpt>
      <trkpt lat="49.07249" lon="-1.57806">
        <ele>19.4</ele>
        <time>2022-08-27T08:56:56Z</time>
      </trkpt>
      <trkpt lat="49.07249" lon="-1.5778">
        <ele>19.6</ele>
        <time>2022-08-27T08:57:01Z</time>
      </trkpt>
      <trkpt lat="49.07249" lon="-1.57766">
        <ele>19.8</ele>
        <time>2022-08-27T08:57:04Z</time>
      </trkpt>
      <trkpt lat="49.07248" lon="-1.57757">
        <ele>19.8</ele>
        <time>2022-08-27T08:57:06Z</time>
      </trkpt>
      <trkpt lat="49.07243" lon="-1.57753">
        <ele>20</ele>
        <time>2022-08-27T08:57:08Z</time>
      </trkpt>
      <trkpt lat="49.07235" lon="-1.57753">
        <ele>20.4</ele>
        <time>2022-08-27T08:57:11Z</time>
      </trkpt>
      <trkpt lat="49.07231" lon="-1.57754">
        <ele>20.4</ele>
        <time>2022-08-27T08:57:12Z</time>
      </trkpt>
      <trkpt lat="49.07216" lon="-1.57744">
        <ele>21</ele>
        <time>2022-08-27T08:57:17Z</time>
      </trkpt>
      <trkpt lat="49.07199" lon="-1.57726">
        <ele>21.4</ele>
        <time>2022-08-27T08:57:23Z</time>
      </trkpt>
      <trkpt lat="49.07181" lon="-1.5771">
        <ele>22</ele>
        <time>2022-08-27T08:57:29Z</time>
      </trkpt>
      <trkpt lat="49.0716" lon="-1.57693">
        <ele>22.8</ele>
        <time>2022-08-27T08:57:36Z</time>
      </trkpt>
      <trkpt lat="49.07143" lon="-1.57677">
        <ele>23.6</ele>
        <time>2022-08-27T08:57:42Z</time>
      </trkpt>
      <trkpt lat="49.0714" lon="-1.57674">
        <ele>23.6</ele>
        <time>2022-08-27T08:57:43Z</time>
      </trkpt>
      <trkpt lat="49.07129" lon="-1.57666">
        <ele>24</ele>
        <time>2022-08-27T08:57:46Z</time>
      </trkpt>
      <trkpt lat="49.07104" lon="-1.57648">
        <ele>24.8</ele>
        <time>2022-08-27T08:57:53Z</time>
      </trkpt>
      <trkpt lat="49.07074" lon="-1.57632">
        <ele>25.6</ele>
        <time>2022-08-27T08:58:01Z</time>
      </trkpt>
      <trkpt lat="49.07059" lon="-1.57623">
        <ele>26</ele>
        <time>2022-08-27T08:58:05Z</time>
      </trkpt>
      <trkpt lat="49.07055" lon="-1.5762">
        <ele>26</ele>
        <time>2022-08-27T08:58:06Z</time>
      </trkpt>
      <trkpt lat="49.07052" lon="-1.57616">
        <ele>26.2</ele>
        <time>2022-08-27T08:58:07Z</time>
      </trkpt>
      <trkpt lat="49.07036" lon="-1.57598">
        <ele>26.6</ele>
        <time>2022-08-27T08:58:12Z</time>
      </trkpt>
      <trkpt lat="49.07033" lon="-1.57594">
        <ele>26.6</ele>
        <time>2022-08-27T08:58:13Z</time>
      </trkpt>
      <trkpt lat="49.07014" lon="-1.5757">
        <ele>27.2</ele>
        <time>2022-08-27T08:58:19Z</time>
      </trkpt>
      <trkpt lat="49.06993" lon="-1.57542">
        <ele>27.8</ele>
        <time>2022-08-27T08:58:26Z</time>
      </trkpt>
      <trkpt lat="49.06984" lon="-1.57525">
        <ele>28.2</ele>
        <time>2022-08-27T08:58:30Z</time>
      </trkpt>
      <trkpt lat="49.06977" lon="-1.57517">
        <ele>28.2</ele>
        <time>2022-08-27T08:58:32Z</time>
      </trkpt>
      <trkpt lat="49.06964" lon="-1.575">
        <ele>28.2</ele>
        <time>2022-08-27T08:58:36Z</time>
      </trkpt>
      <trkpt lat="49.06934" lon="-1.57467">
        <ele>28.4</ele>
        <time>2022-08-27T08:58:44Z</time>
      </trkpt>
      <trkpt lat="49.06927" lon="-1.57457">
        <ele>28.6</ele>
        <time>2022-08-27T08:58:46Z</time>
      </trkpt>
      <trkpt lat="49.0692" lon="-1.57449">
        <ele>29</ele>
        <time>2022-08-27T08:58:48Z</time>
      </trkpt>
      <trkpt lat="49.06916" lon="-1.57446">
        <ele>29</ele>
        <time>2022-08-27T08:58:49Z</time>
      </trkpt>
      <trkpt lat="49.06903" lon="-1.57431">
        <ele>29.2</ele>
        <time>2022-08-27T08:58:53Z</time>
      </trkpt>
      <trkpt lat="49.06899" lon="-1.57428">
        <ele>29.2</ele>
        <time>2022-08-27T08:58:54Z</time>
      </trkpt>
      <trkpt lat="49.0688" lon="-1.57413">
        <ele>29.6</ele>
        <time>2022-08-27T08:58:59Z</time>
      </trkpt>
      <trkpt lat="49.06872" lon="-1.57406">
        <ele>29.6</ele>
        <time>2022-08-27T08:59:01Z</time>
      </trkpt>
      <trkpt lat="49.06863" lon="-1.574">
        <ele>29.6</ele>
        <time>2022-08-27T08:59:03Z</time>
      </trkpt>
      <trkpt lat="49.0686" lon="-1.57395">
        <ele>29.6</ele>
        <time>2022-08-27T08:59:04Z</time>
      </trkpt>
      <trkpt lat="49.06848" lon="-1.57377">
        <ele>29.6</ele>
        <time>2022-08-27T08:59:08Z</time>
      </trkpt>
      <trkpt lat="49.06845" lon="-1.57373">
        <ele>29.6</ele>
        <time>2022-08-27T08:59:09Z</time>
      </trkpt>
      <trkpt lat="49.06837" lon="-1.57365">
        <ele>29.8</ele>
        <time>2022-08-27T08:59:11Z</time>
      </trkpt>
      <trkpt lat="49.06829" lon="-1.57359">
        <ele>29.6</ele>
        <time>2022-08-27T08:59:13Z</time>
      </trkpt>
      <trkpt lat="49.06825" lon="-1.57354">
        <ele>29.6</ele>
        <time>2022-08-27T08:59:14Z</time>
      </trkpt>
      <trkpt lat="49.06807" lon="-1.57324">
        <ele>29.8</ele>
        <time>2022-08-27T08:59:21Z</time>
      </trkpt>
      <trkpt lat="49.0679" lon="-1.57312">
        <ele>30.2</ele>
        <time>2022-08-27T08:59:26Z</time>
      </trkpt>
      <trkpt lat="49.06771" lon="-1.57285">
        <ele>30.4</ele>
        <time>2022-08-27T08:59:32Z</time>
      </trkpt>
      <trkpt lat="49.06755" lon="-1.57256">
        <ele>30.6</ele>
        <time>2022-08-27T08:59:38Z</time>
      </trkpt>
      <trkpt lat="49.0675" lon="-1.57246">
        <ele>30.8</ele>
        <time>2022-08-27T08:59:40Z</time>
      </trkpt>
      <trkpt lat="49.0674" lon="-1.57234">
        <ele>31</ele>
        <time>2022-08-27T08:59:43Z</time>
      </trkpt>
      <trkpt lat="49.06727" lon="-1.57208">
        <ele>30.8</ele>
        <time>2022-08-27T08:59:48Z</time>
      </trkpt>
      <trkpt lat="49.06718" lon="-1.57178">
        <ele>30.8</ele>
        <time>2022-08-27T08:59:53Z</time>
      </trkpt>
      <trkpt lat="49.06714" lon="-1.57155">
        <ele>31</ele>
        <time>2022-08-27T08:59:57Z</time>
      </trkpt>
      <trkpt lat="49.0671" lon="-1.57127">
        <ele>31</ele>
        <time>2022-08-27T09:00:03Z</time>
      </trkpt>
      <trkpt lat="49.0671" lon="-1.57121">
        <ele>31.2</ele>
        <time>2022-08-27T09:00:06Z</time>
      </trkpt>
      <trkpt lat="49.06708" lon="-1.57115">
        <ele>33</ele>
        <time>2022-08-27T09:03:34Z</time>
      </trkpt>
      <trkpt lat="49.06699" lon="-1.57094">
        <ele>33.4</ele>
        <time>2022-08-27T09:03:38Z</time>
      </trkpt>
      <trkpt lat="49.06694" lon="-1.57082">
        <ele>33.6</ele>
        <time>2022-08-27T09:03:40Z</time>
      </trkpt>
      <trkpt lat="49.06684" lon="-1.57067">
        <ele>33.8</ele>
        <time>2022-08-27T09:03:43Z</time>
      </trkpt>
      <trkpt lat="49.06678" lon="-1.57057">
        <ele>34</ele>
        <time>2022-08-27T09:03:45Z</time>
      </trkpt>
      <trkpt lat="49.06667" lon="-1.57042">
        <ele>34.2</ele>
        <time>2022-08-27T09:03:48Z</time>
      </trkpt>
      <trkpt lat="49.0666" lon="-1.57031">
        <ele>34.2</ele>
        <time>2022-08-27T09:03:50Z</time>
      </trkpt>
      <trkpt lat="49.06649" lon="-1.57013">
        <ele>34.2</ele>
        <time>2022-08-27T09:03:53Z</time>
      </trkpt>
      <trkpt lat="49.06634" lon="-1.56991">
        <ele>34.2</ele>
        <time>2022-08-27T09:03:57Z</time>
      </trkpt>
      <trkpt lat="49.06626" lon="-1.56981">
        <ele>34</ele>
        <time>2022-08-27T09:03:59Z</time>
      </trkpt>
      <trkpt lat="49.06618" lon="-1.56968">
        <ele>34.2</ele>
        <time>2022-08-27T09:04:01Z</time>
      </trkpt>
      <trkpt lat="49.0661" lon="-1.56958">
        <ele>34.2</ele>
        <time>2022-08-27T09:04:03Z</time>
      </trkpt>
      <trkpt lat="49.06603" lon="-1.56948">
        <ele>34.4</ele>
        <time>2022-08-27T09:04:05Z</time>
      </trkpt>
      <trkpt lat="49.06575" lon="-1.56912">
        <ele>34.8</ele>
        <time>2022-08-27T09:04:12Z</time>
      </trkpt>
      <trkpt lat="49.06546" lon="-1.56874">
        <ele>35</ele>
        <time>2022-08-27T09:04:19Z</time>
      </trkpt>
      <trkpt lat="49.06512" lon="-1.5682">
        <ele>35</ele>
        <time>2022-08-27T09:04:28Z</time>
      </trkpt>
      <trkpt lat="49.06509" lon="-1.56813">
        <ele>35.2</ele>
        <time>2022-08-27T09:04:29Z</time>
      </trkpt>
      <trkpt lat="49.06492" lon="-1.56781">
        <ele>35.2</ele>
        <time>2022-08-27T09:04:34Z</time>
      </trkpt>
      <trkpt lat="49.06471" lon="-1.56759">
        <ele>35.8</ele>
        <time>2022-08-27T09:04:39Z</time>
      </trkpt>
      <trkpt lat="49.06466" lon="-1.56756">
        <ele>35.8</ele>
        <time>2022-08-27T09:04:40Z</time>
      </trkpt>
      <trkpt lat="49.06432" lon="-1.56732">
        <ele>36.6</ele>
        <time>2022-08-27T09:04:48Z</time>
      </trkpt>
      <trkpt lat="49.06401" lon="-1.5671">
        <ele>37.2</ele>
        <time>2022-08-27T09:04:55Z</time>
      </trkpt>
      <trkpt lat="49.06378" lon="-1.56686">
        <ele>37.4</ele>
        <time>2022-08-27T09:05:01Z</time>
      </trkpt>
      <trkpt lat="49.0637" lon="-1.56678">
        <ele>37.6</ele>
        <time>2022-08-27T09:05:03Z</time>
      </trkpt>
      <trkpt lat="49.06362" lon="-1.56668">
        <ele>37.6</ele>
        <time>2022-08-27T09:05:05Z</time>
      </trkpt>
      <trkpt lat="49.06358" lon="-1.56665">
        <ele>37.6</ele>
        <time>2022-08-27T09:05:06Z</time>
      </trkpt>
      <trkpt lat="49.0634" lon="-1.56642">
        <ele>38</ele>
        <time>2022-08-27T09:05:11Z</time>
      </trkpt>
      <trkpt lat="49.06336" lon="-1.56637">
        <ele>38</ele>
        <time>2022-08-27T09:05:12Z</time>
      </trkpt>
      <trkpt lat="49.06319" lon="-1.56614">
        <ele>38</ele>
        <time>2022-08-27T09:05:17Z</time>
      </trkpt>
      <trkpt lat="49.06314" lon="-1.56604">
        <ele>38</ele>
        <time>2022-08-27T09:05:19Z</time>
      </trkpt>
      <trkpt lat="49.06295" lon="-1.56572">
        <ele>38.4</ele>
        <time>2022-08-27T09:05:26Z</time>
      </trkpt>
      <trkpt lat="49.06278" lon="-1.56546">
        <ele>38.8</ele>
        <time>2022-08-27T09:05:32Z</time>
      </trkpt>
      <trkpt lat="49.06274" lon="-1.56545">
        <ele>38.8</ele>
        <time>2022-08-27T09:05:33Z</time>
      </trkpt>
      <trkpt lat="49.0627" lon="-1.56545">
        <ele>38.8</ele>
        <time>2022-08-27T09:05:34Z</time>
      </trkpt>
      <trkpt lat="49.06262" lon="-1.56549">
        <ele>39.2</ele>
        <time>2022-08-27T09:05:36Z</time>
      </trkpt>
      <trkpt lat="49.06248" lon="-1.5656">
        <ele>39.4</ele>
        <time>2022-08-27T09:05:40Z</time>
      </trkpt>
      <trkpt lat="49.06232" lon="-1.56575">
        <ele>40</ele>
        <time>2022-08-27T09:05:44Z</time>
      </trkpt>
      <trkpt lat="49.06214" lon="-1.56591">
        <ele>40.2</ele>
        <time>2022-08-27T09:05:48Z</time>
      </trkpt>
      <trkpt lat="49.06189" lon="-1.56613">
        <ele>40.4</ele>
        <time>2022-08-27T09:05:53Z</time>
      </trkpt>
      <trkpt lat="49.06177" lon="-1.56624">
        <ele>40.4</ele>
        <time>2022-08-27T09:05:56Z</time>
      </trkpt>
      <trkpt lat="49.06172" lon="-1.56629">
        <ele>40.4</ele>
        <time>2022-08-27T09:05:57Z</time>
      </trkpt>
      <trkpt lat="49.0616" lon="-1.5664">
        <ele>40.2</ele>
        <time>2022-08-27T09:06:00Z</time>
      </trkpt>
      <trkpt lat="49.06152" lon="-1.56646">
        <ele>40.2</ele>
        <time>2022-08-27T09:06:02Z</time>
      </trkpt>
      <trkpt lat="49.06144" lon="-1.56652">
        <ele>40.2</ele>
        <time>2022-08-27T09:06:04Z</time>
      </trkpt>
      <trkpt lat="49.0614" lon="-1.56655">
        <ele>40.2</ele>
        <time>2022-08-27T09:06:05Z</time>
      </trkpt>
      <trkpt lat="49.06129" lon="-1.56664">
        <ele>40.4</ele>
        <time>2022-08-27T09:06:07Z</time>
      </trkpt>
      <trkpt lat="49.06125" lon="-1.5667">
        <ele>40.4</ele>
        <time>2022-08-27T09:06:08Z</time>
      </trkpt>
      <trkpt lat="49.06117" lon="-1.56684">
        <ele>40.6</ele>
        <time>2022-08-27T09:06:10Z</time>
      </trkpt>
      <trkpt lat="49.06102" lon="-1.56703">
        <ele>40.8</ele>
        <time>2022-08-27T09:06:13Z</time>
      </trkpt>
      <trkpt lat="49.06089" lon="-1.5672">
        <ele>41.2</ele>
        <time>2022-08-27T09:06:16Z</time>
      </trkpt>
      <trkpt lat="49.06081" lon="-1.56727">
        <ele>41.2</ele>
        <time>2022-08-27T09:06:18Z</time>
      </trkpt>
      <trkpt lat="49.0606" lon="-1.5673">
        <ele>41.4</ele>
        <time>2022-08-27T09:06:23Z</time>
      </trkpt>
      <trkpt lat="49.06034" lon="-1.56735">
        <ele>41.4</ele>
        <time>2022-08-27T09:06:28Z</time>
      </trkpt>
      <trkpt lat="49.06003" lon="-1.56741">
        <ele>41.8</ele>
        <time>2022-08-27T09:06:34Z</time>
      </trkpt>
      <trkpt lat="49.05975" lon="-1.56746">
        <ele>41.8</ele>
        <time>2022-08-27T09:06:39Z</time>
      </trkpt>
      <trkpt lat="49.05943" lon="-1.56753">
        <ele>42.2</ele>
        <time>2022-08-27T09:06:45Z</time>
      </trkpt>
      <trkpt lat="49.05915" lon="-1.56758">
        <ele>42.4</ele>
        <time>2022-08-27T09:06:50Z</time>
      </trkpt>
      <trkpt lat="49.05898" lon="-1.56761">
        <ele>42.4</ele>
        <time>2022-08-27T09:06:53Z</time>
      </trkpt>
      <trkpt lat="49.05888" lon="-1.56767">
        <ele>42.4</ele>
        <time>2022-08-27T09:06:55Z</time>
      </trkpt>
      <trkpt lat="49.05874" lon="-1.56779">
        <ele>42.6</ele>
        <time>2022-08-27T09:06:58Z</time>
      </trkpt>
      <trkpt lat="49.0587" lon="-1.56782">
        <ele>42.6</ele>
        <time>2022-08-27T09:06:59Z</time>
      </trkpt>
      <trkpt lat="49.05862" lon="-1.56794">
        <ele>43</ele>
        <time>2022-08-27T09:07:03Z</time>
      </trkpt>
      <trkpt lat="49.05862" lon="-1.56793">
        <ele>43</ele>
        <time>2022-08-27T09:07:04Z</time>
      </trkpt>
      <trkpt lat="49.05861" lon="-1.56797">
        <ele>43.4</ele>
        <time>2022-08-27T09:07:15Z</time>
      </trkpt>
      <trkpt lat="49.05859" lon="-1.56799">
        <ele>43.4</ele>
        <time>2022-08-27T09:07:16Z</time>
      </trkpt>
      <trkpt lat="49.05857" lon="-1.568">
        <ele>43.4</ele>
        <time>2022-08-27T09:07:17Z</time>
      </trkpt>
      <trkpt lat="49.05845" lon="-1.56803">
        <ele>43.6</ele>
        <time>2022-08-27T09:07:20Z</time>
      </trkpt>
      <trkpt lat="49.05824" lon="-1.56824">
        <ele>43.4</ele>
        <time>2022-08-27T09:07:25Z</time>
      </trkpt>
      <trkpt lat="49.05812" lon="-1.5684">
        <ele>43.4</ele>
        <time>2022-08-27T09:07:28Z</time>
      </trkpt>
      <trkpt lat="49.05804" lon="-1.56853">
        <ele>43.4</ele>
        <time>2022-08-27T09:07:30Z</time>
      </trkpt>
      <trkpt lat="49.05796" lon="-1.56865">
        <ele>43.4</ele>
        <time>2022-08-27T09:07:32Z</time>
      </trkpt>
      <trkpt lat="49.05789" lon="-1.56874">
        <ele>42.8</ele>
        <time>2022-08-27T09:07:34Z</time>
      </trkpt>
      <trkpt lat="49.05772" lon="-1.56889">
        <ele>43</ele>
        <time>2022-08-27T09:07:38Z</time>
      </trkpt>
      <trkpt lat="49.05752" lon="-1.56906">
        <ele>42.4</ele>
        <time>2022-08-27T09:07:43Z</time>
      </trkpt>
      <trkpt lat="49.05741" lon="-1.56915">
        <ele>42</ele>
        <time>2022-08-27T09:07:45Z</time>
      </trkpt>
      <trkpt lat="49.05737" lon="-1.56917">
        <ele>42</ele>
        <time>2022-08-27T09:07:46Z</time>
      </trkpt>
      <trkpt lat="49.05721" lon="-1.56931">
        <ele>41.6</ele>
        <time>2022-08-27T09:07:50Z</time>
      </trkpt>
      <trkpt lat="49.05719" lon="-1.56936">
        <ele>41.8</ele>
        <time>2022-08-27T09:07:51Z</time>
      </trkpt>
      <trkpt lat="49.05717" lon="-1.56948">
        <ele>42</ele>
        <time>2022-08-27T09:07:53Z</time>
      </trkpt>
      <trkpt lat="49.05716" lon="-1.56962">
        <ele>41.8</ele>
        <time>2022-08-27T09:07:55Z</time>
      </trkpt>
      <trkpt lat="49.05719" lon="-1.57008">
        <ele>41.6</ele>
        <time>2022-08-27T09:08:01Z</time>
      </trkpt>
      <trkpt lat="49.05725" lon="-1.5706">
        <ele>41.2</ele>
        <time>2022-08-27T09:08:07Z</time>
      </trkpt>
      <trkpt lat="49.05732" lon="-1.57119">
        <ele>41</ele>
        <time>2022-08-27T09:08:13Z</time>
      </trkpt>
      <trkpt lat="49.05726" lon="-1.57133">
        <ele>40.8</ele>
        <time>2022-08-27T09:08:15Z</time>
      </trkpt>
      <trkpt lat="49.05696" lon="-1.57147">
        <ele>40.6</ele>
        <time>2022-08-27T09:08:20Z</time>
      </trkpt>
      <trkpt lat="49.05661" lon="-1.57156">
        <ele>41</ele>
        <time>2022-08-27T09:08:26Z</time>
      </trkpt>
      <trkpt lat="49.05619" lon="-1.57157">
        <ele>41.6</ele>
        <time>2022-08-27T09:08:33Z</time>
      </trkpt>
      <trkpt lat="49.05593" lon="-1.57156">
        <ele>41.4</ele>
        <time>2022-08-27T09:08:38Z</time>
      </trkpt>
      <trkpt lat="49.05554" lon="-1.5716">
        <ele>41.8</ele>
        <time>2022-08-27T09:08:45Z</time>
      </trkpt>
      <trkpt lat="49.0551" lon="-1.57163">
        <ele>42.4</ele>
        <time>2022-08-27T09:08:53Z</time>
      </trkpt>
      <trkpt lat="49.05459" lon="-1.57162">
        <ele>43.2</ele>
        <time>2022-08-27T09:09:02Z</time>
      </trkpt>
      <trkpt lat="49.05402" lon="-1.57163">
        <ele>44</ele>
        <time>2022-08-27T09:09:11Z</time>
      </trkpt>
      <trkpt lat="49.05395" lon="-1.57164">
        <ele>44</ele>
        <time>2022-08-27T09:09:12Z</time>
      </trkpt>
      <trkpt lat="49.05342" lon="-1.57172">
        <ele>44.4</ele>
        <time>2022-08-27T09:09:20Z</time>
      </trkpt>
      <trkpt lat="49.05335" lon="-1.57174">
        <ele>44.4</ele>
        <time>2022-08-27T09:09:21Z</time>
      </trkpt>
      <trkpt lat="49.05299" lon="-1.57181">
        <ele>44.4</ele>
        <time>2022-08-27T09:09:26Z</time>
      </trkpt>
      <trkpt lat="49.05248" lon="-1.57189">
        <ele>44.2</ele>
        <time>2022-08-27T09:09:33Z</time>
      </trkpt>
      <trkpt lat="49.05193" lon="-1.57199">
        <ele>44</ele>
        <time>2022-08-27T09:09:41Z</time>
      </trkpt>
      <trkpt lat="49.0518" lon="-1.57203">
        <ele>43.8</ele>
        <time>2022-08-27T09:09:45Z</time>
      </trkpt>
      <trkpt lat="49.05178" lon="-1.57203">
        <ele>43.8</ele>
        <time>2022-08-27T09:09:47Z</time>
      </trkpt>
      <trkpt lat="49.05178" lon="-1.57201">
        <ele>43.6</ele>
        <time>2022-08-27T09:09:48Z</time>
      </trkpt>
      <trkpt lat="49.05188" lon="-1.57202">
        <ele>43.4</ele>
        <time>2022-08-27T09:09:52Z</time>
      </trkpt>
      <trkpt lat="49.05211" lon="-1.57198">
        <ele>43</ele>
        <time>2022-08-27T09:09:58Z</time>
      </trkpt>
      <trkpt lat="49.05219" lon="-1.57197">
        <ele>43</ele>
        <time>2022-08-27T09:10:00Z</time>
      </trkpt>
      <trkpt lat="49.05232" lon="-1.57194">
        <ele>43</ele>
        <time>2022-08-27T09:10:03Z</time>
      </trkpt>
      <trkpt lat="49.0524" lon="-1.57192">
        <ele>43</ele>
        <time>2022-08-27T09:10:05Z</time>
      </trkpt>
      <trkpt lat="49.05252" lon="-1.5719">
        <ele>43</ele>
        <time>2022-08-27T09:10:08Z</time>
      </trkpt>
      <trkpt lat="49.0526" lon="-1.57188">
        <ele>43</ele>
        <time>2022-08-27T09:10:10Z</time>
      </trkpt>
      <trkpt lat="49.05263" lon="-1.57178">
        <ele>43.2</ele>
        <time>2022-08-27T09:10:12Z</time>
      </trkpt>
      <trkpt lat="49.05255" lon="-1.57159">
        <ele>43</ele>
        <time>2022-08-27T09:10:15Z</time>
      </trkpt>
      <trkpt lat="49.05242" lon="-1.57126">
        <ele>43.2</ele>
        <time>2022-08-27T09:10:20Z</time>
      </trkpt>
      <trkpt lat="49.05236" lon="-1.57112">
        <ele>43.4</ele>
        <time>2022-08-27T09:10:22Z</time>
      </trkpt>
      <trkpt lat="49.05223" lon="-1.57063">
        <ele>42.8</ele>
        <time>2022-08-27T09:10:28Z</time>
      </trkpt>
      <trkpt lat="49.05221" lon="-1.57054">
        <ele>42.8</ele>
        <time>2022-08-27T09:10:29Z</time>
      </trkpt>
      <trkpt lat="49.05214" lon="-1.5702">
        <ele>42.6</ele>
        <time>2022-08-27T09:10:33Z</time>
      </trkpt>
      <trkpt lat="49.05209" lon="-1.57004">
        <ele>42.4</ele>
        <time>2022-08-27T09:10:35Z</time>
      </trkpt>
      <trkpt lat="49.052" lon="-1.56967">
        <ele>41.8</ele>
        <time>2022-08-27T09:10:39Z</time>
      </trkpt>
      <trkpt lat="49.05197" lon="-1.56959">
        <ele>41.6</ele>
        <time>2022-08-27T09:10:40Z</time>
      </trkpt>
      <trkpt lat="49.05187" lon="-1.5692">
        <ele>40.8</ele>
        <time>2022-08-27T09:10:45Z</time>
      </trkpt>
      <trkpt lat="49.05186" lon="-1.56911">
        <ele>40.2</ele>
        <time>2022-08-27T09:10:48Z</time>
      </trkpt>
      <trkpt lat="49.05184" lon="-1.56904">
        <ele>39.8</ele>
        <time>2022-08-27T09:10:50Z</time>
      </trkpt>
      <trkpt lat="49.05185" lon="-1.56898">
        <ele>39.8</ele>
        <time>2022-08-27T09:10:51Z</time>
      </trkpt>
      <trkpt lat="49.05187" lon="-1.56883">
        <ele>39.6</ele>
        <time>2022-08-27T09:10:53Z</time>
      </trkpt>
      <trkpt lat="49.05188" lon="-1.56866">
        <ele>39.6</ele>
        <time>2022-08-27T09:10:55Z</time>
      </trkpt>
      <trkpt lat="49.05188" lon="-1.56814">
        <ele>39.6</ele>
        <time>2022-08-27T09:11:01Z</time>
      </trkpt>
      <trkpt lat="49.05189" lon="-1.56806">
        <ele>39.6</ele>
        <time>2022-08-27T09:11:02Z</time>
      </trkpt>
      <trkpt lat="49.05193" lon="-1.56791">
        <ele>39.6</ele>
        <time>2022-08-27T09:11:04Z</time>
      </trkpt>
      <trkpt lat="49.05197" lon="-1.56785">
        <ele>39.6</ele>
        <time>2022-08-27T09:11:05Z</time>
      </trkpt>
      <trkpt lat="49.05201" lon="-1.5678">
        <ele>39.6</ele>
        <time>2022-08-27T09:11:06Z</time>
      </trkpt>
      <trkpt lat="49.05218" lon="-1.56761">
        <ele>39.2</ele>
        <time>2022-08-27T09:11:10Z</time>
      </trkpt>
      <trkpt lat="49.05238" lon="-1.56728">
        <ele>39.4</ele>
        <time>2022-08-27T09:11:16Z</time>
      </trkpt>
      <trkpt lat="49.05256" lon="-1.567">
        <ele>39</ele>
        <time>2022-08-27T09:11:22Z</time>
      </trkpt>
      <trkpt lat="49.0527" lon="-1.56678">
        <ele>38.4</ele>
        <time>2022-08-27T09:11:27Z</time>
      </trkpt>
      <trkpt lat="49.05293" lon="-1.56642">
        <ele>38</ele>
        <time>2022-08-27T09:11:33Z</time>
      </trkpt>
      <trkpt lat="49.05316" lon="-1.566">
        <ele>38.2</ele>
        <time>2022-08-27T09:11:40Z</time>
      </trkpt>
      <trkpt lat="49.05325" lon="-1.56582">
        <ele>38.2</ele>
        <time>2022-08-27T09:11:43Z</time>
      </trkpt>
      <trkpt lat="49.05331" lon="-1.5657">
        <ele>38.2</ele>
        <time>2022-08-27T09:11:45Z</time>
      </trkpt>
      <trkpt lat="49.05348" lon="-1.5653">
        <ele>39</ele>
        <time>2022-08-27T09:11:51Z</time>
      </trkpt>
      <trkpt lat="49.05364" lon="-1.56487">
        <ele>38.6</ele>
        <time>2022-08-27T09:11:57Z</time>
      </trkpt>
      <trkpt lat="49.05369" lon="-1.56471">
        <ele>38.6</ele>
        <time>2022-08-27T09:11:59Z</time>
      </trkpt>
      <trkpt lat="49.05372" lon="-1.56455">
        <ele>38.6</ele>
        <time>2022-08-27T09:12:01Z</time>
      </trkpt>
      <trkpt lat="49.05372" lon="-1.56446">
        <ele>38.8</ele>
        <time>2022-08-27T09:12:02Z</time>
      </trkpt>
      <trkpt lat="49.05374" lon="-1.56412">
        <ele>38.8</ele>
        <time>2022-08-27T09:12:06Z</time>
      </trkpt>
      <trkpt lat="49.05372" lon="-1.56405">
        <ele>38.8</ele>
        <time>2022-08-27T09:12:07Z</time>
      </trkpt>
      <trkpt lat="49.05369" lon="-1.564">
        <ele>38.8</ele>
        <time>2022-08-27T09:12:08Z</time>
      </trkpt>
      <trkpt lat="49.05359" lon="-1.56389">
        <ele>38.8</ele>
        <time>2022-08-27T09:12:10Z</time>
      </trkpt>
      <trkpt lat="49.05322" lon="-1.56358">
        <ele>38.8</ele>
        <time>2022-08-27T09:12:16Z</time>
      </trkpt>
      <trkpt lat="49.05274" lon="-1.56318">
        <ele>38.6</ele>
        <time>2022-08-27T09:12:22Z</time>
      </trkpt>
      <trkpt lat="49.0522" lon="-1.56273">
        <ele>38</ele>
        <time>2022-08-27T09:12:28Z</time>
      </trkpt>
      <trkpt lat="49.05211" lon="-1.56264">
        <ele>38</ele>
        <time>2022-08-27T09:12:29Z</time>
      </trkpt>
      <trkpt lat="49.05162" lon="-1.56219">
        <ele>37.2</ele>
        <time>2022-08-27T09:12:34Z</time>
      </trkpt>
      <trkpt lat="49.05143" lon="-1.56199">
        <ele>37</ele>
        <time>2022-08-27T09:12:36Z</time>
      </trkpt>
      <trkpt lat="49.05095" lon="-1.56141">
        <ele>36.2</ele>
        <time>2022-08-27T09:12:41Z</time>
      </trkpt>
      <trkpt lat="49.05076" lon="-1.56114">
        <ele>36</ele>
        <time>2022-08-27T09:12:43Z</time>
      </trkpt>
      <trkpt lat="49.05029" lon="-1.5604">
        <ele>34.4</ele>
        <time>2022-08-27T09:12:48Z</time>
      </trkpt>
      <trkpt lat="49.0501" lon="-1.5601">
        <ele>33.8</ele>
        <time>2022-08-27T09:12:50Z</time>
      </trkpt>
      <trkpt lat="49.04964" lon="-1.55937">
        <ele>32.2</ele>
        <time>2022-08-27T09:12:55Z</time>
      </trkpt>
      <trkpt lat="49.04947" lon="-1.55911">
        <ele>31.6</ele>
        <time>2022-08-27T09:12:57Z</time>
      </trkpt>
      <trkpt lat="49.0491" lon="-1.55851">
        <ele>30.6</ele>
        <time>2022-08-27T09:13:02Z</time>
      </trkpt>
      <trkpt lat="49.04882" lon="-1.55806">
        <ele>30.2</ele>
        <time>2022-08-27T09:13:07Z</time>
      </trkpt>
      <trkpt lat="49.04856" lon="-1.55766">
        <ele>30</ele>
        <time>2022-08-27T09:13:13Z</time>
      </trkpt>
      <trkpt lat="49.04831" lon="-1.5573">
        <ele>29.8</ele>
        <time>2022-08-27T09:13:20Z</time>
      </trkpt>
      <trkpt lat="49.04809" lon="-1.55702">
        <ele>29.8</ele>
        <time>2022-08-27T09:13:27Z</time>
      </trkpt>
      <trkpt lat="49.04779" lon="-1.55672">
        <ele>29.8</ele>
        <time>2022-08-27T09:13:36Z</time>
      </trkpt>
      <trkpt lat="49.0474" lon="-1.55634">
        <ele>30.4</ele>
        <time>2022-08-27T09:13:48Z</time>
      </trkpt>
      <trkpt lat="49.04704" lon="-1.55606">
        <ele>30.8</ele>
        <time>2022-08-27T09:13:57Z</time>
      </trkpt>
      <trkpt lat="49.04666" lon="-1.55583">
        <ele>31.4</ele>
        <time>2022-08-27T09:14:06Z</time>
      </trkpt>
      <trkpt lat="49.04628" lon="-1.55562">
        <ele>32</ele>
        <time>2022-08-27T09:14:14Z</time>
      </trkpt>
      <trkpt lat="49.04588" lon="-1.55539">
        <ele>32.6</ele>
        <time>2022-08-27T09:14:22Z</time>
      </trkpt>
      <trkpt lat="49.04557" lon="-1.55523">
        <ele>33</ele>
        <time>2022-08-27T09:14:28Z</time>
      </trkpt>
      <trkpt lat="49.04521" lon="-1.55505">
        <ele>33.6</ele>
        <time>2022-08-27T09:14:35Z</time>
      </trkpt>
      <trkpt lat="49.04472" lon="-1.55472">
        <ele>34.2</ele>
        <time>2022-08-27T09:14:44Z</time>
      </trkpt>
      <trkpt lat="49.04424" lon="-1.55428">
        <ele>34.8</ele>
        <time>2022-08-27T09:14:53Z</time>
      </trkpt>
      <trkpt lat="49.04391" lon="-1.55389">
        <ele>34.8</ele>
        <time>2022-08-27T09:14:59Z</time>
      </trkpt>
      <trkpt lat="49.04362" lon="-1.55346">
        <ele>35.2</ele>
        <time>2022-08-27T09:15:05Z</time>
      </trkpt>
      <trkpt lat="49.04353" lon="-1.55331">
        <ele>35.2</ele>
        <time>2022-08-27T09:15:07Z</time>
      </trkpt>
      <trkpt lat="49.04341" lon="-1.55309">
        <ele>35.2</ele>
        <time>2022-08-27T09:15:10Z</time>
      </trkpt>
      <trkpt lat="49.04309" lon="-1.55242">
        <ele>35.4</ele>
        <time>2022-08-27T09:15:18Z</time>
      </trkpt>
      <trkpt lat="49.04285" lon="-1.55169">
        <ele>35.4</ele>
        <time>2022-08-27T09:15:25Z</time>
      </trkpt>
      <trkpt lat="49.04268" lon="-1.55102">
        <ele>35</ele>
        <time>2022-08-27T09:15:30Z</time>
      </trkpt>
      <trkpt lat="49.04254" lon="-1.5502">
        <ele>34</ele>
        <time>2022-08-27T09:15:35Z</time>
      </trkpt>
      <trkpt lat="49.04242" lon="-1.54927">
        <ele>32.8</ele>
        <time>2022-08-27T09:15:40Z</time>
      </trkpt>
      <trkpt lat="49.04239" lon="-1.54908">
        <ele>32.6</ele>
        <time>2022-08-27T09:15:41Z</time>
      </trkpt>
      <trkpt lat="49.04225" lon="-1.54809">
        <ele>31.2</ele>
        <time>2022-08-27T09:15:46Z</time>
      </trkpt>
      <trkpt lat="49.0422" lon="-1.54769">
        <ele>30.6</ele>
        <time>2022-08-27T09:15:48Z</time>
      </trkpt>
      <trkpt lat="49.04207" lon="-1.54676">
        <ele>29.2</ele>
        <time>2022-08-27T09:15:53Z</time>
      </trkpt>
      <trkpt lat="49.04205" lon="-1.54658">
        <ele>29</ele>
        <time>2022-08-27T09:15:54Z</time>
      </trkpt>
      <trkpt lat="49.04194" lon="-1.54576">
        <ele>27.8</ele>
        <time>2022-08-27T09:15:59Z</time>
      </trkpt>
      <trkpt lat="49.04191" lon="-1.5456">
        <ele>27.6</ele>
        <time>2022-08-27T09:16:00Z</time>
      </trkpt>
      <trkpt lat="49.04178" lon="-1.54469">
        <ele>26.2</ele>
        <time>2022-08-27T09:16:06Z</time>
      </trkpt>
      <trkpt lat="49.04174" lon="-1.5444">
        <ele>25.8</ele>
        <time>2022-08-27T09:16:08Z</time>
      </trkpt>
      <trkpt lat="49.04161" lon="-1.54354">
        <ele>24.2</ele>
        <time>2022-08-27T09:16:14Z</time>
      </trkpt>
      <trkpt lat="49.04151" lon="-1.54298">
        <ele>23.2</ele>
        <time>2022-08-27T09:16:18Z</time>
      </trkpt>
      <trkpt lat="49.0413" lon="-1.54209">
        <ele>22</ele>
        <time>2022-08-27T09:16:25Z</time>
      </trkpt>
      <trkpt lat="49.04111" lon="-1.54149">
        <ele>21.4</ele>
        <time>2022-08-27T09:16:31Z</time>
      </trkpt>
      <trkpt lat="49.04108" lon="-1.5414">
        <ele>21.2</ele>
        <time>2022-08-27T09:16:32Z</time>
      </trkpt>
      <trkpt lat="49.04099" lon="-1.54114">
        <ele>21</ele>
        <time>2022-08-27T09:16:35Z</time>
      </trkpt>
      <trkpt lat="49.0408" lon="-1.54057">
        <ele>20.6</ele>
        <time>2022-08-27T09:16:42Z</time>
      </trkpt>
      <trkpt lat="49.04053" lon="-1.53979">
        <ele>20.2</ele>
        <time>2022-08-27T09:16:52Z</time>
      </trkpt>
      <trkpt lat="49.04026" lon="-1.53903">
        <ele>20.2</ele>
        <time>2022-08-27T09:17:02Z</time>
      </trkpt>
      <trkpt lat="49.04023" lon="-1.53895">
        <ele>20.2</ele>
        <time>2022-08-27T09:17:03Z</time>
      </trkpt>
      <trkpt lat="49.03997" lon="-1.53818">
        <ele>20.6</ele>
        <time>2022-08-27T09:17:13Z</time>
      </trkpt>
      <trkpt lat="49.0397" lon="-1.53741">
        <ele>20.6</ele>
        <time>2022-08-27T09:17:22Z</time>
      </trkpt>
      <trkpt lat="49.03963" lon="-1.53723">
        <ele>20.6</ele>
        <time>2022-08-27T09:17:24Z</time>
      </trkpt>
      <trkpt lat="49.03937" lon="-1.53646">
        <ele>20.6</ele>
        <time>2022-08-27T09:17:32Z</time>
      </trkpt>
      <trkpt lat="49.03933" lon="-1.53636">
        <ele>20.6</ele>
        <time>2022-08-27T09:17:33Z</time>
      </trkpt>
      <trkpt lat="49.03904" lon="-1.53555">
        <ele>20.2</ele>
        <time>2022-08-27T09:17:41Z</time>
      </trkpt>
      <trkpt lat="49.03901" lon="-1.53545">
        <ele>20</ele>
        <time>2022-08-27T09:17:42Z</time>
      </trkpt>
      <trkpt lat="49.03876" lon="-1.53475">
        <ele>19.6</ele>
        <time>2022-08-27T09:17:49Z</time>
      </trkpt>
      <trkpt lat="49.03856" lon="-1.53417">
        <ele>19.4</ele>
        <time>2022-08-27T09:17:55Z</time>
      </trkpt>
      <trkpt lat="49.03827" lon="-1.53341">
        <ele>19.2</ele>
        <time>2022-08-27T09:18:03Z</time>
      </trkpt>
      <trkpt lat="49.03824" lon="-1.53331">
        <ele>19.2</ele>
        <time>2022-08-27T09:18:04Z</time>
      </trkpt>
      <trkpt lat="49.03794" lon="-1.53256">
        <ele>18.8</ele>
        <time>2022-08-27T09:18:12Z</time>
      </trkpt>
      <trkpt lat="49.0379" lon="-1.53247">
        <ele>18.6</ele>
        <time>2022-08-27T09:18:13Z</time>
      </trkpt>
      <trkpt lat="49.03787" lon="-1.53238">
        <ele>18.6</ele>
        <time>2022-08-27T09:18:14Z</time>
      </trkpt>
      <trkpt lat="49.03773" lon="-1.53202">
        <ele>18.2</ele>
        <time>2022-08-27T09:18:18Z</time>
      </trkpt>
      <trkpt lat="49.03744" lon="-1.5313">
        <ele>17.6</ele>
        <time>2022-08-27T09:18:26Z</time>
      </trkpt>
      <trkpt lat="49.03736" lon="-1.53112">
        <ele>17.4</ele>
        <time>2022-08-27T09:18:28Z</time>
      </trkpt>
      <trkpt lat="49.03706" lon="-1.5304">
        <ele>17</ele>
        <time>2022-08-27T09:18:36Z</time>
      </trkpt>
      <trkpt lat="49.03698" lon="-1.53022">
        <ele>16.8</ele>
        <time>2022-08-27T09:18:38Z</time>
      </trkpt>
      <trkpt lat="49.03667" lon="-1.52947">
        <ele>16.2</ele>
        <time>2022-08-27T09:18:46Z</time>
      </trkpt>
      <trkpt lat="49.0366" lon="-1.52929">
        <ele>16</ele>
        <time>2022-08-27T09:18:48Z</time>
      </trkpt>
      <trkpt lat="49.03629" lon="-1.52854">
        <ele>15.4</ele>
        <time>2022-08-27T09:18:56Z</time>
      </trkpt>
      <trkpt lat="49.03593" lon="-1.5278">
        <ele>15</ele>
        <time>2022-08-27T09:19:04Z</time>
      </trkpt>
      <trkpt lat="49.03589" lon="-1.52771">
        <ele>15</ele>
        <time>2022-08-27T09:19:05Z</time>
      </trkpt>
      <trkpt lat="49.03562" lon="-1.5272">
        <ele>14.4</ele>
        <time>2022-08-27T09:19:11Z</time>
      </trkpt>
      <trkpt lat="49.03526" lon="-1.52667">
        <ele>13.6</ele>
        <time>2022-08-27T09:19:18Z</time>
      </trkpt>
      <trkpt lat="49.03483" lon="-1.52612">
        <ele>12.8</ele>
        <time>2022-08-27T09:19:25Z</time>
      </trkpt>
      <trkpt lat="49.03477" lon="-1.52604">
        <ele>12.6</ele>
        <time>2022-08-27T09:19:26Z</time>
      </trkpt>
      <trkpt lat="49.03436" lon="-1.52549">
        <ele>12.6</ele>
        <time>2022-08-27T09:19:33Z</time>
      </trkpt>
      <trkpt lat="49.03431" lon="-1.52541">
        <ele>12.6</ele>
        <time>2022-08-27T09:19:34Z</time>
      </trkpt>
      <trkpt lat="49.03415" lon="-1.52517">
        <ele>12.6</ele>
        <time>2022-08-27T09:19:37Z</time>
      </trkpt>
      <trkpt lat="49.034" lon="-1.52492">
        <ele>12.4</ele>
        <time>2022-08-27T09:19:40Z</time>
      </trkpt>
      <trkpt lat="49.03365" lon="-1.52417">
        <ele>12</ele>
        <time>2022-08-27T09:19:48Z</time>
      </trkpt>
      <trkpt lat="49.03361" lon="-1.52408">
        <ele>12</ele>
        <time>2022-08-27T09:19:49Z</time>
      </trkpt>
      <trkpt lat="49.03332" lon="-1.5233">
        <ele>11.8</ele>
        <time>2022-08-27T09:19:57Z</time>
      </trkpt>
      <trkpt lat="49.0331" lon="-1.52247">
        <ele>11.6</ele>
        <time>2022-08-27T09:20:05Z</time>
      </trkpt>
      <trkpt lat="49.03308" lon="-1.52237">
        <ele>11.6</ele>
        <time>2022-08-27T09:20:06Z</time>
      </trkpt>
      <trkpt lat="49.03289" lon="-1.52157">
        <ele>11.4</ele>
        <time>2022-08-27T09:20:14Z</time>
      </trkpt>
      <trkpt lat="49.03284" lon="-1.52137">
        <ele>11.4</ele>
        <time>2022-08-27T09:20:16Z</time>
      </trkpt>
      <trkpt lat="49.03262" lon="-1.52053">
        <ele>11.2</ele>
        <time>2022-08-27T09:20:25Z</time>
      </trkpt>
      <trkpt lat="49.03237" lon="-1.51983">
        <ele>11.2</ele>
        <time>2022-08-27T09:20:33Z</time>
      </trkpt>
      <trkpt lat="49.03212" lon="-1.51917">
        <ele>11.2</ele>
        <time>2022-08-27T09:20:41Z</time>
      </trkpt>
      <trkpt lat="49.03183" lon="-1.51856">
        <ele>11.4</ele>
        <time>2022-08-27T09:20:49Z</time>
      </trkpt>
      <trkpt lat="49.03154" lon="-1.51796">
        <ele>11.6</ele>
        <time>2022-08-27T09:20:57Z</time>
      </trkpt>
      <trkpt lat="49.03122" lon="-1.51728">
        <ele>11.8</ele>
        <time>2022-08-27T09:21:06Z</time>
      </trkpt>
      <trkpt lat="49.03119" lon="-1.51721">
        <ele>11.8</ele>
        <time>2022-08-27T09:21:07Z</time>
      </trkpt>
      <trkpt lat="49.03086" lon="-1.51655">
        <ele>12</ele>
        <time>2022-08-27T09:21:16Z</time>
      </trkpt>
      <trkpt lat="49.03054" lon="-1.51586">
        <ele>12.2</ele>
        <time>2022-08-27T09:21:25Z</time>
      </trkpt>
      <trkpt lat="49.03021" lon="-1.51516">
        <ele>12.4</ele>
        <time>2022-08-27T09:21:34Z</time>
      </trkpt>
      <trkpt lat="49.02987" lon="-1.51446">
        <ele>12.8</ele>
        <time>2022-08-27T09:21:43Z</time>
      </trkpt>
      <trkpt lat="49.02983" lon="-1.51439">
        <ele>12.8</ele>
        <time>2022-08-27T09:21:44Z</time>
      </trkpt>
      <trkpt lat="49.02951" lon="-1.51374">
        <ele>13.2</ele>
        <time>2022-08-27T09:21:53Z</time>
      </trkpt>
      <trkpt lat="49.02944" lon="-1.5136">
        <ele>13.2</ele>
        <time>2022-08-27T09:21:55Z</time>
      </trkpt>
      <trkpt lat="49.02938" lon="-1.51345">
        <ele>13</ele>
        <time>2022-08-27T09:21:57Z</time>
      </trkpt>
      <trkpt lat="49.02912" lon="-1.5129">
        <ele>13</ele>
        <time>2022-08-27T09:22:04Z</time>
      </trkpt>
      <trkpt lat="49.02883" lon="-1.51229">
        <ele>13.2</ele>
        <time>2022-08-27T09:22:12Z</time>
      </trkpt>
      <trkpt lat="49.02849" lon="-1.51158">
        <ele>13.4</ele>
        <time>2022-08-27T09:22:21Z</time>
      </trkpt>
      <trkpt lat="49.02845" lon="-1.51151">
        <ele>13.4</ele>
        <time>2022-08-27T09:22:22Z</time>
      </trkpt>
      <trkpt lat="49.02813" lon="-1.51083">
        <ele>13.4</ele>
        <time>2022-08-27T09:22:30Z</time>
      </trkpt>
      <trkpt lat="49.02809" lon="-1.51074">
        <ele>13.4</ele>
        <time>2022-08-27T09:22:31Z</time>
      </trkpt>
      <trkpt lat="49.02778" lon="-1.51011">
        <ele>13.6</ele>
        <time>2022-08-27T09:22:39Z</time>
      </trkpt>
      <trkpt lat="49.02759" lon="-1.50977">
        <ele>13.4</ele>
        <time>2022-08-27T09:22:44Z</time>
      </trkpt>
      <trkpt lat="49.02754" lon="-1.50974">
        <ele>13.2</ele>
        <time>2022-08-27T09:22:45Z</time>
      </trkpt>
      <trkpt lat="49.02749" lon="-1.50974">
        <ele>13.2</ele>
        <time>2022-08-27T09:22:46Z</time>
      </trkpt>
      <trkpt lat="49.02737" lon="-1.50971">
        <ele>13.2</ele>
        <time>2022-08-27T09:22:48Z</time>
      </trkpt>
      <trkpt lat="49.02729" lon="-1.50959">
        <ele>13.2</ele>
        <time>2022-08-27T09:22:50Z</time>
      </trkpt>
      <trkpt lat="49.02726" lon="-1.50951">
        <ele>13.2</ele>
        <time>2022-08-27T09:22:51Z</time>
      </trkpt>
      <trkpt lat="49.02719" lon="-1.50923">
        <ele>12.8</ele>
        <time>2022-08-27T09:22:54Z</time>
      </trkpt>
      <trkpt lat="49.02713" lon="-1.50908">
        <ele>12.8</ele>
        <time>2022-08-27T09:22:56Z</time>
      </trkpt>
      <trkpt lat="49.02703" lon="-1.50895">
        <ele>12.6</ele>
        <time>2022-08-27T09:22:58Z</time>
      </trkpt>
      <trkpt lat="49.02691" lon="-1.50888">
        <ele>12.2</ele>
        <time>2022-08-27T09:23:00Z</time>
      </trkpt>
      <trkpt lat="49.02685" lon="-1.50883">
        <ele>12</ele>
        <time>2022-08-27T09:23:01Z</time>
      </trkpt>
      <trkpt lat="49.02673" lon="-1.50874">
        <ele>11.8</ele>
        <time>2022-08-27T09:23:03Z</time>
      </trkpt>
      <trkpt lat="49.02662" lon="-1.50862">
        <ele>11.8</ele>
        <time>2022-08-27T09:23:05Z</time>
      </trkpt>
      <trkpt lat="49.02619" lon="-1.5081">
        <ele>11.4</ele>
        <time>2022-08-27T09:23:12Z</time>
      </trkpt>
      <trkpt lat="49.02583" lon="-1.50768">
        <ele>11.4</ele>
        <time>2022-08-27T09:23:18Z</time>
      </trkpt>
      <trkpt lat="49.02552" lon="-1.50743">
        <ele>11.4</ele>
        <time>2022-08-27T09:23:23Z</time>
      </trkpt>
      <trkpt lat="49.02515" lon="-1.50704">
        <ele>11.2</ele>
        <time>2022-08-27T09:23:30Z</time>
      </trkpt>
      <trkpt lat="49.02489" lon="-1.50677">
        <ele>11.6</ele>
        <time>2022-08-27T09:23:35Z</time>
      </trkpt>
      <trkpt lat="49.02478" lon="-1.50668">
        <ele>12</ele>
        <time>2022-08-27T09:23:37Z</time>
      </trkpt>
      <trkpt lat="49.02447" lon="-1.50651">
        <ele>11.6</ele>
        <time>2022-08-27T09:23:43Z</time>
      </trkpt>
      <trkpt lat="49.02411" lon="-1.50633">
        <ele>11.8</ele>
        <time>2022-08-27T09:23:50Z</time>
      </trkpt>
      <trkpt lat="49.02406" lon="-1.50631">
        <ele>12</ele>
        <time>2022-08-27T09:23:51Z</time>
      </trkpt>
      <trkpt lat="49.02401" lon="-1.5063">
        <ele>11.8</ele>
        <time>2022-08-27T09:23:52Z</time>
      </trkpt>
      <trkpt lat="49.02381" lon="-1.50622">
        <ele>11.8</ele>
        <time>2022-08-27T09:23:56Z</time>
      </trkpt>
      <trkpt lat="49.02331" lon="-1.50605">
        <ele>11.8</ele>
        <time>2022-08-27T09:24:05Z</time>
      </trkpt>
      <trkpt lat="49.02294" lon="-1.50595">
        <ele>11.2</ele>
        <time>2022-08-27T09:24:12Z</time>
      </trkpt>
      <trkpt lat="49.02255" lon="-1.50583">
        <ele>11.4</ele>
        <time>2022-08-27T09:24:19Z</time>
      </trkpt>
      <trkpt lat="49.02219" lon="-1.50573">
        <ele>11.4</ele>
        <time>2022-08-27T09:24:25Z</time>
      </trkpt>
      <trkpt lat="49.02214" lon="-1.5057">
        <ele>11.4</ele>
        <time>2022-08-27T09:24:26Z</time>
      </trkpt>
      <trkpt lat="49.02173" lon="-1.50557">
        <ele>11.4</ele>
        <time>2022-08-27T09:24:33Z</time>
      </trkpt>
      <trkpt lat="49.02132" lon="-1.50542">
        <ele>11</ele>
        <time>2022-08-27T09:24:40Z</time>
      </trkpt>
      <trkpt lat="49.0209" lon="-1.50524">
        <ele>11</ele>
        <time>2022-08-27T09:24:47Z</time>
      </trkpt>
      <trkpt lat="49.02059" lon="-1.50504">
        <ele>10.8</ele>
        <time>2022-08-27T09:24:52Z</time>
      </trkpt>
      <trkpt lat="49.02044" lon="-1.50486">
        <ele>10.8</ele>
        <time>2022-08-27T09:24:55Z</time>
      </trkpt>
      <trkpt lat="49.02039" lon="-1.50483">
        <ele>10.6</ele>
        <time>2022-08-27T09:24:56Z</time>
      </trkpt>
      <trkpt lat="49.02033" lon="-1.50482">
        <ele>10.8</ele>
        <time>2022-08-27T09:24:57Z</time>
      </trkpt>
      <trkpt lat="49.02028" lon="-1.50486">
        <ele>10.8</ele>
        <time>2022-08-27T09:24:58Z</time>
      </trkpt>
      <trkpt lat="49.02024" lon="-1.50492">
        <ele>10.8</ele>
        <time>2022-08-27T09:24:59Z</time>
      </trkpt>
      <trkpt lat="49.02016" lon="-1.50501">
        <ele>10.8</ele>
        <time>2022-08-27T09:25:01Z</time>
      </trkpt>
      <trkpt lat="49.02006" lon="-1.50498">
        <ele>10.6</ele>
        <time>2022-08-27T09:25:04Z</time>
      </trkpt>
      <trkpt lat="49.01991" lon="-1.50494">
        <ele>10.4</ele>
        <time>2022-08-27T09:25:09Z</time>
      </trkpt>
      <trkpt lat="49.01965" lon="-1.50513">
        <ele>10.2</ele>
        <time>2022-08-27T09:25:15Z</time>
      </trkpt>
      <trkpt lat="49.01928" lon="-1.50539">
        <ele>10.2</ele>
        <time>2022-08-27T09:25:22Z</time>
      </trkpt>
      <trkpt lat="49.01877" lon="-1.50575">
        <ele>10.2</ele>
        <time>2022-08-27T09:25:31Z</time>
      </trkpt>
      <trkpt lat="49.01872" lon="-1.50579">
        <ele>10</ele>
        <time>2022-08-27T09:25:32Z</time>
      </trkpt>
      <trkpt lat="49.01841" lon="-1.50606">
        <ele>10</ele>
        <time>2022-08-27T09:25:38Z</time>
      </trkpt>
      <trkpt lat="49.01836" lon="-1.50611">
        <ele>10</ele>
        <time>2022-08-27T09:25:39Z</time>
      </trkpt>
      <trkpt lat="49.01816" lon="-1.50633">
        <ele>9.8</ele>
        <time>2022-08-27T09:25:43Z</time>
      </trkpt>
      <trkpt lat="49.01778" lon="-1.50669">
        <ele>9.6</ele>
        <time>2022-08-27T09:25:50Z</time>
      </trkpt>
      <trkpt lat="49.01761" lon="-1.50684">
        <ele>9.6</ele>
        <time>2022-08-27T09:25:53Z</time>
      </trkpt>
      <trkpt lat="49.01746" lon="-1.50702">
        <ele>9.8</ele>
        <time>2022-08-27T09:25:56Z</time>
      </trkpt>
      <trkpt lat="49.01711" lon="-1.50741">
        <ele>9.6</ele>
        <time>2022-08-27T09:26:03Z</time>
      </trkpt>
      <trkpt lat="49.01705" lon="-1.50745">
        <ele>9.6</ele>
        <time>2022-08-27T09:26:04Z</time>
      </trkpt>
      <trkpt lat="49.01686" lon="-1.50765">
        <ele>9.8</ele>
        <time>2022-08-27T09:26:08Z</time>
      </trkpt>
      <trkpt lat="49.01656" lon="-1.508">
        <ele>10.2</ele>
        <time>2022-08-27T09:26:15Z</time>
      </trkpt>
      <trkpt lat="49.01636" lon="-1.50824">
        <ele>10.6</ele>
        <time>2022-08-27T09:26:21Z</time>
      </trkpt>
      <trkpt lat="49.01623" lon="-1.50839">
        <ele>11</ele>
        <time>2022-08-27T09:26:25Z</time>
      </trkpt>
      <trkpt lat="49.01617" lon="-1.50848">
        <ele>11.2</ele>
        <time>2022-08-27T09:26:27Z</time>
      </trkpt>
      <trkpt lat="49.01599" lon="-1.50873">
        <ele>11.8</ele>
        <time>2022-08-27T09:26:34Z</time>
      </trkpt>
      <trkpt lat="49.01581" lon="-1.50898">
        <ele>12.8</ele>
        <time>2022-08-27T09:26:42Z</time>
      </trkpt>
      <trkpt lat="49.01563" lon="-1.50921">
        <ele>13.6</ele>
        <time>2022-08-27T09:26:50Z</time>
      </trkpt>
      <trkpt lat="49.01547" lon="-1.50943">
        <ele>14.8</ele>
        <time>2022-08-27T09:26:58Z</time>
      </trkpt>
      <trkpt lat="49.01531" lon="-1.50971">
        <ele>15.8</ele>
        <time>2022-08-27T09:27:07Z</time>
      </trkpt>
      <trkpt lat="49.01517" lon="-1.50997">
        <ele>16.8</ele>
        <time>2022-08-27T09:27:15Z</time>
      </trkpt>
      <trkpt lat="49.01503" lon="-1.51024">
        <ele>17.6</ele>
        <time>2022-08-27T09:27:23Z</time>
      </trkpt>
      <trkpt lat="49.01488" lon="-1.51053">
        <ele>18.8</ele>
        <time>2022-08-27T09:27:32Z</time>
      </trkpt>
      <trkpt lat="49.01473" lon="-1.5108">
        <ele>19.6</ele>
        <time>2022-08-27T09:27:40Z</time>
      </trkpt>
      <trkpt lat="49.01453" lon="-1.51115">
        <ele>21</ele>
        <time>2022-08-27T09:27:51Z</time>
      </trkpt>
      <trkpt lat="49.01435" lon="-1.51146">
        <ele>22.2</ele>
        <time>2022-08-27T09:28:00Z</time>
      </trkpt>
      <trkpt lat="49.01409" lon="-1.51184">
        <ele>23.6</ele>
        <time>2022-08-27T09:28:11Z</time>
      </trkpt>
      <trkpt lat="49.0138" lon="-1.51224">
        <ele>25</ele>
        <time>2022-08-27T09:28:22Z</time>
      </trkpt>
      <trkpt lat="49.01357" lon="-1.51253">
        <ele>26</ele>
        <time>2022-08-27T09:28:30Z</time>
      </trkpt>
      <trkpt lat="49.01341" lon="-1.5127">
        <ele>26.8</ele>
        <time>2022-08-27T09:28:36Z</time>
      </trkpt>
      <trkpt lat="49.01336" lon="-1.51266">
        <ele>27</ele>
        <time>2022-08-27T09:28:38Z</time>
      </trkpt>
      <trkpt lat="49.01335" lon="-1.51262">
        <ele>27</ele>
        <time>2022-08-27T09:28:39Z</time>
      </trkpt>
      <trkpt lat="49.01329" lon="-1.51257">
        <ele>27.2</ele>
        <time>2022-08-27T09:28:41Z</time>
      </trkpt>
      <trkpt lat="49.01325" lon="-1.51259">
        <ele>27.4</ele>
        <time>2022-08-27T09:28:42Z</time>
      </trkpt>
      <trkpt lat="49.01316" lon="-1.51271">
        <ele>27.8</ele>
        <time>2022-08-27T09:28:45Z</time>
      </trkpt>
      <trkpt lat="49.01309" lon="-1.51278">
        <ele>28</ele>
        <time>2022-08-27T09:28:47Z</time>
      </trkpt>
      <trkpt lat="49.01274" lon="-1.51313">
        <ele>28.8</ele>
        <time>2022-08-27T09:28:56Z</time>
      </trkpt>
      <trkpt lat="49.01245" lon="-1.51341">
        <ele>29.6</ele>
        <time>2022-08-27T09:29:03Z</time>
      </trkpt>
      <trkpt lat="49.01212" lon="-1.51368">
        <ele>30.2</ele>
        <time>2022-08-27T09:29:10Z</time>
      </trkpt>
      <trkpt lat="49.01177" lon="-1.51396">
        <ele>31</ele>
        <time>2022-08-27T09:29:18Z</time>
      </trkpt>
      <trkpt lat="49.01151" lon="-1.51413">
        <ele>31.4</ele>
        <time>2022-08-27T09:29:24Z</time>
      </trkpt>
      <trkpt lat="49.01147" lon="-1.51415">
        <ele>31.6</ele>
        <time>2022-08-27T09:29:25Z</time>
      </trkpt>
      <trkpt lat="49.01142" lon="-1.51414">
        <ele>31.6</ele>
        <time>2022-08-27T09:29:26Z</time>
      </trkpt>
      <trkpt lat="49.01137" lon="-1.51408">
        <ele>31.6</ele>
        <time>2022-08-27T09:29:27Z</time>
      </trkpt>
      <trkpt lat="49.01135" lon="-1.51401">
        <ele>31.6</ele>
        <time>2022-08-27T09:29:28Z</time>
      </trkpt>
      <trkpt lat="49.01128" lon="-1.51387">
        <ele>31.8</ele>
        <time>2022-08-27T09:29:30Z</time>
      </trkpt>
      <trkpt lat="49.01112" lon="-1.51384">
        <ele>31.8</ele>
        <time>2022-08-27T09:29:33Z</time>
      </trkpt>
      <trkpt lat="49.01101" lon="-1.51387">
        <ele>32</ele>
        <time>2022-08-27T09:29:35Z</time>
      </trkpt>
      <trkpt lat="49.01097" lon="-1.51392">
        <ele>32</ele>
        <time>2022-08-27T09:29:36Z</time>
      </trkpt>
      <trkpt lat="49.01095" lon="-1.51416">
        <ele>32</ele>
        <time>2022-08-27T09:29:39Z</time>
      </trkpt>
      <trkpt lat="49.01092" lon="-1.51448">
        <ele>32.4</ele>
        <time>2022-08-27T09:29:44Z</time>
      </trkpt>
      <trkpt lat="49.0109" lon="-1.51454">
        <ele>32.4</ele>
        <time>2022-08-27T09:29:45Z</time>
      </trkpt>
      <trkpt lat="49.01086" lon="-1.51457">
        <ele>32.6</ele>
        <time>2022-08-27T09:29:46Z</time>
      </trkpt>
      <trkpt lat="49.01075" lon="-1.51461">
        <ele>32.6</ele>
        <time>2022-08-27T09:29:48Z</time>
      </trkpt>
      <trkpt lat="49.01029" lon="-1.51485">
        <ele>33</ele>
        <time>2022-08-27T09:29:56Z</time>
      </trkpt>
      <trkpt lat="49.00985" lon="-1.51508">
        <ele>33</ele>
        <time>2022-08-27T09:30:03Z</time>
      </trkpt>
      <trkpt lat="49.00941" lon="-1.51532">
        <ele>33.2</ele>
        <time>2022-08-27T09:30:10Z</time>
      </trkpt>
      <trkpt lat="49.00888" lon="-1.51569">
        <ele>33.4</ele>
        <time>2022-08-27T09:30:19Z</time>
      </trkpt>
      <trkpt lat="49.00883" lon="-1.51573">
        <ele>33.4</ele>
        <time>2022-08-27T09:30:20Z</time>
      </trkpt>
      <trkpt lat="49.00847" lon="-1.51603">
        <ele>33.6</ele>
        <time>2022-08-27T09:30:27Z</time>
      </trkpt>
      <trkpt lat="49.00799" lon="-1.51651">
        <ele>33.6</ele>
        <time>2022-08-27T09:30:37Z</time>
      </trkpt>
      <trkpt lat="49.00761" lon="-1.51694">
        <ele>33.6</ele>
        <time>2022-08-27T09:30:45Z</time>
      </trkpt>
      <trkpt lat="49.00743" lon="-1.51715">
        <ele>33.6</ele>
        <time>2022-08-27T09:30:49Z</time>
      </trkpt>
      <trkpt lat="49.00729" lon="-1.51732">
        <ele>33.6</ele>
        <time>2022-08-27T09:30:52Z</time>
      </trkpt>
      <trkpt lat="49.00696" lon="-1.5177">
        <ele>33.6</ele>
        <time>2022-08-27T09:30:59Z</time>
      </trkpt>
      <trkpt lat="49.0065" lon="-1.5182">
        <ele>33.6</ele>
        <time>2022-08-27T09:31:08Z</time>
      </trkpt>
      <trkpt lat="49.00614" lon="-1.51856">
        <ele>33.6</ele>
        <time>2022-08-27T09:31:15Z</time>
      </trkpt>
      <trkpt lat="49.00571" lon="-1.51892">
        <ele>33.6</ele>
        <time>2022-08-27T09:31:23Z</time>
      </trkpt>
      <trkpt lat="49.00526" lon="-1.51923">
        <ele>33.6</ele>
        <time>2022-08-27T09:31:31Z</time>
      </trkpt>
      <trkpt lat="49.00472" lon="-1.51951">
        <ele>33.6</ele>
        <time>2022-08-27T09:31:40Z</time>
      </trkpt>
      <trkpt lat="49.0046" lon="-1.51956">
        <ele>33.6</ele>
        <time>2022-08-27T09:31:42Z</time>
      </trkpt>
      <trkpt lat="49.0041" lon="-1.51972">
        <ele>33.8</ele>
        <time>2022-08-27T09:31:50Z</time>
      </trkpt>
      <trkpt lat="49.00354" lon="-1.5199">
        <ele>33.8</ele>
        <time>2022-08-27T09:31:59Z</time>
      </trkpt>
      <trkpt lat="49.00297" lon="-1.52008">
        <ele>34</ele>
        <time>2022-08-27T09:32:08Z</time>
      </trkpt>
      <trkpt lat="49.00291" lon="-1.5201">
        <ele>34</ele>
        <time>2022-08-27T09:32:09Z</time>
      </trkpt>
      <trkpt lat="49.00236" lon="-1.52027">
        <ele>34.2</ele>
        <time>2022-08-27T09:32:18Z</time>
      </trkpt>
      <trkpt lat="49.00229" lon="-1.52028">
        <ele>34.2</ele>
        <time>2022-08-27T09:32:19Z</time>
      </trkpt>
      <trkpt lat="49.00181" lon="-1.52044">
        <ele>34.6</ele>
        <time>2022-08-27T09:32:27Z</time>
      </trkpt>
      <trkpt lat="49.00123" lon="-1.52062">
        <ele>35</ele>
        <time>2022-08-27T09:32:37Z</time>
      </trkpt>
      <trkpt lat="49.00068" lon="-1.52078">
        <ele>35.4</ele>
        <time>2022-08-27T09:32:47Z</time>
      </trkpt>
      <trkpt lat="49.00063" lon="-1.52079">
        <ele>35.4</ele>
        <time>2022-08-27T09:32:48Z</time>
      </trkpt>
      <trkpt lat="49.00025" lon="-1.52092">
        <ele>35.8</ele>
        <time>2022-08-27T09:32:55Z</time>
      </trkpt>
      <trkpt lat="48.9997" lon="-1.52109">
        <ele>36.4</ele>
        <time>2022-08-27T09:33:05Z</time>
      </trkpt>
      <trkpt lat="48.99965" lon="-1.5211">
        <ele>36.4</ele>
        <time>2022-08-27T09:33:06Z</time>
      </trkpt>
      <trkpt lat="48.9992" lon="-1.52123">
        <ele>36.8</ele>
        <time>2022-08-27T09:33:14Z</time>
      </trkpt>
      <trkpt lat="48.99874" lon="-1.52135">
        <ele>37.4</ele>
        <time>2022-08-27T09:33:22Z</time>
      </trkpt>
      <trkpt lat="48.99826" lon="-1.52146">
        <ele>38</ele>
        <time>2022-08-27T09:33:30Z</time>
      </trkpt>
      <trkpt lat="48.99779" lon="-1.52151">
        <ele>38.4</ele>
        <time>2022-08-27T09:33:38Z</time>
      </trkpt>
      <trkpt lat="48.99752" lon="-1.52157">
        <ele>38.6</ele>
        <time>2022-08-27T09:33:43Z</time>
      </trkpt>
      <trkpt lat="48.99742" lon="-1.52163">
        <ele>38.6</ele>
        <time>2022-08-27T09:33:45Z</time>
      </trkpt>
      <trkpt lat="48.99731" lon="-1.52164">
        <ele>38.6</ele>
        <time>2022-08-27T09:33:47Z</time>
      </trkpt>
      <trkpt lat="48.99691" lon="-1.52169">
        <ele>38.8</ele>
        <time>2022-08-27T09:33:53Z</time>
      </trkpt>
      <trkpt lat="48.99646" lon="-1.52173">
        <ele>38.6</ele>
        <time>2022-08-27T09:33:59Z</time>
      </trkpt>
      <trkpt lat="48.99589" lon="-1.52179">
        <ele>38.4</ele>
        <time>2022-08-27T09:34:06Z</time>
      </trkpt>
      <trkpt lat="48.99533" lon="-1.52186">
        <ele>38</ele>
        <time>2022-08-27T09:34:13Z</time>
      </trkpt>
      <trkpt lat="48.99525" lon="-1.52188">
        <ele>37.8</ele>
        <time>2022-08-27T09:34:14Z</time>
      </trkpt>
      <trkpt lat="48.99478" lon="-1.52204">
        <ele>37.4</ele>
        <time>2022-08-27T09:34:20Z</time>
      </trkpt>
      <trkpt lat="48.99427" lon="-1.52223">
        <ele>37</ele>
        <time>2022-08-27T09:34:27Z</time>
      </trkpt>
      <trkpt lat="48.99368" lon="-1.52244">
        <ele>36.8</ele>
        <time>2022-08-27T09:34:35Z</time>
      </trkpt>
      <trkpt lat="48.99361" lon="-1.52247">
        <ele>36.8</ele>
        <time>2022-08-27T09:34:36Z</time>
      </trkpt>
      <trkpt lat="48.99329" lon="-1.52258">
        <ele>36.6</ele>
        <time>2022-08-27T09:34:41Z</time>
      </trkpt>
      <trkpt lat="48.99323" lon="-1.52261">
        <ele>36.6</ele>
        <time>2022-08-27T09:34:42Z</time>
      </trkpt>
      <trkpt lat="48.993" lon="-1.52276">
        <ele>36.4</ele>
        <time>2022-08-27T09:34:46Z</time>
      </trkpt>
      <trkpt lat="48.99289" lon="-1.52282">
        <ele>36.4</ele>
        <time>2022-08-27T09:34:48Z</time>
      </trkpt>
      <trkpt lat="48.9927" lon="-1.52288">
        <ele>36.2</ele>
        <time>2022-08-27T09:34:51Z</time>
      </trkpt>
      <trkpt lat="48.99213" lon="-1.52311">
        <ele>35.8</ele>
        <time>2022-08-27T09:35:00Z</time>
      </trkpt>
      <trkpt lat="48.9917" lon="-1.52334">
        <ele>35.8</ele>
        <time>2022-08-27T09:35:07Z</time>
      </trkpt>
      <trkpt lat="48.99128" lon="-1.52361">
        <ele>35.8</ele>
        <time>2022-08-27T09:35:15Z</time>
      </trkpt>
      <trkpt lat="48.99106" lon="-1.52379">
        <ele>36</ele>
        <time>2022-08-27T09:35:21Z</time>
      </trkpt>
      <trkpt lat="48.99081" lon="-1.52398">
        <ele>36.6</ele>
        <time>2022-08-27T09:35:29Z</time>
      </trkpt>
      <trkpt lat="48.99055" lon="-1.52418">
        <ele>37.4</ele>
        <time>2022-08-27T09:35:38Z</time>
      </trkpt>
      <trkpt lat="48.99035" lon="-1.52435">
        <ele>38.2</ele>
        <time>2022-08-27T09:35:46Z</time>
      </trkpt>
      <trkpt lat="48.99006" lon="-1.5246">
        <ele>39</ele>
        <time>2022-08-27T09:35:57Z</time>
      </trkpt>
      <trkpt lat="48.98991" lon="-1.52471">
        <ele>39.8</ele>
        <time>2022-08-27T09:36:03Z</time>
      </trkpt>
      <trkpt lat="48.98971" lon="-1.52486">
        <ele>40.8</ele>
        <time>2022-08-27T09:36:11Z</time>
      </trkpt>
      <trkpt lat="48.98956" lon="-1.52499">
        <ele>41.8</ele>
        <time>2022-08-27T09:36:18Z</time>
      </trkpt>
      <trkpt lat="48.98944" lon="-1.52506">
        <ele>42.6</ele>
        <time>2022-08-27T09:36:24Z</time>
      </trkpt>
      <trkpt lat="48.9893" lon="-1.52512">
        <ele>43.4</ele>
        <time>2022-08-27T09:36:31Z</time>
      </trkpt>
      <trkpt lat="48.98916" lon="-1.52516">
        <ele>44.2</ele>
        <time>2022-08-27T09:36:37Z</time>
      </trkpt>
      <trkpt lat="48.98896" lon="-1.52519">
        <ele>45.4</ele>
        <time>2022-08-27T09:36:45Z</time>
      </trkpt>
      <trkpt lat="48.98883" lon="-1.52517">
        <ele>46</ele>
        <time>2022-08-27T09:36:51Z</time>
      </trkpt>
      <trkpt lat="48.98883" lon="-1.52516">
        <ele>46.2</ele>
        <time>2022-08-27T09:36:53Z</time>
      </trkpt>
      <trkpt lat="48.98879" lon="-1.52514">
        <ele>46.6</ele>
        <time>2022-08-27T09:36:58Z</time>
      </trkpt>
      <trkpt lat="48.98878" lon="-1.52511">
        <ele>46.6</ele>
        <time>2022-08-27T09:36:59Z</time>
      </trkpt>
      <trkpt lat="48.98882" lon="-1.52493">
        <ele>46.8</ele>
        <time>2022-08-27T09:37:03Z</time>
      </trkpt>
      <trkpt lat="48.98882" lon="-1.52489">
        <ele>47</ele>
        <time>2022-08-27T09:37:04Z</time>
      </trkpt>
      <trkpt lat="48.98881" lon="-1.5248">
        <ele>47</ele>
        <time>2022-08-27T09:37:07Z</time>
      </trkpt>
      <trkpt lat="48.98882" lon="-1.5248">
        <ele>47.2</ele>
        <time>2022-08-27T09:37:09Z</time>
      </trkpt>
      <trkpt lat="48.98896" lon="-1.52462">
        <ele>54.6</ele>
        <time>2022-08-27T09:39:11Z</time>
      </trkpt>
      <trkpt lat="48.98897" lon="-1.52459">
        <ele>54.6</ele>
        <time>2022-08-27T09:39:12Z</time>
      </trkpt>
      <trkpt lat="48.98897" lon="-1.52454">
        <ele>54.4</ele>
        <time>2022-08-27T09:39:14Z</time>
      </trkpt>
      <trkpt lat="48.98897" lon="-1.52449">
        <ele>54.4</ele>
        <time>2022-08-27T09:39:17Z</time>
      </trkpt>
      <trkpt lat="48.98897" lon="-1.52449">
        <ele>54.4</ele>
        <time>2022-08-27T09:39:18Z</time>
      </trkpt>
      <trkpt lat="48.98896" lon="-1.52444">
        <ele>54</ele>
        <time>2022-08-27T09:39:23Z</time>
      </trkpt>
      <trkpt lat="48.98893" lon="-1.52437">
        <ele>54</ele>
        <time>2022-08-27T09:39:25Z</time>
      </trkpt>
      <trkpt lat="48.98892" lon="-1.52432">
        <ele>54</ele>
        <time>2022-08-27T09:39:26Z</time>
      </trkpt>
      <trkpt lat="48.98892" lon="-1.52419">
        <ele>54.2</ele>
        <time>2022-08-27T09:39:29Z</time>
      </trkpt>
      <trkpt lat="48.98892" lon="-1.52394">
        <ele>54.4</ele>
        <time>2022-08-27T09:39:34Z</time>
      </trkpt>
      <trkpt lat="48.98892" lon="-1.52373">
        <ele>54.8</ele>
        <time>2022-08-27T09:39:39Z</time>
      </trkpt>
      <trkpt lat="48.98891" lon="-1.52361">
        <ele>54.8</ele>
        <time>2022-08-27T09:39:42Z</time>
      </trkpt>
      <trkpt lat="48.9889" lon="-1.52352">
        <ele>54.8</ele>
        <time>2022-08-27T09:39:44Z</time>
      </trkpt>
      <trkpt lat="48.98889" lon="-1.52312">
        <ele>54.6</ele>
        <time>2022-08-27T09:39:52Z</time>
      </trkpt>
      <trkpt lat="48.98887" lon="-1.52281">
        <ele>55</ele>
        <time>2022-08-27T09:39:58Z</time>
      </trkpt>
      <trkpt lat="48.98884" lon="-1.52257">
        <ele>54.8</ele>
        <time>2022-08-27T09:40:04Z</time>
      </trkpt>
      <trkpt lat="48.98883" lon="-1.52237">
        <ele>54.8</ele>
        <time>2022-08-27T09:40:10Z</time>
      </trkpt>
      <trkpt lat="48.98883" lon="-1.52236">
        <ele>54.6</ele>
        <time>2022-08-27T09:40:11Z</time>
      </trkpt>
      <trkpt lat="48.98883" lon="-1.52232">
        <ele>54.6</ele>
        <time>2022-08-27T09:40:30Z</time>
      </trkpt>
      <trkpt lat="48.98883" lon="-1.52229">
        <ele>54.8</ele>
        <time>2022-08-27T09:40:31Z</time>
      </trkpt>
      <trkpt lat="48.98882" lon="-1.52204">
        <ele>54.8</ele>
        <time>2022-08-27T09:40:35Z</time>
      </trkpt>
      <trkpt lat="48.9888" lon="-1.52155">
        <ele>54.8</ele>
        <time>2022-08-27T09:40:41Z</time>
      </trkpt>
      <trkpt lat="48.98875" lon="-1.5209">
        <ele>55</ele>
        <time>2022-08-27T09:40:48Z</time>
      </trkpt>
      <trkpt lat="48.98873" lon="-1.5208">
        <ele>54.8</ele>
        <time>2022-08-27T09:40:49Z</time>
      </trkpt>
      <trkpt lat="48.9886" lon="-1.52028">
        <ele>54.6</ele>
        <time>2022-08-27T09:40:55Z</time>
      </trkpt>
      <trkpt lat="48.9884" lon="-1.51977">
        <ele>54.4</ele>
        <time>2022-08-27T09:41:02Z</time>
      </trkpt>
      <trkpt lat="48.98837" lon="-1.51971">
        <ele>54.4</ele>
        <time>2022-08-27T09:41:03Z</time>
      </trkpt>
      <trkpt lat="48.98823" lon="-1.51943">
        <ele>54.2</ele>
        <time>2022-08-27T09:41:07Z</time>
      </trkpt>
      <trkpt lat="48.98821" lon="-1.51928">
        <ele>54.2</ele>
        <time>2022-08-27T09:41:09Z</time>
      </trkpt>
      <trkpt lat="48.9882" lon="-1.5192">
        <ele>54.2</ele>
        <time>2022-08-27T09:41:10Z</time>
      </trkpt>
      <trkpt lat="48.98816" lon="-1.51913">
        <ele>54.2</ele>
        <time>2022-08-27T09:41:11Z</time>
      </trkpt>
      <trkpt lat="48.98812" lon="-1.519">
        <ele>53.8</ele>
        <time>2022-08-27T09:41:13Z</time>
      </trkpt>
      <trkpt lat="48.98815" lon="-1.51886">
        <ele>53.8</ele>
        <time>2022-08-27T09:41:16Z</time>
      </trkpt>
      <trkpt lat="48.98815" lon="-1.51885">
        <ele>53.8</ele>
        <time>2022-08-27T09:41:18Z</time>
      </trkpt>
      <trkpt lat="48.98815" lon="-1.51894">
        <ele>50.8</ele>
        <time>2022-08-27T09:45:55Z</time>
      </trkpt>
      <trkpt lat="48.98816" lon="-1.51896">
        <ele>50.8</ele>
        <time>2022-08-27T09:45:56Z</time>
      </trkpt>
      <trkpt lat="48.98816" lon="-1.51899">
        <ele>50.6</ele>
        <time>2022-08-27T09:45:57Z</time>
      </trkpt>
      <trkpt lat="48.9882" lon="-1.51905">
        <ele>50.2</ele>
        <time>2022-08-27T09:46:01Z</time>
      </trkpt>
      <trkpt lat="48.98826" lon="-1.51919">
        <ele>50</ele>
        <time>2022-08-27T09:46:09Z</time>
      </trkpt>
      <trkpt lat="48.98827" lon="-1.51919">
        <ele>50</ele>
        <time>2022-08-27T09:46:11Z</time>
      </trkpt>
      <trkpt lat="48.9883" lon="-1.51924">
        <ele>50</ele>
        <time>2022-08-27T09:46:15Z</time>
      </trkpt>
      <trkpt lat="48.9883" lon="-1.51928">
        <ele>50</ele>
        <time>2022-08-27T09:46:17Z</time>
      </trkpt>
      <trkpt lat="48.98827" lon="-1.5193">
        <ele>50</ele>
        <time>2022-08-27T09:46:19Z</time>
      </trkpt>
      <trkpt lat="48.98824" lon="-1.51937">
        <ele>50.2</ele>
        <time>2022-08-27T09:46:24Z</time>
      </trkpt>
      <trkpt lat="48.98825" lon="-1.51939">
        <ele>50.2</ele>
        <time>2022-08-27T09:46:25Z</time>
      </trkpt>
      <trkpt lat="48.98835" lon="-1.51959">
        <ele>49.8</ele>
        <time>2022-08-27T09:46:31Z</time>
      </trkpt>
      <trkpt lat="48.98855" lon="-1.51995">
        <ele>49.4</ele>
        <time>2022-08-27T09:46:39Z</time>
      </trkpt>
      <trkpt lat="48.98869" lon="-1.52037">
        <ele>49.2</ele>
        <time>2022-08-27T09:46:46Z</time>
      </trkpt>
      <trkpt lat="48.9888" lon="-1.52089">
        <ele>49.4</ele>
        <time>2022-08-27T09:46:53Z</time>
      </trkpt>
      <trkpt lat="48.98885" lon="-1.52146">
        <ele>50</ele>
        <time>2022-08-27T09:47:00Z</time>
      </trkpt>
      <trkpt lat="48.98889" lon="-1.52202">
        <ele>49.6</ele>
        <time>2022-08-27T09:47:07Z</time>
      </trkpt>
      <trkpt lat="48.9889" lon="-1.52209">
        <ele>49.6</ele>
        <time>2022-08-27T09:47:08Z</time>
      </trkpt>
      <trkpt lat="48.98895" lon="-1.52219">
        <ele>49.6</ele>
        <time>2022-08-27T09:47:10Z</time>
      </trkpt>
      <trkpt lat="48.98901" lon="-1.52219">
        <ele>49.6</ele>
        <time>2022-08-27T09:47:12Z</time>
      </trkpt>
      <trkpt lat="48.98905" lon="-1.52222">
        <ele>49.8</ele>
        <time>2022-08-27T09:47:14Z</time>
      </trkpt>
      <trkpt lat="48.98906" lon="-1.52225">
        <ele>49.8</ele>
        <time>2022-08-27T09:47:16Z</time>
      </trkpt>
      <trkpt lat="48.98906" lon="-1.52225">
        <ele>49.8</ele>
        <time>2022-08-27T09:47:17Z</time>
      </trkpt>
      <trkpt lat="48.98894" lon="-1.52244">
        <ele>42.2</ele>
        <time>2022-08-27T10:16:17Z</time>
      </trkpt>
      <trkpt lat="48.98894" lon="-1.52244">
        <ele>42.2</ele>
        <time>2022-08-27T10:16:18Z</time>
      </trkpt>
      <trkpt lat="48.98884" lon="-1.52253">
        <ele>44.4</ele>
        <time>2022-08-27T10:16:59Z</time>
      </trkpt>
      <trkpt lat="48.98881" lon="-1.52257">
        <ele>44.4</ele>
        <time>2022-08-27T10:17:01Z</time>
      </trkpt>
      <trkpt lat="48.98877" lon="-1.5226">
        <ele>44.8</ele>
        <time>2022-08-27T10:17:04Z</time>
      </trkpt>
      <trkpt lat="48.98876" lon="-1.5226">
        <ele>44.8</ele>
        <time>2022-08-27T10:17:06Z</time>
      </trkpt>
      <trkpt lat="48.98876" lon="-1.5226">
        <ele>44.8</ele>
        <time>2022-08-27T10:17:07Z</time>
      </trkpt>
      <trkpt lat="48.9888" lon="-1.52255">
        <ele>44.8</ele>
        <time>2022-08-27T10:17:18Z</time>
      </trkpt>
      <trkpt lat="48.98884" lon="-1.52255">
        <ele>45</ele>
        <time>2022-08-27T10:17:21Z</time>
      </trkpt>
      <trkpt lat="48.98884" lon="-1.52255">
        <ele>45.2</ele>
        <time>2022-08-27T10:17:23Z</time>
      </trkpt>
      <trkpt lat="48.98887" lon="-1.52257">
        <ele>45.8</ele>
        <time>2022-08-27T10:17:35Z</time>
      </trkpt>
      <trkpt lat="48.98889" lon="-1.5226">
        <ele>45.8</ele>
        <time>2022-08-27T10:17:36Z</time>
      </trkpt>
      <trkpt lat="48.9889" lon="-1.52276">
        <ele>46</ele>
        <time>2022-08-27T10:17:39Z</time>
      </trkpt>
      <trkpt lat="48.98893" lon="-1.52302">
        <ele>46.4</ele>
        <time>2022-08-27T10:17:43Z</time>
      </trkpt>
      <trkpt lat="48.98893" lon="-1.52314">
        <ele>46.6</ele>
        <time>2022-08-27T10:17:45Z</time>
      </trkpt>
      <trkpt lat="48.98895" lon="-1.52348">
        <ele>47</ele>
        <time>2022-08-27T10:17:51Z</time>
      </trkpt>
      <trkpt lat="48.98897" lon="-1.52386">
        <ele>47.4</ele>
        <time>2022-08-27T10:17:58Z</time>
      </trkpt>
      <trkpt lat="48.98897" lon="-1.52434">
        <ele>48</ele>
        <time>2022-08-27T10:18:06Z</time>
      </trkpt>
      <trkpt lat="48.98895" lon="-1.52452">
        <ele>48.2</ele>
        <time>2022-08-27T10:18:09Z</time>
      </trkpt>
      <trkpt lat="48.98892" lon="-1.5247">
        <ele>48.2</ele>
        <time>2022-08-27T10:18:12Z</time>
      </trkpt>
      <trkpt lat="48.98885" lon="-1.52508">
        <ele>48.6</ele>
        <time>2022-08-27T10:18:19Z</time>
      </trkpt>
      <trkpt lat="48.98881" lon="-1.5254">
        <ele>48.8</ele>
        <time>2022-08-27T10:18:24Z</time>
      </trkpt>
      <trkpt lat="48.98879" lon="-1.52554">
        <ele>48.8</ele>
        <time>2022-08-27T10:18:26Z</time>
      </trkpt>
      <trkpt lat="48.98878" lon="-1.52572">
        <ele>49</ele>
        <time>2022-08-27T10:18:29Z</time>
      </trkpt>
      <trkpt lat="48.98877" lon="-1.52576">
        <ele>49</ele>
        <time>2022-08-27T10:18:30Z</time>
      </trkpt>
      <trkpt lat="48.9887" lon="-1.52583">
        <ele>49</ele>
        <time>2022-08-27T10:18:33Z</time>
      </trkpt>
      <trkpt lat="48.98856" lon="-1.52585">
        <ele>48.8</ele>
        <time>2022-08-27T10:18:39Z</time>
      </trkpt>
      <trkpt lat="48.98853" lon="-1.52584">
        <ele>49.2</ele>
        <time>2022-08-27T10:18:43Z</time>
      </trkpt>
      <trkpt lat="48.98853" lon="-1.52578">
        <ele>49</ele>
        <time>2022-08-27T10:18:46Z</time>
      </trkpt>
      <trkpt lat="48.98853" lon="-1.52569">
        <ele>49.2</ele>
        <time>2022-08-27T10:18:48Z</time>
      </trkpt>
      <trkpt lat="48.98851" lon="-1.52564">
        <ele>49.2</ele>
        <time>2022-08-27T10:18:49Z</time>
      </trkpt>
      <trkpt lat="48.98845" lon="-1.52524">
        <ele>49.2</ele>
        <time>2022-08-27T10:18:56Z</time>
      </trkpt>
      <trkpt lat="48.98835" lon="-1.52494">
        <ele>49.4</ele>
        <time>2022-08-27T10:19:02Z</time>
      </trkpt>
      <trkpt lat="48.98822" lon="-1.5247">
        <ele>49.4</ele>
        <time>2022-08-27T10:19:07Z</time>
      </trkpt>
      <trkpt lat="48.98819" lon="-1.52466">
        <ele>49.4</ele>
        <time>2022-08-27T10:19:08Z</time>
      </trkpt>
      <trkpt lat="48.98815" lon="-1.52462">
        <ele>49.4</ele>
        <time>2022-08-27T10:19:09Z</time>
      </trkpt>
      <trkpt lat="48.98808" lon="-1.52456">
        <ele>49.4</ele>
        <time>2022-08-27T10:19:11Z</time>
      </trkpt>
      <trkpt lat="48.98805" lon="-1.52451">
        <ele>49.4</ele>
        <time>2022-08-27T10:19:12Z</time>
      </trkpt>
      <trkpt lat="48.98798" lon="-1.52432">
        <ele>49.6</ele>
        <time>2022-08-27T10:19:15Z</time>
      </trkpt>
      <trkpt lat="48.98792" lon="-1.52422">
        <ele>49.6</ele>
        <time>2022-08-27T10:19:17Z</time>
      </trkpt>
      <trkpt lat="48.9879" lon="-1.52416">
        <ele>49.4</ele>
        <time>2022-08-27T10:19:18Z</time>
      </trkpt>
      <trkpt lat="48.98784" lon="-1.52408">
        <ele>49.6</ele>
        <time>2022-08-27T10:19:20Z</time>
      </trkpt>
      <trkpt lat="48.98779" lon="-1.52407">
        <ele>49.4</ele>
        <time>2022-08-27T10:19:21Z</time>
      </trkpt>
      <trkpt lat="48.98749" lon="-1.52405">
        <ele>49.2</ele>
        <time>2022-08-27T10:19:27Z</time>
      </trkpt>
      <trkpt lat="48.98743" lon="-1.52405">
        <ele>49.2</ele>
        <time>2022-08-27T10:19:28Z</time>
      </trkpt>
      <trkpt lat="48.98713" lon="-1.52404">
        <ele>48.8</ele>
        <time>2022-08-27T10:19:34Z</time>
      </trkpt>
      <trkpt lat="48.98673" lon="-1.52398">
        <ele>48</ele>
        <time>2022-08-27T10:19:41Z</time>
      </trkpt>
      <trkpt lat="48.98643" lon="-1.52392">
        <ele>47.2</ele>
        <time>2022-08-27T10:19:47Z</time>
      </trkpt>
      <trkpt lat="48.98639" lon="-1.52391">
        <ele>47</ele>
        <time>2022-08-27T10:19:49Z</time>
      </trkpt>
      <trkpt lat="48.98637" lon="-1.52383">
        <ele>46.8</ele>
        <time>2022-08-27T10:19:51Z</time>
      </trkpt>
      <trkpt lat="48.98636" lon="-1.52375">
        <ele>46.4</ele>
        <time>2022-08-27T10:19:53Z</time>
      </trkpt>
      <trkpt lat="48.98634" lon="-1.5237">
        <ele>46.4</ele>
        <time>2022-08-27T10:19:54Z</time>
      </trkpt>
      <trkpt lat="48.9863" lon="-1.52367">
        <ele>46.2</ele>
        <time>2022-08-27T10:19:55Z</time>
      </trkpt>
      <trkpt lat="48.9862" lon="-1.52365">
        <ele>46</ele>
        <time>2022-08-27T10:19:57Z</time>
      </trkpt>
      <trkpt lat="48.98587" lon="-1.52364">
        <ele>45.2</ele>
        <time>2022-08-27T10:20:02Z</time>
      </trkpt>
      <trkpt lat="48.98537" lon="-1.52361">
        <ele>44.2</ele>
        <time>2022-08-27T10:20:08Z</time>
      </trkpt>
      <trkpt lat="48.98493" lon="-1.5236">
        <ele>43.2</ele>
        <time>2022-08-27T10:20:13Z</time>
      </trkpt>
      <trkpt lat="48.98465" lon="-1.52363">
        <ele>42.2</ele>
        <time>2022-08-27T10:20:17Z</time>
      </trkpt>
      <trkpt lat="48.9843" lon="-1.52362">
        <ele>41</ele>
        <time>2022-08-27T10:20:22Z</time>
      </trkpt>
      <trkpt lat="48.98399" lon="-1.5236">
        <ele>40</ele>
        <time>2022-08-27T10:20:27Z</time>
      </trkpt>
      <trkpt lat="48.98382" lon="-1.52361">
        <ele>39.4</ele>
        <time>2022-08-27T10:20:30Z</time>
      </trkpt>
      <trkpt lat="48.98372" lon="-1.52362">
        <ele>38.8</ele>
        <time>2022-08-27T10:20:32Z</time>
      </trkpt>
      <trkpt lat="48.9834" lon="-1.52367">
        <ele>37.8</ele>
        <time>2022-08-27T10:20:38Z</time>
      </trkpt>
      <trkpt lat="48.98314" lon="-1.52372">
        <ele>37</ele>
        <time>2022-08-27T10:20:43Z</time>
      </trkpt>
      <trkpt lat="48.98305" lon="-1.52372">
        <ele>36.8</ele>
        <time>2022-08-27T10:20:45Z</time>
      </trkpt>
      <trkpt lat="48.98295" lon="-1.5237">
        <ele>36.6</ele>
        <time>2022-08-27T10:20:47Z</time>
      </trkpt>
      <trkpt lat="48.98259" lon="-1.52354">
        <ele>35.6</ele>
        <time>2022-08-27T10:20:55Z</time>
      </trkpt>
      <trkpt lat="48.98236" lon="-1.52344">
        <ele>35.2</ele>
        <time>2022-08-27T10:21:00Z</time>
      </trkpt>
      <trkpt lat="48.98215" lon="-1.52335">
        <ele>34.6</ele>
        <time>2022-08-27T10:21:05Z</time>
      </trkpt>
      <trkpt lat="48.98188" lon="-1.52326">
        <ele>34.2</ele>
        <time>2022-08-27T10:21:11Z</time>
      </trkpt>
      <trkpt lat="48.98184" lon="-1.52325">
        <ele>34</ele>
        <time>2022-08-27T10:21:12Z</time>
      </trkpt>
      <trkpt lat="48.98161" lon="-1.52317">
        <ele>33.6</ele>
        <time>2022-08-27T10:21:17Z</time>
      </trkpt>
      <trkpt lat="48.98136" lon="-1.52309">
        <ele>33.2</ele>
        <time>2022-08-27T10:21:23Z</time>
      </trkpt>
      <trkpt lat="48.98111" lon="-1.52301">
        <ele>32.8</ele>
        <time>2022-08-27T10:21:29Z</time>
      </trkpt>
      <trkpt lat="48.98097" lon="-1.52298">
        <ele>32.8</ele>
        <time>2022-08-27T10:21:33Z</time>
      </trkpt>
      <trkpt lat="48.98083" lon="-1.52295">
        <ele>32.6</ele>
        <time>2022-08-27T10:21:38Z</time>
      </trkpt>
      <trkpt lat="48.98081" lon="-1.52294">
        <ele>32.6</ele>
        <time>2022-08-27T10:21:39Z</time>
      </trkpt>
      <trkpt lat="48.98079" lon="-1.52288">
        <ele>32.8</ele>
        <time>2022-08-27T10:21:41Z</time>
      </trkpt>
      <trkpt lat="48.98074" lon="-1.5226">
        <ele>33.6</ele>
        <time>2022-08-27T10:21:47Z</time>
      </trkpt>
      <trkpt lat="48.98069" lon="-1.52254">
        <ele>33.2</ele>
        <time>2022-08-27T10:21:49Z</time>
      </trkpt>
      <trkpt lat="48.98066" lon="-1.52253">
        <ele>33.4</ele>
        <time>2022-08-27T10:21:50Z</time>
      </trkpt>
      <trkpt lat="48.98043" lon="-1.52247">
        <ele>33.6</ele>
        <time>2022-08-27T10:21:57Z</time>
      </trkpt>
      <trkpt lat="48.98009" lon="-1.52238">
        <ele>34.2</ele>
        <time>2022-08-27T10:22:06Z</time>
      </trkpt>
      <trkpt lat="48.97978" lon="-1.52231">
        <ele>35</ele>
        <time>2022-08-27T10:22:13Z</time>
      </trkpt>
      <trkpt lat="48.97942" lon="-1.52222">
        <ele>35.6</ele>
        <time>2022-08-27T10:22:20Z</time>
      </trkpt>
      <trkpt lat="48.97937" lon="-1.52222">
        <ele>35.6</ele>
        <time>2022-08-27T10:22:21Z</time>
      </trkpt>
      <trkpt lat="48.97915" lon="-1.52218">
        <ele>35.8</ele>
        <time>2022-08-27T10:22:25Z</time>
      </trkpt>
      <trkpt lat="48.97863" lon="-1.52209">
        <ele>36</ele>
        <time>2022-08-27T10:22:33Z</time>
      </trkpt>
      <trkpt lat="48.97817" lon="-1.52201">
        <ele>36.2</ele>
        <time>2022-08-27T10:22:40Z</time>
      </trkpt>
      <trkpt lat="48.97807" lon="-1.52212">
        <ele>36.2</ele>
        <time>2022-08-27T10:22:42Z</time>
      </trkpt>
      <trkpt lat="48.97803" lon="-1.5223">
        <ele>36.2</ele>
        <time>2022-08-27T10:22:44Z</time>
      </trkpt>
      <trkpt lat="48.978" lon="-1.52237">
        <ele>36.2</ele>
        <time>2022-08-27T10:22:45Z</time>
      </trkpt>
      <trkpt lat="48.97796" lon="-1.5224">
        <ele>36.2</ele>
        <time>2022-08-27T10:22:46Z</time>
      </trkpt>
      <trkpt lat="48.9779" lon="-1.52241">
        <ele>36.2</ele>
        <time>2022-08-27T10:22:47Z</time>
      </trkpt>
      <trkpt lat="48.97757" lon="-1.52234">
        <ele>36.2</ele>
        <time>2022-08-27T10:22:52Z</time>
      </trkpt>
      <trkpt lat="48.97714" lon="-1.52223">
        <ele>35.8</ele>
        <time>2022-08-27T10:22:58Z</time>
      </trkpt>
      <trkpt lat="48.97661" lon="-1.52203">
        <ele>35.4</ele>
        <time>2022-08-27T10:23:05Z</time>
      </trkpt>
      <trkpt lat="48.97602" lon="-1.52182">
        <ele>34.8</ele>
        <time>2022-08-27T10:23:13Z</time>
      </trkpt>
      <trkpt lat="48.97557" lon="-1.52166">
        <ele>34.2</ele>
        <time>2022-08-27T10:23:20Z</time>
      </trkpt>
      <trkpt lat="48.97514" lon="-1.5215">
        <ele>33.8</ele>
        <time>2022-08-27T10:23:27Z</time>
      </trkpt>
      <trkpt lat="48.97495" lon="-1.52145">
        <ele>33.4</ele>
        <time>2022-08-27T10:23:30Z</time>
      </trkpt>
      <trkpt lat="48.97485" lon="-1.52139">
        <ele>33.2</ele>
        <time>2022-08-27T10:23:32Z</time>
      </trkpt>
      <trkpt lat="48.9748" lon="-1.52123">
        <ele>33</ele>
        <time>2022-08-27T10:23:34Z</time>
      </trkpt>
      <trkpt lat="48.97478" lon="-1.52114">
        <ele>33</ele>
        <time>2022-08-27T10:23:35Z</time>
      </trkpt>
      <trkpt lat="48.97474" lon="-1.52096">
        <ele>32.8</ele>
        <time>2022-08-27T10:23:37Z</time>
      </trkpt>
      <trkpt lat="48.97468" lon="-1.5208">
        <ele>32.6</ele>
        <time>2022-08-27T10:23:39Z</time>
      </trkpt>
      <trkpt lat="48.97465" lon="-1.52072">
        <ele>32.6</ele>
        <time>2022-08-27T10:23:40Z</time>
      </trkpt>
      <trkpt lat="48.97446" lon="-1.5204">
        <ele>32.4</ele>
        <time>2022-08-27T10:23:45Z</time>
      </trkpt>
      <trkpt lat="48.97437" lon="-1.52023">
        <ele>32.2</ele>
        <time>2022-08-27T10:23:48Z</time>
      </trkpt>
      <trkpt lat="48.97432" lon="-1.52012">
        <ele>32</ele>
        <time>2022-08-27T10:23:50Z</time>
      </trkpt>
      <trkpt lat="48.97429" lon="-1.52007">
        <ele>32</ele>
        <time>2022-08-27T10:23:51Z</time>
      </trkpt>
      <trkpt lat="48.97417" lon="-1.51984">
        <ele>32</ele>
        <time>2022-08-27T10:23:56Z</time>
      </trkpt>
      <trkpt lat="48.97401" lon="-1.5196">
        <ele>32</ele>
        <time>2022-08-27T10:24:02Z</time>
      </trkpt>
      <trkpt lat="48.9739" lon="-1.51945">
        <ele>32.2</ele>
        <time>2022-08-27T10:24:06Z</time>
      </trkpt>
      <trkpt lat="48.97371" lon="-1.51925">
        <ele>32.8</ele>
        <time>2022-08-27T10:24:12Z</time>
      </trkpt>
      <trkpt lat="48.97352" lon="-1.51909">
        <ele>33.2</ele>
        <time>2022-08-27T10:24:18Z</time>
      </trkpt>
      <trkpt lat="48.97325" lon="-1.51886">
        <ele>33.4</ele>
        <time>2022-08-27T10:24:26Z</time>
      </trkpt>
      <trkpt lat="48.97297" lon="-1.51864">
        <ele>33.6</ele>
        <time>2022-08-27T10:24:34Z</time>
      </trkpt>
      <trkpt lat="48.97279" lon="-1.51848">
        <ele>33.8</ele>
        <time>2022-08-27T10:24:40Z</time>
      </trkpt>
      <trkpt lat="48.9727" lon="-1.5184">
        <ele>34</ele>
        <time>2022-08-27T10:24:43Z</time>
      </trkpt>
      <trkpt lat="48.97263" lon="-1.51834">
        <ele>34</ele>
        <time>2022-08-27T10:24:45Z</time>
      </trkpt>
      <trkpt lat="48.97247" lon="-1.51816">
        <ele>34.2</ele>
        <time>2022-08-27T10:24:51Z</time>
      </trkpt>
      <trkpt lat="48.97232" lon="-1.51804">
        <ele>34.6</ele>
        <time>2022-08-27T10:24:56Z</time>
      </trkpt>
      <trkpt lat="48.97216" lon="-1.51793">
        <ele>34.8</ele>
        <time>2022-08-27T10:25:01Z</time>
      </trkpt>
      <trkpt lat="48.97191" lon="-1.51775">
        <ele>35.2</ele>
        <time>2022-08-27T10:25:08Z</time>
      </trkpt>
      <trkpt lat="48.97169" lon="-1.51758">
        <ele>35.6</ele>
        <time>2022-08-27T10:25:14Z</time>
      </trkpt>
      <trkpt lat="48.97142" lon="-1.51738">
        <ele>36.2</ele>
        <time>2022-08-27T10:25:21Z</time>
      </trkpt>
      <trkpt lat="48.97135" lon="-1.51733">
        <ele>36.2</ele>
        <time>2022-08-27T10:25:23Z</time>
      </trkpt>
      <trkpt lat="48.97126" lon="-1.51731">
        <ele>36.4</ele>
        <time>2022-08-27T10:25:25Z</time>
      </trkpt>
      <trkpt lat="48.97108" lon="-1.51737">
        <ele>36.6</ele>
        <time>2022-08-27T10:25:29Z</time>
      </trkpt>
      <trkpt lat="48.97089" lon="-1.51745">
        <ele>36.8</ele>
        <time>2022-08-27T10:25:33Z</time>
      </trkpt>
      <trkpt lat="48.97085" lon="-1.51747">
        <ele>37</ele>
        <time>2022-08-27T10:25:34Z</time>
      </trkpt>
      <trkpt lat="48.97058" lon="-1.51752">
        <ele>37.4</ele>
        <time>2022-08-27T10:25:39Z</time>
      </trkpt>
      <trkpt lat="48.97041" lon="-1.51755">
        <ele>37.4</ele>
        <time>2022-08-27T10:25:42Z</time>
      </trkpt>
      <trkpt lat="48.97036" lon="-1.51757">
        <ele>37.4</ele>
        <time>2022-08-27T10:25:43Z</time>
      </trkpt>
      <trkpt lat="48.96994" lon="-1.51772">
        <ele>37.6</ele>
        <time>2022-08-27T10:25:50Z</time>
      </trkpt>
      <trkpt lat="48.96965" lon="-1.51778">
        <ele>37.6</ele>
        <time>2022-08-27T10:25:55Z</time>
      </trkpt>
      <trkpt lat="48.96947" lon="-1.51781">
        <ele>37.6</ele>
        <time>2022-08-27T10:25:58Z</time>
      </trkpt>
      <trkpt lat="48.96931" lon="-1.51784">
        <ele>37.6</ele>
        <time>2022-08-27T10:26:01Z</time>
      </trkpt>
      <trkpt lat="48.96916" lon="-1.51786">
        <ele>37.6</ele>
        <time>2022-08-27T10:26:05Z</time>
      </trkpt>
      <trkpt lat="48.96902" lon="-1.51785">
        <ele>37.2</ele>
        <time>2022-08-27T10:26:09Z</time>
      </trkpt>
      <trkpt lat="48.96877" lon="-1.5178">
        <ele>37</ele>
        <time>2022-08-27T10:26:14Z</time>
      </trkpt>
      <trkpt lat="48.96861" lon="-1.51777">
        <ele>36.6</ele>
        <time>2022-08-27T10:26:17Z</time>
      </trkpt>
      <trkpt lat="48.9685" lon="-1.51776">
        <ele>36.4</ele>
        <time>2022-08-27T10:26:19Z</time>
      </trkpt>
      <trkpt lat="48.96839" lon="-1.51774">
        <ele>36.2</ele>
        <time>2022-08-27T10:26:21Z</time>
      </trkpt>
      <trkpt lat="48.96829" lon="-1.51771">
        <ele>36.2</ele>
        <time>2022-08-27T10:26:23Z</time>
      </trkpt>
      <trkpt lat="48.96794" lon="-1.51762">
        <ele>35.8</ele>
        <time>2022-08-27T10:26:30Z</time>
      </trkpt>
      <trkpt lat="48.96779" lon="-1.51757">
        <ele>35.6</ele>
        <time>2022-08-27T10:26:33Z</time>
      </trkpt>
      <trkpt lat="48.96774" lon="-1.51755">
        <ele>35.6</ele>
        <time>2022-08-27T10:26:34Z</time>
      </trkpt>
      <trkpt lat="48.96764" lon="-1.51753">
        <ele>35.6</ele>
        <time>2022-08-27T10:26:36Z</time>
      </trkpt>
      <trkpt lat="48.96758" lon="-1.51753">
        <ele>35.4</ele>
        <time>2022-08-27T10:26:37Z</time>
      </trkpt>
      <trkpt lat="48.96744" lon="-1.51752">
        <ele>35.4</ele>
        <time>2022-08-27T10:26:39Z</time>
      </trkpt>
      <trkpt lat="48.96709" lon="-1.51753">
        <ele>34.6</ele>
        <time>2022-08-27T10:26:45Z</time>
      </trkpt>
      <trkpt lat="48.96703" lon="-1.51754">
        <ele>34.4</ele>
        <time>2022-08-27T10:26:46Z</time>
      </trkpt>
      <trkpt lat="48.96688" lon="-1.51757">
        <ele>33.8</ele>
        <time>2022-08-27T10:26:49Z</time>
      </trkpt>
      <trkpt lat="48.96668" lon="-1.51759">
        <ele>33.4</ele>
        <time>2022-08-27T10:26:53Z</time>
      </trkpt>
      <trkpt lat="48.96651" lon="-1.51762">
        <ele>32.8</ele>
        <time>2022-08-27T10:26:58Z</time>
      </trkpt>
      <trkpt lat="48.96649" lon="-1.51761">
        <ele>32.8</ele>
        <time>2022-08-27T10:26:59Z</time>
      </trkpt>
      <trkpt lat="48.96643" lon="-1.51755">
        <ele>32.4</ele>
        <time>2022-08-27T10:27:02Z</time>
      </trkpt>
      <trkpt lat="48.96639" lon="-1.51751">
        <ele>32.2</ele>
        <time>2022-08-27T10:27:05Z</time>
      </trkpt>
      <trkpt lat="48.96635" lon="-1.51748">
        <ele>32.2</ele>
        <time>2022-08-27T10:27:07Z</time>
      </trkpt>
      <trkpt lat="48.96629" lon="-1.51742">
        <ele>32</ele>
        <time>2022-08-27T10:27:09Z</time>
      </trkpt>
      <trkpt lat="48.96623" lon="-1.51737">
        <ele>31.8</ele>
        <time>2022-08-27T10:27:11Z</time>
      </trkpt>
      <trkpt lat="48.96604" lon="-1.51727">
        <ele>31.2</ele>
        <time>2022-08-27T10:27:17Z</time>
      </trkpt>
      <trkpt lat="48.966" lon="-1.51729">
        <ele>31.2</ele>
        <time>2022-08-27T10:27:18Z</time>
      </trkpt>
      <trkpt lat="48.96595" lon="-1.51738">
        <ele>31</ele>
        <time>2022-08-27T10:27:20Z</time>
      </trkpt>
      <trkpt lat="48.96591" lon="-1.5175">
        <ele>30.8</ele>
        <time>2022-08-27T10:27:22Z</time>
      </trkpt>
      <trkpt lat="48.9659" lon="-1.51763">
        <ele>30.6</ele>
        <time>2022-08-27T10:27:24Z</time>
      </trkpt>
      <trkpt lat="48.96591" lon="-1.5178">
        <ele>30.6</ele>
        <time>2022-08-27T10:27:27Z</time>
      </trkpt>
      <trkpt lat="48.96588" lon="-1.51783">
        <ele>30.4</ele>
        <time>2022-08-27T10:27:28Z</time>
      </trkpt>
      <trkpt lat="48.96578" lon="-1.51787">
        <ele>30.2</ele>
        <time>2022-08-27T10:27:31Z</time>
      </trkpt>
      <trkpt lat="48.9657" lon="-1.51793">
        <ele>29.8</ele>
        <time>2022-08-27T10:27:34Z</time>
      </trkpt>
      <trkpt lat="48.96568" lon="-1.51794">
        <ele>29.6</ele>
        <time>2022-08-27T10:27:35Z</time>
      </trkpt>
      <trkpt lat="48.96552" lon="-1.51806">
        <ele>29</ele>
        <time>2022-08-27T10:27:41Z</time>
      </trkpt>
      <trkpt lat="48.96547" lon="-1.5181">
        <ele>29</ele>
        <time>2022-08-27T10:27:43Z</time>
      </trkpt>
      <trkpt lat="48.96545" lon="-1.51813">
        <ele>28.8</ele>
        <time>2022-08-27T10:27:44Z</time>
      </trkpt>
      <trkpt lat="48.96535" lon="-1.51821">
        <ele>28.4</ele>
        <time>2022-08-27T10:27:48Z</time>
      </trkpt>
      <trkpt lat="48.96533" lon="-1.51824">
        <ele>28.6</ele>
        <time>2022-08-27T10:27:49Z</time>
      </trkpt>
      <trkpt lat="48.96521" lon="-1.51836">
        <ele>28.4</ele>
        <time>2022-08-27T10:27:54Z</time>
      </trkpt>
      <trkpt lat="48.96515" lon="-1.51846">
        <ele>28.6</ele>
        <time>2022-08-27T10:27:58Z</time>
      </trkpt>
      <trkpt lat="48.96513" lon="-1.51852">
        <ele>27.8</ele>
        <time>2022-08-27T10:28:00Z</time>
      </trkpt>
      <trkpt lat="48.96511" lon="-1.51859">
        <ele>28.4</ele>
        <time>2022-08-27T10:28:02Z</time>
      </trkpt>
      <trkpt lat="48.96511" lon="-1.51876">
        <ele>29.4</ele>
        <time>2022-08-27T10:28:06Z</time>
      </trkpt>
      <trkpt lat="48.96513" lon="-1.51894">
        <ele>29.2</ele>
        <time>2022-08-27T10:28:10Z</time>
      </trkpt>
      <trkpt lat="48.96514" lon="-1.51902">
        <ele>29.2</ele>
        <time>2022-08-27T10:28:12Z</time>
      </trkpt>
      <trkpt lat="48.96513" lon="-1.51913">
        <ele>29.4</ele>
        <time>2022-08-27T10:28:14Z</time>
      </trkpt>
      <trkpt lat="48.96514" lon="-1.51916">
        <ele>29.2</ele>
        <time>2022-08-27T10:28:15Z</time>
      </trkpt>
      <trkpt lat="48.96516" lon="-1.51921">
        <ele>29.4</ele>
        <time>2022-08-27T10:28:17Z</time>
      </trkpt>
      <trkpt lat="48.96517" lon="-1.51925">
        <ele>29.2</ele>
        <time>2022-08-27T10:28:18Z</time>
      </trkpt>
      <trkpt lat="48.96519" lon="-1.5195">
        <ele>29.2</ele>
        <time>2022-08-27T10:28:23Z</time>
      </trkpt>
      <trkpt lat="48.96521" lon="-1.51975">
        <ele>29.2</ele>
        <time>2022-08-27T10:28:27Z</time>
      </trkpt>
      <trkpt lat="48.96521" lon="-1.52001">
        <ele>29.8</ele>
        <time>2022-08-27T10:28:31Z</time>
      </trkpt>
      <trkpt lat="48.96522" lon="-1.52016">
        <ele>29.8</ele>
        <time>2022-08-27T10:28:33Z</time>
      </trkpt>
      <trkpt lat="48.96523" lon="-1.52029">
        <ele>30</ele>
        <time>2022-08-27T10:28:35Z</time>
      </trkpt>
      <trkpt lat="48.96523" lon="-1.52035">
        <ele>30</ele>
        <time>2022-08-27T10:28:36Z</time>
      </trkpt>
      <trkpt lat="48.96524" lon="-1.5204">
        <ele>30.2</ele>
        <time>2022-08-27T10:28:37Z</time>
      </trkpt>
      <trkpt lat="48.96525" lon="-1.52054">
        <ele>30.4</ele>
        <time>2022-08-27T10:28:39Z</time>
      </trkpt>
      <trkpt lat="48.96524" lon="-1.52061">
        <ele>30.4</ele>
        <time>2022-08-27T10:28:40Z</time>
      </trkpt>
      <trkpt lat="48.96524" lon="-1.52088">
        <ele>30.6</ele>
        <time>2022-08-27T10:28:44Z</time>
      </trkpt>
      <trkpt lat="48.96522" lon="-1.52094">
        <ele>30.8</ele>
        <time>2022-08-27T10:28:45Z</time>
      </trkpt>
      <trkpt lat="48.96515" lon="-1.521">
        <ele>30.8</ele>
        <time>2022-08-27T10:28:47Z</time>
      </trkpt>
      <trkpt lat="48.96499" lon="-1.52104">
        <ele>31</ele>
        <time>2022-08-27T10:28:51Z</time>
      </trkpt>
      <trkpt lat="48.96476" lon="-1.52109">
        <ele>31.4</ele>
        <time>2022-08-27T10:28:57Z</time>
      </trkpt>
      <trkpt lat="48.96463" lon="-1.52111">
        <ele>31.4</ele>
        <time>2022-08-27T10:29:01Z</time>
      </trkpt>
      <trkpt lat="48.96444" lon="-1.52112">
        <ele>32</ele>
        <time>2022-08-27T10:29:06Z</time>
      </trkpt>
      <trkpt lat="48.96428" lon="-1.52111">
        <ele>32.2</ele>
        <time>2022-08-27T10:29:10Z</time>
      </trkpt>
      <trkpt lat="48.96403" lon="-1.52109">
        <ele>32.4</ele>
        <time>2022-08-27T10:29:15Z</time>
      </trkpt>
      <trkpt lat="48.96372" lon="-1.52108">
        <ele>32.6</ele>
        <time>2022-08-27T10:29:21Z</time>
      </trkpt>
      <trkpt lat="48.96339" lon="-1.52106">
        <ele>33</ele>
        <time>2022-08-27T10:29:28Z</time>
      </trkpt>
      <trkpt lat="48.96307" lon="-1.52103">
        <ele>33.4</ele>
        <time>2022-08-27T10:29:35Z</time>
      </trkpt>
      <trkpt lat="48.96303" lon="-1.52103">
        <ele>33.4</ele>
        <time>2022-08-27T10:29:36Z</time>
      </trkpt>
      <trkpt lat="48.9629" lon="-1.52105">
        <ele>33.6</ele>
        <time>2022-08-27T10:29:39Z</time>
      </trkpt>
      <trkpt lat="48.96286" lon="-1.52106">
        <ele>33.6</ele>
        <time>2022-08-27T10:29:40Z</time>
      </trkpt>
      <trkpt lat="48.96253" lon="-1.5211">
        <ele>34.6</ele>
        <time>2022-08-27T10:29:47Z</time>
      </trkpt>
      <trkpt lat="48.96216" lon="-1.52114">
        <ele>35</ele>
        <time>2022-08-27T10:29:54Z</time>
      </trkpt>
      <trkpt lat="48.96167" lon="-1.5212">
        <ele>35.6</ele>
        <time>2022-08-27T10:30:02Z</time>
      </trkpt>
      <trkpt lat="48.96117" lon="-1.52119">
        <ele>36</ele>
        <time>2022-08-27T10:30:10Z</time>
      </trkpt>
      <trkpt lat="48.96068" lon="-1.52121">
        <ele>36.2</ele>
        <time>2022-08-27T10:30:17Z</time>
      </trkpt>
      <trkpt lat="48.96012" lon="-1.52132">
        <ele>36.2</ele>
        <time>2022-08-27T10:30:25Z</time>
      </trkpt>
      <trkpt lat="48.95965" lon="-1.52137">
        <ele>36.6</ele>
        <time>2022-08-27T10:30:32Z</time>
      </trkpt>
      <trkpt lat="48.95914" lon="-1.52136">
        <ele>37</ele>
        <time>2022-08-27T10:30:41Z</time>
      </trkpt>
      <trkpt lat="48.95864" lon="-1.52135">
        <ele>37.4</ele>
        <time>2022-08-27T10:30:50Z</time>
      </trkpt>
      <trkpt lat="48.95829" lon="-1.52127">
        <ele>37.6</ele>
        <time>2022-08-27T10:30:56Z</time>
      </trkpt>
      <trkpt lat="48.95787" lon="-1.52105">
        <ele>37.6</ele>
        <time>2022-08-27T10:31:03Z</time>
      </trkpt>
      <trkpt lat="48.9575" lon="-1.52083">
        <ele>37.4</ele>
        <time>2022-08-27T10:31:08Z</time>
      </trkpt>
      <trkpt lat="48.95704" lon="-1.52066">
        <ele>37</ele>
        <time>2022-08-27T10:31:13Z</time>
      </trkpt>
      <trkpt lat="48.95643" lon="-1.52061">
        <ele>36.2</ele>
        <time>2022-08-27T10:31:19Z</time>
      </trkpt>
      <trkpt lat="48.95583" lon="-1.52062">
        <ele>35.6</ele>
        <time>2022-08-27T10:31:25Z</time>
      </trkpt>
      <trkpt lat="48.95566" lon="-1.52065">
        <ele>35.6</ele>
        <time>2022-08-27T10:31:27Z</time>
      </trkpt>
      <trkpt lat="48.95551" lon="-1.52073">
        <ele>35.6</ele>
        <time>2022-08-27T10:31:29Z</time>
      </trkpt>
      <trkpt lat="48.95537" lon="-1.5208">
        <ele>35.4</ele>
        <time>2022-08-27T10:31:31Z</time>
      </trkpt>
      <trkpt lat="48.95518" lon="-1.52095">
        <ele>35.2</ele>
        <time>2022-08-27T10:31:34Z</time>
      </trkpt>
      <trkpt lat="48.95477" lon="-1.52127">
        <ele>35</ele>
        <time>2022-08-27T10:31:41Z</time>
      </trkpt>
      <trkpt lat="48.95443" lon="-1.52151">
        <ele>34.8</ele>
        <time>2022-08-27T10:31:47Z</time>
      </trkpt>
      <trkpt lat="48.95421" lon="-1.52162">
        <ele>34.8</ele>
        <time>2022-08-27T10:31:51Z</time>
      </trkpt>
      <trkpt lat="48.954" lon="-1.52171">
        <ele>34.6</ele>
        <time>2022-08-27T10:31:55Z</time>
      </trkpt>
      <trkpt lat="48.9539" lon="-1.52176">
        <ele>34.6</ele>
        <time>2022-08-27T10:31:57Z</time>
      </trkpt>
      <trkpt lat="48.9538" lon="-1.52183">
        <ele>34.6</ele>
        <time>2022-08-27T10:31:59Z</time>
      </trkpt>
      <trkpt lat="48.95375" lon="-1.52187">
        <ele>34.6</ele>
        <time>2022-08-27T10:32:00Z</time>
      </trkpt>
      <trkpt lat="48.95371" lon="-1.52192">
        <ele>34.6</ele>
        <time>2022-08-27T10:32:01Z</time>
      </trkpt>
      <trkpt lat="48.95354" lon="-1.52213">
        <ele>34.4</ele>
        <time>2022-08-27T10:32:05Z</time>
      </trkpt>
      <trkpt lat="48.9535" lon="-1.52218">
        <ele>34.4</ele>
        <time>2022-08-27T10:32:06Z</time>
      </trkpt>
      <trkpt lat="48.95343" lon="-1.52229">
        <ele>34.2</ele>
        <time>2022-08-27T10:32:08Z</time>
      </trkpt>
      <trkpt lat="48.95339" lon="-1.52234">
        <ele>34.2</ele>
        <time>2022-08-27T10:32:09Z</time>
      </trkpt>
      <trkpt lat="48.95311" lon="-1.52268">
        <ele>33.8</ele>
        <time>2022-08-27T10:32:15Z</time>
      </trkpt>
      <trkpt lat="48.95292" lon="-1.52293">
        <ele>33.6</ele>
        <time>2022-08-27T10:32:19Z</time>
      </trkpt>
      <trkpt lat="48.95282" lon="-1.52309">
        <ele>33.4</ele>
        <time>2022-08-27T10:32:21Z</time>
      </trkpt>
      <trkpt lat="48.95278" lon="-1.52317">
        <ele>33.4</ele>
        <time>2022-08-27T10:32:22Z</time>
      </trkpt>
      <trkpt lat="48.95273" lon="-1.52325">
        <ele>33.2</ele>
        <time>2022-08-27T10:32:23Z</time>
      </trkpt>
      <trkpt lat="48.95267" lon="-1.5233">
        <ele>33.2</ele>
        <time>2022-08-27T10:32:24Z</time>
      </trkpt>
      <trkpt lat="48.95261" lon="-1.52332">
        <ele>33</ele>
        <time>2022-08-27T10:32:25Z</time>
      </trkpt>
      <trkpt lat="48.95247" lon="-1.52327">
        <ele>32.8</ele>
        <time>2022-08-27T10:32:27Z</time>
      </trkpt>
      <trkpt lat="48.95214" lon="-1.52321">
        <ele>32</ele>
        <time>2022-08-27T10:32:31Z</time>
      </trkpt>
      <trkpt lat="48.95188" lon="-1.52324">
        <ele>31.6</ele>
        <time>2022-08-27T10:32:34Z</time>
      </trkpt>
      <trkpt lat="48.9518" lon="-1.52324">
        <ele>31.4</ele>
        <time>2022-08-27T10:32:35Z</time>
      </trkpt>
      <trkpt lat="48.95172" lon="-1.52323">
        <ele>31.2</ele>
        <time>2022-08-27T10:32:36Z</time>
      </trkpt>
      <trkpt lat="48.9515" lon="-1.52316">
        <ele>30.6</ele>
        <time>2022-08-27T10:32:39Z</time>
      </trkpt>
      <trkpt lat="48.95119" lon="-1.52308">
        <ele>30</ele>
        <time>2022-08-27T10:32:44Z</time>
      </trkpt>
      <trkpt lat="48.95103" lon="-1.52306">
        <ele>29.6</ele>
        <time>2022-08-27T10:32:48Z</time>
      </trkpt>
      <trkpt lat="48.95101" lon="-1.52307">
        <ele>29.6</ele>
        <time>2022-08-27T10:32:49Z</time>
      </trkpt>
      <trkpt lat="48.95092" lon="-1.52311">
        <ele>29.6</ele>
        <time>2022-08-27T10:32:52Z</time>
      </trkpt>
      <trkpt lat="48.95067" lon="-1.52313">
        <ele>29.4</ele>
        <time>2022-08-27T10:32:58Z</time>
      </trkpt>
      <trkpt lat="48.95063" lon="-1.52313">
        <ele>29.4</ele>
        <time>2022-08-27T10:32:59Z</time>
      </trkpt>
      <trkpt lat="48.95055" lon="-1.52313">
        <ele>29.4</ele>
        <time>2022-08-27T10:33:01Z</time>
      </trkpt>
      <trkpt lat="48.9505" lon="-1.52313">
        <ele>29.4</ele>
        <time>2022-08-27T10:33:02Z</time>
      </trkpt>
      <trkpt lat="48.95024" lon="-1.52315">
        <ele>29.4</ele>
        <time>2022-08-27T10:33:08Z</time>
      </trkpt>
      <trkpt lat="48.95002" lon="-1.52312">
        <ele>29</ele>
        <time>2022-08-27T10:33:13Z</time>
      </trkpt>
      <trkpt lat="48.94997" lon="-1.52312">
        <ele>28.8</ele>
        <time>2022-08-27T10:33:14Z</time>
      </trkpt>
      <trkpt lat="48.94992" lon="-1.52314">
        <ele>29.4</ele>
        <time>2022-08-27T10:33:15Z</time>
      </trkpt>
      <trkpt lat="48.94984" lon="-1.52322">
        <ele>29.2</ele>
        <time>2022-08-27T10:33:17Z</time>
      </trkpt>
      <trkpt lat="48.94982" lon="-1.52328">
        <ele>29.2</ele>
        <time>2022-08-27T10:33:18Z</time>
      </trkpt>
      <trkpt lat="48.9497" lon="-1.52362">
        <ele>29.2</ele>
        <time>2022-08-27T10:33:23Z</time>
      </trkpt>
      <trkpt lat="48.94968" lon="-1.5237">
        <ele>29.2</ele>
        <time>2022-08-27T10:33:24Z</time>
      </trkpt>
      <trkpt lat="48.94966" lon="-1.52378">
        <ele>29.2</ele>
        <time>2022-08-27T10:33:25Z</time>
      </trkpt>
      <trkpt lat="48.94953" lon="-1.52417">
        <ele>29</ele>
        <time>2022-08-27T10:33:30Z</time>
      </trkpt>
      <trkpt lat="48.94939" lon="-1.52467">
        <ele>28.8</ele>
        <time>2022-08-27T10:33:36Z</time>
      </trkpt>
      <trkpt lat="48.94936" lon="-1.52474">
        <ele>28.8</ele>
        <time>2022-08-27T10:33:37Z</time>
      </trkpt>
      <trkpt lat="48.94917" lon="-1.52531">
        <ele>28.8</ele>
        <time>2022-08-27T10:33:44Z</time>
      </trkpt>
      <trkpt lat="48.94907" lon="-1.52563">
        <ele>28.8</ele>
        <time>2022-08-27T10:33:48Z</time>
      </trkpt>
      <trkpt lat="48.94903" lon="-1.52589">
        <ele>28.6</ele>
        <time>2022-08-27T10:33:51Z</time>
      </trkpt>
      <trkpt lat="48.94902" lon="-1.52605">
        <ele>28.6</ele>
        <time>2022-08-27T10:33:53Z</time>
      </trkpt>
      <trkpt lat="48.94902" lon="-1.52616">
        <ele>28.6</ele>
        <time>2022-08-27T10:33:55Z</time>
      </trkpt>
      <trkpt lat="48.949" lon="-1.5262">
        <ele>28.4</ele>
        <time>2022-08-27T10:33:56Z</time>
      </trkpt>
      <trkpt lat="48.94893" lon="-1.52623">
        <ele>28.4</ele>
        <time>2022-08-27T10:33:58Z</time>
      </trkpt>
      <trkpt lat="48.9487" lon="-1.52613">
        <ele>28.2</ele>
        <time>2022-08-27T10:34:02Z</time>
      </trkpt>
      <trkpt lat="48.94816" lon="-1.52597">
        <ele>28</ele>
        <time>2022-08-27T10:34:10Z</time>
      </trkpt>
      <trkpt lat="48.94763" lon="-1.52579">
        <ele>27.6</ele>
        <time>2022-08-27T10:34:18Z</time>
      </trkpt>
      <trkpt lat="48.94718" lon="-1.52563">
        <ele>27</ele>
        <time>2022-08-27T10:34:24Z</time>
      </trkpt>
      <trkpt lat="48.94672" lon="-1.52556">
        <ele>26.6</ele>
        <time>2022-08-27T10:34:30Z</time>
      </trkpt>
      <trkpt lat="48.94664" lon="-1.52556">
        <ele>26.6</ele>
        <time>2022-08-27T10:34:31Z</time>
      </trkpt>
      <trkpt lat="48.94627" lon="-1.52564">
        <ele>26.6</ele>
        <time>2022-08-27T10:34:36Z</time>
      </trkpt>
      <trkpt lat="48.94586" lon="-1.52583">
        <ele>26.6</ele>
        <time>2022-08-27T10:34:42Z</time>
      </trkpt>
      <trkpt lat="48.94554" lon="-1.52604">
        <ele>26.4</ele>
        <time>2022-08-27T10:34:48Z</time>
      </trkpt>
      <trkpt lat="48.94539" lon="-1.52613">
        <ele>26.2</ele>
        <time>2022-08-27T10:34:52Z</time>
      </trkpt>
      <trkpt lat="48.94519" lon="-1.52617">
        <ele>26</ele>
        <time>2022-08-27T10:34:56Z</time>
      </trkpt>
      <trkpt lat="48.9449" lon="-1.52616">
        <ele>25.8</ele>
        <time>2022-08-27T10:35:01Z</time>
      </trkpt>
      <trkpt lat="48.94479" lon="-1.52608">
        <ele>25.8</ele>
        <time>2022-08-27T10:35:03Z</time>
      </trkpt>
      <trkpt lat="48.94475" lon="-1.52602">
        <ele>25.8</ele>
        <time>2022-08-27T10:35:04Z</time>
      </trkpt>
      <trkpt lat="48.94471" lon="-1.52594">
        <ele>25.8</ele>
        <time>2022-08-27T10:35:05Z</time>
      </trkpt>
      <trkpt lat="48.94461" lon="-1.52564">
        <ele>26</ele>
        <time>2022-08-27T10:35:09Z</time>
      </trkpt>
      <trkpt lat="48.94437" lon="-1.52508">
        <ele>26.4</ele>
        <time>2022-08-27T10:35:18Z</time>
      </trkpt>
      <trkpt lat="48.94416" lon="-1.52466">
        <ele>26.8</ele>
        <time>2022-08-27T10:35:26Z</time>
      </trkpt>
      <trkpt lat="48.94397" lon="-1.52428">
        <ele>27.6</ele>
        <time>2022-08-27T10:35:34Z</time>
      </trkpt>
      <trkpt lat="48.94379" lon="-1.52398">
        <ele>28.2</ele>
        <time>2022-08-27T10:35:41Z</time>
      </trkpt>
      <trkpt lat="48.94363" lon="-1.52358">
        <ele>28.8</ele>
        <time>2022-08-27T10:35:49Z</time>
      </trkpt>
      <trkpt lat="48.9435" lon="-1.52328">
        <ele>29.4</ele>
        <time>2022-08-27T10:35:55Z</time>
      </trkpt>
      <trkpt lat="48.94339" lon="-1.523">
        <ele>30</ele>
        <time>2022-08-27T10:36:01Z</time>
      </trkpt>
      <trkpt lat="48.94328" lon="-1.52271">
        <ele>30.8</ele>
        <time>2022-08-27T10:36:08Z</time>
      </trkpt>
      <trkpt lat="48.94323" lon="-1.52266">
        <ele>31</ele>
        <time>2022-08-27T10:36:10Z</time>
      </trkpt>
      <trkpt lat="48.94317" lon="-1.52267">
        <ele>31.2</ele>
        <time>2022-08-27T10:36:12Z</time>
      </trkpt>
      <trkpt lat="48.94307" lon="-1.52285">
        <ele>31.6</ele>
        <time>2022-08-27T10:36:16Z</time>
      </trkpt>
      <trkpt lat="48.94292" lon="-1.52325">
        <ele>32.2</ele>
        <time>2022-08-27T10:36:23Z</time>
      </trkpt>
      <trkpt lat="48.94274" lon="-1.52375">
        <ele>32.6</ele>
        <time>2022-08-27T10:36:30Z</time>
      </trkpt>
      <trkpt lat="48.94251" lon="-1.52439">
        <ele>33</ele>
        <time>2022-08-27T10:36:38Z</time>
      </trkpt>
      <trkpt lat="48.94226" lon="-1.52508">
        <ele>33.2</ele>
        <time>2022-08-27T10:36:46Z</time>
      </trkpt>
      <trkpt lat="48.94201" lon="-1.52588">
        <ele>33.4</ele>
        <time>2022-08-27T10:36:55Z</time>
      </trkpt>
      <trkpt lat="48.94199" lon="-1.52597">
        <ele>33.6</ele>
        <time>2022-08-27T10:36:56Z</time>
      </trkpt>
      <trkpt lat="48.94197" lon="-1.52606">
        <ele>33.6</ele>
        <time>2022-08-27T10:36:57Z</time>
      </trkpt>
      <trkpt lat="48.94192" lon="-1.52665">
        <ele>33.8</ele>
        <time>2022-08-27T10:37:03Z</time>
      </trkpt>
      <trkpt lat="48.9419" lon="-1.52685">
        <ele>33.8</ele>
        <time>2022-08-27T10:37:05Z</time>
      </trkpt>
      <trkpt lat="48.94185" lon="-1.52691">
        <ele>33.6</ele>
        <time>2022-08-27T10:37:06Z</time>
      </trkpt>
      <trkpt lat="48.9417" lon="-1.52689">
        <ele>33.6</ele>
        <time>2022-08-27T10:37:09Z</time>
      </trkpt>
      <trkpt lat="48.94129" lon="-1.52687">
        <ele>33.6</ele>
        <time>2022-08-27T10:37:17Z</time>
      </trkpt>
      <trkpt lat="48.94074" lon="-1.52674">
        <ele>34</ele>
        <time>2022-08-27T10:37:27Z</time>
      </trkpt>
      <trkpt lat="48.94036" lon="-1.52661">
        <ele>34</ele>
        <time>2022-08-27T10:37:34Z</time>
      </trkpt>
      <trkpt lat="48.93983" lon="-1.52643">
        <ele>34.4</ele>
        <time>2022-08-27T10:37:44Z</time>
      </trkpt>
      <trkpt lat="48.93928" lon="-1.52622">
        <ele>34.6</ele>
        <time>2022-08-27T10:37:54Z</time>
      </trkpt>
      <trkpt lat="48.93881" lon="-1.526">
        <ele>34.4</ele>
        <time>2022-08-27T10:38:01Z</time>
      </trkpt>
      <trkpt lat="48.93833" lon="-1.52577">
        <ele>33.8</ele>
        <time>2022-08-27T10:38:07Z</time>
      </trkpt>
      <trkpt lat="48.93772" lon="-1.52554">
        <ele>32.8</ele>
        <time>2022-08-27T10:38:14Z</time>
      </trkpt>
      <trkpt lat="48.93717" lon="-1.52535">
        <ele>31.8</ele>
        <time>2022-08-27T10:38:20Z</time>
      </trkpt>
      <trkpt lat="48.93698" lon="-1.52528">
        <ele>31.4</ele>
        <time>2022-08-27T10:38:22Z</time>
      </trkpt>
      <trkpt lat="48.9364" lon="-1.5251">
        <ele>30.2</ele>
        <time>2022-08-27T10:38:28Z</time>
      </trkpt>
      <trkpt lat="48.93614" lon="-1.525">
        <ele>29.8</ele>
        <time>2022-08-27T10:38:31Z</time>
      </trkpt>
      <trkpt lat="48.93607" lon="-1.52498">
        <ele>29.4</ele>
        <time>2022-08-27T10:38:32Z</time>
      </trkpt>
      <trkpt lat="48.93596" lon="-1.52505">
        <ele>29</ele>
        <time>2022-08-27T10:38:34Z</time>
      </trkpt>
      <trkpt lat="48.93592" lon="-1.52523">
        <ele>28.6</ele>
        <time>2022-08-27T10:38:36Z</time>
      </trkpt>
      <trkpt lat="48.93587" lon="-1.52596">
        <ele>27.8</ele>
        <time>2022-08-27T10:38:43Z</time>
      </trkpt>
      <trkpt lat="48.93577" lon="-1.52642">
        <ele>27.4</ele>
        <time>2022-08-27T10:38:48Z</time>
      </trkpt>
      <trkpt lat="48.93572" lon="-1.52662">
        <ele>26.8</ele>
        <time>2022-08-27T10:38:52Z</time>
      </trkpt>
      <trkpt lat="48.93568" lon="-1.52674">
        <ele>26.4</ele>
        <time>2022-08-27T10:38:57Z</time>
      </trkpt>
      <trkpt lat="48.93561" lon="-1.52683">
        <ele>25.8</ele>
        <time>2022-08-27T10:39:00Z</time>
      </trkpt>
      <trkpt lat="48.93553" lon="-1.52697">
        <ele>25.2</ele>
        <time>2022-08-27T10:39:03Z</time>
      </trkpt>
      <trkpt lat="48.93546" lon="-1.52709">
        <ele>25</ele>
        <time>2022-08-27T10:39:05Z</time>
      </trkpt>
      <trkpt lat="48.93521" lon="-1.52752">
        <ele>24</ele>
        <time>2022-08-27T10:39:11Z</time>
      </trkpt>
      <trkpt lat="48.935" lon="-1.5279">
        <ele>23.4</ele>
        <time>2022-08-27T10:39:16Z</time>
      </trkpt>
      <trkpt lat="48.9349" lon="-1.52803">
        <ele>23</ele>
        <time>2022-08-27T10:39:18Z</time>
      </trkpt>
      <trkpt lat="48.9346" lon="-1.52825">
        <ele>22.4</ele>
        <time>2022-08-27T10:39:23Z</time>
      </trkpt>
      <trkpt lat="48.93454" lon="-1.52831">
        <ele>22.2</ele>
        <time>2022-08-27T10:39:24Z</time>
      </trkpt>
      <trkpt lat="48.93444" lon="-1.52844">
        <ele>22</ele>
        <time>2022-08-27T10:39:26Z</time>
      </trkpt>
      <trkpt lat="48.9344" lon="-1.52852">
        <ele>21.8</ele>
        <time>2022-08-27T10:39:27Z</time>
      </trkpt>
      <trkpt lat="48.93436" lon="-1.52861">
        <ele>21.6</ele>
        <time>2022-08-27T10:39:28Z</time>
      </trkpt>
      <trkpt lat="48.93429" lon="-1.52879">
        <ele>21.4</ele>
        <time>2022-08-27T10:39:30Z</time>
      </trkpt>
      <trkpt lat="48.93427" lon="-1.52889">
        <ele>21.2</ele>
        <time>2022-08-27T10:39:31Z</time>
      </trkpt>
      <trkpt lat="48.93413" lon="-1.52946">
        <ele>20.4</ele>
        <time>2022-08-27T10:39:37Z</time>
      </trkpt>
      <trkpt lat="48.93386" lon="-1.53007">
        <ele>19.6</ele>
        <time>2022-08-27T10:39:44Z</time>
      </trkpt>
      <trkpt lat="48.93349" lon="-1.53072">
        <ele>18.8</ele>
        <time>2022-08-27T10:39:52Z</time>
      </trkpt>
      <trkpt lat="48.93322" lon="-1.53123">
        <ele>18</ele>
        <time>2022-08-27T10:39:58Z</time>
      </trkpt>
      <trkpt lat="48.93293" lon="-1.53185">
        <ele>17.4</ele>
        <time>2022-08-27T10:40:05Z</time>
      </trkpt>
      <trkpt lat="48.93287" lon="-1.53203">
        <ele>17.4</ele>
        <time>2022-08-27T10:40:07Z</time>
      </trkpt>
      <trkpt lat="48.9328" lon="-1.53222">
        <ele>17.4</ele>
        <time>2022-08-27T10:40:09Z</time>
      </trkpt>
      <trkpt lat="48.93272" lon="-1.53241">
        <ele>17.4</ele>
        <time>2022-08-27T10:40:11Z</time>
      </trkpt>
      <trkpt lat="48.93266" lon="-1.53247">
        <ele>17.2</ele>
        <time>2022-08-27T10:40:12Z</time>
      </trkpt>
      <trkpt lat="48.93247" lon="-1.53264">
        <ele>16.8</ele>
        <time>2022-08-27T10:40:15Z</time>
      </trkpt>
      <trkpt lat="48.93231" lon="-1.53286">
        <ele>16.4</ele>
        <time>2022-08-27T10:40:18Z</time>
      </trkpt>
      <trkpt lat="48.93206" lon="-1.53335">
        <ele>16</ele>
        <time>2022-08-27T10:40:24Z</time>
      </trkpt>
      <trkpt lat="48.93182" lon="-1.53373">
        <ele>15.6</ele>
        <time>2022-08-27T10:40:29Z</time>
      </trkpt>
      <trkpt lat="48.93151" lon="-1.53417">
        <ele>15.4</ele>
        <time>2022-08-27T10:40:35Z</time>
      </trkpt>
      <trkpt lat="48.93146" lon="-1.53425">
        <ele>15.2</ele>
        <time>2022-08-27T10:40:36Z</time>
      </trkpt>
      <trkpt lat="48.93112" lon="-1.5348">
        <ele>14.8</ele>
        <time>2022-08-27T10:40:43Z</time>
      </trkpt>
      <trkpt lat="48.93089" lon="-1.53514">
        <ele>14.4</ele>
        <time>2022-08-27T10:40:48Z</time>
      </trkpt>
      <trkpt lat="48.93083" lon="-1.5352">
        <ele>14.2</ele>
        <time>2022-08-27T10:40:49Z</time>
      </trkpt>
      <trkpt lat="48.93071" lon="-1.5353">
        <ele>14</ele>
        <time>2022-08-27T10:40:51Z</time>
      </trkpt>
      <trkpt lat="48.93064" lon="-1.53532">
        <ele>13.8</ele>
        <time>2022-08-27T10:40:52Z</time>
      </trkpt>
      <trkpt lat="48.93015" lon="-1.53534">
        <ele>13.8</ele>
        <time>2022-08-27T10:40:59Z</time>
      </trkpt>
      <trkpt lat="48.92961" lon="-1.53535">
        <ele>13.4</ele>
        <time>2022-08-27T10:41:07Z</time>
      </trkpt>
      <trkpt lat="48.92955" lon="-1.53535">
        <ele>13.4</ele>
        <time>2022-08-27T10:41:08Z</time>
      </trkpt>
      <trkpt lat="48.92904" lon="-1.5354">
        <ele>13.4</ele>
        <time>2022-08-27T10:41:16Z</time>
      </trkpt>
      <trkpt lat="48.9285" lon="-1.53543">
        <ele>13.2</ele>
        <time>2022-08-27T10:41:24Z</time>
      </trkpt>
      <trkpt lat="48.92797" lon="-1.53552">
        <ele>12.8</ele>
        <time>2022-08-27T10:41:32Z</time>
      </trkpt>
      <trkpt lat="48.92746" lon="-1.53561">
        <ele>12.8</ele>
        <time>2022-08-27T10:41:40Z</time>
      </trkpt>
      <trkpt lat="48.92697" lon="-1.53571">
        <ele>12.6</ele>
        <time>2022-08-27T10:41:48Z</time>
      </trkpt>
      <trkpt lat="48.92667" lon="-1.53591">
        <ele>12.6</ele>
        <time>2022-08-27T10:41:53Z</time>
      </trkpt>
      <trkpt lat="48.92644" lon="-1.53606">
        <ele>12.4</ele>
        <time>2022-08-27T10:41:57Z</time>
      </trkpt>
      <trkpt lat="48.92632" lon="-1.53609">
        <ele>12.4</ele>
        <time>2022-08-27T10:41:59Z</time>
      </trkpt>
      <trkpt lat="48.92619" lon="-1.53607">
        <ele>12.4</ele>
        <time>2022-08-27T10:42:01Z</time>
      </trkpt>
      <trkpt lat="48.92607" lon="-1.53602">
        <ele>12.4</ele>
        <time>2022-08-27T10:42:03Z</time>
      </trkpt>
      <trkpt lat="48.92596" lon="-1.53598">
        <ele>12.4</ele>
        <time>2022-08-27T10:42:05Z</time>
      </trkpt>
      <trkpt lat="48.92585" lon="-1.53603">
        <ele>12.2</ele>
        <time>2022-08-27T10:42:07Z</time>
      </trkpt>
      <trkpt lat="48.92576" lon="-1.53614">
        <ele>12.2</ele>
        <time>2022-08-27T10:42:09Z</time>
      </trkpt>
      <trkpt lat="48.92568" lon="-1.53629">
        <ele>12.2</ele>
        <time>2022-08-27T10:42:11Z</time>
      </trkpt>
      <trkpt lat="48.9253" lon="-1.53689">
        <ele>12.2</ele>
        <time>2022-08-27T10:42:19Z</time>
      </trkpt>
      <trkpt lat="48.92496" lon="-1.53756">
        <ele>12.2</ele>
        <time>2022-08-27T10:42:27Z</time>
      </trkpt>
      <trkpt lat="48.92463" lon="-1.53831">
        <ele>12</ele>
        <time>2022-08-27T10:42:35Z</time>
      </trkpt>
      <trkpt lat="48.92434" lon="-1.53909">
        <ele>12</ele>
        <time>2022-08-27T10:42:43Z</time>
      </trkpt>
      <trkpt lat="48.9243" lon="-1.53918">
        <ele>12</ele>
        <time>2022-08-27T10:42:44Z</time>
      </trkpt>
      <trkpt lat="48.92402" lon="-1.53994">
        <ele>11.8</ele>
        <time>2022-08-27T10:42:52Z</time>
      </trkpt>
      <trkpt lat="48.92394" lon="-1.54014">
        <ele>11.8</ele>
        <time>2022-08-27T10:42:54Z</time>
      </trkpt>
      <trkpt lat="48.92382" lon="-1.54053">
        <ele>11.8</ele>
        <time>2022-08-27T10:42:58Z</time>
      </trkpt>
      <trkpt lat="48.92377" lon="-1.54074">
        <ele>11.8</ele>
        <time>2022-08-27T10:43:00Z</time>
      </trkpt>
      <trkpt lat="48.92366" lon="-1.54115">
        <ele>11.8</ele>
        <time>2022-08-27T10:43:04Z</time>
      </trkpt>
      <trkpt lat="48.92362" lon="-1.54124">
        <ele>11.8</ele>
        <time>2022-08-27T10:43:05Z</time>
      </trkpt>
      <trkpt lat="48.92355" lon="-1.5413">
        <ele>11.8</ele>
        <time>2022-08-27T10:43:06Z</time>
      </trkpt>
      <trkpt lat="48.92336" lon="-1.54145">
        <ele>11.6</ele>
        <time>2022-08-27T10:43:09Z</time>
      </trkpt>
      <trkpt lat="48.92299" lon="-1.54182">
        <ele>11.4</ele>
        <time>2022-08-27T10:43:15Z</time>
      </trkpt>
      <trkpt lat="48.92293" lon="-1.5419">
        <ele>11.2</ele>
        <time>2022-08-27T10:43:16Z</time>
      </trkpt>
      <trkpt lat="48.9228" lon="-1.54219">
        <ele>11</ele>
        <time>2022-08-27T10:43:19Z</time>
      </trkpt>
      <trkpt lat="48.92244" lon="-1.54282">
        <ele>10.4</ele>
        <time>2022-08-27T10:43:26Z</time>
      </trkpt>
      <trkpt lat="48.92231" lon="-1.54297">
        <ele>10.4</ele>
        <time>2022-08-27T10:43:28Z</time>
      </trkpt>
      <trkpt lat="48.92218" lon="-1.54306">
        <ele>10.2</ele>
        <time>2022-08-27T10:43:30Z</time>
      </trkpt>
      <trkpt lat="48.92182" lon="-1.54313">
        <ele>10.2</ele>
        <time>2022-08-27T10:43:35Z</time>
      </trkpt>
      <trkpt lat="48.92139" lon="-1.54325">
        <ele>9.8</ele>
        <time>2022-08-27T10:43:41Z</time>
      </trkpt>
      <trkpt lat="48.92091" lon="-1.5435">
        <ele>9.8</ele>
        <time>2022-08-27T10:43:48Z</time>
      </trkpt>
      <trkpt lat="48.92032" lon="-1.54371">
        <ele>9.6</ele>
        <time>2022-08-27T10:43:56Z</time>
      </trkpt>
      <trkpt lat="48.91974" lon="-1.54384">
        <ele>9.2</ele>
        <time>2022-08-27T10:44:04Z</time>
      </trkpt>
      <trkpt lat="48.91967" lon="-1.54386">
        <ele>9.2</ele>
        <time>2022-08-27T10:44:05Z</time>
      </trkpt>
      <trkpt lat="48.91952" lon="-1.54392">
        <ele>9</ele>
        <time>2022-08-27T10:44:08Z</time>
      </trkpt>
      <trkpt lat="48.91948" lon="-1.54394">
        <ele>9</ele>
        <time>2022-08-27T10:44:09Z</time>
      </trkpt>
      <trkpt lat="48.91944" lon="-1.54397">
        <ele>9</ele>
        <time>2022-08-27T10:44:10Z</time>
      </trkpt>
      <trkpt lat="48.9193" lon="-1.54406">
        <ele>8.8</ele>
        <time>2022-08-27T10:44:13Z</time>
      </trkpt>
      <trkpt lat="48.91891" lon="-1.54437">
        <ele>8.2</ele>
        <time>2022-08-27T10:44:20Z</time>
      </trkpt>
      <trkpt lat="48.91853" lon="-1.54457">
        <ele>8</ele>
        <time>2022-08-27T10:44:26Z</time>
      </trkpt>
      <trkpt lat="48.91797" lon="-1.5447">
        <ele>7.8</ele>
        <time>2022-08-27T10:44:34Z</time>
      </trkpt>
      <trkpt lat="48.9179" lon="-1.54471">
        <ele>7.8</ele>
        <time>2022-08-27T10:44:35Z</time>
      </trkpt>
      <trkpt lat="48.91769" lon="-1.54472">
        <ele>7.8</ele>
        <time>2022-08-27T10:44:38Z</time>
      </trkpt>
      <trkpt lat="48.91748" lon="-1.54471">
        <ele>7.8</ele>
        <time>2022-08-27T10:44:41Z</time>
      </trkpt>
      <trkpt lat="48.91693" lon="-1.54467">
        <ele>7.2</ele>
        <time>2022-08-27T10:44:49Z</time>
      </trkpt>
      <trkpt lat="48.91635" lon="-1.54461">
        <ele>7</ele>
        <time>2022-08-27T10:44:57Z</time>
      </trkpt>
      <trkpt lat="48.91587" lon="-1.54454">
        <ele>7</ele>
        <time>2022-08-27T10:45:04Z</time>
      </trkpt>
      <trkpt lat="48.91549" lon="-1.54445">
        <ele>7.2</ele>
        <time>2022-08-27T10:45:10Z</time>
      </trkpt>
      <trkpt lat="48.91507" lon="-1.54425">
        <ele>7.6</ele>
        <time>2022-08-27T10:45:17Z</time>
      </trkpt>
      <trkpt lat="48.91501" lon="-1.54423">
        <ele>7.4</ele>
        <time>2022-08-27T10:45:18Z</time>
      </trkpt>
      <trkpt lat="48.91471" lon="-1.54417">
        <ele>6.8</ele>
        <time>2022-08-27T10:45:23Z</time>
      </trkpt>
      <trkpt lat="48.91427" lon="-1.54414">
        <ele>7</ele>
        <time>2022-08-27T10:45:30Z</time>
      </trkpt>
      <trkpt lat="48.91406" lon="-1.54415">
        <ele>6.8</ele>
        <time>2022-08-27T10:45:34Z</time>
      </trkpt>
      <trkpt lat="48.91403" lon="-1.54418">
        <ele>6.8</ele>
        <time>2022-08-27T10:45:35Z</time>
      </trkpt>
      <trkpt lat="48.91403" lon="-1.54428">
        <ele>7</ele>
        <time>2022-08-27T10:45:37Z</time>
      </trkpt>
      <trkpt lat="48.91409" lon="-1.54459">
        <ele>6.6</ele>
        <time>2022-08-27T10:45:41Z</time>
      </trkpt>
      <trkpt lat="48.91411" lon="-1.54468">
        <ele>7</ele>
        <time>2022-08-27T10:45:42Z</time>
      </trkpt>
      <trkpt lat="48.91422" lon="-1.54492">
        <ele>6.6</ele>
        <time>2022-08-27T10:45:45Z</time>
      </trkpt>
      <trkpt lat="48.91459" lon="-1.54563">
        <ele>7.2</ele>
        <time>2022-08-27T10:45:54Z</time>
      </trkpt>
      <trkpt lat="48.91463" lon="-1.54571">
        <ele>7.2</ele>
        <time>2022-08-27T10:45:55Z</time>
      </trkpt>
      <trkpt lat="48.91477" lon="-1.54606">
        <ele>6.8</ele>
        <time>2022-08-27T10:45:59Z</time>
      </trkpt>
      <trkpt lat="48.91479" lon="-1.54616">
        <ele>6.8</ele>
        <time>2022-08-27T10:46:00Z</time>
      </trkpt>
      <trkpt lat="48.9148" lon="-1.54626">
        <ele>6.6</ele>
        <time>2022-08-27T10:46:01Z</time>
      </trkpt>
      <trkpt lat="48.91477" lon="-1.54656">
        <ele>7</ele>
        <time>2022-08-27T10:46:04Z</time>
      </trkpt>
      <trkpt lat="48.91471" lon="-1.54697">
        <ele>7</ele>
        <time>2022-08-27T10:46:08Z</time>
      </trkpt>
      <trkpt lat="48.9147" lon="-1.54726">
        <ele>7</ele>
        <time>2022-08-27T10:46:11Z</time>
      </trkpt>
      <trkpt lat="48.91474" lon="-1.54769">
        <ele>7.2</ele>
        <time>2022-08-27T10:46:16Z</time>
      </trkpt>
      <trkpt lat="48.91483" lon="-1.54833">
        <ele>6.8</ele>
        <time>2022-08-27T10:46:23Z</time>
      </trkpt>
      <trkpt lat="48.91489" lon="-1.54893">
        <ele>6.6</ele>
        <time>2022-08-27T10:46:29Z</time>
      </trkpt>
      <trkpt lat="48.91491" lon="-1.54945">
        <ele>6.2</ele>
        <time>2022-08-27T10:46:34Z</time>
      </trkpt>
      <trkpt lat="48.91494" lon="-1.55022">
        <ele>6</ele>
        <time>2022-08-27T10:46:41Z</time>
      </trkpt>
      <trkpt lat="48.91498" lon="-1.55102">
        <ele>6.2</ele>
        <time>2022-08-27T10:46:48Z</time>
      </trkpt>
      <trkpt lat="48.91498" lon="-1.55159">
        <ele>6</ele>
        <time>2022-08-27T10:46:53Z</time>
      </trkpt>
      <trkpt lat="48.91501" lon="-1.55225">
        <ele>5.8</ele>
        <time>2022-08-27T10:46:59Z</time>
      </trkpt>
      <trkpt lat="48.91504" lon="-1.553">
        <ele>6</ele>
        <time>2022-08-27T10:47:06Z</time>
      </trkpt>
      <trkpt lat="48.91507" lon="-1.55388">
        <ele>6.2</ele>
        <time>2022-08-27T10:47:14Z</time>
      </trkpt>
      <trkpt lat="48.91508" lon="-1.55433">
        <ele>6</ele>
        <time>2022-08-27T10:47:18Z</time>
      </trkpt>
      <trkpt lat="48.91511" lon="-1.5552">
        <ele>6</ele>
        <time>2022-08-27T10:47:26Z</time>
      </trkpt>
      <trkpt lat="48.91512" lon="-1.55541">
        <ele>6.2</ele>
        <time>2022-08-27T10:47:28Z</time>
      </trkpt>
      <trkpt lat="48.91515" lon="-1.55627">
        <ele>6.2</ele>
        <time>2022-08-27T10:47:36Z</time>
      </trkpt>
      <trkpt lat="48.91518" lon="-1.55713">
        <ele>6.2</ele>
        <time>2022-08-27T10:47:44Z</time>
      </trkpt>
      <trkpt lat="48.91521" lon="-1.558">
        <ele>6.2</ele>
        <time>2022-08-27T10:47:52Z</time>
      </trkpt>
      <trkpt lat="48.91522" lon="-1.55833">
        <ele>6.4</ele>
        <time>2022-08-27T10:47:55Z</time>
      </trkpt>
      <trkpt lat="48.91525" lon="-1.55919">
        <ele>6.6</ele>
        <time>2022-08-27T10:48:03Z</time>
      </trkpt>
      <trkpt lat="48.91525" lon="-1.56004">
        <ele>6.6</ele>
        <time>2022-08-27T10:48:11Z</time>
      </trkpt>
      <trkpt lat="48.91525" lon="-1.56015">
        <ele>6.6</ele>
        <time>2022-08-27T10:48:12Z</time>
      </trkpt>
      <trkpt lat="48.91517" lon="-1.56089">
        <ele>6.8</ele>
        <time>2022-08-27T10:48:19Z</time>
      </trkpt>
      <trkpt lat="48.91503" lon="-1.56158">
        <ele>7</ele>
        <time>2022-08-27T10:48:26Z</time>
      </trkpt>
      <trkpt lat="48.91483" lon="-1.56223">
        <ele>7</ele>
        <time>2022-08-27T10:48:33Z</time>
      </trkpt>
      <trkpt lat="48.91467" lon="-1.56268">
        <ele>7</ele>
        <time>2022-08-27T10:48:38Z</time>
      </trkpt>
      <trkpt lat="48.91462" lon="-1.56276">
        <ele>7.2</ele>
        <time>2022-08-27T10:48:39Z</time>
      </trkpt>
      <trkpt lat="48.9145" lon="-1.56288">
        <ele>7.2</ele>
        <time>2022-08-27T10:48:41Z</time>
      </trkpt>
      <trkpt lat="48.91437" lon="-1.56289">
        <ele>7.2</ele>
        <time>2022-08-27T10:48:43Z</time>
      </trkpt>
      <trkpt lat="48.9143" lon="-1.56288">
        <ele>7.2</ele>
        <time>2022-08-27T10:48:44Z</time>
      </trkpt>
      <trkpt lat="48.91374" lon="-1.56274">
        <ele>7.2</ele>
        <time>2022-08-27T10:48:52Z</time>
      </trkpt>
      <trkpt lat="48.91367" lon="-1.56272">
        <ele>7.2</ele>
        <time>2022-08-27T10:48:53Z</time>
      </trkpt>
      <trkpt lat="48.91319" lon="-1.56265">
        <ele>7.4</ele>
        <time>2022-08-27T10:49:00Z</time>
      </trkpt>
      <trkpt lat="48.91284" lon="-1.56256">
        <ele>7.4</ele>
        <time>2022-08-27T10:49:05Z</time>
      </trkpt>
      <trkpt lat="48.91277" lon="-1.56251">
        <ele>7.4</ele>
        <time>2022-08-27T10:49:06Z</time>
      </trkpt>
      <trkpt lat="48.91255" lon="-1.56227">
        <ele>7.6</ele>
        <time>2022-08-27T10:49:10Z</time>
      </trkpt>
      <trkpt lat="48.91251" lon="-1.56219">
        <ele>7.6</ele>
        <time>2022-08-27T10:49:11Z</time>
      </trkpt>
      <trkpt lat="48.91232" lon="-1.56175">
        <ele>7.6</ele>
        <time>2022-08-27T10:49:16Z</time>
      </trkpt>
      <trkpt lat="48.91206" lon="-1.56095">
        <ele>8</ele>
        <time>2022-08-27T10:49:25Z</time>
      </trkpt>
      <trkpt lat="48.91188" lon="-1.56046">
        <ele>8</ele>
        <time>2022-08-27T10:49:31Z</time>
      </trkpt>
      <trkpt lat="48.91177" lon="-1.56024">
        <ele>8.2</ele>
        <time>2022-08-27T10:49:34Z</time>
      </trkpt>
      <trkpt lat="48.91167" lon="-1.56012">
        <ele>8.2</ele>
        <time>2022-08-27T10:49:36Z</time>
      </trkpt>
      <trkpt lat="48.91156" lon="-1.56002">
        <ele>8.2</ele>
        <time>2022-08-27T10:49:38Z</time>
      </trkpt>
      <trkpt lat="48.91144" lon="-1.55995">
        <ele>8.2</ele>
        <time>2022-08-27T10:49:40Z</time>
      </trkpt>
      <trkpt lat="48.91137" lon="-1.55993">
        <ele>8.2</ele>
        <time>2022-08-27T10:49:41Z</time>
      </trkpt>
      <trkpt lat="48.9113" lon="-1.55993">
        <ele>8</ele>
        <time>2022-08-27T10:49:42Z</time>
      </trkpt>
      <trkpt lat="48.91116" lon="-1.55994">
        <ele>8</ele>
        <time>2022-08-27T10:49:44Z</time>
      </trkpt>
      <trkpt lat="48.91109" lon="-1.55996">
        <ele>8.4</ele>
        <time>2022-08-27T10:49:45Z</time>
      </trkpt>
      <trkpt lat="48.91052" lon="-1.56018">
        <ele>7.8</ele>
        <time>2022-08-27T10:49:53Z</time>
      </trkpt>
      <trkpt lat="48.9102" lon="-1.56042">
        <ele>7.8</ele>
        <time>2022-08-27T10:49:58Z</time>
      </trkpt>
      <trkpt lat="48.90988" lon="-1.56082">
        <ele>7.8</ele>
        <time>2022-08-27T10:50:04Z</time>
      </trkpt>
      <trkpt lat="48.90985" lon="-1.56089">
        <ele>7.8</ele>
        <time>2022-08-27T10:50:05Z</time>
      </trkpt>
      <trkpt lat="48.9098" lon="-1.56094">
        <ele>7.8</ele>
        <time>2022-08-27T10:50:07Z</time>
      </trkpt>
      <trkpt lat="48.90984" lon="-1.56086">
        <ele>7.4</ele>
        <time>2022-08-27T10:50:10Z</time>
      </trkpt>
      <trkpt lat="48.90995" lon="-1.56067">
        <ele>6.6</ele>
        <time>2022-08-27T10:50:15Z</time>
      </trkpt>
      <trkpt lat="48.91003" lon="-1.56042">
        <ele>6</ele>
        <time>2022-08-27T10:50:20Z</time>
      </trkpt>
      <trkpt lat="48.91003" lon="-1.56039">
        <ele>5.8</ele>
        <time>2022-08-27T10:50:21Z</time>
      </trkpt>
      <trkpt lat="48.91002" lon="-1.56035">
        <ele>5.6</ele>
        <time>2022-08-27T10:50:23Z</time>
      </trkpt>
      <trkpt lat="48.90999" lon="-1.56021">
        <ele>5.6</ele>
        <time>2022-08-27T10:50:27Z</time>
      </trkpt>
      <trkpt lat="48.90996" lon="-1.56003">
        <ele>5.4</ele>
        <time>2022-08-27T10:50:31Z</time>
      </trkpt>
      <trkpt lat="48.90997" lon="-1.56001">
        <ele>5.2</ele>
        <time>2022-08-27T10:50:34Z</time>
      </trkpt>
      <trkpt lat="48.90996" lon="-1.56003">
        <ele>5.2</ele>
        <time>2022-08-27T10:50:35Z</time>
      </trkpt>
      <trkpt lat="48.90997" lon="-1.56013">
        <ele>5.2</ele>
        <time>2022-08-27T10:50:39Z</time>
      </trkpt>
      <trkpt lat="48.90998" lon="-1.56027">
        <ele>5.2</ele>
        <time>2022-08-27T10:50:43Z</time>
      </trkpt>
      <trkpt lat="48.90988" lon="-1.56044">
        <ele>5.2</ele>
        <time>2022-08-27T10:50:48Z</time>
      </trkpt>
      <trkpt lat="48.90974" lon="-1.56062">
        <ele>5.2</ele>
        <time>2022-08-27T10:50:54Z</time>
      </trkpt>
      <trkpt lat="48.90962" lon="-1.56065">
        <ele>5.2</ele>
        <time>2022-08-27T10:50:58Z</time>
      </trkpt>
      <trkpt lat="48.90949" lon="-1.56052">
        <ele>5.2</ele>
        <time>2022-08-27T10:51:02Z</time>
      </trkpt>
      <trkpt lat="48.9093" lon="-1.56044">
        <ele>5.4</ele>
        <time>2022-08-27T10:51:07Z</time>
      </trkpt>
      <trkpt lat="48.90922" lon="-1.56039">
        <ele>5.4</ele>
        <time>2022-08-27T10:51:09Z</time>
      </trkpt>
      <trkpt lat="48.90906" lon="-1.56032">
        <ele>5.4</ele>
        <time>2022-08-27T10:51:13Z</time>
      </trkpt>
      <trkpt lat="48.90881" lon="-1.5602">
        <ele>5.4</ele>
        <time>2022-08-27T10:51:19Z</time>
      </trkpt>
      <trkpt lat="48.90873" lon="-1.56018">
        <ele>5.4</ele>
        <time>2022-08-27T10:51:21Z</time>
      </trkpt>
      <trkpt lat="48.90864" lon="-1.56015">
        <ele>5.4</ele>
        <time>2022-08-27T10:51:23Z</time>
      </trkpt>
      <trkpt lat="48.9086" lon="-1.56014">
        <ele>5.4</ele>
        <time>2022-08-27T10:51:24Z</time>
      </trkpt>
      <trkpt lat="48.90848" lon="-1.56011">
        <ele>5.4</ele>
        <time>2022-08-27T10:51:27Z</time>
      </trkpt>
      <trkpt lat="48.9084" lon="-1.56009">
        <ele>5.2</ele>
        <time>2022-08-27T10:51:29Z</time>
      </trkpt>
      <trkpt lat="48.90837" lon="-1.56006">
        <ele>5.2</ele>
        <time>2022-08-27T10:51:30Z</time>
      </trkpt>
      <trkpt lat="48.90834" lon="-1.56002">
        <ele>5.2</ele>
        <time>2022-08-27T10:51:31Z</time>
      </trkpt>
      <trkpt lat="48.90832" lon="-1.55992">
        <ele>5</ele>
        <time>2022-08-27T10:51:33Z</time>
      </trkpt>
      <trkpt lat="48.9083" lon="-1.55954">
        <ele>4.8</ele>
        <time>2022-08-27T10:51:40Z</time>
      </trkpt>
      <trkpt lat="48.90828" lon="-1.55951">
        <ele>4.8</ele>
        <time>2022-08-27T10:51:43Z</time>
      </trkpt>
      <trkpt lat="48.90828" lon="-1.55951">
        <ele>4.6</ele>
        <time>2022-08-27T10:51:45Z</time>
      </trkpt>
      <trkpt lat="48.90824" lon="-1.55953">
        <ele>4</ele>
        <time>2022-08-27T10:51:58Z</time>
      </trkpt>
      <trkpt lat="48.90821" lon="-1.55954">
        <ele>4</ele>
        <time>2022-08-27T10:51:59Z</time>
      </trkpt>
      <trkpt lat="48.90802" lon="-1.55958">
        <ele>4</ele>
        <time>2022-08-27T10:52:05Z</time>
      </trkpt>
      <trkpt lat="48.90777" lon="-1.55964">
        <ele>4.2</ele>
        <time>2022-08-27T10:52:12Z</time>
      </trkpt>
      <trkpt lat="48.90762" lon="-1.55967">
        <ele>4.2</ele>
        <time>2022-08-27T10:52:16Z</time>
      </trkpt>
      <trkpt lat="48.90738" lon="-1.55972">
        <ele>4</ele>
        <time>2022-08-27T10:52:22Z</time>
      </trkpt>
      <trkpt lat="48.9071" lon="-1.5598">
        <ele>4</ele>
        <time>2022-08-27T10:52:30Z</time>
      </trkpt>
      <trkpt lat="48.90684" lon="-1.55988">
        <ele>4</ele>
        <time>2022-08-27T10:52:37Z</time>
      </trkpt>
      <trkpt lat="48.90655" lon="-1.55996">
        <ele>4.2</ele>
        <time>2022-08-27T10:52:45Z</time>
      </trkpt>
      <trkpt lat="48.90622" lon="-1.56004">
        <ele>4.2</ele>
        <time>2022-08-27T10:52:53Z</time>
      </trkpt>
      <trkpt lat="48.9059" lon="-1.56012">
        <ele>4.2</ele>
        <time>2022-08-27T10:53:01Z</time>
      </trkpt>
      <trkpt lat="48.90562" lon="-1.56019">
        <ele>4.2</ele>
        <time>2022-08-27T10:53:08Z</time>
      </trkpt>
      <trkpt lat="48.90538" lon="-1.56027">
        <ele>4.2</ele>
        <time>2022-08-27T10:53:14Z</time>
      </trkpt>
      <trkpt lat="48.90523" lon="-1.56031">
        <ele>4.4</ele>
        <time>2022-08-27T10:53:18Z</time>
      </trkpt>
      <trkpt lat="48.90507" lon="-1.56035">
        <ele>4.4</ele>
        <time>2022-08-27T10:53:22Z</time>
      </trkpt>
      <trkpt lat="48.90488" lon="-1.5604">
        <ele>4.4</ele>
        <time>2022-08-27T10:53:27Z</time>
      </trkpt>
      <trkpt lat="48.9047" lon="-1.56044">
        <ele>4.4</ele>
        <time>2022-08-27T10:53:32Z</time>
      </trkpt>
      <trkpt lat="48.90464" lon="-1.56044">
        <ele>4.4</ele>
        <time>2022-08-27T10:53:34Z</time>
      </trkpt>
      <trkpt lat="48.90463" lon="-1.56041">
        <ele>4.2</ele>
        <time>2022-08-27T10:53:35Z</time>
      </trkpt>
      <trkpt lat="48.90458" lon="-1.56019">
        <ele>4</ele>
        <time>2022-08-27T10:53:39Z</time>
      </trkpt>
      <trkpt lat="48.90454" lon="-1.55994">
        <ele>3.8</ele>
        <time>2022-08-27T10:53:43Z</time>
      </trkpt>
      <trkpt lat="48.90453" lon="-1.55988">
        <ele>3.8</ele>
        <time>2022-08-27T10:53:44Z</time>
      </trkpt>
      <trkpt lat="48.90451" lon="-1.55957">
        <ele>3.6</ele>
        <time>2022-08-27T10:53:49Z</time>
      </trkpt>
      <trkpt lat="48.90448" lon="-1.55937">
        <ele>3.6</ele>
        <time>2022-08-27T10:53:53Z</time>
      </trkpt>
      <trkpt lat="48.90445" lon="-1.5591">
        <ele>3.8</ele>
        <time>2022-08-27T10:53:57Z</time>
      </trkpt>
      <trkpt lat="48.90441" lon="-1.55879">
        <ele>3.4</ele>
        <time>2022-08-27T10:54:02Z</time>
      </trkpt>
      <trkpt lat="48.90437" lon="-1.55844">
        <ele>4</ele>
        <time>2022-08-27T10:54:08Z</time>
      </trkpt>
      <trkpt lat="48.90435" lon="-1.55828">
        <ele>4</ele>
        <time>2022-08-27T10:54:11Z</time>
      </trkpt>
      <trkpt lat="48.90434" lon="-1.55823">
        <ele>4</ele>
        <time>2022-08-27T10:54:12Z</time>
      </trkpt>
      <trkpt lat="48.9043" lon="-1.5579">
        <ele>4</ele>
        <time>2022-08-27T10:54:17Z</time>
      </trkpt>
      <trkpt lat="48.90426" lon="-1.55752">
        <ele>4.2</ele>
        <time>2022-08-27T10:54:23Z</time>
      </trkpt>
      <trkpt lat="48.90425" lon="-1.5575">
        <ele>4.2</ele>
        <time>2022-08-27T10:54:24Z</time>
      </trkpt>
      <trkpt lat="48.90425" lon="-1.55747">
        <ele>4.4</ele>
        <time>2022-08-27T10:54:26Z</time>
      </trkpt>
      <trkpt lat="48.90427" lon="-1.55747">
        <ele>4.4</ele>
        <time>2022-08-27T10:54:27Z</time>
      </trkpt>
      <trkpt lat="48.90426" lon="-1.55752">
        <ele>4.4</ele>
        <time>2022-08-27T10:54:30Z</time>
      </trkpt>
      <trkpt lat="48.90426" lon="-1.55752">
        <ele>4.4</ele>
        <time>2022-08-27T10:54:31Z</time>
      </trkpt>
      <trkpt lat="48.90426" lon="-1.55755">
        <ele>4.6</ele>
        <time>2022-08-27T10:54:43Z</time>
      </trkpt>
      <trkpt lat="48.90427" lon="-1.5576">
        <ele>4.6</ele>
        <time>2022-08-27T10:54:45Z</time>
      </trkpt>
      <trkpt lat="48.90428" lon="-1.55767">
        <ele>4.6</ele>
        <time>2022-08-27T10:54:47Z</time>
      </trkpt>
      <trkpt lat="48.90424" lon="-1.55771">
        <ele>4.6</ele>
        <time>2022-08-27T10:54:49Z</time>
      </trkpt>
      <trkpt lat="48.90409" lon="-1.55765">
        <ele>4.6</ele>
        <time>2022-08-27T10:54:54Z</time>
      </trkpt>
      <trkpt lat="48.90397" lon="-1.55757">
        <ele>4.4</ele>
        <time>2022-08-27T10:54:58Z</time>
      </trkpt>
      <trkpt lat="48.90389" lon="-1.55754">
        <ele>4.4</ele>
        <time>2022-08-27T10:55:01Z</time>
      </trkpt>
      <trkpt lat="48.90382" lon="-1.55754">
        <ele>4.4</ele>
        <time>2022-08-27T10:55:03Z</time>
      </trkpt>
      <trkpt lat="48.90356" lon="-1.55748">
        <ele>4.6</ele>
        <time>2022-08-27T10:55:09Z</time>
      </trkpt>
      <trkpt lat="48.90332" lon="-1.55741">
        <ele>4.6</ele>
        <time>2022-08-27T10:55:15Z</time>
      </trkpt>
      <trkpt lat="48.90327" lon="-1.55741">
        <ele>4.6</ele>
        <time>2022-08-27T10:55:16Z</time>
      </trkpt>
      <trkpt lat="48.90303" lon="-1.55736">
        <ele>4.6</ele>
        <time>2022-08-27T10:55:22Z</time>
      </trkpt>
      <trkpt lat="48.90282" lon="-1.55733">
        <ele>4.8</ele>
        <time>2022-08-27T10:55:27Z</time>
      </trkpt>
      <trkpt lat="48.90278" lon="-1.55733">
        <ele>4.8</ele>
        <time>2022-08-27T10:55:28Z</time>
      </trkpt>
      <trkpt lat="48.90253" lon="-1.55732">
        <ele>4.8</ele>
        <time>2022-08-27T10:55:34Z</time>
      </trkpt>
      <trkpt lat="48.90224" lon="-1.5573">
        <ele>5</ele>
        <time>2022-08-27T10:55:41Z</time>
      </trkpt>
      <trkpt lat="48.9022" lon="-1.55731">
        <ele>5</ele>
        <time>2022-08-27T10:55:42Z</time>
      </trkpt>
      <trkpt lat="48.90198" lon="-1.5573">
        <ele>5</ele>
        <time>2022-08-27T10:55:47Z</time>
      </trkpt>
      <trkpt lat="48.90175" lon="-1.55726">
        <ele>5.2</ele>
        <time>2022-08-27T10:55:53Z</time>
      </trkpt>
      <trkpt lat="48.90157" lon="-1.55718">
        <ele>5</ele>
        <time>2022-08-27T10:55:58Z</time>
      </trkpt>
      <trkpt lat="48.90149" lon="-1.55713">
        <ele>5</ele>
        <time>2022-08-27T10:56:01Z</time>
      </trkpt>
      <trkpt lat="48.90142" lon="-1.5571">
        <ele>5.2</ele>
        <time>2022-08-27T10:56:03Z</time>
      </trkpt>
      <trkpt lat="48.90133" lon="-1.55707">
        <ele>5.2</ele>
        <time>2022-08-27T10:56:05Z</time>
      </trkpt>
      <trkpt lat="48.90129" lon="-1.55706">
        <ele>4.8</ele>
        <time>2022-08-27T10:56:06Z</time>
      </trkpt>
      <trkpt lat="48.90114" lon="-1.5571">
        <ele>4.8</ele>
        <time>2022-08-27T10:56:10Z</time>
      </trkpt>
      <trkpt lat="48.90087" lon="-1.55717">
        <ele>4.8</ele>
        <time>2022-08-27T10:56:16Z</time>
      </trkpt>
      <trkpt lat="48.90082" lon="-1.55719">
        <ele>4.8</ele>
        <time>2022-08-27T10:56:17Z</time>
      </trkpt>
      <trkpt lat="48.90077" lon="-1.5572">
        <ele>4.8</ele>
        <time>2022-08-27T10:56:18Z</time>
      </trkpt>
      <trkpt lat="48.90047" lon="-1.55728">
        <ele>5</ele>
        <time>2022-08-27T10:56:24Z</time>
      </trkpt>
      <trkpt lat="48.90016" lon="-1.55736">
        <ele>5</ele>
        <time>2022-08-27T10:56:30Z</time>
      </trkpt>
      <trkpt lat="48.89977" lon="-1.55748">
        <ele>5.2</ele>
        <time>2022-08-27T10:56:38Z</time>
      </trkpt>
      <trkpt lat="48.89935" lon="-1.55759">
        <ele>5.6</ele>
        <time>2022-08-27T10:56:46Z</time>
      </trkpt>
      <trkpt lat="48.89882" lon="-1.55774">
        <ele>5.6</ele>
        <time>2022-08-27T10:56:55Z</time>
      </trkpt>
      <trkpt lat="48.89828" lon="-1.55789">
        <ele>5.4</ele>
        <time>2022-08-27T10:57:04Z</time>
      </trkpt>
      <trkpt lat="48.89822" lon="-1.5579">
        <ele>5.2</ele>
        <time>2022-08-27T10:57:05Z</time>
      </trkpt>
      <trkpt lat="48.8977" lon="-1.55804">
        <ele>5.4</ele>
        <time>2022-08-27T10:57:14Z</time>
      </trkpt>
      <trkpt lat="48.89729" lon="-1.55816">
        <ele>5.4</ele>
        <time>2022-08-27T10:57:21Z</time>
      </trkpt>
      <trkpt lat="48.89677" lon="-1.5583">
        <ele>5.6</ele>
        <time>2022-08-27T10:57:30Z</time>
      </trkpt>
      <trkpt lat="48.89631" lon="-1.55843">
        <ele>5.6</ele>
        <time>2022-08-27T10:57:38Z</time>
      </trkpt>
      <trkpt lat="48.89608" lon="-1.55848">
        <ele>5.6</ele>
        <time>2022-08-27T10:57:42Z</time>
      </trkpt>
      <trkpt lat="48.89603" lon="-1.5585">
        <ele>5.6</ele>
        <time>2022-08-27T10:57:43Z</time>
      </trkpt>
      <trkpt lat="48.896" lon="-1.55851">
        <ele>5.8</ele>
        <time>2022-08-27T10:57:44Z</time>
      </trkpt>
      <trkpt lat="48.89599" lon="-1.55848">
        <ele>5.6</ele>
        <time>2022-08-27T10:57:46Z</time>
      </trkpt>
      <trkpt lat="48.89608" lon="-1.55845">
        <ele>5.8</ele>
        <time>2022-08-27T10:57:51Z</time>
      </trkpt>
      <trkpt lat="48.89609" lon="-1.55847">
        <ele>5.8</ele>
        <time>2022-08-27T10:57:52Z</time>
      </trkpt>
      <trkpt lat="48.89609" lon="-1.55848">
        <ele>5.8</ele>
        <time>2022-08-27T10:57:53Z</time>
      </trkpt>
      <trkpt lat="48.89605" lon="-1.55849">
        <ele>5.8</ele>
        <time>2022-08-27T10:57:56Z</time>
      </trkpt>
      <trkpt lat="48.89599" lon="-1.5585">
        <ele>5.6</ele>
        <time>2022-08-27T10:58:00Z</time>
      </trkpt>
      <trkpt lat="48.89596" lon="-1.55854">
        <ele>5.6</ele>
        <time>2022-08-27T10:58:02Z</time>
      </trkpt>
      <trkpt lat="48.89586" lon="-1.55856">
        <ele>5.8</ele>
        <time>2022-08-27T10:58:08Z</time>
      </trkpt>
      <trkpt lat="48.89573" lon="-1.55859">
        <ele>5.8</ele>
        <time>2022-08-27T10:58:13Z</time>
      </trkpt>
      <trkpt lat="48.89561" lon="-1.55862">
        <ele>5.6</ele>
        <time>2022-08-27T10:58:16Z</time>
      </trkpt>
      <trkpt lat="48.89547" lon="-1.55866">
        <ele>5.4</ele>
        <time>2022-08-27T10:58:19Z</time>
      </trkpt>
      <trkpt lat="48.89511" lon="-1.55876">
        <ele>5.4</ele>
        <time>2022-08-27T10:58:26Z</time>
      </trkpt>
      <trkpt lat="48.89501" lon="-1.55878">
        <ele>5.4</ele>
        <time>2022-08-27T10:58:28Z</time>
      </trkpt>
      <trkpt lat="48.89481" lon="-1.55884">
        <ele>5.4</ele>
        <time>2022-08-27T10:58:32Z</time>
      </trkpt>
      <trkpt lat="48.89446" lon="-1.55892">
        <ele>5.8</ele>
        <time>2022-08-27T10:58:39Z</time>
      </trkpt>
      <trkpt lat="48.89442" lon="-1.55894">
        <ele>5.6</ele>
        <time>2022-08-27T10:58:40Z</time>
      </trkpt>
      <trkpt lat="48.89432" lon="-1.55898">
        <ele>5.6</ele>
        <time>2022-08-27T10:58:44Z</time>
      </trkpt>
      <trkpt lat="48.89416" lon="-1.55902">
        <ele>5.6</ele>
        <time>2022-08-27T10:58:49Z</time>
      </trkpt>
      <trkpt lat="48.89386" lon="-1.55909">
        <ele>5.6</ele>
        <time>2022-08-27T10:58:55Z</time>
      </trkpt>
      <trkpt lat="48.89337" lon="-1.55923">
        <ele>5.6</ele>
        <time>2022-08-27T10:59:04Z</time>
      </trkpt>
      <trkpt lat="48.89297" lon="-1.55933">
        <ele>5.8</ele>
        <time>2022-08-27T10:59:11Z</time>
      </trkpt>
      <trkpt lat="48.89249" lon="-1.55949">
        <ele>6</ele>
        <time>2022-08-27T10:59:19Z</time>
      </trkpt>
      <trkpt lat="48.892" lon="-1.55969">
        <ele>5.8</ele>
        <time>2022-08-27T10:59:27Z</time>
      </trkpt>
      <trkpt lat="48.89157" lon="-1.55987">
        <ele>6</ele>
        <time>2022-08-27T10:59:34Z</time>
      </trkpt>
      <trkpt lat="48.89113" lon="-1.56007">
        <ele>6</ele>
        <time>2022-08-27T10:59:41Z</time>
      </trkpt>
      <trkpt lat="48.89069" lon="-1.56026">
        <ele>5.8</ele>
        <time>2022-08-27T10:59:48Z</time>
      </trkpt>
      <trkpt lat="48.89045" lon="-1.56038">
        <ele>5.8</ele>
        <time>2022-08-27T10:59:52Z</time>
      </trkpt>
      <trkpt lat="48.89039" lon="-1.56041">
        <ele>5.6</ele>
        <time>2022-08-27T10:59:53Z</time>
      </trkpt>
      <trkpt lat="48.89009" lon="-1.56055">
        <ele>5.2</ele>
        <time>2022-08-27T10:59:58Z</time>
      </trkpt>
      <trkpt lat="48.88965" lon="-1.56075">
        <ele>4.6</ele>
        <time>2022-08-27T11:00:05Z</time>
      </trkpt>
      <trkpt lat="48.88919" lon="-1.56091">
        <ele>5</ele>
        <time>2022-08-27T11:00:12Z</time>
      </trkpt>
      <trkpt lat="48.88873" lon="-1.5611">
        <ele>4.4</ele>
        <time>2022-08-27T11:00:19Z</time>
      </trkpt>
      <trkpt lat="48.88815" lon="-1.56134">
        <ele>5.2</ele>
        <time>2022-08-27T11:00:28Z</time>
      </trkpt>
      <trkpt lat="48.88764" lon="-1.56155">
        <ele>5.4</ele>
        <time>2022-08-27T11:00:36Z</time>
      </trkpt>
      <trkpt lat="48.88706" lon="-1.5618">
        <ele>5.6</ele>
        <time>2022-08-27T11:00:45Z</time>
      </trkpt>
      <trkpt lat="48.88693" lon="-1.56185">
        <ele>5.6</ele>
        <time>2022-08-27T11:00:47Z</time>
      </trkpt>
      <trkpt lat="48.88644" lon="-1.56206">
        <ele>6</ele>
        <time>2022-08-27T11:00:55Z</time>
      </trkpt>
      <trkpt lat="48.88633" lon="-1.56211">
        <ele>6</ele>
        <time>2022-08-27T11:00:57Z</time>
      </trkpt>
      <trkpt lat="48.88617" lon="-1.56217">
        <ele>6</ele>
        <time>2022-08-27T11:01:00Z</time>
      </trkpt>
      <trkpt lat="48.8861" lon="-1.56222">
        <ele>6</ele>
        <time>2022-08-27T11:01:03Z</time>
      </trkpt>
      <trkpt lat="48.88609" lon="-1.56222">
        <ele>6</ele>
        <time>2022-08-27T11:01:05Z</time>
      </trkpt>
      <trkpt lat="48.88606" lon="-1.56224">
        <ele>6</ele>
        <time>2022-08-27T11:01:09Z</time>
      </trkpt>
      <trkpt lat="48.88604" lon="-1.56223">
        <ele>6</ele>
        <time>2022-08-27T11:01:10Z</time>
      </trkpt>
      <trkpt lat="48.88598" lon="-1.56201">
        <ele>6</ele>
        <time>2022-08-27T11:01:14Z</time>
      </trkpt>
      <trkpt lat="48.88584" lon="-1.56149">
        <ele>6</ele>
        <time>2022-08-27T11:01:21Z</time>
      </trkpt>
      <trkpt lat="48.88566" lon="-1.56084">
        <ele>6</ele>
        <time>2022-08-27T11:01:29Z</time>
      </trkpt>
      <trkpt lat="48.8855" lon="-1.56024">
        <ele>6</ele>
        <time>2022-08-27T11:01:36Z</time>
      </trkpt>
      <trkpt lat="48.88545" lon="-1.56007">
        <ele>6</ele>
        <time>2022-08-27T11:01:38Z</time>
      </trkpt>
      <trkpt lat="48.88534" lon="-1.55966">
        <ele>6</ele>
        <time>2022-08-27T11:01:43Z</time>
      </trkpt>
      <trkpt lat="48.88512" lon="-1.55888">
        <ele>6.2</ele>
        <time>2022-08-27T11:01:53Z</time>
      </trkpt>
      <trkpt lat="48.88494" lon="-1.55822">
        <ele>6</ele>
        <time>2022-08-27T11:02:01Z</time>
      </trkpt>
      <trkpt lat="48.88478" lon="-1.55767">
        <ele>6</ele>
        <time>2022-08-27T11:02:08Z</time>
      </trkpt>
      <trkpt lat="48.88466" lon="-1.55724">
        <ele>5.8</ele>
        <time>2022-08-27T11:02:14Z</time>
      </trkpt>
      <trkpt lat="48.88459" lon="-1.5572">
        <ele>5.6</ele>
        <time>2022-08-27T11:02:16Z</time>
      </trkpt>
      <trkpt lat="48.88442" lon="-1.55732">
        <ele>5.6</ele>
        <time>2022-08-27T11:02:20Z</time>
      </trkpt>
      <trkpt lat="48.88389" lon="-1.5577">
        <ele>5.6</ele>
        <time>2022-08-27T11:02:31Z</time>
      </trkpt>
      <trkpt lat="48.88353" lon="-1.55792">
        <ele>5.6</ele>
        <time>2022-08-27T11:02:38Z</time>
      </trkpt>
      <trkpt lat="48.88342" lon="-1.55799">
        <ele>5.6</ele>
        <time>2022-08-27T11:02:40Z</time>
      </trkpt>
      <trkpt lat="48.88327" lon="-1.55811">
        <ele>5.6</ele>
        <time>2022-08-27T11:02:43Z</time>
      </trkpt>
      <trkpt lat="48.88317" lon="-1.55808">
        <ele>5.4</ele>
        <time>2022-08-27T11:02:45Z</time>
      </trkpt>
      <trkpt lat="48.88313" lon="-1.55804">
        <ele>5.4</ele>
        <time>2022-08-27T11:02:46Z</time>
      </trkpt>
      <trkpt lat="48.88309" lon="-1.55798">
        <ele>5.2</ele>
        <time>2022-08-27T11:02:47Z</time>
      </trkpt>
      <trkpt lat="48.88304" lon="-1.55782">
        <ele>5.2</ele>
        <time>2022-08-27T11:02:49Z</time>
      </trkpt>
      <trkpt lat="48.88288" lon="-1.55723">
        <ele>5.2</ele>
        <time>2022-08-27T11:02:56Z</time>
      </trkpt>
      <trkpt lat="48.88274" lon="-1.55673">
        <ele>5</ele>
        <time>2022-08-27T11:03:02Z</time>
      </trkpt>
      <trkpt lat="48.88259" lon="-1.55619">
        <ele>5</ele>
        <time>2022-08-27T11:03:09Z</time>
      </trkpt>
      <trkpt lat="48.88256" lon="-1.55607">
        <ele>4.8</ele>
        <time>2022-08-27T11:03:11Z</time>
      </trkpt>
      <trkpt lat="48.88251" lon="-1.55587">
        <ele>4.8</ele>
        <time>2022-08-27T11:03:14Z</time>
      </trkpt>
      <trkpt lat="48.88239" lon="-1.55552">
        <ele>4.8</ele>
        <time>2022-08-27T11:03:20Z</time>
      </trkpt>
      <trkpt lat="48.88232" lon="-1.55549">
        <ele>4.8</ele>
        <time>2022-08-27T11:03:22Z</time>
      </trkpt>
      <trkpt lat="48.88228" lon="-1.55551">
        <ele>4.8</ele>
        <time>2022-08-27T11:03:23Z</time>
      </trkpt>
      <trkpt lat="48.88209" lon="-1.55562">
        <ele>4.4</ele>
        <time>2022-08-27T11:03:27Z</time>
      </trkpt>
      <trkpt lat="48.88183" lon="-1.55578">
        <ele>4.2</ele>
        <time>2022-08-27T11:03:32Z</time>
      </trkpt>
      <trkpt lat="48.88151" lon="-1.55596">
        <ele>4</ele>
        <time>2022-08-27T11:03:38Z</time>
      </trkpt>
      <trkpt lat="48.8813" lon="-1.55609">
        <ele>3.8</ele>
        <time>2022-08-27T11:03:42Z</time>
      </trkpt>
      <trkpt lat="48.88104" lon="-1.55624">
        <ele>3.6</ele>
        <time>2022-08-27T11:03:47Z</time>
      </trkpt>
      <trkpt lat="48.88077" lon="-1.55638">
        <ele>3.4</ele>
        <time>2022-08-27T11:03:52Z</time>
      </trkpt>
      <trkpt lat="48.88045" lon="-1.55654">
        <ele>3.4</ele>
        <time>2022-08-27T11:03:58Z</time>
      </trkpt>
      <trkpt lat="48.88015" lon="-1.55674">
        <ele>3.2</ele>
        <time>2022-08-27T11:04:04Z</time>
      </trkpt>
      <trkpt lat="48.87995" lon="-1.55689">
        <ele>2.4</ele>
        <time>2022-08-27T11:04:08Z</time>
      </trkpt>
      <trkpt lat="48.87977" lon="-1.55704">
        <ele>1.8</ele>
        <time>2022-08-27T11:04:12Z</time>
      </trkpt>
      <trkpt lat="48.87965" lon="-1.55712">
        <ele>1.4</ele>
        <time>2022-08-27T11:04:14Z</time>
      </trkpt>
      <trkpt lat="48.87954" lon="-1.55719">
        <ele>1</ele>
        <time>2022-08-27T11:04:16Z</time>
      </trkpt>
      <trkpt lat="48.87938" lon="-1.5573">
        <ele>0.39999999999998</ele>
        <time>2022-08-27T11:04:19Z</time>
      </trkpt>
      <trkpt lat="48.87933" lon="-1.55734">
        <ele>0.19999999999999</ele>
        <time>2022-08-27T11:04:20Z</time>
      </trkpt>
      <trkpt lat="48.87923" lon="-1.55741">
        <ele>-0.19999999999999</ele>
        <time>2022-08-27T11:04:22Z</time>
      </trkpt>
      <trkpt lat="48.87915" lon="-1.55748">
        <ele>-0.60000000000002</ele>
        <time>2022-08-27T11:04:24Z</time>
      </trkpt>
      <trkpt lat="48.87907" lon="-1.55751">
        <ele>-1.2</ele>
        <time>2022-08-27T11:04:26Z</time>
      </trkpt>
      <trkpt lat="48.87898" lon="-1.55756">
        <ele>-1.8</ele>
        <time>2022-08-27T11:04:28Z</time>
      </trkpt>
      <trkpt lat="48.87883" lon="-1.55771">
        <ele>-2.4</ele>
        <time>2022-08-27T11:04:31Z</time>
      </trkpt>
      <trkpt lat="48.87877" lon="-1.55774">
        <ele>-2.6</ele>
        <time>2022-08-27T11:04:32Z</time>
      </trkpt>
      <trkpt lat="48.87828" lon="-1.55808">
        <ele>-2</ele>
        <time>2022-08-27T11:04:40Z</time>
      </trkpt>
      <trkpt lat="48.87807" lon="-1.5582">
        <ele>-1.6</ele>
        <time>2022-08-27T11:04:44Z</time>
      </trkpt>
      <trkpt lat="48.87792" lon="-1.55831">
        <ele>-2.6</ele>
        <time>2022-08-27T11:04:47Z</time>
      </trkpt>
      <trkpt lat="48.87782" lon="-1.55839">
        <ele>-2.2</ele>
        <time>2022-08-27T11:04:49Z</time>
      </trkpt>
      <trkpt lat="48.87773" lon="-1.55847">
        <ele>-0.60000000000002</ele>
        <time>2022-08-27T11:04:51Z</time>
      </trkpt>
      <trkpt lat="48.87764" lon="-1.55852">
        <ele>-1</ele>
        <time>2022-08-27T11:04:53Z</time>
      </trkpt>
      <trkpt lat="48.87759" lon="-1.55855">
        <ele>-1</ele>
        <time>2022-08-27T11:04:54Z</time>
      </trkpt>
      <trkpt lat="48.87754" lon="-1.55857">
        <ele>-1</ele>
        <time>2022-08-27T11:04:55Z</time>
      </trkpt>
      <trkpt lat="48.87743" lon="-1.55863">
        <ele>-0.80000000000001</ele>
        <time>2022-08-27T11:04:57Z</time>
      </trkpt>
      <trkpt lat="48.87737" lon="-1.55866">
        <ele>-0.80000000000001</ele>
        <time>2022-08-27T11:04:58Z</time>
      </trkpt>
      <trkpt lat="48.87732" lon="-1.55868">
        <ele>-0.80000000000001</ele>
        <time>2022-08-27T11:04:59Z</time>
      </trkpt>
      <trkpt lat="48.8771" lon="-1.55883">
        <ele>-0.60000000000002</ele>
        <time>2022-08-27T11:05:03Z</time>
      </trkpt>
      <trkpt lat="48.87683" lon="-1.55903">
        <ele>-0.39999999999998</ele>
        <time>2022-08-27T11:05:08Z</time>
      </trkpt>
      <trkpt lat="48.87644" lon="-1.55936">
        <ele>0.39999999999998</ele>
        <time>2022-08-27T11:05:16Z</time>
      </trkpt>
      <trkpt lat="48.87639" lon="-1.55941">
        <ele>0.39999999999998</ele>
        <time>2022-08-27T11:05:17Z</time>
      </trkpt>
      <trkpt lat="48.87625" lon="-1.55958">
        <ele>0.60000000000002</ele>
        <time>2022-08-27T11:05:20Z</time>
      </trkpt>
      <trkpt lat="48.87598" lon="-1.55984">
        <ele>1.4</ele>
        <time>2022-08-27T11:05:26Z</time>
      </trkpt>
      <trkpt lat="48.8757" lon="-1.56014">
        <ele>1.8</ele>
        <time>2022-08-27T11:05:32Z</time>
      </trkpt>
      <trkpt lat="48.87546" lon="-1.56041">
        <ele>2</ele>
        <time>2022-08-27T11:05:37Z</time>
      </trkpt>
      <trkpt lat="48.8754" lon="-1.56046">
        <ele>2</ele>
        <time>2022-08-27T11:05:38Z</time>
      </trkpt>
      <trkpt lat="48.87507" lon="-1.56069">
        <ele>2.4</ele>
        <time>2022-08-27T11:05:44Z</time>
      </trkpt>
      <trkpt lat="48.87482" lon="-1.56077">
        <ele>2.6</ele>
        <time>2022-08-27T11:05:48Z</time>
      </trkpt>
      <trkpt lat="48.8747" lon="-1.56078">
        <ele>2.6</ele>
        <time>2022-08-27T11:05:50Z</time>
      </trkpt>
      <trkpt lat="48.87458" lon="-1.56079">
        <ele>2.6</ele>
        <time>2022-08-27T11:05:52Z</time>
      </trkpt>
      <trkpt lat="48.87442" lon="-1.56079">
        <ele>2.6</ele>
        <time>2022-08-27T11:05:55Z</time>
      </trkpt>
      <trkpt lat="48.87418" lon="-1.56091">
        <ele>3</ele>
        <time>2022-08-27T11:06:00Z</time>
      </trkpt>
      <trkpt lat="48.87414" lon="-1.56094">
        <ele>3</ele>
        <time>2022-08-27T11:06:01Z</time>
      </trkpt>
      <trkpt lat="48.87405" lon="-1.56097">
        <ele>3</ele>
        <time>2022-08-27T11:06:03Z</time>
      </trkpt>
      <trkpt lat="48.87401" lon="-1.56098">
        <ele>3.2</ele>
        <time>2022-08-27T11:06:04Z</time>
      </trkpt>
      <trkpt lat="48.87397" lon="-1.56097">
        <ele>3.2</ele>
        <time>2022-08-27T11:06:05Z</time>
      </trkpt>
      <trkpt lat="48.8739" lon="-1.56088">
        <ele>3.4</ele>
        <time>2022-08-27T11:06:07Z</time>
      </trkpt>
      <trkpt lat="48.87387" lon="-1.56084">
        <ele>3.4</ele>
        <time>2022-08-27T11:06:08Z</time>
      </trkpt>
      <trkpt lat="48.87377" lon="-1.56069">
        <ele>3.6</ele>
        <time>2022-08-27T11:06:11Z</time>
      </trkpt>
      <trkpt lat="48.87344" lon="-1.56021">
        <ele>4</ele>
        <time>2022-08-27T11:06:20Z</time>
      </trkpt>
      <trkpt lat="48.87316" lon="-1.55981">
        <ele>4.2</ele>
        <time>2022-08-27T11:06:27Z</time>
      </trkpt>
      <trkpt lat="48.87284" lon="-1.55934">
        <ele>4.4</ele>
        <time>2022-08-27T11:06:35Z</time>
      </trkpt>
      <trkpt lat="48.87256" lon="-1.5589">
        <ele>4.6</ele>
        <time>2022-08-27T11:06:42Z</time>
      </trkpt>
      <trkpt lat="48.87235" lon="-1.55845">
        <ele>4.6</ele>
        <time>2022-08-27T11:06:48Z</time>
      </trkpt>
      <trkpt lat="48.87222" lon="-1.55801">
        <ele>4.6</ele>
        <time>2022-08-27T11:06:53Z</time>
      </trkpt>
      <trkpt lat="48.87219" lon="-1.55794">
        <ele>4.6</ele>
        <time>2022-08-27T11:06:54Z</time>
      </trkpt>
      <trkpt lat="48.87214" lon="-1.55789">
        <ele>4.6</ele>
        <time>2022-08-27T11:06:55Z</time>
      </trkpt>
      <trkpt lat="48.87204" lon="-1.55785">
        <ele>4.6</ele>
        <time>2022-08-27T11:06:57Z</time>
      </trkpt>
      <trkpt lat="48.87171" lon="-1.55779">
        <ele>4.6</ele>
        <time>2022-08-27T11:07:03Z</time>
      </trkpt>
      <trkpt lat="48.87165" lon="-1.55779">
        <ele>4.6</ele>
        <time>2022-08-27T11:07:04Z</time>
      </trkpt>
      <trkpt lat="48.87149" lon="-1.55784">
        <ele>4.8</ele>
        <time>2022-08-27T11:07:07Z</time>
      </trkpt>
      <trkpt lat="48.87144" lon="-1.55787">
        <ele>4.8</ele>
        <time>2022-08-27T11:07:08Z</time>
      </trkpt>
      <trkpt lat="48.87131" lon="-1.55798">
        <ele>4.8</ele>
        <time>2022-08-27T11:07:11Z</time>
      </trkpt>
      <trkpt lat="48.87108" lon="-1.55825">
        <ele>5</ele>
        <time>2022-08-27T11:07:16Z</time>
      </trkpt>
      <trkpt lat="48.87102" lon="-1.55829">
        <ele>5</ele>
        <time>2022-08-27T11:07:17Z</time>
      </trkpt>
      <trkpt lat="48.87087" lon="-1.55838">
        <ele>5</ele>
        <time>2022-08-27T11:07:20Z</time>
      </trkpt>
      <trkpt lat="48.87066" lon="-1.5585">
        <ele>4.8</ele>
        <time>2022-08-27T11:07:24Z</time>
      </trkpt>
      <trkpt lat="48.87042" lon="-1.55863">
        <ele>5</ele>
        <time>2022-08-27T11:07:29Z</time>
      </trkpt>
      <trkpt lat="48.86998" lon="-1.55881">
        <ele>5</ele>
        <time>2022-08-27T11:07:37Z</time>
      </trkpt>
      <trkpt lat="48.86965" lon="-1.55893">
        <ele>5</ele>
        <time>2022-08-27T11:07:43Z</time>
      </trkpt>
      <trkpt lat="48.86934" lon="-1.559">
        <ele>5.2</ele>
        <time>2022-08-27T11:07:49Z</time>
      </trkpt>
      <trkpt lat="48.86919" lon="-1.55902">
        <ele>5.4</ele>
        <time>2022-08-27T11:07:52Z</time>
      </trkpt>
      <trkpt lat="48.8691" lon="-1.55905">
        <ele>5.4</ele>
        <time>2022-08-27T11:07:54Z</time>
      </trkpt>
      <trkpt lat="48.86881" lon="-1.55914">
        <ele>5.6</ele>
        <time>2022-08-27T11:08:00Z</time>
      </trkpt>
      <trkpt lat="48.8686" lon="-1.55926">
        <ele>5.6</ele>
        <time>2022-08-27T11:08:05Z</time>
      </trkpt>
      <trkpt lat="48.86848" lon="-1.55925">
        <ele>5.6</ele>
        <time>2022-08-27T11:08:09Z</time>
      </trkpt>
      <trkpt lat="48.86843" lon="-1.55923">
        <ele>5.6</ele>
        <time>2022-08-27T11:08:14Z</time>
      </trkpt>
      <trkpt lat="48.86838" lon="-1.5593">
        <ele>7.8</ele>
        <time>2022-08-27T11:16:01Z</time>
      </trkpt>
      <trkpt lat="48.86835" lon="-1.55935">
        <ele>7.8</ele>
        <time>2022-08-27T11:16:03Z</time>
      </trkpt>
      <trkpt lat="48.8683" lon="-1.55941">
        <ele>8</ele>
        <time>2022-08-27T11:16:06Z</time>
      </trkpt>
      <trkpt lat="48.86826" lon="-1.55945">
        <ele>8</ele>
        <time>2022-08-27T11:16:08Z</time>
      </trkpt>
      <trkpt lat="48.8681" lon="-1.55955">
        <ele>8.2</ele>
        <time>2022-08-27T11:16:14Z</time>
      </trkpt>
      <trkpt lat="48.86788" lon="-1.55969">
        <ele>8</ele>
        <time>2022-08-27T11:16:20Z</time>
      </trkpt>
      <trkpt lat="48.86766" lon="-1.55982">
        <ele>8.2</ele>
        <time>2022-08-27T11:16:26Z</time>
      </trkpt>
      <trkpt lat="48.8674" lon="-1.55997">
        <ele>8.2</ele>
        <time>2022-08-27T11:16:32Z</time>
      </trkpt>
      <trkpt lat="48.86705" lon="-1.5602">
        <ele>8.2</ele>
        <time>2022-08-27T11:16:39Z</time>
      </trkpt>
      <trkpt lat="48.86672" lon="-1.56043">
        <ele>8.2</ele>
        <time>2022-08-27T11:16:46Z</time>
      </trkpt>
      <trkpt lat="48.86664" lon="-1.5605">
        <ele>8.2</ele>
        <time>2022-08-27T11:16:49Z</time>
      </trkpt>
      <trkpt lat="48.86663" lon="-1.5605">
        <ele>8.4</ele>
        <time>2022-08-27T11:16:51Z</time>
      </trkpt>
      <trkpt lat="48.8666" lon="-1.56056">
        <ele>8.4</ele>
        <time>2022-08-27T11:17:02Z</time>
      </trkpt>
      <trkpt lat="48.86657" lon="-1.5606">
        <ele>8.4</ele>
        <time>2022-08-27T11:17:03Z</time>
      </trkpt>
      <trkpt lat="48.86653" lon="-1.56063">
        <ele>8.4</ele>
        <time>2022-08-27T11:17:04Z</time>
      </trkpt>
      <trkpt lat="48.86644" lon="-1.56072">
        <ele>8.4</ele>
        <time>2022-08-27T11:17:06Z</time>
      </trkpt>
      <trkpt lat="48.86625" lon="-1.56088">
        <ele>8.2</ele>
        <time>2022-08-27T11:17:10Z</time>
      </trkpt>
      <trkpt lat="48.8659" lon="-1.56119">
        <ele>8</ele>
        <time>2022-08-27T11:17:17Z</time>
      </trkpt>
      <trkpt lat="48.86551" lon="-1.56158">
        <ele>7.8</ele>
        <time>2022-08-27T11:17:25Z</time>
      </trkpt>
      <trkpt lat="48.86514" lon="-1.56185">
        <ele>7.8</ele>
        <time>2022-08-27T11:17:32Z</time>
      </trkpt>
      <trkpt lat="48.8647" lon="-1.56214">
        <ele>7.6</ele>
        <time>2022-08-27T11:17:40Z</time>
      </trkpt>
      <trkpt lat="48.86432" lon="-1.56239">
        <ele>7.4</ele>
        <time>2022-08-27T11:17:47Z</time>
      </trkpt>
      <trkpt lat="48.86386" lon="-1.56269">
        <ele>7.4</ele>
        <time>2022-08-27T11:17:55Z</time>
      </trkpt>
      <trkpt lat="48.86351" lon="-1.56293">
        <ele>7.2</ele>
        <time>2022-08-27T11:18:01Z</time>
      </trkpt>
      <trkpt lat="48.86296" lon="-1.56328">
        <ele>7.2</ele>
        <time>2022-08-27T11:18:10Z</time>
      </trkpt>
      <trkpt lat="48.86263" lon="-1.56348">
        <ele>7.2</ele>
        <time>2022-08-27T11:18:15Z</time>
      </trkpt>
      <trkpt lat="48.8622" lon="-1.56372">
        <ele>7</ele>
        <time>2022-08-27T11:18:22Z</time>
      </trkpt>
      <trkpt lat="48.86191" lon="-1.56388">
        <ele>6.6</ele>
        <time>2022-08-27T11:18:27Z</time>
      </trkpt>
      <trkpt lat="48.86186" lon="-1.56392">
        <ele>6.6</ele>
        <time>2022-08-27T11:18:28Z</time>
      </trkpt>
      <trkpt lat="48.8617" lon="-1.56404">
        <ele>6.2</ele>
        <time>2022-08-27T11:18:31Z</time>
      </trkpt>
      <trkpt lat="48.86154" lon="-1.56422">
        <ele>5.8</ele>
        <time>2022-08-27T11:18:34Z</time>
      </trkpt>
      <trkpt lat="48.8615" lon="-1.56429">
        <ele>5.6</ele>
        <time>2022-08-27T11:18:35Z</time>
      </trkpt>
      <trkpt lat="48.86138" lon="-1.56454">
        <ele>5.2</ele>
        <time>2022-08-27T11:18:38Z</time>
      </trkpt>
      <trkpt lat="48.86126" lon="-1.56502">
        <ele>4.6</ele>
        <time>2022-08-27T11:18:43Z</time>
      </trkpt>
      <trkpt lat="48.86124" lon="-1.56523">
        <ele>4.4</ele>
        <time>2022-08-27T11:18:45Z</time>
      </trkpt>
      <trkpt lat="48.86124" lon="-1.56532">
        <ele>4.2</ele>
        <time>2022-08-27T11:18:46Z</time>
      </trkpt>
      <trkpt lat="48.86124" lon="-1.56593">
        <ele>3.6</ele>
        <time>2022-08-27T11:18:52Z</time>
      </trkpt>
      <trkpt lat="48.86119" lon="-1.56667">
        <ele>4</ele>
        <time>2022-08-27T11:18:59Z</time>
      </trkpt>
      <trkpt lat="48.86112" lon="-1.56696">
        <ele>4.2</ele>
        <time>2022-08-27T11:19:02Z</time>
      </trkpt>
      <trkpt lat="48.86105" lon="-1.56714">
        <ele>3</ele>
        <time>2022-08-27T11:19:04Z</time>
      </trkpt>
      <trkpt lat="48.86081" lon="-1.56752">
        <ele>3.8</ele>
        <time>2022-08-27T11:19:09Z</time>
      </trkpt>
      <trkpt lat="48.86052" lon="-1.56775">
        <ele>4.8</ele>
        <time>2022-08-27T11:19:14Z</time>
      </trkpt>
      <trkpt lat="48.86011" lon="-1.56803">
        <ele>4.2</ele>
        <time>2022-08-27T11:19:21Z</time>
      </trkpt>
      <trkpt lat="48.85961" lon="-1.56834">
        <ele>4.2</ele>
        <time>2022-08-27T11:19:29Z</time>
      </trkpt>
      <trkpt lat="48.85926" lon="-1.56857">
        <ele>4.2</ele>
        <time>2022-08-27T11:19:35Z</time>
      </trkpt>
      <trkpt lat="48.85891" lon="-1.56878">
        <ele>4.8</ele>
        <time>2022-08-27T11:19:41Z</time>
      </trkpt>
      <trkpt lat="48.8585" lon="-1.569">
        <ele>4.6</ele>
        <time>2022-08-27T11:19:48Z</time>
      </trkpt>
      <trkpt lat="48.85823" lon="-1.56921">
        <ele>4.6</ele>
        <time>2022-08-27T11:19:53Z</time>
      </trkpt>
      <trkpt lat="48.85792" lon="-1.56941">
        <ele>4.8</ele>
        <time>2022-08-27T11:19:59Z</time>
      </trkpt>
      <trkpt lat="48.85788" lon="-1.56944">
        <ele>4.8</ele>
        <time>2022-08-27T11:20:01Z</time>
      </trkpt>
      <trkpt lat="48.85785" lon="-1.56942">
        <ele>4.8</ele>
        <time>2022-08-27T11:20:02Z</time>
      </trkpt>
      <trkpt lat="48.85778" lon="-1.56923">
        <ele>5</ele>
        <time>2022-08-27T11:20:06Z</time>
      </trkpt>
      <trkpt lat="48.85765" lon="-1.56896">
        <ele>5.2</ele>
        <time>2022-08-27T11:20:11Z</time>
      </trkpt>
      <trkpt lat="48.85758" lon="-1.56877">
        <ele>5.2</ele>
        <time>2022-08-27T11:20:14Z</time>
      </trkpt>
      <trkpt lat="48.85746" lon="-1.56853">
        <ele>5.4</ele>
        <time>2022-08-27T11:20:18Z</time>
      </trkpt>
      <trkpt lat="48.85728" lon="-1.56814">
        <ele>5.6</ele>
        <time>2022-08-27T11:20:25Z</time>
      </trkpt>
      <trkpt lat="48.85725" lon="-1.5681">
        <ele>5.6</ele>
        <time>2022-08-27T11:20:26Z</time>
      </trkpt>
      <trkpt lat="48.85709" lon="-1.56809">
        <ele>5.8</ele>
        <time>2022-08-27T11:20:30Z</time>
      </trkpt>
      <trkpt lat="48.85705" lon="-1.5681">
        <ele>6</ele>
        <time>2022-08-27T11:20:31Z</time>
      </trkpt>
      <trkpt lat="48.85688" lon="-1.56814">
        <ele>6.2</ele>
        <time>2022-08-27T11:20:35Z</time>
      </trkpt>
      <trkpt lat="48.8568" lon="-1.56812">
        <ele>6.4</ele>
        <time>2022-08-27T11:20:37Z</time>
      </trkpt>
      <trkpt lat="48.85676" lon="-1.56809">
        <ele>6.6</ele>
        <time>2022-08-27T11:20:38Z</time>
      </trkpt>
      <trkpt lat="48.85673" lon="-1.56805">
        <ele>6.6</ele>
        <time>2022-08-27T11:20:39Z</time>
      </trkpt>
      <trkpt lat="48.85665" lon="-1.56792">
        <ele>6.8</ele>
        <time>2022-08-27T11:20:42Z</time>
      </trkpt>
      <trkpt lat="48.85655" lon="-1.56776">
        <ele>7</ele>
        <time>2022-08-27T11:20:46Z</time>
      </trkpt>
      <trkpt lat="48.85636" lon="-1.56751">
        <ele>7.6</ele>
        <time>2022-08-27T11:20:53Z</time>
      </trkpt>
      <trkpt lat="48.85624" lon="-1.5674">
        <ele>7.8</ele>
        <time>2022-08-27T11:20:57Z</time>
      </trkpt>
      <trkpt lat="48.85605" lon="-1.56724">
        <ele>8.6</ele>
        <time>2022-08-27T11:21:03Z</time>
      </trkpt>
      <trkpt lat="48.85586" lon="-1.56713">
        <ele>9.4</ele>
        <time>2022-08-27T11:21:10Z</time>
      </trkpt>
      <trkpt lat="48.85578" lon="-1.56721">
        <ele>9.6</ele>
        <time>2022-08-27T11:21:13Z</time>
      </trkpt>
      <trkpt lat="48.85569" lon="-1.56736">
        <ele>10</ele>
        <time>2022-08-27T11:21:17Z</time>
      </trkpt>
      <trkpt lat="48.85559" lon="-1.56759">
        <ele>10.6</ele>
        <time>2022-08-27T11:21:23Z</time>
      </trkpt>
      <trkpt lat="48.8555" lon="-1.56779">
        <ele>11.2</ele>
        <time>2022-08-27T11:21:28Z</time>
      </trkpt>
      <trkpt lat="48.85546" lon="-1.56796">
        <ele>12</ele>
        <time>2022-08-27T11:21:32Z</time>
      </trkpt>
      <trkpt lat="48.85542" lon="-1.56828">
        <ele>13.2</ele>
        <time>2022-08-27T11:21:39Z</time>
      </trkpt>
      <trkpt lat="48.85533" lon="-1.56846">
        <ele>13.8</ele>
        <time>2022-08-27T11:21:44Z</time>
      </trkpt>
      <trkpt lat="48.85528" lon="-1.56855">
        <ele>14</ele>
        <time>2022-08-27T11:21:47Z</time>
      </trkpt>
      <trkpt lat="48.85516" lon="-1.56874">
        <ele>14.2</ele>
        <time>2022-08-27T11:21:53Z</time>
      </trkpt>
      <trkpt lat="48.85514" lon="-1.56878">
        <ele>14.4</ele>
        <time>2022-08-27T11:21:54Z</time>
      </trkpt>
      <trkpt lat="48.85509" lon="-1.56885">
        <ele>14.6</ele>
        <time>2022-08-27T11:21:56Z</time>
      </trkpt>
      <trkpt lat="48.855" lon="-1.56903">
        <ele>15.4</ele>
        <time>2022-08-27T11:22:02Z</time>
      </trkpt>
      <trkpt lat="48.85496" lon="-1.56922">
        <ele>16.2</ele>
        <time>2022-08-27T11:22:07Z</time>
      </trkpt>
      <trkpt lat="48.85492" lon="-1.5695">
        <ele>17.4</ele>
        <time>2022-08-27T11:22:13Z</time>
      </trkpt>
      <trkpt lat="48.85487" lon="-1.56969">
        <ele>18.6</ele>
        <time>2022-08-27T11:22:18Z</time>
      </trkpt>
      <trkpt lat="48.85479" lon="-1.56985">
        <ele>19.6</ele>
        <time>2022-08-27T11:22:23Z</time>
      </trkpt>
      <trkpt lat="48.85474" lon="-1.56998">
        <ele>20.6</ele>
        <time>2022-08-27T11:22:28Z</time>
      </trkpt>
      <trkpt lat="48.85463" lon="-1.57017">
        <ele>22.2</ele>
        <time>2022-08-27T11:22:36Z</time>
      </trkpt>
      <trkpt lat="48.85456" lon="-1.57026">
        <ele>23</ele>
        <time>2022-08-27T11:22:40Z</time>
      </trkpt>
      <trkpt lat="48.85447" lon="-1.57035">
        <ele>24.2</ele>
        <time>2022-08-27T11:22:46Z</time>
      </trkpt>
      <trkpt lat="48.85445" lon="-1.57037">
        <ele>24.2</ele>
        <time>2022-08-27T11:22:47Z</time>
      </trkpt>
      <trkpt lat="48.8544" lon="-1.57038">
        <ele>24.8</ele>
        <time>2022-08-27T11:22:50Z</time>
      </trkpt>
      <trkpt lat="48.8543" lon="-1.57041">
        <ele>25.4</ele>
        <time>2022-08-27T11:22:55Z</time>
      </trkpt>
      <trkpt lat="48.85421" lon="-1.57044">
        <ele>26</ele>
        <time>2022-08-27T11:23:00Z</time>
      </trkpt>
      <trkpt lat="48.85411" lon="-1.57047">
        <ele>26.6</ele>
        <time>2022-08-27T11:23:04Z</time>
      </trkpt>
      <trkpt lat="48.85396" lon="-1.57055">
        <ele>27.6</ele>
        <time>2022-08-27T11:23:11Z</time>
      </trkpt>
      <trkpt lat="48.85382" lon="-1.5706">
        <ele>28.6</ele>
        <time>2022-08-27T11:23:16Z</time>
      </trkpt>
      <trkpt lat="48.85366" lon="-1.57068">
        <ele>30</ele>
        <time>2022-08-27T11:23:23Z</time>
      </trkpt>
      <trkpt lat="48.8535" lon="-1.5708">
        <ele>31.2</ele>
        <time>2022-08-27T11:23:30Z</time>
      </trkpt>
      <trkpt lat="48.85339" lon="-1.57089">
        <ele>32.4</ele>
        <time>2022-08-27T11:23:35Z</time>
      </trkpt>
      <trkpt lat="48.85321" lon="-1.57113">
        <ele>34</ele>
        <time>2022-08-27T11:23:44Z</time>
      </trkpt>
      <trkpt lat="48.85308" lon="-1.57135">
        <ele>35</ele>
        <time>2022-08-27T11:23:50Z</time>
      </trkpt>
      <trkpt lat="48.85294" lon="-1.57158">
        <ele>36.4</ele>
        <time>2022-08-27T11:23:56Z</time>
      </trkpt>
      <trkpt lat="48.85281" lon="-1.57182">
        <ele>37.6</ele>
        <time>2022-08-27T11:24:02Z</time>
      </trkpt>
      <trkpt lat="48.85268" lon="-1.57204">
        <ele>39</ele>
        <time>2022-08-27T11:24:08Z</time>
      </trkpt>
      <trkpt lat="48.85246" lon="-1.57242">
        <ele>40.6</ele>
        <time>2022-08-27T11:24:17Z</time>
      </trkpt>
      <trkpt lat="48.85231" lon="-1.57269">
        <ele>41.4</ele>
        <time>2022-08-27T11:24:22Z</time>
      </trkpt>
      <trkpt lat="48.85224" lon="-1.57282">
        <ele>41.6</ele>
        <time>2022-08-27T11:24:24Z</time>
      </trkpt>
      <trkpt lat="48.85218" lon="-1.57291">
        <ele>41.6</ele>
        <time>2022-08-27T11:24:26Z</time>
      </trkpt>
      <trkpt lat="48.85213" lon="-1.57303">
        <ele>41.6</ele>
        <time>2022-08-27T11:24:29Z</time>
      </trkpt>
      <trkpt lat="48.85214" lon="-1.57323">
        <ele>41.8</ele>
        <time>2022-08-27T11:24:33Z</time>
      </trkpt>
      <trkpt lat="48.85218" lon="-1.57354">
        <ele>42.2</ele>
        <time>2022-08-27T11:24:38Z</time>
      </trkpt>
      <trkpt lat="48.85224" lon="-1.57389">
        <ele>42.2</ele>
        <time>2022-08-27T11:24:43Z</time>
      </trkpt>
      <trkpt lat="48.85222" lon="-1.57424">
        <ele>42.2</ele>
        <time>2022-08-27T11:24:47Z</time>
      </trkpt>
      <trkpt lat="48.85218" lon="-1.57463">
        <ele>42.2</ele>
        <time>2022-08-27T11:24:51Z</time>
      </trkpt>
      <trkpt lat="48.85217" lon="-1.57473">
        <ele>42</ele>
        <time>2022-08-27T11:24:52Z</time>
      </trkpt>
      <trkpt lat="48.8521" lon="-1.57513">
        <ele>42</ele>
        <time>2022-08-27T11:24:56Z</time>
      </trkpt>
      <trkpt lat="48.85208" lon="-1.57522">
        <ele>42</ele>
        <time>2022-08-27T11:24:57Z</time>
      </trkpt>
      <trkpt lat="48.8519" lon="-1.57593">
        <ele>41.8</ele>
        <time>2022-08-27T11:25:04Z</time>
      </trkpt>
      <trkpt lat="48.85179" lon="-1.57636">
        <ele>41.6</ele>
        <time>2022-08-27T11:25:09Z</time>
      </trkpt>
      <trkpt lat="48.85174" lon="-1.57661">
        <ele>41.4</ele>
        <time>2022-08-27T11:25:13Z</time>
      </trkpt>
      <trkpt lat="48.85172" lon="-1.57669">
        <ele>41.4</ele>
        <time>2022-08-27T11:25:14Z</time>
      </trkpt>
      <trkpt lat="48.85158" lon="-1.57728">
        <ele>41.2</ele>
        <time>2022-08-27T11:25:21Z</time>
      </trkpt>
      <trkpt lat="48.85141" lon="-1.57784">
        <ele>41.2</ele>
        <time>2022-08-27T11:25:28Z</time>
      </trkpt>
      <trkpt lat="48.85119" lon="-1.57836">
        <ele>41</ele>
        <time>2022-08-27T11:25:35Z</time>
      </trkpt>
      <trkpt lat="48.85113" lon="-1.57851">
        <ele>40.8</ele>
        <time>2022-08-27T11:25:37Z</time>
      </trkpt>
      <trkpt lat="48.85102" lon="-1.57869">
        <ele>40.6</ele>
        <time>2022-08-27T11:25:40Z</time>
      </trkpt>
      <trkpt lat="48.85086" lon="-1.57895">
        <ele>40.4</ele>
        <time>2022-08-27T11:25:46Z</time>
      </trkpt>
      <trkpt lat="48.85073" lon="-1.579">
        <ele>40.2</ele>
        <time>2022-08-27T11:25:49Z</time>
      </trkpt>
      <trkpt lat="48.85068" lon="-1.579">
        <ele>40.2</ele>
        <time>2022-08-27T11:25:50Z</time>
      </trkpt>
      <trkpt lat="48.85063" lon="-1.57901">
        <ele>40.2</ele>
        <time>2022-08-27T11:25:51Z</time>
      </trkpt>
      <trkpt lat="48.85047" lon="-1.57907">
        <ele>40</ele>
        <time>2022-08-27T11:25:54Z</time>
      </trkpt>
      <trkpt lat="48.85015" lon="-1.57925">
        <ele>39.6</ele>
        <time>2022-08-27T11:26:00Z</time>
      </trkpt>
      <trkpt lat="48.84988" lon="-1.57941">
        <ele>39</ele>
        <time>2022-08-27T11:26:05Z</time>
      </trkpt>
      <trkpt lat="48.84956" lon="-1.57962">
        <ele>38.6</ele>
        <time>2022-08-27T11:26:11Z</time>
      </trkpt>
      <trkpt lat="48.84925" lon="-1.57982">
        <ele>38.2</ele>
        <time>2022-08-27T11:26:17Z</time>
      </trkpt>
      <trkpt lat="48.84892" lon="-1.57998">
        <ele>38</ele>
        <time>2022-08-27T11:26:23Z</time>
      </trkpt>
      <trkpt lat="48.84853" lon="-1.58012">
        <ele>37.4</ele>
        <time>2022-08-27T11:26:30Z</time>
      </trkpt>
      <trkpt lat="48.84841" lon="-1.58019">
        <ele>37.4</ele>
        <time>2022-08-27T11:26:32Z</time>
      </trkpt>
      <trkpt lat="48.8483" lon="-1.58028">
        <ele>37.2</ele>
        <time>2022-08-27T11:26:34Z</time>
      </trkpt>
      <trkpt lat="48.84815" lon="-1.58046">
        <ele>36.8</ele>
        <time>2022-08-27T11:26:37Z</time>
      </trkpt>
      <trkpt lat="48.84806" lon="-1.5806">
        <ele>36.4</ele>
        <time>2022-08-27T11:26:39Z</time>
      </trkpt>
      <trkpt lat="48.84777" lon="-1.58115">
        <ele>35.6</ele>
        <time>2022-08-27T11:26:46Z</time>
      </trkpt>
      <trkpt lat="48.84771" lon="-1.58132">
        <ele>35.4</ele>
        <time>2022-08-27T11:26:48Z</time>
      </trkpt>
      <trkpt lat="48.84764" lon="-1.58149">
        <ele>35.2</ele>
        <time>2022-08-27T11:26:50Z</time>
      </trkpt>
      <trkpt lat="48.84752" lon="-1.58171">
        <ele>34.8</ele>
        <time>2022-08-27T11:26:54Z</time>
      </trkpt>
      <trkpt lat="48.84748" lon="-1.58167">
        <ele>34.6</ele>
        <time>2022-08-27T11:26:56Z</time>
      </trkpt>
      <trkpt lat="48.84748" lon="-1.58163">
        <ele>34.6</ele>
        <time>2022-08-27T11:26:57Z</time>
      </trkpt>
      <trkpt lat="48.84751" lon="-1.58147">
        <ele>34.2</ele>
        <time>2022-08-27T11:27:01Z</time>
      </trkpt>
      <trkpt lat="48.84753" lon="-1.58136">
        <ele>34.2</ele>
        <time>2022-08-27T11:27:04Z</time>
      </trkpt>
      <trkpt lat="48.84751" lon="-1.58135">
        <ele>34.2</ele>
        <time>2022-08-27T11:27:05Z</time>
      </trkpt>
      <trkpt lat="48.8474" lon="-1.58137">
        <ele>33.8</ele>
        <time>2022-08-27T11:27:08Z</time>
      </trkpt>
      <trkpt lat="48.8471" lon="-1.5814">
        <ele>33.4</ele>
        <time>2022-08-27T11:27:13Z</time>
      </trkpt>
      <trkpt lat="48.84686" lon="-1.58151">
        <ele>33.2</ele>
        <time>2022-08-27T11:27:17Z</time>
      </trkpt>
      <trkpt lat="48.84675" lon="-1.58159">
        <ele>33</ele>
        <time>2022-08-27T11:27:19Z</time>
      </trkpt>
      <trkpt lat="48.84645" lon="-1.58181">
        <ele>32.8</ele>
        <time>2022-08-27T11:27:25Z</time>
      </trkpt>
      <trkpt lat="48.84635" lon="-1.58177">
        <ele>32.6</ele>
        <time>2022-08-27T11:27:27Z</time>
      </trkpt>
      <trkpt lat="48.84632" lon="-1.58174">
        <ele>32.4</ele>
        <time>2022-08-27T11:27:28Z</time>
      </trkpt>
      <trkpt lat="48.84625" lon="-1.58174">
        <ele>32.2</ele>
        <time>2022-08-27T11:27:30Z</time>
      </trkpt>
      <trkpt lat="48.84622" lon="-1.58179">
        <ele>32</ele>
        <time>2022-08-27T11:27:31Z</time>
      </trkpt>
      <trkpt lat="48.84609" lon="-1.58212">
        <ele>31.4</ele>
        <time>2022-08-27T11:27:36Z</time>
      </trkpt>
      <trkpt lat="48.84578" lon="-1.58274">
        <ele>31</ele>
        <time>2022-08-27T11:27:45Z</time>
      </trkpt>
      <trkpt lat="48.84543" lon="-1.58344">
        <ele>30.8</ele>
        <time>2022-08-27T11:27:55Z</time>
      </trkpt>
      <trkpt lat="48.84522" lon="-1.58388">
        <ele>31.2</ele>
        <time>2022-08-27T11:28:01Z</time>
      </trkpt>
      <trkpt lat="48.84512" lon="-1.58392">
        <ele>31</ele>
        <time>2022-08-27T11:28:03Z</time>
      </trkpt>
      <trkpt lat="48.84502" lon="-1.58382">
        <ele>31</ele>
        <time>2022-08-27T11:28:05Z</time>
      </trkpt>
      <trkpt lat="48.84498" lon="-1.58376">
        <ele>31</ele>
        <time>2022-08-27T11:28:06Z</time>
      </trkpt>
      <trkpt lat="48.84493" lon="-1.5837">
        <ele>30.8</ele>
        <time>2022-08-27T11:28:07Z</time>
      </trkpt>
      <trkpt lat="48.8448" lon="-1.58363">
        <ele>30.8</ele>
        <time>2022-08-27T11:28:09Z</time>
      </trkpt>
      <trkpt lat="48.84451" lon="-1.58347">
        <ele>30.4</ele>
        <time>2022-08-27T11:28:13Z</time>
      </trkpt>
      <trkpt lat="48.84442" lon="-1.58344">
        <ele>30.4</ele>
        <time>2022-08-27T11:28:14Z</time>
      </trkpt>
      <trkpt lat="48.84424" lon="-1.58342">
        <ele>30.2</ele>
        <time>2022-08-27T11:28:16Z</time>
      </trkpt>
      <trkpt lat="48.84405" lon="-1.58346">
        <ele>29.8</ele>
        <time>2022-08-27T11:28:18Z</time>
      </trkpt>
      <trkpt lat="48.84377" lon="-1.58369">
        <ele>29.2</ele>
        <time>2022-08-27T11:28:21Z</time>
      </trkpt>
      <trkpt lat="48.84361" lon="-1.58394">
        <ele>28.8</ele>
        <time>2022-08-27T11:28:23Z</time>
      </trkpt>
      <trkpt lat="48.84355" lon="-1.58409">
        <ele>28.6</ele>
        <time>2022-08-27T11:28:24Z</time>
      </trkpt>
      <trkpt lat="48.84323" lon="-1.58485">
        <ele>27.4</ele>
        <time>2022-08-27T11:28:29Z</time>
      </trkpt>
      <trkpt lat="48.84315" lon="-1.585">
        <ele>27.2</ele>
        <time>2022-08-27T11:28:30Z</time>
      </trkpt>
      <trkpt lat="48.84283" lon="-1.58553">
        <ele>26.2</ele>
        <time>2022-08-27T11:28:34Z</time>
      </trkpt>
      <trkpt lat="48.84235" lon="-1.58603">
        <ele>25</ele>
        <time>2022-08-27T11:28:39Z</time>
      </trkpt>
      <trkpt lat="48.84208" lon="-1.58624">
        <ele>24.4</ele>
        <time>2022-08-27T11:28:42Z</time>
      </trkpt>
      <trkpt lat="48.84199" lon="-1.58628">
        <ele>24.2</ele>
        <time>2022-08-27T11:28:43Z</time>
      </trkpt>
      <trkpt lat="48.84164" lon="-1.58636">
        <ele>23.4</ele>
        <time>2022-08-27T11:28:47Z</time>
      </trkpt>
      <trkpt lat="48.84127" lon="-1.58635">
        <ele>22.6</ele>
        <time>2022-08-27T11:28:52Z</time>
      </trkpt>
      <trkpt lat="48.84086" lon="-1.58628">
        <ele>21.8</ele>
        <time>2022-08-27T11:28:59Z</time>
      </trkpt>
      <trkpt lat="48.84066" lon="-1.58627">
        <ele>21.6</ele>
        <time>2022-08-27T11:29:03Z</time>
      </trkpt>
      <trkpt lat="48.84051" lon="-1.58627">
        <ele>21.4</ele>
        <time>2022-08-27T11:29:06Z</time>
      </trkpt>
      <trkpt lat="48.84041" lon="-1.58627">
        <ele>21.2</ele>
        <time>2022-08-27T11:29:08Z</time>
      </trkpt>
      <trkpt lat="48.84031" lon="-1.5863">
        <ele>21</ele>
        <time>2022-08-27T11:29:10Z</time>
      </trkpt>
      <trkpt lat="48.84026" lon="-1.58633">
        <ele>21</ele>
        <time>2022-08-27T11:29:11Z</time>
      </trkpt>
      <trkpt lat="48.84021" lon="-1.58637">
        <ele>21</ele>
        <time>2022-08-27T11:29:12Z</time>
      </trkpt>
      <trkpt lat="48.84" lon="-1.58656">
        <ele>20.6</ele>
        <time>2022-08-27T11:29:16Z</time>
      </trkpt>
      <trkpt lat="48.83958" lon="-1.58702">
        <ele>20.2</ele>
        <time>2022-08-27T11:29:24Z</time>
      </trkpt>
      <trkpt lat="48.83917" lon="-1.58753">
        <ele>19.6</ele>
        <time>2022-08-27T11:29:32Z</time>
      </trkpt>
      <trkpt lat="48.83901" lon="-1.58786">
        <ele>19</ele>
        <time>2022-08-27T11:29:36Z</time>
      </trkpt>
      <trkpt lat="48.83889" lon="-1.58813">
        <ele>18.6</ele>
        <time>2022-08-27T11:29:39Z</time>
      </trkpt>
      <trkpt lat="48.83886" lon="-1.58822">
        <ele>18.4</ele>
        <time>2022-08-27T11:29:40Z</time>
      </trkpt>
      <trkpt lat="48.83881" lon="-1.58843">
        <ele>18</ele>
        <time>2022-08-27T11:29:42Z</time>
      </trkpt>
      <trkpt lat="48.83877" lon="-1.58866">
        <ele>17.6</ele>
        <time>2022-08-27T11:29:44Z</time>
      </trkpt>
      <trkpt lat="48.83874" lon="-1.5889">
        <ele>17.4</ele>
        <time>2022-08-27T11:29:46Z</time>
      </trkpt>
      <trkpt lat="48.83874" lon="-1.58902">
        <ele>17.2</ele>
        <time>2022-08-27T11:29:47Z</time>
      </trkpt>
      <trkpt lat="48.83873" lon="-1.58923">
        <ele>16.8</ele>
        <time>2022-08-27T11:29:49Z</time>
      </trkpt>
      <trkpt lat="48.83873" lon="-1.58943">
        <ele>16.4</ele>
        <time>2022-08-27T11:29:51Z</time>
      </trkpt>
      <trkpt lat="48.83873" lon="-1.58985">
        <ele>15.8</ele>
        <time>2022-08-27T11:29:55Z</time>
      </trkpt>
      <trkpt lat="48.83871" lon="-1.59007">
        <ele>15.4</ele>
        <time>2022-08-27T11:29:57Z</time>
      </trkpt>
      <trkpt lat="48.83862" lon="-1.59077">
        <ele>14.4</ele>
        <time>2022-08-27T11:30:04Z</time>
      </trkpt>
      <trkpt lat="48.83854" lon="-1.59106">
        <ele>14</ele>
        <time>2022-08-27T11:30:07Z</time>
      </trkpt>
      <trkpt lat="48.83849" lon="-1.59124">
        <ele>13.8</ele>
        <time>2022-08-27T11:30:09Z</time>
      </trkpt>
      <trkpt lat="48.83835" lon="-1.59168">
        <ele>13.6</ele>
        <time>2022-08-27T11:30:14Z</time>
      </trkpt>
      <trkpt lat="48.83815" lon="-1.5921">
        <ele>13.2</ele>
        <time>2022-08-27T11:30:20Z</time>
      </trkpt>
      <trkpt lat="48.83804" lon="-1.59236">
        <ele>12.6</ele>
        <time>2022-08-27T11:30:26Z</time>
      </trkpt>
      <trkpt lat="48.83791" lon="-1.59279">
        <ele>12.2</ele>
        <time>2022-08-27T11:30:32Z</time>
      </trkpt>
      <trkpt lat="48.83785" lon="-1.59334">
        <ele>11.8</ele>
        <time>2022-08-27T11:30:38Z</time>
      </trkpt>
      <trkpt lat="48.83785" lon="-1.59353">
        <ele>11.8</ele>
        <time>2022-08-27T11:30:40Z</time>
      </trkpt>
      <trkpt lat="48.83787" lon="-1.59372">
        <ele>11.8</ele>
        <time>2022-08-27T11:30:42Z</time>
      </trkpt>
      <trkpt lat="48.83793" lon="-1.59398">
        <ele>11.8</ele>
        <time>2022-08-27T11:30:45Z</time>
      </trkpt>
      <trkpt lat="48.83797" lon="-1.59414">
        <ele>11.6</ele>
        <time>2022-08-27T11:30:47Z</time>
      </trkpt>
      <trkpt lat="48.83804" lon="-1.59455">
        <ele>11.2</ele>
        <time>2022-08-27T11:30:52Z</time>
      </trkpt>
      <trkpt lat="48.83807" lon="-1.59469">
        <ele>11</ele>
        <time>2022-08-27T11:30:54Z</time>
      </trkpt>
      <trkpt lat="48.83814" lon="-1.59494">
        <ele>10.8</ele>
        <time>2022-08-27T11:30:58Z</time>
      </trkpt>
      <trkpt lat="48.8382" lon="-1.59514">
        <ele>11</ele>
        <time>2022-08-27T11:31:02Z</time>
      </trkpt>
      <trkpt lat="48.83821" lon="-1.5952">
        <ele>10.8</ele>
        <time>2022-08-27T11:31:03Z</time>
      </trkpt>
      <trkpt lat="48.83822" lon="-1.59543">
        <ele>10.8</ele>
        <time>2022-08-27T11:31:06Z</time>
      </trkpt>
      <trkpt lat="48.83813" lon="-1.59592">
        <ele>11</ele>
        <time>2022-08-27T11:31:12Z</time>
      </trkpt>
      <trkpt lat="48.83799" lon="-1.59641">
        <ele>11</ele>
        <time>2022-08-27T11:31:18Z</time>
      </trkpt>
      <trkpt lat="48.83796" lon="-1.59649">
        <ele>10.6</ele>
        <time>2022-08-27T11:31:19Z</time>
      </trkpt>
      <trkpt lat="48.8378" lon="-1.59706">
        <ele>10.8</ele>
        <time>2022-08-27T11:31:27Z</time>
      </trkpt>
      <trkpt lat="48.83774" lon="-1.59719">
        <ele>10.8</ele>
        <time>2022-08-27T11:31:29Z</time>
      </trkpt>
      <trkpt lat="48.8377" lon="-1.59732">
        <ele>10.8</ele>
        <time>2022-08-27T11:31:31Z</time>
      </trkpt>
      <trkpt lat="48.83757" lon="-1.5977">
        <ele>10.2</ele>
        <time>2022-08-27T11:31:38Z</time>
      </trkpt>
      <trkpt lat="48.8375" lon="-1.59779">
        <ele>10</ele>
        <time>2022-08-27T11:31:41Z</time>
      </trkpt>
      <trkpt lat="48.83747" lon="-1.59778">
        <ele>9.8</ele>
        <time>2022-08-27T11:31:42Z</time>
      </trkpt>
      <trkpt lat="48.8374" lon="-1.5977">
        <ele>9.2</ele>
        <time>2022-08-27T11:31:46Z</time>
      </trkpt>
      <trkpt lat="48.83731" lon="-1.59783">
        <ele>8.6</ele>
        <time>2022-08-27T11:31:49Z</time>
      </trkpt>
      <trkpt lat="48.83712" lon="-1.59813">
        <ele>7.4</ele>
        <time>2022-08-27T11:31:55Z</time>
      </trkpt>
      <trkpt lat="48.83701" lon="-1.59829">
        <ele>6.8</ele>
        <time>2022-08-27T11:31:59Z</time>
      </trkpt>
      <trkpt lat="48.837" lon="-1.59831">
        <ele>6.6</ele>
        <time>2022-08-27T11:32:00Z</time>
      </trkpt>
      <trkpt lat="48.83693" lon="-1.59842">
        <ele>6.4</ele>
        <time>2022-08-27T11:32:03Z</time>
      </trkpt>
      <trkpt lat="48.83674" lon="-1.59866">
        <ele>5.4</ele>
        <time>2022-08-27T11:32:08Z</time>
      </trkpt>
      <trkpt lat="48.83657" lon="-1.59886">
        <ele>4.8</ele>
        <time>2022-08-27T11:32:12Z</time>
      </trkpt>
      <trkpt lat="48.83653" lon="-1.59892">
        <ele>4.4</ele>
        <time>2022-08-27T11:32:15Z</time>
      </trkpt>
      <trkpt lat="48.83647" lon="-1.59893">
        <ele>3.6</ele>
        <time>2022-08-27T11:32:23Z</time>
      </trkpt>
      <trkpt lat="48.83641" lon="-1.59891">
        <ele>3.6</ele>
        <time>2022-08-27T11:32:25Z</time>
      </trkpt>
      <trkpt lat="48.83637" lon="-1.59887">
        <ele>3.2</ele>
        <time>2022-08-27T11:32:27Z</time>
      </trkpt>
      <trkpt lat="48.83635" lon="-1.59881">
        <ele>2.8</ele>
        <time>2022-08-27T11:32:29Z</time>
      </trkpt>
      <trkpt lat="48.83626" lon="-1.59854">
        <ele>1.6</ele>
        <time>2022-08-27T11:32:36Z</time>
      </trkpt>
      <trkpt lat="48.83612" lon="-1.59824">
        <ele>0.60000000000002</ele>
        <time>2022-08-27T11:32:43Z</time>
      </trkpt>
      <trkpt lat="48.83591" lon="-1.59795">
        <ele>1.6</ele>
        <time>2022-08-27T11:32:50Z</time>
      </trkpt>
      <trkpt lat="48.83572" lon="-1.59739">
        <ele>2.2</ele>
        <time>2022-08-27T11:32:58Z</time>
      </trkpt>
      <trkpt lat="48.8356" lon="-1.59697">
        <ele>2.6</ele>
        <time>2022-08-27T11:33:04Z</time>
      </trkpt>
      <trkpt lat="48.83556" lon="-1.59673">
        <ele>2.6</ele>
        <time>2022-08-27T11:33:07Z</time>
      </trkpt>
      <trkpt lat="48.83557" lon="-1.59648">
        <ele>2.8</ele>
        <time>2022-08-27T11:33:10Z</time>
      </trkpt>
      <trkpt lat="48.83559" lon="-1.59619">
        <ele>3.2</ele>
        <time>2022-08-27T11:33:14Z</time>
      </trkpt>
      <trkpt lat="48.8356" lon="-1.59605">
        <ele>3.4</ele>
        <time>2022-08-27T11:33:16Z</time>
      </trkpt>
      <trkpt lat="48.83555" lon="-1.59578">
        <ele>3.8</ele>
        <time>2022-08-27T11:33:21Z</time>
      </trkpt>
      <trkpt lat="48.83549" lon="-1.59561">
        <ele>4</ele>
        <time>2022-08-27T11:33:25Z</time>
      </trkpt>
      <trkpt lat="48.83554" lon="-1.59542">
        <ele>4.2</ele>
        <time>2022-08-27T11:33:29Z</time>
      </trkpt>
      <trkpt lat="48.8355" lon="-1.59519">
        <ele>4.4</ele>
        <time>2022-08-27T11:33:33Z</time>
      </trkpt>
      <trkpt lat="48.83543" lon="-1.59498">
        <ele>4.4</ele>
        <time>2022-08-27T11:33:36Z</time>
      </trkpt>
      <trkpt lat="48.83537" lon="-1.59487">
        <ele>4.6</ele>
        <time>2022-08-27T11:33:38Z</time>
      </trkpt>
      <trkpt lat="48.83513" lon="-1.59442">
        <ele>5</ele>
        <time>2022-08-27T11:33:45Z</time>
      </trkpt>
      <trkpt lat="48.8349" lon="-1.59397">
        <ele>5.2</ele>
        <time>2022-08-27T11:33:52Z</time>
      </trkpt>
      <trkpt lat="48.83487" lon="-1.5939">
        <ele>5.4</ele>
        <time>2022-08-27T11:33:53Z</time>
      </trkpt>
      <trkpt lat="48.83471" lon="-1.59357">
        <ele>5.6</ele>
        <time>2022-08-27T11:33:58Z</time>
      </trkpt>
      <trkpt lat="48.83447" lon="-1.59311">
        <ele>5.8</ele>
        <time>2022-08-27T11:34:05Z</time>
      </trkpt>
      <trkpt lat="48.83435" lon="-1.59282">
        <ele>6.2</ele>
        <time>2022-08-27T11:34:09Z</time>
      </trkpt>
      <trkpt lat="48.8343" lon="-1.59268">
        <ele>6.2</ele>
        <time>2022-08-27T11:34:11Z</time>
      </trkpt>
      <trkpt lat="48.83418" lon="-1.59231">
        <ele>6.6</ele>
        <time>2022-08-27T11:34:17Z</time>
      </trkpt>
      <trkpt lat="48.83407" lon="-1.592">
        <ele>7.4</ele>
        <time>2022-08-27T11:34:23Z</time>
      </trkpt>
      <trkpt lat="48.83394" lon="-1.59166">
        <ele>8</ele>
        <time>2022-08-27T11:34:30Z</time>
      </trkpt>
      <trkpt lat="48.83392" lon="-1.59161">
        <ele>8</ele>
        <time>2022-08-27T11:34:31Z</time>
      </trkpt>
      <trkpt lat="48.8338" lon="-1.59131">
        <ele>8.4</ele>
        <time>2022-08-27T11:34:37Z</time>
      </trkpt>
      <trkpt lat="48.83369" lon="-1.591">
        <ele>9</ele>
        <time>2022-08-27T11:34:43Z</time>
      </trkpt>
      <trkpt lat="48.83364" lon="-1.59076">
        <ele>9.2</ele>
        <time>2022-08-27T11:34:48Z</time>
      </trkpt>
      <trkpt lat="48.83353" lon="-1.59054">
        <ele>10</ele>
        <time>2022-08-27T11:34:54Z</time>
      </trkpt>
      <trkpt lat="48.8335" lon="-1.59025">
        <ele>10.8</ele>
        <time>2022-08-27T11:35:01Z</time>
      </trkpt>
      <trkpt lat="48.83354" lon="-1.59004">
        <ele>11.4</ele>
        <time>2022-08-27T11:35:06Z</time>
      </trkpt>
      <trkpt lat="48.83362" lon="-1.58972">
        <ele>12.6</ele>
        <time>2022-08-27T11:35:13Z</time>
      </trkpt>
      <trkpt lat="48.8337" lon="-1.58939">
        <ele>14</ele>
        <time>2022-08-27T11:35:20Z</time>
      </trkpt>
      <trkpt lat="48.83372" lon="-1.5891">
        <ele>15.4</ele>
        <time>2022-08-27T11:35:26Z</time>
      </trkpt>
      <trkpt lat="48.83371" lon="-1.58879">
        <ele>17.4</ele>
        <time>2022-08-27T11:35:33Z</time>
      </trkpt>
      <trkpt lat="48.83364" lon="-1.58841">
        <ele>19.2</ele>
        <time>2022-08-27T11:35:41Z</time>
      </trkpt>
      <trkpt lat="48.83358" lon="-1.58809">
        <ele>20.6</ele>
        <time>2022-08-27T11:35:48Z</time>
      </trkpt>
      <trkpt lat="48.8335" lon="-1.58783">
        <ele>21.6</ele>
        <time>2022-08-27T11:35:54Z</time>
      </trkpt>
      <trkpt lat="48.83345" lon="-1.58761">
        <ele>22.4</ele>
        <time>2022-08-27T11:35:59Z</time>
      </trkpt>
      <trkpt lat="48.8334" lon="-1.58745">
        <ele>23</ele>
        <time>2022-08-27T11:36:03Z</time>
      </trkpt>
      <trkpt lat="48.83337" lon="-1.58742">
        <ele>23.2</ele>
        <time>2022-08-27T11:36:04Z</time>
      </trkpt>
      <trkpt lat="48.8333" lon="-1.58725">
        <ele>23.8</ele>
        <time>2022-08-27T11:36:08Z</time>
      </trkpt>
      <trkpt lat="48.83327" lon="-1.58701">
        <ele>24.4</ele>
        <time>2022-08-27T11:36:12Z</time>
      </trkpt>
      <trkpt lat="48.83326" lon="-1.58695">
        <ele>24.6</ele>
        <time>2022-08-27T11:36:13Z</time>
      </trkpt>
      <trkpt lat="48.83321" lon="-1.58676">
        <ele>25</ele>
        <time>2022-08-27T11:36:16Z</time>
      </trkpt>
      <trkpt lat="48.83313" lon="-1.58653">
        <ele>25.4</ele>
        <time>2022-08-27T11:36:20Z</time>
      </trkpt>
      <trkpt lat="48.833" lon="-1.58612">
        <ele>26</ele>
        <time>2022-08-27T11:36:26Z</time>
      </trkpt>
      <trkpt lat="48.83289" lon="-1.58562">
        <ele>26.6</ele>
        <time>2022-08-27T11:36:33Z</time>
      </trkpt>
      <trkpt lat="48.83274" lon="-1.58517">
        <ele>27.2</ele>
        <time>2022-08-27T11:36:39Z</time>
      </trkpt>
      <trkpt lat="48.83248" lon="-1.58473">
        <ele>27.4</ele>
        <time>2022-08-27T11:36:45Z</time>
      </trkpt>
      <trkpt lat="48.8322" lon="-1.58436">
        <ele>27.2</ele>
        <time>2022-08-27T11:36:50Z</time>
      </trkpt>
      <trkpt lat="48.8319" lon="-1.58389">
        <ele>27.2</ele>
        <time>2022-08-27T11:36:55Z</time>
      </trkpt>
      <trkpt lat="48.83185" lon="-1.58378">
        <ele>26.6</ele>
        <time>2022-08-27T11:36:56Z</time>
      </trkpt>
      <trkpt lat="48.8317" lon="-1.5833">
        <ele>26.2</ele>
        <time>2022-08-27T11:37:00Z</time>
      </trkpt>
      <trkpt lat="48.83167" lon="-1.58317">
        <ele>26</ele>
        <time>2022-08-27T11:37:01Z</time>
      </trkpt>
      <trkpt lat="48.8316" lon="-1.58293">
        <ele>25.8</ele>
        <time>2022-08-27T11:37:03Z</time>
      </trkpt>
      <trkpt lat="48.8315" lon="-1.5827">
        <ele>25.6</ele>
        <time>2022-08-27T11:37:05Z</time>
      </trkpt>
      <trkpt lat="48.83145" lon="-1.58259">
        <ele>25.4</ele>
        <time>2022-08-27T11:37:06Z</time>
      </trkpt>
      <trkpt lat="48.83132" lon="-1.58241">
        <ele>25.2</ele>
        <time>2022-08-27T11:37:08Z</time>
      </trkpt>
      <trkpt lat="48.83094" lon="-1.58202">
        <ele>24.6</ele>
        <time>2022-08-27T11:37:13Z</time>
      </trkpt>
      <trkpt lat="48.83067" lon="-1.58184">
        <ele>24.4</ele>
        <time>2022-08-27T11:37:17Z</time>
      </trkpt>
      <trkpt lat="48.83042" lon="-1.58164">
        <ele>24.4</ele>
        <time>2022-08-27T11:37:22Z</time>
      </trkpt>
      <trkpt lat="48.83015" lon="-1.58143">
        <ele>24.6</ele>
        <time>2022-08-27T11:37:29Z</time>
      </trkpt>
      <trkpt lat="48.8299" lon="-1.58125">
        <ele>25.2</ele>
        <time>2022-08-27T11:37:36Z</time>
      </trkpt>
      <trkpt lat="48.82965" lon="-1.58105">
        <ele>25</ele>
        <time>2022-08-27T11:37:44Z</time>
      </trkpt>
      <trkpt lat="48.82941" lon="-1.58088">
        <ele>25.8</ele>
        <time>2022-08-27T11:37:51Z</time>
      </trkpt>
      <trkpt lat="48.82938" lon="-1.58086">
        <ele>26</ele>
        <time>2022-08-27T11:37:52Z</time>
      </trkpt>
      <trkpt lat="48.82927" lon="-1.58076">
        <ele>26.4</ele>
        <time>2022-08-27T11:37:55Z</time>
      </trkpt>
      <trkpt lat="48.82906" lon="-1.58054">
        <ele>27</ele>
        <time>2022-08-27T11:38:02Z</time>
      </trkpt>
      <trkpt lat="48.82882" lon="-1.58026">
        <ele>27.6</ele>
        <time>2022-08-27T11:38:10Z</time>
      </trkpt>
      <trkpt lat="48.82863" lon="-1.58">
        <ele>28.4</ele>
        <time>2022-08-27T11:38:17Z</time>
      </trkpt>
      <trkpt lat="48.82851" lon="-1.57982">
        <ele>28.8</ele>
        <time>2022-08-27T11:38:21Z</time>
      </trkpt>
      <trkpt lat="48.8284" lon="-1.57971">
        <ele>29</ele>
        <time>2022-08-27T11:38:24Z</time>
      </trkpt>
      <trkpt lat="48.82827" lon="-1.57954">
        <ele>29.4</ele>
        <time>2022-08-27T11:38:28Z</time>
      </trkpt>
      <trkpt lat="48.82811" lon="-1.57934">
        <ele>29.8</ele>
        <time>2022-08-27T11:38:33Z</time>
      </trkpt>
      <trkpt lat="48.82808" lon="-1.57931">
        <ele>29.8</ele>
        <time>2022-08-27T11:38:34Z</time>
      </trkpt>
      <trkpt lat="48.82783" lon="-1.57908">
        <ele>30.2</ele>
        <time>2022-08-27T11:38:40Z</time>
      </trkpt>
      <trkpt lat="48.82751" lon="-1.57888">
        <ele>30.4</ele>
        <time>2022-08-27T11:38:46Z</time>
      </trkpt>
      <trkpt lat="48.82709" lon="-1.57863">
        <ele>30.2</ele>
        <time>2022-08-27T11:38:52Z</time>
      </trkpt>
      <trkpt lat="48.82657" lon="-1.57834">
        <ele>29.6</ele>
        <time>2022-08-27T11:38:58Z</time>
      </trkpt>
      <trkpt lat="48.8261" lon="-1.57806">
        <ele>28.8</ele>
        <time>2022-08-27T11:39:03Z</time>
      </trkpt>
      <trkpt lat="48.82565" lon="-1.57768">
        <ele>28</ele>
        <time>2022-08-27T11:39:08Z</time>
      </trkpt>
      <trkpt lat="48.82527" lon="-1.57729">
        <ele>27.6</ele>
        <time>2022-08-27T11:39:13Z</time>
      </trkpt>
      <trkpt lat="48.8252" lon="-1.57722">
        <ele>27.4</ele>
        <time>2022-08-27T11:39:14Z</time>
      </trkpt>
      <trkpt lat="48.82495" lon="-1.577">
        <ele>27.4</ele>
        <time>2022-08-27T11:39:18Z</time>
      </trkpt>
      <trkpt lat="48.82479" lon="-1.57684">
        <ele>27.2</ele>
        <time>2022-08-27T11:39:21Z</time>
      </trkpt>
      <trkpt lat="48.82461" lon="-1.57659">
        <ele>27</ele>
        <time>2022-08-27T11:39:25Z</time>
      </trkpt>
      <trkpt lat="48.82426" lon="-1.57608">
        <ele>26.8</ele>
        <time>2022-08-27T11:39:33Z</time>
      </trkpt>
      <trkpt lat="48.82397" lon="-1.57565">
        <ele>26.6</ele>
        <time>2022-08-27T11:39:40Z</time>
      </trkpt>
      <trkpt lat="48.82365" lon="-1.57532">
        <ele>26.6</ele>
        <time>2022-08-27T11:39:47Z</time>
      </trkpt>
      <trkpt lat="48.82335" lon="-1.57511">
        <ele>26.4</ele>
        <time>2022-08-27T11:39:53Z</time>
      </trkpt>
      <trkpt lat="48.82324" lon="-1.57506">
        <ele>26.4</ele>
        <time>2022-08-27T11:39:55Z</time>
      </trkpt>
      <trkpt lat="48.82281" lon="-1.57487">
        <ele>26.2</ele>
        <time>2022-08-27T11:40:03Z</time>
      </trkpt>
      <trkpt lat="48.82254" lon="-1.57472">
        <ele>26</ele>
        <time>2022-08-27T11:40:08Z</time>
      </trkpt>
      <trkpt lat="48.82224" lon="-1.57449">
        <ele>25.4</ele>
        <time>2022-08-27T11:40:13Z</time>
      </trkpt>
      <trkpt lat="48.82199" lon="-1.57429">
        <ele>24.8</ele>
        <time>2022-08-27T11:40:18Z</time>
      </trkpt>
      <trkpt lat="48.8219" lon="-1.57423">
        <ele>24.4</ele>
        <time>2022-08-27T11:40:20Z</time>
      </trkpt>
      <trkpt lat="48.82182" lon="-1.57419">
        <ele>24.2</ele>
        <time>2022-08-27T11:40:22Z</time>
      </trkpt>
      <trkpt lat="48.82178" lon="-1.57415">
        <ele>24</ele>
        <time>2022-08-27T11:40:23Z</time>
      </trkpt>
      <trkpt lat="48.82174" lon="-1.57409">
        <ele>23.8</ele>
        <time>2022-08-27T11:40:24Z</time>
      </trkpt>
      <trkpt lat="48.82168" lon="-1.57395">
        <ele>23.4</ele>
        <time>2022-08-27T11:40:26Z</time>
      </trkpt>
      <trkpt lat="48.82167" lon="-1.57387">
        <ele>23.2</ele>
        <time>2022-08-27T11:40:27Z</time>
      </trkpt>
      <trkpt lat="48.82166" lon="-1.5738">
        <ele>23</ele>
        <time>2022-08-27T11:40:28Z</time>
      </trkpt>
      <trkpt lat="48.82162" lon="-1.57368">
        <ele>22.6</ele>
        <time>2022-08-27T11:40:30Z</time>
      </trkpt>
      <trkpt lat="48.82158" lon="-1.57362">
        <ele>22.4</ele>
        <time>2022-08-27T11:40:31Z</time>
      </trkpt>
      <trkpt lat="48.82148" lon="-1.57352">
        <ele>22</ele>
        <time>2022-08-27T11:40:33Z</time>
      </trkpt>
      <trkpt lat="48.8214" lon="-1.57339">
        <ele>21.6</ele>
        <time>2022-08-27T11:40:35Z</time>
      </trkpt>
      <trkpt lat="48.82134" lon="-1.57335">
        <ele>21.4</ele>
        <time>2022-08-27T11:40:36Z</time>
      </trkpt>
      <trkpt lat="48.82092" lon="-1.57322">
        <ele>20.2</ele>
        <time>2022-08-27T11:40:42Z</time>
      </trkpt>
      <trkpt lat="48.82034" lon="-1.57303">
        <ele>18.8</ele>
        <time>2022-08-27T11:40:50Z</time>
      </trkpt>
      <trkpt lat="48.8198" lon="-1.57286">
        <ele>17.8</ele>
        <time>2022-08-27T11:40:58Z</time>
      </trkpt>
      <trkpt lat="48.81935" lon="-1.57272">
        <ele>17.2</ele>
        <time>2022-08-27T11:41:05Z</time>
      </trkpt>
      <trkpt lat="48.81883" lon="-1.57257">
        <ele>16.4</ele>
        <time>2022-08-27T11:41:13Z</time>
      </trkpt>
      <trkpt lat="48.81841" lon="-1.57243">
        <ele>16</ele>
        <time>2022-08-27T11:41:20Z</time>
      </trkpt>
      <trkpt lat="48.81791" lon="-1.57228">
        <ele>15.2</ele>
        <time>2022-08-27T11:41:28Z</time>
      </trkpt>
      <trkpt lat="48.8174" lon="-1.57214">
        <ele>14.6</ele>
        <time>2022-08-27T11:41:36Z</time>
      </trkpt>
      <trkpt lat="48.81697" lon="-1.57201">
        <ele>13.8</ele>
        <time>2022-08-27T11:41:43Z</time>
      </trkpt>
      <trkpt lat="48.81663" lon="-1.57189">
        <ele>13.2</ele>
        <time>2022-08-27T11:41:49Z</time>
      </trkpt>
      <trkpt lat="48.81658" lon="-1.57185">
        <ele>13.2</ele>
        <time>2022-08-27T11:41:50Z</time>
      </trkpt>
      <trkpt lat="48.81654" lon="-1.5718">
        <ele>13</ele>
        <time>2022-08-27T11:41:51Z</time>
      </trkpt>
      <trkpt lat="48.81646" lon="-1.57168">
        <ele>12.8</ele>
        <time>2022-08-27T11:41:53Z</time>
      </trkpt>
      <trkpt lat="48.81643" lon="-1.57161">
        <ele>12.8</ele>
        <time>2022-08-27T11:41:54Z</time>
      </trkpt>
      <trkpt lat="48.81641" lon="-1.57153">
        <ele>12.6</ele>
        <time>2022-08-27T11:41:55Z</time>
      </trkpt>
      <trkpt lat="48.81637" lon="-1.57123">
        <ele>12.4</ele>
        <time>2022-08-27T11:41:59Z</time>
      </trkpt>
      <trkpt lat="48.81633" lon="-1.5709">
        <ele>12.6</ele>
        <time>2022-08-27T11:42:05Z</time>
      </trkpt>
      <trkpt lat="48.81623" lon="-1.57065">
        <ele>12.6</ele>
        <time>2022-08-27T11:42:11Z</time>
      </trkpt>
      <trkpt lat="48.81608" lon="-1.57053">
        <ele>12.8</ele>
        <time>2022-08-27T11:42:16Z</time>
      </trkpt>
      <trkpt lat="48.81586" lon="-1.57044">
        <ele>13.4</ele>
        <time>2022-08-27T11:42:23Z</time>
      </trkpt>
      <trkpt lat="48.81562" lon="-1.57039">
        <ele>13.8</ele>
        <time>2022-08-27T11:42:31Z</time>
      </trkpt>
      <trkpt lat="48.81552" lon="-1.57028">
        <ele>14.2</ele>
        <time>2022-08-27T11:42:35Z</time>
      </trkpt>
      <trkpt lat="48.81534" lon="-1.57004">
        <ele>14.4</ele>
        <time>2022-08-27T11:42:43Z</time>
      </trkpt>
      <trkpt lat="48.81531" lon="-1.57004">
        <ele>14.4</ele>
        <time>2022-08-27T11:42:44Z</time>
      </trkpt>
      <trkpt lat="48.81525" lon="-1.57008">
        <ele>14.6</ele>
        <time>2022-08-27T11:42:46Z</time>
      </trkpt>
      <trkpt lat="48.81509" lon="-1.57025">
        <ele>15</ele>
        <time>2022-08-27T11:42:51Z</time>
      </trkpt>
      <trkpt lat="48.81505" lon="-1.57025">
        <ele>15.2</ele>
        <time>2022-08-27T11:42:52Z</time>
      </trkpt>
      <trkpt lat="48.81499" lon="-1.57021">
        <ele>15.2</ele>
        <time>2022-08-27T11:42:54Z</time>
      </trkpt>
      <trkpt lat="48.8147" lon="-1.57002">
        <ele>15.2</ele>
        <time>2022-08-27T11:43:02Z</time>
      </trkpt>
      <trkpt lat="48.81466" lon="-1.56998">
        <ele>15.2</ele>
        <time>2022-08-27T11:43:03Z</time>
      </trkpt>
      <trkpt lat="48.8146" lon="-1.5699">
        <ele>15.4</ele>
        <time>2022-08-27T11:43:05Z</time>
      </trkpt>
      <trkpt lat="48.81455" lon="-1.56986">
        <ele>15.4</ele>
        <time>2022-08-27T11:43:06Z</time>
      </trkpt>
      <trkpt lat="48.81432" lon="-1.56967">
        <ele>15.4</ele>
        <time>2022-08-27T11:43:10Z</time>
      </trkpt>
      <trkpt lat="48.81417" lon="-1.56956">
        <ele>15.4</ele>
        <time>2022-08-27T11:43:12Z</time>
      </trkpt>
      <trkpt lat="48.81409" lon="-1.5695">
        <ele>15.4</ele>
        <time>2022-08-27T11:43:13Z</time>
      </trkpt>
      <trkpt lat="48.81367" lon="-1.5693">
        <ele>15.4</ele>
        <time>2022-08-27T11:43:18Z</time>
      </trkpt>
      <trkpt lat="48.81353" lon="-1.56941">
        <ele>14.8</ele>
        <time>2022-08-27T11:43:20Z</time>
      </trkpt>
      <trkpt lat="48.81333" lon="-1.5696">
        <ele>15</ele>
        <time>2022-08-27T11:43:23Z</time>
      </trkpt>
      <trkpt lat="48.81318" lon="-1.56968">
        <ele>14.8</ele>
        <time>2022-08-27T11:43:25Z</time>
      </trkpt>
      <trkpt lat="48.81264" lon="-1.56984">
        <ele>14.6</ele>
        <time>2022-08-27T11:43:32Z</time>
      </trkpt>
      <trkpt lat="48.81256" lon="-1.56986">
        <ele>14.6</ele>
        <time>2022-08-27T11:43:33Z</time>
      </trkpt>
      <trkpt lat="48.81202" lon="-1.56999">
        <ele>14.6</ele>
        <time>2022-08-27T11:43:40Z</time>
      </trkpt>
      <trkpt lat="48.81187" lon="-1.57003">
        <ele>14.4</ele>
        <time>2022-08-27T11:43:42Z</time>
      </trkpt>
      <trkpt lat="48.81132" lon="-1.57016">
        <ele>14.2</ele>
        <time>2022-08-27T11:43:49Z</time>
      </trkpt>
      <trkpt lat="48.81125" lon="-1.57019">
        <ele>14.2</ele>
        <time>2022-08-27T11:43:50Z</time>
      </trkpt>
      <trkpt lat="48.81097" lon="-1.57033">
        <ele>14</ele>
        <time>2022-08-27T11:43:54Z</time>
      </trkpt>
      <trkpt lat="48.81071" lon="-1.57043">
        <ele>14</ele>
        <time>2022-08-27T11:43:58Z</time>
      </trkpt>
      <trkpt lat="48.81064" lon="-1.57044">
        <ele>14</ele>
        <time>2022-08-27T11:43:59Z</time>
      </trkpt>
      <trkpt lat="48.81022" lon="-1.57044">
        <ele>14</ele>
        <time>2022-08-27T11:44:06Z</time>
      </trkpt>
      <trkpt lat="48.80986" lon="-1.57046">
        <ele>14.2</ele>
        <time>2022-08-27T11:44:13Z</time>
      </trkpt>
      <trkpt lat="48.80939" lon="-1.57046">
        <ele>14.4</ele>
        <time>2022-08-27T11:44:23Z</time>
      </trkpt>
      <trkpt lat="48.80913" lon="-1.57047">
        <ele>14.8</ele>
        <time>2022-08-27T11:44:30Z</time>
      </trkpt>
      <trkpt lat="48.80893" lon="-1.57049">
        <ele>14.8</ele>
        <time>2022-08-27T11:44:36Z</time>
      </trkpt>
      <trkpt lat="48.80874" lon="-1.57051">
        <ele>15</ele>
        <time>2022-08-27T11:44:42Z</time>
      </trkpt>
      <trkpt lat="48.80871" lon="-1.57054">
        <ele>15.2</ele>
        <time>2022-08-27T11:44:43Z</time>
      </trkpt>
      <trkpt lat="48.80854" lon="-1.57077">
        <ele>15.6</ele>
        <time>2022-08-27T11:44:49Z</time>
      </trkpt>
      <trkpt lat="48.80839" lon="-1.57092">
        <ele>15.6</ele>
        <time>2022-08-27T11:44:53Z</time>
      </trkpt>
      <trkpt lat="48.80827" lon="-1.571">
        <ele>15.8</ele>
        <time>2022-08-27T11:44:56Z</time>
      </trkpt>
      <trkpt lat="48.80815" lon="-1.57107">
        <ele>15.8</ele>
        <time>2022-08-27T11:44:59Z</time>
      </trkpt>
      <trkpt lat="48.80802" lon="-1.57112">
        <ele>15.8</ele>
        <time>2022-08-27T11:45:02Z</time>
      </trkpt>
      <trkpt lat="48.80797" lon="-1.57114">
        <ele>15.8</ele>
        <time>2022-08-27T11:45:03Z</time>
      </trkpt>
      <trkpt lat="48.80785" lon="-1.57116">
        <ele>15.6</ele>
        <time>2022-08-27T11:45:06Z</time>
      </trkpt>
      <trkpt lat="48.80772" lon="-1.57115">
        <ele>15.8</ele>
        <time>2022-08-27T11:45:09Z</time>
      </trkpt>
      <trkpt lat="48.80744" lon="-1.57106">
        <ele>14.8</ele>
        <time>2022-08-27T11:45:15Z</time>
      </trkpt>
      <trkpt lat="48.80737" lon="-1.57099">
        <ele>14.4</ele>
        <time>2022-08-27T11:45:17Z</time>
      </trkpt>
      <trkpt lat="48.80728" lon="-1.57091">
        <ele>13.8</ele>
        <time>2022-08-27T11:45:19Z</time>
      </trkpt>
      <trkpt lat="48.80712" lon="-1.57077">
        <ele>12.6</ele>
        <time>2022-08-27T11:45:24Z</time>
      </trkpt>
      <trkpt lat="48.80711" lon="-1.57077">
        <ele>12.4</ele>
        <time>2022-08-27T11:45:26Z</time>
      </trkpt>
      <trkpt lat="48.80711" lon="-1.57075">
        <ele>7.6</ele>
        <time>2022-08-27T11:46:19Z</time>
      </trkpt>
      <trkpt lat="48.8071" lon="-1.57073">
        <ele>7.6</ele>
        <time>2022-08-27T11:46:20Z</time>
      </trkpt>
      <trkpt lat="48.80701" lon="-1.57061">
        <ele>6.8</ele>
        <time>2022-08-27T11:46:25Z</time>
      </trkpt>
      <trkpt lat="48.80689" lon="-1.57043">
        <ele>6</ele>
        <time>2022-08-27T11:46:30Z</time>
      </trkpt>
      <trkpt lat="48.80686" lon="-1.57038">
        <ele>5.8</ele>
        <time>2022-08-27T11:46:31Z</time>
      </trkpt>
      <trkpt lat="48.80684" lon="-1.57033">
        <ele>5.8</ele>
        <time>2022-08-27T11:46:32Z</time>
      </trkpt>
      <trkpt lat="48.80676" lon="-1.57015">
        <ele>5.2</ele>
        <time>2022-08-27T11:46:36Z</time>
      </trkpt>
      <trkpt lat="48.8067" lon="-1.56995">
        <ele>4.2</ele>
        <time>2022-08-27T11:46:41Z</time>
      </trkpt>
      <trkpt lat="48.80661" lon="-1.56966">
        <ele>4.8</ele>
        <time>2022-08-27T11:46:47Z</time>
      </trkpt>
      <trkpt lat="48.80644" lon="-1.56926">
        <ele>6.2</ele>
        <time>2022-08-27T11:46:55Z</time>
      </trkpt>
      <trkpt lat="48.80631" lon="-1.56902">
        <ele>7.2</ele>
        <time>2022-08-27T11:47:00Z</time>
      </trkpt>
      <trkpt lat="48.80625" lon="-1.56893">
        <ele>5.8</ele>
        <time>2022-08-27T11:47:02Z</time>
      </trkpt>
      <trkpt lat="48.80614" lon="-1.56877">
        <ele>5.8</ele>
        <time>2022-08-27T11:47:06Z</time>
      </trkpt>
      <trkpt lat="48.80607" lon="-1.56871">
        <ele>6</ele>
        <time>2022-08-27T11:47:08Z</time>
      </trkpt>
      <trkpt lat="48.80598" lon="-1.56867">
        <ele>6</ele>
        <time>2022-08-27T11:47:10Z</time>
      </trkpt>
      <trkpt lat="48.80565" lon="-1.56853">
        <ele>6</ele>
        <time>2022-08-27T11:47:16Z</time>
      </trkpt>
      <trkpt lat="48.8052" lon="-1.56835">
        <ele>6.4</ele>
        <time>2022-08-27T11:47:23Z</time>
      </trkpt>
      <trkpt lat="48.80466" lon="-1.56815">
        <ele>6</ele>
        <time>2022-08-27T11:47:31Z</time>
      </trkpt>
      <trkpt lat="48.80459" lon="-1.56813">
        <ele>6.2</ele>
        <time>2022-08-27T11:47:32Z</time>
      </trkpt>
      <trkpt lat="48.80422" lon="-1.56799">
        <ele>6.4</ele>
        <time>2022-08-27T11:47:38Z</time>
      </trkpt>
      <trkpt lat="48.80382" lon="-1.56783">
        <ele>6.6</ele>
        <time>2022-08-27T11:47:45Z</time>
      </trkpt>
      <trkpt lat="48.80352" lon="-1.5677">
        <ele>6.6</ele>
        <time>2022-08-27T11:47:51Z</time>
      </trkpt>
      <trkpt lat="48.8035" lon="-1.56767">
        <ele>6.6</ele>
        <time>2022-08-27T11:47:52Z</time>
      </trkpt>
      <trkpt lat="48.80349" lon="-1.56758">
        <ele>6.6</ele>
        <time>2022-08-27T11:47:54Z</time>
      </trkpt>
      <trkpt lat="48.80358" lon="-1.56741">
        <ele>6.6</ele>
        <time>2022-08-27T11:47:58Z</time>
      </trkpt>
      <trkpt lat="48.80361" lon="-1.56731">
        <ele>6.6</ele>
        <time>2022-08-27T11:48:00Z</time>
      </trkpt>
      <trkpt lat="48.80361" lon="-1.56725">
        <ele>6</ele>
        <time>2022-08-27T11:48:01Z</time>
      </trkpt>
      <trkpt lat="48.80359" lon="-1.56722">
        <ele>6.2</ele>
        <time>2022-08-27T11:48:02Z</time>
      </trkpt>
      <trkpt lat="48.80352" lon="-1.56717">
        <ele>6.2</ele>
        <time>2022-08-27T11:48:04Z</time>
      </trkpt>
      <trkpt lat="48.80334" lon="-1.56703">
        <ele>6.2</ele>
        <time>2022-08-27T11:48:09Z</time>
      </trkpt>
      <trkpt lat="48.8033" lon="-1.56699">
        <ele>6.2</ele>
        <time>2022-08-27T11:48:10Z</time>
      </trkpt>
      <trkpt lat="48.80314" lon="-1.56685">
        <ele>6</ele>
        <time>2022-08-27T11:48:14Z</time>
      </trkpt>
      <trkpt lat="48.80277" lon="-1.56651">
        <ele>6</ele>
        <time>2022-08-27T11:48:22Z</time>
      </trkpt>
      <trkpt lat="48.80245" lon="-1.56624">
        <ele>5.8</ele>
        <time>2022-08-27T11:48:29Z</time>
      </trkpt>
      <trkpt lat="48.80199" lon="-1.56587">
        <ele>6</ele>
        <time>2022-08-27T11:48:39Z</time>
      </trkpt>
      <trkpt lat="48.80161" lon="-1.56557">
        <ele>5.6</ele>
        <time>2022-08-27T11:48:47Z</time>
      </trkpt>
      <trkpt lat="48.80123" lon="-1.56535">
        <ele>5.4</ele>
        <time>2022-08-27T11:48:55Z</time>
      </trkpt>
      <trkpt lat="48.80079" lon="-1.56509">
        <ele>5.2</ele>
        <time>2022-08-27T11:49:04Z</time>
      </trkpt>
      <trkpt lat="48.80061" lon="-1.56492">
        <ele>5.2</ele>
        <time>2022-08-27T11:49:08Z</time>
      </trkpt>
      <trkpt lat="48.8005" lon="-1.56477">
        <ele>5.2</ele>
        <time>2022-08-27T11:49:11Z</time>
      </trkpt>
      <trkpt lat="48.8002" lon="-1.56433">
        <ele>5</ele>
        <time>2022-08-27T11:49:19Z</time>
      </trkpt>
      <trkpt lat="48.79991" lon="-1.56378">
        <ele>5</ele>
        <time>2022-08-27T11:49:28Z</time>
      </trkpt>
      <trkpt lat="48.7997" lon="-1.56333">
        <ele>5.2</ele>
        <time>2022-08-27T11:49:35Z</time>
      </trkpt>
      <trkpt lat="48.79951" lon="-1.56295">
        <ele>5.2</ele>
        <time>2022-08-27T11:49:41Z</time>
      </trkpt>
      <trkpt lat="48.79935" lon="-1.56265">
        <ele>5.2</ele>
        <time>2022-08-27T11:49:46Z</time>
      </trkpt>
      <trkpt lat="48.79929" lon="-1.56254">
        <ele>5.2</ele>
        <time>2022-08-27T11:49:48Z</time>
      </trkpt>
      <trkpt lat="48.79923" lon="-1.56242">
        <ele>5.2</ele>
        <time>2022-08-27T11:49:50Z</time>
      </trkpt>
      <trkpt lat="48.79909" lon="-1.56213">
        <ele>4.8</ele>
        <time>2022-08-27T11:49:55Z</time>
      </trkpt>
      <trkpt lat="48.79906" lon="-1.56207">
        <ele>5</ele>
        <time>2022-08-27T11:49:56Z</time>
      </trkpt>
      <trkpt lat="48.79897" lon="-1.56191">
        <ele>4.8</ele>
        <time>2022-08-27T11:49:59Z</time>
      </trkpt>
      <trkpt lat="48.79877" lon="-1.56143">
        <ele>4.6</ele>
        <time>2022-08-27T11:50:06Z</time>
      </trkpt>
      <trkpt lat="48.79854" lon="-1.5609">
        <ele>4.4</ele>
        <time>2022-08-27T11:50:14Z</time>
      </trkpt>
      <trkpt lat="48.79832" lon="-1.56033">
        <ele>4.2</ele>
        <time>2022-08-27T11:50:22Z</time>
      </trkpt>
      <trkpt lat="48.79814" lon="-1.55985">
        <ele>4.4</ele>
        <time>2022-08-27T11:50:29Z</time>
      </trkpt>
      <trkpt lat="48.79805" lon="-1.55965">
        <ele>4.8</ele>
        <time>2022-08-27T11:50:32Z</time>
      </trkpt>
      <trkpt lat="48.79801" lon="-1.55959">
        <ele>4.6</ele>
        <time>2022-08-27T11:50:33Z</time>
      </trkpt>
      <trkpt lat="48.79791" lon="-1.5595">
        <ele>4.8</ele>
        <time>2022-08-27T11:50:35Z</time>
      </trkpt>
      <trkpt lat="48.79774" lon="-1.5594">
        <ele>4.8</ele>
        <time>2022-08-27T11:50:38Z</time>
      </trkpt>
      <trkpt lat="48.79729" lon="-1.55916">
        <ele>4.4</ele>
        <time>2022-08-27T11:50:46Z</time>
      </trkpt>
      <trkpt lat="48.79705" lon="-1.5591">
        <ele>4.2</ele>
        <time>2022-08-27T11:50:51Z</time>
      </trkpt>
      <trkpt lat="48.79691" lon="-1.55901">
        <ele>4.6</ele>
        <time>2022-08-27T11:50:55Z</time>
      </trkpt>
      <trkpt lat="48.79674" lon="-1.55884">
        <ele>4.8</ele>
        <time>2022-08-27T11:51:01Z</time>
      </trkpt>
      <trkpt lat="48.79659" lon="-1.55869">
        <ele>5</ele>
        <time>2022-08-27T11:51:07Z</time>
      </trkpt>
      <trkpt lat="48.79648" lon="-1.55857">
        <ele>5.2</ele>
        <time>2022-08-27T11:51:12Z</time>
      </trkpt>
      <trkpt lat="48.79632" lon="-1.55843">
        <ele>5.8</ele>
        <time>2022-08-27T11:51:19Z</time>
      </trkpt>
      <trkpt lat="48.79625" lon="-1.55836">
        <ele>6.2</ele>
        <time>2022-08-27T11:51:22Z</time>
      </trkpt>
      <trkpt lat="48.79622" lon="-1.55835">
        <ele>6.2</ele>
        <time>2022-08-27T11:51:23Z</time>
      </trkpt>
      <trkpt lat="48.79615" lon="-1.5583">
        <ele>6.8</ele>
        <time>2022-08-27T11:51:26Z</time>
      </trkpt>
      <trkpt lat="48.79612" lon="-1.55825">
        <ele>7.2</ele>
        <time>2022-08-27T11:51:28Z</time>
      </trkpt>
      <trkpt lat="48.79603" lon="-1.55816">
        <ele>8</ele>
        <time>2022-08-27T11:51:33Z</time>
      </trkpt>
      <trkpt lat="48.79599" lon="-1.55814">
        <ele>8.2</ele>
        <time>2022-08-27T11:51:35Z</time>
      </trkpt>
      <trkpt lat="48.79595" lon="-1.55811">
        <ele>8.4</ele>
        <time>2022-08-27T11:51:37Z</time>
      </trkpt>
      <trkpt lat="48.79589" lon="-1.55806">
        <ele>8.8</ele>
        <time>2022-08-27T11:51:40Z</time>
      </trkpt>
      <trkpt lat="48.79578" lon="-1.55791">
        <ele>9.4</ele>
        <time>2022-08-27T11:51:45Z</time>
      </trkpt>
      <trkpt lat="48.79561" lon="-1.5577">
        <ele>10.6</ele>
        <time>2022-08-27T11:51:52Z</time>
      </trkpt>
      <trkpt lat="48.79551" lon="-1.55752">
        <ele>11.6</ele>
        <time>2022-08-27T11:51:58Z</time>
      </trkpt>
      <trkpt lat="48.79544" lon="-1.55743">
        <ele>12.4</ele>
        <time>2022-08-27T11:52:03Z</time>
      </trkpt>
      <trkpt lat="48.79542" lon="-1.55742">
        <ele>12.4</ele>
        <time>2022-08-27T11:52:04Z</time>
      </trkpt>
      <trkpt lat="48.79529" lon="-1.55735">
        <ele>12.8</ele>
        <time>2022-08-27T11:52:08Z</time>
      </trkpt>
      <trkpt lat="48.79497" lon="-1.55718">
        <ele>13.4</ele>
        <time>2022-08-27T11:52:17Z</time>
      </trkpt>
      <trkpt lat="48.79496" lon="-1.55717">
        <ele>13.6</ele>
        <time>2022-08-27T11:52:19Z</time>
      </trkpt>
      <trkpt lat="48.79495" lon="-1.55716">
        <ele>14</ele>
        <time>2022-08-27T11:52:24Z</time>
      </trkpt>
      <trkpt lat="48.7948" lon="-1.55707">
        <ele>14.4</ele>
        <time>2022-08-27T11:52:29Z</time>
      </trkpt>
      <trkpt lat="48.79453" lon="-1.55686">
        <ele>14.8</ele>
        <time>2022-08-27T11:52:37Z</time>
      </trkpt>
      <trkpt lat="48.79423" lon="-1.55658">
        <ele>15.8</ele>
        <time>2022-08-27T11:52:45Z</time>
      </trkpt>
      <trkpt lat="48.79406" lon="-1.55639">
        <ele>16.2</ele>
        <time>2022-08-27T11:52:50Z</time>
      </trkpt>
      <trkpt lat="48.79388" lon="-1.55622">
        <ele>16.4</ele>
        <time>2022-08-27T11:52:55Z</time>
      </trkpt>
      <trkpt lat="48.79382" lon="-1.55617">
        <ele>16.4</ele>
        <time>2022-08-27T11:52:57Z</time>
      </trkpt>
      <trkpt lat="48.79361" lon="-1.556">
        <ele>16.6</ele>
        <time>2022-08-27T11:53:03Z</time>
      </trkpt>
      <trkpt lat="48.79341" lon="-1.55581">
        <ele>16.6</ele>
        <time>2022-08-27T11:53:09Z</time>
      </trkpt>
      <trkpt lat="48.79311" lon="-1.55554">
        <ele>17</ele>
        <time>2022-08-27T11:53:17Z</time>
      </trkpt>
      <trkpt lat="48.79305" lon="-1.55548">
        <ele>17</ele>
        <time>2022-08-27T11:53:19Z</time>
      </trkpt>
      <trkpt lat="48.79294" lon="-1.5554">
        <ele>17.2</ele>
        <time>2022-08-27T11:53:22Z</time>
      </trkpt>
      <trkpt lat="48.79277" lon="-1.55526">
        <ele>17.2</ele>
        <time>2022-08-27T11:53:27Z</time>
      </trkpt>
      <trkpt lat="48.7926" lon="-1.55512">
        <ele>17.4</ele>
        <time>2022-08-27T11:53:32Z</time>
      </trkpt>
      <trkpt lat="48.79249" lon="-1.55499">
        <ele>17.6</ele>
        <time>2022-08-27T11:53:36Z</time>
      </trkpt>
      <trkpt lat="48.79234" lon="-1.5548">
        <ele>18</ele>
        <time>2022-08-27T11:53:41Z</time>
      </trkpt>
      <trkpt lat="48.79218" lon="-1.55457">
        <ele>18.2</ele>
        <time>2022-08-27T11:53:47Z</time>
      </trkpt>
      <trkpt lat="48.79207" lon="-1.55439">
        <ele>18.6</ele>
        <time>2022-08-27T11:53:52Z</time>
      </trkpt>
      <trkpt lat="48.79194" lon="-1.55418">
        <ele>18.8</ele>
        <time>2022-08-27T11:53:58Z</time>
      </trkpt>
      <trkpt lat="48.79184" lon="-1.55399">
        <ele>19</ele>
        <time>2022-08-27T11:54:03Z</time>
      </trkpt>
      <trkpt lat="48.79172" lon="-1.55381">
        <ele>19.4</ele>
        <time>2022-08-27T11:54:09Z</time>
      </trkpt>
      <trkpt lat="48.79161" lon="-1.55363">
        <ele>19.6</ele>
        <time>2022-08-27T11:54:15Z</time>
      </trkpt>
      <trkpt lat="48.79148" lon="-1.55347">
        <ele>19.6</ele>
        <time>2022-08-27T11:54:22Z</time>
      </trkpt>
      <trkpt lat="48.79133" lon="-1.55328">
        <ele>20.4</ele>
        <time>2022-08-27T11:54:30Z</time>
      </trkpt>
      <trkpt lat="48.7912" lon="-1.55316">
        <ele>20.8</ele>
        <time>2022-08-27T11:54:36Z</time>
      </trkpt>
      <trkpt lat="48.791" lon="-1.55293">
        <ele>21.8</ele>
        <time>2022-08-27T11:54:44Z</time>
      </trkpt>
      <trkpt lat="48.79084" lon="-1.55268">
        <ele>22.4</ele>
        <time>2022-08-27T11:54:50Z</time>
      </trkpt>
      <trkpt lat="48.79071" lon="-1.55244">
        <ele>23</ele>
        <time>2022-08-27T11:54:55Z</time>
      </trkpt>
      <trkpt lat="48.79066" lon="-1.55234">
        <ele>23.2</ele>
        <time>2022-08-27T11:54:57Z</time>
      </trkpt>
      <trkpt lat="48.79053" lon="-1.55207">
        <ele>23.6</ele>
        <time>2022-08-27T11:55:02Z</time>
      </trkpt>
      <trkpt lat="48.79048" lon="-1.55195">
        <ele>23.8</ele>
        <time>2022-08-27T11:55:04Z</time>
      </trkpt>
      <trkpt lat="48.79037" lon="-1.55171">
        <ele>24</ele>
        <time>2022-08-27T11:55:08Z</time>
      </trkpt>
      <trkpt lat="48.79033" lon="-1.5516">
        <ele>24</ele>
        <time>2022-08-27T11:55:10Z</time>
      </trkpt>
      <trkpt lat="48.79018" lon="-1.55123">
        <ele>24.4</ele>
        <time>2022-08-27T11:55:17Z</time>
      </trkpt>
      <trkpt lat="48.79009" lon="-1.55099">
        <ele>24.8</ele>
        <time>2022-08-27T11:55:22Z</time>
      </trkpt>
      <trkpt lat="48.78997" lon="-1.55074">
        <ele>25.4</ele>
        <time>2022-08-27T11:55:28Z</time>
      </trkpt>
      <trkpt lat="48.78983" lon="-1.55041">
        <ele>26</ele>
        <time>2022-08-27T11:55:36Z</time>
      </trkpt>
      <trkpt lat="48.78977" lon="-1.55024">
        <ele>26</ele>
        <time>2022-08-27T11:55:39Z</time>
      </trkpt>
      <trkpt lat="48.7897" lon="-1.55009">
        <ele>26.2</ele>
        <time>2022-08-27T11:55:42Z</time>
      </trkpt>
      <trkpt lat="48.78957" lon="-1.54988">
        <ele>26.6</ele>
        <time>2022-08-27T11:55:47Z</time>
      </trkpt>
      <trkpt lat="48.78954" lon="-1.54984">
        <ele>26.6</ele>
        <time>2022-08-27T11:55:48Z</time>
      </trkpt>
      <trkpt lat="48.78942" lon="-1.5497">
        <ele>26.8</ele>
        <time>2022-08-27T11:55:51Z</time>
      </trkpt>
      <trkpt lat="48.78938" lon="-1.54966">
        <ele>26.8</ele>
        <time>2022-08-27T11:55:52Z</time>
      </trkpt>
      <trkpt lat="48.78928" lon="-1.54958">
        <ele>26.8</ele>
        <time>2022-08-27T11:55:54Z</time>
      </trkpt>
      <trkpt lat="48.7892" lon="-1.54952">
        <ele>26.8</ele>
        <time>2022-08-27T11:55:56Z</time>
      </trkpt>
      <trkpt lat="48.78904" lon="-1.54938">
        <ele>26.6</ele>
        <time>2022-08-27T11:56:01Z</time>
      </trkpt>
      <trkpt lat="48.7889" lon="-1.54927">
        <ele>26.6</ele>
        <time>2022-08-27T11:56:06Z</time>
      </trkpt>
      <trkpt lat="48.78885" lon="-1.54926">
        <ele>26.8</ele>
        <time>2022-08-27T11:56:07Z</time>
      </trkpt>
      <trkpt lat="48.78859" lon="-1.54914">
        <ele>26</ele>
        <time>2022-08-27T11:56:11Z</time>
      </trkpt>
      <trkpt lat="48.78826" lon="-1.54894">
        <ele>25</ele>
        <time>2022-08-27T11:56:15Z</time>
      </trkpt>
      <trkpt lat="48.78812" lon="-1.54882">
        <ele>24.6</ele>
        <time>2022-08-27T11:56:17Z</time>
      </trkpt>
      <trkpt lat="48.788" lon="-1.54866">
        <ele>24.4</ele>
        <time>2022-08-27T11:56:19Z</time>
      </trkpt>
      <trkpt lat="48.78791" lon="-1.54848">
        <ele>24.4</ele>
        <time>2022-08-27T11:56:21Z</time>
      </trkpt>
      <trkpt lat="48.78784" lon="-1.54829">
        <ele>24.2</ele>
        <time>2022-08-27T11:56:23Z</time>
      </trkpt>
      <trkpt lat="48.78779" lon="-1.5482">
        <ele>24</ele>
        <time>2022-08-27T11:56:24Z</time>
      </trkpt>
      <trkpt lat="48.78769" lon="-1.54804">
        <ele>24</ele>
        <time>2022-08-27T11:56:26Z</time>
      </trkpt>
      <trkpt lat="48.78763" lon="-1.54798">
        <ele>23.8</ele>
        <time>2022-08-27T11:56:27Z</time>
      </trkpt>
      <trkpt lat="48.7875" lon="-1.54786">
        <ele>23.6</ele>
        <time>2022-08-27T11:56:29Z</time>
      </trkpt>
      <trkpt lat="48.78736" lon="-1.54777">
        <ele>23.4</ele>
        <time>2022-08-27T11:56:31Z</time>
      </trkpt>
      <trkpt lat="48.78715" lon="-1.54765">
        <ele>23</ele>
        <time>2022-08-27T11:56:34Z</time>
      </trkpt>
      <trkpt lat="48.78705" lon="-1.5475">
        <ele>22.6</ele>
        <time>2022-08-27T11:56:36Z</time>
      </trkpt>
      <trkpt lat="48.78702" lon="-1.54731">
        <ele>22.6</ele>
        <time>2022-08-27T11:56:38Z</time>
      </trkpt>
      <trkpt lat="48.787" lon="-1.54723">
        <ele>22.4</ele>
        <time>2022-08-27T11:56:39Z</time>
      </trkpt>
      <trkpt lat="48.78698" lon="-1.54715">
        <ele>22.4</ele>
        <time>2022-08-27T11:56:40Z</time>
      </trkpt>
      <trkpt lat="48.7869" lon="-1.54706">
        <ele>22.4</ele>
        <time>2022-08-27T11:56:42Z</time>
      </trkpt>
      <trkpt lat="48.78658" lon="-1.54693">
        <ele>21.8</ele>
        <time>2022-08-27T11:56:48Z</time>
      </trkpt>
      <trkpt lat="48.7863" lon="-1.54677">
        <ele>21.2</ele>
        <time>2022-08-27T11:56:53Z</time>
      </trkpt>
      <trkpt lat="48.78618" lon="-1.54671">
        <ele>21</ele>
        <time>2022-08-27T11:56:55Z</time>
      </trkpt>
      <trkpt lat="48.78598" lon="-1.54662">
        <ele>20.6</ele>
        <time>2022-08-27T11:56:58Z</time>
      </trkpt>
      <trkpt lat="48.78586" lon="-1.54656">
        <ele>20</ele>
        <time>2022-08-27T11:57:00Z</time>
      </trkpt>
      <trkpt lat="48.7858" lon="-1.54651">
        <ele>19.6</ele>
        <time>2022-08-27T11:57:01Z</time>
      </trkpt>
      <trkpt lat="48.78547" lon="-1.5463">
        <ele>18.4</ele>
        <time>2022-08-27T11:57:07Z</time>
      </trkpt>
      <trkpt lat="48.78522" lon="-1.54614">
        <ele>17.8</ele>
        <time>2022-08-27T11:57:13Z</time>
      </trkpt>
      <trkpt lat="48.78507" lon="-1.54605">
        <ele>17</ele>
        <time>2022-08-27T11:57:18Z</time>
      </trkpt>
      <trkpt lat="48.78508" lon="-1.54593">
        <ele>16.6</ele>
        <time>2022-08-27T11:57:21Z</time>
      </trkpt>
      <trkpt lat="48.78515" lon="-1.54575">
        <ele>15.2</ele>
        <time>2022-08-27T11:57:25Z</time>
      </trkpt>
      <trkpt lat="48.78523" lon="-1.54554">
        <ele>13.6</ele>
        <time>2022-08-27T11:57:30Z</time>
      </trkpt>
      <trkpt lat="48.7853" lon="-1.54532">
        <ele>12.2</ele>
        <time>2022-08-27T11:57:35Z</time>
      </trkpt>
      <trkpt lat="48.78534" lon="-1.54512">
        <ele>11.4</ele>
        <time>2022-08-27T11:57:39Z</time>
      </trkpt>
      <trkpt lat="48.78534" lon="-1.54508">
        <ele>11.2</ele>
        <time>2022-08-27T11:57:40Z</time>
      </trkpt>
      <trkpt lat="48.7853" lon="-1.54503">
        <ele>10.8</ele>
        <time>2022-08-27T11:57:42Z</time>
      </trkpt>
      <trkpt lat="48.78511" lon="-1.54486">
        <ele>12.2</ele>
        <time>2022-08-27T11:57:48Z</time>
      </trkpt>
      <trkpt lat="48.78489" lon="-1.5447">
        <ele>11.2</ele>
        <time>2022-08-27T11:57:54Z</time>
      </trkpt>
      <trkpt lat="48.78464" lon="-1.54451">
        <ele>12.8</ele>
        <time>2022-08-27T11:58:02Z</time>
      </trkpt>
      <trkpt lat="48.7844" lon="-1.54433">
        <ele>13.2</ele>
        <time>2022-08-27T11:58:10Z</time>
      </trkpt>
      <trkpt lat="48.7841" lon="-1.54408">
        <ele>14.4</ele>
        <time>2022-08-27T11:58:20Z</time>
      </trkpt>
      <trkpt lat="48.78394" lon="-1.54393">
        <ele>15.2</ele>
        <time>2022-08-27T11:58:26Z</time>
      </trkpt>
      <trkpt lat="48.78374" lon="-1.54371">
        <ele>16.2</ele>
        <time>2022-08-27T11:58:34Z</time>
      </trkpt>
      <trkpt lat="48.78352" lon="-1.54345">
        <ele>17</ele>
        <time>2022-08-27T11:58:43Z</time>
      </trkpt>
      <trkpt lat="48.7833" lon="-1.54317">
        <ele>17.8</ele>
        <time>2022-08-27T11:58:51Z</time>
      </trkpt>
      <trkpt lat="48.78318" lon="-1.543">
        <ele>17.8</ele>
        <time>2022-08-27T11:58:56Z</time>
      </trkpt>
      <trkpt lat="48.78309" lon="-1.54286">
        <ele>17.8</ele>
        <time>2022-08-27T11:59:01Z</time>
      </trkpt>
      <trkpt lat="48.78308" lon="-1.54281">
        <ele>17.8</ele>
        <time>2022-08-27T11:59:04Z</time>
      </trkpt>
      <trkpt lat="48.78308" lon="-1.54281">
        <ele>17.8</ele>
        <time>2022-08-27T11:59:05Z</time>
      </trkpt>
      <trkpt lat="48.78295" lon="-1.54243">
        <ele>12.8</ele>
        <time>2022-08-27T12:00:26Z</time>
      </trkpt>
      <trkpt lat="48.78297" lon="-1.54237">
        <ele>12.4</ele>
        <time>2022-08-27T12:00:28Z</time>
      </trkpt>
      <trkpt lat="48.78304" lon="-1.54221">
        <ele>11.8</ele>
        <time>2022-08-27T12:00:33Z</time>
      </trkpt>
      <trkpt lat="48.78306" lon="-1.54216">
        <ele>11.4</ele>
        <time>2022-08-27T12:00:35Z</time>
      </trkpt>
      <trkpt lat="48.78308" lon="-1.5421">
        <ele>11.4</ele>
        <time>2022-08-27T12:00:37Z</time>
      </trkpt>
      <trkpt lat="48.7831" lon="-1.54203">
        <ele>11.2</ele>
        <time>2022-08-27T12:00:39Z</time>
      </trkpt>
      <trkpt lat="48.78309" lon="-1.54195">
        <ele>11.4</ele>
        <time>2022-08-27T12:00:41Z</time>
      </trkpt>
      <trkpt lat="48.78299" lon="-1.54183">
        <ele>11</ele>
        <time>2022-08-27T12:00:45Z</time>
      </trkpt>
      <trkpt lat="48.78292" lon="-1.54174">
        <ele>10.6</ele>
        <time>2022-08-27T12:00:48Z</time>
      </trkpt>
      <trkpt lat="48.78287" lon="-1.54168">
        <ele>10.4</ele>
        <time>2022-08-27T12:00:50Z</time>
      </trkpt>
      <trkpt lat="48.78272" lon="-1.54153">
        <ele>9.8</ele>
        <time>2022-08-27T12:00:55Z</time>
      </trkpt>
      <trkpt lat="48.78252" lon="-1.54133">
        <ele>9.4</ele>
        <time>2022-08-27T12:01:01Z</time>
      </trkpt>
      <trkpt lat="48.78245" lon="-1.54126">
        <ele>9.2</ele>
        <time>2022-08-27T12:01:03Z</time>
      </trkpt>
      <trkpt lat="48.78238" lon="-1.54119">
        <ele>9</ele>
        <time>2022-08-27T12:01:05Z</time>
      </trkpt>
      <trkpt lat="48.78234" lon="-1.54115">
        <ele>8.8</ele>
        <time>2022-08-27T12:01:06Z</time>
      </trkpt>
      <trkpt lat="48.78215" lon="-1.54096">
        <ele>8.4</ele>
        <time>2022-08-27T12:01:11Z</time>
      </trkpt>
      <trkpt lat="48.78197" lon="-1.54078">
        <ele>8</ele>
        <time>2022-08-27T12:01:16Z</time>
      </trkpt>
      <trkpt lat="48.78187" lon="-1.54071">
        <ele>7.8</ele>
        <time>2022-08-27T12:01:19Z</time>
      </trkpt>
      <trkpt lat="48.78184" lon="-1.54073">
        <ele>7.6</ele>
        <time>2022-08-27T12:01:20Z</time>
      </trkpt>
      <trkpt lat="48.7816" lon="-1.54094">
        <ele>7.4</ele>
        <time>2022-08-27T12:01:27Z</time>
      </trkpt>
      <trkpt lat="48.78157" lon="-1.54098">
        <ele>7.4</ele>
        <time>2022-08-27T12:01:28Z</time>
      </trkpt>
      <trkpt lat="48.78149" lon="-1.54102">
        <ele>7.2</ele>
        <time>2022-08-27T12:01:30Z</time>
      </trkpt>
      <trkpt lat="48.78142" lon="-1.54107">
        <ele>7</ele>
        <time>2022-08-27T12:01:32Z</time>
      </trkpt>
      <trkpt lat="48.78139" lon="-1.54111">
        <ele>7</ele>
        <time>2022-08-27T12:01:33Z</time>
      </trkpt>
      <trkpt lat="48.78137" lon="-1.5412">
        <ele>6.6</ele>
        <time>2022-08-27T12:01:35Z</time>
      </trkpt>
      <trkpt lat="48.78128" lon="-1.5414">
        <ele>6.4</ele>
        <time>2022-08-27T12:01:39Z</time>
      </trkpt>
      <trkpt lat="48.78117" lon="-1.54151">
        <ele>6.4</ele>
        <time>2022-08-27T12:01:43Z</time>
      </trkpt>
      <trkpt lat="48.78113" lon="-1.54149">
        <ele>6.8</ele>
        <time>2022-08-27T12:01:46Z</time>
      </trkpt>
      <trkpt lat="48.78112" lon="-1.54149">
        <ele>6.2</ele>
        <time>2022-08-27T12:01:47Z</time>
      </trkpt>
      <trkpt lat="48.7811" lon="-1.54147">
        <ele>6.6</ele>
        <time>2022-08-27T12:01:48Z</time>
      </trkpt>
      <trkpt lat="48.78106" lon="-1.54139">
        <ele>7.2</ele>
        <time>2022-08-27T12:01:53Z</time>
      </trkpt>
      <trkpt lat="48.78103" lon="-1.54132">
        <ele>7.4</ele>
        <time>2022-08-27T12:01:56Z</time>
      </trkpt>
      <trkpt lat="48.781" lon="-1.54127">
        <ele>7.4</ele>
        <time>2022-08-27T12:01:58Z</time>
      </trkpt>
      <trkpt lat="48.78098" lon="-1.54125">
        <ele>7.4</ele>
        <time>2022-08-27T12:01:59Z</time>
      </trkpt>
      <trkpt lat="48.78095" lon="-1.54122">
        <ele>7.6</ele>
        <time>2022-08-27T12:02:01Z</time>
      </trkpt>
      <trkpt lat="48.78093" lon="-1.54119">
        <ele>7.6</ele>
        <time>2022-08-27T12:02:02Z</time>
      </trkpt>
      <trkpt lat="48.78085" lon="-1.54105">
        <ele>7.6</ele>
        <time>2022-08-27T12:02:08Z</time>
      </trkpt>
      <trkpt lat="48.78084" lon="-1.54103">
        <ele>7.8</ele>
        <time>2022-08-27T12:02:09Z</time>
      </trkpt>
      <trkpt lat="48.78084" lon="-1.54097">
        <ele>7.8</ele>
        <time>2022-08-27T12:02:11Z</time>
      </trkpt>
      <trkpt lat="48.78085" lon="-1.54094">
        <ele>8</ele>
        <time>2022-08-27T12:02:12Z</time>
      </trkpt>
      <trkpt lat="48.78088" lon="-1.54081">
        <ele>8.4</ele>
        <time>2022-08-27T12:02:16Z</time>
      </trkpt>
      <trkpt lat="48.78096" lon="-1.54064">
        <ele>9</ele>
        <time>2022-08-27T12:02:21Z</time>
      </trkpt>
      <trkpt lat="48.78103" lon="-1.54047">
        <ele>9.6</ele>
        <time>2022-08-27T12:02:26Z</time>
      </trkpt>
      <trkpt lat="48.78114" lon="-1.54025">
        <ele>10.4</ele>
        <time>2022-08-27T12:02:32Z</time>
      </trkpt>
      <trkpt lat="48.78122" lon="-1.54006">
        <ele>10.6</ele>
        <time>2022-08-27T12:02:37Z</time>
      </trkpt>
      <trkpt lat="48.78131" lon="-1.53984">
        <ele>11.2</ele>
        <time>2022-08-27T12:02:42Z</time>
      </trkpt>
      <trkpt lat="48.78136" lon="-1.53972">
        <ele>11.4</ele>
        <time>2022-08-27T12:02:45Z</time>
      </trkpt>
      <trkpt lat="48.78136" lon="-1.53967">
        <ele>11.4</ele>
        <time>2022-08-27T12:02:46Z</time>
      </trkpt>
      <trkpt lat="48.78133" lon="-1.53958">
        <ele>11.6</ele>
        <time>2022-08-27T12:02:48Z</time>
      </trkpt>
      <trkpt lat="48.7813" lon="-1.53954">
        <ele>11.8</ele>
        <time>2022-08-27T12:02:49Z</time>
      </trkpt>
      <trkpt lat="48.78117" lon="-1.53945">
        <ele>12.2</ele>
        <time>2022-08-27T12:02:55Z</time>
      </trkpt>
      <trkpt lat="48.78103" lon="-1.53935">
        <ele>12.8</ele>
        <time>2022-08-27T12:03:02Z</time>
      </trkpt>
      <trkpt lat="48.78089" lon="-1.53925">
        <ele>13.4</ele>
        <time>2022-08-27T12:03:09Z</time>
      </trkpt>
      <trkpt lat="48.78073" lon="-1.53916">
        <ele>14.4</ele>
        <time>2022-08-27T12:03:17Z</time>
      </trkpt>
      <trkpt lat="48.78059" lon="-1.53907">
        <ele>14.8</ele>
        <time>2022-08-27T12:03:24Z</time>
      </trkpt>
      <trkpt lat="48.78047" lon="-1.53896">
        <ele>15.6</ele>
        <time>2022-08-27T12:03:31Z</time>
      </trkpt>
      <trkpt lat="48.78041" lon="-1.53881">
        <ele>16</ele>
        <time>2022-08-27T12:03:37Z</time>
      </trkpt>
      <trkpt lat="48.78044" lon="-1.53857">
        <ele>16.8</ele>
        <time>2022-08-27T12:03:43Z</time>
      </trkpt>
      <trkpt lat="48.78049" lon="-1.53838">
        <ele>17.2</ele>
        <time>2022-08-27T12:03:48Z</time>
      </trkpt>
      <trkpt lat="48.78056" lon="-1.53799">
        <ele>18</ele>
        <time>2022-08-27T12:03:56Z</time>
      </trkpt>
      <trkpt lat="48.78065" lon="-1.53761">
        <ele>18.6</ele>
        <time>2022-08-27T12:04:03Z</time>
      </trkpt>
      <trkpt lat="48.78073" lon="-1.53712">
        <ele>19</ele>
        <time>2022-08-27T12:04:11Z</time>
      </trkpt>
      <trkpt lat="48.78072" lon="-1.53699">
        <ele>19.2</ele>
        <time>2022-08-27T12:04:13Z</time>
      </trkpt>
      <trkpt lat="48.78069" lon="-1.53694">
        <ele>19.2</ele>
        <time>2022-08-27T12:04:14Z</time>
      </trkpt>
      <trkpt lat="48.78066" lon="-1.53691">
        <ele>19.2</ele>
        <time>2022-08-27T12:04:15Z</time>
      </trkpt>
      <trkpt lat="48.7806" lon="-1.53689">
        <ele>19.4</ele>
        <time>2022-08-27T12:04:17Z</time>
      </trkpt>
      <trkpt lat="48.78034" lon="-1.53684">
        <ele>20.4</ele>
        <time>2022-08-27T12:04:27Z</time>
      </trkpt>
      <trkpt lat="48.78019" lon="-1.53683">
        <ele>21</ele>
        <time>2022-08-27T12:04:34Z</time>
      </trkpt>
      <trkpt lat="48.78" lon="-1.5368">
        <ele>21.8</ele>
        <time>2022-08-27T12:04:43Z</time>
      </trkpt>
      <trkpt lat="48.77985" lon="-1.53678">
        <ele>22.4</ele>
        <time>2022-08-27T12:04:50Z</time>
      </trkpt>
      <trkpt lat="48.77967" lon="-1.53676">
        <ele>23.6</ele>
        <time>2022-08-27T12:04:58Z</time>
      </trkpt>
      <trkpt lat="48.77948" lon="-1.53677">
        <ele>24.4</ele>
        <time>2022-08-27T12:05:06Z</time>
      </trkpt>
      <trkpt lat="48.77926" lon="-1.53678">
        <ele>25.4</ele>
        <time>2022-08-27T12:05:14Z</time>
      </trkpt>
      <trkpt lat="48.77902" lon="-1.53678">
        <ele>26</ele>
        <time>2022-08-27T12:05:21Z</time>
      </trkpt>
      <trkpt lat="48.77879" lon="-1.5368">
        <ele>26.8</ele>
        <time>2022-08-27T12:05:28Z</time>
      </trkpt>
      <trkpt lat="48.77858" lon="-1.5368">
        <ele>27.2</ele>
        <time>2022-08-27T12:05:34Z</time>
      </trkpt>
      <trkpt lat="48.7785" lon="-1.53678">
        <ele>27.4</ele>
        <time>2022-08-27T12:05:36Z</time>
      </trkpt>
      <trkpt lat="48.77839" lon="-1.53675">
        <ele>27.4</ele>
        <time>2022-08-27T12:05:39Z</time>
      </trkpt>
      <trkpt lat="48.77833" lon="-1.53675">
        <ele>27.4</ele>
        <time>2022-08-27T12:05:41Z</time>
      </trkpt>
      <trkpt lat="48.7783" lon="-1.53678">
        <ele>27.6</ele>
        <time>2022-08-27T12:05:42Z</time>
      </trkpt>
      <trkpt lat="48.77822" lon="-1.53698">
        <ele>28.2</ele>
        <time>2022-08-27T12:05:47Z</time>
      </trkpt>
      <trkpt lat="48.77808" lon="-1.5373">
        <ele>29.2</ele>
        <time>2022-08-27T12:05:55Z</time>
      </trkpt>
      <trkpt lat="48.77794" lon="-1.53749">
        <ele>30.2</ele>
        <time>2022-08-27T12:06:01Z</time>
      </trkpt>
      <trkpt lat="48.77776" lon="-1.53758">
        <ele>30.8</ele>
        <time>2022-08-27T12:06:07Z</time>
      </trkpt>
      <trkpt lat="48.77763" lon="-1.5376">
        <ele>31.2</ele>
        <time>2022-08-27T12:06:13Z</time>
      </trkpt>
      <trkpt lat="48.77749" lon="-1.53756">
        <ele>32.2</ele>
        <time>2022-08-27T12:06:20Z</time>
      </trkpt>
      <trkpt lat="48.77736" lon="-1.53755">
        <ele>33.6</ele>
        <time>2022-08-27T12:06:27Z</time>
      </trkpt>
      <trkpt lat="48.77724" lon="-1.53751">
        <ele>34.8</ele>
        <time>2022-08-27T12:06:33Z</time>
      </trkpt>
      <trkpt lat="48.77713" lon="-1.53749">
        <ele>36.2</ele>
        <time>2022-08-27T12:06:39Z</time>
      </trkpt>
      <trkpt lat="48.77699" lon="-1.53745">
        <ele>38</ele>
        <time>2022-08-27T12:06:46Z</time>
      </trkpt>
      <trkpt lat="48.77694" lon="-1.53743">
        <ele>38.8</ele>
        <time>2022-08-27T12:06:49Z</time>
      </trkpt>
      <trkpt lat="48.7769" lon="-1.53742">
        <ele>39.2</ele>
        <time>2022-08-27T12:06:51Z</time>
      </trkpt>
      <trkpt lat="48.77678" lon="-1.53737">
        <ele>40.8</ele>
        <time>2022-08-27T12:06:58Z</time>
      </trkpt>
      <trkpt lat="48.77666" lon="-1.53735">
        <ele>42.4</ele>
        <time>2022-08-27T12:07:05Z</time>
      </trkpt>
      <trkpt lat="48.77653" lon="-1.53732">
        <ele>43.8</ele>
        <time>2022-08-27T12:07:12Z</time>
      </trkpt>
      <trkpt lat="48.77643" lon="-1.53732">
        <ele>45</ele>
        <time>2022-08-27T12:07:18Z</time>
      </trkpt>
      <trkpt lat="48.77632" lon="-1.53733">
        <ele>46</ele>
        <time>2022-08-27T12:07:24Z</time>
      </trkpt>
      <trkpt lat="48.77616" lon="-1.53734">
        <ele>47.6</ele>
        <time>2022-08-27T12:07:33Z</time>
      </trkpt>
      <trkpt lat="48.77603" lon="-1.53736">
        <ele>49.2</ele>
        <time>2022-08-27T12:07:40Z</time>
      </trkpt>
      <trkpt lat="48.77589" lon="-1.53743">
        <ele>50.6</ele>
        <time>2022-08-27T12:07:48Z</time>
      </trkpt>
      <trkpt lat="48.77574" lon="-1.53753">
        <ele>52.2</ele>
        <time>2022-08-27T12:07:57Z</time>
      </trkpt>
      <trkpt lat="48.77559" lon="-1.53764">
        <ele>54</ele>
        <time>2022-08-27T12:08:06Z</time>
      </trkpt>
      <trkpt lat="48.77545" lon="-1.53772">
        <ele>55.6</ele>
        <time>2022-08-27T12:08:14Z</time>
      </trkpt>
      <trkpt lat="48.7753" lon="-1.53778">
        <ele>57.2</ele>
        <time>2022-08-27T12:08:22Z</time>
      </trkpt>
      <trkpt lat="48.77517" lon="-1.53783">
        <ele>58.4</ele>
        <time>2022-08-27T12:08:29Z</time>
      </trkpt>
      <trkpt lat="48.77499" lon="-1.53788">
        <ele>59.6</ele>
        <time>2022-08-27T12:08:37Z</time>
      </trkpt>
      <trkpt lat="48.77483" lon="-1.53793">
        <ele>60.6</ele>
        <time>2022-08-27T12:08:43Z</time>
      </trkpt>
      <trkpt lat="48.77457" lon="-1.53802">
        <ele>62</ele>
        <time>2022-08-27T12:08:52Z</time>
      </trkpt>
      <trkpt lat="48.77432" lon="-1.538">
        <ele>63</ele>
        <time>2022-08-27T12:09:00Z</time>
      </trkpt>
      <trkpt lat="48.7741" lon="-1.53796">
        <ele>64</ele>
        <time>2022-08-27T12:09:07Z</time>
      </trkpt>
      <trkpt lat="48.77388" lon="-1.53786">
        <ele>64.6</ele>
        <time>2022-08-27T12:09:15Z</time>
      </trkpt>
      <trkpt lat="48.77371" lon="-1.53771">
        <ele>65.2</ele>
        <time>2022-08-27T12:09:22Z</time>
      </trkpt>
      <trkpt lat="48.77354" lon="-1.53754">
        <ele>65.8</ele>
        <time>2022-08-27T12:09:29Z</time>
      </trkpt>
      <trkpt lat="48.77339" lon="-1.53739">
        <ele>66.6</ele>
        <time>2022-08-27T12:09:35Z</time>
      </trkpt>
      <trkpt lat="48.77324" lon="-1.53722">
        <ele>67.4</ele>
        <time>2022-08-27T12:09:41Z</time>
      </trkpt>
      <trkpt lat="48.77308" lon="-1.53708">
        <ele>68</ele>
        <time>2022-08-27T12:09:47Z</time>
      </trkpt>
      <trkpt lat="48.77294" lon="-1.537">
        <ele>68.6</ele>
        <time>2022-08-27T12:09:52Z</time>
      </trkpt>
      <trkpt lat="48.77281" lon="-1.53691">
        <ele>69</ele>
        <time>2022-08-27T12:09:57Z</time>
      </trkpt>
      <trkpt lat="48.77272" lon="-1.53687">
        <ele>69.2</ele>
        <time>2022-08-27T12:10:01Z</time>
      </trkpt>
      <trkpt lat="48.77257" lon="-1.53678">
        <ele>69.6</ele>
        <time>2022-08-27T12:10:06Z</time>
      </trkpt>
      <trkpt lat="48.77236" lon="-1.53666">
        <ele>70.2</ele>
        <time>2022-08-27T12:10:13Z</time>
      </trkpt>
      <trkpt lat="48.77218" lon="-1.53661">
        <ele>71</ele>
        <time>2022-08-27T12:10:19Z</time>
      </trkpt>
      <trkpt lat="48.77201" lon="-1.53648">
        <ele>71.8</ele>
        <time>2022-08-27T12:10:24Z</time>
      </trkpt>
      <trkpt lat="48.77173" lon="-1.53625">
        <ele>72.6</ele>
        <time>2022-08-27T12:10:32Z</time>
      </trkpt>
      <trkpt lat="48.77137" lon="-1.53598">
        <ele>73.6</ele>
        <time>2022-08-27T12:10:41Z</time>
      </trkpt>
      <trkpt lat="48.77114" lon="-1.5358">
        <ele>74</ele>
        <time>2022-08-27T12:10:47Z</time>
      </trkpt>
      <trkpt lat="48.77111" lon="-1.53578">
        <ele>74.2</ele>
        <time>2022-08-27T12:10:48Z</time>
      </trkpt>
      <trkpt lat="48.77087" lon="-1.5356">
        <ele>74.6</ele>
        <time>2022-08-27T12:10:54Z</time>
      </trkpt>
      <trkpt lat="48.77069" lon="-1.53546">
        <ele>74.6</ele>
        <time>2022-08-27T12:10:58Z</time>
      </trkpt>
      <trkpt lat="48.7706" lon="-1.53539">
        <ele>74.6</ele>
        <time>2022-08-27T12:11:00Z</time>
      </trkpt>
      <trkpt lat="48.77023" lon="-1.5351">
        <ele>74.8</ele>
        <time>2022-08-27T12:11:08Z</time>
      </trkpt>
      <trkpt lat="48.76992" lon="-1.53488">
        <ele>74.6</ele>
        <time>2022-08-27T12:11:14Z</time>
      </trkpt>
      <trkpt lat="48.7696" lon="-1.53468">
        <ele>74.4</ele>
        <time>2022-08-27T12:11:20Z</time>
      </trkpt>
      <trkpt lat="48.76928" lon="-1.53454">
        <ele>74.2</ele>
        <time>2022-08-27T12:11:26Z</time>
      </trkpt>
      <trkpt lat="48.76897" lon="-1.53444">
        <ele>74</ele>
        <time>2022-08-27T12:11:32Z</time>
      </trkpt>
      <trkpt lat="48.76891" lon="-1.53443">
        <ele>73.8</ele>
        <time>2022-08-27T12:11:33Z</time>
      </trkpt>
      <trkpt lat="48.7687" lon="-1.53439">
        <ele>73.4</ele>
        <time>2022-08-27T12:11:37Z</time>
      </trkpt>
      <trkpt lat="48.76825" lon="-1.53433">
        <ele>72.4</ele>
        <time>2022-08-27T12:11:45Z</time>
      </trkpt>
      <trkpt lat="48.76796" lon="-1.53427">
        <ele>71.8</ele>
        <time>2022-08-27T12:11:50Z</time>
      </trkpt>
      <trkpt lat="48.76785" lon="-1.53425">
        <ele>71.6</ele>
        <time>2022-08-27T12:11:52Z</time>
      </trkpt>
      <trkpt lat="48.76769" lon="-1.53423">
        <ele>71.4</ele>
        <time>2022-08-27T12:11:55Z</time>
      </trkpt>
      <trkpt lat="48.76754" lon="-1.53421">
        <ele>71.6</ele>
        <time>2022-08-27T12:11:58Z</time>
      </trkpt>
      <trkpt lat="48.76722" lon="-1.53417">
        <ele>71.8</ele>
        <time>2022-08-27T12:12:05Z</time>
      </trkpt>
      <trkpt lat="48.76693" lon="-1.53412">
        <ele>71.2</ele>
        <time>2022-08-27T12:12:11Z</time>
      </trkpt>
      <trkpt lat="48.76653" lon="-1.53403">
        <ele>71.8</ele>
        <time>2022-08-27T12:12:19Z</time>
      </trkpt>
      <trkpt lat="48.76614" lon="-1.53394">
        <ele>71.8</ele>
        <time>2022-08-27T12:12:27Z</time>
      </trkpt>
      <trkpt lat="48.76569" lon="-1.53386">
        <ele>72.2</ele>
        <time>2022-08-27T12:12:36Z</time>
      </trkpt>
      <trkpt lat="48.76558" lon="-1.53384">
        <ele>72.4</ele>
        <time>2022-08-27T12:12:38Z</time>
      </trkpt>
      <trkpt lat="48.76543" lon="-1.5338">
        <ele>72.6</ele>
        <time>2022-08-27T12:12:41Z</time>
      </trkpt>
      <trkpt lat="48.76505" lon="-1.53371">
        <ele>73</ele>
        <time>2022-08-27T12:12:49Z</time>
      </trkpt>
      <trkpt lat="48.76468" lon="-1.53362">
        <ele>73.6</ele>
        <time>2022-08-27T12:12:57Z</time>
      </trkpt>
      <trkpt lat="48.76456" lon="-1.53359">
        <ele>73.8</ele>
        <time>2022-08-27T12:13:00Z</time>
      </trkpt>
      <trkpt lat="48.76448" lon="-1.53355">
        <ele>74</ele>
        <time>2022-08-27T12:13:02Z</time>
      </trkpt>
      <trkpt lat="48.76444" lon="-1.53354">
        <ele>74.2</ele>
        <time>2022-08-27T12:13:03Z</time>
      </trkpt>
      <trkpt lat="48.76425" lon="-1.53353">
        <ele>74.4</ele>
        <time>2022-08-27T12:13:08Z</time>
      </trkpt>
      <trkpt lat="48.76401" lon="-1.53348">
        <ele>74.6</ele>
        <time>2022-08-27T12:13:14Z</time>
      </trkpt>
      <trkpt lat="48.76364" lon="-1.53338">
        <ele>75</ele>
        <time>2022-08-27T12:13:23Z</time>
      </trkpt>
      <trkpt lat="48.76352" lon="-1.53334">
        <ele>75.2</ele>
        <time>2022-08-27T12:13:26Z</time>
      </trkpt>
      <trkpt lat="48.76343" lon="-1.53332">
        <ele>75.4</ele>
        <time>2022-08-27T12:13:28Z</time>
      </trkpt>
      <trkpt lat="48.76307" lon="-1.53326">
        <ele>76</ele>
        <time>2022-08-27T12:13:36Z</time>
      </trkpt>
      <trkpt lat="48.76285" lon="-1.53322">
        <ele>76.2</ele>
        <time>2022-08-27T12:13:41Z</time>
      </trkpt>
      <trkpt lat="48.7628" lon="-1.5332">
        <ele>76.2</ele>
        <time>2022-08-27T12:13:42Z</time>
      </trkpt>
      <trkpt lat="48.76258" lon="-1.53314">
        <ele>76.2</ele>
        <time>2022-08-27T12:13:47Z</time>
      </trkpt>
      <trkpt lat="48.7624" lon="-1.5331">
        <ele>76.2</ele>
        <time>2022-08-27T12:13:51Z</time>
      </trkpt>
      <trkpt lat="48.76232" lon="-1.53309">
        <ele>76.4</ele>
        <time>2022-08-27T12:13:53Z</time>
      </trkpt>
      <trkpt lat="48.76224" lon="-1.53307">
        <ele>76.4</ele>
        <time>2022-08-27T12:13:55Z</time>
      </trkpt>
      <trkpt lat="48.76214" lon="-1.53305">
        <ele>76.4</ele>
        <time>2022-08-27T12:13:58Z</time>
      </trkpt>
      <trkpt lat="48.76198" lon="-1.53302">
        <ele>77</ele>
        <time>2022-08-27T12:14:03Z</time>
      </trkpt>
      <trkpt lat="48.7618" lon="-1.53299">
        <ele>77.4</ele>
        <time>2022-08-27T12:14:08Z</time>
      </trkpt>
      <trkpt lat="48.7616" lon="-1.53294">
        <ele>77.6</ele>
        <time>2022-08-27T12:14:13Z</time>
      </trkpt>
      <trkpt lat="48.7614" lon="-1.53287">
        <ele>77.8</ele>
        <time>2022-08-27T12:14:18Z</time>
      </trkpt>
      <trkpt lat="48.76113" lon="-1.53274">
        <ele>77.8</ele>
        <time>2022-08-27T12:14:24Z</time>
      </trkpt>
      <trkpt lat="48.76096" lon="-1.53268">
        <ele>77.8</ele>
        <time>2022-08-27T12:14:28Z</time>
      </trkpt>
      <trkpt lat="48.76087" lon="-1.53264">
        <ele>78</ele>
        <time>2022-08-27T12:14:30Z</time>
      </trkpt>
      <trkpt lat="48.76078" lon="-1.53263">
        <ele>78.2</ele>
        <time>2022-08-27T12:14:32Z</time>
      </trkpt>
      <trkpt lat="48.76069" lon="-1.5326">
        <ele>78.2</ele>
        <time>2022-08-27T12:14:34Z</time>
      </trkpt>
      <trkpt lat="48.76055" lon="-1.53254">
        <ele>78.6</ele>
        <time>2022-08-27T12:14:37Z</time>
      </trkpt>
      <trkpt lat="48.76029" lon="-1.5324">
        <ele>78.6</ele>
        <time>2022-08-27T12:14:43Z</time>
      </trkpt>
      <trkpt lat="48.76024" lon="-1.53238">
        <ele>78.6</ele>
        <time>2022-08-27T12:14:44Z</time>
      </trkpt>
      <trkpt lat="48.76006" lon="-1.5323">
        <ele>78.4</ele>
        <time>2022-08-27T12:14:48Z</time>
      </trkpt>
      <trkpt lat="48.75992" lon="-1.53222">
        <ele>78.4</ele>
        <time>2022-08-27T12:14:51Z</time>
      </trkpt>
      <trkpt lat="48.75982" lon="-1.53215">
        <ele>78.4</ele>
        <time>2022-08-27T12:14:53Z</time>
      </trkpt>
      <trkpt lat="48.75978" lon="-1.53211">
        <ele>78.4</ele>
        <time>2022-08-27T12:14:54Z</time>
      </trkpt>
      <trkpt lat="48.75968" lon="-1.53205">
        <ele>78.2</ele>
        <time>2022-08-27T12:14:56Z</time>
      </trkpt>
      <trkpt lat="48.75956" lon="-1.53194">
        <ele>78</ele>
        <time>2022-08-27T12:14:59Z</time>
      </trkpt>
      <trkpt lat="48.75952" lon="-1.5319">
        <ele>78</ele>
        <time>2022-08-27T12:15:00Z</time>
      </trkpt>
      <trkpt lat="48.75948" lon="-1.5318">
        <ele>78</ele>
        <time>2022-08-27T12:15:02Z</time>
      </trkpt>
      <trkpt lat="48.75947" lon="-1.53173">
        <ele>78.2</ele>
        <time>2022-08-27T12:15:03Z</time>
      </trkpt>
      <trkpt lat="48.75947" lon="-1.53166">
        <ele>78</ele>
        <time>2022-08-27T12:15:04Z</time>
      </trkpt>
      <trkpt lat="48.75947" lon="-1.53133">
        <ele>77.8</ele>
        <time>2022-08-27T12:15:09Z</time>
      </trkpt>
      <trkpt lat="48.75947" lon="-1.53081">
        <ele>76.6</ele>
        <time>2022-08-27T12:15:17Z</time>
      </trkpt>
      <trkpt lat="48.75945" lon="-1.53027">
        <ele>75.6</ele>
        <time>2022-08-27T12:15:25Z</time>
      </trkpt>
      <trkpt lat="48.75943" lon="-1.52984">
        <ele>75.6</ele>
        <time>2022-08-27T12:15:31Z</time>
      </trkpt>
      <trkpt lat="48.75943" lon="-1.52948">
        <ele>75.4</ele>
        <time>2022-08-27T12:15:36Z</time>
      </trkpt>
      <trkpt lat="48.75942" lon="-1.52942">
        <ele>75.2</ele>
        <time>2022-08-27T12:15:37Z</time>
      </trkpt>
      <trkpt lat="48.7594" lon="-1.52918">
        <ele>75</ele>
        <time>2022-08-27T12:15:41Z</time>
      </trkpt>
      <trkpt lat="48.75939" lon="-1.52886">
        <ele>75</ele>
        <time>2022-08-27T12:15:45Z</time>
      </trkpt>
      <trkpt lat="48.75939" lon="-1.52857">
        <ele>75.4</ele>
        <time>2022-08-27T12:15:49Z</time>
      </trkpt>
      <trkpt lat="48.75938" lon="-1.52811">
        <ele>76.6</ele>
        <time>2022-08-27T12:15:55Z</time>
      </trkpt>
      <trkpt lat="48.75934" lon="-1.5277">
        <ele>77.4</ele>
        <time>2022-08-27T12:16:01Z</time>
      </trkpt>
      <trkpt lat="48.75925" lon="-1.52768">
        <ele>77.6</ele>
        <time>2022-08-27T12:16:03Z</time>
      </trkpt>
      <trkpt lat="48.75916" lon="-1.52767">
        <ele>77.8</ele>
        <time>2022-08-27T12:16:05Z</time>
      </trkpt>
      <trkpt lat="48.75874" lon="-1.5277">
        <ele>78.2</ele>
        <time>2022-08-27T12:16:13Z</time>
      </trkpt>
      <trkpt lat="48.75827" lon="-1.52773">
        <ele>78.6</ele>
        <time>2022-08-27T12:16:21Z</time>
      </trkpt>
      <trkpt lat="48.75768" lon="-1.52777">
        <ele>79.2</ele>
        <time>2022-08-27T12:16:30Z</time>
      </trkpt>
      <trkpt lat="48.75761" lon="-1.52778">
        <ele>79.2</ele>
        <time>2022-08-27T12:16:31Z</time>
      </trkpt>
      <trkpt lat="48.75707" lon="-1.52781">
        <ele>79.6</ele>
        <time>2022-08-27T12:16:39Z</time>
      </trkpt>
      <trkpt lat="48.75667" lon="-1.52783">
        <ele>79.6</ele>
        <time>2022-08-27T12:16:45Z</time>
      </trkpt>
      <trkpt lat="48.75607" lon="-1.52787">
        <ele>80</ele>
        <time>2022-08-27T12:16:54Z</time>
      </trkpt>
      <trkpt lat="48.756" lon="-1.52787">
        <ele>80</ele>
        <time>2022-08-27T12:16:55Z</time>
      </trkpt>
      <trkpt lat="48.75552" lon="-1.5279">
        <ele>80.4</ele>
        <time>2022-08-27T12:17:02Z</time>
      </trkpt>
      <trkpt lat="48.75511" lon="-1.52797">
        <ele>80.4</ele>
        <time>2022-08-27T12:17:08Z</time>
      </trkpt>
      <trkpt lat="48.75472" lon="-1.52813">
        <ele>80.2</ele>
        <time>2022-08-27T12:17:14Z</time>
      </trkpt>
      <trkpt lat="48.75433" lon="-1.52833">
        <ele>80.4</ele>
        <time>2022-08-27T12:17:20Z</time>
      </trkpt>
      <trkpt lat="48.75393" lon="-1.52848">
        <ele>79.8</ele>
        <time>2022-08-27T12:17:26Z</time>
      </trkpt>
      <trkpt lat="48.75352" lon="-1.52853">
        <ele>79.6</ele>
        <time>2022-08-27T12:17:32Z</time>
      </trkpt>
      <trkpt lat="48.75346" lon="-1.52854">
        <ele>79.6</ele>
        <time>2022-08-27T12:17:33Z</time>
      </trkpt>
      <trkpt lat="48.7532" lon="-1.52856">
        <ele>79.8</ele>
        <time>2022-08-27T12:17:37Z</time>
      </trkpt>
      <trkpt lat="48.75289" lon="-1.52859">
        <ele>79.8</ele>
        <time>2022-08-27T12:17:42Z</time>
      </trkpt>
      <trkpt lat="48.75242" lon="-1.52862">
        <ele>79.8</ele>
        <time>2022-08-27T12:17:50Z</time>
      </trkpt>
      <trkpt lat="48.7519" lon="-1.52866">
        <ele>80.2</ele>
        <time>2022-08-27T12:17:59Z</time>
      </trkpt>
      <trkpt lat="48.75133" lon="-1.52871">
        <ele>80.6</ele>
        <time>2022-08-27T12:18:09Z</time>
      </trkpt>
      <trkpt lat="48.75121" lon="-1.52871">
        <ele>80.6</ele>
        <time>2022-08-27T12:18:11Z</time>
      </trkpt>
      <trkpt lat="48.75069" lon="-1.52875">
        <ele>80.8</ele>
        <time>2022-08-27T12:18:20Z</time>
      </trkpt>
      <trkpt lat="48.75023" lon="-1.52878">
        <ele>81.4</ele>
        <time>2022-08-27T12:18:28Z</time>
      </trkpt>
      <trkpt lat="48.74993" lon="-1.52881">
        <ele>81.6</ele>
        <time>2022-08-27T12:18:34Z</time>
      </trkpt>
      <trkpt lat="48.74989" lon="-1.52883">
        <ele>81.8</ele>
        <time>2022-08-27T12:18:35Z</time>
      </trkpt>
      <trkpt lat="48.74969" lon="-1.52883">
        <ele>82.2</ele>
        <time>2022-08-27T12:18:40Z</time>
      </trkpt>
      <trkpt lat="48.74964" lon="-1.52882">
        <ele>82.2</ele>
        <time>2022-08-27T12:18:41Z</time>
      </trkpt>
      <trkpt lat="48.74954" lon="-1.5288">
        <ele>82.2</ele>
        <time>2022-08-27T12:18:43Z</time>
      </trkpt>
      <trkpt lat="48.74949" lon="-1.52877">
        <ele>82.2</ele>
        <time>2022-08-27T12:18:44Z</time>
      </trkpt>
      <trkpt lat="48.74911" lon="-1.52858">
        <ele>82.6</ele>
        <time>2022-08-27T12:18:51Z</time>
      </trkpt>
      <trkpt lat="48.74873" lon="-1.5284">
        <ele>82.8</ele>
        <time>2022-08-27T12:18:58Z</time>
      </trkpt>
      <trkpt lat="48.74831" lon="-1.52819">
        <ele>83.2</ele>
        <time>2022-08-27T12:19:05Z</time>
      </trkpt>
      <trkpt lat="48.748" lon="-1.52802">
        <ele>83.2</ele>
        <time>2022-08-27T12:19:10Z</time>
      </trkpt>
      <trkpt lat="48.74794" lon="-1.52799">
        <ele>83.2</ele>
        <time>2022-08-27T12:19:11Z</time>
      </trkpt>
      <trkpt lat="48.74788" lon="-1.52796">
        <ele>83.2</ele>
        <time>2022-08-27T12:19:12Z</time>
      </trkpt>
      <trkpt lat="48.74775" lon="-1.5279">
        <ele>83</ele>
        <time>2022-08-27T12:19:14Z</time>
      </trkpt>
      <trkpt lat="48.74727" lon="-1.52765">
        <ele>82</ele>
        <time>2022-08-27T12:19:21Z</time>
      </trkpt>
      <trkpt lat="48.74677" lon="-1.52742">
        <ele>81</ele>
        <time>2022-08-27T12:19:28Z</time>
      </trkpt>
      <trkpt lat="48.7464" lon="-1.52735">
        <ele>80.2</ele>
        <time>2022-08-27T12:19:33Z</time>
      </trkpt>
      <trkpt lat="48.74598" lon="-1.5273">
        <ele>79.4</ele>
        <time>2022-08-27T12:19:39Z</time>
      </trkpt>
      <trkpt lat="48.74549" lon="-1.52723">
        <ele>78.8</ele>
        <time>2022-08-27T12:19:47Z</time>
      </trkpt>
      <trkpt lat="48.74503" lon="-1.52712">
        <ele>78.4</ele>
        <time>2022-08-27T12:19:55Z</time>
      </trkpt>
      <trkpt lat="48.74486" lon="-1.52701">
        <ele>78.4</ele>
        <time>2022-08-27T12:19:58Z</time>
      </trkpt>
      <trkpt lat="48.74469" lon="-1.52687">
        <ele>78.2</ele>
        <time>2022-08-27T12:20:01Z</time>
      </trkpt>
      <trkpt lat="48.74415" lon="-1.52646">
        <ele>77.6</ele>
        <time>2022-08-27T12:20:10Z</time>
      </trkpt>
      <trkpt lat="48.74375" lon="-1.52632">
        <ele>77.2</ele>
        <time>2022-08-27T12:20:16Z</time>
      </trkpt>
      <trkpt lat="48.74323" lon="-1.52615">
        <ele>76.4</ele>
        <time>2022-08-27T12:20:23Z</time>
      </trkpt>
      <trkpt lat="48.74268" lon="-1.52597">
        <ele>75.2</ele>
        <time>2022-08-27T12:20:30Z</time>
      </trkpt>
      <trkpt lat="48.74261" lon="-1.52595">
        <ele>75.2</ele>
        <time>2022-08-27T12:20:31Z</time>
      </trkpt>
      <trkpt lat="48.74226" lon="-1.52587">
        <ele>74.6</ele>
        <time>2022-08-27T12:20:36Z</time>
      </trkpt>
      <trkpt lat="48.74193" lon="-1.52586">
        <ele>74.4</ele>
        <time>2022-08-27T12:20:42Z</time>
      </trkpt>
      <trkpt lat="48.74184" lon="-1.52588">
        <ele>74.2</ele>
        <time>2022-08-27T12:20:44Z</time>
      </trkpt>
      <trkpt lat="48.74173" lon="-1.52594">
        <ele>74.2</ele>
        <time>2022-08-27T12:20:47Z</time>
      </trkpt>
      <trkpt lat="48.74146" lon="-1.52613">
        <ele>74.4</ele>
        <time>2022-08-27T12:20:55Z</time>
      </trkpt>
      <trkpt lat="48.74129" lon="-1.52631">
        <ele>74.4</ele>
        <time>2022-08-27T12:21:01Z</time>
      </trkpt>
      <trkpt lat="48.74104" lon="-1.52648">
        <ele>74.6</ele>
        <time>2022-08-27T12:21:09Z</time>
      </trkpt>
      <trkpt lat="48.7408" lon="-1.52645">
        <ele>74.8</ele>
        <time>2022-08-27T12:21:16Z</time>
      </trkpt>
      <trkpt lat="48.74047" lon="-1.52636">
        <ele>75.6</ele>
        <time>2022-08-27T12:21:26Z</time>
      </trkpt>
      <trkpt lat="48.74017" lon="-1.52629">
        <ele>76.2</ele>
        <time>2022-08-27T12:21:35Z</time>
      </trkpt>
      <trkpt lat="48.73998" lon="-1.52623">
        <ele>76.4</ele>
        <time>2022-08-27T12:21:41Z</time>
      </trkpt>
      <trkpt lat="48.73973" lon="-1.52617">
        <ele>76.6</ele>
        <time>2022-08-27T12:21:48Z</time>
      </trkpt>
      <trkpt lat="48.7394" lon="-1.52609">
        <ele>76.8</ele>
        <time>2022-08-27T12:21:57Z</time>
      </trkpt>
      <trkpt lat="48.73932" lon="-1.52606">
        <ele>76.8</ele>
        <time>2022-08-27T12:21:59Z</time>
      </trkpt>
      <trkpt lat="48.73915" lon="-1.52602">
        <ele>77</ele>
        <time>2022-08-27T12:22:03Z</time>
      </trkpt>
      <trkpt lat="48.73912" lon="-1.52604">
        <ele>77.2</ele>
        <time>2022-08-27T12:22:04Z</time>
      </trkpt>
      <trkpt lat="48.73907" lon="-1.52614">
        <ele>77.2</ele>
        <time>2022-08-27T12:22:06Z</time>
      </trkpt>
      <trkpt lat="48.73906" lon="-1.52642">
        <ele>77.2</ele>
        <time>2022-08-27T12:22:10Z</time>
      </trkpt>
      <trkpt lat="48.73906" lon="-1.52687">
        <ele>77</ele>
        <time>2022-08-27T12:22:16Z</time>
      </trkpt>
      <trkpt lat="48.73906" lon="-1.52693">
        <ele>77</ele>
        <time>2022-08-27T12:22:17Z</time>
      </trkpt>
      <trkpt lat="48.73906" lon="-1.52712">
        <ele>77.4</ele>
        <time>2022-08-27T12:22:20Z</time>
      </trkpt>
      <trkpt lat="48.73906" lon="-1.5272">
        <ele>77.4</ele>
        <time>2022-08-27T12:22:21Z</time>
      </trkpt>
      <trkpt lat="48.73902" lon="-1.52735">
        <ele>77</ele>
        <time>2022-08-27T12:22:23Z</time>
      </trkpt>
      <trkpt lat="48.73897" lon="-1.52743">
        <ele>76.8</ele>
        <time>2022-08-27T12:22:26Z</time>
      </trkpt>
      <trkpt lat="48.73889" lon="-1.52755">
        <ele>77</ele>
        <time>2022-08-27T12:22:32Z</time>
      </trkpt>
      <trkpt lat="48.73887" lon="-1.5276">
        <ele>77.2</ele>
        <time>2022-08-27T12:22:34Z</time>
      </trkpt>
      <trkpt lat="48.73885" lon="-1.52765">
        <ele>77</ele>
        <time>2022-08-27T12:22:36Z</time>
      </trkpt>
      <trkpt lat="48.73884" lon="-1.52768">
        <ele>76.8</ele>
        <time>2022-08-27T12:22:37Z</time>
      </trkpt>
      <trkpt lat="48.7388" lon="-1.52772">
        <ele>76.8</ele>
        <time>2022-08-27T12:22:39Z</time>
      </trkpt>
      <trkpt lat="48.73878" lon="-1.52771">
        <ele>76.8</ele>
        <time>2022-08-27T12:22:40Z</time>
      </trkpt>
      <trkpt lat="48.73879" lon="-1.52765">
        <ele>76.4</ele>
        <time>2022-08-27T12:22:44Z</time>
      </trkpt>
      <trkpt lat="48.73887" lon="-1.52753">
        <ele>75</ele>
        <time>2022-08-27T12:25:27Z</time>
      </trkpt>
      <trkpt lat="48.73892" lon="-1.52746">
        <ele>75</ele>
        <time>2022-08-27T12:25:30Z</time>
      </trkpt>
      <trkpt lat="48.73896" lon="-1.52732">
        <ele>75</ele>
        <time>2022-08-27T12:25:34Z</time>
      </trkpt>
      <trkpt lat="48.73894" lon="-1.5273">
        <ele>75</ele>
        <time>2022-08-27T12:25:35Z</time>
      </trkpt>
      <trkpt lat="48.73877" lon="-1.52716">
        <ele>74.6</ele>
        <time>2022-08-27T12:25:41Z</time>
      </trkpt>
      <trkpt lat="48.73851" lon="-1.52698">
        <ele>74.4</ele>
        <time>2022-08-27T12:25:49Z</time>
      </trkpt>
      <trkpt lat="48.73819" lon="-1.52684">
        <ele>75</ele>
        <time>2022-08-27T12:25:58Z</time>
      </trkpt>
      <trkpt lat="48.738" lon="-1.52676">
        <ele>75.4</ele>
        <time>2022-08-27T12:26:03Z</time>
      </trkpt>
      <trkpt lat="48.73777" lon="-1.52667">
        <ele>75.8</ele>
        <time>2022-08-27T12:26:10Z</time>
      </trkpt>
      <trkpt lat="48.73756" lon="-1.5266">
        <ele>76.6</ele>
        <time>2022-08-27T12:26:17Z</time>
      </trkpt>
      <trkpt lat="48.73739" lon="-1.52655">
        <ele>77.2</ele>
        <time>2022-08-27T12:26:23Z</time>
      </trkpt>
      <trkpt lat="48.73717" lon="-1.52648">
        <ele>78.4</ele>
        <time>2022-08-27T12:26:31Z</time>
      </trkpt>
      <trkpt lat="48.73707" lon="-1.52643">
        <ele>79</ele>
        <time>2022-08-27T12:26:35Z</time>
      </trkpt>
      <trkpt lat="48.7369" lon="-1.52638">
        <ele>80.2</ele>
        <time>2022-08-27T12:26:42Z</time>
      </trkpt>
      <trkpt lat="48.73677" lon="-1.52633">
        <ele>81.2</ele>
        <time>2022-08-27T12:26:48Z</time>
      </trkpt>
      <trkpt lat="48.73662" lon="-1.52624">
        <ele>82</ele>
        <time>2022-08-27T12:26:54Z</time>
      </trkpt>
      <trkpt lat="48.73648" lon="-1.52605">
        <ele>83</ele>
        <time>2022-08-27T12:27:00Z</time>
      </trkpt>
      <trkpt lat="48.73638" lon="-1.52583">
        <ele>83.8</ele>
        <time>2022-08-27T12:27:05Z</time>
      </trkpt>
      <trkpt lat="48.73618" lon="-1.52548">
        <ele>84.2</ele>
        <time>2022-08-27T12:27:13Z</time>
      </trkpt>
      <trkpt lat="48.73605" lon="-1.52524">
        <ele>84.6</ele>
        <time>2022-08-27T12:27:18Z</time>
      </trkpt>
      <trkpt lat="48.73584" lon="-1.52486">
        <ele>85.4</ele>
        <time>2022-08-27T12:27:26Z</time>
      </trkpt>
      <trkpt lat="48.73575" lon="-1.5247">
        <ele>86</ele>
        <time>2022-08-27T12:27:31Z</time>
      </trkpt>
      <trkpt lat="48.73575" lon="-1.5247">
        <ele>86</ele>
        <time>2022-08-27T12:27:32Z</time>
      </trkpt>
      <trkpt lat="48.73573" lon="-1.52463">
        <ele>88.4</ele>
        <time>2022-08-27T12:28:10Z</time>
      </trkpt>
      <trkpt lat="48.73571" lon="-1.52462">
        <ele>88.4</ele>
        <time>2022-08-27T12:28:12Z</time>
      </trkpt>
      <trkpt lat="48.73565" lon="-1.52449">
        <ele>88.6</ele>
        <time>2022-08-27T12:28:17Z</time>
      </trkpt>
      <trkpt lat="48.73556" lon="-1.52431">
        <ele>88.6</ele>
        <time>2022-08-27T12:28:21Z</time>
      </trkpt>
      <trkpt lat="48.73545" lon="-1.52411">
        <ele>88.6</ele>
        <time>2022-08-27T12:28:25Z</time>
      </trkpt>
      <trkpt lat="48.73524" lon="-1.52392">
        <ele>88.6</ele>
        <time>2022-08-27T12:28:31Z</time>
      </trkpt>
      <trkpt lat="48.73509" lon="-1.52382">
        <ele>88.6</ele>
        <time>2022-08-27T12:28:36Z</time>
      </trkpt>
      <trkpt lat="48.7349" lon="-1.52366">
        <ele>88.4</ele>
        <time>2022-08-27T12:28:41Z</time>
      </trkpt>
      <trkpt lat="48.73486" lon="-1.52362">
        <ele>88.4</ele>
        <time>2022-08-27T12:28:42Z</time>
      </trkpt>
      <trkpt lat="48.73474" lon="-1.52349">
        <ele>88</ele>
        <time>2022-08-27T12:28:46Z</time>
      </trkpt>
      <trkpt lat="48.73461" lon="-1.52334">
        <ele>87.6</ele>
        <time>2022-08-27T12:28:50Z</time>
      </trkpt>
      <trkpt lat="48.73458" lon="-1.5233">
        <ele>87.6</ele>
        <time>2022-08-27T12:28:51Z</time>
      </trkpt>
      <trkpt lat="48.73447" lon="-1.52313">
        <ele>87.4</ele>
        <time>2022-08-27T12:28:55Z</time>
      </trkpt>
      <trkpt lat="48.73434" lon="-1.52294">
        <ele>87</ele>
        <time>2022-08-27T12:29:00Z</time>
      </trkpt>
      <trkpt lat="48.73428" lon="-1.52286">
        <ele>86.6</ele>
        <time>2022-08-27T12:29:02Z</time>
      </trkpt>
      <trkpt lat="48.7342" lon="-1.52277">
        <ele>86.4</ele>
        <time>2022-08-27T12:29:04Z</time>
      </trkpt>
      <trkpt lat="48.73413" lon="-1.52271">
        <ele>86.4</ele>
        <time>2022-08-27T12:29:06Z</time>
      </trkpt>
      <trkpt lat="48.7341" lon="-1.52267">
        <ele>86.2</ele>
        <time>2022-08-27T12:29:07Z</time>
      </trkpt>
      <trkpt lat="48.73406" lon="-1.52247">
        <ele>86</ele>
        <time>2022-08-27T12:29:11Z</time>
      </trkpt>
      <trkpt lat="48.73402" lon="-1.52216">
        <ele>85.4</ele>
        <time>2022-08-27T12:29:16Z</time>
      </trkpt>
      <trkpt lat="48.73399" lon="-1.52196">
        <ele>85.2</ele>
        <time>2022-08-27T12:29:20Z</time>
      </trkpt>
      <trkpt lat="48.73396" lon="-1.52171">
        <ele>84.2</ele>
        <time>2022-08-27T12:29:25Z</time>
      </trkpt>
      <trkpt lat="48.73395" lon="-1.52161">
        <ele>83.8</ele>
        <time>2022-08-27T12:29:27Z</time>
      </trkpt>
      <trkpt lat="48.73394" lon="-1.52154">
        <ele>83.2</ele>
        <time>2022-08-27T12:29:29Z</time>
      </trkpt>
      <trkpt lat="48.73392" lon="-1.52139">
        <ele>82.4</ele>
        <time>2022-08-27T12:29:32Z</time>
      </trkpt>
      <trkpt lat="48.7339" lon="-1.52133">
        <ele>82</ele>
        <time>2022-08-27T12:29:34Z</time>
      </trkpt>
      <trkpt lat="48.73382" lon="-1.52117">
        <ele>81.2</ele>
        <time>2022-08-27T12:29:37Z</time>
      </trkpt>
      <trkpt lat="48.73366" lon="-1.52088">
        <ele>79.8</ele>
        <time>2022-08-27T12:29:42Z</time>
      </trkpt>
      <trkpt lat="48.73356" lon="-1.52072">
        <ele>79</ele>
        <time>2022-08-27T12:29:45Z</time>
      </trkpt>
      <trkpt lat="48.73351" lon="-1.52068">
        <ele>78.8</ele>
        <time>2022-08-27T12:29:46Z</time>
      </trkpt>
      <trkpt lat="48.7334" lon="-1.52056">
        <ele>78</ele>
        <time>2022-08-27T12:29:49Z</time>
      </trkpt>
      <trkpt lat="48.73328" lon="-1.52045">
        <ele>76.8</ele>
        <time>2022-08-27T12:29:53Z</time>
      </trkpt>
      <trkpt lat="48.73317" lon="-1.52035">
        <ele>76</ele>
        <time>2022-08-27T12:29:58Z</time>
      </trkpt>
      <trkpt lat="48.73309" lon="-1.52026">
        <ele>75.2</ele>
        <time>2022-08-27T12:30:02Z</time>
      </trkpt>
      <trkpt lat="48.73301" lon="-1.52014">
        <ele>74.8</ele>
        <time>2022-08-27T12:30:06Z</time>
      </trkpt>
      <trkpt lat="48.73295" lon="-1.52002">
        <ele>74.6</ele>
        <time>2022-08-27T12:30:10Z</time>
      </trkpt>
      <trkpt lat="48.73289" lon="-1.51982">
        <ele>73.6</ele>
        <time>2022-08-27T12:30:15Z</time>
      </trkpt>
      <trkpt lat="48.7328" lon="-1.51958">
        <ele>73.2</ele>
        <time>2022-08-27T12:30:19Z</time>
      </trkpt>
      <trkpt lat="48.73275" lon="-1.51943">
        <ele>72.8</ele>
        <time>2022-08-27T12:30:22Z</time>
      </trkpt>
      <trkpt lat="48.73271" lon="-1.51931">
        <ele>72.6</ele>
        <time>2022-08-27T12:30:24Z</time>
      </trkpt>
      <trkpt lat="48.7327" lon="-1.51929">
        <ele>72.4</ele>
        <time>2022-08-27T12:30:25Z</time>
      </trkpt>
      <trkpt lat="48.73265" lon="-1.51912">
        <ele>72.4</ele>
        <time>2022-08-27T12:30:27Z</time>
      </trkpt>
      <trkpt lat="48.73262" lon="-1.51905">
        <ele>72.4</ele>
        <time>2022-08-27T12:30:28Z</time>
      </trkpt>
      <trkpt lat="48.73257" lon="-1.51898">
        <ele>72.4</ele>
        <time>2022-08-27T12:30:31Z</time>
      </trkpt>
      <trkpt lat="48.73257" lon="-1.51898">
        <ele>72.2</ele>
        <time>2022-08-27T12:30:33Z</time>
      </trkpt>
      <trkpt lat="48.73255" lon="-1.51902">
        <ele>72.2</ele>
        <time>2022-08-27T12:30:36Z</time>
      </trkpt>
      <trkpt lat="48.73255" lon="-1.51905">
        <ele>72</ele>
        <time>2022-08-27T12:30:38Z</time>
      </trkpt>
      <trkpt lat="48.73253" lon="-1.51913">
        <ele>71.6</ele>
        <time>2022-08-27T12:30:40Z</time>
      </trkpt>
      <trkpt lat="48.73255" lon="-1.51924">
        <ele>71.2</ele>
        <time>2022-08-27T12:30:43Z</time>
      </trkpt>
      <trkpt lat="48.73258" lon="-1.51936">
        <ele>70.6</ele>
        <time>2022-08-27T12:30:48Z</time>
      </trkpt>
      <trkpt lat="48.73255" lon="-1.51937">
        <ele>70.2</ele>
        <time>2022-08-27T12:30:50Z</time>
      </trkpt>
      <trkpt lat="48.73254" lon="-1.51937">
        <ele>70.2</ele>
        <time>2022-08-27T12:30:51Z</time>
      </trkpt>
      <trkpt lat="48.73249" lon="-1.51941">
        <ele>70</ele>
        <time>2022-08-27T12:30:53Z</time>
      </trkpt>
      <trkpt lat="48.73246" lon="-1.51945">
        <ele>69.6</ele>
        <time>2022-08-27T12:30:55Z</time>
      </trkpt>
      <trkpt lat="48.73242" lon="-1.51958">
        <ele>68.6</ele>
        <time>2022-08-27T12:30:59Z</time>
      </trkpt>
      <trkpt lat="48.73241" lon="-1.51963">
        <ele>68.4</ele>
        <time>2022-08-27T12:31:00Z</time>
      </trkpt>
      <trkpt lat="48.73239" lon="-1.51987">
        <ele>67.6</ele>
        <time>2022-08-27T12:31:04Z</time>
      </trkpt>
      <trkpt lat="48.73237" lon="-1.5201">
        <ele>66.4</ele>
        <time>2022-08-27T12:31:08Z</time>
      </trkpt>
      <trkpt lat="48.73232" lon="-1.52029">
        <ele>65.4</ele>
        <time>2022-08-27T12:31:12Z</time>
      </trkpt>
      <trkpt lat="48.73232" lon="-1.52042">
        <ele>64.2</ele>
        <time>2022-08-27T12:31:15Z</time>
      </trkpt>
      <trkpt lat="48.73233" lon="-1.5206">
        <ele>62.4</ele>
        <time>2022-08-27T12:31:19Z</time>
      </trkpt>
      <trkpt lat="48.73236" lon="-1.52074">
        <ele>60.8</ele>
        <time>2022-08-27T12:31:22Z</time>
      </trkpt>
      <trkpt lat="48.73238" lon="-1.52091">
        <ele>58</ele>
        <time>2022-08-27T12:31:27Z</time>
      </trkpt>
      <trkpt lat="48.73242" lon="-1.52105">
        <ele>55.4</ele>
        <time>2022-08-27T12:31:31Z</time>
      </trkpt>
      <trkpt lat="48.7325" lon="-1.52122">
        <ele>52.8</ele>
        <time>2022-08-27T12:31:35Z</time>
      </trkpt>
      <trkpt lat="48.73251" lon="-1.52126">
        <ele>52.2</ele>
        <time>2022-08-27T12:31:36Z</time>
      </trkpt>
      <trkpt lat="48.73256" lon="-1.52138">
        <ele>51.4</ele>
        <time>2022-08-27T12:31:38Z</time>
      </trkpt>
      <trkpt lat="48.73258" lon="-1.52147">
        <ele>50.8</ele>
        <time>2022-08-27T12:31:40Z</time>
      </trkpt>
      <trkpt lat="48.73259" lon="-1.5215">
        <ele>50.4</ele>
        <time>2022-08-27T12:31:41Z</time>
      </trkpt>
      <trkpt lat="48.7326" lon="-1.52162">
        <ele>49.4</ele>
        <time>2022-08-27T12:31:44Z</time>
      </trkpt>
      <trkpt lat="48.73258" lon="-1.52178">
        <ele>48.4</ele>
        <time>2022-08-27T12:31:48Z</time>
      </trkpt>
      <trkpt lat="48.73257" lon="-1.52181">
        <ele>48.2</ele>
        <time>2022-08-27T12:31:49Z</time>
      </trkpt>
      <trkpt lat="48.73252" lon="-1.52191">
        <ele>47.2</ele>
        <time>2022-08-27T12:31:52Z</time>
      </trkpt>
      <trkpt lat="48.73244" lon="-1.52196">
        <ele>46.4</ele>
        <time>2022-08-27T12:31:56Z</time>
      </trkpt>
      <trkpt lat="48.73233" lon="-1.52197">
        <ele>45.4</ele>
        <time>2022-08-27T12:32:00Z</time>
      </trkpt>
      <trkpt lat="48.73215" lon="-1.52189">
        <ele>44</ele>
        <time>2022-08-27T12:32:05Z</time>
      </trkpt>
      <trkpt lat="48.73211" lon="-1.52188">
        <ele>43.6</ele>
        <time>2022-08-27T12:32:06Z</time>
      </trkpt>
      <trkpt lat="48.73193" lon="-1.52182">
        <ele>43</ele>
        <time>2022-08-27T12:32:09Z</time>
      </trkpt>
      <trkpt lat="48.73172" lon="-1.52174">
        <ele>41.4</ele>
        <time>2022-08-27T12:32:13Z</time>
      </trkpt>
      <trkpt lat="48.73169" lon="-1.52171">
        <ele>41.2</ele>
        <time>2022-08-27T12:32:15Z</time>
      </trkpt>
      <trkpt lat="48.73166" lon="-1.5217">
        <ele>38.2</ele>
        <time>2022-08-27T12:32:30Z</time>
      </trkpt>
      <trkpt lat="48.73164" lon="-1.52169">
        <ele>37.8</ele>
        <time>2022-08-27T12:32:31Z</time>
      </trkpt>
      <trkpt lat="48.73162" lon="-1.52168">
        <ele>37.4</ele>
        <time>2022-08-27T12:32:34Z</time>
      </trkpt>
      <trkpt lat="48.73157" lon="-1.52162">
        <ele>32.8</ele>
        <time>2022-08-27T12:33:07Z</time>
      </trkpt>
      <trkpt lat="48.73155" lon="-1.52163">
        <ele>32.6</ele>
        <time>2022-08-27T12:33:10Z</time>
      </trkpt>
      <trkpt lat="48.73155" lon="-1.52166">
        <ele>32.4</ele>
        <time>2022-08-27T12:33:12Z</time>
      </trkpt>
      <trkpt lat="48.73153" lon="-1.52167">
        <ele>32.2</ele>
        <time>2022-08-27T12:33:13Z</time>
      </trkpt>
      <trkpt lat="48.73148" lon="-1.52167">
        <ele>32</ele>
        <time>2022-08-27T12:33:14Z</time>
      </trkpt>
      <trkpt lat="48.73125" lon="-1.52165">
        <ele>30.8</ele>
        <time>2022-08-27T12:33:17Z</time>
      </trkpt>
      <trkpt lat="48.73094" lon="-1.52157">
        <ele>28.6</ele>
        <time>2022-08-27T12:33:21Z</time>
      </trkpt>
      <trkpt lat="48.73069" lon="-1.52142">
        <ele>26.2</ele>
        <time>2022-08-27T12:33:25Z</time>
      </trkpt>
      <trkpt lat="48.73056" lon="-1.52137">
        <ele>24.6</ele>
        <time>2022-08-27T12:33:28Z</time>
      </trkpt>
      <trkpt lat="48.73054" lon="-1.5214">
        <ele>24.2</ele>
        <time>2022-08-27T12:33:29Z</time>
      </trkpt>
      <trkpt lat="48.73051" lon="-1.52152">
        <ele>23.2</ele>
        <time>2022-08-27T12:33:31Z</time>
      </trkpt>
      <trkpt lat="48.7305" lon="-1.5216">
        <ele>22.8</ele>
        <time>2022-08-27T12:33:32Z</time>
      </trkpt>
      <trkpt lat="48.73049" lon="-1.52204">
        <ele>20.2</ele>
        <time>2022-08-27T12:33:37Z</time>
      </trkpt>
      <trkpt lat="48.73049" lon="-1.52213">
        <ele>19.8</ele>
        <time>2022-08-27T12:33:38Z</time>
      </trkpt>
      <trkpt lat="48.73047" lon="-1.52222">
        <ele>19.4</ele>
        <time>2022-08-27T12:33:39Z</time>
      </trkpt>
      <trkpt lat="48.73041" lon="-1.52251">
        <ele>18.6</ele>
        <time>2022-08-27T12:33:42Z</time>
      </trkpt>
      <trkpt lat="48.73027" lon="-1.523">
        <ele>17</ele>
        <time>2022-08-27T12:33:47Z</time>
      </trkpt>
      <trkpt lat="48.73026" lon="-1.5231">
        <ele>16.8</ele>
        <time>2022-08-27T12:33:48Z</time>
      </trkpt>
      <trkpt lat="48.73024" lon="-1.52365">
        <ele>15.4</ele>
        <time>2022-08-27T12:33:53Z</time>
      </trkpt>
      <trkpt lat="48.73026" lon="-1.52421">
        <ele>14.2</ele>
        <time>2022-08-27T12:33:59Z</time>
      </trkpt>
      <trkpt lat="48.73027" lon="-1.52429">
        <ele>14</ele>
        <time>2022-08-27T12:34:00Z</time>
      </trkpt>
      <trkpt lat="48.7303" lon="-1.52443">
        <ele>13.6</ele>
        <time>2022-08-27T12:34:02Z</time>
      </trkpt>
      <trkpt lat="48.73032" lon="-1.5245">
        <ele>13.4</ele>
        <time>2022-08-27T12:34:03Z</time>
      </trkpt>
      <trkpt lat="48.73037" lon="-1.52461">
        <ele>13</ele>
        <time>2022-08-27T12:34:05Z</time>
      </trkpt>
      <trkpt lat="48.7304" lon="-1.52465">
        <ele>12.8</ele>
        <time>2022-08-27T12:34:06Z</time>
      </trkpt>
      <trkpt lat="48.73053" lon="-1.52489">
        <ele>11.8</ele>
        <time>2022-08-27T12:34:11Z</time>
      </trkpt>
      <trkpt lat="48.73055" lon="-1.52495">
        <ele>11.6</ele>
        <time>2022-08-27T12:34:12Z</time>
      </trkpt>
      <trkpt lat="48.73057" lon="-1.52501">
        <ele>11.4</ele>
        <time>2022-08-27T12:34:13Z</time>
      </trkpt>
      <trkpt lat="48.7306" lon="-1.52515">
        <ele>11</ele>
        <time>2022-08-27T12:34:15Z</time>
      </trkpt>
      <trkpt lat="48.7306" lon="-1.52531">
        <ele>10.8</ele>
        <time>2022-08-27T12:34:17Z</time>
      </trkpt>
      <trkpt lat="48.73058" lon="-1.52586">
        <ele>10</ele>
        <time>2022-08-27T12:34:24Z</time>
      </trkpt>
      <trkpt lat="48.73053" lon="-1.52666">
        <ele>9.4</ele>
        <time>2022-08-27T12:34:34Z</time>
      </trkpt>
      <trkpt lat="48.73048" lon="-1.52742">
        <ele>8.8</ele>
        <time>2022-08-27T12:34:43Z</time>
      </trkpt>
      <trkpt lat="48.73039" lon="-1.52801">
        <ele>8.6</ele>
        <time>2022-08-27T12:34:50Z</time>
      </trkpt>
      <trkpt lat="48.73022" lon="-1.52866">
        <ele>8.4</ele>
        <time>2022-08-27T12:34:58Z</time>
      </trkpt>
      <trkpt lat="48.73016" lon="-1.52899">
        <ele>8.2</ele>
        <time>2022-08-27T12:35:03Z</time>
      </trkpt>
      <trkpt lat="48.73014" lon="-1.5292">
        <ele>8.2</ele>
        <time>2022-08-27T12:35:08Z</time>
      </trkpt>
      <trkpt lat="48.73014" lon="-1.5292">
        <ele>8</ele>
        <time>2022-08-27T12:35:10Z</time>
      </trkpt>
      <trkpt lat="48.73016" lon="-1.52897">
        <ele>7.6</ele>
        <time>2022-08-27T12:40:00Z</time>
      </trkpt>
      <trkpt lat="48.73017" lon="-1.52894">
        <ele>7.6</ele>
        <time>2022-08-27T12:40:01Z</time>
      </trkpt>
      <trkpt lat="48.73021" lon="-1.52879">
        <ele>7.2</ele>
        <time>2022-08-27T12:40:06Z</time>
      </trkpt>
      <trkpt lat="48.73012" lon="-1.52863">
        <ele>6.8</ele>
        <time>2022-08-27T12:40:10Z</time>
      </trkpt>
      <trkpt lat="48.72992" lon="-1.5284">
        <ele>6.6</ele>
        <time>2022-08-27T12:40:16Z</time>
      </trkpt>
      <trkpt lat="48.72968" lon="-1.52815">
        <ele>6.4</ele>
        <time>2022-08-27T12:40:22Z</time>
      </trkpt>
      <trkpt lat="48.72944" lon="-1.52781">
        <ele>6.4</ele>
        <time>2022-08-27T12:40:29Z</time>
      </trkpt>
      <trkpt lat="48.72925" lon="-1.52754">
        <ele>6.4</ele>
        <time>2022-08-27T12:40:35Z</time>
      </trkpt>
      <trkpt lat="48.72907" lon="-1.52732">
        <ele>6.8</ele>
        <time>2022-08-27T12:40:41Z</time>
      </trkpt>
      <trkpt lat="48.72889" lon="-1.52706">
        <ele>7</ele>
        <time>2022-08-27T12:40:47Z</time>
      </trkpt>
      <trkpt lat="48.72867" lon="-1.52673">
        <ele>7.2</ele>
        <time>2022-08-27T12:40:54Z</time>
      </trkpt>
      <trkpt lat="48.72858" lon="-1.52661">
        <ele>7</ele>
        <time>2022-08-27T12:40:58Z</time>
      </trkpt>
      <trkpt lat="48.72847" lon="-1.52641">
        <ele>7</ele>
        <time>2022-08-27T12:41:04Z</time>
      </trkpt>
      <trkpt lat="48.72837" lon="-1.52628">
        <ele>7.2</ele>
        <time>2022-08-27T12:41:09Z</time>
      </trkpt>
      <trkpt lat="48.72825" lon="-1.52609">
        <ele>7.2</ele>
        <time>2022-08-27T12:41:15Z</time>
      </trkpt>
      <trkpt lat="48.72809" lon="-1.52588">
        <ele>7.4</ele>
        <time>2022-08-27T12:41:20Z</time>
      </trkpt>
      <trkpt lat="48.72793" lon="-1.52563">
        <ele>7.4</ele>
        <time>2022-08-27T12:41:26Z</time>
      </trkpt>
      <trkpt lat="48.72779" lon="-1.52547">
        <ele>7.4</ele>
        <time>2022-08-27T12:41:31Z</time>
      </trkpt>
      <trkpt lat="48.72762" lon="-1.52525">
        <ele>7.4</ele>
        <time>2022-08-27T12:41:36Z</time>
      </trkpt>
      <trkpt lat="48.72744" lon="-1.52502">
        <ele>7.4</ele>
        <time>2022-08-27T12:41:41Z</time>
      </trkpt>
      <trkpt lat="48.72721" lon="-1.52477">
        <ele>7.4</ele>
        <time>2022-08-27T12:41:47Z</time>
      </trkpt>
      <trkpt lat="48.72703" lon="-1.52454">
        <ele>7.2</ele>
        <time>2022-08-27T12:41:52Z</time>
      </trkpt>
      <trkpt lat="48.72675" lon="-1.52422">
        <ele>7.2</ele>
        <time>2022-08-27T12:41:59Z</time>
      </trkpt>
      <trkpt lat="48.72641" lon="-1.52381">
        <ele>7</ele>
        <time>2022-08-27T12:42:07Z</time>
      </trkpt>
      <trkpt lat="48.7262" lon="-1.52357">
        <ele>7</ele>
        <time>2022-08-27T12:42:12Z</time>
      </trkpt>
      <trkpt lat="48.72616" lon="-1.52353">
        <ele>6.8</ele>
        <time>2022-08-27T12:42:13Z</time>
      </trkpt>
      <trkpt lat="48.72609" lon="-1.52345">
        <ele>6.8</ele>
        <time>2022-08-27T12:42:15Z</time>
      </trkpt>
      <trkpt lat="48.726" lon="-1.52337">
        <ele>6.6</ele>
        <time>2022-08-27T12:42:17Z</time>
      </trkpt>
      <trkpt lat="48.72588" lon="-1.52327">
        <ele>6.6</ele>
        <time>2022-08-27T12:42:20Z</time>
      </trkpt>
      <trkpt lat="48.72579" lon="-1.52318">
        <ele>6.6</ele>
        <time>2022-08-27T12:42:22Z</time>
      </trkpt>
      <trkpt lat="48.72554" lon="-1.52293">
        <ele>6.8</ele>
        <time>2022-08-27T12:42:28Z</time>
      </trkpt>
      <trkpt lat="48.7252" lon="-1.5226">
        <ele>7</ele>
        <time>2022-08-27T12:42:36Z</time>
      </trkpt>
      <trkpt lat="48.72499" lon="-1.5224">
        <ele>7.2</ele>
        <time>2022-08-27T12:42:42Z</time>
      </trkpt>
      <trkpt lat="48.72489" lon="-1.52231">
        <ele>7.2</ele>
        <time>2022-08-27T12:42:45Z</time>
      </trkpt>
      <trkpt lat="48.72482" lon="-1.52224">
        <ele>7.4</ele>
        <time>2022-08-27T12:42:47Z</time>
      </trkpt>
      <trkpt lat="48.72451" lon="-1.52192">
        <ele>7.4</ele>
        <time>2022-08-27T12:42:55Z</time>
      </trkpt>
      <trkpt lat="48.72412" lon="-1.52151">
        <ele>7.6</ele>
        <time>2022-08-27T12:43:04Z</time>
      </trkpt>
      <trkpt lat="48.72373" lon="-1.52119">
        <ele>7.6</ele>
        <time>2022-08-27T12:43:12Z</time>
      </trkpt>
      <trkpt lat="48.72322" lon="-1.52079">
        <ele>7.6</ele>
        <time>2022-08-27T12:43:22Z</time>
      </trkpt>
      <trkpt lat="48.72317" lon="-1.52075">
        <ele>7.6</ele>
        <time>2022-08-27T12:43:23Z</time>
      </trkpt>
      <trkpt lat="48.72274" lon="-1.52043">
        <ele>7.6</ele>
        <time>2022-08-27T12:43:31Z</time>
      </trkpt>
      <trkpt lat="48.72229" lon="-1.52012">
        <ele>7.4</ele>
        <time>2022-08-27T12:43:39Z</time>
      </trkpt>
      <trkpt lat="48.72189" lon="-1.51987">
        <ele>7.2</ele>
        <time>2022-08-27T12:43:46Z</time>
      </trkpt>
      <trkpt lat="48.72149" lon="-1.51962">
        <ele>7.2</ele>
        <time>2022-08-27T12:43:53Z</time>
      </trkpt>
      <trkpt lat="48.72095" lon="-1.51938">
        <ele>7</ele>
        <time>2022-08-27T12:44:02Z</time>
      </trkpt>
      <trkpt lat="48.72089" lon="-1.51935">
        <ele>7</ele>
        <time>2022-08-27T12:44:03Z</time>
      </trkpt>
      <trkpt lat="48.72056" lon="-1.5192">
        <ele>7</ele>
        <time>2022-08-27T12:44:09Z</time>
      </trkpt>
      <trkpt lat="48.72014" lon="-1.51895">
        <ele>6.6</ele>
        <time>2022-08-27T12:44:17Z</time>
      </trkpt>
      <trkpt lat="48.71966" lon="-1.51857">
        <ele>6.6</ele>
        <time>2022-08-27T12:44:26Z</time>
      </trkpt>
      <trkpt lat="48.7193" lon="-1.51828">
        <ele>6.4</ele>
        <time>2022-08-27T12:44:33Z</time>
      </trkpt>
      <trkpt lat="48.71893" lon="-1.51784">
        <ele>6.4</ele>
        <time>2022-08-27T12:44:41Z</time>
      </trkpt>
      <trkpt lat="48.71868" lon="-1.51753">
        <ele>6.4</ele>
        <time>2022-08-27T12:44:47Z</time>
      </trkpt>
      <trkpt lat="48.7185" lon="-1.5173">
        <ele>6.2</ele>
        <time>2022-08-27T12:44:52Z</time>
      </trkpt>
      <trkpt lat="48.71842" lon="-1.51721">
        <ele>6</ele>
        <time>2022-08-27T12:44:54Z</time>
      </trkpt>
      <trkpt lat="48.71837" lon="-1.51716">
        <ele>6</ele>
        <time>2022-08-27T12:44:55Z</time>
      </trkpt>
      <trkpt lat="48.71832" lon="-1.51711">
        <ele>5.8</ele>
        <time>2022-08-27T12:44:56Z</time>
      </trkpt>
      <trkpt lat="48.71821" lon="-1.517">
        <ele>5.8</ele>
        <time>2022-08-27T12:44:58Z</time>
      </trkpt>
      <trkpt lat="48.71816" lon="-1.51695">
        <ele>5.8</ele>
        <time>2022-08-27T12:44:59Z</time>
      </trkpt>
      <trkpt lat="48.71791" lon="-1.51676">
        <ele>5.6</ele>
        <time>2022-08-27T12:45:03Z</time>
      </trkpt>
      <trkpt lat="48.71745" lon="-1.51638">
        <ele>5.4</ele>
        <time>2022-08-27T12:45:11Z</time>
      </trkpt>
      <trkpt lat="48.71725" lon="-1.51619">
        <ele>5.2</ele>
        <time>2022-08-27T12:45:15Z</time>
      </trkpt>
      <trkpt lat="48.71705" lon="-1.51598">
        <ele>5.4</ele>
        <time>2022-08-27T12:45:19Z</time>
      </trkpt>
      <trkpt lat="48.71668" lon="-1.51556">
        <ele>5.4</ele>
        <time>2022-08-27T12:45:27Z</time>
      </trkpt>
      <trkpt lat="48.71628" lon="-1.51513">
        <ele>5.6</ele>
        <time>2022-08-27T12:45:36Z</time>
      </trkpt>
      <trkpt lat="48.71583" lon="-1.51478">
        <ele>5.8</ele>
        <time>2022-08-27T12:45:45Z</time>
      </trkpt>
      <trkpt lat="48.71546" lon="-1.51453">
        <ele>5.8</ele>
        <time>2022-08-27T12:45:52Z</time>
      </trkpt>
      <trkpt lat="48.71536" lon="-1.51446">
        <ele>6</ele>
        <time>2022-08-27T12:45:54Z</time>
      </trkpt>
      <trkpt lat="48.71494" lon="-1.51416">
        <ele>6</ele>
        <time>2022-08-27T12:46:02Z</time>
      </trkpt>
      <trkpt lat="48.71446" lon="-1.51388">
        <ele>6</ele>
        <time>2022-08-27T12:46:11Z</time>
      </trkpt>
      <trkpt lat="48.71413" lon="-1.51378">
        <ele>6</ele>
        <time>2022-08-27T12:46:17Z</time>
      </trkpt>
      <trkpt lat="48.71408" lon="-1.51376">
        <ele>6</ele>
        <time>2022-08-27T12:46:18Z</time>
      </trkpt>
      <trkpt lat="48.71382" lon="-1.51367">
        <ele>6.2</ele>
        <time>2022-08-27T12:46:23Z</time>
      </trkpt>
      <trkpt lat="48.71338" lon="-1.51343">
        <ele>6.2</ele>
        <time>2022-08-27T12:46:31Z</time>
      </trkpt>
      <trkpt lat="48.71284" lon="-1.51305">
        <ele>6.2</ele>
        <time>2022-08-27T12:46:41Z</time>
      </trkpt>
      <trkpt lat="48.71279" lon="-1.51301">
        <ele>6.2</ele>
        <time>2022-08-27T12:46:42Z</time>
      </trkpt>
      <trkpt lat="48.71231" lon="-1.51265">
        <ele>6.2</ele>
        <time>2022-08-27T12:46:51Z</time>
      </trkpt>
      <trkpt lat="48.71188" lon="-1.51238">
        <ele>6.2</ele>
        <time>2022-08-27T12:46:59Z</time>
      </trkpt>
      <trkpt lat="48.7115" lon="-1.5121">
        <ele>6.2</ele>
        <time>2022-08-27T12:47:06Z</time>
      </trkpt>
      <trkpt lat="48.7112" lon="-1.51177">
        <ele>6.2</ele>
        <time>2022-08-27T12:47:12Z</time>
      </trkpt>
      <trkpt lat="48.71096" lon="-1.51148">
        <ele>6</ele>
        <time>2022-08-27T12:47:17Z</time>
      </trkpt>
      <trkpt lat="48.71055" lon="-1.51102">
        <ele>5.8</ele>
        <time>2022-08-27T12:47:25Z</time>
      </trkpt>
      <trkpt lat="48.71041" lon="-1.51086">
        <ele>5.8</ele>
        <time>2022-08-27T12:47:28Z</time>
      </trkpt>
      <trkpt lat="48.71028" lon="-1.51072">
        <ele>5.8</ele>
        <time>2022-08-27T12:47:31Z</time>
      </trkpt>
      <trkpt lat="48.71017" lon="-1.51061">
        <ele>5.8</ele>
        <time>2022-08-27T12:47:34Z</time>
      </trkpt>
      <trkpt lat="48.71015" lon="-1.51056">
        <ele>5.8</ele>
        <time>2022-08-27T12:47:35Z</time>
      </trkpt>
      <trkpt lat="48.71015" lon="-1.51049">
        <ele>5.8</ele>
        <time>2022-08-27T12:47:36Z</time>
      </trkpt>
      <trkpt lat="48.71018" lon="-1.51025">
        <ele>5.6</ele>
        <time>2022-08-27T12:47:39Z</time>
      </trkpt>
      <trkpt lat="48.71024" lon="-1.50968">
        <ele>5.6</ele>
        <time>2022-08-27T12:47:46Z</time>
      </trkpt>
      <trkpt lat="48.71017" lon="-1.50957">
        <ele>5.6</ele>
        <time>2022-08-27T12:47:48Z</time>
      </trkpt>
      <trkpt lat="48.70995" lon="-1.50949">
        <ele>5.6</ele>
        <time>2022-08-27T12:47:52Z</time>
      </trkpt>
      <trkpt lat="48.70946" lon="-1.50931">
        <ele>5.8</ele>
        <time>2022-08-27T12:48:01Z</time>
      </trkpt>
      <trkpt lat="48.70897" lon="-1.5091">
        <ele>5.8</ele>
        <time>2022-08-27T12:48:10Z</time>
      </trkpt>
      <trkpt lat="48.70854" lon="-1.50889">
        <ele>5.8</ele>
        <time>2022-08-27T12:48:18Z</time>
      </trkpt>
      <trkpt lat="48.70799" lon="-1.50868">
        <ele>6</ele>
        <time>2022-08-27T12:48:28Z</time>
      </trkpt>
      <trkpt lat="48.70753" lon="-1.50854">
        <ele>6</ele>
        <time>2022-08-27T12:48:36Z</time>
      </trkpt>
      <trkpt lat="48.7071" lon="-1.50846">
        <ele>6.4</ele>
        <time>2022-08-27T12:48:43Z</time>
      </trkpt>
      <trkpt lat="48.70671" lon="-1.50843">
        <ele>6.6</ele>
        <time>2022-08-27T12:48:49Z</time>
      </trkpt>
      <trkpt lat="48.70665" lon="-1.50843">
        <ele>6.6</ele>
        <time>2022-08-27T12:48:50Z</time>
      </trkpt>
      <trkpt lat="48.70646" lon="-1.50843">
        <ele>6.8</ele>
        <time>2022-08-27T12:48:53Z</time>
      </trkpt>
      <trkpt lat="48.70607" lon="-1.50841">
        <ele>7.2</ele>
        <time>2022-08-27T12:48:59Z</time>
      </trkpt>
      <trkpt lat="48.70551" lon="-1.50839">
        <ele>7.4</ele>
        <time>2022-08-27T12:49:08Z</time>
      </trkpt>
      <trkpt lat="48.70545" lon="-1.50839">
        <ele>7.4</ele>
        <time>2022-08-27T12:49:09Z</time>
      </trkpt>
      <trkpt lat="48.70488" lon="-1.50836">
        <ele>7.6</ele>
        <time>2022-08-27T12:49:18Z</time>
      </trkpt>
      <trkpt lat="48.70482" lon="-1.50835">
        <ele>7.6</ele>
        <time>2022-08-27T12:49:19Z</time>
      </trkpt>
      <trkpt lat="48.70431" lon="-1.50827">
        <ele>7.4</ele>
        <time>2022-08-27T12:49:27Z</time>
      </trkpt>
      <trkpt lat="48.70376" lon="-1.50818">
        <ele>7.4</ele>
        <time>2022-08-27T12:49:36Z</time>
      </trkpt>
      <trkpt lat="48.70364" lon="-1.50817">
        <ele>7.2</ele>
        <time>2022-08-27T12:49:38Z</time>
      </trkpt>
      <trkpt lat="48.70309" lon="-1.50809">
        <ele>7.2</ele>
        <time>2022-08-27T12:49:47Z</time>
      </trkpt>
      <trkpt lat="48.70265" lon="-1.50803">
        <ele>7</ele>
        <time>2022-08-27T12:49:54Z</time>
      </trkpt>
      <trkpt lat="48.70241" lon="-1.50801">
        <ele>7.2</ele>
        <time>2022-08-27T12:49:58Z</time>
      </trkpt>
      <trkpt lat="48.70229" lon="-1.508">
        <ele>7</ele>
        <time>2022-08-27T12:50:00Z</time>
      </trkpt>
      <trkpt lat="48.70192" lon="-1.50795">
        <ele>7</ele>
        <time>2022-08-27T12:50:06Z</time>
      </trkpt>
      <trkpt lat="48.70162" lon="-1.50786">
        <ele>7</ele>
        <time>2022-08-27T12:50:11Z</time>
      </trkpt>
      <trkpt lat="48.70132" lon="-1.50768">
        <ele>6.8</ele>
        <time>2022-08-27T12:50:16Z</time>
      </trkpt>
      <trkpt lat="48.70081" lon="-1.50726">
        <ele>6.6</ele>
        <time>2022-08-27T12:50:25Z</time>
      </trkpt>
      <trkpt lat="48.70037" lon="-1.50697">
        <ele>6.6</ele>
        <time>2022-08-27T12:50:33Z</time>
      </trkpt>
      <trkpt lat="48.69992" lon="-1.50668">
        <ele>6.6</ele>
        <time>2022-08-27T12:50:41Z</time>
      </trkpt>
      <trkpt lat="48.69939" lon="-1.50628">
        <ele>6.4</ele>
        <time>2022-08-27T12:50:50Z</time>
      </trkpt>
      <trkpt lat="48.69889" lon="-1.50592">
        <ele>6.4</ele>
        <time>2022-08-27T12:50:58Z</time>
      </trkpt>
      <trkpt lat="48.69883" lon="-1.50588">
        <ele>6.4</ele>
        <time>2022-08-27T12:50:59Z</time>
      </trkpt>
      <trkpt lat="48.6984" lon="-1.50563">
        <ele>6.2</ele>
        <time>2022-08-27T12:51:06Z</time>
      </trkpt>
      <trkpt lat="48.69796" lon="-1.50541">
        <ele>6.2</ele>
        <time>2022-08-27T12:51:13Z</time>
      </trkpt>
      <trkpt lat="48.6975" lon="-1.50518">
        <ele>6.4</ele>
        <time>2022-08-27T12:51:20Z</time>
      </trkpt>
      <trkpt lat="48.69694" lon="-1.50489">
        <ele>6.2</ele>
        <time>2022-08-27T12:51:29Z</time>
      </trkpt>
      <trkpt lat="48.69682" lon="-1.50483">
        <ele>6.2</ele>
        <time>2022-08-27T12:51:31Z</time>
      </trkpt>
      <trkpt lat="48.69664" lon="-1.50476">
        <ele>5.8</ele>
        <time>2022-08-27T12:51:34Z</time>
      </trkpt>
      <trkpt lat="48.69633" lon="-1.50459">
        <ele>5.4</ele>
        <time>2022-08-27T12:51:39Z</time>
      </trkpt>
      <trkpt lat="48.69627" lon="-1.50457">
        <ele>5.4</ele>
        <time>2022-08-27T12:51:40Z</time>
      </trkpt>
      <trkpt lat="48.69588" lon="-1.50437">
        <ele>5</ele>
        <time>2022-08-27T12:51:46Z</time>
      </trkpt>
      <trkpt lat="48.69537" lon="-1.50412">
        <ele>4.8</ele>
        <time>2022-08-27T12:51:54Z</time>
      </trkpt>
      <trkpt lat="48.69486" lon="-1.50385">
        <ele>4.8</ele>
        <time>2022-08-27T12:52:02Z</time>
      </trkpt>
      <trkpt lat="48.6943" lon="-1.50358">
        <ele>4.6</ele>
        <time>2022-08-27T12:52:11Z</time>
      </trkpt>
      <trkpt lat="48.69388" lon="-1.50325">
        <ele>4.6</ele>
        <time>2022-08-27T12:52:18Z</time>
      </trkpt>
      <trkpt lat="48.69352" lon="-1.50281">
        <ele>4.6</ele>
        <time>2022-08-27T12:52:25Z</time>
      </trkpt>
      <trkpt lat="48.6932" lon="-1.50234">
        <ele>4.4</ele>
        <time>2022-08-27T12:52:32Z</time>
      </trkpt>
      <trkpt lat="48.69298" lon="-1.50202">
        <ele>4.4</ele>
        <time>2022-08-27T12:52:37Z</time>
      </trkpt>
      <trkpt lat="48.69293" lon="-1.50196">
        <ele>4.4</ele>
        <time>2022-08-27T12:52:38Z</time>
      </trkpt>
      <trkpt lat="48.69258" lon="-1.50152">
        <ele>4.6</ele>
        <time>2022-08-27T12:52:45Z</time>
      </trkpt>
      <trkpt lat="48.69217" lon="-1.50105">
        <ele>4.8</ele>
        <time>2022-08-27T12:52:53Z</time>
      </trkpt>
      <trkpt lat="48.6918" lon="-1.50065">
        <ele>4.8</ele>
        <time>2022-08-27T12:53:00Z</time>
      </trkpt>
      <trkpt lat="48.69137" lon="-1.50017">
        <ele>4.6</ele>
        <time>2022-08-27T12:53:08Z</time>
      </trkpt>
      <trkpt lat="48.691" lon="-1.49976">
        <ele>4.4</ele>
        <time>2022-08-27T12:53:15Z</time>
      </trkpt>
      <trkpt lat="48.69057" lon="-1.49929">
        <ele>4.6</ele>
        <time>2022-08-27T12:53:23Z</time>
      </trkpt>
      <trkpt lat="48.69019" lon="-1.49889">
        <ele>4.4</ele>
        <time>2022-08-27T12:53:30Z</time>
      </trkpt>
      <trkpt lat="48.68993" lon="-1.49861">
        <ele>4.4</ele>
        <time>2022-08-27T12:53:35Z</time>
      </trkpt>
      <trkpt lat="48.68966" lon="-1.49832">
        <ele>4.4</ele>
        <time>2022-08-27T12:53:40Z</time>
      </trkpt>
      <trkpt lat="48.68928" lon="-1.49796">
        <ele>4.4</ele>
        <time>2022-08-27T12:53:47Z</time>
      </trkpt>
      <trkpt lat="48.68889" lon="-1.49759">
        <ele>4.6</ele>
        <time>2022-08-27T12:53:54Z</time>
      </trkpt>
      <trkpt lat="48.6885" lon="-1.49723">
        <ele>4.2</ele>
        <time>2022-08-27T12:54:01Z</time>
      </trkpt>
      <trkpt lat="48.68835" lon="-1.49709">
        <ele>4.2</ele>
        <time>2022-08-27T12:54:04Z</time>
      </trkpt>
      <trkpt lat="48.68829" lon="-1.49704">
        <ele>4</ele>
        <time>2022-08-27T12:54:05Z</time>
      </trkpt>
      <trkpt lat="48.68802" lon="-1.49684">
        <ele>4</ele>
        <time>2022-08-27T12:54:10Z</time>
      </trkpt>
      <trkpt lat="48.68798" lon="-1.49684">
        <ele>4</ele>
        <time>2022-08-27T12:54:11Z</time>
      </trkpt>
      <trkpt lat="48.68793" lon="-1.49686">
        <ele>3.8</ele>
        <time>2022-08-27T12:54:12Z</time>
      </trkpt>
      <trkpt lat="48.68787" lon="-1.49692">
        <ele>3.8</ele>
        <time>2022-08-27T12:54:14Z</time>
      </trkpt>
      <trkpt lat="48.68772" lon="-1.49697">
        <ele>3.6</ele>
        <time>2022-08-27T12:54:18Z</time>
      </trkpt>
      <trkpt lat="48.68765" lon="-1.49699">
        <ele>3.6</ele>
        <time>2022-08-27T12:54:20Z</time>
      </trkpt>
      <trkpt lat="48.68761" lon="-1.49699">
        <ele>3.6</ele>
        <time>2022-08-27T12:54:23Z</time>
      </trkpt>
      <trkpt lat="48.68761" lon="-1.49699">
        <ele>3.6</ele>
        <time>2022-08-27T12:54:24Z</time>
      </trkpt>
      <trkpt lat="48.68765" lon="-1.49696">
        <ele>2.4</ele>
        <time>2022-08-27T12:58:17Z</time>
      </trkpt>
      <trkpt lat="48.68769" lon="-1.49696">
        <ele>2.4</ele>
        <time>2022-08-27T12:58:19Z</time>
      </trkpt>
      <trkpt lat="48.68782" lon="-1.4969">
        <ele>2.4</ele>
        <time>2022-08-27T12:58:23Z</time>
      </trkpt>
      <trkpt lat="48.68785" lon="-1.49687">
        <ele>2.4</ele>
        <time>2022-08-27T12:58:24Z</time>
      </trkpt>
      <trkpt lat="48.6879" lon="-1.49681">
        <ele>2.4</ele>
        <time>2022-08-27T12:58:26Z</time>
      </trkpt>
      <trkpt lat="48.6879" lon="-1.49679">
        <ele>2.4</ele>
        <time>2022-08-27T12:58:27Z</time>
      </trkpt>
      <trkpt lat="48.68791" lon="-1.49677">
        <ele>2.4</ele>
        <time>2022-08-27T12:58:28Z</time>
      </trkpt>
      <trkpt lat="48.68789" lon="-1.49674">
        <ele>2.4</ele>
        <time>2022-08-27T12:58:30Z</time>
      </trkpt>
      <trkpt lat="48.68786" lon="-1.4967">
        <ele>2.6</ele>
        <time>2022-08-27T12:58:32Z</time>
      </trkpt>
      <trkpt lat="48.68767" lon="-1.49653">
        <ele>2.8</ele>
        <time>2022-08-27T12:58:39Z</time>
      </trkpt>
      <trkpt lat="48.6875" lon="-1.49633">
        <ele>3</ele>
        <time>2022-08-27T12:58:44Z</time>
      </trkpt>
      <trkpt lat="48.68748" lon="-1.49627">
        <ele>3</ele>
        <time>2022-08-27T12:58:45Z</time>
      </trkpt>
      <trkpt lat="48.68747" lon="-1.49614">
        <ele>3.2</ele>
        <time>2022-08-27T12:58:47Z</time>
      </trkpt>
      <trkpt lat="48.68747" lon="-1.49607">
        <ele>3.2</ele>
        <time>2022-08-27T12:58:48Z</time>
      </trkpt>
      <trkpt lat="48.68751" lon="-1.49553">
        <ele>3.4</ele>
        <time>2022-08-27T12:58:55Z</time>
      </trkpt>
      <trkpt lat="48.68755" lon="-1.49519">
        <ele>3.4</ele>
        <time>2022-08-27T12:58:59Z</time>
      </trkpt>
      <trkpt lat="48.68757" lon="-1.49493">
        <ele>3.4</ele>
        <time>2022-08-27T12:59:02Z</time>
      </trkpt>
      <trkpt lat="48.68772" lon="-1.49424">
        <ele>3.6</ele>
        <time>2022-08-27T12:59:10Z</time>
      </trkpt>
      <trkpt lat="48.68787" lon="-1.49364">
        <ele>3.6</ele>
        <time>2022-08-27T12:59:17Z</time>
      </trkpt>
      <trkpt lat="48.68805" lon="-1.49292">
        <ele>3.4</ele>
        <time>2022-08-27T12:59:25Z</time>
      </trkpt>
      <trkpt lat="48.68826" lon="-1.49211">
        <ele>3.4</ele>
        <time>2022-08-27T12:59:34Z</time>
      </trkpt>
      <trkpt lat="48.68844" lon="-1.49141">
        <ele>3.4</ele>
        <time>2022-08-27T12:59:42Z</time>
      </trkpt>
      <trkpt lat="48.68858" lon="-1.49069">
        <ele>3.4</ele>
        <time>2022-08-27T12:59:50Z</time>
      </trkpt>
      <trkpt lat="48.68856" lon="-1.49041">
        <ele>3.4</ele>
        <time>2022-08-27T12:59:53Z</time>
      </trkpt>
      <trkpt lat="48.68853" lon="-1.49023">
        <ele>3.4</ele>
        <time>2022-08-27T12:59:55Z</time>
      </trkpt>
      <trkpt lat="48.68851" lon="-1.49014">
        <ele>3.4</ele>
        <time>2022-08-27T12:59:56Z</time>
      </trkpt>
      <trkpt lat="48.68851" lon="-1.48996">
        <ele>3.4</ele>
        <time>2022-08-27T12:59:58Z</time>
      </trkpt>
      <trkpt lat="48.68852" lon="-1.48987">
        <ele>3.4</ele>
        <time>2022-08-27T12:59:59Z</time>
      </trkpt>
      <trkpt lat="48.68855" lon="-1.48979">
        <ele>3.6</ele>
        <time>2022-08-27T13:00:00Z</time>
      </trkpt>
      <trkpt lat="48.68865" lon="-1.48955">
        <ele>3.6</ele>
        <time>2022-08-27T13:00:03Z</time>
      </trkpt>
      <trkpt lat="48.68898" lon="-1.48897">
        <ele>3.6</ele>
        <time>2022-08-27T13:00:10Z</time>
      </trkpt>
      <trkpt lat="48.68926" lon="-1.48847">
        <ele>3.6</ele>
        <time>2022-08-27T13:00:16Z</time>
      </trkpt>
      <trkpt lat="48.68945" lon="-1.48816">
        <ele>3.8</ele>
        <time>2022-08-27T13:00:20Z</time>
      </trkpt>
      <trkpt lat="48.68974" lon="-1.48765">
        <ele>3.8</ele>
        <time>2022-08-27T13:00:27Z</time>
      </trkpt>
      <trkpt lat="48.68994" lon="-1.48727">
        <ele>3.8</ele>
        <time>2022-08-27T13:00:32Z</time>
      </trkpt>
      <trkpt lat="48.69006" lon="-1.48703">
        <ele>3.8</ele>
        <time>2022-08-27T13:00:35Z</time>
      </trkpt>
      <trkpt lat="48.69015" lon="-1.48687">
        <ele>3.8</ele>
        <time>2022-08-27T13:00:37Z</time>
      </trkpt>
      <trkpt lat="48.69027" lon="-1.48663">
        <ele>3.8</ele>
        <time>2022-08-27T13:00:40Z</time>
      </trkpt>
      <trkpt lat="48.69034" lon="-1.48647">
        <ele>3.6</ele>
        <time>2022-08-27T13:00:42Z</time>
      </trkpt>
      <trkpt lat="48.69048" lon="-1.48595">
        <ele>3.4</ele>
        <time>2022-08-27T13:00:48Z</time>
      </trkpt>
      <trkpt lat="48.69051" lon="-1.48577">
        <ele>3.4</ele>
        <time>2022-08-27T13:00:50Z</time>
      </trkpt>
      <trkpt lat="48.6905" lon="-1.48557">
        <ele>3.4</ele>
        <time>2022-08-27T13:00:52Z</time>
      </trkpt>
      <trkpt lat="48.69045" lon="-1.4854">
        <ele>3.4</ele>
        <time>2022-08-27T13:00:54Z</time>
      </trkpt>
      <trkpt lat="48.69038" lon="-1.48525">
        <ele>3.4</ele>
        <time>2022-08-27T13:00:56Z</time>
      </trkpt>
      <trkpt lat="48.6903" lon="-1.48493">
        <ele>3.2</ele>
        <time>2022-08-27T13:01:00Z</time>
      </trkpt>
      <trkpt lat="48.69027" lon="-1.48477">
        <ele>3.4</ele>
        <time>2022-08-27T13:01:02Z</time>
      </trkpt>
      <trkpt lat="48.69026" lon="-1.48468">
        <ele>3.4</ele>
        <time>2022-08-27T13:01:03Z</time>
      </trkpt>
      <trkpt lat="48.69025" lon="-1.48443">
        <ele>3.4</ele>
        <time>2022-08-27T13:01:06Z</time>
      </trkpt>
      <trkpt lat="48.69023" lon="-1.48428">
        <ele>3.4</ele>
        <time>2022-08-27T13:01:08Z</time>
      </trkpt>
      <trkpt lat="48.69021" lon="-1.48414">
        <ele>3.4</ele>
        <time>2022-08-27T13:01:10Z</time>
      </trkpt>
      <trkpt lat="48.6902" lon="-1.48399">
        <ele>3.4</ele>
        <time>2022-08-27T13:01:13Z</time>
      </trkpt>
      <trkpt lat="48.69018" lon="-1.48386">
        <ele>3.4</ele>
        <time>2022-08-27T13:01:15Z</time>
      </trkpt>
      <trkpt lat="48.69014" lon="-1.48369">
        <ele>3.6</ele>
        <time>2022-08-27T13:01:17Z</time>
      </trkpt>
      <trkpt lat="48.69005" lon="-1.4832">
        <ele>3.8</ele>
        <time>2022-08-27T13:01:24Z</time>
      </trkpt>
      <trkpt lat="48.69001" lon="-1.48305">
        <ele>3.8</ele>
        <time>2022-08-27T13:01:26Z</time>
      </trkpt>
      <trkpt lat="48.68997" lon="-1.48291">
        <ele>3.6</ele>
        <time>2022-08-27T13:01:28Z</time>
      </trkpt>
      <trkpt lat="48.68991" lon="-1.48264">
        <ele>3.8</ele>
        <time>2022-08-27T13:01:32Z</time>
      </trkpt>
      <trkpt lat="48.68989" lon="-1.48251">
        <ele>3.8</ele>
        <time>2022-08-27T13:01:34Z</time>
      </trkpt>
      <trkpt lat="48.68987" lon="-1.48238">
        <ele>4</ele>
        <time>2022-08-27T13:01:36Z</time>
      </trkpt>
      <trkpt lat="48.68976" lon="-1.48188">
        <ele>4.2</ele>
        <time>2022-08-27T13:01:44Z</time>
      </trkpt>
      <trkpt lat="48.68972" lon="-1.48176">
        <ele>4</ele>
        <time>2022-08-27T13:01:46Z</time>
      </trkpt>
      <trkpt lat="48.68966" lon="-1.48163">
        <ele>4.2</ele>
        <time>2022-08-27T13:01:49Z</time>
      </trkpt>
      <trkpt lat="48.68961" lon="-1.48151">
        <ele>4.4</ele>
        <time>2022-08-27T13:01:51Z</time>
      </trkpt>
      <trkpt lat="48.68958" lon="-1.48139">
        <ele>4.4</ele>
        <time>2022-08-27T13:01:53Z</time>
      </trkpt>
      <trkpt lat="48.6895" lon="-1.48114">
        <ele>4.8</ele>
        <time>2022-08-27T13:01:57Z</time>
      </trkpt>
      <trkpt lat="48.68946" lon="-1.48102">
        <ele>4.8</ele>
        <time>2022-08-27T13:01:59Z</time>
      </trkpt>
      <trkpt lat="48.68943" lon="-1.4809">
        <ele>5</ele>
        <time>2022-08-27T13:02:01Z</time>
      </trkpt>
      <trkpt lat="48.68935" lon="-1.48073">
        <ele>5</ele>
        <time>2022-08-27T13:02:04Z</time>
      </trkpt>
      <trkpt lat="48.68924" lon="-1.48027">
        <ele>5.2</ele>
        <time>2022-08-27T13:02:11Z</time>
      </trkpt>
      <trkpt lat="48.68915" lon="-1.47976">
        <ele>5.4</ele>
        <time>2022-08-27T13:02:19Z</time>
      </trkpt>
      <trkpt lat="48.68913" lon="-1.47971">
        <ele>5.4</ele>
        <time>2022-08-27T13:02:22Z</time>
      </trkpt>
      <trkpt lat="48.68912" lon="-1.4797">
        <ele>5.6</ele>
        <time>2022-08-27T13:02:25Z</time>
      </trkpt>
      <trkpt lat="48.68907" lon="-1.47969">
        <ele>5.8</ele>
        <time>2022-08-27T13:02:27Z</time>
      </trkpt>
      <trkpt lat="48.68885" lon="-1.4797">
        <ele>6</ele>
        <time>2022-08-27T13:02:32Z</time>
      </trkpt>
      <trkpt lat="48.68846" lon="-1.47969">
        <ele>6.2</ele>
        <time>2022-08-27T13:02:39Z</time>
      </trkpt>
      <trkpt lat="48.68798" lon="-1.47968">
        <ele>6.4</ele>
        <time>2022-08-27T13:02:47Z</time>
      </trkpt>
      <trkpt lat="48.68748" lon="-1.47972">
        <ele>6.4</ele>
        <time>2022-08-27T13:02:55Z</time>
      </trkpt>
      <trkpt lat="48.68698" lon="-1.47984">
        <ele>6.4</ele>
        <time>2022-08-27T13:03:03Z</time>
      </trkpt>
      <trkpt lat="48.68667" lon="-1.4799">
        <ele>6.6</ele>
        <time>2022-08-27T13:03:08Z</time>
      </trkpt>
      <trkpt lat="48.68661" lon="-1.47991">
        <ele>6.6</ele>
        <time>2022-08-27T13:03:09Z</time>
      </trkpt>
      <trkpt lat="48.68622" lon="-1.47988">
        <ele>6.6</ele>
        <time>2022-08-27T13:03:15Z</time>
      </trkpt>
      <trkpt lat="48.6859" lon="-1.47979">
        <ele>6.6</ele>
        <time>2022-08-27T13:03:20Z</time>
      </trkpt>
      <trkpt lat="48.68573" lon="-1.47969">
        <ele>6.6</ele>
        <time>2022-08-27T13:03:23Z</time>
      </trkpt>
      <trkpt lat="48.68568" lon="-1.47964">
        <ele>6.6</ele>
        <time>2022-08-27T13:03:24Z</time>
      </trkpt>
      <trkpt lat="48.6856" lon="-1.47953">
        <ele>6.6</ele>
        <time>2022-08-27T13:03:26Z</time>
      </trkpt>
      <trkpt lat="48.68547" lon="-1.47935">
        <ele>6.6</ele>
        <time>2022-08-27T13:03:29Z</time>
      </trkpt>
      <trkpt lat="48.68529" lon="-1.4791">
        <ele>6.2</ele>
        <time>2022-08-27T13:03:33Z</time>
      </trkpt>
      <trkpt lat="48.68506" lon="-1.4788">
        <ele>5.8</ele>
        <time>2022-08-27T13:03:37Z</time>
      </trkpt>
      <trkpt lat="48.68483" lon="-1.47852">
        <ele>5.4</ele>
        <time>2022-08-27T13:03:41Z</time>
      </trkpt>
      <trkpt lat="48.68478" lon="-1.47848">
        <ele>5.4</ele>
        <time>2022-08-27T13:03:42Z</time>
      </trkpt>
      <trkpt lat="48.68465" lon="-1.47835">
        <ele>5</ele>
        <time>2022-08-27T13:03:46Z</time>
      </trkpt>
      <trkpt lat="48.6845" lon="-1.47818">
        <ele>4.4</ele>
        <time>2022-08-27T13:03:51Z</time>
      </trkpt>
      <trkpt lat="48.68439" lon="-1.47803">
        <ele>4.4</ele>
        <time>2022-08-27T13:03:55Z</time>
      </trkpt>
      <trkpt lat="48.68434" lon="-1.47794">
        <ele>4.4</ele>
        <time>2022-08-27T13:03:57Z</time>
      </trkpt>
      <trkpt lat="48.68431" lon="-1.47779">
        <ele>4.2</ele>
        <time>2022-08-27T13:03:59Z</time>
      </trkpt>
      <trkpt lat="48.68428" lon="-1.47745">
        <ele>4</ele>
        <time>2022-08-27T13:04:03Z</time>
      </trkpt>
      <trkpt lat="48.68428" lon="-1.47736">
        <ele>3.8</ele>
        <time>2022-08-27T13:04:04Z</time>
      </trkpt>
      <trkpt lat="48.68427" lon="-1.47711">
        <ele>3.6</ele>
        <time>2022-08-27T13:04:07Z</time>
      </trkpt>
      <trkpt lat="48.68424" lon="-1.47704">
        <ele>3.4</ele>
        <time>2022-08-27T13:04:08Z</time>
      </trkpt>
      <trkpt lat="48.68411" lon="-1.47686">
        <ele>3.2</ele>
        <time>2022-08-27T13:04:12Z</time>
      </trkpt>
      <trkpt lat="48.68392" lon="-1.47665">
        <ele>3</ele>
        <time>2022-08-27T13:04:17Z</time>
      </trkpt>
      <trkpt lat="48.6838" lon="-1.47648">
        <ele>2.8</ele>
        <time>2022-08-27T13:04:20Z</time>
      </trkpt>
      <trkpt lat="48.68375" lon="-1.47643">
        <ele>2.6</ele>
        <time>2022-08-27T13:04:21Z</time>
      </trkpt>
      <trkpt lat="48.68357" lon="-1.47621">
        <ele>2.6</ele>
        <time>2022-08-27T13:04:25Z</time>
      </trkpt>
      <trkpt lat="48.68337" lon="-1.47595">
        <ele>2.6</ele>
        <time>2022-08-27T13:04:29Z</time>
      </trkpt>
      <trkpt lat="48.68332" lon="-1.47588">
        <ele>2.6</ele>
        <time>2022-08-27T13:04:30Z</time>
      </trkpt>
      <trkpt lat="48.68317" lon="-1.47561">
        <ele>2.2</ele>
        <time>2022-08-27T13:04:34Z</time>
      </trkpt>
      <trkpt lat="48.68309" lon="-1.47549">
        <ele>2</ele>
        <time>2022-08-27T13:04:36Z</time>
      </trkpt>
      <trkpt lat="48.68304" lon="-1.47546">
        <ele>2</ele>
        <time>2022-08-27T13:04:37Z</time>
      </trkpt>
      <trkpt lat="48.68294" lon="-1.47536">
        <ele>2</ele>
        <time>2022-08-27T13:04:39Z</time>
      </trkpt>
      <trkpt lat="48.68279" lon="-1.47522">
        <ele>1.8</ele>
        <time>2022-08-27T13:04:42Z</time>
      </trkpt>
      <trkpt lat="48.68242" lon="-1.4749">
        <ele>2</ele>
        <time>2022-08-27T13:04:49Z</time>
      </trkpt>
      <trkpt lat="48.68216" lon="-1.47468">
        <ele>2.2</ele>
        <time>2022-08-27T13:04:54Z</time>
      </trkpt>
      <trkpt lat="48.68193" lon="-1.47441">
        <ele>2.4</ele>
        <time>2022-08-27T13:04:59Z</time>
      </trkpt>
      <trkpt lat="48.68189" lon="-1.47433">
        <ele>2.4</ele>
        <time>2022-08-27T13:05:00Z</time>
      </trkpt>
      <trkpt lat="48.68173" lon="-1.47389">
        <ele>2.4</ele>
        <time>2022-08-27T13:05:05Z</time>
      </trkpt>
      <trkpt lat="48.68161" lon="-1.47349">
        <ele>2.4</ele>
        <time>2022-08-27T13:05:10Z</time>
      </trkpt>
      <trkpt lat="48.6816" lon="-1.47341">
        <ele>2.6</ele>
        <time>2022-08-27T13:05:11Z</time>
      </trkpt>
      <trkpt lat="48.68145" lon="-1.47279">
        <ele>2.8</ele>
        <time>2022-08-27T13:05:19Z</time>
      </trkpt>
      <trkpt lat="48.68145" lon="-1.47271">
        <ele>2.8</ele>
        <time>2022-08-27T13:05:20Z</time>
      </trkpt>
      <trkpt lat="48.68146" lon="-1.47263">
        <ele>2.8</ele>
        <time>2022-08-27T13:05:21Z</time>
      </trkpt>
      <trkpt lat="48.6815" lon="-1.4725">
        <ele>3</ele>
        <time>2022-08-27T13:05:23Z</time>
      </trkpt>
      <trkpt lat="48.68156" lon="-1.47232">
        <ele>3.2</ele>
        <time>2022-08-27T13:05:27Z</time>
      </trkpt>
      <trkpt lat="48.68159" lon="-1.47207">
        <ele>3.4</ele>
        <time>2022-08-27T13:05:32Z</time>
      </trkpt>
      <trkpt lat="48.68165" lon="-1.4716">
        <ele>3.6</ele>
        <time>2022-08-27T13:05:39Z</time>
      </trkpt>
      <trkpt lat="48.68179" lon="-1.47099">
        <ele>4.2</ele>
        <time>2022-08-27T13:05:48Z</time>
      </trkpt>
      <trkpt lat="48.68194" lon="-1.47043">
        <ele>4.6</ele>
        <time>2022-08-27T13:05:56Z</time>
      </trkpt>
      <trkpt lat="48.68204" lon="-1.46983">
        <ele>5</ele>
        <time>2022-08-27T13:06:04Z</time>
      </trkpt>
      <trkpt lat="48.68218" lon="-1.46921">
        <ele>5.4</ele>
        <time>2022-08-27T13:06:12Z</time>
      </trkpt>
      <trkpt lat="48.68236" lon="-1.46867">
        <ele>6</ele>
        <time>2022-08-27T13:06:20Z</time>
      </trkpt>
      <trkpt lat="48.6826" lon="-1.46808">
        <ele>6.6</ele>
        <time>2022-08-27T13:06:29Z</time>
      </trkpt>
      <trkpt lat="48.68263" lon="-1.46802">
        <ele>6.6</ele>
        <time>2022-08-27T13:06:30Z</time>
      </trkpt>
      <trkpt lat="48.68263" lon="-1.46788">
        <ele>6.6</ele>
        <time>2022-08-27T13:06:32Z</time>
      </trkpt>
      <trkpt lat="48.68251" lon="-1.46771">
        <ele>6.8</ele>
        <time>2022-08-27T13:06:35Z</time>
      </trkpt>
      <trkpt lat="48.68247" lon="-1.46766">
        <ele>6.8</ele>
        <time>2022-08-27T13:06:36Z</time>
      </trkpt>
      <trkpt lat="48.6824" lon="-1.46754">
        <ele>6.8</ele>
        <time>2022-08-27T13:06:38Z</time>
      </trkpt>
      <trkpt lat="48.68216" lon="-1.46704">
        <ele>7</ele>
        <time>2022-08-27T13:06:45Z</time>
      </trkpt>
      <trkpt lat="48.68202" lon="-1.46657">
        <ele>7</ele>
        <time>2022-08-27T13:06:51Z</time>
      </trkpt>
      <trkpt lat="48.68187" lon="-1.4659">
        <ele>7</ele>
        <time>2022-08-27T13:06:59Z</time>
      </trkpt>
      <trkpt lat="48.68176" lon="-1.46539">
        <ele>7.2</ele>
        <time>2022-08-27T13:07:05Z</time>
      </trkpt>
      <trkpt lat="48.68156" lon="-1.46459">
        <ele>7.4</ele>
        <time>2022-08-27T13:07:14Z</time>
      </trkpt>
      <trkpt lat="48.68153" lon="-1.46451">
        <ele>7.4</ele>
        <time>2022-08-27T13:07:15Z</time>
      </trkpt>
      <trkpt lat="48.68125" lon="-1.4638">
        <ele>8</ele>
        <time>2022-08-27T13:07:24Z</time>
      </trkpt>
      <trkpt lat="48.68103" lon="-1.4633">
        <ele>8.4</ele>
        <time>2022-08-27T13:07:31Z</time>
      </trkpt>
      <trkpt lat="48.68075" lon="-1.46265">
        <ele>8.8</ele>
        <time>2022-08-27T13:07:40Z</time>
      </trkpt>
      <trkpt lat="48.68046" lon="-1.46197">
        <ele>9.2</ele>
        <time>2022-08-27T13:07:49Z</time>
      </trkpt>
      <trkpt lat="48.68023" lon="-1.46144">
        <ele>9.4</ele>
        <time>2022-08-27T13:07:56Z</time>
      </trkpt>
      <trkpt lat="48.67992" lon="-1.46072">
        <ele>9.8</ele>
        <time>2022-08-27T13:08:05Z</time>
      </trkpt>
      <trkpt lat="48.67989" lon="-1.46065">
        <ele>9.8</ele>
        <time>2022-08-27T13:08:06Z</time>
      </trkpt>
      <trkpt lat="48.67961" lon="-1.45994">
        <ele>10.2</ele>
        <time>2022-08-27T13:08:15Z</time>
      </trkpt>
      <trkpt lat="48.67937" lon="-1.45918">
        <ele>10.6</ele>
        <time>2022-08-27T13:08:24Z</time>
      </trkpt>
      <trkpt lat="48.67927" lon="-1.45859">
        <ele>10.8</ele>
        <time>2022-08-27T13:08:30Z</time>
      </trkpt>
      <trkpt lat="48.67914" lon="-1.45789">
        <ele>10.8</ele>
        <time>2022-08-27T13:08:37Z</time>
      </trkpt>
      <trkpt lat="48.67902" lon="-1.45726">
        <ele>11</ele>
        <time>2022-08-27T13:08:43Z</time>
      </trkpt>
      <trkpt lat="48.67886" lon="-1.45648">
        <ele>10.4</ele>
        <time>2022-08-27T13:08:50Z</time>
      </trkpt>
      <trkpt lat="48.67881" lon="-1.45626">
        <ele>10.4</ele>
        <time>2022-08-27T13:08:52Z</time>
      </trkpt>
      <trkpt lat="48.67868" lon="-1.45549">
        <ele>10.4</ele>
        <time>2022-08-27T13:08:59Z</time>
      </trkpt>
      <trkpt lat="48.67861" lon="-1.4547">
        <ele>10.2</ele>
        <time>2022-08-27T13:09:06Z</time>
      </trkpt>
      <trkpt lat="48.67861" lon="-1.45451">
        <ele>10.2</ele>
        <time>2022-08-27T13:09:08Z</time>
      </trkpt>
      <trkpt lat="48.6786" lon="-1.45421">
        <ele>10.2</ele>
        <time>2022-08-27T13:09:11Z</time>
      </trkpt>
      <trkpt lat="48.67857" lon="-1.45399">
        <ele>10.2</ele>
        <time>2022-08-27T13:09:13Z</time>
      </trkpt>
      <trkpt lat="48.67852" lon="-1.45378">
        <ele>9.8</ele>
        <time>2022-08-27T13:09:15Z</time>
      </trkpt>
      <trkpt lat="48.67848" lon="-1.45369">
        <ele>9.8</ele>
        <time>2022-08-27T13:09:16Z</time>
      </trkpt>
      <trkpt lat="48.67837" lon="-1.45353">
        <ele>9.6</ele>
        <time>2022-08-27T13:09:18Z</time>
      </trkpt>
      <trkpt lat="48.67825" lon="-1.45341">
        <ele>9.4</ele>
        <time>2022-08-27T13:09:20Z</time>
      </trkpt>
      <trkpt lat="48.67812" lon="-1.45332">
        <ele>9.2</ele>
        <time>2022-08-27T13:09:22Z</time>
      </trkpt>
      <trkpt lat="48.67804" lon="-1.45329">
        <ele>9.2</ele>
        <time>2022-08-27T13:09:23Z</time>
      </trkpt>
      <trkpt lat="48.67782" lon="-1.45327">
        <ele>9</ele>
        <time>2022-08-27T13:09:26Z</time>
      </trkpt>
      <trkpt lat="48.67747" lon="-1.45339">
        <ele>8.2</ele>
        <time>2022-08-27T13:09:31Z</time>
      </trkpt>
      <trkpt lat="48.67734" lon="-1.45347">
        <ele>7.8</ele>
        <time>2022-08-27T13:09:33Z</time>
      </trkpt>
      <trkpt lat="48.6771" lon="-1.45369">
        <ele>7</ele>
        <time>2022-08-27T13:09:37Z</time>
      </trkpt>
      <trkpt lat="48.67697" lon="-1.4538">
        <ele>6.4</ele>
        <time>2022-08-27T13:09:39Z</time>
      </trkpt>
      <trkpt lat="48.67683" lon="-1.45387">
        <ele>6</ele>
        <time>2022-08-27T13:09:41Z</time>
      </trkpt>
      <trkpt lat="48.67676" lon="-1.45389">
        <ele>5.8</ele>
        <time>2022-08-27T13:09:42Z</time>
      </trkpt>
      <trkpt lat="48.67668" lon="-1.45389">
        <ele>5.6</ele>
        <time>2022-08-27T13:09:43Z</time>
      </trkpt>
      <trkpt lat="48.67655" lon="-1.45386">
        <ele>5.2</ele>
        <time>2022-08-27T13:09:45Z</time>
      </trkpt>
      <trkpt lat="48.67649" lon="-1.45384">
        <ele>5</ele>
        <time>2022-08-27T13:09:46Z</time>
      </trkpt>
      <trkpt lat="48.67619" lon="-1.45359">
        <ele>4</ele>
        <time>2022-08-27T13:09:51Z</time>
      </trkpt>
      <trkpt lat="48.6757" lon="-1.45318">
        <ele>5</ele>
        <time>2022-08-27T13:09:58Z</time>
      </trkpt>
      <trkpt lat="48.67564" lon="-1.45313">
        <ele>5</ele>
        <time>2022-08-27T13:09:59Z</time>
      </trkpt>
      <trkpt lat="48.67533" lon="-1.45286">
        <ele>4.8</ele>
        <time>2022-08-27T13:10:05Z</time>
      </trkpt>
      <trkpt lat="48.67524" lon="-1.45281">
        <ele>4.8</ele>
        <time>2022-08-27T13:10:07Z</time>
      </trkpt>
      <trkpt lat="48.67519" lon="-1.45283">
        <ele>4.6</ele>
        <time>2022-08-27T13:10:08Z</time>
      </trkpt>
      <trkpt lat="48.67489" lon="-1.45307">
        <ele>4.2</ele>
        <time>2022-08-27T13:10:13Z</time>
      </trkpt>
      <trkpt lat="48.67458" lon="-1.45332">
        <ele>4</ele>
        <time>2022-08-27T13:10:18Z</time>
      </trkpt>
      <trkpt lat="48.67419" lon="-1.45363">
        <ele>3.8</ele>
        <time>2022-08-27T13:10:24Z</time>
      </trkpt>
      <trkpt lat="48.6738" lon="-1.45394">
        <ele>3.8</ele>
        <time>2022-08-27T13:10:30Z</time>
      </trkpt>
      <trkpt lat="48.67334" lon="-1.45432">
        <ele>3.8</ele>
        <time>2022-08-27T13:10:37Z</time>
      </trkpt>
      <trkpt lat="48.6729" lon="-1.45466">
        <ele>3.8</ele>
        <time>2022-08-27T13:10:44Z</time>
      </trkpt>
      <trkpt lat="48.67274" lon="-1.45481">
        <ele>3.8</ele>
        <time>2022-08-27T13:10:47Z</time>
      </trkpt>
      <trkpt lat="48.67264" lon="-1.45491">
        <ele>3.8</ele>
        <time>2022-08-27T13:10:49Z</time>
      </trkpt>
      <trkpt lat="48.67254" lon="-1.45489">
        <ele>3.8</ele>
        <time>2022-08-27T13:10:51Z</time>
      </trkpt>
      <trkpt lat="48.67247" lon="-1.45477">
        <ele>3.6</ele>
        <time>2022-08-27T13:10:53Z</time>
      </trkpt>
      <trkpt lat="48.67245" lon="-1.4547">
        <ele>3.6</ele>
        <time>2022-08-27T13:10:54Z</time>
      </trkpt>
      <trkpt lat="48.67234" lon="-1.45428">
        <ele>3.2</ele>
        <time>2022-08-27T13:10:59Z</time>
      </trkpt>
      <trkpt lat="48.67233" lon="-1.45419">
        <ele>3.2</ele>
        <time>2022-08-27T13:11:00Z</time>
      </trkpt>
      <trkpt lat="48.67233" lon="-1.45409">
        <ele>3.4</ele>
        <time>2022-08-27T13:11:01Z</time>
      </trkpt>
      <trkpt lat="48.67237" lon="-1.45383">
        <ele>3.2</ele>
        <time>2022-08-27T13:11:04Z</time>
      </trkpt>
      <trkpt lat="48.6724" lon="-1.45367">
        <ele>3.2</ele>
        <time>2022-08-27T13:11:06Z</time>
      </trkpt>
      <trkpt lat="48.67244" lon="-1.45351">
        <ele>3.2</ele>
        <time>2022-08-27T13:11:08Z</time>
      </trkpt>
      <trkpt lat="48.67245" lon="-1.45341">
        <ele>3.2</ele>
        <time>2022-08-27T13:11:09Z</time>
      </trkpt>
      <trkpt lat="48.67245" lon="-1.45331">
        <ele>3.4</ele>
        <time>2022-08-27T13:11:10Z</time>
      </trkpt>
      <trkpt lat="48.67241" lon="-1.45304">
        <ele>3.2</ele>
        <time>2022-08-27T13:11:13Z</time>
      </trkpt>
      <trkpt lat="48.67223" lon="-1.4526">
        <ele>3.4</ele>
        <time>2022-08-27T13:11:18Z</time>
      </trkpt>
      <trkpt lat="48.67194" lon="-1.45189">
        <ele>3.6</ele>
        <time>2022-08-27T13:11:26Z</time>
      </trkpt>
      <trkpt lat="48.6719" lon="-1.4518">
        <ele>3.6</ele>
        <time>2022-08-27T13:11:27Z</time>
      </trkpt>
      <trkpt lat="48.67161" lon="-1.45104">
        <ele>3.8</ele>
        <time>2022-08-27T13:11:35Z</time>
      </trkpt>
      <trkpt lat="48.67145" lon="-1.45067">
        <ele>3.8</ele>
        <time>2022-08-27T13:11:39Z</time>
      </trkpt>
      <trkpt lat="48.67131" lon="-1.45031">
        <ele>4</ele>
        <time>2022-08-27T13:11:43Z</time>
      </trkpt>
      <trkpt lat="48.67127" lon="-1.45022">
        <ele>4</ele>
        <time>2022-08-27T13:11:44Z</time>
      </trkpt>
      <trkpt lat="48.67108" lon="-1.44978">
        <ele>4.2</ele>
        <time>2022-08-27T13:11:49Z</time>
      </trkpt>
      <trkpt lat="48.67078" lon="-1.44904">
        <ele>4.2</ele>
        <time>2022-08-27T13:11:57Z</time>
      </trkpt>
      <trkpt lat="48.67074" lon="-1.44896">
        <ele>4.2</ele>
        <time>2022-08-27T13:11:58Z</time>
      </trkpt>
      <trkpt lat="48.6705" lon="-1.44844">
        <ele>4.4</ele>
        <time>2022-08-27T13:12:04Z</time>
      </trkpt>
      <trkpt lat="48.67016" lon="-1.44799">
        <ele>4.4</ele>
        <time>2022-08-27T13:12:10Z</time>
      </trkpt>
      <trkpt lat="48.66977" lon="-1.44768">
        <ele>4.4</ele>
        <time>2022-08-27T13:12:16Z</time>
      </trkpt>
      <trkpt lat="48.66928" lon="-1.44741">
        <ele>4.4</ele>
        <time>2022-08-27T13:12:23Z</time>
      </trkpt>
      <trkpt lat="48.66882" lon="-1.44725">
        <ele>4.6</ele>
        <time>2022-08-27T13:12:30Z</time>
      </trkpt>
      <trkpt lat="48.66841" lon="-1.44711">
        <ele>4.8</ele>
        <time>2022-08-27T13:12:37Z</time>
      </trkpt>
      <trkpt lat="48.66835" lon="-1.44709">
        <ele>5</ele>
        <time>2022-08-27T13:12:38Z</time>
      </trkpt>
      <trkpt lat="48.66811" lon="-1.4471">
        <ele>5</ele>
        <time>2022-08-27T13:12:42Z</time>
      </trkpt>
      <trkpt lat="48.66776" lon="-1.4472">
        <ele>5.2</ele>
        <time>2022-08-27T13:12:49Z</time>
      </trkpt>
      <trkpt lat="48.66754" lon="-1.44724">
        <ele>5</ele>
        <time>2022-08-27T13:12:53Z</time>
      </trkpt>
      <trkpt lat="48.6675" lon="-1.44724">
        <ele>5</ele>
        <time>2022-08-27T13:12:54Z</time>
      </trkpt>
      <trkpt lat="48.66745" lon="-1.44723">
        <ele>5</ele>
        <time>2022-08-27T13:12:55Z</time>
      </trkpt>
      <trkpt lat="48.66729" lon="-1.44719">
        <ele>5</ele>
        <time>2022-08-27T13:12:59Z</time>
      </trkpt>
      <trkpt lat="48.66714" lon="-1.44718">
        <ele>4.8</ele>
        <time>2022-08-27T13:13:04Z</time>
      </trkpt>
      <trkpt lat="48.66714" lon="-1.44713">
        <ele>4.6</ele>
        <time>2022-08-27T13:13:07Z</time>
      </trkpt>
      <trkpt lat="48.66714" lon="-1.44709">
        <ele>4.6</ele>
        <time>2022-08-27T13:13:10Z</time>
      </trkpt>
      <trkpt lat="48.66711" lon="-1.44706">
        <ele>4.6</ele>
        <time>2022-08-27T13:13:18Z</time>
      </trkpt>
      <trkpt lat="48.667" lon="-1.44699">
        <ele>4.4</ele>
        <time>2022-08-27T13:13:23Z</time>
      </trkpt>
      <trkpt lat="48.66687" lon="-1.44685">
        <ele>4</ele>
        <time>2022-08-27T13:13:28Z</time>
      </trkpt>
      <trkpt lat="48.66663" lon="-1.44664">
        <ele>3.2</ele>
        <time>2022-08-27T13:13:33Z</time>
      </trkpt>
      <trkpt lat="48.66615" lon="-1.44639">
        <ele>2.6</ele>
        <time>2022-08-27T13:13:41Z</time>
      </trkpt>
      <trkpt lat="48.66574" lon="-1.44626">
        <ele>2</ele>
        <time>2022-08-27T13:13:48Z</time>
      </trkpt>
      <trkpt lat="48.66568" lon="-1.44623">
        <ele>2</ele>
        <time>2022-08-27T13:13:49Z</time>
      </trkpt>
      <trkpt lat="48.66546" lon="-1.44615">
        <ele>1.6</ele>
        <time>2022-08-27T13:13:53Z</time>
      </trkpt>
      <trkpt lat="48.66541" lon="-1.44614">
        <ele>1.6</ele>
        <time>2022-08-27T13:13:54Z</time>
      </trkpt>
      <trkpt lat="48.6653" lon="-1.44614">
        <ele>1.2</ele>
        <time>2022-08-27T13:13:56Z</time>
      </trkpt>
      <trkpt lat="48.66519" lon="-1.44613">
        <ele>1.2</ele>
        <time>2022-08-27T13:13:58Z</time>
      </trkpt>
      <trkpt lat="48.66513" lon="-1.44611">
        <ele>1</ele>
        <time>2022-08-27T13:13:59Z</time>
      </trkpt>
      <trkpt lat="48.66492" lon="-1.44608">
        <ele>1</ele>
        <time>2022-08-27T13:14:03Z</time>
      </trkpt>
      <trkpt lat="48.66486" lon="-1.44606">
        <ele>1</ele>
        <time>2022-08-27T13:14:04Z</time>
      </trkpt>
      <trkpt lat="48.66456" lon="-1.44598">
        <ele>1</ele>
        <time>2022-08-27T13:14:09Z</time>
      </trkpt>
      <trkpt lat="48.6645" lon="-1.44595">
        <ele>1</ele>
        <time>2022-08-27T13:14:10Z</time>
      </trkpt>
      <trkpt lat="48.66435" lon="-1.44584">
        <ele>1</ele>
        <time>2022-08-27T13:14:13Z</time>
      </trkpt>
      <trkpt lat="48.66425" lon="-1.44575">
        <ele>0.80000000000001</ele>
        <time>2022-08-27T13:14:15Z</time>
      </trkpt>
      <trkpt lat="48.66413" lon="-1.44569">
        <ele>1</ele>
        <time>2022-08-27T13:14:17Z</time>
      </trkpt>
      <trkpt lat="48.66378" lon="-1.44557">
        <ele>1.2</ele>
        <time>2022-08-27T13:14:23Z</time>
      </trkpt>
      <trkpt lat="48.66338" lon="-1.44549">
        <ele>1.4</ele>
        <time>2022-08-27T13:14:30Z</time>
      </trkpt>
      <trkpt lat="48.66327" lon="-1.44548">
        <ele>1.4</ele>
        <time>2022-08-27T13:14:32Z</time>
      </trkpt>
      <trkpt lat="48.66306" lon="-1.44547">
        <ele>1.6</ele>
        <time>2022-08-27T13:14:36Z</time>
      </trkpt>
      <trkpt lat="48.66272" lon="-1.44549">
        <ele>2</ele>
        <time>2022-08-27T13:14:43Z</time>
      </trkpt>
      <trkpt lat="48.66246" lon="-1.44552">
        <ele>2.6</ele>
        <time>2022-08-27T13:14:48Z</time>
      </trkpt>
      <trkpt lat="48.66222" lon="-1.44556">
        <ele>3</ele>
        <time>2022-08-27T13:14:53Z</time>
      </trkpt>
      <trkpt lat="48.66217" lon="-1.44558">
        <ele>3</ele>
        <time>2022-08-27T13:14:54Z</time>
      </trkpt>
      <trkpt lat="48.6618" lon="-1.44563">
        <ele>4</ele>
        <time>2022-08-27T13:15:02Z</time>
      </trkpt>
      <trkpt lat="48.66147" lon="-1.44568">
        <ele>4.8</ele>
        <time>2022-08-27T13:15:09Z</time>
      </trkpt>
      <trkpt lat="48.66104" lon="-1.44575">
        <ele>5.6</ele>
        <time>2022-08-27T13:15:18Z</time>
      </trkpt>
      <trkpt lat="48.66061" lon="-1.44582">
        <ele>6.6</ele>
        <time>2022-08-27T13:15:27Z</time>
      </trkpt>
      <trkpt lat="48.66013" lon="-1.44592">
        <ele>7.8</ele>
        <time>2022-08-27T13:15:37Z</time>
      </trkpt>
      <trkpt lat="48.6596" lon="-1.446">
        <ele>9.2</ele>
        <time>2022-08-27T13:15:48Z</time>
      </trkpt>
      <trkpt lat="48.6595" lon="-1.44601">
        <ele>9.4</ele>
        <time>2022-08-27T13:15:50Z</time>
      </trkpt>
      <trkpt lat="48.65929" lon="-1.44603">
        <ele>9.8</ele>
        <time>2022-08-27T13:15:54Z</time>
      </trkpt>
      <trkpt lat="48.6589" lon="-1.44602">
        <ele>10.8</ele>
        <time>2022-08-27T13:16:02Z</time>
      </trkpt>
      <trkpt lat="48.65853" lon="-1.44592">
        <ele>11.6</ele>
        <time>2022-08-27T13:16:10Z</time>
      </trkpt>
      <trkpt lat="48.65818" lon="-1.44577">
        <ele>13</ele>
        <time>2022-08-27T13:16:19Z</time>
      </trkpt>
      <trkpt lat="48.65788" lon="-1.44563">
        <ele>14</ele>
        <time>2022-08-27T13:16:27Z</time>
      </trkpt>
      <trkpt lat="48.65769" lon="-1.44554">
        <ele>14.4</ele>
        <time>2022-08-27T13:16:32Z</time>
      </trkpt>
      <trkpt lat="48.65765" lon="-1.44551">
        <ele>14.4</ele>
        <time>2022-08-27T13:16:33Z</time>
      </trkpt>
      <trkpt lat="48.65733" lon="-1.44535">
        <ele>14.8</ele>
        <time>2022-08-27T13:16:39Z</time>
      </trkpt>
      <trkpt lat="48.657" lon="-1.44517">
        <ele>14.8</ele>
        <time>2022-08-27T13:16:44Z</time>
      </trkpt>
      <trkpt lat="48.65673" lon="-1.44503">
        <ele>14.6</ele>
        <time>2022-08-27T13:16:49Z</time>
      </trkpt>
      <trkpt lat="48.65664" lon="-1.445">
        <ele>14.6</ele>
        <time>2022-08-27T13:16:51Z</time>
      </trkpt>
      <trkpt lat="48.65654" lon="-1.44498">
        <ele>15.2</ele>
        <time>2022-08-27T13:16:54Z</time>
      </trkpt>
      <trkpt lat="48.65645" lon="-1.44495">
        <ele>14.2</ele>
        <time>2022-08-27T13:16:59Z</time>
      </trkpt>
      <trkpt lat="48.65634" lon="-1.44494">
        <ele>14</ele>
        <time>2022-08-27T13:17:05Z</time>
      </trkpt>
      <trkpt lat="48.65632" lon="-1.44493">
        <ele>14</ele>
        <time>2022-08-27T13:17:08Z</time>
      </trkpt>
      <trkpt lat="48.65633" lon="-1.44481">
        <ele>13</ele>
        <time>2022-08-27T13:21:45Z</time>
      </trkpt>
      <trkpt lat="48.65634" lon="-1.44473">
        <ele>13</ele>
        <time>2022-08-27T13:21:47Z</time>
      </trkpt>
      <trkpt lat="48.65636" lon="-1.4446">
        <ele>12.8</ele>
        <time>2022-08-27T13:21:51Z</time>
      </trkpt>
      <trkpt lat="48.65635" lon="-1.44456">
        <ele>12.8</ele>
        <time>2022-08-27T13:21:52Z</time>
      </trkpt>
      <trkpt lat="48.65629" lon="-1.44432">
        <ele>12.8</ele>
        <time>2022-08-27T13:21:57Z</time>
      </trkpt>
      <trkpt lat="48.65624" lon="-1.44398">
        <ele>13</ele>
        <time>2022-08-27T13:22:03Z</time>
      </trkpt>
      <trkpt lat="48.65625" lon="-1.44372">
        <ele>13.4</ele>
        <time>2022-08-27T13:22:08Z</time>
      </trkpt>
      <trkpt lat="48.65627" lon="-1.44358">
        <ele>13.6</ele>
        <time>2022-08-27T13:22:13Z</time>
      </trkpt>
      <trkpt lat="48.65629" lon="-1.44342">
        <ele>13.8</ele>
        <time>2022-08-27T13:22:17Z</time>
      </trkpt>
      <trkpt lat="48.65636" lon="-1.44318">
        <ele>14</ele>
        <time>2022-08-27T13:22:23Z</time>
      </trkpt>
      <trkpt lat="48.65645" lon="-1.44298">
        <ele>14.4</ele>
        <time>2022-08-27T13:22:29Z</time>
      </trkpt>
      <trkpt lat="48.65657" lon="-1.44277">
        <ele>15</ele>
        <time>2022-08-27T13:22:35Z</time>
      </trkpt>
      <trkpt lat="48.65669" lon="-1.44255">
        <ele>15.4</ele>
        <time>2022-08-27T13:22:40Z</time>
      </trkpt>
      <trkpt lat="48.65683" lon="-1.4423">
        <ele>15.8</ele>
        <time>2022-08-27T13:22:46Z</time>
      </trkpt>
      <trkpt lat="48.65697" lon="-1.44204">
        <ele>16.2</ele>
        <time>2022-08-27T13:22:52Z</time>
      </trkpt>
      <trkpt lat="48.65716" lon="-1.4417">
        <ele>16.6</ele>
        <time>2022-08-27T13:22:59Z</time>
      </trkpt>
      <trkpt lat="48.65739" lon="-1.44131">
        <ele>17</ele>
        <time>2022-08-27T13:23:07Z</time>
      </trkpt>
      <trkpt lat="48.65761" lon="-1.4409">
        <ele>17.2</ele>
        <time>2022-08-27T13:23:15Z</time>
      </trkpt>
      <trkpt lat="48.6578" lon="-1.44053">
        <ele>17.6</ele>
        <time>2022-08-27T13:23:22Z</time>
      </trkpt>
      <trkpt lat="48.65795" lon="-1.44027">
        <ele>17.8</ele>
        <time>2022-08-27T13:23:28Z</time>
      </trkpt>
      <trkpt lat="48.65817" lon="-1.43988">
        <ele>18</ele>
        <time>2022-08-27T13:23:36Z</time>
      </trkpt>
      <trkpt lat="48.65838" lon="-1.4395">
        <ele>18</ele>
        <time>2022-08-27T13:23:43Z</time>
      </trkpt>
      <trkpt lat="48.65864" lon="-1.43907">
        <ele>17.8</ele>
        <time>2022-08-27T13:23:50Z</time>
      </trkpt>
      <trkpt lat="48.65901" lon="-1.43857">
        <ele>17.2</ele>
        <time>2022-08-27T13:23:58Z</time>
      </trkpt>
      <trkpt lat="48.65941" lon="-1.43817">
        <ele>16.4</ele>
        <time>2022-08-27T13:24:05Z</time>
      </trkpt>
      <trkpt lat="48.65981" lon="-1.43792">
        <ele>15.6</ele>
        <time>2022-08-27T13:24:11Z</time>
      </trkpt>
      <trkpt lat="48.66029" lon="-1.43769">
        <ele>15</ele>
        <time>2022-08-27T13:24:18Z</time>
      </trkpt>
      <trkpt lat="48.6607" lon="-1.43757">
        <ele>14.4</ele>
        <time>2022-08-27T13:24:25Z</time>
      </trkpt>
      <trkpt lat="48.66115" lon="-1.43744">
        <ele>13.6</ele>
        <time>2022-08-27T13:24:33Z</time>
      </trkpt>
      <trkpt lat="48.6617" lon="-1.43728">
        <ele>12.8</ele>
        <time>2022-08-27T13:24:43Z</time>
      </trkpt>
      <trkpt lat="48.66214" lon="-1.43715">
        <ele>12.4</ele>
        <time>2022-08-27T13:24:51Z</time>
      </trkpt>
      <trkpt lat="48.66248" lon="-1.43706">
        <ele>12</ele>
        <time>2022-08-27T13:24:57Z</time>
      </trkpt>
      <trkpt lat="48.66305" lon="-1.43691">
        <ele>11.6</ele>
        <time>2022-08-27T13:25:07Z</time>
      </trkpt>
      <trkpt lat="48.6631" lon="-1.43689">
        <ele>11.6</ele>
        <time>2022-08-27T13:25:08Z</time>
      </trkpt>
      <trkpt lat="48.66367" lon="-1.43673">
        <ele>11.2</ele>
        <time>2022-08-27T13:25:18Z</time>
      </trkpt>
      <trkpt lat="48.66373" lon="-1.43671">
        <ele>11.2</ele>
        <time>2022-08-27T13:25:19Z</time>
      </trkpt>
      <trkpt lat="48.66412" lon="-1.43653">
        <ele>10.8</ele>
        <time>2022-08-27T13:25:26Z</time>
      </trkpt>
      <trkpt lat="48.66452" lon="-1.4362">
        <ele>10.6</ele>
        <time>2022-08-27T13:25:33Z</time>
      </trkpt>
      <trkpt lat="48.66484" lon="-1.43577">
        <ele>10.4</ele>
        <time>2022-08-27T13:25:39Z</time>
      </trkpt>
      <trkpt lat="48.66523" lon="-1.43515">
        <ele>10</ele>
        <time>2022-08-27T13:25:47Z</time>
      </trkpt>
      <trkpt lat="48.66561" lon="-1.43454">
        <ele>9.8</ele>
        <time>2022-08-27T13:25:55Z</time>
      </trkpt>
      <trkpt lat="48.66565" lon="-1.43447">
        <ele>9.8</ele>
        <time>2022-08-27T13:25:56Z</time>
      </trkpt>
      <trkpt lat="48.66587" lon="-1.4341">
        <ele>9.4</ele>
        <time>2022-08-27T13:26:01Z</time>
      </trkpt>
      <trkpt lat="48.66622" lon="-1.43354">
        <ele>9.2</ele>
        <time>2022-08-27T13:26:09Z</time>
      </trkpt>
      <trkpt lat="48.66649" lon="-1.43311">
        <ele>9</ele>
        <time>2022-08-27T13:26:16Z</time>
      </trkpt>
      <trkpt lat="48.66677" lon="-1.43265">
        <ele>8.8</ele>
        <time>2022-08-27T13:26:23Z</time>
      </trkpt>
      <trkpt lat="48.66697" lon="-1.43215">
        <ele>8.6</ele>
        <time>2022-08-27T13:26:30Z</time>
      </trkpt>
      <trkpt lat="48.66701" lon="-1.43184">
        <ele>8.4</ele>
        <time>2022-08-27T13:26:34Z</time>
      </trkpt>
      <trkpt lat="48.66701" lon="-1.43175">
        <ele>8.4</ele>
        <time>2022-08-27T13:26:35Z</time>
      </trkpt>
      <trkpt lat="48.66702" lon="-1.43167">
        <ele>8.4</ele>
        <time>2022-08-27T13:26:36Z</time>
      </trkpt>
      <trkpt lat="48.66702" lon="-1.43151">
        <ele>8.2</ele>
        <time>2022-08-27T13:26:38Z</time>
      </trkpt>
      <trkpt lat="48.66702" lon="-1.43142">
        <ele>8.2</ele>
        <time>2022-08-27T13:26:39Z</time>
      </trkpt>
      <trkpt lat="48.66702" lon="-1.43134">
        <ele>8.2</ele>
        <time>2022-08-27T13:26:40Z</time>
      </trkpt>
      <trkpt lat="48.66705" lon="-1.431">
        <ele>7.8</ele>
        <time>2022-08-27T13:26:44Z</time>
      </trkpt>
      <trkpt lat="48.66706" lon="-1.43067">
        <ele>7.4</ele>
        <time>2022-08-27T13:26:48Z</time>
      </trkpt>
      <trkpt lat="48.6671" lon="-1.43049">
        <ele>7.2</ele>
        <time>2022-08-27T13:26:50Z</time>
      </trkpt>
      <trkpt lat="48.66722" lon="-1.4298">
        <ele>6.8</ele>
        <time>2022-08-27T13:26:58Z</time>
      </trkpt>
      <trkpt lat="48.66733" lon="-1.42922">
        <ele>6.6</ele>
        <time>2022-08-27T13:27:05Z</time>
      </trkpt>
      <trkpt lat="48.66739" lon="-1.42873">
        <ele>6.6</ele>
        <time>2022-08-27T13:27:11Z</time>
      </trkpt>
      <trkpt lat="48.66749" lon="-1.42812">
        <ele>6.4</ele>
        <time>2022-08-27T13:27:18Z</time>
      </trkpt>
      <trkpt lat="48.66749" lon="-1.42767">
        <ele>6.4</ele>
        <time>2022-08-27T13:27:23Z</time>
      </trkpt>
      <trkpt lat="48.66747" lon="-1.42758">
        <ele>6.4</ele>
        <time>2022-08-27T13:27:24Z</time>
      </trkpt>
      <trkpt lat="48.66734" lon="-1.42699">
        <ele>6.2</ele>
        <time>2022-08-27T13:27:31Z</time>
      </trkpt>
      <trkpt lat="48.66709" lon="-1.42628">
        <ele>6.2</ele>
        <time>2022-08-27T13:27:40Z</time>
      </trkpt>
      <trkpt lat="48.66687" lon="-1.42568">
        <ele>6</ele>
        <time>2022-08-27T13:27:48Z</time>
      </trkpt>
      <trkpt lat="48.66675" lon="-1.42521">
        <ele>6</ele>
        <time>2022-08-27T13:27:54Z</time>
      </trkpt>
      <trkpt lat="48.66677" lon="-1.42505">
        <ele>6</ele>
        <time>2022-08-27T13:27:56Z</time>
      </trkpt>
      <trkpt lat="48.6668" lon="-1.42497">
        <ele>6</ele>
        <time>2022-08-27T13:27:57Z</time>
      </trkpt>
      <trkpt lat="48.66684" lon="-1.42491">
        <ele>5.8</ele>
        <time>2022-08-27T13:27:58Z</time>
      </trkpt>
      <trkpt lat="48.66692" lon="-1.42481">
        <ele>6</ele>
        <time>2022-08-27T13:28:00Z</time>
      </trkpt>
      <trkpt lat="48.66697" lon="-1.42477">
        <ele>6.2</ele>
        <time>2022-08-27T13:28:01Z</time>
      </trkpt>
      <trkpt lat="48.66733" lon="-1.42451">
        <ele>6.2</ele>
        <time>2022-08-27T13:28:08Z</time>
      </trkpt>
      <trkpt lat="48.6678" lon="-1.42416">
        <ele>6.4</ele>
        <time>2022-08-27T13:28:17Z</time>
      </trkpt>
      <trkpt lat="48.66823" lon="-1.42375">
        <ele>6.4</ele>
        <time>2022-08-27T13:28:26Z</time>
      </trkpt>
      <trkpt lat="48.66866" lon="-1.42319">
        <ele>6.6</ele>
        <time>2022-08-27T13:28:36Z</time>
      </trkpt>
      <trkpt lat="48.66894" lon="-1.42273">
        <ele>6.8</ele>
        <time>2022-08-27T13:28:43Z</time>
      </trkpt>
      <trkpt lat="48.66928" lon="-1.42212">
        <ele>6.8</ele>
        <time>2022-08-27T13:28:52Z</time>
      </trkpt>
      <trkpt lat="48.66961" lon="-1.42162">
        <ele>6.8</ele>
        <time>2022-08-27T13:29:00Z</time>
      </trkpt>
      <trkpt lat="48.66993" lon="-1.42108">
        <ele>6.6</ele>
        <time>2022-08-27T13:29:08Z</time>
      </trkpt>
      <trkpt lat="48.67015" lon="-1.42052">
        <ele>6.4</ele>
        <time>2022-08-27T13:29:15Z</time>
      </trkpt>
      <trkpt lat="48.67018" lon="-1.42044">
        <ele>6.4</ele>
        <time>2022-08-27T13:29:16Z</time>
      </trkpt>
      <trkpt lat="48.67025" lon="-1.42013">
        <ele>6.2</ele>
        <time>2022-08-27T13:29:20Z</time>
      </trkpt>
      <trkpt lat="48.67028" lon="-1.42005">
        <ele>6.2</ele>
        <time>2022-08-27T13:29:21Z</time>
      </trkpt>
      <trkpt lat="48.67036" lon="-1.41974">
        <ele>6</ele>
        <time>2022-08-27T13:29:25Z</time>
      </trkpt>
      <trkpt lat="48.67049" lon="-1.41925">
        <ele>5.8</ele>
        <time>2022-08-27T13:29:31Z</time>
      </trkpt>
      <trkpt lat="48.6706" lon="-1.41874">
        <ele>5.8</ele>
        <time>2022-08-27T13:29:37Z</time>
      </trkpt>
      <trkpt lat="48.67069" lon="-1.41812">
        <ele>6</ele>
        <time>2022-08-27T13:29:44Z</time>
      </trkpt>
      <trkpt lat="48.67073" lon="-1.41738">
        <ele>6.4</ele>
        <time>2022-08-27T13:29:52Z</time>
      </trkpt>
      <trkpt lat="48.67078" lon="-1.4165">
        <ele>6.2</ele>
        <time>2022-08-27T13:30:02Z</time>
      </trkpt>
      <trkpt lat="48.67083" lon="-1.41583">
        <ele>6.4</ele>
        <time>2022-08-27T13:30:10Z</time>
      </trkpt>
      <trkpt lat="48.67091" lon="-1.41535">
        <ele>6.6</ele>
        <time>2022-08-27T13:30:16Z</time>
      </trkpt>
      <trkpt lat="48.67105" lon="-1.4148">
        <ele>6.6</ele>
        <time>2022-08-27T13:30:23Z</time>
      </trkpt>
      <trkpt lat="48.67106" lon="-1.41472">
        <ele>6.8</ele>
        <time>2022-08-27T13:30:24Z</time>
      </trkpt>
      <trkpt lat="48.67114" lon="-1.41442">
        <ele>6.8</ele>
        <time>2022-08-27T13:30:28Z</time>
      </trkpt>
      <trkpt lat="48.67124" lon="-1.41397">
        <ele>7</ele>
        <time>2022-08-27T13:30:34Z</time>
      </trkpt>
      <trkpt lat="48.67129" lon="-1.41382">
        <ele>7</ele>
        <time>2022-08-27T13:30:36Z</time>
      </trkpt>
      <trkpt lat="48.67137" lon="-1.41358">
        <ele>7</ele>
        <time>2022-08-27T13:30:39Z</time>
      </trkpt>
      <trkpt lat="48.67158" lon="-1.41296">
        <ele>7.4</ele>
        <time>2022-08-27T13:30:47Z</time>
      </trkpt>
      <trkpt lat="48.67172" lon="-1.41251">
        <ele>7.6</ele>
        <time>2022-08-27T13:30:53Z</time>
      </trkpt>
      <trkpt lat="48.67188" lon="-1.41198">
        <ele>7.6</ele>
        <time>2022-08-27T13:31:00Z</time>
      </trkpt>
      <trkpt lat="48.67196" lon="-1.41177">
        <ele>7.8</ele>
        <time>2022-08-27T13:31:03Z</time>
      </trkpt>
      <trkpt lat="48.67198" lon="-1.41169">
        <ele>7.8</ele>
        <time>2022-08-27T13:31:04Z</time>
      </trkpt>
      <trkpt lat="48.67204" lon="-1.41153">
        <ele>7.8</ele>
        <time>2022-08-27T13:31:06Z</time>
      </trkpt>
      <trkpt lat="48.67214" lon="-1.4113">
        <ele>8</ele>
        <time>2022-08-27T13:31:09Z</time>
      </trkpt>
      <trkpt lat="48.67237" lon="-1.41082">
        <ele>8</ele>
        <time>2022-08-27T13:31:15Z</time>
      </trkpt>
      <trkpt lat="48.67256" lon="-1.41024">
        <ele>8</ele>
        <time>2022-08-27T13:31:22Z</time>
      </trkpt>
      <trkpt lat="48.67269" lon="-1.40972">
        <ele>7.8</ele>
        <time>2022-08-27T13:31:28Z</time>
      </trkpt>
      <trkpt lat="48.67287" lon="-1.40914">
        <ele>7.8</ele>
        <time>2022-08-27T13:31:35Z</time>
      </trkpt>
      <trkpt lat="48.67304" lon="-1.40855">
        <ele>7.6</ele>
        <time>2022-08-27T13:31:42Z</time>
      </trkpt>
      <trkpt lat="48.67317" lon="-1.40804">
        <ele>7.6</ele>
        <time>2022-08-27T13:31:48Z</time>
      </trkpt>
      <trkpt lat="48.67323" lon="-1.4078">
        <ele>7.4</ele>
        <time>2022-08-27T13:31:51Z</time>
      </trkpt>
      <trkpt lat="48.67326" lon="-1.40763">
        <ele>7.4</ele>
        <time>2022-08-27T13:31:53Z</time>
      </trkpt>
      <trkpt lat="48.67343" lon="-1.40703">
        <ele>7.2</ele>
        <time>2022-08-27T13:32:00Z</time>
      </trkpt>
      <trkpt lat="48.67354" lon="-1.40664">
        <ele>7</ele>
        <time>2022-08-27T13:32:05Z</time>
      </trkpt>
      <trkpt lat="48.67355" lon="-1.40656">
        <ele>7</ele>
        <time>2022-08-27T13:32:06Z</time>
      </trkpt>
      <trkpt lat="48.67361" lon="-1.40624">
        <ele>6.8</ele>
        <time>2022-08-27T13:32:10Z</time>
      </trkpt>
      <trkpt lat="48.67366" lon="-1.40607">
        <ele>6.6</ele>
        <time>2022-08-27T13:32:12Z</time>
      </trkpt>
      <trkpt lat="48.6737" lon="-1.40591">
        <ele>6.6</ele>
        <time>2022-08-27T13:32:14Z</time>
      </trkpt>
      <trkpt lat="48.67373" lon="-1.40575">
        <ele>6.6</ele>
        <time>2022-08-27T13:32:16Z</time>
      </trkpt>
      <trkpt lat="48.67375" lon="-1.40558">
        <ele>6.4</ele>
        <time>2022-08-27T13:32:18Z</time>
      </trkpt>
      <trkpt lat="48.67379" lon="-1.40532">
        <ele>6.4</ele>
        <time>2022-08-27T13:32:21Z</time>
      </trkpt>
      <trkpt lat="48.67386" lon="-1.40465">
        <ele>6.4</ele>
        <time>2022-08-27T13:32:29Z</time>
      </trkpt>
      <trkpt lat="48.67387" lon="-1.40448">
        <ele>6.4</ele>
        <time>2022-08-27T13:32:31Z</time>
      </trkpt>
      <trkpt lat="48.67393" lon="-1.40414">
        <ele>7</ele>
        <time>2022-08-27T13:32:35Z</time>
      </trkpt>
      <trkpt lat="48.674" lon="-1.40361">
        <ele>6.8</ele>
        <time>2022-08-27T13:32:41Z</time>
      </trkpt>
      <trkpt lat="48.6741" lon="-1.40307">
        <ele>6.8</ele>
        <time>2022-08-27T13:32:47Z</time>
      </trkpt>
      <trkpt lat="48.67424" lon="-1.40246">
        <ele>6.8</ele>
        <time>2022-08-27T13:32:54Z</time>
      </trkpt>
      <trkpt lat="48.67432" lon="-1.40222">
        <ele>6.8</ele>
        <time>2022-08-27T13:32:57Z</time>
      </trkpt>
      <trkpt lat="48.67439" lon="-1.40208">
        <ele>6.4</ele>
        <time>2022-08-27T13:32:59Z</time>
      </trkpt>
      <trkpt lat="48.6745" lon="-1.4019">
        <ele>6.6</ele>
        <time>2022-08-27T13:33:02Z</time>
      </trkpt>
      <trkpt lat="48.67455" lon="-1.40183">
        <ele>6.4</ele>
        <time>2022-08-27T13:33:03Z</time>
      </trkpt>
      <trkpt lat="48.67476" lon="-1.40155">
        <ele>6.4</ele>
        <time>2022-08-27T13:33:08Z</time>
      </trkpt>
      <trkpt lat="48.67478" lon="-1.40148">
        <ele>6.4</ele>
        <time>2022-08-27T13:33:09Z</time>
      </trkpt>
      <trkpt lat="48.67474" lon="-1.40136">
        <ele>6.4</ele>
        <time>2022-08-27T13:33:11Z</time>
      </trkpt>
      <trkpt lat="48.67467" lon="-1.4013">
        <ele>6.4</ele>
        <time>2022-08-27T13:33:13Z</time>
      </trkpt>
      <trkpt lat="48.67458" lon="-1.40124">
        <ele>6.2</ele>
        <time>2022-08-27T13:33:15Z</time>
      </trkpt>
      <trkpt lat="48.67447" lon="-1.40117">
        <ele>6.2</ele>
        <time>2022-08-27T13:33:17Z</time>
      </trkpt>
      <trkpt lat="48.67443" lon="-1.40113">
        <ele>6</ele>
        <time>2022-08-27T13:33:18Z</time>
      </trkpt>
      <trkpt lat="48.67439" lon="-1.40108">
        <ele>6.2</ele>
        <time>2022-08-27T13:33:19Z</time>
      </trkpt>
      <trkpt lat="48.67434" lon="-1.40098">
        <ele>6.2</ele>
        <time>2022-08-27T13:33:21Z</time>
      </trkpt>
      <trkpt lat="48.67433" lon="-1.40091">
        <ele>6.2</ele>
        <time>2022-08-27T13:33:22Z</time>
      </trkpt>
      <trkpt lat="48.67432" lon="-1.40084">
        <ele>6.2</ele>
        <time>2022-08-27T13:33:23Z</time>
      </trkpt>
      <trkpt lat="48.67435" lon="-1.40071">
        <ele>6</ele>
        <time>2022-08-27T13:33:25Z</time>
      </trkpt>
      <trkpt lat="48.67448" lon="-1.40051">
        <ele>6</ele>
        <time>2022-08-27T13:33:29Z</time>
      </trkpt>
      <trkpt lat="48.67451" lon="-1.40048">
        <ele>6.2</ele>
        <time>2022-08-27T13:33:30Z</time>
      </trkpt>
      <trkpt lat="48.6746" lon="-1.40043">
        <ele>6.2</ele>
        <time>2022-08-27T13:33:32Z</time>
      </trkpt>
      <trkpt lat="48.67464" lon="-1.40042">
        <ele>6.4</ele>
        <time>2022-08-27T13:33:33Z</time>
      </trkpt>
      <trkpt lat="48.67469" lon="-1.40039">
        <ele>6.4</ele>
        <time>2022-08-27T13:33:36Z</time>
      </trkpt>
      <trkpt lat="48.67469" lon="-1.40039">
        <ele>6.4</ele>
        <time>2022-08-27T13:33:37Z</time>
      </trkpt>
      <trkpt lat="48.67472" lon="-1.40039">
        <ele>6.2</ele>
        <time>2022-08-27T13:34:52Z</time>
      </trkpt>
      <trkpt lat="48.67477" lon="-1.40039">
        <ele>6.2</ele>
        <time>2022-08-27T13:34:54Z</time>
      </trkpt>
      <trkpt lat="48.67493" lon="-1.40034">
        <ele>6.4</ele>
        <time>2022-08-27T13:34:58Z</time>
      </trkpt>
      <trkpt lat="48.67497" lon="-1.40033">
        <ele>6.4</ele>
        <time>2022-08-27T13:34:59Z</time>
      </trkpt>
      <trkpt lat="48.6752" lon="-1.40017">
        <ele>6.4</ele>
        <time>2022-08-27T13:35:04Z</time>
      </trkpt>
      <trkpt lat="48.67525" lon="-1.40015">
        <ele>6.4</ele>
        <time>2022-08-27T13:35:05Z</time>
      </trkpt>
      <trkpt lat="48.67555" lon="-1.40004">
        <ele>6.4</ele>
        <time>2022-08-27T13:35:11Z</time>
      </trkpt>
      <trkpt lat="48.67559" lon="-1.40001">
        <ele>6.4</ele>
        <time>2022-08-27T13:35:12Z</time>
      </trkpt>
      <trkpt lat="48.67569" lon="-1.39993">
        <ele>6.4</ele>
        <time>2022-08-27T13:35:14Z</time>
      </trkpt>
      <trkpt lat="48.6758" lon="-1.39977">
        <ele>6.2</ele>
        <time>2022-08-27T13:35:17Z</time>
      </trkpt>
      <trkpt lat="48.67604" lon="-1.3994">
        <ele>6.2</ele>
        <time>2022-08-27T13:35:23Z</time>
      </trkpt>
      <trkpt lat="48.67628" lon="-1.39907">
        <ele>6.4</ele>
        <time>2022-08-27T13:35:29Z</time>
      </trkpt>
      <trkpt lat="48.67639" lon="-1.39893">
        <ele>6.4</ele>
        <time>2022-08-27T13:35:32Z</time>
      </trkpt>
      <trkpt lat="48.67644" lon="-1.39882">
        <ele>6.4</ele>
        <time>2022-08-27T13:35:34Z</time>
      </trkpt>
      <trkpt lat="48.67655" lon="-1.3986">
        <ele>6.4</ele>
        <time>2022-08-27T13:35:38Z</time>
      </trkpt>
      <trkpt lat="48.67661" lon="-1.39848">
        <ele>6.4</ele>
        <time>2022-08-27T13:35:40Z</time>
      </trkpt>
      <trkpt lat="48.67663" lon="-1.39842">
        <ele>6.4</ele>
        <time>2022-08-27T13:35:41Z</time>
      </trkpt>
      <trkpt lat="48.67675" lon="-1.3981">
        <ele>6.4</ele>
        <time>2022-08-27T13:35:46Z</time>
      </trkpt>
      <trkpt lat="48.67684" lon="-1.39776">
        <ele>6.4</ele>
        <time>2022-08-27T13:35:51Z</time>
      </trkpt>
      <trkpt lat="48.67684" lon="-1.39768">
        <ele>6.4</ele>
        <time>2022-08-27T13:35:52Z</time>
      </trkpt>
      <trkpt lat="48.67686" lon="-1.39753">
        <ele>6.6</ele>
        <time>2022-08-27T13:35:54Z</time>
      </trkpt>
      <trkpt lat="48.67692" lon="-1.39724">
        <ele>6.4</ele>
        <time>2022-08-27T13:35:58Z</time>
      </trkpt>
      <trkpt lat="48.67696" lon="-1.39711">
        <ele>6.6</ele>
        <time>2022-08-27T13:36:00Z</time>
      </trkpt>
      <trkpt lat="48.67705" lon="-1.3969">
        <ele>6.4</ele>
        <time>2022-08-27T13:36:04Z</time>
      </trkpt>
      <trkpt lat="48.67714" lon="-1.39668">
        <ele>6.4</ele>
        <time>2022-08-27T13:36:09Z</time>
      </trkpt>
      <trkpt lat="48.67716" lon="-1.39666">
        <ele>6.4</ele>
        <time>2022-08-27T13:36:10Z</time>
      </trkpt>
      <trkpt lat="48.67718" lon="-1.39664">
        <ele>6.4</ele>
        <time>2022-08-27T13:36:12Z</time>
      </trkpt>
      <trkpt lat="48.67718" lon="-1.39664">
        <ele>6.4</ele>
        <time>2022-08-27T13:36:13Z</time>
      </trkpt>
      <trkpt lat="48.6772" lon="-1.39659">
        <ele>6.2</ele>
        <time>2022-08-27T13:37:08Z</time>
      </trkpt>
      <trkpt lat="48.67722" lon="-1.39654">
        <ele>6.2</ele>
        <time>2022-08-27T13:37:09Z</time>
      </trkpt>
      <trkpt lat="48.67737" lon="-1.39618">
        <ele>6.4</ele>
        <time>2022-08-27T13:37:15Z</time>
      </trkpt>
      <trkpt lat="48.67756" lon="-1.39567">
        <ele>6.4</ele>
        <time>2022-08-27T13:37:23Z</time>
      </trkpt>
      <trkpt lat="48.67758" lon="-1.39561">
        <ele>6.4</ele>
        <time>2022-08-27T13:37:24Z</time>
      </trkpt>
      <trkpt lat="48.67766" lon="-1.39537">
        <ele>6.4</ele>
        <time>2022-08-27T13:37:29Z</time>
      </trkpt>
      <trkpt lat="48.67775" lon="-1.39509">
        <ele>6.6</ele>
        <time>2022-08-27T13:37:35Z</time>
      </trkpt>
      <trkpt lat="48.67785" lon="-1.39481">
        <ele>6.6</ele>
        <time>2022-08-27T13:37:41Z</time>
      </trkpt>
      <trkpt lat="48.67794" lon="-1.39453">
        <ele>6.6</ele>
        <time>2022-08-27T13:37:47Z</time>
      </trkpt>
      <trkpt lat="48.67806" lon="-1.3942">
        <ele>6.6</ele>
        <time>2022-08-27T13:37:53Z</time>
      </trkpt>
      <trkpt lat="48.67818" lon="-1.39393">
        <ele>6.8</ele>
        <time>2022-08-27T13:37:58Z</time>
      </trkpt>
      <trkpt lat="48.67821" lon="-1.39387">
        <ele>7</ele>
        <time>2022-08-27T13:37:59Z</time>
      </trkpt>
      <trkpt lat="48.67839" lon="-1.39344">
        <ele>7</ele>
        <time>2022-08-27T13:38:06Z</time>
      </trkpt>
      <trkpt lat="48.67856" lon="-1.39287">
        <ele>7</ele>
        <time>2022-08-27T13:38:14Z</time>
      </trkpt>
      <trkpt lat="48.67864" lon="-1.39249">
        <ele>7</ele>
        <time>2022-08-27T13:38:19Z</time>
      </trkpt>
      <trkpt lat="48.6787" lon="-1.39227">
        <ele>7.2</ele>
        <time>2022-08-27T13:38:22Z</time>
      </trkpt>
      <trkpt lat="48.67874" lon="-1.39211">
        <ele>7</ele>
        <time>2022-08-27T13:38:24Z</time>
      </trkpt>
      <trkpt lat="48.67885" lon="-1.39164">
        <ele>6.8</ele>
        <time>2022-08-27T13:38:30Z</time>
      </trkpt>
      <trkpt lat="48.679" lon="-1.39108">
        <ele>6.8</ele>
        <time>2022-08-27T13:38:37Z</time>
      </trkpt>
      <trkpt lat="48.67928" lon="-1.39053">
        <ele>6.6</ele>
        <time>2022-08-27T13:38:45Z</time>
      </trkpt>
      <trkpt lat="48.67958" lon="-1.39002">
        <ele>6.4</ele>
        <time>2022-08-27T13:38:53Z</time>
      </trkpt>
      <trkpt lat="48.67997" lon="-1.38954">
        <ele>6</ele>
        <time>2022-08-27T13:39:02Z</time>
      </trkpt>
      <trkpt lat="48.68027" lon="-1.38915">
        <ele>6</ele>
        <time>2022-08-27T13:39:09Z</time>
      </trkpt>
      <trkpt lat="48.68061" lon="-1.38883">
        <ele>5.8</ele>
        <time>2022-08-27T13:39:16Z</time>
      </trkpt>
      <trkpt lat="48.68087" lon="-1.38865">
        <ele>5.6</ele>
        <time>2022-08-27T13:39:21Z</time>
      </trkpt>
      <trkpt lat="48.68119" lon="-1.38842">
        <ele>5.4</ele>
        <time>2022-08-27T13:39:27Z</time>
      </trkpt>
      <trkpt lat="48.68162" lon="-1.38812">
        <ele>5.2</ele>
        <time>2022-08-27T13:39:35Z</time>
      </trkpt>
      <trkpt lat="48.68203" lon="-1.38781">
        <ele>5.4</ele>
        <time>2022-08-27T13:39:43Z</time>
      </trkpt>
      <trkpt lat="48.68235" lon="-1.38752">
        <ele>5.8</ele>
        <time>2022-08-27T13:39:50Z</time>
      </trkpt>
      <trkpt lat="48.68249" lon="-1.38739">
        <ele>5.4</ele>
        <time>2022-08-27T13:39:53Z</time>
      </trkpt>
      <trkpt lat="48.68261" lon="-1.38731">
        <ele>5.4</ele>
        <time>2022-08-27T13:39:56Z</time>
      </trkpt>
      <trkpt lat="48.68272" lon="-1.38717">
        <ele>5.6</ele>
        <time>2022-08-27T13:39:59Z</time>
      </trkpt>
      <trkpt lat="48.68275" lon="-1.38711">
        <ele>5.6</ele>
        <time>2022-08-27T13:40:00Z</time>
      </trkpt>
      <trkpt lat="48.68275" lon="-1.38704">
        <ele>5.4</ele>
        <time>2022-08-27T13:40:01Z</time>
      </trkpt>
      <trkpt lat="48.68274" lon="-1.38689">
        <ele>5.6</ele>
        <time>2022-08-27T13:40:03Z</time>
      </trkpt>
      <trkpt lat="48.68279" lon="-1.38648">
        <ele>5.6</ele>
        <time>2022-08-27T13:40:08Z</time>
      </trkpt>
      <trkpt lat="48.68288" lon="-1.3859">
        <ele>5.8</ele>
        <time>2022-08-27T13:40:15Z</time>
      </trkpt>
      <trkpt lat="48.68296" lon="-1.38523">
        <ele>5.8</ele>
        <time>2022-08-27T13:40:23Z</time>
      </trkpt>
      <trkpt lat="48.68308" lon="-1.38475">
        <ele>5.8</ele>
        <time>2022-08-27T13:40:29Z</time>
      </trkpt>
      <trkpt lat="48.68329" lon="-1.38423">
        <ele>6</ele>
        <time>2022-08-27T13:40:36Z</time>
      </trkpt>
      <trkpt lat="48.68362" lon="-1.38374">
        <ele>6</ele>
        <time>2022-08-27T13:40:44Z</time>
      </trkpt>
      <trkpt lat="48.68408" lon="-1.3832">
        <ele>6</ele>
        <time>2022-08-27T13:40:54Z</time>
      </trkpt>
      <trkpt lat="48.68413" lon="-1.38315">
        <ele>6</ele>
        <time>2022-08-27T13:40:55Z</time>
      </trkpt>
      <trkpt lat="48.6845" lon="-1.38276">
        <ele>5.8</ele>
        <time>2022-08-27T13:41:03Z</time>
      </trkpt>
      <trkpt lat="48.68484" lon="-1.38233">
        <ele>5.6</ele>
        <time>2022-08-27T13:41:11Z</time>
      </trkpt>
      <trkpt lat="48.68516" lon="-1.38199">
        <ele>5.4</ele>
        <time>2022-08-27T13:41:18Z</time>
      </trkpt>
      <trkpt lat="48.68563" lon="-1.38152">
        <ele>5.4</ele>
        <time>2022-08-27T13:41:28Z</time>
      </trkpt>
      <trkpt lat="48.68601" lon="-1.38109">
        <ele>5.6</ele>
        <time>2022-08-27T13:41:37Z</time>
      </trkpt>
      <trkpt lat="48.68627" lon="-1.38083">
        <ele>5.6</ele>
        <time>2022-08-27T13:41:43Z</time>
      </trkpt>
      <trkpt lat="48.6863" lon="-1.38078">
        <ele>5.6</ele>
        <time>2022-08-27T13:41:44Z</time>
      </trkpt>
      <trkpt lat="48.68655" lon="-1.38052">
        <ele>5.8</ele>
        <time>2022-08-27T13:41:50Z</time>
      </trkpt>
      <trkpt lat="48.68681" lon="-1.38029">
        <ele>6</ele>
        <time>2022-08-27T13:41:56Z</time>
      </trkpt>
      <trkpt lat="48.68684" lon="-1.38023">
        <ele>6</ele>
        <time>2022-08-27T13:41:57Z</time>
      </trkpt>
      <trkpt lat="48.68686" lon="-1.38017">
        <ele>6</ele>
        <time>2022-08-27T13:41:58Z</time>
      </trkpt>
      <trkpt lat="48.68694" lon="-1.37996">
        <ele>6.2</ele>
        <time>2022-08-27T13:42:01Z</time>
      </trkpt>
      <trkpt lat="48.68697" lon="-1.37981">
        <ele>6.2</ele>
        <time>2022-08-27T13:42:03Z</time>
      </trkpt>
      <trkpt lat="48.68699" lon="-1.37958">
        <ele>6.4</ele>
        <time>2022-08-27T13:42:06Z</time>
      </trkpt>
      <trkpt lat="48.68698" lon="-1.37905">
        <ele>6.6</ele>
        <time>2022-08-27T13:42:13Z</time>
      </trkpt>
      <trkpt lat="48.68695" lon="-1.37855">
        <ele>7</ele>
        <time>2022-08-27T13:42:20Z</time>
      </trkpt>
      <trkpt lat="48.68693" lon="-1.37817">
        <ele>7.2</ele>
        <time>2022-08-27T13:42:25Z</time>
      </trkpt>
      <trkpt lat="48.6869" lon="-1.37774">
        <ele>7.6</ele>
        <time>2022-08-27T13:42:31Z</time>
      </trkpt>
      <trkpt lat="48.68689" lon="-1.37767">
        <ele>7.6</ele>
        <time>2022-08-27T13:42:32Z</time>
      </trkpt>
      <trkpt lat="48.68687" lon="-1.37728">
        <ele>8</ele>
        <time>2022-08-27T13:42:38Z</time>
      </trkpt>
      <trkpt lat="48.68683" lon="-1.37678">
        <ele>8.6</ele>
        <time>2022-08-27T13:42:46Z</time>
      </trkpt>
      <trkpt lat="48.6868" lon="-1.37637">
        <ele>8.8</ele>
        <time>2022-08-27T13:42:52Z</time>
      </trkpt>
      <trkpt lat="48.68675" lon="-1.37587">
        <ele>8.6</ele>
        <time>2022-08-27T13:42:57Z</time>
      </trkpt>
      <trkpt lat="48.68673" lon="-1.37555">
        <ele>9.2</ele>
        <time>2022-08-27T13:43:01Z</time>
      </trkpt>
      <trkpt lat="48.68674" lon="-1.3755">
        <ele>8.8</ele>
        <time>2022-08-27T13:43:02Z</time>
      </trkpt>
      <trkpt lat="48.68679" lon="-1.37544">
        <ele>8</ele>
        <time>2022-08-27T13:43:04Z</time>
      </trkpt>
      <trkpt lat="48.68692" lon="-1.37537">
        <ele>8</ele>
        <time>2022-08-27T13:43:07Z</time>
      </trkpt>
      <trkpt lat="48.68696" lon="-1.37532">
        <ele>8</ele>
        <time>2022-08-27T13:43:08Z</time>
      </trkpt>
      <trkpt lat="48.68715" lon="-1.37504">
        <ele>7.6</ele>
        <time>2022-08-27T13:43:13Z</time>
      </trkpt>
      <trkpt lat="48.68734" lon="-1.37487">
        <ele>7.2</ele>
        <time>2022-08-27T13:43:17Z</time>
      </trkpt>
      <trkpt lat="48.68754" lon="-1.37472">
        <ele>7.2</ele>
        <time>2022-08-27T13:43:21Z</time>
      </trkpt>
      <trkpt lat="48.68758" lon="-1.37467">
        <ele>7</ele>
        <time>2022-08-27T13:43:22Z</time>
      </trkpt>
      <trkpt lat="48.68801" lon="-1.37431">
        <ele>7</ele>
        <time>2022-08-27T13:43:31Z</time>
      </trkpt>
      <trkpt lat="48.6883" lon="-1.374">
        <ele>6.8</ele>
        <time>2022-08-27T13:43:38Z</time>
      </trkpt>
      <trkpt lat="48.68857" lon="-1.37378">
        <ele>6.8</ele>
        <time>2022-08-27T13:43:44Z</time>
      </trkpt>
      <trkpt lat="48.68899" lon="-1.37349">
        <ele>6.8</ele>
        <time>2022-08-27T13:43:53Z</time>
      </trkpt>
      <trkpt lat="48.68929" lon="-1.37329">
        <ele>6.6</ele>
        <time>2022-08-27T13:43:59Z</time>
      </trkpt>
      <trkpt lat="48.68969" lon="-1.37306">
        <ele>6.6</ele>
        <time>2022-08-27T13:44:07Z</time>
      </trkpt>
      <trkpt lat="48.68994" lon="-1.37289">
        <ele>6.8</ele>
        <time>2022-08-27T13:44:12Z</time>
      </trkpt>
      <trkpt lat="48.68999" lon="-1.37286">
        <ele>6.8</ele>
        <time>2022-08-27T13:44:13Z</time>
      </trkpt>
      <trkpt lat="48.69009" lon="-1.3728">
        <ele>6.8</ele>
        <time>2022-08-27T13:44:15Z</time>
      </trkpt>
      <trkpt lat="48.69031" lon="-1.37268">
        <ele>6.8</ele>
        <time>2022-08-27T13:44:19Z</time>
      </trkpt>
      <trkpt lat="48.69082" lon="-1.37233">
        <ele>7</ele>
        <time>2022-08-27T13:44:29Z</time>
      </trkpt>
      <trkpt lat="48.69116" lon="-1.3721">
        <ele>7</ele>
        <time>2022-08-27T13:44:36Z</time>
      </trkpt>
      <trkpt lat="48.69129" lon="-1.372">
        <ele>7</ele>
        <time>2022-08-27T13:44:39Z</time>
      </trkpt>
      <trkpt lat="48.69135" lon="-1.37187">
        <ele>7</ele>
        <time>2022-08-27T13:44:41Z</time>
      </trkpt>
      <trkpt lat="48.69132" lon="-1.37162">
        <ele>6.8</ele>
        <time>2022-08-27T13:44:44Z</time>
      </trkpt>
      <trkpt lat="48.69121" lon="-1.37111">
        <ele>6.6</ele>
        <time>2022-08-27T13:44:51Z</time>
      </trkpt>
      <trkpt lat="48.69119" lon="-1.37098">
        <ele>6.6</ele>
        <time>2022-08-27T13:44:53Z</time>
      </trkpt>
      <trkpt lat="48.69116" lon="-1.3709">
        <ele>6.6</ele>
        <time>2022-08-27T13:44:55Z</time>
      </trkpt>
      <trkpt lat="48.69119" lon="-1.37083">
        <ele>6.4</ele>
        <time>2022-08-27T13:44:58Z</time>
      </trkpt>
      <trkpt lat="48.69121" lon="-1.37082">
        <ele>6.4</ele>
        <time>2022-08-27T13:44:59Z</time>
      </trkpt>
      <trkpt lat="48.69133" lon="-1.37073">
        <ele>6.2</ele>
        <time>2022-08-27T13:45:04Z</time>
      </trkpt>
      <trkpt lat="48.69138" lon="-1.37068">
        <ele>6</ele>
        <time>2022-08-27T13:45:06Z</time>
      </trkpt>
      <trkpt lat="48.69137" lon="-1.37059">
        <ele>6</ele>
        <time>2022-08-27T13:45:08Z</time>
      </trkpt>
      <trkpt lat="48.69132" lon="-1.37039">
        <ele>6.4</ele>
        <time>2022-08-27T13:45:12Z</time>
      </trkpt>
      <trkpt lat="48.69131" lon="-1.37033">
        <ele>6.2</ele>
        <time>2022-08-27T13:45:13Z</time>
      </trkpt>
      <trkpt lat="48.69122" lon="-1.36992">
        <ele>6.2</ele>
        <time>2022-08-27T13:45:20Z</time>
      </trkpt>
      <trkpt lat="48.69113" lon="-1.36936">
        <ele>6.2</ele>
        <time>2022-08-27T13:45:28Z</time>
      </trkpt>
      <trkpt lat="48.69107" lon="-1.36896">
        <ele>6.2</ele>
        <time>2022-08-27T13:45:34Z</time>
      </trkpt>
      <trkpt lat="48.69103" lon="-1.36885">
        <ele>6.4</ele>
        <time>2022-08-27T13:45:36Z</time>
      </trkpt>
      <trkpt lat="48.69097" lon="-1.36879">
        <ele>6.4</ele>
        <time>2022-08-27T13:45:38Z</time>
      </trkpt>
      <trkpt lat="48.69088" lon="-1.36869">
        <ele>6.4</ele>
        <time>2022-08-27T13:45:41Z</time>
      </trkpt>
      <trkpt lat="48.69088" lon="-1.36863">
        <ele>6.4</ele>
        <time>2022-08-27T13:45:42Z</time>
      </trkpt>
      <trkpt lat="48.69088" lon="-1.36856">
        <ele>6.4</ele>
        <time>2022-08-27T13:45:43Z</time>
      </trkpt>
      <trkpt lat="48.69093" lon="-1.36836">
        <ele>6.4</ele>
        <time>2022-08-27T13:45:46Z</time>
      </trkpt>
      <trkpt lat="48.69098" lon="-1.36809">
        <ele>6.6</ele>
        <time>2022-08-27T13:45:50Z</time>
      </trkpt>
      <trkpt lat="48.69105" lon="-1.36788">
        <ele>6.6</ele>
        <time>2022-08-27T13:45:53Z</time>
      </trkpt>
      <trkpt lat="48.69118" lon="-1.36746">
        <ele>6.6</ele>
        <time>2022-08-27T13:45:59Z</time>
      </trkpt>
      <trkpt lat="48.69127" lon="-1.36714">
        <ele>6.8</ele>
        <time>2022-08-27T13:46:04Z</time>
      </trkpt>
      <trkpt lat="48.69128" lon="-1.36709">
        <ele>6.8</ele>
        <time>2022-08-27T13:46:05Z</time>
      </trkpt>
      <trkpt lat="48.69127" lon="-1.36685">
        <ele>6.8</ele>
        <time>2022-08-27T13:46:10Z</time>
      </trkpt>
      <trkpt lat="48.69119" lon="-1.36659">
        <ele>6.8</ele>
        <time>2022-08-27T13:46:14Z</time>
      </trkpt>
      <trkpt lat="48.69119" lon="-1.36651">
        <ele>6.8</ele>
        <time>2022-08-27T13:46:15Z</time>
      </trkpt>
      <trkpt lat="48.69118" lon="-1.36643">
        <ele>6.8</ele>
        <time>2022-08-27T13:46:16Z</time>
      </trkpt>
      <trkpt lat="48.69117" lon="-1.36602">
        <ele>7</ele>
        <time>2022-08-27T13:46:21Z</time>
      </trkpt>
      <trkpt lat="48.69114" lon="-1.36587">
        <ele>7</ele>
        <time>2022-08-27T13:46:23Z</time>
      </trkpt>
      <trkpt lat="48.69108" lon="-1.36575">
        <ele>7</ele>
        <time>2022-08-27T13:46:25Z</time>
      </trkpt>
      <trkpt lat="48.69097" lon="-1.36554">
        <ele>7</ele>
        <time>2022-08-27T13:46:29Z</time>
      </trkpt>
      <trkpt lat="48.69091" lon="-1.36544">
        <ele>7</ele>
        <time>2022-08-27T13:46:31Z</time>
      </trkpt>
      <trkpt lat="48.69084" lon="-1.3653">
        <ele>7</ele>
        <time>2022-08-27T13:46:34Z</time>
      </trkpt>
      <trkpt lat="48.69063" lon="-1.36484">
        <ele>7.4</ele>
        <time>2022-08-27T13:46:42Z</time>
      </trkpt>
      <trkpt lat="48.69046" lon="-1.36441">
        <ele>7.8</ele>
        <time>2022-08-27T13:46:50Z</time>
      </trkpt>
      <trkpt lat="48.69032" lon="-1.36401">
        <ele>8.2</ele>
        <time>2022-08-27T13:46:58Z</time>
      </trkpt>
      <trkpt lat="48.69022" lon="-1.36367">
        <ele>8.8</ele>
        <time>2022-08-27T13:47:05Z</time>
      </trkpt>
      <trkpt lat="48.69013" lon="-1.36325">
        <ele>9.6</ele>
        <time>2022-08-27T13:47:14Z</time>
      </trkpt>
      <trkpt lat="48.69007" lon="-1.36281">
        <ele>10.4</ele>
        <time>2022-08-27T13:47:23Z</time>
      </trkpt>
      <trkpt lat="48.69" lon="-1.36238">
        <ele>11.2</ele>
        <time>2022-08-27T13:47:33Z</time>
      </trkpt>
      <trkpt lat="48.68994" lon="-1.36199">
        <ele>12.6</ele>
        <time>2022-08-27T13:47:43Z</time>
      </trkpt>
      <trkpt lat="48.68989" lon="-1.36171">
        <ele>13.6</ele>
        <time>2022-08-27T13:47:50Z</time>
      </trkpt>
      <trkpt lat="48.68985" lon="-1.36142">
        <ele>15.4</ele>
        <time>2022-08-27T13:47:58Z</time>
      </trkpt>
      <trkpt lat="48.68982" lon="-1.36112">
        <ele>16.8</ele>
        <time>2022-08-27T13:48:06Z</time>
      </trkpt>
      <trkpt lat="48.68979" lon="-1.36095">
        <ele>17.4</ele>
        <time>2022-08-27T13:48:11Z</time>
      </trkpt>
      <trkpt lat="48.68975" lon="-1.36064">
        <ele>19.2</ele>
        <time>2022-08-27T13:48:20Z</time>
      </trkpt>
      <trkpt lat="48.6897" lon="-1.36035">
        <ele>20.6</ele>
        <time>2022-08-27T13:48:28Z</time>
      </trkpt>
      <trkpt lat="48.68965" lon="-1.36005">
        <ele>22.2</ele>
        <time>2022-08-27T13:48:37Z</time>
      </trkpt>
      <trkpt lat="48.68959" lon="-1.35998">
        <ele>23</ele>
        <time>2022-08-27T13:48:41Z</time>
      </trkpt>
      <trkpt lat="48.68955" lon="-1.36">
        <ele>23.4</ele>
        <time>2022-08-27T13:48:43Z</time>
      </trkpt>
      <trkpt lat="48.68952" lon="-1.36006">
        <ele>23.6</ele>
        <time>2022-08-27T13:48:45Z</time>
      </trkpt>
      <trkpt lat="48.6895" lon="-1.36026">
        <ele>24.6</ele>
        <time>2022-08-27T13:48:51Z</time>
      </trkpt>
      <trkpt lat="48.68946" lon="-1.36054">
        <ele>26.2</ele>
        <time>2022-08-27T13:49:00Z</time>
      </trkpt>
      <trkpt lat="48.68944" lon="-1.36071">
        <ele>27.2</ele>
        <time>2022-08-27T13:49:05Z</time>
      </trkpt>
      <trkpt lat="48.68941" lon="-1.36096">
        <ele>28.4</ele>
        <time>2022-08-27T13:49:13Z</time>
      </trkpt>
      <trkpt lat="48.68939" lon="-1.36127">
        <ele>29.8</ele>
        <time>2022-08-27T13:49:22Z</time>
      </trkpt>
      <trkpt lat="48.68936" lon="-1.36158">
        <ele>31.8</ele>
        <time>2022-08-27T13:49:31Z</time>
      </trkpt>
      <trkpt lat="48.68933" lon="-1.36189">
        <ele>33.8</ele>
        <time>2022-08-27T13:49:40Z</time>
      </trkpt>
      <trkpt lat="48.6893" lon="-1.36215">
        <ele>35.6</ele>
        <time>2022-08-27T13:49:48Z</time>
      </trkpt>
      <trkpt lat="48.68928" lon="-1.36241">
        <ele>37.2</ele>
        <time>2022-08-27T13:49:55Z</time>
      </trkpt>
      <trkpt lat="48.68924" lon="-1.36274">
        <ele>39.2</ele>
        <time>2022-08-27T13:50:03Z</time>
      </trkpt>
      <trkpt lat="48.6892" lon="-1.36302">
        <ele>41</ele>
        <time>2022-08-27T13:50:10Z</time>
      </trkpt>
      <trkpt lat="48.68917" lon="-1.36334">
        <ele>42.6</ele>
        <time>2022-08-27T13:50:18Z</time>
      </trkpt>
      <trkpt lat="48.68913" lon="-1.36366">
        <ele>44.2</ele>
        <time>2022-08-27T13:50:26Z</time>
      </trkpt>
      <trkpt lat="48.68906" lon="-1.36395">
        <ele>45.6</ele>
        <time>2022-08-27T13:50:34Z</time>
      </trkpt>
      <trkpt lat="48.68898" lon="-1.36421">
        <ele>46.8</ele>
        <time>2022-08-27T13:50:41Z</time>
      </trkpt>
      <trkpt lat="48.68892" lon="-1.36443">
        <ele>48</ele>
        <time>2022-08-27T13:50:47Z</time>
      </trkpt>
      <trkpt lat="48.68881" lon="-1.36479">
        <ele>49.8</ele>
        <time>2022-08-27T13:50:57Z</time>
      </trkpt>
      <trkpt lat="48.68871" lon="-1.36511">
        <ele>51.4</ele>
        <time>2022-08-27T13:51:06Z</time>
      </trkpt>
      <trkpt lat="48.68859" lon="-1.36533">
        <ele>52.8</ele>
        <time>2022-08-27T13:51:13Z</time>
      </trkpt>
      <trkpt lat="48.68842" lon="-1.36554">
        <ele>54.8</ele>
        <time>2022-08-27T13:51:21Z</time>
      </trkpt>
      <trkpt lat="48.68814" lon="-1.36563">
        <ele>56.8</ele>
        <time>2022-08-27T13:51:31Z</time>
      </trkpt>
      <trkpt lat="48.68794" lon="-1.36564">
        <ele>58.6</ele>
        <time>2022-08-27T13:51:38Z</time>
      </trkpt>
      <trkpt lat="48.68774" lon="-1.36575">
        <ele>59.8</ele>
        <time>2022-08-27T13:51:44Z</time>
      </trkpt>
      <trkpt lat="48.68743" lon="-1.36594">
        <ele>61.2</ele>
        <time>2022-08-27T13:51:52Z</time>
      </trkpt>
      <trkpt lat="48.68719" lon="-1.3661">
        <ele>62.4</ele>
        <time>2022-08-27T13:51:59Z</time>
      </trkpt>
      <trkpt lat="48.68698" lon="-1.36624">
        <ele>63.2</ele>
        <time>2022-08-27T13:52:06Z</time>
      </trkpt>
      <trkpt lat="48.68683" lon="-1.36636">
        <ele>64.2</ele>
        <time>2022-08-27T13:52:12Z</time>
      </trkpt>
      <trkpt lat="48.68685" lon="-1.36649">
        <ele>64.8</ele>
        <time>2022-08-27T13:52:15Z</time>
      </trkpt>
      <trkpt lat="48.6869" lon="-1.36673">
        <ele>65</ele>
        <time>2022-08-27T13:52:18Z</time>
      </trkpt>
      <trkpt lat="48.68691" lon="-1.36683">
        <ele>65</ele>
        <time>2022-08-27T13:52:19Z</time>
      </trkpt>
      <trkpt lat="48.68692" lon="-1.36703">
        <ele>65.2</ele>
        <time>2022-08-27T13:52:21Z</time>
      </trkpt>
      <trkpt lat="48.68687" lon="-1.36732">
        <ele>65.2</ele>
        <time>2022-08-27T13:52:23Z</time>
      </trkpt>
      <trkpt lat="48.68681" lon="-1.36771">
        <ele>65</ele>
        <time>2022-08-27T13:52:26Z</time>
      </trkpt>
      <trkpt lat="48.68678" lon="-1.36796">
        <ele>64.8</ele>
        <time>2022-08-27T13:52:28Z</time>
      </trkpt>
      <trkpt lat="48.68674" lon="-1.36844">
        <ele>65.4</ele>
        <time>2022-08-27T13:52:32Z</time>
      </trkpt>
      <trkpt lat="48.68675" lon="-1.36856">
        <ele>64.4</ele>
        <time>2022-08-27T13:52:33Z</time>
      </trkpt>
      <trkpt lat="48.68677" lon="-1.36868">
        <ele>63.4</ele>
        <time>2022-08-27T13:52:34Z</time>
      </trkpt>
      <trkpt lat="48.68682" lon="-1.36891">
        <ele>63.8</ele>
        <time>2022-08-27T13:52:36Z</time>
      </trkpt>
      <trkpt lat="48.68685" lon="-1.36902">
        <ele>63.6</ele>
        <time>2022-08-27T13:52:37Z</time>
      </trkpt>
      <trkpt lat="48.68705" lon="-1.36971">
        <ele>62.6</ele>
        <time>2022-08-27T13:52:43Z</time>
      </trkpt>
      <trkpt lat="48.68717" lon="-1.37025">
        <ele>62</ele>
        <time>2022-08-27T13:52:47Z</time>
      </trkpt>
      <trkpt lat="48.68723" lon="-1.37092">
        <ele>60.8</ele>
        <time>2022-08-27T13:52:52Z</time>
      </trkpt>
      <trkpt lat="48.68722" lon="-1.37121">
        <ele>60.2</ele>
        <time>2022-08-27T13:52:54Z</time>
      </trkpt>
      <trkpt lat="48.68716" lon="-1.37154">
        <ele>59.4</ele>
        <time>2022-08-27T13:52:56Z</time>
      </trkpt>
      <trkpt lat="48.68696" lon="-1.37235">
        <ele>57.6</ele>
        <time>2022-08-27T13:53:01Z</time>
      </trkpt>
      <trkpt lat="48.68683" lon="-1.37287">
        <ele>56.2</ele>
        <time>2022-08-27T13:53:04Z</time>
      </trkpt>
      <trkpt lat="48.6867" lon="-1.3732">
        <ele>55.4</ele>
        <time>2022-08-27T13:53:06Z</time>
      </trkpt>
      <trkpt lat="48.6865" lon="-1.3735">
        <ele>54.2</ele>
        <time>2022-08-27T13:53:08Z</time>
      </trkpt>
      <trkpt lat="48.68638" lon="-1.37362">
        <ele>53.8</ele>
        <time>2022-08-27T13:53:09Z</time>
      </trkpt>
      <trkpt lat="48.68626" lon="-1.37372">
        <ele>53.2</ele>
        <time>2022-08-27T13:53:10Z</time>
      </trkpt>
      <trkpt lat="48.68588" lon="-1.37398">
        <ele>51.6</ele>
        <time>2022-08-27T13:53:13Z</time>
      </trkpt>
      <trkpt lat="48.6855" lon="-1.37414">
        <ele>49.8</ele>
        <time>2022-08-27T13:53:16Z</time>
      </trkpt>
      <trkpt lat="48.68538" lon="-1.37416">
        <ele>49.4</ele>
        <time>2022-08-27T13:53:17Z</time>
      </trkpt>
      <trkpt lat="48.68526" lon="-1.37416">
        <ele>49</ele>
        <time>2022-08-27T13:53:18Z</time>
      </trkpt>
      <trkpt lat="48.68493" lon="-1.37414">
        <ele>48</ele>
        <time>2022-08-27T13:53:21Z</time>
      </trkpt>
      <trkpt lat="48.68433" lon="-1.37402">
        <ele>46.2</ele>
        <time>2022-08-27T13:53:27Z</time>
      </trkpt>
      <trkpt lat="48.68394" lon="-1.37383">
        <ele>45</ele>
        <time>2022-08-27T13:53:32Z</time>
      </trkpt>
      <trkpt lat="48.68348" lon="-1.37359">
        <ele>43.2</ele>
        <time>2022-08-27T13:53:39Z</time>
      </trkpt>
      <trkpt lat="48.68309" lon="-1.37339">
        <ele>41.6</ele>
        <time>2022-08-27T13:53:46Z</time>
      </trkpt>
      <trkpt lat="48.68275" lon="-1.37324">
        <ele>40.6</ele>
        <time>2022-08-27T13:53:52Z</time>
      </trkpt>
      <trkpt lat="48.68234" lon="-1.37308">
        <ele>39.2</ele>
        <time>2022-08-27T13:53:58Z</time>
      </trkpt>
      <trkpt lat="48.68186" lon="-1.37289">
        <ele>37.6</ele>
        <time>2022-08-27T13:54:05Z</time>
      </trkpt>
      <trkpt lat="48.68147" lon="-1.37272">
        <ele>36.4</ele>
        <time>2022-08-27T13:54:12Z</time>
      </trkpt>
      <trkpt lat="48.68114" lon="-1.37261">
        <ele>35.8</ele>
        <time>2022-08-27T13:54:19Z</time>
      </trkpt>
      <trkpt lat="48.68075" lon="-1.37252">
        <ele>35</ele>
        <time>2022-08-27T13:54:27Z</time>
      </trkpt>
      <trkpt lat="48.68038" lon="-1.37245">
        <ele>34.6</ele>
        <time>2022-08-27T13:54:34Z</time>
      </trkpt>
      <trkpt lat="48.68033" lon="-1.37244">
        <ele>34.4</ele>
        <time>2022-08-27T13:54:35Z</time>
      </trkpt>
      <trkpt lat="48.67985" lon="-1.37235">
        <ele>34</ele>
        <time>2022-08-27T13:54:44Z</time>
      </trkpt>
      <trkpt lat="48.67938" lon="-1.37227">
        <ele>33.4</ele>
        <time>2022-08-27T13:54:53Z</time>
      </trkpt>
      <trkpt lat="48.67901" lon="-1.3722">
        <ele>33.2</ele>
        <time>2022-08-27T13:55:00Z</time>
      </trkpt>
      <trkpt lat="48.67855" lon="-1.37212">
        <ele>32.8</ele>
        <time>2022-08-27T13:55:09Z</time>
      </trkpt>
      <trkpt lat="48.67827" lon="-1.37207">
        <ele>32.6</ele>
        <time>2022-08-27T13:55:15Z</time>
      </trkpt>
      <trkpt lat="48.67796" lon="-1.37201">
        <ele>32.4</ele>
        <time>2022-08-27T13:55:21Z</time>
      </trkpt>
      <trkpt lat="48.6775" lon="-1.37193">
        <ele>32.2</ele>
        <time>2022-08-27T13:55:30Z</time>
      </trkpt>
      <trkpt lat="48.67705" lon="-1.37184">
        <ele>32.2</ele>
        <time>2022-08-27T13:55:38Z</time>
      </trkpt>
      <trkpt lat="48.67668" lon="-1.37179">
        <ele>32.4</ele>
        <time>2022-08-27T13:55:45Z</time>
      </trkpt>
      <trkpt lat="48.67658" lon="-1.37178">
        <ele>32.4</ele>
        <time>2022-08-27T13:55:47Z</time>
      </trkpt>
      <trkpt lat="48.67645" lon="-1.37176">
        <ele>32.6</ele>
        <time>2022-08-27T13:55:50Z</time>
      </trkpt>
      <trkpt lat="48.67631" lon="-1.37175">
        <ele>32.4</ele>
        <time>2022-08-27T13:55:53Z</time>
      </trkpt>
      <trkpt lat="48.67618" lon="-1.37173">
        <ele>32.6</ele>
        <time>2022-08-27T13:55:56Z</time>
      </trkpt>
      <trkpt lat="48.67595" lon="-1.37169">
        <ele>32.8</ele>
        <time>2022-08-27T13:56:02Z</time>
      </trkpt>
      <trkpt lat="48.6758" lon="-1.37166">
        <ele>33.2</ele>
        <time>2022-08-27T13:56:06Z</time>
      </trkpt>
      <trkpt lat="48.67548" lon="-1.37172">
        <ele>33.4</ele>
        <time>2022-08-27T13:56:12Z</time>
      </trkpt>
      <trkpt lat="48.67502" lon="-1.37176">
        <ele>33.4</ele>
        <time>2022-08-27T13:56:19Z</time>
      </trkpt>
      <trkpt lat="48.67455" lon="-1.37181">
        <ele>33.6</ele>
        <time>2022-08-27T13:56:26Z</time>
      </trkpt>
      <trkpt lat="48.67398" lon="-1.37188">
        <ele>33.6</ele>
        <time>2022-08-27T13:56:34Z</time>
      </trkpt>
      <trkpt lat="48.6739" lon="-1.37187">
        <ele>33.6</ele>
        <time>2022-08-27T13:56:35Z</time>
      </trkpt>
      <trkpt lat="48.67353" lon="-1.37182">
        <ele>33.8</ele>
        <time>2022-08-27T13:56:40Z</time>
      </trkpt>
      <trkpt lat="48.67346" lon="-1.37179">
        <ele>33.8</ele>
        <time>2022-08-27T13:56:41Z</time>
      </trkpt>
      <trkpt lat="48.67312" lon="-1.37162">
        <ele>33.8</ele>
        <time>2022-08-27T13:56:46Z</time>
      </trkpt>
      <trkpt lat="48.67299" lon="-1.37153">
        <ele>33.8</ele>
        <time>2022-08-27T13:56:48Z</time>
      </trkpt>
      <trkpt lat="48.67262" lon="-1.37121">
        <ele>33.8</ele>
        <time>2022-08-27T13:56:54Z</time>
      </trkpt>
      <trkpt lat="48.67217" lon="-1.37067">
        <ele>33.6</ele>
        <time>2022-08-27T13:57:02Z</time>
      </trkpt>
      <trkpt lat="48.67179" lon="-1.37012">
        <ele>33.4</ele>
        <time>2022-08-27T13:57:09Z</time>
      </trkpt>
      <trkpt lat="48.67154" lon="-1.36973">
        <ele>33</ele>
        <time>2022-08-27T13:57:14Z</time>
      </trkpt>
      <trkpt lat="48.67122" lon="-1.36923">
        <ele>32.2</ele>
        <time>2022-08-27T13:57:20Z</time>
      </trkpt>
      <trkpt lat="48.67081" lon="-1.3686">
        <ele>31.8</ele>
        <time>2022-08-27T13:57:27Z</time>
      </trkpt>
      <trkpt lat="48.6704" lon="-1.36797">
        <ele>31.4</ele>
        <time>2022-08-27T13:57:34Z</time>
      </trkpt>
      <trkpt lat="48.66999" lon="-1.36734">
        <ele>31.2</ele>
        <time>2022-08-27T13:57:41Z</time>
      </trkpt>
      <trkpt lat="48.66994" lon="-1.36727">
        <ele>31.2</ele>
        <time>2022-08-27T13:57:42Z</time>
      </trkpt>
      <trkpt lat="48.66952" lon="-1.36661">
        <ele>30.4</ele>
        <time>2022-08-27T13:57:50Z</time>
      </trkpt>
      <trkpt lat="48.66915" lon="-1.36603">
        <ele>30.4</ele>
        <time>2022-08-27T13:57:57Z</time>
      </trkpt>
      <trkpt lat="48.66875" lon="-1.36535">
        <ele>30.4</ele>
        <time>2022-08-27T13:58:05Z</time>
      </trkpt>
      <trkpt lat="48.6687" lon="-1.36526">
        <ele>30.4</ele>
        <time>2022-08-27T13:58:06Z</time>
      </trkpt>
      <trkpt lat="48.66832" lon="-1.36459">
        <ele>30.4</ele>
        <time>2022-08-27T13:58:14Z</time>
      </trkpt>
      <trkpt lat="48.66827" lon="-1.3645">
        <ele>30.4</ele>
        <time>2022-08-27T13:58:15Z</time>
      </trkpt>
      <trkpt lat="48.66789" lon="-1.36383">
        <ele>30.4</ele>
        <time>2022-08-27T13:58:23Z</time>
      </trkpt>
      <trkpt lat="48.66784" lon="-1.36374">
        <ele>30.6</ele>
        <time>2022-08-27T13:58:24Z</time>
      </trkpt>
      <trkpt lat="48.66745" lon="-1.36303">
        <ele>30.6</ele>
        <time>2022-08-27T13:58:32Z</time>
      </trkpt>
      <trkpt lat="48.66735" lon="-1.36285">
        <ele>30.6</ele>
        <time>2022-08-27T13:58:34Z</time>
      </trkpt>
      <trkpt lat="48.66711" lon="-1.3624">
        <ele>30.4</ele>
        <time>2022-08-27T13:58:39Z</time>
      </trkpt>
      <trkpt lat="48.66706" lon="-1.36231">
        <ele>30.4</ele>
        <time>2022-08-27T13:58:40Z</time>
      </trkpt>
      <trkpt lat="48.66685" lon="-1.36183">
        <ele>30.6</ele>
        <time>2022-08-27T13:58:45Z</time>
      </trkpt>
      <trkpt lat="48.66651" lon="-1.36106">
        <ele>30.8</ele>
        <time>2022-08-27T13:58:53Z</time>
      </trkpt>
      <trkpt lat="48.66616" lon="-1.36031">
        <ele>30.8</ele>
        <time>2022-08-27T13:59:01Z</time>
      </trkpt>
      <trkpt lat="48.66612" lon="-1.36022">
        <ele>30.8</ele>
        <time>2022-08-27T13:59:02Z</time>
      </trkpt>
      <trkpt lat="48.66584" lon="-1.3596">
        <ele>30.8</ele>
        <time>2022-08-27T13:59:09Z</time>
      </trkpt>
      <trkpt lat="48.66562" lon="-1.35912">
        <ele>31</ele>
        <time>2022-08-27T13:59:15Z</time>
      </trkpt>
      <trkpt lat="48.66532" lon="-1.35865">
        <ele>31.4</ele>
        <time>2022-08-27T13:59:22Z</time>
      </trkpt>
      <trkpt lat="48.66501" lon="-1.35828">
        <ele>32</ele>
        <time>2022-08-27T13:59:29Z</time>
      </trkpt>
      <trkpt lat="48.66463" lon="-1.35794">
        <ele>32.4</ele>
        <time>2022-08-27T13:59:37Z</time>
      </trkpt>
      <trkpt lat="48.66427" lon="-1.35768">
        <ele>32.8</ele>
        <time>2022-08-27T13:59:44Z</time>
      </trkpt>
      <trkpt lat="48.66373" lon="-1.3573">
        <ele>33.4</ele>
        <time>2022-08-27T13:59:54Z</time>
      </trkpt>
      <trkpt lat="48.66332" lon="-1.35691">
        <ele>33.8</ele>
        <time>2022-08-27T14:00:02Z</time>
      </trkpt>
      <trkpt lat="48.66306" lon="-1.35652">
        <ele>34</ele>
        <time>2022-08-27T14:00:08Z</time>
      </trkpt>
      <trkpt lat="48.66288" lon="-1.35605">
        <ele>33.8</ele>
        <time>2022-08-27T14:00:13Z</time>
      </trkpt>
      <trkpt lat="48.66279" lon="-1.35549">
        <ele>33.8</ele>
        <time>2022-08-27T14:00:18Z</time>
      </trkpt>
      <trkpt lat="48.66278" lon="-1.35478">
        <ele>33.8</ele>
        <time>2022-08-27T14:00:24Z</time>
      </trkpt>
      <trkpt lat="48.6628" lon="-1.35404">
        <ele>33.4</ele>
        <time>2022-08-27T14:00:30Z</time>
      </trkpt>
      <trkpt lat="48.66278" lon="-1.35393">
        <ele>33.4</ele>
        <time>2022-08-27T14:00:31Z</time>
      </trkpt>
      <trkpt lat="48.66273" lon="-1.35384">
        <ele>33.2</ele>
        <time>2022-08-27T14:00:32Z</time>
      </trkpt>
      <trkpt lat="48.6626" lon="-1.35372">
        <ele>33.2</ele>
        <time>2022-08-27T14:00:34Z</time>
      </trkpt>
      <trkpt lat="48.66229" lon="-1.3537">
        <ele>32.8</ele>
        <time>2022-08-27T14:00:38Z</time>
      </trkpt>
      <trkpt lat="48.66187" lon="-1.35367">
        <ele>32.2</ele>
        <time>2022-08-27T14:00:44Z</time>
      </trkpt>
      <trkpt lat="48.66138" lon="-1.35362">
        <ele>31.2</ele>
        <time>2022-08-27T14:00:50Z</time>
      </trkpt>
      <trkpt lat="48.66083" lon="-1.35358">
        <ele>30.2</ele>
        <time>2022-08-27T14:00:56Z</time>
      </trkpt>
      <trkpt lat="48.66064" lon="-1.35356">
        <ele>29.8</ele>
        <time>2022-08-27T14:00:58Z</time>
      </trkpt>
      <trkpt lat="48.66008" lon="-1.3535">
        <ele>29.2</ele>
        <time>2022-08-27T14:01:04Z</time>
      </trkpt>
      <trkpt lat="48.65982" lon="-1.35348">
        <ele>29</ele>
        <time>2022-08-27T14:01:07Z</time>
      </trkpt>
      <trkpt lat="48.65927" lon="-1.35344">
        <ele>28.2</ele>
        <time>2022-08-27T14:01:13Z</time>
      </trkpt>
      <trkpt lat="48.65909" lon="-1.35342">
        <ele>27.8</ele>
        <time>2022-08-27T14:01:15Z</time>
      </trkpt>
      <trkpt lat="48.65848" lon="-1.35339">
        <ele>27.2</ele>
        <time>2022-08-27T14:01:22Z</time>
      </trkpt>
      <trkpt lat="48.65831" lon="-1.35338">
        <ele>27.2</ele>
        <time>2022-08-27T14:01:24Z</time>
      </trkpt>
      <trkpt lat="48.6579" lon="-1.35336">
        <ele>26.6</ele>
        <time>2022-08-27T14:01:29Z</time>
      </trkpt>
      <trkpt lat="48.65735" lon="-1.35331">
        <ele>26.2</ele>
        <time>2022-08-27T14:01:36Z</time>
      </trkpt>
      <trkpt lat="48.65676" lon="-1.35325">
        <ele>26.2</ele>
        <time>2022-08-27T14:01:44Z</time>
      </trkpt>
      <trkpt lat="48.65615" lon="-1.35318">
        <ele>26</ele>
        <time>2022-08-27T14:01:53Z</time>
      </trkpt>
      <trkpt lat="48.65567" lon="-1.35311">
        <ele>26.4</ele>
        <time>2022-08-27T14:02:01Z</time>
      </trkpt>
      <trkpt lat="48.65551" lon="-1.35312">
        <ele>26.4</ele>
        <time>2022-08-27T14:02:04Z</time>
      </trkpt>
      <trkpt lat="48.65545" lon="-1.35312">
        <ele>26.4</ele>
        <time>2022-08-27T14:02:06Z</time>
      </trkpt>
      <trkpt lat="48.6554" lon="-1.35314">
        <ele>26.6</ele>
        <time>2022-08-27T14:02:08Z</time>
      </trkpt>
      <trkpt lat="48.65535" lon="-1.3532">
        <ele>26.6</ele>
        <time>2022-08-27T14:02:10Z</time>
      </trkpt>
      <trkpt lat="48.65532" lon="-1.35324">
        <ele>26.6</ele>
        <time>2022-08-27T14:02:11Z</time>
      </trkpt>
      <trkpt lat="48.65524" lon="-1.3533">
        <ele>26.6</ele>
        <time>2022-08-27T14:02:13Z</time>
      </trkpt>
      <trkpt lat="48.65519" lon="-1.3533">
        <ele>26.8</ele>
        <time>2022-08-27T14:02:14Z</time>
      </trkpt>
      <trkpt lat="48.65515" lon="-1.35328">
        <ele>26.8</ele>
        <time>2022-08-27T14:02:15Z</time>
      </trkpt>
      <trkpt lat="48.65507" lon="-1.35319">
        <ele>26.6</ele>
        <time>2022-08-27T14:02:17Z</time>
      </trkpt>
      <trkpt lat="48.65503" lon="-1.35313">
        <ele>26.6</ele>
        <time>2022-08-27T14:02:18Z</time>
      </trkpt>
      <trkpt lat="48.65498" lon="-1.35309">
        <ele>26.6</ele>
        <time>2022-08-27T14:02:19Z</time>
      </trkpt>
      <trkpt lat="48.65492" lon="-1.35307">
        <ele>26.8</ele>
        <time>2022-08-27T14:02:20Z</time>
      </trkpt>
      <trkpt lat="48.65487" lon="-1.35305">
        <ele>26.8</ele>
        <time>2022-08-27T14:02:21Z</time>
      </trkpt>
      <trkpt lat="48.65455" lon="-1.353">
        <ele>26.8</ele>
        <time>2022-08-27T14:02:26Z</time>
      </trkpt>
      <trkpt lat="48.65407" lon="-1.35296">
        <ele>26.6</ele>
        <time>2022-08-27T14:02:33Z</time>
      </trkpt>
      <trkpt lat="48.65361" lon="-1.35288">
        <ele>25.8</ele>
        <time>2022-08-27T14:02:39Z</time>
      </trkpt>
      <trkpt lat="48.6531" lon="-1.35267">
        <ele>25</ele>
        <time>2022-08-27T14:02:45Z</time>
      </trkpt>
      <trkpt lat="48.65257" lon="-1.35236">
        <ele>24</ele>
        <time>2022-08-27T14:02:51Z</time>
      </trkpt>
      <trkpt lat="48.6523" lon="-1.35219">
        <ele>23.6</ele>
        <time>2022-08-27T14:02:54Z</time>
      </trkpt>
      <trkpt lat="48.65188" lon="-1.35184">
        <ele>22.8</ele>
        <time>2022-08-27T14:02:59Z</time>
      </trkpt>
      <trkpt lat="48.6514" lon="-1.35124">
        <ele>21.6</ele>
        <time>2022-08-27T14:03:05Z</time>
      </trkpt>
      <trkpt lat="48.6511" lon="-1.35063">
        <ele>20.4</ele>
        <time>2022-08-27T14:03:10Z</time>
      </trkpt>
      <trkpt lat="48.65083" lon="-1.34998">
        <ele>19.2</ele>
        <time>2022-08-27T14:03:16Z</time>
      </trkpt>
      <trkpt lat="48.65078" lon="-1.34991">
        <ele>19.2</ele>
        <time>2022-08-27T14:03:17Z</time>
      </trkpt>
      <trkpt lat="48.65065" lon="-1.34982">
        <ele>19</ele>
        <time>2022-08-27T14:03:19Z</time>
      </trkpt>
      <trkpt lat="48.65053" lon="-1.34986">
        <ele>18.8</ele>
        <time>2022-08-27T14:03:21Z</time>
      </trkpt>
      <trkpt lat="48.65047" lon="-1.34991">
        <ele>18.6</ele>
        <time>2022-08-27T14:03:22Z</time>
      </trkpt>
      <trkpt lat="48.65035" lon="-1.35002">
        <ele>18.6</ele>
        <time>2022-08-27T14:03:24Z</time>
      </trkpt>
      <trkpt lat="48.65022" lon="-1.35003">
        <ele>18.4</ele>
        <time>2022-08-27T14:03:26Z</time>
      </trkpt>
      <trkpt lat="48.65012" lon="-1.34992">
        <ele>18.4</ele>
        <time>2022-08-27T14:03:28Z</time>
      </trkpt>
      <trkpt lat="48.65009" lon="-1.34983">
        <ele>18.2</ele>
        <time>2022-08-27T14:03:29Z</time>
      </trkpt>
      <trkpt lat="48.65009" lon="-1.34974">
        <ele>18.2</ele>
        <time>2022-08-27T14:03:30Z</time>
      </trkpt>
      <trkpt lat="48.65012" lon="-1.34954">
        <ele>18</ele>
        <time>2022-08-27T14:03:32Z</time>
      </trkpt>
      <trkpt lat="48.65019" lon="-1.34938">
        <ele>17.8</ele>
        <time>2022-08-27T14:03:34Z</time>
      </trkpt>
      <trkpt lat="48.65021" lon="-1.34929">
        <ele>17.6</ele>
        <time>2022-08-27T14:03:35Z</time>
      </trkpt>
      <trkpt lat="48.65026" lon="-1.34901">
        <ele>17.2</ele>
        <time>2022-08-27T14:03:38Z</time>
      </trkpt>
      <trkpt lat="48.65026" lon="-1.34882">
        <ele>17.2</ele>
        <time>2022-08-27T14:03:40Z</time>
      </trkpt>
      <trkpt lat="48.65017" lon="-1.34848">
        <ele>17</ele>
        <time>2022-08-27T14:03:44Z</time>
      </trkpt>
      <trkpt lat="48.64987" lon="-1.34771">
        <ele>16.6</ele>
        <time>2022-08-27T14:03:54Z</time>
      </trkpt>
      <trkpt lat="48.64985" lon="-1.34763">
        <ele>16.6</ele>
        <time>2022-08-27T14:03:55Z</time>
      </trkpt>
      <trkpt lat="48.64977" lon="-1.34722">
        <ele>16.4</ele>
        <time>2022-08-27T14:04:00Z</time>
      </trkpt>
      <trkpt lat="48.64975" lon="-1.3468">
        <ele>16.2</ele>
        <time>2022-08-27T14:04:06Z</time>
      </trkpt>
      <trkpt lat="48.64973" lon="-1.34674">
        <ele>16.2</ele>
        <time>2022-08-27T14:04:08Z</time>
      </trkpt>
      <trkpt lat="48.64974" lon="-1.34671">
        <ele>16.2</ele>
        <time>2022-08-27T14:04:10Z</time>
      </trkpt>
      <trkpt lat="48.64974" lon="-1.34671">
        <ele>16</ele>
        <time>2022-08-27T14:04:11Z</time>
      </trkpt>
      <trkpt lat="48.64975" lon="-1.34667">
        <ele>16.8</ele>
        <time>2022-08-27T14:13:03Z</time>
      </trkpt>
      <trkpt lat="48.64976" lon="-1.3466">
        <ele>16.6</ele>
        <time>2022-08-27T14:13:05Z</time>
      </trkpt>
      <trkpt lat="48.64978" lon="-1.34632">
        <ele>16.4</ele>
        <time>2022-08-27T14:13:10Z</time>
      </trkpt>
      <trkpt lat="48.6498" lon="-1.34607">
        <ele>16.4</ele>
        <time>2022-08-27T14:13:14Z</time>
      </trkpt>
      <trkpt lat="48.6498" lon="-1.3459">
        <ele>16.4</ele>
        <time>2022-08-27T14:13:17Z</time>
      </trkpt>
      <trkpt lat="48.64974" lon="-1.34572">
        <ele>16.4</ele>
        <time>2022-08-27T14:13:21Z</time>
      </trkpt>
      <trkpt lat="48.64973" lon="-1.34566">
        <ele>16.4</ele>
        <time>2022-08-27T14:13:22Z</time>
      </trkpt>
      <trkpt lat="48.64971" lon="-1.34554">
        <ele>16.4</ele>
        <time>2022-08-27T14:13:24Z</time>
      </trkpt>
      <trkpt lat="48.64972" lon="-1.34547">
        <ele>16.4</ele>
        <time>2022-08-27T14:13:25Z</time>
      </trkpt>
      <trkpt lat="48.64974" lon="-1.34541">
        <ele>16.4</ele>
        <time>2022-08-27T14:13:26Z</time>
      </trkpt>
      <trkpt lat="48.64979" lon="-1.3453">
        <ele>16.4</ele>
        <time>2022-08-27T14:13:28Z</time>
      </trkpt>
      <trkpt lat="48.64981" lon="-1.34524">
        <ele>16.4</ele>
        <time>2022-08-27T14:13:29Z</time>
      </trkpt>
      <trkpt lat="48.64983" lon="-1.34517">
        <ele>16.4</ele>
        <time>2022-08-27T14:13:30Z</time>
      </trkpt>
      <trkpt lat="48.64986" lon="-1.3449">
        <ele>16.4</ele>
        <time>2022-08-27T14:13:34Z</time>
      </trkpt>
      <trkpt lat="48.64988" lon="-1.34466">
        <ele>16.6</ele>
        <time>2022-08-27T14:13:38Z</time>
      </trkpt>
      <trkpt lat="48.6499" lon="-1.3444">
        <ele>16.4</ele>
        <time>2022-08-27T14:13:42Z</time>
      </trkpt>
      <trkpt lat="48.64991" lon="-1.34399">
        <ele>16.8</ele>
        <time>2022-08-27T14:13:48Z</time>
      </trkpt>
      <trkpt lat="48.64992" lon="-1.34385">
        <ele>16.8</ele>
        <time>2022-08-27T14:13:50Z</time>
      </trkpt>
      <trkpt lat="48.6499" lon="-1.34335">
        <ele>17</ele>
        <time>2022-08-27T14:13:57Z</time>
      </trkpt>
      <trkpt lat="48.64986" lon="-1.34294">
        <ele>17.2</ele>
        <time>2022-08-27T14:14:03Z</time>
      </trkpt>
      <trkpt lat="48.64986" lon="-1.34287">
        <ele>17.4</ele>
        <time>2022-08-27T14:14:04Z</time>
      </trkpt>
      <trkpt lat="48.64978" lon="-1.34237">
        <ele>17.8</ele>
        <time>2022-08-27T14:14:12Z</time>
      </trkpt>
      <trkpt lat="48.64967" lon="-1.34196">
        <ele>18.4</ele>
        <time>2022-08-27T14:14:19Z</time>
      </trkpt>
      <trkpt lat="48.64952" lon="-1.34144">
        <ele>19</ele>
        <time>2022-08-27T14:14:28Z</time>
      </trkpt>
      <trkpt lat="48.64935" lon="-1.34087">
        <ele>19.8</ele>
        <time>2022-08-27T14:14:37Z</time>
      </trkpt>
      <trkpt lat="48.64918" lon="-1.34034">
        <ele>20.2</ele>
        <time>2022-08-27T14:14:45Z</time>
      </trkpt>
      <trkpt lat="48.64894" lon="-1.33981">
        <ele>20.8</ele>
        <time>2022-08-27T14:14:53Z</time>
      </trkpt>
      <trkpt lat="48.64866" lon="-1.33933">
        <ele>21</ele>
        <time>2022-08-27T14:15:00Z</time>
      </trkpt>
      <trkpt lat="48.64829" lon="-1.33881">
        <ele>21.4</ele>
        <time>2022-08-27T14:15:08Z</time>
      </trkpt>
      <trkpt lat="48.64793" lon="-1.33836">
        <ele>21.6</ele>
        <time>2022-08-27T14:15:15Z</time>
      </trkpt>
      <trkpt lat="48.64759" lon="-1.33812">
        <ele>21.4</ele>
        <time>2022-08-27T14:15:20Z</time>
      </trkpt>
      <trkpt lat="48.64706" lon="-1.33778">
        <ele>21</ele>
        <time>2022-08-27T14:15:27Z</time>
      </trkpt>
      <trkpt lat="48.64697" lon="-1.33774">
        <ele>21</ele>
        <time>2022-08-27T14:15:28Z</time>
      </trkpt>
      <trkpt lat="48.64642" lon="-1.33739">
        <ele>20.8</ele>
        <time>2022-08-27T14:15:35Z</time>
      </trkpt>
      <trkpt lat="48.64635" lon="-1.33735">
        <ele>20.8</ele>
        <time>2022-08-27T14:15:36Z</time>
      </trkpt>
      <trkpt lat="48.64599" lon="-1.337">
        <ele>21</ele>
        <time>2022-08-27T14:15:42Z</time>
      </trkpt>
      <trkpt lat="48.64577" lon="-1.33665">
        <ele>21.6</ele>
        <time>2022-08-27T14:15:47Z</time>
      </trkpt>
      <trkpt lat="48.64555" lon="-1.33621">
        <ele>22.2</ele>
        <time>2022-08-27T14:15:53Z</time>
      </trkpt>
      <trkpt lat="48.64534" lon="-1.33567">
        <ele>22.8</ele>
        <time>2022-08-27T14:16:00Z</time>
      </trkpt>
      <trkpt lat="48.64508" lon="-1.33502">
        <ele>23.2</ele>
        <time>2022-08-27T14:16:09Z</time>
      </trkpt>
      <trkpt lat="48.64487" lon="-1.33442">
        <ele>24</ele>
        <time>2022-08-27T14:16:17Z</time>
      </trkpt>
      <trkpt lat="48.64474" lon="-1.33379">
        <ele>24.6</ele>
        <time>2022-08-27T14:16:25Z</time>
      </trkpt>
      <trkpt lat="48.64471" lon="-1.33347">
        <ele>24.8</ele>
        <time>2022-08-27T14:16:29Z</time>
      </trkpt>
      <trkpt lat="48.64469" lon="-1.33324">
        <ele>25.2</ele>
        <time>2022-08-27T14:16:32Z</time>
      </trkpt>
      <trkpt lat="48.64467" lon="-1.33254">
        <ele>25.8</ele>
        <time>2022-08-27T14:16:41Z</time>
      </trkpt>
      <trkpt lat="48.64463" lon="-1.33174">
        <ele>26.4</ele>
        <time>2022-08-27T14:16:51Z</time>
      </trkpt>
      <trkpt lat="48.64455" lon="-1.33119">
        <ele>27</ele>
        <time>2022-08-27T14:16:58Z</time>
      </trkpt>
      <trkpt lat="48.64437" lon="-1.33065">
        <ele>27.8</ele>
        <time>2022-08-27T14:17:06Z</time>
      </trkpt>
      <trkpt lat="48.64419" lon="-1.33025">
        <ele>28.2</ele>
        <time>2022-08-27T14:17:13Z</time>
      </trkpt>
      <trkpt lat="48.6441" lon="-1.33005">
        <ele>28.6</ele>
        <time>2022-08-27T14:17:17Z</time>
      </trkpt>
      <trkpt lat="48.64403" lon="-1.32988">
        <ele>28.8</ele>
        <time>2022-08-27T14:17:20Z</time>
      </trkpt>
      <trkpt lat="48.64391" lon="-1.32945">
        <ele>29.4</ele>
        <time>2022-08-27T14:17:27Z</time>
      </trkpt>
      <trkpt lat="48.64384" lon="-1.32888">
        <ele>30.2</ele>
        <time>2022-08-27T14:17:35Z</time>
      </trkpt>
      <trkpt lat="48.6439" lon="-1.32822">
        <ele>31</ele>
        <time>2022-08-27T14:17:44Z</time>
      </trkpt>
      <trkpt lat="48.64404" lon="-1.32775">
        <ele>31.6</ele>
        <time>2022-08-27T14:17:51Z</time>
      </trkpt>
      <trkpt lat="48.64426" lon="-1.32721">
        <ele>32.2</ele>
        <time>2022-08-27T14:17:59Z</time>
      </trkpt>
      <trkpt lat="48.64447" lon="-1.32667">
        <ele>33</ele>
        <time>2022-08-27T14:18:07Z</time>
      </trkpt>
      <trkpt lat="48.64467" lon="-1.32599">
        <ele>33.8</ele>
        <time>2022-08-27T14:18:17Z</time>
      </trkpt>
      <trkpt lat="48.6447" lon="-1.32586">
        <ele>34</ele>
        <time>2022-08-27T14:18:19Z</time>
      </trkpt>
      <trkpt lat="48.64478" lon="-1.32558">
        <ele>34.2</ele>
        <time>2022-08-27T14:18:23Z</time>
      </trkpt>
      <trkpt lat="48.64494" lon="-1.32503">
        <ele>35.2</ele>
        <time>2022-08-27T14:18:32Z</time>
      </trkpt>
      <trkpt lat="48.64508" lon="-1.3245">
        <ele>36.2</ele>
        <time>2022-08-27T14:18:41Z</time>
      </trkpt>
      <trkpt lat="48.64519" lon="-1.32411">
        <ele>37</ele>
        <time>2022-08-27T14:18:48Z</time>
      </trkpt>
      <trkpt lat="48.64531" lon="-1.32368">
        <ele>38</ele>
        <time>2022-08-27T14:18:56Z</time>
      </trkpt>
      <trkpt lat="48.64542" lon="-1.32326">
        <ele>38.8</ele>
        <time>2022-08-27T14:19:04Z</time>
      </trkpt>
      <trkpt lat="48.64553" lon="-1.32287">
        <ele>39.8</ele>
        <time>2022-08-27T14:19:12Z</time>
      </trkpt>
      <trkpt lat="48.64562" lon="-1.32254">
        <ele>40.6</ele>
        <time>2022-08-27T14:19:19Z</time>
      </trkpt>
      <trkpt lat="48.64573" lon="-1.32218">
        <ele>41.8</ele>
        <time>2022-08-27T14:19:28Z</time>
      </trkpt>
      <trkpt lat="48.64587" lon="-1.32182">
        <ele>43.2</ele>
        <time>2022-08-27T14:19:38Z</time>
      </trkpt>
      <trkpt lat="48.64599" lon="-1.32154">
        <ele>44.6</ele>
        <time>2022-08-27T14:19:46Z</time>
      </trkpt>
      <trkpt lat="48.64611" lon="-1.32129">
        <ele>45.8</ele>
        <time>2022-08-27T14:19:54Z</time>
      </trkpt>
      <trkpt lat="48.64621" lon="-1.32102">
        <ele>47</ele>
        <time>2022-08-27T14:20:02Z</time>
      </trkpt>
      <trkpt lat="48.64631" lon="-1.32068">
        <ele>48.2</ele>
        <time>2022-08-27T14:20:11Z</time>
      </trkpt>
      <trkpt lat="48.64638" lon="-1.32032">
        <ele>49.2</ele>
        <time>2022-08-27T14:20:20Z</time>
      </trkpt>
      <trkpt lat="48.64646" lon="-1.31992">
        <ele>50.6</ele>
        <time>2022-08-27T14:20:30Z</time>
      </trkpt>
      <trkpt lat="48.64651" lon="-1.31956">
        <ele>51.8</ele>
        <time>2022-08-27T14:20:39Z</time>
      </trkpt>
      <trkpt lat="48.64657" lon="-1.31919">
        <ele>53</ele>
        <time>2022-08-27T14:20:48Z</time>
      </trkpt>
      <trkpt lat="48.64663" lon="-1.31879">
        <ele>54.2</ele>
        <time>2022-08-27T14:20:57Z</time>
      </trkpt>
      <trkpt lat="48.64671" lon="-1.31838">
        <ele>55.8</ele>
        <time>2022-08-27T14:21:06Z</time>
      </trkpt>
      <trkpt lat="48.64676" lon="-1.31797">
        <ele>57.2</ele>
        <time>2022-08-27T14:21:15Z</time>
      </trkpt>
      <trkpt lat="48.64681" lon="-1.31767">
        <ele>58.2</ele>
        <time>2022-08-27T14:21:22Z</time>
      </trkpt>
      <trkpt lat="48.64691" lon="-1.31735">
        <ele>60.2</ele>
        <time>2022-08-27T14:21:30Z</time>
      </trkpt>
      <trkpt lat="48.64701" lon="-1.31704">
        <ele>61.8</ele>
        <time>2022-08-27T14:21:37Z</time>
      </trkpt>
      <trkpt lat="48.64704" lon="-1.31679">
        <ele>62.4</ele>
        <time>2022-08-27T14:21:42Z</time>
      </trkpt>
      <trkpt lat="48.64701" lon="-1.31675">
        <ele>62.4</ele>
        <time>2022-08-27T14:21:43Z</time>
      </trkpt>
      <trkpt lat="48.64688" lon="-1.31665">
        <ele>62.6</ele>
        <time>2022-08-27T14:21:47Z</time>
      </trkpt>
      <trkpt lat="48.64684" lon="-1.3166">
        <ele>62.6</ele>
        <time>2022-08-27T14:21:48Z</time>
      </trkpt>
      <trkpt lat="48.64678" lon="-1.31646">
        <ele>62.6</ele>
        <time>2022-08-27T14:21:50Z</time>
      </trkpt>
      <trkpt lat="48.64672" lon="-1.3162">
        <ele>62.6</ele>
        <time>2022-08-27T14:21:53Z</time>
      </trkpt>
      <trkpt lat="48.64671" lon="-1.31611">
        <ele>62.8</ele>
        <time>2022-08-27T14:21:54Z</time>
      </trkpt>
      <trkpt lat="48.64672" lon="-1.31603">
        <ele>62.8</ele>
        <time>2022-08-27T14:21:55Z</time>
      </trkpt>
      <trkpt lat="48.64676" lon="-1.31587">
        <ele>62.8</ele>
        <time>2022-08-27T14:21:57Z</time>
      </trkpt>
      <trkpt lat="48.6468" lon="-1.31571">
        <ele>62.8</ele>
        <time>2022-08-27T14:21:59Z</time>
      </trkpt>
      <trkpt lat="48.64681" lon="-1.31557">
        <ele>62.8</ele>
        <time>2022-08-27T14:22:01Z</time>
      </trkpt>
      <trkpt lat="48.64676" lon="-1.31548">
        <ele>62.8</ele>
        <time>2022-08-27T14:22:03Z</time>
      </trkpt>
      <trkpt lat="48.64672" lon="-1.31545">
        <ele>62.8</ele>
        <time>2022-08-27T14:22:04Z</time>
      </trkpt>
      <trkpt lat="48.64668" lon="-1.31542">
        <ele>62.8</ele>
        <time>2022-08-27T14:22:05Z</time>
      </trkpt>
      <trkpt lat="48.64647" lon="-1.31526">
        <ele>62.8</ele>
        <time>2022-08-27T14:22:09Z</time>
      </trkpt>
      <trkpt lat="48.64635" lon="-1.31515">
        <ele>62.8</ele>
        <time>2022-08-27T14:22:11Z</time>
      </trkpt>
      <trkpt lat="48.64624" lon="-1.31502">
        <ele>62.4</ele>
        <time>2022-08-27T14:22:13Z</time>
      </trkpt>
      <trkpt lat="48.64604" lon="-1.31465">
        <ele>61.8</ele>
        <time>2022-08-27T14:22:18Z</time>
      </trkpt>
      <trkpt lat="48.64577" lon="-1.31414">
        <ele>61</ele>
        <time>2022-08-27T14:22:24Z</time>
      </trkpt>
      <trkpt lat="48.64553" lon="-1.31366">
        <ele>60</ele>
        <time>2022-08-27T14:22:29Z</time>
      </trkpt>
      <trkpt lat="48.64525" lon="-1.31318">
        <ele>59.2</ele>
        <time>2022-08-27T14:22:34Z</time>
      </trkpt>
      <trkpt lat="48.64519" lon="-1.3131">
        <ele>59</ele>
        <time>2022-08-27T14:22:35Z</time>
      </trkpt>
      <trkpt lat="48.64487" lon="-1.31281">
        <ele>58.4</ele>
        <time>2022-08-27T14:22:39Z</time>
      </trkpt>
      <trkpt lat="48.6445" lon="-1.31243">
        <ele>57.4</ele>
        <time>2022-08-27T14:22:44Z</time>
      </trkpt>
      <trkpt lat="48.64406" lon="-1.31188">
        <ele>56</ele>
        <time>2022-08-27T14:22:50Z</time>
      </trkpt>
      <trkpt lat="48.64398" lon="-1.31178">
        <ele>55.8</ele>
        <time>2022-08-27T14:22:51Z</time>
      </trkpt>
      <trkpt lat="48.64392" lon="-1.31167">
        <ele>55.4</ele>
        <time>2022-08-27T14:22:52Z</time>
      </trkpt>
      <trkpt lat="48.6438" lon="-1.31141">
        <ele>54.8</ele>
        <time>2022-08-27T14:22:54Z</time>
      </trkpt>
      <trkpt lat="48.64374" lon="-1.31128">
        <ele>54.6</ele>
        <time>2022-08-27T14:22:55Z</time>
      </trkpt>
      <trkpt lat="48.64359" lon="-1.31105">
        <ele>54</ele>
        <time>2022-08-27T14:22:57Z</time>
      </trkpt>
      <trkpt lat="48.64319" lon="-1.31068">
        <ele>52.6</ele>
        <time>2022-08-27T14:23:01Z</time>
      </trkpt>
      <trkpt lat="48.64263" lon="-1.31023">
        <ele>50.6</ele>
        <time>2022-08-27T14:23:06Z</time>
      </trkpt>
      <trkpt lat="48.64242" lon="-1.31001">
        <ele>49.8</ele>
        <time>2022-08-27T14:23:08Z</time>
      </trkpt>
      <trkpt lat="48.64209" lon="-1.30947">
        <ele>48.6</ele>
        <time>2022-08-27T14:23:12Z</time>
      </trkpt>
      <trkpt lat="48.64193" lon="-1.30915">
        <ele>48.4</ele>
        <time>2022-08-27T14:23:15Z</time>
      </trkpt>
      <trkpt lat="48.64173" lon="-1.30875">
        <ele>48</ele>
        <time>2022-08-27T14:23:20Z</time>
      </trkpt>
      <trkpt lat="48.64154" lon="-1.30837">
        <ele>47.6</ele>
        <time>2022-08-27T14:23:26Z</time>
      </trkpt>
      <trkpt lat="48.64128" lon="-1.30793">
        <ele>47</ele>
        <time>2022-08-27T14:23:34Z</time>
      </trkpt>
      <trkpt lat="48.64103" lon="-1.3076">
        <ele>46.4</ele>
        <time>2022-08-27T14:23:41Z</time>
      </trkpt>
      <trkpt lat="48.64082" lon="-1.3073">
        <ele>46.2</ele>
        <time>2022-08-27T14:23:48Z</time>
      </trkpt>
      <trkpt lat="48.64078" lon="-1.30725">
        <ele>46.2</ele>
        <time>2022-08-27T14:23:49Z</time>
      </trkpt>
      <trkpt lat="48.64056" lon="-1.30695">
        <ele>45.8</ele>
        <time>2022-08-27T14:23:56Z</time>
      </trkpt>
      <trkpt lat="48.6405" lon="-1.30686">
        <ele>45.8</ele>
        <time>2022-08-27T14:23:58Z</time>
      </trkpt>
      <trkpt lat="48.64043" lon="-1.30669">
        <ele>45.6</ele>
        <time>2022-08-27T14:24:01Z</time>
      </trkpt>
      <trkpt lat="48.64041" lon="-1.30663">
        <ele>45.6</ele>
        <time>2022-08-27T14:24:02Z</time>
      </trkpt>
      <trkpt lat="48.64032" lon="-1.30616">
        <ele>45.4</ele>
        <time>2022-08-27T14:24:09Z</time>
      </trkpt>
      <trkpt lat="48.64024" lon="-1.30562">
        <ele>45.2</ele>
        <time>2022-08-27T14:24:17Z</time>
      </trkpt>
      <trkpt lat="48.64014" lon="-1.30504">
        <ele>45</ele>
        <time>2022-08-27T14:24:25Z</time>
      </trkpt>
      <trkpt lat="48.64001" lon="-1.30451">
        <ele>44.6</ele>
        <time>2022-08-27T14:24:32Z</time>
      </trkpt>
      <trkpt lat="48.63987" lon="-1.30409">
        <ele>44.2</ele>
        <time>2022-08-27T14:24:38Z</time>
      </trkpt>
      <trkpt lat="48.63965" lon="-1.30354">
        <ele>44</ele>
        <time>2022-08-27T14:24:47Z</time>
      </trkpt>
      <trkpt lat="48.63954" lon="-1.30322">
        <ele>43.6</ele>
        <time>2022-08-27T14:24:53Z</time>
      </trkpt>
      <trkpt lat="48.63956" lon="-1.30311">
        <ele>44.2</ele>
        <time>2022-08-27T14:24:55Z</time>
      </trkpt>
      <trkpt lat="48.63958" lon="-1.30306">
        <ele>44.4</ele>
        <time>2022-08-27T14:24:56Z</time>
      </trkpt>
      <trkpt lat="48.63978" lon="-1.30268">
        <ele>44.8</ele>
        <time>2022-08-27T14:25:04Z</time>
      </trkpt>
      <trkpt lat="48.63987" lon="-1.30235">
        <ele>45</ele>
        <time>2022-08-27T14:25:10Z</time>
      </trkpt>
      <trkpt lat="48.63987" lon="-1.30193">
        <ele>45.4</ele>
        <time>2022-08-27T14:25:17Z</time>
      </trkpt>
      <trkpt lat="48.63984" lon="-1.3014">
        <ele>46</ele>
        <time>2022-08-27T14:25:26Z</time>
      </trkpt>
      <trkpt lat="48.63981" lon="-1.30087">
        <ele>46.6</ele>
        <time>2022-08-27T14:25:35Z</time>
      </trkpt>
      <trkpt lat="48.63979" lon="-1.30057">
        <ele>46.6</ele>
        <time>2022-08-27T14:25:40Z</time>
      </trkpt>
      <trkpt lat="48.63979" lon="-1.30051">
        <ele>46.6</ele>
        <time>2022-08-27T14:25:41Z</time>
      </trkpt>
      <trkpt lat="48.63977" lon="-1.30026">
        <ele>46.6</ele>
        <time>2022-08-27T14:25:45Z</time>
      </trkpt>
      <trkpt lat="48.63975" lon="-1.30014">
        <ele>46.6</ele>
        <time>2022-08-27T14:25:47Z</time>
      </trkpt>
      <trkpt lat="48.63973" lon="-1.30001">
        <ele>46.6</ele>
        <time>2022-08-27T14:25:49Z</time>
      </trkpt>
      <trkpt lat="48.63973" lon="-1.29995">
        <ele>46.4</ele>
        <time>2022-08-27T14:25:50Z</time>
      </trkpt>
      <trkpt lat="48.63974" lon="-1.29982">
        <ele>46.4</ele>
        <time>2022-08-27T14:25:52Z</time>
      </trkpt>
      <trkpt lat="48.63986" lon="-1.29962">
        <ele>47.2</ele>
        <time>2022-08-27T14:25:55Z</time>
      </trkpt>
      <trkpt lat="48.63991" lon="-1.29903">
        <ele>48.2</ele>
        <time>2022-08-27T14:26:04Z</time>
      </trkpt>
      <trkpt lat="48.63997" lon="-1.2985">
        <ele>49.2</ele>
        <time>2022-08-27T14:26:13Z</time>
      </trkpt>
      <trkpt lat="48.64004" lon="-1.29794">
        <ele>50.4</ele>
        <time>2022-08-27T14:26:24Z</time>
      </trkpt>
      <trkpt lat="48.64008" lon="-1.29752">
        <ele>51.4</ele>
        <time>2022-08-27T14:26:32Z</time>
      </trkpt>
      <trkpt lat="48.64012" lon="-1.29705">
        <ele>52.4</ele>
        <time>2022-08-27T14:26:41Z</time>
      </trkpt>
      <trkpt lat="48.64015" lon="-1.29663">
        <ele>53</ele>
        <time>2022-08-27T14:26:48Z</time>
      </trkpt>
      <trkpt lat="48.64018" lon="-1.29624">
        <ele>53.6</ele>
        <time>2022-08-27T14:26:54Z</time>
      </trkpt>
      <trkpt lat="48.64018" lon="-1.29618">
        <ele>53.8</ele>
        <time>2022-08-27T14:26:55Z</time>
      </trkpt>
      <trkpt lat="48.64021" lon="-1.29558">
        <ele>54.6</ele>
        <time>2022-08-27T14:27:04Z</time>
      </trkpt>
      <trkpt lat="48.64023" lon="-1.29496">
        <ele>55.6</ele>
        <time>2022-08-27T14:27:13Z</time>
      </trkpt>
      <trkpt lat="48.64024" lon="-1.29443">
        <ele>56.2</ele>
        <time>2022-08-27T14:27:20Z</time>
      </trkpt>
      <trkpt lat="48.64025" lon="-1.29392">
        <ele>56.6</ele>
        <time>2022-08-27T14:27:27Z</time>
      </trkpt>
      <trkpt lat="48.64026" lon="-1.29358">
        <ele>56.8</ele>
        <time>2022-08-27T14:27:32Z</time>
      </trkpt>
      <trkpt lat="48.64024" lon="-1.29311">
        <ele>57</ele>
        <time>2022-08-27T14:27:38Z</time>
      </trkpt>
      <trkpt lat="48.64021" lon="-1.29236">
        <ele>57.2</ele>
        <time>2022-08-27T14:27:47Z</time>
      </trkpt>
      <trkpt lat="48.64019" lon="-1.29168">
        <ele>57</ele>
        <time>2022-08-27T14:27:54Z</time>
      </trkpt>
      <trkpt lat="48.64015" lon="-1.29101">
        <ele>56.4</ele>
        <time>2022-08-27T14:28:00Z</time>
      </trkpt>
      <trkpt lat="48.64006" lon="-1.29034">
        <ele>55.8</ele>
        <time>2022-08-27T14:28:05Z</time>
      </trkpt>
      <trkpt lat="48.63992" lon="-1.28964">
        <ele>54.8</ele>
        <time>2022-08-27T14:28:10Z</time>
      </trkpt>
      <trkpt lat="48.63966" lon="-1.28894">
        <ele>53.2</ele>
        <time>2022-08-27T14:28:15Z</time>
      </trkpt>
      <trkpt lat="48.63939" lon="-1.28817">
        <ele>51.6</ele>
        <time>2022-08-27T14:28:20Z</time>
      </trkpt>
      <trkpt lat="48.63915" lon="-1.28753">
        <ele>50</ele>
        <time>2022-08-27T14:28:24Z</time>
      </trkpt>
      <trkpt lat="48.63906" lon="-1.2874">
        <ele>49.8</ele>
        <time>2022-08-27T14:28:25Z</time>
      </trkpt>
      <trkpt lat="48.6388" lon="-1.28712">
        <ele>49.2</ele>
        <time>2022-08-27T14:28:28Z</time>
      </trkpt>
      <trkpt lat="48.63855" lon="-1.28681">
        <ele>49.2</ele>
        <time>2022-08-27T14:28:32Z</time>
      </trkpt>
      <trkpt lat="48.63843" lon="-1.28662">
        <ele>49.2</ele>
        <time>2022-08-27T14:28:35Z</time>
      </trkpt>
      <trkpt lat="48.63838" lon="-1.28649">
        <ele>49.2</ele>
        <time>2022-08-27T14:28:37Z</time>
      </trkpt>
      <trkpt lat="48.63836" lon="-1.28642">
        <ele>49.2</ele>
        <time>2022-08-27T14:28:38Z</time>
      </trkpt>
      <trkpt lat="48.63833" lon="-1.28628">
        <ele>49</ele>
        <time>2022-08-27T14:28:40Z</time>
      </trkpt>
      <trkpt lat="48.63832" lon="-1.28614">
        <ele>49</ele>
        <time>2022-08-27T14:28:42Z</time>
      </trkpt>
      <trkpt lat="48.63832" lon="-1.28602">
        <ele>48.8</ele>
        <time>2022-08-27T14:28:44Z</time>
      </trkpt>
      <trkpt lat="48.63835" lon="-1.28572">
        <ele>48.8</ele>
        <time>2022-08-27T14:28:49Z</time>
      </trkpt>
      <trkpt lat="48.63832" lon="-1.28533">
        <ele>48.4</ele>
        <time>2022-08-27T14:28:56Z</time>
      </trkpt>
      <trkpt lat="48.63826" lon="-1.28497">
        <ele>48.4</ele>
        <time>2022-08-27T14:29:04Z</time>
      </trkpt>
      <trkpt lat="48.6382" lon="-1.28469">
        <ele>48.8</ele>
        <time>2022-08-27T14:29:11Z</time>
      </trkpt>
      <trkpt lat="48.63811" lon="-1.28437">
        <ele>49</ele>
        <time>2022-08-27T14:29:19Z</time>
      </trkpt>
      <trkpt lat="48.638" lon="-1.28405">
        <ele>49.2</ele>
        <time>2022-08-27T14:29:27Z</time>
      </trkpt>
      <trkpt lat="48.63786" lon="-1.28369">
        <ele>49.4</ele>
        <time>2022-08-27T14:29:35Z</time>
      </trkpt>
      <trkpt lat="48.63763" lon="-1.2832">
        <ele>49.6</ele>
        <time>2022-08-27T14:29:44Z</time>
      </trkpt>
      <trkpt lat="48.63747" lon="-1.28273">
        <ele>49.6</ele>
        <time>2022-08-27T14:29:51Z</time>
      </trkpt>
      <trkpt lat="48.63732" lon="-1.28219">
        <ele>49.6</ele>
        <time>2022-08-27T14:29:58Z</time>
      </trkpt>
      <trkpt lat="48.63726" lon="-1.28202">
        <ele>49.6</ele>
        <time>2022-08-27T14:30:00Z</time>
      </trkpt>
      <trkpt lat="48.63717" lon="-1.28189">
        <ele>49.4</ele>
        <time>2022-08-27T14:30:02Z</time>
      </trkpt>
      <trkpt lat="48.63695" lon="-1.28181">
        <ele>49</ele>
        <time>2022-08-27T14:30:05Z</time>
      </trkpt>
      <trkpt lat="48.63683" lon="-1.28165">
        <ele>48.8</ele>
        <time>2022-08-27T14:30:07Z</time>
      </trkpt>
      <trkpt lat="48.63678" lon="-1.28155">
        <ele>48.6</ele>
        <time>2022-08-27T14:30:08Z</time>
      </trkpt>
      <trkpt lat="48.63665" lon="-1.28121">
        <ele>48</ele>
        <time>2022-08-27T14:30:11Z</time>
      </trkpt>
      <trkpt lat="48.63654" lon="-1.28099">
        <ele>47.6</ele>
        <time>2022-08-27T14:30:13Z</time>
      </trkpt>
      <trkpt lat="48.63626" lon="-1.28059">
        <ele>46.4</ele>
        <time>2022-08-27T14:30:17Z</time>
      </trkpt>
      <trkpt lat="48.63613" lon="-1.28041">
        <ele>46</ele>
        <time>2022-08-27T14:30:19Z</time>
      </trkpt>
      <trkpt lat="48.63603" lon="-1.28018">
        <ele>45.4</ele>
        <time>2022-08-27T14:30:21Z</time>
      </trkpt>
      <trkpt lat="48.63585" lon="-1.27982">
        <ele>44.6</ele>
        <time>2022-08-27T14:30:24Z</time>
      </trkpt>
      <trkpt lat="48.63581" lon="-1.27968">
        <ele>44.4</ele>
        <time>2022-08-27T14:30:25Z</time>
      </trkpt>
      <trkpt lat="48.6358" lon="-1.27954">
        <ele>44.2</ele>
        <time>2022-08-27T14:30:26Z</time>
      </trkpt>
      <trkpt lat="48.63581" lon="-1.27926">
        <ele>43.8</ele>
        <time>2022-08-27T14:30:28Z</time>
      </trkpt>
      <trkpt lat="48.6358" lon="-1.27913">
        <ele>43.6</ele>
        <time>2022-08-27T14:30:29Z</time>
      </trkpt>
      <trkpt lat="48.63576" lon="-1.2789">
        <ele>43.4</ele>
        <time>2022-08-27T14:30:31Z</time>
      </trkpt>
      <trkpt lat="48.63565" lon="-1.27806">
        <ele>42.6</ele>
        <time>2022-08-27T14:30:39Z</time>
      </trkpt>
      <trkpt lat="48.63559" lon="-1.27731">
        <ele>42</ele>
        <time>2022-08-27T14:30:47Z</time>
      </trkpt>
      <trkpt lat="48.63555" lon="-1.27666">
        <ele>41.6</ele>
        <time>2022-08-27T14:30:55Z</time>
      </trkpt>
      <trkpt lat="48.63552" lon="-1.27607">
        <ele>41.6</ele>
        <time>2022-08-27T14:31:04Z</time>
      </trkpt>
      <trkpt lat="48.6355" lon="-1.27548">
        <ele>41.8</ele>
        <time>2022-08-27T14:31:14Z</time>
      </trkpt>
      <trkpt lat="48.63548" lon="-1.27487">
        <ele>42.2</ele>
        <time>2022-08-27T14:31:24Z</time>
      </trkpt>
      <trkpt lat="48.63545" lon="-1.27434">
        <ele>42.4</ele>
        <time>2022-08-27T14:31:32Z</time>
      </trkpt>
      <trkpt lat="48.63539" lon="-1.27395">
        <ele>42.6</ele>
        <time>2022-08-27T14:31:38Z</time>
      </trkpt>
      <trkpt lat="48.63522" lon="-1.27333">
        <ele>42.6</ele>
        <time>2022-08-27T14:31:47Z</time>
      </trkpt>
      <trkpt lat="48.63506" lon="-1.27268">
        <ele>42.6</ele>
        <time>2022-08-27T14:31:55Z</time>
      </trkpt>
      <trkpt lat="48.6349" lon="-1.27199">
        <ele>42.2</ele>
        <time>2022-08-27T14:32:02Z</time>
      </trkpt>
      <trkpt lat="48.63477" lon="-1.27136">
        <ele>41.6</ele>
        <time>2022-08-27T14:32:08Z</time>
      </trkpt>
      <trkpt lat="48.63471" lon="-1.27103">
        <ele>41</ele>
        <time>2022-08-27T14:32:11Z</time>
      </trkpt>
      <trkpt lat="48.6347" lon="-1.27079">
        <ele>40.6</ele>
        <time>2022-08-27T14:32:13Z</time>
      </trkpt>
      <trkpt lat="48.63475" lon="-1.27054">
        <ele>40</ele>
        <time>2022-08-27T14:32:15Z</time>
      </trkpt>
      <trkpt lat="48.6348" lon="-1.27041">
        <ele>39.8</ele>
        <time>2022-08-27T14:32:16Z</time>
      </trkpt>
      <trkpt lat="48.63504" lon="-1.26991">
        <ele>38.6</ele>
        <time>2022-08-27T14:32:20Z</time>
      </trkpt>
      <trkpt lat="48.63536" lon="-1.2695">
        <ele>37.4</ele>
        <time>2022-08-27T14:32:24Z</time>
      </trkpt>
      <trkpt lat="48.63574" lon="-1.26905">
        <ele>36.2</ele>
        <time>2022-08-27T14:32:29Z</time>
      </trkpt>
      <trkpt lat="48.63582" lon="-1.26898">
        <ele>36</ele>
        <time>2022-08-27T14:32:30Z</time>
      </trkpt>
      <trkpt lat="48.63624" lon="-1.26869">
        <ele>35.6</ele>
        <time>2022-08-27T14:32:36Z</time>
      </trkpt>
      <trkpt lat="48.63675" lon="-1.26831">
        <ele>34.8</ele>
        <time>2022-08-27T14:32:44Z</time>
      </trkpt>
      <trkpt lat="48.63718" lon="-1.26794">
        <ele>34</ele>
        <time>2022-08-27T14:32:52Z</time>
      </trkpt>
      <trkpt lat="48.63756" lon="-1.26759">
        <ele>33.6</ele>
        <time>2022-08-27T14:33:00Z</time>
      </trkpt>
      <trkpt lat="48.63777" lon="-1.26723">
        <ele>33.4</ele>
        <time>2022-08-27T14:33:06Z</time>
      </trkpt>
      <trkpt lat="48.63798" lon="-1.26682">
        <ele>33</ele>
        <time>2022-08-27T14:33:13Z</time>
      </trkpt>
      <trkpt lat="48.63821" lon="-1.26635">
        <ele>32.6</ele>
        <time>2022-08-27T14:33:20Z</time>
      </trkpt>
      <trkpt lat="48.63842" lon="-1.26587">
        <ele>31.8</ele>
        <time>2022-08-27T14:33:26Z</time>
      </trkpt>
      <trkpt lat="48.63873" lon="-1.26522">
        <ele>30.8</ele>
        <time>2022-08-27T14:33:33Z</time>
      </trkpt>
      <trkpt lat="48.63898" lon="-1.26488">
        <ele>29.8</ele>
        <time>2022-08-27T14:33:37Z</time>
      </trkpt>
      <trkpt lat="48.63903" lon="-1.26478">
        <ele>29.8</ele>
        <time>2022-08-27T14:33:38Z</time>
      </trkpt>
      <trkpt lat="48.63906" lon="-1.26466">
        <ele>29.6</ele>
        <time>2022-08-27T14:33:39Z</time>
      </trkpt>
      <trkpt lat="48.63913" lon="-1.26432">
        <ele>29.2</ele>
        <time>2022-08-27T14:33:42Z</time>
      </trkpt>
      <trkpt lat="48.63926" lon="-1.26362">
        <ele>28.8</ele>
        <time>2022-08-27T14:33:49Z</time>
      </trkpt>
      <trkpt lat="48.63922" lon="-1.26348">
        <ele>28.4</ele>
        <time>2022-08-27T14:33:51Z</time>
      </trkpt>
      <trkpt lat="48.63911" lon="-1.26342">
        <ele>28.2</ele>
        <time>2022-08-27T14:33:53Z</time>
      </trkpt>
      <trkpt lat="48.63905" lon="-1.26341">
        <ele>28.2</ele>
        <time>2022-08-27T14:33:54Z</time>
      </trkpt>
      <trkpt lat="48.63887" lon="-1.26334">
        <ele>27.6</ele>
        <time>2022-08-27T14:33:57Z</time>
      </trkpt>
      <trkpt lat="48.63875" lon="-1.26325">
        <ele>27.4</ele>
        <time>2022-08-27T14:33:59Z</time>
      </trkpt>
      <trkpt lat="48.63866" lon="-1.26308">
        <ele>26.8</ele>
        <time>2022-08-27T14:34:02Z</time>
      </trkpt>
      <trkpt lat="48.63873" lon="-1.26296">
        <ele>26.2</ele>
        <time>2022-08-27T14:34:05Z</time>
      </trkpt>
      <trkpt lat="48.63891" lon="-1.26279">
        <ele>25.4</ele>
        <time>2022-08-27T14:34:10Z</time>
      </trkpt>
      <trkpt lat="48.63901" lon="-1.26268">
        <ele>25</ele>
        <time>2022-08-27T14:34:14Z</time>
      </trkpt>
      <trkpt lat="48.63909" lon="-1.2626">
        <ele>24.8</ele>
        <time>2022-08-27T14:34:18Z</time>
      </trkpt>
      <trkpt lat="48.63918" lon="-1.26254">
        <ele>24.6</ele>
        <time>2022-08-27T14:34:23Z</time>
      </trkpt>
      <trkpt lat="48.63924" lon="-1.26249">
        <ele>24.2</ele>
        <time>2022-08-27T14:34:27Z</time>
      </trkpt>
      <trkpt lat="48.63926" lon="-1.26246">
        <ele>24.2</ele>
        <time>2022-08-27T14:34:29Z</time>
      </trkpt>
      <trkpt lat="48.63928" lon="-1.26244">
        <ele>24</ele>
        <time>2022-08-27T14:34:31Z</time>
      </trkpt>
      <trkpt lat="48.6393" lon="-1.26241">
        <ele>23.8</ele>
        <time>2022-08-27T14:34:34Z</time>
      </trkpt>
      <trkpt lat="48.63934" lon="-1.26239">
        <ele>23.6</ele>
        <time>2022-08-27T14:34:38Z</time>
      </trkpt>
      <trkpt lat="48.63936" lon="-1.26237">
        <ele>23.4</ele>
        <time>2022-08-27T14:34:40Z</time>
      </trkpt>
      <trkpt lat="48.63937" lon="-1.26237">
        <ele>23.4</ele>
        <time>2022-08-27T14:34:41Z</time>
      </trkpt>
      <trkpt lat="48.63939" lon="-1.26234">
        <ele>23.4</ele>
        <time>2022-08-27T14:34:44Z</time>
      </trkpt>
      <trkpt lat="48.63939" lon="-1.26234">
        <ele>23.2</ele>
        <time>2022-08-27T14:34:45Z</time>
      </trkpt>
      <trkpt lat="48.63935" lon="-1.26238">
        <ele>20</ele>
        <time>2022-08-27T14:40:01Z</time>
      </trkpt>
      <trkpt lat="48.63937" lon="-1.26234">
        <ele>20</ele>
        <time>2022-08-27T14:40:03Z</time>
      </trkpt>
      <trkpt lat="48.63951" lon="-1.26221">
        <ele>20</ele>
        <time>2022-08-27T14:40:09Z</time>
      </trkpt>
      <trkpt lat="48.63968" lon="-1.26205">
        <ele>20.2</ele>
        <time>2022-08-27T14:40:14Z</time>
      </trkpt>
      <trkpt lat="48.63972" lon="-1.26201">
        <ele>20.2</ele>
        <time>2022-08-27T14:40:15Z</time>
      </trkpt>
      <trkpt lat="48.63979" lon="-1.26194">
        <ele>20.2</ele>
        <time>2022-08-27T14:40:17Z</time>
      </trkpt>
      <trkpt lat="48.63991" lon="-1.26183">
        <ele>20.4</ele>
        <time>2022-08-27T14:40:20Z</time>
      </trkpt>
      <trkpt lat="48.64022" lon="-1.26152">
        <ele>20.4</ele>
        <time>2022-08-27T14:40:28Z</time>
      </trkpt>
      <trkpt lat="48.64043" lon="-1.26131">
        <ele>20.6</ele>
        <time>2022-08-27T14:40:33Z</time>
      </trkpt>
      <trkpt lat="48.6406" lon="-1.26112">
        <ele>20.4</ele>
        <time>2022-08-27T14:40:38Z</time>
      </trkpt>
      <trkpt lat="48.64064" lon="-1.26108">
        <ele>20.6</ele>
        <time>2022-08-27T14:40:39Z</time>
      </trkpt>
      <trkpt lat="48.64081" lon="-1.26092">
        <ele>20.2</ele>
        <time>2022-08-27T14:40:43Z</time>
      </trkpt>
      <trkpt lat="48.64084" lon="-1.26089">
        <ele>20.2</ele>
        <time>2022-08-27T14:40:44Z</time>
      </trkpt>
      <trkpt lat="48.64106" lon="-1.26068">
        <ele>20</ele>
        <time>2022-08-27T14:40:49Z</time>
      </trkpt>
      <trkpt lat="48.64127" lon="-1.26045">
        <ele>20</ele>
        <time>2022-08-27T14:40:54Z</time>
      </trkpt>
      <trkpt lat="48.6415" lon="-1.26016">
        <ele>20</ele>
        <time>2022-08-27T14:41:00Z</time>
      </trkpt>
      <trkpt lat="48.64164" lon="-1.25994">
        <ele>20</ele>
        <time>2022-08-27T14:41:04Z</time>
      </trkpt>
      <trkpt lat="48.64181" lon="-1.25966">
        <ele>19.8</ele>
        <time>2022-08-27T14:41:09Z</time>
      </trkpt>
      <trkpt lat="48.64187" lon="-1.25956">
        <ele>19.6</ele>
        <time>2022-08-27T14:41:11Z</time>
      </trkpt>
      <trkpt lat="48.6419" lon="-1.2595">
        <ele>19.6</ele>
        <time>2022-08-27T14:41:12Z</time>
      </trkpt>
      <trkpt lat="48.64193" lon="-1.25945">
        <ele>19.6</ele>
        <time>2022-08-27T14:41:13Z</time>
      </trkpt>
      <trkpt lat="48.64204" lon="-1.25925">
        <ele>19.6</ele>
        <time>2022-08-27T14:41:16Z</time>
      </trkpt>
      <trkpt lat="48.64226" lon="-1.2588">
        <ele>20</ele>
        <time>2022-08-27T14:41:22Z</time>
      </trkpt>
      <trkpt lat="48.64238" lon="-1.2585">
        <ele>20</ele>
        <time>2022-08-27T14:41:26Z</time>
      </trkpt>
      <trkpt lat="48.64242" lon="-1.25834">
        <ele>19.8</ele>
        <time>2022-08-27T14:41:28Z</time>
      </trkpt>
      <trkpt lat="48.64246" lon="-1.25819">
        <ele>19.8</ele>
        <time>2022-08-27T14:41:30Z</time>
      </trkpt>
      <trkpt lat="48.64251" lon="-1.25802">
        <ele>19.6</ele>
        <time>2022-08-27T14:41:32Z</time>
      </trkpt>
      <trkpt lat="48.64263" lon="-1.2576">
        <ele>19.4</ele>
        <time>2022-08-27T14:41:37Z</time>
      </trkpt>
      <trkpt lat="48.64265" lon="-1.25751">
        <ele>19.4</ele>
        <time>2022-08-27T14:41:38Z</time>
      </trkpt>
      <trkpt lat="48.64277" lon="-1.25703">
        <ele>18.8</ele>
        <time>2022-08-27T14:41:44Z</time>
      </trkpt>
      <trkpt lat="48.64285" lon="-1.25681">
        <ele>18.6</ele>
        <time>2022-08-27T14:41:47Z</time>
      </trkpt>
      <trkpt lat="48.64287" lon="-1.25672">
        <ele>18.6</ele>
        <time>2022-08-27T14:41:48Z</time>
      </trkpt>
      <trkpt lat="48.6429" lon="-1.25664">
        <ele>18.6</ele>
        <time>2022-08-27T14:41:49Z</time>
      </trkpt>
      <trkpt lat="48.64295" lon="-1.25647">
        <ele>18.4</ele>
        <time>2022-08-27T14:41:51Z</time>
      </trkpt>
      <trkpt lat="48.643" lon="-1.2563">
        <ele>18.2</ele>
        <time>2022-08-27T14:41:53Z</time>
      </trkpt>
      <trkpt lat="48.64304" lon="-1.25614">
        <ele>18</ele>
        <time>2022-08-27T14:41:55Z</time>
      </trkpt>
      <trkpt lat="48.64308" lon="-1.25598">
        <ele>18</ele>
        <time>2022-08-27T14:41:57Z</time>
      </trkpt>
      <trkpt lat="48.64318" lon="-1.25557">
        <ele>17.4</ele>
        <time>2022-08-27T14:42:02Z</time>
      </trkpt>
      <trkpt lat="48.64325" lon="-1.25522">
        <ele>17</ele>
        <time>2022-08-27T14:42:06Z</time>
      </trkpt>
      <trkpt lat="48.64328" lon="-1.25514">
        <ele>17</ele>
        <time>2022-08-27T14:42:07Z</time>
      </trkpt>
      <trkpt lat="48.64336" lon="-1.25478">
        <ele>16.4</ele>
        <time>2022-08-27T14:42:11Z</time>
      </trkpt>
      <trkpt lat="48.64342" lon="-1.25453">
        <ele>16.2</ele>
        <time>2022-08-27T14:42:14Z</time>
      </trkpt>
      <trkpt lat="48.64345" lon="-1.25435">
        <ele>15.8</ele>
        <time>2022-08-27T14:42:16Z</time>
      </trkpt>
      <trkpt lat="48.64355" lon="-1.25399">
        <ele>15.6</ele>
        <time>2022-08-27T14:42:20Z</time>
      </trkpt>
      <trkpt lat="48.64357" lon="-1.2539">
        <ele>15.6</ele>
        <time>2022-08-27T14:42:21Z</time>
      </trkpt>
      <trkpt lat="48.6436" lon="-1.2538">
        <ele>15.4</ele>
        <time>2022-08-27T14:42:22Z</time>
      </trkpt>
      <trkpt lat="48.64368" lon="-1.25354">
        <ele>15</ele>
        <time>2022-08-27T14:42:25Z</time>
      </trkpt>
      <trkpt lat="48.6438" lon="-1.25297">
        <ele>14</ele>
        <time>2022-08-27T14:42:31Z</time>
      </trkpt>
      <trkpt lat="48.64382" lon="-1.25287">
        <ele>13.8</ele>
        <time>2022-08-27T14:42:32Z</time>
      </trkpt>
      <trkpt lat="48.64384" lon="-1.25268">
        <ele>13.4</ele>
        <time>2022-08-27T14:42:34Z</time>
      </trkpt>
      <trkpt lat="48.64385" lon="-1.25258">
        <ele>13.4</ele>
        <time>2022-08-27T14:42:35Z</time>
      </trkpt>
      <trkpt lat="48.64387" lon="-1.25249">
        <ele>13.2</ele>
        <time>2022-08-27T14:42:36Z</time>
      </trkpt>
      <trkpt lat="48.64395" lon="-1.2522">
        <ele>12.8</ele>
        <time>2022-08-27T14:42:39Z</time>
      </trkpt>
      <trkpt lat="48.64398" lon="-1.25211">
        <ele>12.6</ele>
        <time>2022-08-27T14:42:40Z</time>
      </trkpt>
      <trkpt lat="48.64411" lon="-1.25176">
        <ele>12.4</ele>
        <time>2022-08-27T14:42:44Z</time>
      </trkpt>
      <trkpt lat="48.64427" lon="-1.2513">
        <ele>12</ele>
        <time>2022-08-27T14:42:49Z</time>
      </trkpt>
      <trkpt lat="48.64441" lon="-1.25071">
        <ele>12.2</ele>
        <time>2022-08-27T14:42:55Z</time>
      </trkpt>
      <trkpt lat="48.64445" lon="-1.25052">
        <ele>12.4</ele>
        <time>2022-08-27T14:42:57Z</time>
      </trkpt>
      <trkpt lat="48.64451" lon="-1.25025">
        <ele>12.4</ele>
        <time>2022-08-27T14:43:00Z</time>
      </trkpt>
      <trkpt lat="48.6446" lon="-1.24991">
        <ele>11.6</ele>
        <time>2022-08-27T14:43:04Z</time>
      </trkpt>
      <trkpt lat="48.64462" lon="-1.24983">
        <ele>11.8</ele>
        <time>2022-08-27T14:43:05Z</time>
      </trkpt>
      <trkpt lat="48.64469" lon="-1.24958">
        <ele>12.4</ele>
        <time>2022-08-27T14:43:08Z</time>
      </trkpt>
      <trkpt lat="48.6448" lon="-1.24904">
        <ele>11.6</ele>
        <time>2022-08-27T14:43:14Z</time>
      </trkpt>
      <trkpt lat="48.64489" lon="-1.24868">
        <ele>12.4</ele>
        <time>2022-08-27T14:43:18Z</time>
      </trkpt>
      <trkpt lat="48.64493" lon="-1.2485">
        <ele>12.6</ele>
        <time>2022-08-27T14:43:20Z</time>
      </trkpt>
      <trkpt lat="48.64495" lon="-1.24831">
        <ele>12.6</ele>
        <time>2022-08-27T14:43:22Z</time>
      </trkpt>
      <trkpt lat="48.64503" lon="-1.24791">
        <ele>12.6</ele>
        <time>2022-08-27T14:43:26Z</time>
      </trkpt>
      <trkpt lat="48.64504" lon="-1.24773">
        <ele>12.8</ele>
        <time>2022-08-27T14:43:28Z</time>
      </trkpt>
      <trkpt lat="48.64504" lon="-1.24757">
        <ele>13</ele>
        <time>2022-08-27T14:43:30Z</time>
      </trkpt>
      <trkpt lat="48.64506" lon="-1.24749">
        <ele>13.2</ele>
        <time>2022-08-27T14:43:31Z</time>
      </trkpt>
      <trkpt lat="48.64513" lon="-1.24728">
        <ele>13.4</ele>
        <time>2022-08-27T14:43:35Z</time>
      </trkpt>
      <trkpt lat="48.64516" lon="-1.24714">
        <ele>13.6</ele>
        <time>2022-08-27T14:43:37Z</time>
      </trkpt>
      <trkpt lat="48.64517" lon="-1.247">
        <ele>13.8</ele>
        <time>2022-08-27T14:43:39Z</time>
      </trkpt>
      <trkpt lat="48.6452" lon="-1.24679">
        <ele>13.8</ele>
        <time>2022-08-27T14:43:42Z</time>
      </trkpt>
      <trkpt lat="48.64521" lon="-1.24672">
        <ele>13.8</ele>
        <time>2022-08-27T14:43:43Z</time>
      </trkpt>
      <trkpt lat="48.64526" lon="-1.24622">
        <ele>14</ele>
        <time>2022-08-27T14:43:49Z</time>
      </trkpt>
      <trkpt lat="48.64529" lon="-1.24596">
        <ele>14</ele>
        <time>2022-08-27T14:43:52Z</time>
      </trkpt>
      <trkpt lat="48.64531" lon="-1.24589">
        <ele>14</ele>
        <time>2022-08-27T14:43:53Z</time>
      </trkpt>
      <trkpt lat="48.64531" lon="-1.24582">
        <ele>14</ele>
        <time>2022-08-27T14:43:54Z</time>
      </trkpt>
      <trkpt lat="48.64531" lon="-1.24554">
        <ele>14</ele>
        <time>2022-08-27T14:43:57Z</time>
      </trkpt>
      <trkpt lat="48.64534" lon="-1.24499">
        <ele>14.2</ele>
        <time>2022-08-27T14:44:03Z</time>
      </trkpt>
      <trkpt lat="48.64536" lon="-1.24468">
        <ele>14.2</ele>
        <time>2022-08-27T14:44:07Z</time>
      </trkpt>
      <trkpt lat="48.64537" lon="-1.24461">
        <ele>14.4</ele>
        <time>2022-08-27T14:44:08Z</time>
      </trkpt>
      <trkpt lat="48.64536" lon="-1.24451">
        <ele>14.4</ele>
        <time>2022-08-27T14:44:09Z</time>
      </trkpt>
      <trkpt lat="48.64536" lon="-1.2443">
        <ele>14.4</ele>
        <time>2022-08-27T14:44:11Z</time>
      </trkpt>
      <trkpt lat="48.64535" lon="-1.24409">
        <ele>14.4</ele>
        <time>2022-08-27T14:44:13Z</time>
      </trkpt>
      <trkpt lat="48.64535" lon="-1.24392">
        <ele>14.4</ele>
        <time>2022-08-27T14:44:15Z</time>
      </trkpt>
      <trkpt lat="48.64535" lon="-1.24384">
        <ele>14.4</ele>
        <time>2022-08-27T14:44:16Z</time>
      </trkpt>
      <trkpt lat="48.64533" lon="-1.24348">
        <ele>14.4</ele>
        <time>2022-08-27T14:44:20Z</time>
      </trkpt>
      <trkpt lat="48.64534" lon="-1.24328">
        <ele>14.4</ele>
        <time>2022-08-27T14:44:23Z</time>
      </trkpt>
      <trkpt lat="48.64533" lon="-1.24317">
        <ele>14.4</ele>
        <time>2022-08-27T14:44:24Z</time>
      </trkpt>
      <trkpt lat="48.64531" lon="-1.24289">
        <ele>14.6</ele>
        <time>2022-08-27T14:44:27Z</time>
      </trkpt>
      <trkpt lat="48.6453" lon="-1.24278">
        <ele>14.6</ele>
        <time>2022-08-27T14:44:28Z</time>
      </trkpt>
      <trkpt lat="48.64526" lon="-1.24239">
        <ele>14.6</ele>
        <time>2022-08-27T14:44:32Z</time>
      </trkpt>
      <trkpt lat="48.64522" lon="-1.24187">
        <ele>14.4</ele>
        <time>2022-08-27T14:44:38Z</time>
      </trkpt>
      <trkpt lat="48.64518" lon="-1.24139">
        <ele>14.2</ele>
        <time>2022-08-27T14:44:44Z</time>
      </trkpt>
      <trkpt lat="48.64515" lon="-1.24117">
        <ele>14.2</ele>
        <time>2022-08-27T14:44:47Z</time>
      </trkpt>
      <trkpt lat="48.64515" lon="-1.24105">
        <ele>14.2</ele>
        <time>2022-08-27T14:44:48Z</time>
      </trkpt>
      <trkpt lat="48.64515" lon="-1.24094">
        <ele>14.2</ele>
        <time>2022-08-27T14:44:49Z</time>
      </trkpt>
      <trkpt lat="48.64511" lon="-1.24059">
        <ele>14.4</ele>
        <time>2022-08-27T14:44:52Z</time>
      </trkpt>
      <trkpt lat="48.64509" lon="-1.24019">
        <ele>14.6</ele>
        <time>2022-08-27T14:44:56Z</time>
      </trkpt>
      <trkpt lat="48.64505" lon="-1.23974">
        <ele>14.8</ele>
        <time>2022-08-27T14:45:00Z</time>
      </trkpt>
      <trkpt lat="48.64504" lon="-1.23957">
        <ele>14.6</ele>
        <time>2022-08-27T14:45:02Z</time>
      </trkpt>
      <trkpt lat="48.64503" lon="-1.23947">
        <ele>14.6</ele>
        <time>2022-08-27T14:45:03Z</time>
      </trkpt>
      <trkpt lat="48.64502" lon="-1.23938">
        <ele>14.6</ele>
        <time>2022-08-27T14:45:04Z</time>
      </trkpt>
      <trkpt lat="48.645" lon="-1.2392">
        <ele>14.6</ele>
        <time>2022-08-27T14:45:06Z</time>
      </trkpt>
      <trkpt lat="48.64499" lon="-1.23902">
        <ele>14.6</ele>
        <time>2022-08-27T14:45:08Z</time>
      </trkpt>
      <trkpt lat="48.64498" lon="-1.23882">
        <ele>14.6</ele>
        <time>2022-08-27T14:45:10Z</time>
      </trkpt>
      <trkpt lat="48.64494" lon="-1.23829">
        <ele>14.8</ele>
        <time>2022-08-27T14:45:15Z</time>
      </trkpt>
      <trkpt lat="48.64492" lon="-1.23781">
        <ele>15</ele>
        <time>2022-08-27T14:45:20Z</time>
      </trkpt>
      <trkpt lat="48.6449" lon="-1.23756">
        <ele>15</ele>
        <time>2022-08-27T14:45:23Z</time>
      </trkpt>
      <trkpt lat="48.64489" lon="-1.2374">
        <ele>15</ele>
        <time>2022-08-27T14:45:25Z</time>
      </trkpt>
      <trkpt lat="48.64486" lon="-1.23703">
        <ele>15</ele>
        <time>2022-08-27T14:45:29Z</time>
      </trkpt>
      <trkpt lat="48.64481" lon="-1.23639">
        <ele>15.4</ele>
        <time>2022-08-27T14:45:35Z</time>
      </trkpt>
      <trkpt lat="48.64478" lon="-1.23617">
        <ele>15.6</ele>
        <time>2022-08-27T14:45:38Z</time>
      </trkpt>
      <trkpt lat="48.64478" lon="-1.23609">
        <ele>15.6</ele>
        <time>2022-08-27T14:45:39Z</time>
      </trkpt>
      <trkpt lat="48.64475" lon="-1.23568">
        <ele>15.8</ele>
        <time>2022-08-27T14:45:43Z</time>
      </trkpt>
      <trkpt lat="48.64472" lon="-1.23515">
        <ele>16</ele>
        <time>2022-08-27T14:45:48Z</time>
      </trkpt>
      <trkpt lat="48.64469" lon="-1.23479">
        <ele>16.2</ele>
        <time>2022-08-27T14:45:52Z</time>
      </trkpt>
      <trkpt lat="48.64468" lon="-1.23469">
        <ele>16.2</ele>
        <time>2022-08-27T14:45:53Z</time>
      </trkpt>
      <trkpt lat="48.64465" lon="-1.23442">
        <ele>16.2</ele>
        <time>2022-08-27T14:45:56Z</time>
      </trkpt>
      <trkpt lat="48.64464" lon="-1.23433">
        <ele>16.2</ele>
        <time>2022-08-27T14:45:57Z</time>
      </trkpt>
      <trkpt lat="48.6446" lon="-1.23408">
        <ele>16.2</ele>
        <time>2022-08-27T14:46:00Z</time>
      </trkpt>
      <trkpt lat="48.64456" lon="-1.23376">
        <ele>16.4</ele>
        <time>2022-08-27T14:46:05Z</time>
      </trkpt>
      <trkpt lat="48.64452" lon="-1.23352">
        <ele>15.4</ele>
        <time>2022-08-27T14:46:09Z</time>
      </trkpt>
      <trkpt lat="48.64445" lon="-1.23325">
        <ele>15.2</ele>
        <time>2022-08-27T14:46:14Z</time>
      </trkpt>
      <trkpt lat="48.64438" lon="-1.23296">
        <ele>14.4</ele>
        <time>2022-08-27T14:46:18Z</time>
      </trkpt>
      <trkpt lat="48.64428" lon="-1.23264">
        <ele>13.8</ele>
        <time>2022-08-27T14:46:22Z</time>
      </trkpt>
      <trkpt lat="48.64421" lon="-1.23246">
        <ele>13.4</ele>
        <time>2022-08-27T14:46:24Z</time>
      </trkpt>
      <trkpt lat="48.64418" lon="-1.23232">
        <ele>13</ele>
        <time>2022-08-27T14:46:26Z</time>
      </trkpt>
      <trkpt lat="48.64416" lon="-1.23224">
        <ele>13</ele>
        <time>2022-08-27T14:46:27Z</time>
      </trkpt>
      <trkpt lat="48.6441" lon="-1.23197">
        <ele>12.8</ele>
        <time>2022-08-27T14:46:30Z</time>
      </trkpt>
      <trkpt lat="48.64396" lon="-1.2315">
        <ele>12.8</ele>
        <time>2022-08-27T14:46:35Z</time>
      </trkpt>
      <trkpt lat="48.64392" lon="-1.23142">
        <ele>12.6</ele>
        <time>2022-08-27T14:46:36Z</time>
      </trkpt>
      <trkpt lat="48.64385" lon="-1.23128">
        <ele>12.6</ele>
        <time>2022-08-27T14:46:38Z</time>
      </trkpt>
      <trkpt lat="48.64374" lon="-1.23101">
        <ele>12.6</ele>
        <time>2022-08-27T14:46:41Z</time>
      </trkpt>
      <trkpt lat="48.64366" lon="-1.23085">
        <ele>12.8</ele>
        <time>2022-08-27T14:46:43Z</time>
      </trkpt>
      <trkpt lat="48.64358" lon="-1.23074">
        <ele>13</ele>
        <time>2022-08-27T14:46:45Z</time>
      </trkpt>
      <trkpt lat="48.64345" lon="-1.23045">
        <ele>13.8</ele>
        <time>2022-08-27T14:46:50Z</time>
      </trkpt>
      <trkpt lat="48.64334" lon="-1.23024">
        <ele>14.2</ele>
        <time>2022-08-27T14:46:54Z</time>
      </trkpt>
      <trkpt lat="48.64329" lon="-1.23012">
        <ele>14.4</ele>
        <time>2022-08-27T14:46:56Z</time>
      </trkpt>
      <trkpt lat="48.64322" lon="-1.23002">
        <ele>14.6</ele>
        <time>2022-08-27T14:46:58Z</time>
      </trkpt>
      <trkpt lat="48.64299" lon="-1.22964">
        <ele>15</ele>
        <time>2022-08-27T14:47:04Z</time>
      </trkpt>
      <trkpt lat="48.64292" lon="-1.22953">
        <ele>15</ele>
        <time>2022-08-27T14:47:06Z</time>
      </trkpt>
      <trkpt lat="48.64286" lon="-1.22942">
        <ele>15.2</ele>
        <time>2022-08-27T14:47:08Z</time>
      </trkpt>
      <trkpt lat="48.64279" lon="-1.22925">
        <ele>15.2</ele>
        <time>2022-08-27T14:47:11Z</time>
      </trkpt>
      <trkpt lat="48.64269" lon="-1.22908">
        <ele>15.4</ele>
        <time>2022-08-27T14:47:14Z</time>
      </trkpt>
      <trkpt lat="48.64259" lon="-1.22893">
        <ele>15.4</ele>
        <time>2022-08-27T14:47:16Z</time>
      </trkpt>
      <trkpt lat="48.64243" lon="-1.22861">
        <ele>15.8</ele>
        <time>2022-08-27T14:47:20Z</time>
      </trkpt>
      <trkpt lat="48.64239" lon="-1.22854">
        <ele>16</ele>
        <time>2022-08-27T14:47:21Z</time>
      </trkpt>
      <trkpt lat="48.64235" lon="-1.22847">
        <ele>16</ele>
        <time>2022-08-27T14:47:22Z</time>
      </trkpt>
      <trkpt lat="48.64223" lon="-1.22829">
        <ele>16.2</ele>
        <time>2022-08-27T14:47:25Z</time>
      </trkpt>
      <trkpt lat="48.64215" lon="-1.22818">
        <ele>16.4</ele>
        <time>2022-08-27T14:47:27Z</time>
      </trkpt>
      <trkpt lat="48.64207" lon="-1.22805">
        <ele>16.4</ele>
        <time>2022-08-27T14:47:29Z</time>
      </trkpt>
      <trkpt lat="48.64199" lon="-1.22791">
        <ele>16.2</ele>
        <time>2022-08-27T14:47:31Z</time>
      </trkpt>
      <trkpt lat="48.64192" lon="-1.22779">
        <ele>16.2</ele>
        <time>2022-08-27T14:47:33Z</time>
      </trkpt>
      <trkpt lat="48.64189" lon="-1.22775">
        <ele>16.2</ele>
        <time>2022-08-27T14:47:34Z</time>
      </trkpt>
      <trkpt lat="48.64185" lon="-1.22769">
        <ele>16.2</ele>
        <time>2022-08-27T14:47:35Z</time>
      </trkpt>
      <trkpt lat="48.64174" lon="-1.22749">
        <ele>16.6</ele>
        <time>2022-08-27T14:47:38Z</time>
      </trkpt>
      <trkpt lat="48.64163" lon="-1.22726">
        <ele>15.8</ele>
        <time>2022-08-27T14:47:41Z</time>
      </trkpt>
      <trkpt lat="48.64159" lon="-1.22719">
        <ele>15.6</ele>
        <time>2022-08-27T14:47:42Z</time>
      </trkpt>
      <trkpt lat="48.64144" lon="-1.2269">
        <ele>15.6</ele>
        <time>2022-08-27T14:47:46Z</time>
      </trkpt>
      <trkpt lat="48.6414" lon="-1.22683">
        <ele>15.4</ele>
        <time>2022-08-27T14:47:47Z</time>
      </trkpt>
      <trkpt lat="48.64136" lon="-1.22676">
        <ele>16</ele>
        <time>2022-08-27T14:47:48Z</time>
      </trkpt>
      <trkpt lat="48.64125" lon="-1.22659">
        <ele>16.2</ele>
        <time>2022-08-27T14:47:51Z</time>
      </trkpt>
      <trkpt lat="48.64117" lon="-1.22647">
        <ele>15.6</ele>
        <time>2022-08-27T14:47:53Z</time>
      </trkpt>
      <trkpt lat="48.64109" lon="-1.22635">
        <ele>15.8</ele>
        <time>2022-08-27T14:47:55Z</time>
      </trkpt>
      <trkpt lat="48.64093" lon="-1.22606">
        <ele>15.4</ele>
        <time>2022-08-27T14:47:59Z</time>
      </trkpt>
      <trkpt lat="48.64089" lon="-1.22599">
        <ele>15.2</ele>
        <time>2022-08-27T14:48:00Z</time>
      </trkpt>
      <trkpt lat="48.64084" lon="-1.22592">
        <ele>15.2</ele>
        <time>2022-08-27T14:48:01Z</time>
      </trkpt>
      <trkpt lat="48.6407" lon="-1.22564">
        <ele>14.8</ele>
        <time>2022-08-27T14:48:05Z</time>
      </trkpt>
      <trkpt lat="48.64059" lon="-1.22545">
        <ele>14.4</ele>
        <time>2022-08-27T14:48:08Z</time>
      </trkpt>
      <trkpt lat="48.64057" lon="-1.2254">
        <ele>14.4</ele>
        <time>2022-08-27T14:48:09Z</time>
      </trkpt>
      <trkpt lat="48.64043" lon="-1.22516">
        <ele>13.8</ele>
        <time>2022-08-27T14:48:13Z</time>
      </trkpt>
      <trkpt lat="48.6404" lon="-1.22509">
        <ele>13.6</ele>
        <time>2022-08-27T14:48:14Z</time>
      </trkpt>
      <trkpt lat="48.64032" lon="-1.22496">
        <ele>13.4</ele>
        <time>2022-08-27T14:48:16Z</time>
      </trkpt>
      <trkpt lat="48.64026" lon="-1.22482">
        <ele>13.2</ele>
        <time>2022-08-27T14:48:18Z</time>
      </trkpt>
      <trkpt lat="48.64016" lon="-1.22466">
        <ele>12.6</ele>
        <time>2022-08-27T14:48:21Z</time>
      </trkpt>
      <trkpt lat="48.64005" lon="-1.22447">
        <ele>12.2</ele>
        <time>2022-08-27T14:48:24Z</time>
      </trkpt>
      <trkpt lat="48.64003" lon="-1.2244">
        <ele>12</ele>
        <time>2022-08-27T14:48:25Z</time>
      </trkpt>
      <trkpt lat="48.63999" lon="-1.22432">
        <ele>11.6</ele>
        <time>2022-08-27T14:48:26Z</time>
      </trkpt>
      <trkpt lat="48.63994" lon="-1.22417">
        <ele>11</ele>
        <time>2022-08-27T14:48:28Z</time>
      </trkpt>
      <trkpt lat="48.6399" lon="-1.22409">
        <ele>10.6</ele>
        <time>2022-08-27T14:48:29Z</time>
      </trkpt>
      <trkpt lat="48.63981" lon="-1.2239">
        <ele>10</ele>
        <time>2022-08-27T14:48:32Z</time>
      </trkpt>
      <trkpt lat="48.63964" lon="-1.22357">
        <ele>9.6</ele>
        <time>2022-08-27T14:48:37Z</time>
      </trkpt>
      <trkpt lat="48.63953" lon="-1.22325">
        <ele>9.4</ele>
        <time>2022-08-27T14:48:41Z</time>
      </trkpt>
      <trkpt lat="48.63936" lon="-1.22267">
        <ele>8.8</ele>
        <time>2022-08-27T14:48:47Z</time>
      </trkpt>
      <trkpt lat="48.6392" lon="-1.22206">
        <ele>9.4</ele>
        <time>2022-08-27T14:48:53Z</time>
      </trkpt>
      <trkpt lat="48.63914" lon="-1.22188">
        <ele>8.6</ele>
        <time>2022-08-27T14:48:55Z</time>
      </trkpt>
      <trkpt lat="48.63908" lon="-1.22172">
        <ele>10</ele>
        <time>2022-08-27T14:48:57Z</time>
      </trkpt>
      <trkpt lat="48.6389" lon="-1.22132">
        <ele>10.2</ele>
        <time>2022-08-27T14:49:03Z</time>
      </trkpt>
      <trkpt lat="48.63882" lon="-1.22112">
        <ele>10.2</ele>
        <time>2022-08-27T14:49:06Z</time>
      </trkpt>
      <trkpt lat="48.63877" lon="-1.22096">
        <ele>10.2</ele>
        <time>2022-08-27T14:49:08Z</time>
      </trkpt>
      <trkpt lat="48.63864" lon="-1.22058">
        <ele>10.2</ele>
        <time>2022-08-27T14:49:13Z</time>
      </trkpt>
      <trkpt lat="48.63854" lon="-1.2203">
        <ele>10.2</ele>
        <time>2022-08-27T14:49:17Z</time>
      </trkpt>
      <trkpt lat="48.63851" lon="-1.22021">
        <ele>10.2</ele>
        <time>2022-08-27T14:49:18Z</time>
      </trkpt>
      <trkpt lat="48.63848" lon="-1.22012">
        <ele>10.2</ele>
        <time>2022-08-27T14:49:19Z</time>
      </trkpt>
      <trkpt lat="48.63839" lon="-1.21975">
        <ele>10</ele>
        <time>2022-08-27T14:49:23Z</time>
      </trkpt>
      <trkpt lat="48.6383" lon="-1.21931">
        <ele>10.6</ele>
        <time>2022-08-27T14:49:27Z</time>
      </trkpt>
      <trkpt lat="48.63825" lon="-1.21914">
        <ele>10.4</ele>
        <time>2022-08-27T14:49:29Z</time>
      </trkpt>
      <trkpt lat="48.63813" lon="-1.21869">
        <ele>9.8</ele>
        <time>2022-08-27T14:49:34Z</time>
      </trkpt>
      <trkpt lat="48.6381" lon="-1.2186">
        <ele>9.8</ele>
        <time>2022-08-27T14:49:35Z</time>
      </trkpt>
      <trkpt lat="48.63798" lon="-1.21825">
        <ele>10.6</ele>
        <time>2022-08-27T14:49:39Z</time>
      </trkpt>
      <trkpt lat="48.63781" lon="-1.21772">
        <ele>10.8</ele>
        <time>2022-08-27T14:49:45Z</time>
      </trkpt>
      <trkpt lat="48.6377" lon="-1.2174">
        <ele>11.2</ele>
        <time>2022-08-27T14:49:49Z</time>
      </trkpt>
      <trkpt lat="48.63764" lon="-1.21726">
        <ele>11.4</ele>
        <time>2022-08-27T14:49:51Z</time>
      </trkpt>
      <trkpt lat="48.63751" lon="-1.21679">
        <ele>12.6</ele>
        <time>2022-08-27T14:49:56Z</time>
      </trkpt>
      <trkpt lat="48.63725" lon="-1.21599">
        <ele>14.4</ele>
        <time>2022-08-27T14:50:05Z</time>
      </trkpt>
      <trkpt lat="48.63717" lon="-1.21576">
        <ele>15</ele>
        <time>2022-08-27T14:50:08Z</time>
      </trkpt>
      <trkpt lat="48.63716" lon="-1.21568">
        <ele>15.2</ele>
        <time>2022-08-27T14:50:09Z</time>
      </trkpt>
      <trkpt lat="48.63714" lon="-1.21561">
        <ele>15.4</ele>
        <time>2022-08-27T14:50:10Z</time>
      </trkpt>
      <trkpt lat="48.63708" lon="-1.21545">
        <ele>16</ele>
        <time>2022-08-27T14:50:13Z</time>
      </trkpt>
      <trkpt lat="48.63699" lon="-1.21525">
        <ele>16.8</ele>
        <time>2022-08-27T14:50:17Z</time>
      </trkpt>
      <trkpt lat="48.63695" lon="-1.21515">
        <ele>17</ele>
        <time>2022-08-27T14:50:19Z</time>
      </trkpt>
      <trkpt lat="48.63689" lon="-1.21494">
        <ele>17.6</ele>
        <time>2022-08-27T14:50:22Z</time>
      </trkpt>
      <trkpt lat="48.63677" lon="-1.21451">
        <ele>18.6</ele>
        <time>2022-08-27T14:50:28Z</time>
      </trkpt>
      <trkpt lat="48.63669" lon="-1.21431">
        <ele>19</ele>
        <time>2022-08-27T14:50:31Z</time>
      </trkpt>
      <trkpt lat="48.63664" lon="-1.21416">
        <ele>19.4</ele>
        <time>2022-08-27T14:50:33Z</time>
      </trkpt>
      <trkpt lat="48.63648" lon="-1.21347">
        <ele>20.6</ele>
        <time>2022-08-27T14:50:41Z</time>
      </trkpt>
      <trkpt lat="48.63639" lon="-1.21302">
        <ele>21.4</ele>
        <time>2022-08-27T14:50:46Z</time>
      </trkpt>
      <trkpt lat="48.63635" lon="-1.21285">
        <ele>21.6</ele>
        <time>2022-08-27T14:50:48Z</time>
      </trkpt>
      <trkpt lat="48.63632" lon="-1.21268">
        <ele>22</ele>
        <time>2022-08-27T14:50:50Z</time>
      </trkpt>
      <trkpt lat="48.63629" lon="-1.21251">
        <ele>22.4</ele>
        <time>2022-08-27T14:50:52Z</time>
      </trkpt>
      <trkpt lat="48.63622" lon="-1.21196">
        <ele>23.4</ele>
        <time>2022-08-27T14:50:58Z</time>
      </trkpt>
      <trkpt lat="48.63613" lon="-1.21113">
        <ele>25.2</ele>
        <time>2022-08-27T14:51:07Z</time>
      </trkpt>
      <trkpt lat="48.63609" lon="-1.21041">
        <ele>26.4</ele>
        <time>2022-08-27T14:51:15Z</time>
      </trkpt>
      <trkpt lat="48.63607" lon="-1.20971">
        <ele>27.8</ele>
        <time>2022-08-27T14:51:23Z</time>
      </trkpt>
      <trkpt lat="48.6361" lon="-1.20883">
        <ele>29.2</ele>
        <time>2022-08-27T14:51:33Z</time>
      </trkpt>
      <trkpt lat="48.63612" lon="-1.20836">
        <ele>29.8</ele>
        <time>2022-08-27T14:51:39Z</time>
      </trkpt>
      <trkpt lat="48.63612" lon="-1.2083">
        <ele>30</ele>
        <time>2022-08-27T14:51:40Z</time>
      </trkpt>
      <trkpt lat="48.63612" lon="-1.20819">
        <ele>30.4</ele>
        <time>2022-08-27T14:51:42Z</time>
      </trkpt>
      <trkpt lat="48.63615" lon="-1.20808">
        <ele>30.6</ele>
        <time>2022-08-27T14:51:44Z</time>
      </trkpt>
      <trkpt lat="48.63616" lon="-1.20786">
        <ele>31</ele>
        <time>2022-08-27T14:51:48Z</time>
      </trkpt>
      <trkpt lat="48.63617" lon="-1.20779">
        <ele>31.2</ele>
        <time>2022-08-27T14:51:49Z</time>
      </trkpt>
      <trkpt lat="48.6362" lon="-1.20766">
        <ele>31.4</ele>
        <time>2022-08-27T14:51:51Z</time>
      </trkpt>
      <trkpt lat="48.63621" lon="-1.20753">
        <ele>31.6</ele>
        <time>2022-08-27T14:51:53Z</time>
      </trkpt>
      <trkpt lat="48.63621" lon="-1.20745">
        <ele>31.8</ele>
        <time>2022-08-27T14:51:54Z</time>
      </trkpt>
      <trkpt lat="48.63621" lon="-1.20722">
        <ele>32.2</ele>
        <time>2022-08-27T14:51:57Z</time>
      </trkpt>
      <trkpt lat="48.63624" lon="-1.20705">
        <ele>32.4</ele>
        <time>2022-08-27T14:51:59Z</time>
      </trkpt>
      <trkpt lat="48.63629" lon="-1.20666">
        <ele>33.2</ele>
        <time>2022-08-27T14:52:04Z</time>
      </trkpt>
      <trkpt lat="48.63632" lon="-1.20638">
        <ele>33.4</ele>
        <time>2022-08-27T14:52:07Z</time>
      </trkpt>
      <trkpt lat="48.63633" lon="-1.2063">
        <ele>33.6</ele>
        <time>2022-08-27T14:52:08Z</time>
      </trkpt>
      <trkpt lat="48.63634" lon="-1.20621">
        <ele>33.6</ele>
        <time>2022-08-27T14:52:09Z</time>
      </trkpt>
      <trkpt lat="48.63638" lon="-1.20593">
        <ele>33.6</ele>
        <time>2022-08-27T14:52:12Z</time>
      </trkpt>
      <trkpt lat="48.63642" lon="-1.20553">
        <ele>33.8</ele>
        <time>2022-08-27T14:52:16Z</time>
      </trkpt>
      <trkpt lat="48.63647" lon="-1.20508">
        <ele>34</ele>
        <time>2022-08-27T14:52:21Z</time>
      </trkpt>
      <trkpt lat="48.6365" lon="-1.20481">
        <ele>34</ele>
        <time>2022-08-27T14:52:24Z</time>
      </trkpt>
      <trkpt lat="48.63653" lon="-1.20459">
        <ele>34.2</ele>
        <time>2022-08-27T14:52:26Z</time>
      </trkpt>
      <trkpt lat="48.63653" lon="-1.20449">
        <ele>34.2</ele>
        <time>2022-08-27T14:52:27Z</time>
      </trkpt>
      <trkpt lat="48.63655" lon="-1.20429">
        <ele>34.4</ele>
        <time>2022-08-27T14:52:29Z</time>
      </trkpt>
      <trkpt lat="48.63656" lon="-1.20419">
        <ele>34.4</ele>
        <time>2022-08-27T14:52:30Z</time>
      </trkpt>
      <trkpt lat="48.63664" lon="-1.20353">
        <ele>35</ele>
        <time>2022-08-27T14:52:37Z</time>
      </trkpt>
      <trkpt lat="48.63671" lon="-1.20285">
        <ele>35.4</ele>
        <time>2022-08-27T14:52:45Z</time>
      </trkpt>
      <trkpt lat="48.63674" lon="-1.20255">
        <ele>35.8</ele>
        <time>2022-08-27T14:52:50Z</time>
      </trkpt>
      <trkpt lat="48.63671" lon="-1.20232">
        <ele>36.2</ele>
        <time>2022-08-27T14:52:54Z</time>
      </trkpt>
      <trkpt lat="48.63671" lon="-1.20221">
        <ele>36.2</ele>
        <time>2022-08-27T14:52:56Z</time>
      </trkpt>
      <trkpt lat="48.63673" lon="-1.20207">
        <ele>36.4</ele>
        <time>2022-08-27T14:52:58Z</time>
      </trkpt>
      <trkpt lat="48.63673" lon="-1.20201">
        <ele>36.4</ele>
        <time>2022-08-27T14:52:59Z</time>
      </trkpt>
      <trkpt lat="48.6368" lon="-1.20179">
        <ele>36.8</ele>
        <time>2022-08-27T14:53:02Z</time>
      </trkpt>
      <trkpt lat="48.63684" lon="-1.20165">
        <ele>36.8</ele>
        <time>2022-08-27T14:53:04Z</time>
      </trkpt>
      <trkpt lat="48.63687" lon="-1.20141">
        <ele>37.2</ele>
        <time>2022-08-27T14:53:07Z</time>
      </trkpt>
      <trkpt lat="48.63692" lon="-1.201">
        <ele>37.4</ele>
        <time>2022-08-27T14:53:12Z</time>
      </trkpt>
      <trkpt lat="48.63695" lon="-1.20074">
        <ele>37.6</ele>
        <time>2022-08-27T14:53:15Z</time>
      </trkpt>
      <trkpt lat="48.63704" lon="-1.20001">
        <ele>38.2</ele>
        <time>2022-08-27T14:53:24Z</time>
      </trkpt>
      <trkpt lat="48.63703" lon="-1.19993">
        <ele>38.2</ele>
        <time>2022-08-27T14:53:25Z</time>
      </trkpt>
      <trkpt lat="48.63703" lon="-1.19976">
        <ele>38.2</ele>
        <time>2022-08-27T14:53:27Z</time>
      </trkpt>
      <trkpt lat="48.63705" lon="-1.19959">
        <ele>38.2</ele>
        <time>2022-08-27T14:53:29Z</time>
      </trkpt>
      <trkpt lat="48.63708" lon="-1.19934">
        <ele>38.4</ele>
        <time>2022-08-27T14:53:32Z</time>
      </trkpt>
      <trkpt lat="48.63709" lon="-1.19927">
        <ele>38.4</ele>
        <time>2022-08-27T14:53:33Z</time>
      </trkpt>
      <trkpt lat="48.63711" lon="-1.19912">
        <ele>38.4</ele>
        <time>2022-08-27T14:53:35Z</time>
      </trkpt>
      <trkpt lat="48.63713" lon="-1.19895">
        <ele>38.4</ele>
        <time>2022-08-27T14:53:37Z</time>
      </trkpt>
      <trkpt lat="48.63715" lon="-1.19878">
        <ele>38.4</ele>
        <time>2022-08-27T14:53:39Z</time>
      </trkpt>
      <trkpt lat="48.63716" lon="-1.19862">
        <ele>38.6</ele>
        <time>2022-08-27T14:53:41Z</time>
      </trkpt>
      <trkpt lat="48.63717" lon="-1.19854">
        <ele>38.6</ele>
        <time>2022-08-27T14:53:42Z</time>
      </trkpt>
      <trkpt lat="48.63719" lon="-1.19835">
        <ele>38.6</ele>
        <time>2022-08-27T14:53:45Z</time>
      </trkpt>
      <trkpt lat="48.6372" lon="-1.19828">
        <ele>38.6</ele>
        <time>2022-08-27T14:53:46Z</time>
      </trkpt>
      <trkpt lat="48.63726" lon="-1.19787">
        <ele>38.6</ele>
        <time>2022-08-27T14:53:51Z</time>
      </trkpt>
      <trkpt lat="48.63728" lon="-1.19754">
        <ele>38.8</ele>
        <time>2022-08-27T14:53:55Z</time>
      </trkpt>
      <trkpt lat="48.63728" lon="-1.19745">
        <ele>38.8</ele>
        <time>2022-08-27T14:53:56Z</time>
      </trkpt>
      <trkpt lat="48.63729" lon="-1.19722">
        <ele>38.8</ele>
        <time>2022-08-27T14:53:59Z</time>
      </trkpt>
      <trkpt lat="48.63732" lon="-1.19688">
        <ele>38.8</ele>
        <time>2022-08-27T14:54:04Z</time>
      </trkpt>
      <trkpt lat="48.63736" lon="-1.19669">
        <ele>38.4</ele>
        <time>2022-08-27T14:54:08Z</time>
      </trkpt>
      <trkpt lat="48.63739" lon="-1.19644">
        <ele>37.8</ele>
        <time>2022-08-27T14:54:12Z</time>
      </trkpt>
      <trkpt lat="48.63742" lon="-1.19622">
        <ele>37.2</ele>
        <time>2022-08-27T14:54:15Z</time>
      </trkpt>
      <trkpt lat="48.63743" lon="-1.19596">
        <ele>36.6</ele>
        <time>2022-08-27T14:54:19Z</time>
      </trkpt>
      <trkpt lat="48.63744" lon="-1.19585">
        <ele>36</ele>
        <time>2022-08-27T14:54:21Z</time>
      </trkpt>
      <trkpt lat="48.63745" lon="-1.19579">
        <ele>35.6</ele>
        <time>2022-08-27T14:54:22Z</time>
      </trkpt>
      <trkpt lat="48.63746" lon="-1.19557">
        <ele>34.4</ele>
        <time>2022-08-27T14:54:26Z</time>
      </trkpt>
      <trkpt lat="48.63746" lon="-1.19551">
        <ele>34</ele>
        <time>2022-08-27T14:54:27Z</time>
      </trkpt>
      <trkpt lat="48.63745" lon="-1.19524">
        <ele>32.4</ele>
        <time>2022-08-27T14:54:31Z</time>
      </trkpt>
      <trkpt lat="48.63745" lon="-1.19506">
        <ele>31.8</ele>
        <time>2022-08-27T14:54:33Z</time>
      </trkpt>
      <trkpt lat="48.63745" lon="-1.19498">
        <ele>31.4</ele>
        <time>2022-08-27T14:54:34Z</time>
      </trkpt>
      <trkpt lat="48.63741" lon="-1.19461">
        <ele>30.2</ele>
        <time>2022-08-27T14:54:38Z</time>
      </trkpt>
      <trkpt lat="48.63737" lon="-1.19416">
        <ele>30.2</ele>
        <time>2022-08-27T14:54:42Z</time>
      </trkpt>
      <trkpt lat="48.63735" lon="-1.19404">
        <ele>30.4</ele>
        <time>2022-08-27T14:54:43Z</time>
      </trkpt>
      <trkpt lat="48.63731" lon="-1.19369">
        <ele>30.2</ele>
        <time>2022-08-27T14:54:47Z</time>
      </trkpt>
      <trkpt lat="48.63731" lon="-1.19341">
        <ele>30</ele>
        <time>2022-08-27T14:54:51Z</time>
      </trkpt>
      <trkpt lat="48.63732" lon="-1.19317">
        <ele>29.2</ele>
        <time>2022-08-27T14:54:55Z</time>
      </trkpt>
      <trkpt lat="48.6373" lon="-1.19301">
        <ele>29.6</ele>
        <time>2022-08-27T14:54:57Z</time>
      </trkpt>
      <trkpt lat="48.63726" lon="-1.19293">
        <ele>30.2</ele>
        <time>2022-08-27T14:54:59Z</time>
      </trkpt>
      <trkpt lat="48.63717" lon="-1.19278">
        <ele>30</ele>
        <time>2022-08-27T14:55:03Z</time>
      </trkpt>
      <trkpt lat="48.63712" lon="-1.19244">
        <ele>31.6</ele>
        <time>2022-08-27T14:55:09Z</time>
      </trkpt>
      <trkpt lat="48.63707" lon="-1.19216">
        <ele>33</ele>
        <time>2022-08-27T14:55:16Z</time>
      </trkpt>
      <trkpt lat="48.63703" lon="-1.19193">
        <ele>33.8</ele>
        <time>2022-08-27T14:55:21Z</time>
      </trkpt>
      <trkpt lat="48.63698" lon="-1.19169">
        <ele>34.6</ele>
        <time>2022-08-27T14:55:26Z</time>
      </trkpt>
      <trkpt lat="48.63692" lon="-1.19142">
        <ele>35.6</ele>
        <time>2022-08-27T14:55:31Z</time>
      </trkpt>
      <trkpt lat="48.63686" lon="-1.19112">
        <ele>36.6</ele>
        <time>2022-08-27T14:55:36Z</time>
      </trkpt>
      <trkpt lat="48.63682" lon="-1.19088">
        <ele>37.2</ele>
        <time>2022-08-27T14:55:40Z</time>
      </trkpt>
      <trkpt lat="48.63678" lon="-1.19063">
        <ele>37.6</ele>
        <time>2022-08-27T14:55:44Z</time>
      </trkpt>
      <trkpt lat="48.6367" lon="-1.19021">
        <ele>38.6</ele>
        <time>2022-08-27T14:55:50Z</time>
      </trkpt>
      <trkpt lat="48.63658" lon="-1.18963">
        <ele>40.2</ele>
        <time>2022-08-27T14:55:59Z</time>
      </trkpt>
      <trkpt lat="48.63643" lon="-1.18902">
        <ele>41.8</ele>
        <time>2022-08-27T14:56:09Z</time>
      </trkpt>
      <trkpt lat="48.63627" lon="-1.18841">
        <ele>43.2</ele>
        <time>2022-08-27T14:56:19Z</time>
      </trkpt>
      <trkpt lat="48.63619" lon="-1.18816">
        <ele>43.8</ele>
        <time>2022-08-27T14:56:23Z</time>
      </trkpt>
      <trkpt lat="48.63613" lon="-1.18798">
        <ele>44.4</ele>
        <time>2022-08-27T14:56:26Z</time>
      </trkpt>
      <trkpt lat="48.63605" lon="-1.18773">
        <ele>45</ele>
        <time>2022-08-27T14:56:30Z</time>
      </trkpt>
      <trkpt lat="48.63601" lon="-1.18761">
        <ele>45.2</ele>
        <time>2022-08-27T14:56:32Z</time>
      </trkpt>
      <trkpt lat="48.63599" lon="-1.18755">
        <ele>45.4</ele>
        <time>2022-08-27T14:56:33Z</time>
      </trkpt>
      <trkpt lat="48.63588" lon="-1.18723">
        <ele>46</ele>
        <time>2022-08-27T14:56:39Z</time>
      </trkpt>
      <trkpt lat="48.63578" lon="-1.18696">
        <ele>46.4</ele>
        <time>2022-08-27T14:56:44Z</time>
      </trkpt>
      <trkpt lat="48.63569" lon="-1.18676">
        <ele>46.6</ele>
        <time>2022-08-27T14:56:48Z</time>
      </trkpt>
      <trkpt lat="48.63559" lon="-1.18652">
        <ele>46.8</ele>
        <time>2022-08-27T14:56:53Z</time>
      </trkpt>
      <trkpt lat="48.63548" lon="-1.18628">
        <ele>46.8</ele>
        <time>2022-08-27T14:56:57Z</time>
      </trkpt>
      <trkpt lat="48.63546" lon="-1.18622">
        <ele>46.8</ele>
        <time>2022-08-27T14:56:58Z</time>
      </trkpt>
      <trkpt lat="48.63532" lon="-1.18593">
        <ele>47</ele>
        <time>2022-08-27T14:57:03Z</time>
      </trkpt>
      <trkpt lat="48.63528" lon="-1.18582">
        <ele>47</ele>
        <time>2022-08-27T14:57:05Z</time>
      </trkpt>
      <trkpt lat="48.63521" lon="-1.1857">
        <ele>47.2</ele>
        <time>2022-08-27T14:57:07Z</time>
      </trkpt>
      <trkpt lat="48.63507" lon="-1.18545">
        <ele>47.4</ele>
        <time>2022-08-27T14:57:12Z</time>
      </trkpt>
      <trkpt lat="48.63504" lon="-1.1854">
        <ele>47.6</ele>
        <time>2022-08-27T14:57:13Z</time>
      </trkpt>
      <trkpt lat="48.63495" lon="-1.18524">
        <ele>47.6</ele>
        <time>2022-08-27T14:57:16Z</time>
      </trkpt>
      <trkpt lat="48.63485" lon="-1.18505">
        <ele>47.6</ele>
        <time>2022-08-27T14:57:20Z</time>
      </trkpt>
      <trkpt lat="48.63475" lon="-1.1849">
        <ele>47.6</ele>
        <time>2022-08-27T14:57:24Z</time>
      </trkpt>
      <trkpt lat="48.63462" lon="-1.1847">
        <ele>47.4</ele>
        <time>2022-08-27T14:57:28Z</time>
      </trkpt>
      <trkpt lat="48.63459" lon="-1.18464">
        <ele>47.4</ele>
        <time>2022-08-27T14:57:29Z</time>
      </trkpt>
      <trkpt lat="48.63438" lon="-1.18432">
        <ele>48</ele>
        <time>2022-08-27T14:57:35Z</time>
      </trkpt>
      <trkpt lat="48.63429" lon="-1.18416">
        <ele>48.2</ele>
        <time>2022-08-27T14:57:38Z</time>
      </trkpt>
      <trkpt lat="48.63421" lon="-1.18406">
        <ele>48.6</ele>
        <time>2022-08-27T14:57:40Z</time>
      </trkpt>
      <trkpt lat="48.63391" lon="-1.18358">
        <ele>49.8</ele>
        <time>2022-08-27T14:57:48Z</time>
      </trkpt>
      <trkpt lat="48.63367" lon="-1.18319">
        <ele>50.4</ele>
        <time>2022-08-27T14:57:55Z</time>
      </trkpt>
      <trkpt lat="48.63359" lon="-1.18304">
        <ele>50.6</ele>
        <time>2022-08-27T14:57:58Z</time>
      </trkpt>
      <trkpt lat="48.63353" lon="-1.18296">
        <ele>50.6</ele>
        <time>2022-08-27T14:58:00Z</time>
      </trkpt>
      <trkpt lat="48.63343" lon="-1.18282">
        <ele>50.8</ele>
        <time>2022-08-27T14:58:03Z</time>
      </trkpt>
      <trkpt lat="48.63337" lon="-1.18271">
        <ele>50.8</ele>
        <time>2022-08-27T14:58:05Z</time>
      </trkpt>
      <trkpt lat="48.63333" lon="-1.18266">
        <ele>50.8</ele>
        <time>2022-08-27T14:58:06Z</time>
      </trkpt>
      <trkpt lat="48.63319" lon="-1.18246">
        <ele>51</ele>
        <time>2022-08-27T14:58:10Z</time>
      </trkpt>
      <trkpt lat="48.63313" lon="-1.18235">
        <ele>51.2</ele>
        <time>2022-08-27T14:58:12Z</time>
      </trkpt>
      <trkpt lat="48.63294" lon="-1.18205">
        <ele>51.4</ele>
        <time>2022-08-27T14:58:18Z</time>
      </trkpt>
      <trkpt lat="48.63272" lon="-1.18171">
        <ele>51.4</ele>
        <time>2022-08-27T14:58:25Z</time>
      </trkpt>
      <trkpt lat="48.63266" lon="-1.18162">
        <ele>51.4</ele>
        <time>2022-08-27T14:58:27Z</time>
      </trkpt>
      <trkpt lat="48.6326" lon="-1.1815">
        <ele>51.6</ele>
        <time>2022-08-27T14:58:29Z</time>
      </trkpt>
      <trkpt lat="48.6324" lon="-1.18118">
        <ele>51.8</ele>
        <time>2022-08-27T14:58:35Z</time>
      </trkpt>
      <trkpt lat="48.6323" lon="-1.18103">
        <ele>52</ele>
        <time>2022-08-27T14:58:38Z</time>
      </trkpt>
      <trkpt lat="48.63226" lon="-1.18099">
        <ele>52</ele>
        <time>2022-08-27T14:58:39Z</time>
      </trkpt>
      <trkpt lat="48.63222" lon="-1.18094">
        <ele>52.2</ele>
        <time>2022-08-27T14:58:40Z</time>
      </trkpt>
      <trkpt lat="48.63216" lon="-1.18084">
        <ele>52.4</ele>
        <time>2022-08-27T14:58:42Z</time>
      </trkpt>
      <trkpt lat="48.63208" lon="-1.18074">
        <ele>52.4</ele>
        <time>2022-08-27T14:58:44Z</time>
      </trkpt>
      <trkpt lat="48.63187" lon="-1.18043">
        <ele>52.8</ele>
        <time>2022-08-27T14:58:50Z</time>
      </trkpt>
      <trkpt lat="48.63166" lon="-1.18015">
        <ele>53.4</ele>
        <time>2022-08-27T14:58:56Z</time>
      </trkpt>
      <trkpt lat="48.63144" lon="-1.17989">
        <ele>53.8</ele>
        <time>2022-08-27T14:59:02Z</time>
      </trkpt>
      <trkpt lat="48.63109" lon="-1.1795">
        <ele>54.4</ele>
        <time>2022-08-27T14:59:11Z</time>
      </trkpt>
      <trkpt lat="48.63095" lon="-1.17934">
        <ele>54.8</ele>
        <time>2022-08-27T14:59:15Z</time>
      </trkpt>
      <trkpt lat="48.63071" lon="-1.17912">
        <ele>55.2</ele>
        <time>2022-08-27T14:59:21Z</time>
      </trkpt>
      <trkpt lat="48.63039" lon="-1.17883">
        <ele>55.4</ele>
        <time>2022-08-27T14:59:29Z</time>
      </trkpt>
      <trkpt lat="48.6302" lon="-1.17868">
        <ele>55.6</ele>
        <time>2022-08-27T14:59:34Z</time>
      </trkpt>
      <trkpt lat="48.63015" lon="-1.17863">
        <ele>55.6</ele>
        <time>2022-08-27T14:59:36Z</time>
      </trkpt>
      <trkpt lat="48.63008" lon="-1.17859">
        <ele>55.8</ele>
        <time>2022-08-27T14:59:38Z</time>
      </trkpt>
      <trkpt lat="48.63005" lon="-1.17858">
        <ele>55.6</ele>
        <time>2022-08-27T14:59:39Z</time>
      </trkpt>
      <trkpt lat="48.63" lon="-1.17852">
        <ele>55.4</ele>
        <time>2022-08-27T14:59:42Z</time>
      </trkpt>
      <trkpt lat="48.62988" lon="-1.17844">
        <ele>55.4</ele>
        <time>2022-08-27T14:59:47Z</time>
      </trkpt>
      <trkpt lat="48.62981" lon="-1.17837">
        <ele>55</ele>
        <time>2022-08-27T14:59:50Z</time>
      </trkpt>
      <trkpt lat="48.62977" lon="-1.17832">
        <ele>55.2</ele>
        <time>2022-08-27T14:59:51Z</time>
      </trkpt>
      <trkpt lat="48.62954" lon="-1.17819">
        <ele>55</ele>
        <time>2022-08-27T14:59:58Z</time>
      </trkpt>
      <trkpt lat="48.62937" lon="-1.17808">
        <ele>54.8</ele>
        <time>2022-08-27T15:00:03Z</time>
      </trkpt>
      <trkpt lat="48.6292" lon="-1.17797">
        <ele>54.2</ele>
        <time>2022-08-27T15:00:08Z</time>
      </trkpt>
      <trkpt lat="48.62904" lon="-1.17789">
        <ele>54</ele>
        <time>2022-08-27T15:00:12Z</time>
      </trkpt>
      <trkpt lat="48.62892" lon="-1.17781">
        <ele>54</ele>
        <time>2022-08-27T15:00:15Z</time>
      </trkpt>
      <trkpt lat="48.6289" lon="-1.17782">
        <ele>53.8</ele>
        <time>2022-08-27T15:00:16Z</time>
      </trkpt>
      <trkpt lat="48.62878" lon="-1.17776">
        <ele>53</ele>
        <time>2022-08-27T15:00:19Z</time>
      </trkpt>
      <trkpt lat="48.6287" lon="-1.17772">
        <ele>52.4</ele>
        <time>2022-08-27T15:00:21Z</time>
      </trkpt>
      <trkpt lat="48.62857" lon="-1.17763">
        <ele>51.6</ele>
        <time>2022-08-27T15:00:24Z</time>
      </trkpt>
      <trkpt lat="48.62852" lon="-1.17761">
        <ele>51.4</ele>
        <time>2022-08-27T15:00:25Z</time>
      </trkpt>
      <trkpt lat="48.62843" lon="-1.17756">
        <ele>51</ele>
        <time>2022-08-27T15:00:27Z</time>
      </trkpt>
      <trkpt lat="48.6283" lon="-1.1775">
        <ele>50.4</ele>
        <time>2022-08-27T15:00:30Z</time>
      </trkpt>
      <trkpt lat="48.62825" lon="-1.17747">
        <ele>50.2</ele>
        <time>2022-08-27T15:00:31Z</time>
      </trkpt>
      <trkpt lat="48.62806" lon="-1.17735">
        <ele>48.6</ele>
        <time>2022-08-27T15:00:36Z</time>
      </trkpt>
      <trkpt lat="48.62796" lon="-1.17729">
        <ele>48</ele>
        <time>2022-08-27T15:00:39Z</time>
      </trkpt>
      <trkpt lat="48.62774" lon="-1.17717">
        <ele>47.4</ele>
        <time>2022-08-27T15:00:44Z</time>
      </trkpt>
      <trkpt lat="48.62758" lon="-1.17708">
        <ele>47.4</ele>
        <time>2022-08-27T15:00:49Z</time>
      </trkpt>
      <trkpt lat="48.62748" lon="-1.177">
        <ele>47.6</ele>
        <time>2022-08-27T15:00:53Z</time>
      </trkpt>
      <trkpt lat="48.62729" lon="-1.17687">
        <ele>47.2</ele>
        <time>2022-08-27T15:00:58Z</time>
      </trkpt>
      <trkpt lat="48.62714" lon="-1.17675">
        <ele>48.8</ele>
        <time>2022-08-27T15:01:02Z</time>
      </trkpt>
      <trkpt lat="48.62693" lon="-1.17664">
        <ele>49</ele>
        <time>2022-08-27T15:01:07Z</time>
      </trkpt>
      <trkpt lat="48.62689" lon="-1.17663">
        <ele>49.2</ele>
        <time>2022-08-27T15:01:08Z</time>
      </trkpt>
      <trkpt lat="48.6268" lon="-1.17658">
        <ele>49.6</ele>
        <time>2022-08-27T15:01:10Z</time>
      </trkpt>
      <trkpt lat="48.62664" lon="-1.17647">
        <ele>50</ele>
        <time>2022-08-27T15:01:14Z</time>
      </trkpt>
      <trkpt lat="48.62659" lon="-1.17645">
        <ele>50</ele>
        <time>2022-08-27T15:01:15Z</time>
      </trkpt>
      <trkpt lat="48.62646" lon="-1.17638">
        <ele>50.2</ele>
        <time>2022-08-27T15:01:19Z</time>
      </trkpt>
      <trkpt lat="48.62643" lon="-1.17636">
        <ele>50.2</ele>
        <time>2022-08-27T15:01:20Z</time>
      </trkpt>
      <trkpt lat="48.62625" lon="-1.17627">
        <ele>50</ele>
        <time>2022-08-27T15:01:24Z</time>
      </trkpt>
      <trkpt lat="48.62609" lon="-1.17618">
        <ele>50</ele>
        <time>2022-08-27T15:01:28Z</time>
      </trkpt>
      <trkpt lat="48.6259" lon="-1.17609">
        <ele>51.2</ele>
        <time>2022-08-27T15:01:33Z</time>
      </trkpt>
      <trkpt lat="48.62572" lon="-1.17599">
        <ele>50.4</ele>
        <time>2022-08-27T15:01:37Z</time>
      </trkpt>
      <trkpt lat="48.62553" lon="-1.17587">
        <ele>50.6</ele>
        <time>2022-08-27T15:01:41Z</time>
      </trkpt>
      <trkpt lat="48.62539" lon="-1.17578">
        <ele>51</ele>
        <time>2022-08-27T15:01:44Z</time>
      </trkpt>
      <trkpt lat="48.62535" lon="-1.17576">
        <ele>51</ele>
        <time>2022-08-27T15:01:45Z</time>
      </trkpt>
      <trkpt lat="48.62523" lon="-1.17566">
        <ele>50.8</ele>
        <time>2022-08-27T15:01:48Z</time>
      </trkpt>
      <trkpt lat="48.62518" lon="-1.17563">
        <ele>51</ele>
        <time>2022-08-27T15:01:49Z</time>
      </trkpt>
      <trkpt lat="48.62495" lon="-1.17546">
        <ele>51.8</ele>
        <time>2022-08-27T15:01:54Z</time>
      </trkpt>
      <trkpt lat="48.62478" lon="-1.17533">
        <ele>52.4</ele>
        <time>2022-08-27T15:01:58Z</time>
      </trkpt>
      <trkpt lat="48.62467" lon="-1.17525">
        <ele>52.4</ele>
        <time>2022-08-27T15:02:01Z</time>
      </trkpt>
      <trkpt lat="48.62452" lon="-1.17512">
        <ele>52.4</ele>
        <time>2022-08-27T15:02:05Z</time>
      </trkpt>
      <trkpt lat="48.62438" lon="-1.17497">
        <ele>52.2</ele>
        <time>2022-08-27T15:02:09Z</time>
      </trkpt>
      <trkpt lat="48.62422" lon="-1.17482">
        <ele>52.4</ele>
        <time>2022-08-27T15:02:13Z</time>
      </trkpt>
      <trkpt lat="48.62403" lon="-1.17462">
        <ele>52.6</ele>
        <time>2022-08-27T15:02:18Z</time>
      </trkpt>
      <trkpt lat="48.6238" lon="-1.17433">
        <ele>51.2</ele>
        <time>2022-08-27T15:02:26Z</time>
      </trkpt>
      <trkpt lat="48.62368" lon="-1.17421">
        <ele>50.2</ele>
        <time>2022-08-27T15:02:30Z</time>
      </trkpt>
      <trkpt lat="48.62352" lon="-1.174">
        <ele>48.6</ele>
        <time>2022-08-27T15:02:36Z</time>
      </trkpt>
      <trkpt lat="48.62346" lon="-1.17393">
        <ele>48</ele>
        <time>2022-08-27T15:02:38Z</time>
      </trkpt>
      <trkpt lat="48.62341" lon="-1.17385">
        <ele>47.4</ele>
        <time>2022-08-27T15:02:40Z</time>
      </trkpt>
      <trkpt lat="48.62327" lon="-1.17363">
        <ele>45.8</ele>
        <time>2022-08-27T15:02:45Z</time>
      </trkpt>
      <trkpt lat="48.62324" lon="-1.17357">
        <ele>45.4</ele>
        <time>2022-08-27T15:02:46Z</time>
      </trkpt>
      <trkpt lat="48.62308" lon="-1.17328">
        <ele>45.2</ele>
        <time>2022-08-27T15:02:50Z</time>
      </trkpt>
      <trkpt lat="48.6227" lon="-1.17263">
        <ele>49.4</ele>
        <time>2022-08-27T15:02:59Z</time>
      </trkpt>
      <trkpt lat="48.62248" lon="-1.17219">
        <ele>50</ele>
        <time>2022-08-27T15:03:05Z</time>
      </trkpt>
      <trkpt lat="48.62245" lon="-1.17212">
        <ele>50.2</ele>
        <time>2022-08-27T15:03:06Z</time>
      </trkpt>
      <trkpt lat="48.62233" lon="-1.17189">
        <ele>51.4</ele>
        <time>2022-08-27T15:03:10Z</time>
      </trkpt>
      <trkpt lat="48.6222" lon="-1.1716">
        <ele>52.8</ele>
        <time>2022-08-27T15:03:15Z</time>
      </trkpt>
      <trkpt lat="48.62216" lon="-1.17148">
        <ele>53.4</ele>
        <time>2022-08-27T15:03:17Z</time>
      </trkpt>
      <trkpt lat="48.62211" lon="-1.17136">
        <ele>54</ele>
        <time>2022-08-27T15:03:19Z</time>
      </trkpt>
      <trkpt lat="48.62205" lon="-1.17124">
        <ele>54.8</ele>
        <time>2022-08-27T15:03:21Z</time>
      </trkpt>
      <trkpt lat="48.62194" lon="-1.17099">
        <ele>56.8</ele>
        <time>2022-08-27T15:03:26Z</time>
      </trkpt>
      <trkpt lat="48.62187" lon="-1.17072">
        <ele>58.4</ele>
        <time>2022-08-27T15:03:31Z</time>
      </trkpt>
      <trkpt lat="48.62185" lon="-1.17067">
        <ele>58.8</ele>
        <time>2022-08-27T15:03:32Z</time>
      </trkpt>
      <trkpt lat="48.6218" lon="-1.17057">
        <ele>59.4</ele>
        <time>2022-08-27T15:03:34Z</time>
      </trkpt>
      <trkpt lat="48.62178" lon="-1.17051">
        <ele>59.6</ele>
        <time>2022-08-27T15:03:35Z</time>
      </trkpt>
      <trkpt lat="48.62173" lon="-1.17039">
        <ele>60</ele>
        <time>2022-08-27T15:03:37Z</time>
      </trkpt>
      <trkpt lat="48.6217" lon="-1.17033">
        <ele>60.4</ele>
        <time>2022-08-27T15:03:38Z</time>
      </trkpt>
      <trkpt lat="48.62163" lon="-1.17011">
        <ele>61.4</ele>
        <time>2022-08-27T15:03:42Z</time>
      </trkpt>
      <trkpt lat="48.62162" lon="-1.17005">
        <ele>61.6</ele>
        <time>2022-08-27T15:03:43Z</time>
      </trkpt>
      <trkpt lat="48.62158" lon="-1.16987">
        <ele>62.4</ele>
        <time>2022-08-27T15:03:46Z</time>
      </trkpt>
      <trkpt lat="48.62153" lon="-1.1697">
        <ele>63.2</ele>
        <time>2022-08-27T15:03:49Z</time>
      </trkpt>
      <trkpt lat="48.6215" lon="-1.16958">
        <ele>63.6</ele>
        <time>2022-08-27T15:03:51Z</time>
      </trkpt>
      <trkpt lat="48.62138" lon="-1.16906">
        <ele>65.6</ele>
        <time>2022-08-27T15:03:58Z</time>
      </trkpt>
      <trkpt lat="48.62136" lon="-1.169">
        <ele>65.8</ele>
        <time>2022-08-27T15:03:59Z</time>
      </trkpt>
      <trkpt lat="48.6213" lon="-1.16866">
        <ele>67.2</ele>
        <time>2022-08-27T15:04:04Z</time>
      </trkpt>
      <trkpt lat="48.62121" lon="-1.16816">
        <ele>69</ele>
        <time>2022-08-27T15:04:11Z</time>
      </trkpt>
      <trkpt lat="48.62119" lon="-1.16809">
        <ele>69.2</ele>
        <time>2022-08-27T15:04:12Z</time>
      </trkpt>
      <trkpt lat="48.62116" lon="-1.16791">
        <ele>69.8</ele>
        <time>2022-08-27T15:04:15Z</time>
      </trkpt>
      <trkpt lat="48.62113" lon="-1.16767">
        <ele>70.4</ele>
        <time>2022-08-27T15:04:19Z</time>
      </trkpt>
      <trkpt lat="48.62107" lon="-1.16722">
        <ele>71.6</ele>
        <time>2022-08-27T15:04:25Z</time>
      </trkpt>
      <trkpt lat="48.62098" lon="-1.16657">
        <ele>73.6</ele>
        <time>2022-08-27T15:04:34Z</time>
      </trkpt>
      <trkpt lat="48.6209" lon="-1.16602">
        <ele>75.6</ele>
        <time>2022-08-27T15:04:42Z</time>
      </trkpt>
      <trkpt lat="48.62083" lon="-1.16554">
        <ele>77.2</ele>
        <time>2022-08-27T15:04:49Z</time>
      </trkpt>
      <trkpt lat="48.62077" lon="-1.1651">
        <ele>78.8</ele>
        <time>2022-08-27T15:04:56Z</time>
      </trkpt>
      <trkpt lat="48.62072" lon="-1.16478">
        <ele>80</ele>
        <time>2022-08-27T15:05:01Z</time>
      </trkpt>
      <trkpt lat="48.62072" lon="-1.16472">
        <ele>80.4</ele>
        <time>2022-08-27T15:05:02Z</time>
      </trkpt>
      <trkpt lat="48.62069" lon="-1.16448">
        <ele>81.6</ele>
        <time>2022-08-27T15:05:06Z</time>
      </trkpt>
      <trkpt lat="48.62066" lon="-1.16423">
        <ele>82.8</ele>
        <time>2022-08-27T15:05:10Z</time>
      </trkpt>
      <trkpt lat="48.62062" lon="-1.16388">
        <ele>83.8</ele>
        <time>2022-08-27T15:05:15Z</time>
      </trkpt>
      <trkpt lat="48.62059" lon="-1.16363">
        <ele>84.2</ele>
        <time>2022-08-27T15:05:19Z</time>
      </trkpt>
      <trkpt lat="48.62056" lon="-1.16344">
        <ele>85</ele>
        <time>2022-08-27T15:05:23Z</time>
      </trkpt>
      <trkpt lat="48.62055" lon="-1.16329">
        <ele>85.4</ele>
        <time>2022-08-27T15:05:27Z</time>
      </trkpt>
      <trkpt lat="48.62053" lon="-1.16323">
        <ele>85.8</ele>
        <time>2022-08-27T15:05:29Z</time>
      </trkpt>
      <trkpt lat="48.62052" lon="-1.1631">
        <ele>86.2</ele>
        <time>2022-08-27T15:05:31Z</time>
      </trkpt>
      <trkpt lat="48.62052" lon="-1.16297">
        <ele>86.4</ele>
        <time>2022-08-27T15:05:33Z</time>
      </trkpt>
      <trkpt lat="48.62052" lon="-1.1629">
        <ele>86.4</ele>
        <time>2022-08-27T15:05:34Z</time>
      </trkpt>
      <trkpt lat="48.62048" lon="-1.16277">
        <ele>86.8</ele>
        <time>2022-08-27T15:05:36Z</time>
      </trkpt>
      <trkpt lat="48.62043" lon="-1.16242">
        <ele>87.4</ele>
        <time>2022-08-27T15:05:41Z</time>
      </trkpt>
      <trkpt lat="48.6204" lon="-1.16213">
        <ele>87.6</ele>
        <time>2022-08-27T15:05:45Z</time>
      </trkpt>
      <trkpt lat="48.62037" lon="-1.16198">
        <ele>88</ele>
        <time>2022-08-27T15:05:47Z</time>
      </trkpt>
      <trkpt lat="48.62037" lon="-1.16191">
        <ele>88</ele>
        <time>2022-08-27T15:05:48Z</time>
      </trkpt>
      <trkpt lat="48.62033" lon="-1.16162">
        <ele>88.6</ele>
        <time>2022-08-27T15:05:52Z</time>
      </trkpt>
      <trkpt lat="48.62027" lon="-1.16121">
        <ele>89.4</ele>
        <time>2022-08-27T15:05:58Z</time>
      </trkpt>
      <trkpt lat="48.62026" lon="-1.16107">
        <ele>89.6</ele>
        <time>2022-08-27T15:06:00Z</time>
      </trkpt>
      <trkpt lat="48.62021" lon="-1.16073">
        <ele>90.2</ele>
        <time>2022-08-27T15:06:05Z</time>
      </trkpt>
      <trkpt lat="48.62014" lon="-1.16031">
        <ele>90.8</ele>
        <time>2022-08-27T15:06:11Z</time>
      </trkpt>
      <trkpt lat="48.62009" lon="-1.16">
        <ele>91.2</ele>
        <time>2022-08-27T15:06:16Z</time>
      </trkpt>
      <trkpt lat="48.62007" lon="-1.15986">
        <ele>91.6</ele>
        <time>2022-08-27T15:06:18Z</time>
      </trkpt>
      <trkpt lat="48.62005" lon="-1.15973">
        <ele>91.8</ele>
        <time>2022-08-27T15:06:20Z</time>
      </trkpt>
      <trkpt lat="48.62004" lon="-1.15966">
        <ele>91.8</ele>
        <time>2022-08-27T15:06:21Z</time>
      </trkpt>
      <trkpt lat="48.62" lon="-1.15946">
        <ele>92.2</ele>
        <time>2022-08-27T15:06:24Z</time>
      </trkpt>
      <trkpt lat="48.61993" lon="-1.15914">
        <ele>92.6</ele>
        <time>2022-08-27T15:06:29Z</time>
      </trkpt>
      <trkpt lat="48.61989" lon="-1.1589">
        <ele>92.8</ele>
        <time>2022-08-27T15:06:33Z</time>
      </trkpt>
      <trkpt lat="48.61982" lon="-1.15858">
        <ele>93.4</ele>
        <time>2022-08-27T15:06:38Z</time>
      </trkpt>
      <trkpt lat="48.61975" lon="-1.15833">
        <ele>93.8</ele>
        <time>2022-08-27T15:06:42Z</time>
      </trkpt>
      <trkpt lat="48.61965" lon="-1.15798">
        <ele>94.2</ele>
        <time>2022-08-27T15:06:47Z</time>
      </trkpt>
      <trkpt lat="48.61958" lon="-1.15776">
        <ele>94.4</ele>
        <time>2022-08-27T15:06:51Z</time>
      </trkpt>
      <trkpt lat="48.6195" lon="-1.15749">
        <ele>94.8</ele>
        <time>2022-08-27T15:06:56Z</time>
      </trkpt>
      <trkpt lat="48.61941" lon="-1.15723">
        <ele>95</ele>
        <time>2022-08-27T15:07:00Z</time>
      </trkpt>
      <trkpt lat="48.61934" lon="-1.15699">
        <ele>95.2</ele>
        <time>2022-08-27T15:07:04Z</time>
      </trkpt>
      <trkpt lat="48.61923" lon="-1.15668">
        <ele>95.4</ele>
        <time>2022-08-27T15:07:09Z</time>
      </trkpt>
      <trkpt lat="48.61916" lon="-1.1565">
        <ele>95.6</ele>
        <time>2022-08-27T15:07:12Z</time>
      </trkpt>
      <trkpt lat="48.61907" lon="-1.15627">
        <ele>95.6</ele>
        <time>2022-08-27T15:07:16Z</time>
      </trkpt>
      <trkpt lat="48.61899" lon="-1.15607">
        <ele>95.8</ele>
        <time>2022-08-27T15:07:20Z</time>
      </trkpt>
      <trkpt lat="48.6189" lon="-1.15582">
        <ele>95.8</ele>
        <time>2022-08-27T15:07:25Z</time>
      </trkpt>
      <trkpt lat="48.61879" lon="-1.1556">
        <ele>95.8</ele>
        <time>2022-08-27T15:07:29Z</time>
      </trkpt>
      <trkpt lat="48.61869" lon="-1.15542">
        <ele>95.6</ele>
        <time>2022-08-27T15:07:33Z</time>
      </trkpt>
      <trkpt lat="48.6186" lon="-1.15524">
        <ele>94.6</ele>
        <time>2022-08-27T15:07:37Z</time>
      </trkpt>
      <trkpt lat="48.6185" lon="-1.15503">
        <ele>93.4</ele>
        <time>2022-08-27T15:07:41Z</time>
      </trkpt>
      <trkpt lat="48.61843" lon="-1.15489">
        <ele>92.2</ele>
        <time>2022-08-27T15:07:45Z</time>
      </trkpt>
      <trkpt lat="48.61842" lon="-1.15485">
        <ele>91.8</ele>
        <time>2022-08-27T15:07:46Z</time>
      </trkpt>
      <trkpt lat="48.6184" lon="-1.15479">
        <ele>91</ele>
        <time>2022-08-27T15:07:48Z</time>
      </trkpt>
      <trkpt lat="48.61839" lon="-1.15476">
        <ele>90.6</ele>
        <time>2022-08-27T15:07:49Z</time>
      </trkpt>
      <trkpt lat="48.61829" lon="-1.15461">
        <ele>88.8</ele>
        <time>2022-08-27T15:07:54Z</time>
      </trkpt>
      <trkpt lat="48.61813" lon="-1.1544">
        <ele>87</ele>
        <time>2022-08-27T15:07:59Z</time>
      </trkpt>
      <trkpt lat="48.61796" lon="-1.15421">
        <ele>85</ele>
        <time>2022-08-27T15:08:04Z</time>
      </trkpt>
      <trkpt lat="48.61794" lon="-1.15417">
        <ele>84.4</ele>
        <time>2022-08-27T15:08:05Z</time>
      </trkpt>
      <trkpt lat="48.6179" lon="-1.1541">
        <ele>83.4</ele>
        <time>2022-08-27T15:08:07Z</time>
      </trkpt>
      <trkpt lat="48.61783" lon="-1.15396">
        <ele>81.2</ele>
        <time>2022-08-27T15:08:11Z</time>
      </trkpt>
      <trkpt lat="48.6178" lon="-1.15391">
        <ele>80.6</ele>
        <time>2022-08-27T15:08:12Z</time>
      </trkpt>
      <trkpt lat="48.61769" lon="-1.15377">
        <ele>79.2</ele>
        <time>2022-08-27T15:08:15Z</time>
      </trkpt>
      <trkpt lat="48.61751" lon="-1.15352">
        <ele>76.4</ele>
        <time>2022-08-27T15:08:20Z</time>
      </trkpt>
      <trkpt lat="48.61736" lon="-1.15329">
        <ele>73.8</ele>
        <time>2022-08-27T15:08:24Z</time>
      </trkpt>
      <trkpt lat="48.61732" lon="-1.15323">
        <ele>73.2</ele>
        <time>2022-08-27T15:08:25Z</time>
      </trkpt>
      <trkpt lat="48.61707" lon="-1.15311">
        <ele>69.2</ele>
        <time>2022-08-27T15:08:31Z</time>
      </trkpt>
      <trkpt lat="48.61698" lon="-1.15298">
        <ele>67</ele>
        <time>2022-08-27T15:08:34Z</time>
      </trkpt>
      <trkpt lat="48.61696" lon="-1.15294">
        <ele>66.4</ele>
        <time>2022-08-27T15:08:35Z</time>
      </trkpt>
      <trkpt lat="48.61679" lon="-1.15262">
        <ele>62.8</ele>
        <time>2022-08-27T15:08:40Z</time>
      </trkpt>
      <trkpt lat="48.61659" lon="-1.15235">
        <ele>59</ele>
        <time>2022-08-27T15:08:46Z</time>
      </trkpt>
      <trkpt lat="48.61641" lon="-1.1521">
        <ele>57</ele>
        <time>2022-08-27T15:08:51Z</time>
      </trkpt>
      <trkpt lat="48.61623" lon="-1.15187">
        <ele>55</ele>
        <time>2022-08-27T15:08:56Z</time>
      </trkpt>
      <trkpt lat="48.61607" lon="-1.15169">
        <ele>54.2</ele>
        <time>2022-08-27T15:09:00Z</time>
      </trkpt>
      <trkpt lat="48.61586" lon="-1.15131">
        <ele>55.2</ele>
        <time>2022-08-27T15:09:06Z</time>
      </trkpt>
      <trkpt lat="48.61563" lon="-1.151">
        <ele>54.4</ele>
        <time>2022-08-27T15:09:13Z</time>
      </trkpt>
      <trkpt lat="48.61548" lon="-1.15085">
        <ele>53.2</ele>
        <time>2022-08-27T15:09:18Z</time>
      </trkpt>
      <trkpt lat="48.61531" lon="-1.15065">
        <ele>53.4</ele>
        <time>2022-08-27T15:09:23Z</time>
      </trkpt>
      <trkpt lat="48.61515" lon="-1.15038">
        <ele>55</ele>
        <time>2022-08-27T15:09:28Z</time>
      </trkpt>
      <trkpt lat="48.61496" lon="-1.15013">
        <ele>55.6</ele>
        <time>2022-08-27T15:09:33Z</time>
      </trkpt>
      <trkpt lat="48.61484" lon="-1.14999">
        <ele>56.2</ele>
        <time>2022-08-27T15:09:36Z</time>
      </trkpt>
      <trkpt lat="48.61474" lon="-1.14993">
        <ele>56.6</ele>
        <time>2022-08-27T15:09:38Z</time>
      </trkpt>
      <trkpt lat="48.61459" lon="-1.14989">
        <ele>57.2</ele>
        <time>2022-08-27T15:09:41Z</time>
      </trkpt>
      <trkpt lat="48.6145" lon="-1.14982">
        <ele>57.8</ele>
        <time>2022-08-27T15:09:43Z</time>
      </trkpt>
      <trkpt lat="48.6143" lon="-1.14964">
        <ele>59.2</ele>
        <time>2022-08-27T15:09:48Z</time>
      </trkpt>
      <trkpt lat="48.61422" lon="-1.14955">
        <ele>59.8</ele>
        <time>2022-08-27T15:09:50Z</time>
      </trkpt>
      <trkpt lat="48.61401" lon="-1.14926">
        <ele>62.4</ele>
        <time>2022-08-27T15:09:57Z</time>
      </trkpt>
      <trkpt lat="48.61396" lon="-1.14917">
        <ele>63</ele>
        <time>2022-08-27T15:09:59Z</time>
      </trkpt>
      <trkpt lat="48.61388" lon="-1.14902">
        <ele>64.2</ele>
        <time>2022-08-27T15:10:02Z</time>
      </trkpt>
      <trkpt lat="48.61371" lon="-1.14881">
        <ele>65.6</ele>
        <time>2022-08-27T15:10:07Z</time>
      </trkpt>
      <trkpt lat="48.61357" lon="-1.14863">
        <ele>66.8</ele>
        <time>2022-08-27T15:10:12Z</time>
      </trkpt>
      <trkpt lat="48.61351" lon="-1.14857">
        <ele>67</ele>
        <time>2022-08-27T15:10:14Z</time>
      </trkpt>
      <trkpt lat="48.6134" lon="-1.14838">
        <ele>67.8</ele>
        <time>2022-08-27T15:10:18Z</time>
      </trkpt>
      <trkpt lat="48.61324" lon="-1.14811">
        <ele>68.4</ele>
        <time>2022-08-27T15:10:23Z</time>
      </trkpt>
      <trkpt lat="48.61321" lon="-1.14806">
        <ele>68.4</ele>
        <time>2022-08-27T15:10:24Z</time>
      </trkpt>
      <trkpt lat="48.61307" lon="-1.14789">
        <ele>69.2</ele>
        <time>2022-08-27T15:10:28Z</time>
      </trkpt>
      <trkpt lat="48.61304" lon="-1.14784">
        <ele>69.4</ele>
        <time>2022-08-27T15:10:29Z</time>
      </trkpt>
      <trkpt lat="48.61294" lon="-1.14769">
        <ele>69.8</ele>
        <time>2022-08-27T15:10:32Z</time>
      </trkpt>
      <trkpt lat="48.61291" lon="-1.14764">
        <ele>69.8</ele>
        <time>2022-08-27T15:10:33Z</time>
      </trkpt>
      <trkpt lat="48.61265" lon="-1.14726">
        <ele>70.8</ele>
        <time>2022-08-27T15:10:40Z</time>
      </trkpt>
      <trkpt lat="48.61257" lon="-1.14713">
        <ele>71.2</ele>
        <time>2022-08-27T15:10:42Z</time>
      </trkpt>
      <trkpt lat="48.61248" lon="-1.14699">
        <ele>71.8</ele>
        <time>2022-08-27T15:10:44Z</time>
      </trkpt>
      <trkpt lat="48.61219" lon="-1.14654">
        <ele>73.8</ele>
        <time>2022-08-27T15:10:50Z</time>
      </trkpt>
      <trkpt lat="48.61193" lon="-1.14619">
        <ele>75.2</ele>
        <time>2022-08-27T15:10:55Z</time>
      </trkpt>
      <trkpt lat="48.61189" lon="-1.14614">
        <ele>75.8</ele>
        <time>2022-08-27T15:10:56Z</time>
      </trkpt>
      <trkpt lat="48.61184" lon="-1.14608">
        <ele>76</ele>
        <time>2022-08-27T15:10:57Z</time>
      </trkpt>
      <trkpt lat="48.6117" lon="-1.14591">
        <ele>76.8</ele>
        <time>2022-08-27T15:11:00Z</time>
      </trkpt>
      <trkpt lat="48.61152" lon="-1.14569">
        <ele>77.4</ele>
        <time>2022-08-27T15:11:04Z</time>
      </trkpt>
      <trkpt lat="48.61131" lon="-1.14544">
        <ele>78</ele>
        <time>2022-08-27T15:11:09Z</time>
      </trkpt>
      <trkpt lat="48.61126" lon="-1.14539">
        <ele>78.2</ele>
        <time>2022-08-27T15:11:10Z</time>
      </trkpt>
      <trkpt lat="48.61122" lon="-1.14534">
        <ele>78.2</ele>
        <time>2022-08-27T15:11:11Z</time>
      </trkpt>
      <trkpt lat="48.6111" lon="-1.14515">
        <ele>78.4</ele>
        <time>2022-08-27T15:11:14Z</time>
      </trkpt>
      <trkpt lat="48.61088" lon="-1.14482">
        <ele>78.6</ele>
        <time>2022-08-27T15:11:20Z</time>
      </trkpt>
      <trkpt lat="48.61073" lon="-1.14461">
        <ele>78.6</ele>
        <time>2022-08-27T15:11:24Z</time>
      </trkpt>
      <trkpt lat="48.61049" lon="-1.14421">
        <ele>79.6</ele>
        <time>2022-08-27T15:11:30Z</time>
      </trkpt>
      <trkpt lat="48.61017" lon="-1.14373">
        <ele>81.2</ele>
        <time>2022-08-27T15:11:38Z</time>
      </trkpt>
      <trkpt lat="48.61013" lon="-1.14367">
        <ele>81.4</ele>
        <time>2022-08-27T15:11:39Z</time>
      </trkpt>
      <trkpt lat="48.61003" lon="-1.14352">
        <ele>81.6</ele>
        <time>2022-08-27T15:11:42Z</time>
      </trkpt>
      <trkpt lat="48.60999" lon="-1.14348">
        <ele>81.6</ele>
        <time>2022-08-27T15:11:43Z</time>
      </trkpt>
      <trkpt lat="48.60996" lon="-1.14344">
        <ele>81.8</ele>
        <time>2022-08-27T15:11:44Z</time>
      </trkpt>
      <trkpt lat="48.60992" lon="-1.14333">
        <ele>82</ele>
        <time>2022-08-27T15:11:46Z</time>
      </trkpt>
      <trkpt lat="48.60978" lon="-1.14311">
        <ele>83.2</ele>
        <time>2022-08-27T15:11:51Z</time>
      </trkpt>
      <trkpt lat="48.60965" lon="-1.14287">
        <ele>84</ele>
        <time>2022-08-27T15:11:56Z</time>
      </trkpt>
      <trkpt lat="48.60958" lon="-1.1427">
        <ele>84.6</ele>
        <time>2022-08-27T15:11:59Z</time>
      </trkpt>
      <trkpt lat="48.60953" lon="-1.14259">
        <ele>84.8</ele>
        <time>2022-08-27T15:12:01Z</time>
      </trkpt>
      <trkpt lat="48.60939" lon="-1.14233">
        <ele>85.6</ele>
        <time>2022-08-27T15:12:06Z</time>
      </trkpt>
      <trkpt lat="48.60928" lon="-1.14208">
        <ele>85.8</ele>
        <time>2022-08-27T15:12:10Z</time>
      </trkpt>
      <trkpt lat="48.60919" lon="-1.14188">
        <ele>86.2</ele>
        <time>2022-08-27T15:12:13Z</time>
      </trkpt>
      <trkpt lat="48.6091" lon="-1.1417">
        <ele>86.4</ele>
        <time>2022-08-27T15:12:16Z</time>
      </trkpt>
      <trkpt lat="48.60895" lon="-1.14141">
        <ele>86.6</ele>
        <time>2022-08-27T15:12:20Z</time>
      </trkpt>
      <trkpt lat="48.60892" lon="-1.14133">
        <ele>86.8</ele>
        <time>2022-08-27T15:12:21Z</time>
      </trkpt>
      <trkpt lat="48.60882" lon="-1.14107">
        <ele>87.4</ele>
        <time>2022-08-27T15:12:24Z</time>
      </trkpt>
      <trkpt lat="48.6087" lon="-1.14072">
        <ele>87.4</ele>
        <time>2022-08-27T15:12:28Z</time>
      </trkpt>
      <trkpt lat="48.60854" lon="-1.14025">
        <ele>88</ele>
        <time>2022-08-27T15:12:33Z</time>
      </trkpt>
      <trkpt lat="48.60849" lon="-1.14006">
        <ele>88.2</ele>
        <time>2022-08-27T15:12:35Z</time>
      </trkpt>
      <trkpt lat="48.60844" lon="-1.13988">
        <ele>88.4</ele>
        <time>2022-08-27T15:12:37Z</time>
      </trkpt>
      <trkpt lat="48.60827" lon="-1.13931">
        <ele>89.2</ele>
        <time>2022-08-27T15:12:43Z</time>
      </trkpt>
      <trkpt lat="48.60806" lon="-1.13855">
        <ele>90.2</ele>
        <time>2022-08-27T15:12:51Z</time>
      </trkpt>
      <trkpt lat="48.60788" lon="-1.13789">
        <ele>91</ele>
        <time>2022-08-27T15:12:58Z</time>
      </trkpt>
      <trkpt lat="48.60781" lon="-1.13763">
        <ele>91.2</ele>
        <time>2022-08-27T15:13:01Z</time>
      </trkpt>
      <trkpt lat="48.60776" lon="-1.13746">
        <ele>91.4</ele>
        <time>2022-08-27T15:13:03Z</time>
      </trkpt>
      <trkpt lat="48.60772" lon="-1.13729">
        <ele>91.6</ele>
        <time>2022-08-27T15:13:05Z</time>
      </trkpt>
      <trkpt lat="48.60764" lon="-1.137">
        <ele>91.6</ele>
        <time>2022-08-27T15:13:08Z</time>
      </trkpt>
      <trkpt lat="48.60759" lon="-1.13682">
        <ele>91.6</ele>
        <time>2022-08-27T15:13:10Z</time>
      </trkpt>
      <trkpt lat="48.60755" lon="-1.13663">
        <ele>91.6</ele>
        <time>2022-08-27T15:13:12Z</time>
      </trkpt>
      <trkpt lat="48.60743" lon="-1.13625">
        <ele>91.8</ele>
        <time>2022-08-27T15:13:16Z</time>
      </trkpt>
      <trkpt lat="48.60738" lon="-1.13607">
        <ele>91.8</ele>
        <time>2022-08-27T15:13:18Z</time>
      </trkpt>
      <trkpt lat="48.60728" lon="-1.13572">
        <ele>91.8</ele>
        <time>2022-08-27T15:13:22Z</time>
      </trkpt>
      <trkpt lat="48.60725" lon="-1.13564">
        <ele>91.8</ele>
        <time>2022-08-27T15:13:23Z</time>
      </trkpt>
      <trkpt lat="48.60721" lon="-1.13548">
        <ele>91.8</ele>
        <time>2022-08-27T15:13:25Z</time>
      </trkpt>
      <trkpt lat="48.60719" lon="-1.13539">
        <ele>91.8</ele>
        <time>2022-08-27T15:13:26Z</time>
      </trkpt>
      <trkpt lat="48.60711" lon="-1.13506">
        <ele>91.8</ele>
        <time>2022-08-27T15:13:30Z</time>
      </trkpt>
      <trkpt lat="48.60706" lon="-1.1349">
        <ele>91.2</ele>
        <time>2022-08-27T15:13:32Z</time>
      </trkpt>
      <trkpt lat="48.60702" lon="-1.13471">
        <ele>91.2</ele>
        <time>2022-08-27T15:13:34Z</time>
      </trkpt>
      <trkpt lat="48.607" lon="-1.13462">
        <ele>91.2</ele>
        <time>2022-08-27T15:13:35Z</time>
      </trkpt>
      <trkpt lat="48.60693" lon="-1.13436">
        <ele>91</ele>
        <time>2022-08-27T15:13:38Z</time>
      </trkpt>
      <trkpt lat="48.60691" lon="-1.13427">
        <ele>91.2</ele>
        <time>2022-08-27T15:13:39Z</time>
      </trkpt>
      <trkpt lat="48.6068" lon="-1.13391">
        <ele>91.4</ele>
        <time>2022-08-27T15:13:43Z</time>
      </trkpt>
      <trkpt lat="48.60672" lon="-1.13371">
        <ele>91.4</ele>
        <time>2022-08-27T15:13:47Z</time>
      </trkpt>
      <trkpt lat="48.60671" lon="-1.13367">
        <ele>91.6</ele>
        <time>2022-08-27T15:13:48Z</time>
      </trkpt>
      <trkpt lat="48.60669" lon="-1.13357">
        <ele>91.6</ele>
        <time>2022-08-27T15:13:50Z</time>
      </trkpt>
      <trkpt lat="48.60659" lon="-1.13318">
        <ele>92</ele>
        <time>2022-08-27T15:13:55Z</time>
      </trkpt>
      <trkpt lat="48.60658" lon="-1.13306">
        <ele>91.8</ele>
        <time>2022-08-27T15:13:57Z</time>
      </trkpt>
      <trkpt lat="48.60658" lon="-1.13303">
        <ele>91.8</ele>
        <time>2022-08-27T15:13:58Z</time>
      </trkpt>
      <trkpt lat="48.60653" lon="-1.13294">
        <ele>91.8</ele>
        <time>2022-08-27T15:14:00Z</time>
      </trkpt>
      <trkpt lat="48.60647" lon="-1.13278">
        <ele>91.6</ele>
        <time>2022-08-27T15:14:03Z</time>
      </trkpt>
      <trkpt lat="48.60645" lon="-1.1327">
        <ele>91.2</ele>
        <time>2022-08-27T15:14:04Z</time>
      </trkpt>
      <trkpt lat="48.60634" lon="-1.13233">
        <ele>91.2</ele>
        <time>2022-08-27T15:14:09Z</time>
      </trkpt>
      <trkpt lat="48.60631" lon="-1.13226">
        <ele>91.2</ele>
        <time>2022-08-27T15:14:10Z</time>
      </trkpt>
      <trkpt lat="48.60623" lon="-1.13203">
        <ele>91</ele>
        <time>2022-08-27T15:14:13Z</time>
      </trkpt>
      <trkpt lat="48.60608" lon="-1.1316">
        <ele>91</ele>
        <time>2022-08-27T15:14:18Z</time>
      </trkpt>
      <trkpt lat="48.606" lon="-1.13136">
        <ele>91</ele>
        <time>2022-08-27T15:14:21Z</time>
      </trkpt>
      <trkpt lat="48.60597" lon="-1.13128">
        <ele>90.8</ele>
        <time>2022-08-27T15:14:22Z</time>
      </trkpt>
      <trkpt lat="48.60583" lon="-1.13097">
        <ele>90.8</ele>
        <time>2022-08-27T15:14:26Z</time>
      </trkpt>
      <trkpt lat="48.60576" lon="-1.13082">
        <ele>90.8</ele>
        <time>2022-08-27T15:14:28Z</time>
      </trkpt>
      <trkpt lat="48.6057" lon="-1.13066">
        <ele>90.6</ele>
        <time>2022-08-27T15:14:30Z</time>
      </trkpt>
      <trkpt lat="48.60566" lon="-1.13058">
        <ele>90.6</ele>
        <time>2022-08-27T15:14:31Z</time>
      </trkpt>
      <trkpt lat="48.60559" lon="-1.13043">
        <ele>90.6</ele>
        <time>2022-08-27T15:14:33Z</time>
      </trkpt>
      <trkpt lat="48.60552" lon="-1.13027">
        <ele>90.4</ele>
        <time>2022-08-27T15:14:35Z</time>
      </trkpt>
      <trkpt lat="48.60542" lon="-1.13007">
        <ele>90.6</ele>
        <time>2022-08-27T15:14:38Z</time>
      </trkpt>
      <trkpt lat="48.60539" lon="-1.13">
        <ele>90.6</ele>
        <time>2022-08-27T15:14:39Z</time>
      </trkpt>
      <trkpt lat="48.60532" lon="-1.12988">
        <ele>90.6</ele>
        <time>2022-08-27T15:14:41Z</time>
      </trkpt>
      <trkpt lat="48.60512" lon="-1.12953">
        <ele>91</ele>
        <time>2022-08-27T15:14:46Z</time>
      </trkpt>
      <trkpt lat="48.60496" lon="-1.12925">
        <ele>91.2</ele>
        <time>2022-08-27T15:14:50Z</time>
      </trkpt>
      <trkpt lat="48.60472" lon="-1.12887">
        <ele>91.6</ele>
        <time>2022-08-27T15:14:56Z</time>
      </trkpt>
      <trkpt lat="48.60469" lon="-1.12881">
        <ele>91.6</ele>
        <time>2022-08-27T15:14:57Z</time>
      </trkpt>
      <trkpt lat="48.60458" lon="-1.12866">
        <ele>91.8</ele>
        <time>2022-08-27T15:15:00Z</time>
      </trkpt>
      <trkpt lat="48.60442" lon="-1.12843">
        <ele>92</ele>
        <time>2022-08-27T15:15:04Z</time>
      </trkpt>
      <trkpt lat="48.60438" lon="-1.12837">
        <ele>92</ele>
        <time>2022-08-27T15:15:05Z</time>
      </trkpt>
      <trkpt lat="48.60426" lon="-1.12821">
        <ele>92.2</ele>
        <time>2022-08-27T15:15:08Z</time>
      </trkpt>
      <trkpt lat="48.60414" lon="-1.12804">
        <ele>92.4</ele>
        <time>2022-08-27T15:15:11Z</time>
      </trkpt>
      <trkpt lat="48.60407" lon="-1.12795">
        <ele>92.8</ele>
        <time>2022-08-27T15:15:13Z</time>
      </trkpt>
      <trkpt lat="48.6039" lon="-1.12774">
        <ele>93.2</ele>
        <time>2022-08-27T15:15:17Z</time>
      </trkpt>
      <trkpt lat="48.60385" lon="-1.12769">
        <ele>93.2</ele>
        <time>2022-08-27T15:15:18Z</time>
      </trkpt>
      <trkpt lat="48.60382" lon="-1.12765">
        <ele>93.4</ele>
        <time>2022-08-27T15:15:19Z</time>
      </trkpt>
      <trkpt lat="48.60364" lon="-1.12744">
        <ele>93.8</ele>
        <time>2022-08-27T15:15:23Z</time>
      </trkpt>
      <trkpt lat="48.60354" lon="-1.12733">
        <ele>94</ele>
        <time>2022-08-27T15:15:25Z</time>
      </trkpt>
      <trkpt lat="48.60341" lon="-1.1272">
        <ele>94.4</ele>
        <time>2022-08-27T15:15:28Z</time>
      </trkpt>
      <trkpt lat="48.6032" lon="-1.12696">
        <ele>95</ele>
        <time>2022-08-27T15:15:33Z</time>
      </trkpt>
      <trkpt lat="48.60295" lon="-1.12668">
        <ele>95.6</ele>
        <time>2022-08-27T15:15:38Z</time>
      </trkpt>
      <trkpt lat="48.60276" lon="-1.12648">
        <ele>96</ele>
        <time>2022-08-27T15:15:42Z</time>
      </trkpt>
      <trkpt lat="48.60271" lon="-1.12642">
        <ele>96.2</ele>
        <time>2022-08-27T15:15:43Z</time>
      </trkpt>
      <trkpt lat="48.60252" lon="-1.12621">
        <ele>96.6</ele>
        <time>2022-08-27T15:15:47Z</time>
      </trkpt>
      <trkpt lat="48.60247" lon="-1.12615">
        <ele>96.6</ele>
        <time>2022-08-27T15:15:48Z</time>
      </trkpt>
      <trkpt lat="48.60234" lon="-1.12601">
        <ele>97</ele>
        <time>2022-08-27T15:15:51Z</time>
      </trkpt>
      <trkpt lat="48.60221" lon="-1.12588">
        <ele>97.2</ele>
        <time>2022-08-27T15:15:54Z</time>
      </trkpt>
      <trkpt lat="48.60205" lon="-1.12574">
        <ele>97.4</ele>
        <time>2022-08-27T15:15:58Z</time>
      </trkpt>
      <trkpt lat="48.60195" lon="-1.12563">
        <ele>97.2</ele>
        <time>2022-08-27T15:16:01Z</time>
      </trkpt>
      <trkpt lat="48.60191" lon="-1.12559">
        <ele>97</ele>
        <time>2022-08-27T15:16:02Z</time>
      </trkpt>
      <trkpt lat="48.60175" lon="-1.12543">
        <ele>95.4</ele>
        <time>2022-08-27T15:16:06Z</time>
      </trkpt>
      <trkpt lat="48.60166" lon="-1.12534">
        <ele>95.6</ele>
        <time>2022-08-27T15:16:08Z</time>
      </trkpt>
      <trkpt lat="48.60152" lon="-1.12519">
        <ele>94.6</ele>
        <time>2022-08-27T15:16:11Z</time>
      </trkpt>
      <trkpt lat="48.60116" lon="-1.12476">
        <ele>92.8</ele>
        <time>2022-08-27T15:16:19Z</time>
      </trkpt>
      <trkpt lat="48.60109" lon="-1.12469">
        <ele>92.4</ele>
        <time>2022-08-27T15:16:21Z</time>
      </trkpt>
      <trkpt lat="48.60101" lon="-1.12464">
        <ele>92</ele>
        <time>2022-08-27T15:16:23Z</time>
      </trkpt>
      <trkpt lat="48.60083" lon="-1.1245">
        <ele>91.2</ele>
        <time>2022-08-27T15:16:28Z</time>
      </trkpt>
      <trkpt lat="48.60069" lon="-1.12439">
        <ele>90.2</ele>
        <time>2022-08-27T15:16:31Z</time>
      </trkpt>
      <trkpt lat="48.6006" lon="-1.12431">
        <ele>89.8</ele>
        <time>2022-08-27T15:16:33Z</time>
      </trkpt>
      <trkpt lat="48.60035" lon="-1.12399">
        <ele>88.6</ele>
        <time>2022-08-27T15:16:38Z</time>
      </trkpt>
      <trkpt lat="48.60028" lon="-1.12389">
        <ele>88</ele>
        <time>2022-08-27T15:16:40Z</time>
      </trkpt>
      <trkpt lat="48.60021" lon="-1.1238">
        <ele>87.2</ele>
        <time>2022-08-27T15:16:42Z</time>
      </trkpt>
      <trkpt lat="48.60014" lon="-1.12372">
        <ele>86.4</ele>
        <time>2022-08-27T15:16:44Z</time>
      </trkpt>
      <trkpt lat="48.60012" lon="-1.12368">
        <ele>86</ele>
        <time>2022-08-27T15:16:45Z</time>
      </trkpt>
      <trkpt lat="48.59999" lon="-1.12355">
        <ele>86.2</ele>
        <time>2022-08-27T15:16:49Z</time>
      </trkpt>
      <trkpt lat="48.59987" lon="-1.12344">
        <ele>87.6</ele>
        <time>2022-08-27T15:16:52Z</time>
      </trkpt>
      <trkpt lat="48.59976" lon="-1.12331">
        <ele>85.6</ele>
        <time>2022-08-27T15:16:55Z</time>
      </trkpt>
      <trkpt lat="48.59973" lon="-1.12326">
        <ele>85.2</ele>
        <time>2022-08-27T15:16:56Z</time>
      </trkpt>
      <trkpt lat="48.59963" lon="-1.12318">
        <ele>85.2</ele>
        <time>2022-08-27T15:16:59Z</time>
      </trkpt>
      <trkpt lat="48.59944" lon="-1.123">
        <ele>85.4</ele>
        <time>2022-08-27T15:17:03Z</time>
      </trkpt>
      <trkpt lat="48.59922" lon="-1.12277">
        <ele>84.6</ele>
        <time>2022-08-27T15:17:07Z</time>
      </trkpt>
      <trkpt lat="48.59886" lon="-1.12242">
        <ele>85.8</ele>
        <time>2022-08-27T15:17:13Z</time>
      </trkpt>
      <trkpt lat="48.59856" lon="-1.12212">
        <ele>86.6</ele>
        <time>2022-08-27T15:17:18Z</time>
      </trkpt>
      <trkpt lat="48.5982" lon="-1.12177">
        <ele>87.2</ele>
        <time>2022-08-27T15:17:24Z</time>
      </trkpt>
      <trkpt lat="48.59808" lon="-1.12165">
        <ele>87.4</ele>
        <time>2022-08-27T15:17:26Z</time>
      </trkpt>
      <trkpt lat="48.59798" lon="-1.12154">
        <ele>87.4</ele>
        <time>2022-08-27T15:17:28Z</time>
      </trkpt>
      <trkpt lat="48.59787" lon="-1.12143">
        <ele>87.4</ele>
        <time>2022-08-27T15:17:30Z</time>
      </trkpt>
      <trkpt lat="48.59768" lon="-1.12123">
        <ele>87.8</ele>
        <time>2022-08-27T15:17:33Z</time>
      </trkpt>
      <trkpt lat="48.59736" lon="-1.12091">
        <ele>88</ele>
        <time>2022-08-27T15:17:38Z</time>
      </trkpt>
      <trkpt lat="48.59706" lon="-1.12059">
        <ele>88.2</ele>
        <time>2022-08-27T15:17:43Z</time>
      </trkpt>
      <trkpt lat="48.59674" lon="-1.12024">
        <ele>88.2</ele>
        <time>2022-08-27T15:17:48Z</time>
      </trkpt>
      <trkpt lat="48.59641" lon="-1.1199">
        <ele>87.8</ele>
        <time>2022-08-27T15:17:53Z</time>
      </trkpt>
      <trkpt lat="48.59604" lon="-1.11951">
        <ele>87.2</ele>
        <time>2022-08-27T15:17:59Z</time>
      </trkpt>
      <trkpt lat="48.59592" lon="-1.11938">
        <ele>86.8</ele>
        <time>2022-08-27T15:18:01Z</time>
      </trkpt>
      <trkpt lat="48.5958" lon="-1.11924">
        <ele>86.4</ele>
        <time>2022-08-27T15:18:03Z</time>
      </trkpt>
      <trkpt lat="48.59573" lon="-1.11917">
        <ele>86.2</ele>
        <time>2022-08-27T15:18:04Z</time>
      </trkpt>
      <trkpt lat="48.59555" lon="-1.119">
        <ele>85.4</ele>
        <time>2022-08-27T15:18:07Z</time>
      </trkpt>
      <trkpt lat="48.59524" lon="-1.11871">
        <ele>84.4</ele>
        <time>2022-08-27T15:18:12Z</time>
      </trkpt>
      <trkpt lat="48.59492" lon="-1.1184">
        <ele>83.8</ele>
        <time>2022-08-27T15:18:17Z</time>
      </trkpt>
      <trkpt lat="48.59469" lon="-1.11817">
        <ele>82.8</ele>
        <time>2022-08-27T15:18:21Z</time>
      </trkpt>
      <trkpt lat="48.59463" lon="-1.11812">
        <ele>82.6</ele>
        <time>2022-08-27T15:18:22Z</time>
      </trkpt>
      <trkpt lat="48.59445" lon="-1.11798">
        <ele>82.6</ele>
        <time>2022-08-27T15:18:25Z</time>
      </trkpt>
      <trkpt lat="48.59406" lon="-1.11757">
        <ele>82.2</ele>
        <time>2022-08-27T15:18:31Z</time>
      </trkpt>
      <trkpt lat="48.59373" lon="-1.11723">
        <ele>81.6</ele>
        <time>2022-08-27T15:18:36Z</time>
      </trkpt>
      <trkpt lat="48.59339" lon="-1.11689">
        <ele>80.6</ele>
        <time>2022-08-27T15:18:41Z</time>
      </trkpt>
      <trkpt lat="48.59311" lon="-1.11659">
        <ele>80</ele>
        <time>2022-08-27T15:18:45Z</time>
      </trkpt>
      <trkpt lat="48.5927" lon="-1.11612">
        <ele>79.4</ele>
        <time>2022-08-27T15:18:51Z</time>
      </trkpt>
      <trkpt lat="48.59239" lon="-1.11577">
        <ele>80</ele>
        <time>2022-08-27T15:18:55Z</time>
      </trkpt>
      <trkpt lat="48.59232" lon="-1.11569">
        <ele>80</ele>
        <time>2022-08-27T15:18:56Z</time>
      </trkpt>
      <trkpt lat="48.59183" lon="-1.11515">
        <ele>81</ele>
        <time>2022-08-27T15:19:03Z</time>
      </trkpt>
      <trkpt lat="48.59146" lon="-1.11477">
        <ele>81.2</ele>
        <time>2022-08-27T15:19:08Z</time>
      </trkpt>
      <trkpt lat="48.5911" lon="-1.11439">
        <ele>81.6</ele>
        <time>2022-08-27T15:19:13Z</time>
      </trkpt>
      <trkpt lat="48.59069" lon="-1.11398">
        <ele>82.2</ele>
        <time>2022-08-27T15:19:19Z</time>
      </trkpt>
      <trkpt lat="48.59045" lon="-1.11375">
        <ele>82.4</ele>
        <time>2022-08-27T15:19:23Z</time>
      </trkpt>
      <trkpt lat="48.5901" lon="-1.1134">
        <ele>82.4</ele>
        <time>2022-08-27T15:19:28Z</time>
      </trkpt>
      <trkpt lat="48.58975" lon="-1.11305">
        <ele>82.4</ele>
        <time>2022-08-27T15:19:33Z</time>
      </trkpt>
      <trkpt lat="48.58957" lon="-1.11287">
        <ele>82.2</ele>
        <time>2022-08-27T15:19:36Z</time>
      </trkpt>
      <trkpt lat="48.58935" lon="-1.11264">
        <ele>82.4</ele>
        <time>2022-08-27T15:19:39Z</time>
      </trkpt>
      <trkpt lat="48.58909" lon="-1.11237">
        <ele>81.4</ele>
        <time>2022-08-27T15:19:43Z</time>
      </trkpt>
      <trkpt lat="48.5887" lon="-1.11197">
        <ele>82</ele>
        <time>2022-08-27T15:19:49Z</time>
      </trkpt>
      <trkpt lat="48.5883" lon="-1.11156">
        <ele>82.2</ele>
        <time>2022-08-27T15:19:55Z</time>
      </trkpt>
      <trkpt lat="48.58807" lon="-1.1113">
        <ele>82.4</ele>
        <time>2022-08-27T15:19:59Z</time>
      </trkpt>
      <trkpt lat="48.5879" lon="-1.11112">
        <ele>82.4</ele>
        <time>2022-08-27T15:20:02Z</time>
      </trkpt>
      <trkpt lat="48.58784" lon="-1.11106">
        <ele>82.4</ele>
        <time>2022-08-27T15:20:03Z</time>
      </trkpt>
      <trkpt lat="48.58768" lon="-1.1109">
        <ele>82.4</ele>
        <time>2022-08-27T15:20:06Z</time>
      </trkpt>
      <trkpt lat="48.58761" lon="-1.11083">
        <ele>82.4</ele>
        <time>2022-08-27T15:20:08Z</time>
      </trkpt>
      <trkpt lat="48.58755" lon="-1.11073">
        <ele>82.4</ele>
        <time>2022-08-27T15:20:10Z</time>
      </trkpt>
      <trkpt lat="48.58747" lon="-1.11064">
        <ele>82.6</ele>
        <time>2022-08-27T15:20:12Z</time>
      </trkpt>
      <trkpt lat="48.58733" lon="-1.11039">
        <ele>82.8</ele>
        <time>2022-08-27T15:20:16Z</time>
      </trkpt>
      <trkpt lat="48.58729" lon="-1.11033">
        <ele>83</ele>
        <time>2022-08-27T15:20:17Z</time>
      </trkpt>
      <trkpt lat="48.58714" lon="-1.11014">
        <ele>83.4</ele>
        <time>2022-08-27T15:20:20Z</time>
      </trkpt>
      <trkpt lat="48.58691" lon="-1.10979">
        <ele>84</ele>
        <time>2022-08-27T15:20:25Z</time>
      </trkpt>
      <trkpt lat="48.58672" lon="-1.10942">
        <ele>84.2</ele>
        <time>2022-08-27T15:20:30Z</time>
      </trkpt>
      <trkpt lat="48.58653" lon="-1.10904">
        <ele>84.2</ele>
        <time>2022-08-27T15:20:35Z</time>
      </trkpt>
      <trkpt lat="48.58647" lon="-1.10889">
        <ele>84.2</ele>
        <time>2022-08-27T15:20:37Z</time>
      </trkpt>
      <trkpt lat="48.58644" lon="-1.10883">
        <ele>84.2</ele>
        <time>2022-08-27T15:20:38Z</time>
      </trkpt>
      <trkpt lat="48.58642" lon="-1.10876">
        <ele>84.2</ele>
        <time>2022-08-27T15:20:39Z</time>
      </trkpt>
      <trkpt lat="48.58636" lon="-1.1086">
        <ele>84.2</ele>
        <time>2022-08-27T15:20:41Z</time>
      </trkpt>
      <trkpt lat="48.58628" lon="-1.10832">
        <ele>84</ele>
        <time>2022-08-27T15:20:44Z</time>
      </trkpt>
      <trkpt lat="48.58625" lon="-1.10823">
        <ele>84</ele>
        <time>2022-08-27T15:20:45Z</time>
      </trkpt>
      <trkpt lat="48.58608" lon="-1.10761">
        <ele>84</ele>
        <time>2022-08-27T15:20:51Z</time>
      </trkpt>
      <trkpt lat="48.58594" lon="-1.10694">
        <ele>83.6</ele>
        <time>2022-08-27T15:20:57Z</time>
      </trkpt>
      <trkpt lat="48.58586" lon="-1.10635">
        <ele>83.8</ele>
        <time>2022-08-27T15:21:02Z</time>
      </trkpt>
      <trkpt lat="48.58584" lon="-1.10623">
        <ele>83.8</ele>
        <time>2022-08-27T15:21:03Z</time>
      </trkpt>
      <trkpt lat="48.58582" lon="-1.10588">
        <ele>83.4</ele>
        <time>2022-08-27T15:21:06Z</time>
      </trkpt>
      <trkpt lat="48.5858" lon="-1.10511">
        <ele>83</ele>
        <time>2022-08-27T15:21:12Z</time>
      </trkpt>
      <trkpt lat="48.5858" lon="-1.10498">
        <ele>83</ele>
        <time>2022-08-27T15:21:13Z</time>
      </trkpt>
      <trkpt lat="48.58581" lon="-1.10459">
        <ele>83</ele>
        <time>2022-08-27T15:21:16Z</time>
      </trkpt>
      <trkpt lat="48.58584" lon="-1.10369">
        <ele>82.8</ele>
        <time>2022-08-27T15:21:23Z</time>
      </trkpt>
      <trkpt lat="48.58585" lon="-1.10356">
        <ele>82.8</ele>
        <time>2022-08-27T15:21:24Z</time>
      </trkpt>
      <trkpt lat="48.58589" lon="-1.10268">
        <ele>82.8</ele>
        <time>2022-08-27T15:21:31Z</time>
      </trkpt>
      <trkpt lat="48.58589" lon="-1.10256">
        <ele>82.8</ele>
        <time>2022-08-27T15:21:32Z</time>
      </trkpt>
      <trkpt lat="48.58591" lon="-1.10171">
        <ele>82.6</ele>
        <time>2022-08-27T15:21:39Z</time>
      </trkpt>
      <trkpt lat="48.58591" lon="-1.10159">
        <ele>82.6</ele>
        <time>2022-08-27T15:21:40Z</time>
      </trkpt>
      <trkpt lat="48.58593" lon="-1.10111">
        <ele>82.6</ele>
        <time>2022-08-27T15:21:45Z</time>
      </trkpt>
      <trkpt lat="48.58593" lon="-1.10095">
        <ele>82.4</ele>
        <time>2022-08-27T15:21:47Z</time>
      </trkpt>
      <trkpt lat="48.58593" lon="-1.10081">
        <ele>82.4</ele>
        <time>2022-08-27T15:21:49Z</time>
      </trkpt>
      <trkpt lat="48.58595" lon="-1.10067">
        <ele>82.4</ele>
        <time>2022-08-27T15:21:51Z</time>
      </trkpt>
      <trkpt lat="48.58596" lon="-1.10047">
        <ele>82.2</ele>
        <time>2022-08-27T15:21:54Z</time>
      </trkpt>
      <trkpt lat="48.58597" lon="-1.10033">
        <ele>82.2</ele>
        <time>2022-08-27T15:21:56Z</time>
      </trkpt>
      <trkpt lat="48.58599" lon="-1.10002">
        <ele>82</ele>
        <time>2022-08-27T15:22:00Z</time>
      </trkpt>
      <trkpt lat="48.586" lon="-1.09982">
        <ele>82</ele>
        <time>2022-08-27T15:22:03Z</time>
      </trkpt>
      <trkpt lat="48.58601" lon="-1.09968">
        <ele>82.2</ele>
        <time>2022-08-27T15:22:05Z</time>
      </trkpt>
      <trkpt lat="48.58602" lon="-1.09914">
        <ele>82</ele>
        <time>2022-08-27T15:22:11Z</time>
      </trkpt>
      <trkpt lat="48.58602" lon="-1.09887">
        <ele>82</ele>
        <time>2022-08-27T15:22:14Z</time>
      </trkpt>
      <trkpt lat="48.58603" lon="-1.09869">
        <ele>81.8</ele>
        <time>2022-08-27T15:22:16Z</time>
      </trkpt>
      <trkpt lat="48.58605" lon="-1.09806">
        <ele>81.6</ele>
        <time>2022-08-27T15:22:23Z</time>
      </trkpt>
      <trkpt lat="48.58607" lon="-1.09724">
        <ele>81.2</ele>
        <time>2022-08-27T15:22:31Z</time>
      </trkpt>
      <trkpt lat="48.58608" lon="-1.09649">
        <ele>80.8</ele>
        <time>2022-08-27T15:22:38Z</time>
      </trkpt>
      <trkpt lat="48.5861" lon="-1.09592">
        <ele>80.4</ele>
        <time>2022-08-27T15:22:43Z</time>
      </trkpt>
      <trkpt lat="48.58612" lon="-1.09523">
        <ele>80</ele>
        <time>2022-08-27T15:22:49Z</time>
      </trkpt>
      <trkpt lat="48.58614" lon="-1.09451">
        <ele>79.2</ele>
        <time>2022-08-27T15:22:55Z</time>
      </trkpt>
      <trkpt lat="48.58616" lon="-1.09389">
        <ele>78.4</ele>
        <time>2022-08-27T15:23:00Z</time>
      </trkpt>
      <trkpt lat="48.58619" lon="-1.09327">
        <ele>78</ele>
        <time>2022-08-27T15:23:05Z</time>
      </trkpt>
      <trkpt lat="48.5862" lon="-1.09315">
        <ele>77.8</ele>
        <time>2022-08-27T15:23:06Z</time>
      </trkpt>
      <trkpt lat="48.58621" lon="-1.09245">
        <ele>77.4</ele>
        <time>2022-08-27T15:23:12Z</time>
      </trkpt>
      <trkpt lat="48.58622" lon="-1.0919">
        <ele>77</ele>
        <time>2022-08-27T15:23:17Z</time>
      </trkpt>
      <trkpt lat="48.58621" lon="-1.09125">
        <ele>76.6</ele>
        <time>2022-08-27T15:23:23Z</time>
      </trkpt>
      <trkpt lat="48.58617" lon="-1.09069">
        <ele>75.8</ele>
        <time>2022-08-27T15:23:29Z</time>
      </trkpt>
      <trkpt lat="48.58614" lon="-1.09054">
        <ele>75.6</ele>
        <time>2022-08-27T15:23:32Z</time>
      </trkpt>
      <trkpt lat="48.58614" lon="-1.09032">
        <ele>75.2</ele>
        <time>2022-08-27T15:23:37Z</time>
      </trkpt>
      <trkpt lat="48.58613" lon="-1.09027">
        <ele>74.8</ele>
        <time>2022-08-27T15:23:41Z</time>
      </trkpt>
      <trkpt lat="48.58613" lon="-1.09023">
        <ele>74.4</ele>
        <time>2022-08-27T15:23:46Z</time>
      </trkpt>
      <trkpt lat="48.58613" lon="-1.09013">
        <ele>74.4</ele>
        <time>2022-08-27T15:23:48Z</time>
      </trkpt>
      <trkpt lat="48.58615" lon="-1.09002">
        <ele>74.2</ele>
        <time>2022-08-27T15:23:50Z</time>
      </trkpt>
      <trkpt lat="48.58615" lon="-1.08998">
        <ele>74</ele>
        <time>2022-08-27T15:23:51Z</time>
      </trkpt>
      <trkpt lat="48.58614" lon="-1.08995">
        <ele>73.8</ele>
        <time>2022-08-27T15:23:52Z</time>
      </trkpt>
      <trkpt lat="48.58613" lon="-1.08992">
        <ele>73.6</ele>
        <time>2022-08-27T15:23:55Z</time>
      </trkpt>
      <trkpt lat="48.58613" lon="-1.0899">
        <ele>73.2</ele>
        <time>2022-08-27T15:23:58Z</time>
      </trkpt>
      <trkpt lat="48.58608" lon="-1.08996">
        <ele>70.8</ele>
        <time>2022-08-27T15:25:59Z</time>
      </trkpt>
      <trkpt lat="48.5861" lon="-1.09011">
        <ele>71.4</ele>
        <time>2022-08-27T15:26:05Z</time>
      </trkpt>
      <trkpt lat="48.5861" lon="-1.09012">
        <ele>71.6</ele>
        <time>2022-08-27T15:26:06Z</time>
      </trkpt>
      <trkpt lat="48.58609" lon="-1.09015">
        <ele>71.8</ele>
        <time>2022-08-27T15:26:12Z</time>
      </trkpt>
      <trkpt lat="48.58606" lon="-1.09021">
        <ele>72</ele>
        <time>2022-08-27T15:26:14Z</time>
      </trkpt>
      <trkpt lat="48.58599" lon="-1.09024">
        <ele>72</ele>
        <time>2022-08-27T15:26:16Z</time>
      </trkpt>
      <trkpt lat="48.58594" lon="-1.09026">
        <ele>72</ele>
        <time>2022-08-27T15:26:17Z</time>
      </trkpt>
      <trkpt lat="48.58563" lon="-1.09039">
        <ele>72</ele>
        <time>2022-08-27T15:26:23Z</time>
      </trkpt>
      <trkpt lat="48.58531" lon="-1.0905">
        <ele>71.8</ele>
        <time>2022-08-27T15:26:28Z</time>
      </trkpt>
      <trkpt lat="48.58488" lon="-1.09066">
        <ele>71</ele>
        <time>2022-08-27T15:26:34Z</time>
      </trkpt>
      <trkpt lat="48.58462" lon="-1.09076">
        <ele>71</ele>
        <time>2022-08-27T15:26:39Z</time>
      </trkpt>
      <trkpt lat="48.58452" lon="-1.0908">
        <ele>70.4</ele>
        <time>2022-08-27T15:26:43Z</time>
      </trkpt>
      <trkpt lat="48.58444" lon="-1.09082">
        <ele>69.4</ele>
        <time>2022-08-27T15:26:49Z</time>
      </trkpt>
      <trkpt lat="48.58444" lon="-1.09082">
        <ele>69.4</ele>
        <time>2022-08-27T15:26:50Z</time>
      </trkpt>
      <trkpt lat="48.58443" lon="-1.09083">
        <ele>68.2</ele>
        <time>2022-08-27T15:27:04Z</time>
      </trkpt>
      <trkpt lat="48.58438" lon="-1.09084">
        <ele>67.8</ele>
        <time>2022-08-27T15:27:06Z</time>
      </trkpt>
      <trkpt lat="48.58422" lon="-1.0909">
        <ele>66.8</ele>
        <time>2022-08-27T15:27:10Z</time>
      </trkpt>
      <trkpt lat="48.58392" lon="-1.09099">
        <ele>66</ele>
        <time>2022-08-27T15:27:15Z</time>
      </trkpt>
      <trkpt lat="48.58338" lon="-1.0912">
        <ele>64.6</ele>
        <time>2022-08-27T15:27:23Z</time>
      </trkpt>
      <trkpt lat="48.58331" lon="-1.09122">
        <ele>64.6</ele>
        <time>2022-08-27T15:27:24Z</time>
      </trkpt>
      <trkpt lat="48.58281" lon="-1.09139">
        <ele>63.6</ele>
        <time>2022-08-27T15:27:31Z</time>
      </trkpt>
      <trkpt lat="48.58244" lon="-1.09151">
        <ele>63</ele>
        <time>2022-08-27T15:27:37Z</time>
      </trkpt>
      <trkpt lat="48.58197" lon="-1.09168">
        <ele>62</ele>
        <time>2022-08-27T15:27:45Z</time>
      </trkpt>
      <trkpt lat="48.58153" lon="-1.09184">
        <ele>61.6</ele>
        <time>2022-08-27T15:27:53Z</time>
      </trkpt>
      <trkpt lat="48.58125" lon="-1.09194">
        <ele>61.2</ele>
        <time>2022-08-27T15:27:58Z</time>
      </trkpt>
      <trkpt lat="48.58116" lon="-1.092">
        <ele>60.8</ele>
        <time>2022-08-27T15:28:00Z</time>
      </trkpt>
      <trkpt lat="48.58105" lon="-1.09202">
        <ele>60.6</ele>
        <time>2022-08-27T15:28:02Z</time>
      </trkpt>
      <trkpt lat="48.58099" lon="-1.09202">
        <ele>60.6</ele>
        <time>2022-08-27T15:28:03Z</time>
      </trkpt>
      <trkpt lat="48.58074" lon="-1.09211">
        <ele>60.8</ele>
        <time>2022-08-27T15:28:08Z</time>
      </trkpt>
      <trkpt lat="48.58037" lon="-1.09225">
        <ele>60.8</ele>
        <time>2022-08-27T15:28:15Z</time>
      </trkpt>
      <trkpt lat="48.57992" lon="-1.0924">
        <ele>60.4</ele>
        <time>2022-08-27T15:28:24Z</time>
      </trkpt>
      <trkpt lat="48.57954" lon="-1.09252">
        <ele>60.6</ele>
        <time>2022-08-27T15:28:32Z</time>
      </trkpt>
      <trkpt lat="48.57925" lon="-1.09263">
        <ele>60.4</ele>
        <time>2022-08-27T15:28:39Z</time>
      </trkpt>
      <trkpt lat="48.57895" lon="-1.09271">
        <ele>61.2</ele>
        <time>2022-08-27T15:28:46Z</time>
      </trkpt>
      <trkpt lat="48.57891" lon="-1.09272">
        <ele>61.2</ele>
        <time>2022-08-27T15:28:47Z</time>
      </trkpt>
      <trkpt lat="48.57866" lon="-1.09281">
        <ele>61</ele>
        <time>2022-08-27T15:28:53Z</time>
      </trkpt>
      <trkpt lat="48.57857" lon="-1.09283">
        <ele>61.2</ele>
        <time>2022-08-27T15:28:55Z</time>
      </trkpt>
      <trkpt lat="48.5784" lon="-1.09289">
        <ele>61.2</ele>
        <time>2022-08-27T15:28:59Z</time>
      </trkpt>
      <trkpt lat="48.57816" lon="-1.09297">
        <ele>61.2</ele>
        <time>2022-08-27T15:29:05Z</time>
      </trkpt>
      <trkpt lat="48.57811" lon="-1.09298">
        <ele>61.2</ele>
        <time>2022-08-27T15:29:06Z</time>
      </trkpt>
      <trkpt lat="48.57778" lon="-1.09308">
        <ele>61.4</ele>
        <time>2022-08-27T15:29:14Z</time>
      </trkpt>
      <trkpt lat="48.57769" lon="-1.09311">
        <ele>61.4</ele>
        <time>2022-08-27T15:29:18Z</time>
      </trkpt>
      <trkpt lat="48.57769" lon="-1.09311">
        <ele>61.6</ele>
        <time>2022-08-27T15:29:19Z</time>
      </trkpt>
      <trkpt lat="48.57767" lon="-1.09312">
        <ele>61.8</ele>
        <time>2022-08-27T15:30:03Z</time>
      </trkpt>
      <trkpt lat="48.57761" lon="-1.09312">
        <ele>62.4</ele>
        <time>2022-08-27T15:30:05Z</time>
      </trkpt>
      <trkpt lat="48.5775" lon="-1.09315">
        <ele>63.8</ele>
        <time>2022-08-27T15:30:10Z</time>
      </trkpt>
      <trkpt lat="48.57749" lon="-1.09316">
        <ele>64.4</ele>
        <time>2022-08-27T15:30:13Z</time>
      </trkpt>
      <trkpt lat="48.57747" lon="-1.09315">
        <ele>64.8</ele>
        <time>2022-08-27T15:30:19Z</time>
      </trkpt>
      <trkpt lat="48.57742" lon="-1.09311">
        <ele>65</ele>
        <time>2022-08-27T15:30:21Z</time>
      </trkpt>
      <trkpt lat="48.57741" lon="-1.09302">
        <ele>65.2</ele>
        <time>2022-08-27T15:30:23Z</time>
      </trkpt>
      <trkpt lat="48.57736" lon="-1.09264">
        <ele>65.8</ele>
        <time>2022-08-27T15:30:30Z</time>
      </trkpt>
      <trkpt lat="48.57735" lon="-1.09258">
        <ele>66</ele>
        <time>2022-08-27T15:30:31Z</time>
      </trkpt>
      <trkpt lat="48.57734" lon="-1.09232">
        <ele>66.4</ele>
        <time>2022-08-27T15:30:35Z</time>
      </trkpt>
      <trkpt lat="48.57733" lon="-1.09226">
        <ele>66.4</ele>
        <time>2022-08-27T15:30:36Z</time>
      </trkpt>
      <trkpt lat="48.57727" lon="-1.09218">
        <ele>66.6</ele>
        <time>2022-08-27T15:30:38Z</time>
      </trkpt>
      <trkpt lat="48.5772" lon="-1.09216">
        <ele>66.6</ele>
        <time>2022-08-27T15:30:40Z</time>
      </trkpt>
      <trkpt lat="48.57712" lon="-1.09217">
        <ele>67</ele>
        <time>2022-08-27T15:30:42Z</time>
      </trkpt>
      <trkpt lat="48.57678" lon="-1.09217">
        <ele>67.2</ele>
        <time>2022-08-27T15:30:49Z</time>
      </trkpt>
      <trkpt lat="48.57635" lon="-1.09215">
        <ele>67.8</ele>
        <time>2022-08-27T15:30:57Z</time>
      </trkpt>
      <trkpt lat="48.57629" lon="-1.09228">
        <ele>67.8</ele>
        <time>2022-08-27T15:30:59Z</time>
      </trkpt>
      <trkpt lat="48.57625" lon="-1.09249">
        <ele>68</ele>
        <time>2022-08-27T15:31:02Z</time>
      </trkpt>
      <trkpt lat="48.5762" lon="-1.09252">
        <ele>68.2</ele>
        <time>2022-08-27T15:31:03Z</time>
      </trkpt>
      <trkpt lat="48.57597" lon="-1.09246">
        <ele>68.6</ele>
        <time>2022-08-27T15:31:07Z</time>
      </trkpt>
      <trkpt lat="48.57585" lon="-1.0924">
        <ele>68.6</ele>
        <time>2022-08-27T15:31:09Z</time>
      </trkpt>
      <trkpt lat="48.57572" lon="-1.0924">
        <ele>68.6</ele>
        <time>2022-08-27T15:31:11Z</time>
      </trkpt>
      <trkpt lat="48.57563" lon="-1.09229">
        <ele>68.6</ele>
        <time>2022-08-27T15:31:13Z</time>
      </trkpt>
      <trkpt lat="48.57565" lon="-1.09201">
        <ele>68.6</ele>
        <time>2022-08-27T15:31:16Z</time>
      </trkpt>
      <trkpt lat="48.57574" lon="-1.09138">
        <ele>68.8</ele>
        <time>2022-08-27T15:31:22Z</time>
      </trkpt>
      <trkpt lat="48.5758" lon="-1.09079">
        <ele>69</ele>
        <time>2022-08-27T15:31:28Z</time>
      </trkpt>
      <trkpt lat="48.57581" lon="-1.09059">
        <ele>69</ele>
        <time>2022-08-27T15:31:30Z</time>
      </trkpt>
      <trkpt lat="48.57579" lon="-1.09019">
        <ele>69.2</ele>
        <time>2022-08-27T15:31:34Z</time>
      </trkpt>
      <trkpt lat="48.57577" lon="-1.0901">
        <ele>69.2</ele>
        <time>2022-08-27T15:31:35Z</time>
      </trkpt>
      <trkpt lat="48.5757" lon="-1.09003">
        <ele>69.2</ele>
        <time>2022-08-27T15:31:37Z</time>
      </trkpt>
      <trkpt lat="48.57545" lon="-1.09012">
        <ele>69.4</ele>
        <time>2022-08-27T15:31:41Z</time>
      </trkpt>
      <trkpt lat="48.57528" lon="-1.09022">
        <ele>69.4</ele>
        <time>2022-08-27T15:31:44Z</time>
      </trkpt>
      <trkpt lat="48.57522" lon="-1.09028">
        <ele>69.2</ele>
        <time>2022-08-27T15:31:45Z</time>
      </trkpt>
      <trkpt lat="48.57515" lon="-1.09033">
        <ele>69.2</ele>
        <time>2022-08-27T15:31:46Z</time>
      </trkpt>
      <trkpt lat="48.57493" lon="-1.09043">
        <ele>68.6</ele>
        <time>2022-08-27T15:31:49Z</time>
      </trkpt>
      <trkpt lat="48.57465" lon="-1.09041">
        <ele>68.6</ele>
        <time>2022-08-27T15:31:53Z</time>
      </trkpt>
      <trkpt lat="48.57445" lon="-1.09035">
        <ele>68.6</ele>
        <time>2022-08-27T15:31:56Z</time>
      </trkpt>
      <trkpt lat="48.57439" lon="-1.09031">
        <ele>68.4</ele>
        <time>2022-08-27T15:31:57Z</time>
      </trkpt>
      <trkpt lat="48.57434" lon="-1.09027">
        <ele>68.4</ele>
        <time>2022-08-27T15:31:58Z</time>
      </trkpt>
      <trkpt lat="48.57421" lon="-1.09013">
        <ele>68.2</ele>
        <time>2022-08-27T15:32:01Z</time>
      </trkpt>
      <trkpt lat="48.57392" lon="-1.08983">
        <ele>67.6</ele>
        <time>2022-08-27T15:32:07Z</time>
      </trkpt>
      <trkpt lat="48.57369" lon="-1.08956">
        <ele>67.2</ele>
        <time>2022-08-27T15:32:12Z</time>
      </trkpt>
      <trkpt lat="48.57338" lon="-1.08923">
        <ele>67.2</ele>
        <time>2022-08-27T15:32:18Z</time>
      </trkpt>
      <trkpt lat="48.57313" lon="-1.089">
        <ele>67</ele>
        <time>2022-08-27T15:32:23Z</time>
      </trkpt>
      <trkpt lat="48.57293" lon="-1.08884">
        <ele>66.8</ele>
        <time>2022-08-27T15:32:27Z</time>
      </trkpt>
      <trkpt lat="48.57289" lon="-1.08879">
        <ele>66.8</ele>
        <time>2022-08-27T15:32:28Z</time>
      </trkpt>
      <trkpt lat="48.57287" lon="-1.08872">
        <ele>66.8</ele>
        <time>2022-08-27T15:32:29Z</time>
      </trkpt>
      <trkpt lat="48.57287" lon="-1.08857">
        <ele>66.8</ele>
        <time>2022-08-27T15:32:31Z</time>
      </trkpt>
      <trkpt lat="48.57286" lon="-1.08842">
        <ele>66.8</ele>
        <time>2022-08-27T15:32:33Z</time>
      </trkpt>
      <trkpt lat="48.57283" lon="-1.08837">
        <ele>66.8</ele>
        <time>2022-08-27T15:32:34Z</time>
      </trkpt>
      <trkpt lat="48.57272" lon="-1.08826">
        <ele>66.6</ele>
        <time>2022-08-27T15:32:38Z</time>
      </trkpt>
      <trkpt lat="48.57268" lon="-1.08823">
        <ele>66.6</ele>
        <time>2022-08-27T15:32:42Z</time>
      </trkpt>
      <trkpt lat="48.57283" lon="-1.08837">
        <ele>68.2</ele>
        <time>2022-08-27T15:57:35Z</time>
      </trkpt>
      <trkpt lat="48.57287" lon="-1.08842">
        <ele>68.4</ele>
        <time>2022-08-27T15:57:38Z</time>
      </trkpt>
      <trkpt lat="48.57288" lon="-1.08846">
        <ele>68.4</ele>
        <time>2022-08-27T15:57:40Z</time>
      </trkpt>
      <trkpt lat="48.57286" lon="-1.08854">
        <ele>68.4</ele>
        <time>2022-08-27T15:57:43Z</time>
      </trkpt>
      <trkpt lat="48.57282" lon="-1.0886">
        <ele>68.4</ele>
        <time>2022-08-27T15:57:46Z</time>
      </trkpt>
      <trkpt lat="48.57279" lon="-1.0886">
        <ele>68.4</ele>
        <time>2022-08-27T15:57:47Z</time>
      </trkpt>
      <trkpt lat="48.57265" lon="-1.0885">
        <ele>68.4</ele>
        <time>2022-08-27T15:57:52Z</time>
      </trkpt>
      <trkpt lat="48.57245" lon="-1.08837">
        <ele>68.4</ele>
        <time>2022-08-27T15:57:58Z</time>
      </trkpt>
      <trkpt lat="48.57228" lon="-1.08824">
        <ele>68.8</ele>
        <time>2022-08-27T15:58:03Z</time>
      </trkpt>
      <trkpt lat="48.57212" lon="-1.08798">
        <ele>69</ele>
        <time>2022-08-27T15:58:09Z</time>
      </trkpt>
      <trkpt lat="48.57197" lon="-1.08767">
        <ele>69</ele>
        <time>2022-08-27T15:58:15Z</time>
      </trkpt>
      <trkpt lat="48.57186" lon="-1.08755">
        <ele>69</ele>
        <time>2022-08-27T15:58:18Z</time>
      </trkpt>
      <trkpt lat="48.57178" lon="-1.08749">
        <ele>68.8</ele>
        <time>2022-08-27T15:58:20Z</time>
      </trkpt>
      <trkpt lat="48.57174" lon="-1.08747">
        <ele>68.8</ele>
        <time>2022-08-27T15:58:21Z</time>
      </trkpt>
      <trkpt lat="48.57157" lon="-1.08741">
        <ele>68.8</ele>
        <time>2022-08-27T15:58:25Z</time>
      </trkpt>
      <trkpt lat="48.57148" lon="-1.0874">
        <ele>68.4</ele>
        <time>2022-08-27T15:58:27Z</time>
      </trkpt>
      <trkpt lat="48.57125" lon="-1.08743">
        <ele>68.4</ele>
        <time>2022-08-27T15:58:32Z</time>
      </trkpt>
      <trkpt lat="48.57105" lon="-1.08752">
        <ele>68.4</ele>
        <time>2022-08-27T15:58:38Z</time>
      </trkpt>
      <trkpt lat="48.57094" lon="-1.08752">
        <ele>68.6</ele>
        <time>2022-08-27T15:58:43Z</time>
      </trkpt>
      <trkpt lat="48.57089" lon="-1.08751">
        <ele>69</ele>
        <time>2022-08-27T15:58:45Z</time>
      </trkpt>
      <trkpt lat="48.57086" lon="-1.08756">
        <ele>68.8</ele>
        <time>2022-08-27T15:58:47Z</time>
      </trkpt>
      <trkpt lat="48.57084" lon="-1.08773">
        <ele>69</ele>
        <time>2022-08-27T15:58:50Z</time>
      </trkpt>
      <trkpt lat="48.57084" lon="-1.0878">
        <ele>69</ele>
        <time>2022-08-27T15:58:51Z</time>
      </trkpt>
      <trkpt lat="48.57085" lon="-1.08786">
        <ele>69.2</ele>
        <time>2022-08-27T15:58:52Z</time>
      </trkpt>
      <trkpt lat="48.5709" lon="-1.08804">
        <ele>69.2</ele>
        <time>2022-08-27T15:58:55Z</time>
      </trkpt>
      <trkpt lat="48.57094" lon="-1.08814">
        <ele>69.2</ele>
        <time>2022-08-27T15:58:57Z</time>
      </trkpt>
      <trkpt lat="48.57096" lon="-1.08836">
        <ele>69.2</ele>
        <time>2022-08-27T15:59:01Z</time>
      </trkpt>
      <trkpt lat="48.57096" lon="-1.08843">
        <ele>69.2</ele>
        <time>2022-08-27T15:59:02Z</time>
      </trkpt>
      <trkpt lat="48.57095" lon="-1.08856">
        <ele>69.2</ele>
        <time>2022-08-27T15:59:04Z</time>
      </trkpt>
      <trkpt lat="48.57091" lon="-1.08885">
        <ele>69.4</ele>
        <time>2022-08-27T15:59:08Z</time>
      </trkpt>
      <trkpt lat="48.57081" lon="-1.08937">
        <ele>69.2</ele>
        <time>2022-08-27T15:59:16Z</time>
      </trkpt>
      <trkpt lat="48.57071" lon="-1.08974">
        <ele>69.2</ele>
        <time>2022-08-27T15:59:22Z</time>
      </trkpt>
      <trkpt lat="48.5706" lon="-1.09018">
        <ele>68.6</ele>
        <time>2022-08-27T15:59:29Z</time>
      </trkpt>
      <trkpt lat="48.57058" lon="-1.09022">
        <ele>68.6</ele>
        <time>2022-08-27T15:59:30Z</time>
      </trkpt>
      <trkpt lat="48.5705" lon="-1.09024">
        <ele>68.6</ele>
        <time>2022-08-27T15:59:32Z</time>
      </trkpt>
      <trkpt lat="48.57034" lon="-1.09009">
        <ele>68.4</ele>
        <time>2022-08-27T15:59:36Z</time>
      </trkpt>
      <trkpt lat="48.5703" lon="-1.09005">
        <ele>68.6</ele>
        <time>2022-08-27T15:59:37Z</time>
      </trkpt>
      <trkpt lat="48.57007" lon="-1.08993">
        <ele>68.6</ele>
        <time>2022-08-27T15:59:42Z</time>
      </trkpt>
      <trkpt lat="48.56971" lon="-1.08974">
        <ele>68.4</ele>
        <time>2022-08-27T15:59:50Z</time>
      </trkpt>
      <trkpt lat="48.56941" lon="-1.08959">
        <ele>68.8</ele>
        <time>2022-08-27T15:59:57Z</time>
      </trkpt>
      <trkpt lat="48.56906" lon="-1.08941">
        <ele>69</ele>
        <time>2022-08-27T16:00:05Z</time>
      </trkpt>
      <trkpt lat="48.56875" lon="-1.08926">
        <ele>69.2</ele>
        <time>2022-08-27T16:00:12Z</time>
      </trkpt>
      <trkpt lat="48.56848" lon="-1.08922">
        <ele>69.6</ele>
        <time>2022-08-27T16:00:19Z</time>
      </trkpt>
      <trkpt lat="48.56843" lon="-1.08921">
        <ele>69.6</ele>
        <time>2022-08-27T16:00:20Z</time>
      </trkpt>
      <trkpt lat="48.56833" lon="-1.0892">
        <ele>69.8</ele>
        <time>2022-08-27T16:00:22Z</time>
      </trkpt>
      <trkpt lat="48.56825" lon="-1.08921">
        <ele>69.8</ele>
        <time>2022-08-27T16:00:24Z</time>
      </trkpt>
      <trkpt lat="48.56795" lon="-1.08928">
        <ele>70.4</ele>
        <time>2022-08-27T16:00:32Z</time>
      </trkpt>
      <trkpt lat="48.56768" lon="-1.08935">
        <ele>71.4</ele>
        <time>2022-08-27T16:00:40Z</time>
      </trkpt>
      <trkpt lat="48.56742" lon="-1.08937">
        <ele>72.4</ele>
        <time>2022-08-27T16:00:48Z</time>
      </trkpt>
      <trkpt lat="48.56723" lon="-1.08928">
        <ele>73.4</ele>
        <time>2022-08-27T16:00:54Z</time>
      </trkpt>
      <trkpt lat="48.56699" lon="-1.08911">
        <ele>74.2</ele>
        <time>2022-08-27T16:01:01Z</time>
      </trkpt>
      <trkpt lat="48.56673" lon="-1.08892">
        <ele>75</ele>
        <time>2022-08-27T16:01:09Z</time>
      </trkpt>
      <trkpt lat="48.56647" lon="-1.08874">
        <ele>76</ele>
        <time>2022-08-27T16:01:17Z</time>
      </trkpt>
      <trkpt lat="48.56617" lon="-1.08853">
        <ele>76.8</ele>
        <time>2022-08-27T16:01:26Z</time>
      </trkpt>
      <trkpt lat="48.56592" lon="-1.0884">
        <ele>77.4</ele>
        <time>2022-08-27T16:01:33Z</time>
      </trkpt>
      <trkpt lat="48.56555" lon="-1.08825">
        <ele>78.2</ele>
        <time>2022-08-27T16:01:43Z</time>
      </trkpt>
      <trkpt lat="48.56525" lon="-1.08821">
        <ele>79</ele>
        <time>2022-08-27T16:01:51Z</time>
      </trkpt>
      <trkpt lat="48.56491" lon="-1.08821">
        <ele>79.8</ele>
        <time>2022-08-27T16:02:00Z</time>
      </trkpt>
      <trkpt lat="48.56459" lon="-1.08828">
        <ele>80.8</ele>
        <time>2022-08-27T16:02:09Z</time>
      </trkpt>
      <trkpt lat="48.56438" lon="-1.08846">
        <ele>81.6</ele>
        <time>2022-08-27T16:02:16Z</time>
      </trkpt>
      <trkpt lat="48.56421" lon="-1.08869">
        <ele>82.2</ele>
        <time>2022-08-27T16:02:22Z</time>
      </trkpt>
      <trkpt lat="48.56402" lon="-1.08887">
        <ele>82.8</ele>
        <time>2022-08-27T16:02:28Z</time>
      </trkpt>
      <trkpt lat="48.56378" lon="-1.08897">
        <ele>83.4</ele>
        <time>2022-08-27T16:02:35Z</time>
      </trkpt>
      <trkpt lat="48.56352" lon="-1.08903">
        <ele>84.4</ele>
        <time>2022-08-27T16:02:43Z</time>
      </trkpt>
      <trkpt lat="48.56328" lon="-1.0891">
        <ele>85.2</ele>
        <time>2022-08-27T16:02:50Z</time>
      </trkpt>
      <trkpt lat="48.56311" lon="-1.08929">
        <ele>85.8</ele>
        <time>2022-08-27T16:02:57Z</time>
      </trkpt>
      <trkpt lat="48.56309" lon="-1.08931">
        <ele>85.8</ele>
        <time>2022-08-27T16:02:58Z</time>
      </trkpt>
      <trkpt lat="48.56302" lon="-1.08933">
        <ele>86</ele>
        <time>2022-08-27T16:03:01Z</time>
      </trkpt>
      <trkpt lat="48.56285" lon="-1.08941">
        <ele>86.6</ele>
        <time>2022-08-27T16:03:08Z</time>
      </trkpt>
      <trkpt lat="48.56266" lon="-1.08949">
        <ele>87.4</ele>
        <time>2022-08-27T16:03:15Z</time>
      </trkpt>
      <trkpt lat="48.5625" lon="-1.08959">
        <ele>87.6</ele>
        <time>2022-08-27T16:03:21Z</time>
      </trkpt>
      <trkpt lat="48.56244" lon="-1.08963">
        <ele>87.8</ele>
        <time>2022-08-27T16:03:24Z</time>
      </trkpt>
      <trkpt lat="48.56239" lon="-1.08965">
        <ele>87.8</ele>
        <time>2022-08-27T16:03:26Z</time>
      </trkpt>
      <trkpt lat="48.56225" lon="-1.08972">
        <ele>88.2</ele>
        <time>2022-08-27T16:03:31Z</time>
      </trkpt>
      <trkpt lat="48.56213" lon="-1.08974">
        <ele>88.8</ele>
        <time>2022-08-27T16:03:36Z</time>
      </trkpt>
      <trkpt lat="48.56191" lon="-1.08973">
        <ele>89.8</ele>
        <time>2022-08-27T16:03:44Z</time>
      </trkpt>
      <trkpt lat="48.56176" lon="-1.08974">
        <ele>90.8</ele>
        <time>2022-08-27T16:03:50Z</time>
      </trkpt>
      <trkpt lat="48.56161" lon="-1.08978">
        <ele>91.8</ele>
        <time>2022-08-27T16:03:57Z</time>
      </trkpt>
      <trkpt lat="48.56148" lon="-1.08982">
        <ele>92.6</ele>
        <time>2022-08-27T16:04:02Z</time>
      </trkpt>
      <trkpt lat="48.56131" lon="-1.08985">
        <ele>93.6</ele>
        <time>2022-08-27T16:04:08Z</time>
      </trkpt>
      <trkpt lat="48.56115" lon="-1.08987">
        <ele>94.4</ele>
        <time>2022-08-27T16:04:15Z</time>
      </trkpt>
      <trkpt lat="48.56098" lon="-1.08989">
        <ele>95.4</ele>
        <time>2022-08-27T16:04:22Z</time>
      </trkpt>
      <trkpt lat="48.56083" lon="-1.08991">
        <ele>96.4</ele>
        <time>2022-08-27T16:04:29Z</time>
      </trkpt>
      <trkpt lat="48.56065" lon="-1.08994">
        <ele>97.6</ele>
        <time>2022-08-27T16:04:36Z</time>
      </trkpt>
      <trkpt lat="48.56053" lon="-1.08995">
        <ele>98.6</ele>
        <time>2022-08-27T16:04:41Z</time>
      </trkpt>
      <trkpt lat="48.56041" lon="-1.08997">
        <ele>99.4</ele>
        <time>2022-08-27T16:04:47Z</time>
      </trkpt>
      <trkpt lat="48.56033" lon="-1.08997">
        <ele>100</ele>
        <time>2022-08-27T16:04:51Z</time>
      </trkpt>
      <trkpt lat="48.56031" lon="-1.08998">
        <ele>100.2</ele>
        <time>2022-08-27T16:04:52Z</time>
      </trkpt>
      <trkpt lat="48.56022" lon="-1.08999">
        <ele>101</ele>
        <time>2022-08-27T16:04:56Z</time>
      </trkpt>
      <trkpt lat="48.56005" lon="-1.09">
        <ele>102</ele>
        <time>2022-08-27T16:05:02Z</time>
      </trkpt>
      <trkpt lat="48.55994" lon="-1.09001">
        <ele>102.4</ele>
        <time>2022-08-27T16:05:07Z</time>
      </trkpt>
      <trkpt lat="48.55978" lon="-1.09">
        <ele>103.4</ele>
        <time>2022-08-27T16:05:14Z</time>
      </trkpt>
      <trkpt lat="48.55956" lon="-1.09001">
        <ele>104.4</ele>
        <time>2022-08-27T16:05:22Z</time>
      </trkpt>
      <trkpt lat="48.55934" lon="-1.09006">
        <ele>105.4</ele>
        <time>2022-08-27T16:05:31Z</time>
      </trkpt>
      <trkpt lat="48.5592" lon="-1.09006">
        <ele>106</ele>
        <time>2022-08-27T16:05:36Z</time>
      </trkpt>
      <trkpt lat="48.55905" lon="-1.09007">
        <ele>106.6</ele>
        <time>2022-08-27T16:05:42Z</time>
      </trkpt>
      <trkpt lat="48.5589" lon="-1.0901">
        <ele>107.8</ele>
        <time>2022-08-27T16:05:48Z</time>
      </trkpt>
      <trkpt lat="48.55882" lon="-1.09014">
        <ele>108.8</ele>
        <time>2022-08-27T16:05:53Z</time>
      </trkpt>
      <trkpt lat="48.5587" lon="-1.09017">
        <ele>109.8</ele>
        <time>2022-08-27T16:05:58Z</time>
      </trkpt>
      <trkpt lat="48.55866" lon="-1.09018">
        <ele>110</ele>
        <time>2022-08-27T16:06:00Z</time>
      </trkpt>
      <trkpt lat="48.55861" lon="-1.0902">
        <ele>110.4</ele>
        <time>2022-08-27T16:06:02Z</time>
      </trkpt>
      <trkpt lat="48.55851" lon="-1.09024">
        <ele>111</ele>
        <time>2022-08-27T16:06:06Z</time>
      </trkpt>
      <trkpt lat="48.55838" lon="-1.0903">
        <ele>112</ele>
        <time>2022-08-27T16:06:12Z</time>
      </trkpt>
      <trkpt lat="48.55822" lon="-1.09038">
        <ele>112.8</ele>
        <time>2022-08-27T16:06:19Z</time>
      </trkpt>
      <trkpt lat="48.5582" lon="-1.09039">
        <ele>113</ele>
        <time>2022-08-27T16:06:20Z</time>
      </trkpt>
      <trkpt lat="48.55805" lon="-1.09046">
        <ele>113.6</ele>
        <time>2022-08-27T16:06:27Z</time>
      </trkpt>
      <trkpt lat="48.5579" lon="-1.09056">
        <ele>114.4</ele>
        <time>2022-08-27T16:06:34Z</time>
      </trkpt>
      <trkpt lat="48.55787" lon="-1.09058">
        <ele>114.6</ele>
        <time>2022-08-27T16:06:36Z</time>
      </trkpt>
      <trkpt lat="48.5578" lon="-1.09062">
        <ele>115</ele>
        <time>2022-08-27T16:06:40Z</time>
      </trkpt>
      <trkpt lat="48.55769" lon="-1.09067">
        <ele>115.6</ele>
        <time>2022-08-27T16:06:46Z</time>
      </trkpt>
      <trkpt lat="48.55755" lon="-1.09075">
        <ele>116.2</ele>
        <time>2022-08-27T16:06:54Z</time>
      </trkpt>
      <trkpt lat="48.55746" lon="-1.0908">
        <ele>116.8</ele>
        <time>2022-08-27T16:06:59Z</time>
      </trkpt>
      <trkpt lat="48.55736" lon="-1.09085">
        <ele>117</ele>
        <time>2022-08-27T16:07:05Z</time>
      </trkpt>
      <trkpt lat="48.55724" lon="-1.09091">
        <ele>117.4</ele>
        <time>2022-08-27T16:07:11Z</time>
      </trkpt>
      <trkpt lat="48.55711" lon="-1.09096">
        <ele>117.6</ele>
        <time>2022-08-27T16:07:18Z</time>
      </trkpt>
      <trkpt lat="48.55702" lon="-1.09096">
        <ele>117.8</ele>
        <time>2022-08-27T16:07:23Z</time>
      </trkpt>
      <trkpt lat="48.55697" lon="-1.09097">
        <ele>118</ele>
        <time>2022-08-27T16:07:26Z</time>
      </trkpt>
      <trkpt lat="48.55694" lon="-1.09097">
        <ele>118</ele>
        <time>2022-08-27T16:07:28Z</time>
      </trkpt>
      <trkpt lat="48.55681" lon="-1.09095">
        <ele>118.6</ele>
        <time>2022-08-27T16:07:34Z</time>
      </trkpt>
      <trkpt lat="48.55666" lon="-1.09097">
        <ele>119</ele>
        <time>2022-08-27T16:07:42Z</time>
      </trkpt>
      <trkpt lat="48.55657" lon="-1.091">
        <ele>119</ele>
        <time>2022-08-27T16:07:47Z</time>
      </trkpt>
      <trkpt lat="48.55644" lon="-1.09102">
        <ele>119.6</ele>
        <time>2022-08-27T16:07:53Z</time>
      </trkpt>
      <trkpt lat="48.55624" lon="-1.09107">
        <ele>120.6</ele>
        <time>2022-08-27T16:08:02Z</time>
      </trkpt>
      <trkpt lat="48.55613" lon="-1.0911">
        <ele>121.4</ele>
        <time>2022-08-27T16:08:08Z</time>
      </trkpt>
      <trkpt lat="48.55591" lon="-1.09115">
        <ele>123.4</ele>
        <time>2022-08-27T16:08:18Z</time>
      </trkpt>
      <trkpt lat="48.55574" lon="-1.09117">
        <ele>125</ele>
        <time>2022-08-27T16:08:26Z</time>
      </trkpt>
      <trkpt lat="48.55556" lon="-1.09121">
        <ele>126.4</ele>
        <time>2022-08-27T16:08:34Z</time>
      </trkpt>
      <trkpt lat="48.55539" lon="-1.09125">
        <ele>127.6</ele>
        <time>2022-08-27T16:08:42Z</time>
      </trkpt>
      <trkpt lat="48.55523" lon="-1.09129">
        <ele>129.4</ele>
        <time>2022-08-27T16:08:50Z</time>
      </trkpt>
      <trkpt lat="48.55515" lon="-1.09143">
        <ele>130.6</ele>
        <time>2022-08-27T16:08:56Z</time>
      </trkpt>
      <trkpt lat="48.55511" lon="-1.09167">
        <ele>132</ele>
        <time>2022-08-27T16:09:03Z</time>
      </trkpt>
      <trkpt lat="48.55509" lon="-1.09169">
        <ele>132.2</ele>
        <time>2022-08-27T16:09:04Z</time>
      </trkpt>
      <trkpt lat="48.55504" lon="-1.0917">
        <ele>132.6</ele>
        <time>2022-08-27T16:09:06Z</time>
      </trkpt>
      <trkpt lat="48.55481" lon="-1.09161">
        <ele>133.8</ele>
        <time>2022-08-27T16:09:15Z</time>
      </trkpt>
      <trkpt lat="48.55463" lon="-1.09155">
        <ele>135</ele>
        <time>2022-08-27T16:09:22Z</time>
      </trkpt>
      <trkpt lat="48.55447" lon="-1.09152">
        <ele>136</ele>
        <time>2022-08-27T16:09:28Z</time>
      </trkpt>
      <trkpt lat="48.55432" lon="-1.0915">
        <ele>137.2</ele>
        <time>2022-08-27T16:09:34Z</time>
      </trkpt>
      <trkpt lat="48.5541" lon="-1.09148">
        <ele>138.2</ele>
        <time>2022-08-27T16:09:41Z</time>
      </trkpt>
      <trkpt lat="48.55389" lon="-1.09148">
        <ele>139</ele>
        <time>2022-08-27T16:09:47Z</time>
      </trkpt>
      <trkpt lat="48.55365" lon="-1.09145">
        <ele>139.6</ele>
        <time>2022-08-27T16:09:53Z</time>
      </trkpt>
      <trkpt lat="48.55347" lon="-1.09136">
        <ele>140.2</ele>
        <time>2022-08-27T16:09:57Z</time>
      </trkpt>
      <trkpt lat="48.55343" lon="-1.09137">
        <ele>140.2</ele>
        <time>2022-08-27T16:09:58Z</time>
      </trkpt>
      <trkpt lat="48.55331" lon="-1.09151">
        <ele>140.8</ele>
        <time>2022-08-27T16:10:02Z</time>
      </trkpt>
      <trkpt lat="48.55315" lon="-1.09178">
        <ele>141.6</ele>
        <time>2022-08-27T16:10:09Z</time>
      </trkpt>
      <trkpt lat="48.55297" lon="-1.09214">
        <ele>142.8</ele>
        <time>2022-08-27T16:10:17Z</time>
      </trkpt>
      <trkpt lat="48.55296" lon="-1.09231">
        <ele>143.4</ele>
        <time>2022-08-27T16:10:20Z</time>
      </trkpt>
      <trkpt lat="48.55296" lon="-1.09237">
        <ele>143.6</ele>
        <time>2022-08-27T16:10:21Z</time>
      </trkpt>
      <trkpt lat="48.55304" lon="-1.09278">
        <ele>145</ele>
        <time>2022-08-27T16:10:28Z</time>
      </trkpt>
      <trkpt lat="48.5531" lon="-1.09296">
        <ele>145.6</ele>
        <time>2022-08-27T16:10:32Z</time>
      </trkpt>
      <trkpt lat="48.55309" lon="-1.093">
        <ele>145.8</ele>
        <time>2022-08-27T16:10:33Z</time>
      </trkpt>
      <trkpt lat="48.55308" lon="-1.09303">
        <ele>146</ele>
        <time>2022-08-27T16:10:34Z</time>
      </trkpt>
      <trkpt lat="48.55302" lon="-1.09305">
        <ele>146.4</ele>
        <time>2022-08-27T16:10:36Z</time>
      </trkpt>
      <trkpt lat="48.55277" lon="-1.09302">
        <ele>147.6</ele>
        <time>2022-08-27T16:10:43Z</time>
      </trkpt>
      <trkpt lat="48.55248" lon="-1.09298">
        <ele>148.8</ele>
        <time>2022-08-27T16:10:50Z</time>
      </trkpt>
      <trkpt lat="48.55213" lon="-1.09293">
        <ele>149.8</ele>
        <time>2022-08-27T16:10:57Z</time>
      </trkpt>
      <trkpt lat="48.55162" lon="-1.09286">
        <ele>151.2</ele>
        <time>2022-08-27T16:11:07Z</time>
      </trkpt>
      <trkpt lat="48.55117" lon="-1.0928">
        <ele>152.4</ele>
        <time>2022-08-27T16:11:16Z</time>
      </trkpt>
      <trkpt lat="48.55064" lon="-1.09273">
        <ele>153.8</ele>
        <time>2022-08-27T16:11:26Z</time>
      </trkpt>
      <trkpt lat="48.55022" lon="-1.09266">
        <ele>155</ele>
        <time>2022-08-27T16:11:35Z</time>
      </trkpt>
      <trkpt lat="48.54977" lon="-1.0926">
        <ele>157</ele>
        <time>2022-08-27T16:11:45Z</time>
      </trkpt>
      <trkpt lat="48.54938" lon="-1.09254">
        <ele>158.6</ele>
        <time>2022-08-27T16:11:54Z</time>
      </trkpt>
      <trkpt lat="48.549" lon="-1.09249">
        <ele>160.2</ele>
        <time>2022-08-27T16:12:03Z</time>
      </trkpt>
      <trkpt lat="48.54861" lon="-1.09244">
        <ele>161.6</ele>
        <time>2022-08-27T16:12:12Z</time>
      </trkpt>
      <trkpt lat="48.54821" lon="-1.09237">
        <ele>163.2</ele>
        <time>2022-08-27T16:12:21Z</time>
      </trkpt>
      <trkpt lat="48.54782" lon="-1.09232">
        <ele>164.4</ele>
        <time>2022-08-27T16:12:30Z</time>
      </trkpt>
      <trkpt lat="48.54745" lon="-1.09225">
        <ele>165.2</ele>
        <time>2022-08-27T16:12:38Z</time>
      </trkpt>
      <trkpt lat="48.54705" lon="-1.09219">
        <ele>166</ele>
        <time>2022-08-27T16:12:46Z</time>
      </trkpt>
      <trkpt lat="48.54701" lon="-1.09218">
        <ele>166</ele>
        <time>2022-08-27T16:12:47Z</time>
      </trkpt>
      <trkpt lat="48.54684" lon="-1.09217">
        <ele>166.2</ele>
        <time>2022-08-27T16:12:51Z</time>
      </trkpt>
      <trkpt lat="48.54659" lon="-1.09216">
        <ele>166.6</ele>
        <time>2022-08-27T16:12:58Z</time>
      </trkpt>
      <trkpt lat="48.5465" lon="-1.09213">
        <ele>166.8</ele>
        <time>2022-08-27T16:13:01Z</time>
      </trkpt>
      <trkpt lat="48.5465" lon="-1.09203">
        <ele>167</ele>
        <time>2022-08-27T16:13:03Z</time>
      </trkpt>
      <trkpt lat="48.54651" lon="-1.09185">
        <ele>167.2</ele>
        <time>2022-08-27T16:13:07Z</time>
      </trkpt>
      <trkpt lat="48.54647" lon="-1.0917">
        <ele>167</ele>
        <time>2022-08-27T16:13:11Z</time>
      </trkpt>
      <trkpt lat="48.54646" lon="-1.09165">
        <ele>166.8</ele>
        <time>2022-08-27T16:13:12Z</time>
      </trkpt>
      <trkpt lat="48.54645" lon="-1.0916">
        <ele>166.8</ele>
        <time>2022-08-27T16:13:13Z</time>
      </trkpt>
      <trkpt lat="48.54632" lon="-1.09146">
        <ele>167.4</ele>
        <time>2022-08-27T16:13:16Z</time>
      </trkpt>
      <trkpt lat="48.54627" lon="-1.09141">
        <ele>167</ele>
        <time>2022-08-27T16:13:17Z</time>
      </trkpt>
      <trkpt lat="48.54622" lon="-1.09136">
        <ele>166.4</ele>
        <time>2022-08-27T16:13:18Z</time>
      </trkpt>
      <trkpt lat="48.54609" lon="-1.09128">
        <ele>166.2</ele>
        <time>2022-08-27T16:13:21Z</time>
      </trkpt>
      <trkpt lat="48.54589" lon="-1.09122">
        <ele>165.6</ele>
        <time>2022-08-27T16:13:26Z</time>
      </trkpt>
      <trkpt lat="48.54569" lon="-1.0912">
        <ele>165.2</ele>
        <time>2022-08-27T16:13:31Z</time>
      </trkpt>
      <trkpt lat="48.5455" lon="-1.09119">
        <ele>164.6</ele>
        <time>2022-08-27T16:13:36Z</time>
      </trkpt>
      <trkpt lat="48.54535" lon="-1.09117">
        <ele>164</ele>
        <time>2022-08-27T16:13:40Z</time>
      </trkpt>
      <trkpt lat="48.54519" lon="-1.09113">
        <ele>163.4</ele>
        <time>2022-08-27T16:13:45Z</time>
      </trkpt>
      <trkpt lat="48.545" lon="-1.09103">
        <ele>163.2</ele>
        <time>2022-08-27T16:13:51Z</time>
      </trkpt>
      <trkpt lat="48.5449" lon="-1.09094">
        <ele>162.8</ele>
        <time>2022-08-27T16:13:55Z</time>
      </trkpt>
      <trkpt lat="48.54479" lon="-1.09079">
        <ele>162.6</ele>
        <time>2022-08-27T16:14:00Z</time>
      </trkpt>
      <trkpt lat="48.54468" lon="-1.09062">
        <ele>162.8</ele>
        <time>2022-08-27T16:14:05Z</time>
      </trkpt>
      <trkpt lat="48.54457" lon="-1.09044">
        <ele>162.6</ele>
        <time>2022-08-27T16:14:10Z</time>
      </trkpt>
      <trkpt lat="48.54447" lon="-1.09026">
        <ele>163.6</ele>
        <time>2022-08-27T16:14:15Z</time>
      </trkpt>
      <trkpt lat="48.54433" lon="-1.09002">
        <ele>163.2</ele>
        <time>2022-08-27T16:14:20Z</time>
      </trkpt>
      <trkpt lat="48.54427" lon="-1.08983">
        <ele>163.6</ele>
        <time>2022-08-27T16:14:24Z</time>
      </trkpt>
      <trkpt lat="48.54428" lon="-1.08979">
        <ele>163.6</ele>
        <time>2022-08-27T16:14:25Z</time>
      </trkpt>
      <trkpt lat="48.54441" lon="-1.08957">
        <ele>164</ele>
        <time>2022-08-27T16:14:30Z</time>
      </trkpt>
      <trkpt lat="48.54444" lon="-1.08952">
        <ele>164</ele>
        <time>2022-08-27T16:14:31Z</time>
      </trkpt>
      <trkpt lat="48.54451" lon="-1.08941">
        <ele>164.2</ele>
        <time>2022-08-27T16:14:34Z</time>
      </trkpt>
      <trkpt lat="48.54452" lon="-1.08939">
        <ele>164.2</ele>
        <time>2022-08-27T16:14:35Z</time>
      </trkpt>
      <trkpt lat="48.5445" lon="-1.08936">
        <ele>164.2</ele>
        <time>2022-08-27T16:14:37Z</time>
      </trkpt>
      <trkpt lat="48.54446" lon="-1.08936">
        <ele>164.2</ele>
        <time>2022-08-27T16:14:39Z</time>
      </trkpt>
      <trkpt lat="48.54441" lon="-1.08934">
        <ele>164.4</ele>
        <time>2022-08-27T16:14:41Z</time>
      </trkpt>
      <trkpt lat="48.54419" lon="-1.08928">
        <ele>164.6</ele>
        <time>2022-08-27T16:14:47Z</time>
      </trkpt>
      <trkpt lat="48.54396" lon="-1.08919">
        <ele>164.6</ele>
        <time>2022-08-27T16:14:53Z</time>
      </trkpt>
      <trkpt lat="48.54389" lon="-1.08913">
        <ele>164.8</ele>
        <time>2022-08-27T16:14:55Z</time>
      </trkpt>
      <trkpt lat="48.54376" lon="-1.08901">
        <ele>164.8</ele>
        <time>2022-08-27T16:14:58Z</time>
      </trkpt>
      <trkpt lat="48.54348" lon="-1.08873">
        <ele>164.6</ele>
        <time>2022-08-27T16:15:03Z</time>
      </trkpt>
      <trkpt lat="48.54314" lon="-1.08853">
        <ele>164.8</ele>
        <time>2022-08-27T16:15:08Z</time>
      </trkpt>
      <trkpt lat="48.54307" lon="-1.08851">
        <ele>164.6</ele>
        <time>2022-08-27T16:15:09Z</time>
      </trkpt>
      <trkpt lat="48.54289" lon="-1.08841">
        <ele>164.8</ele>
        <time>2022-08-27T16:15:12Z</time>
      </trkpt>
      <trkpt lat="48.54277" lon="-1.08836">
        <ele>164.6</ele>
        <time>2022-08-27T16:15:14Z</time>
      </trkpt>
      <trkpt lat="48.54259" lon="-1.08824">
        <ele>164.2</ele>
        <time>2022-08-27T16:15:17Z</time>
      </trkpt>
      <trkpt lat="48.54229" lon="-1.08807">
        <ele>163.8</ele>
        <time>2022-08-27T16:15:22Z</time>
      </trkpt>
      <trkpt lat="48.5422" lon="-1.08811">
        <ele>163.4</ele>
        <time>2022-08-27T16:15:24Z</time>
      </trkpt>
      <trkpt lat="48.54212" lon="-1.08817">
        <ele>163.2</ele>
        <time>2022-08-27T16:15:26Z</time>
      </trkpt>
      <trkpt lat="48.54204" lon="-1.08819">
        <ele>162.8</ele>
        <time>2022-08-27T16:15:28Z</time>
      </trkpt>
      <trkpt lat="48.54185" lon="-1.08823">
        <ele>162.2</ele>
        <time>2022-08-27T16:15:32Z</time>
      </trkpt>
      <trkpt lat="48.54171" lon="-1.08826">
        <ele>162</ele>
        <time>2022-08-27T16:15:35Z</time>
      </trkpt>
      <trkpt lat="48.54161" lon="-1.08827">
        <ele>161.8</ele>
        <time>2022-08-27T16:15:37Z</time>
      </trkpt>
      <trkpt lat="48.54142" lon="-1.08831">
        <ele>161.6</ele>
        <time>2022-08-27T16:15:41Z</time>
      </trkpt>
      <trkpt lat="48.5411" lon="-1.08837">
        <ele>161.2</ele>
        <time>2022-08-27T16:15:48Z</time>
      </trkpt>
      <trkpt lat="48.54095" lon="-1.08829">
        <ele>160.8</ele>
        <time>2022-08-27T16:15:52Z</time>
      </trkpt>
      <trkpt lat="48.54079" lon="-1.0882">
        <ele>160.6</ele>
        <time>2022-08-27T16:15:57Z</time>
      </trkpt>
      <trkpt lat="48.54063" lon="-1.08813">
        <ele>161</ele>
        <time>2022-08-27T16:16:03Z</time>
      </trkpt>
      <trkpt lat="48.54041" lon="-1.08804">
        <ele>161.2</ele>
        <time>2022-08-27T16:16:11Z</time>
      </trkpt>
      <trkpt lat="48.54027" lon="-1.08798">
        <ele>161.6</ele>
        <time>2022-08-27T16:16:16Z</time>
      </trkpt>
      <trkpt lat="48.54013" lon="-1.08788">
        <ele>161.6</ele>
        <time>2022-08-27T16:16:22Z</time>
      </trkpt>
      <trkpt lat="48.54001" lon="-1.0878">
        <ele>161.8</ele>
        <time>2022-08-27T16:16:27Z</time>
      </trkpt>
      <trkpt lat="48.53989" lon="-1.08774">
        <ele>162</ele>
        <time>2022-08-27T16:16:32Z</time>
      </trkpt>
      <trkpt lat="48.5397" lon="-1.08766">
        <ele>162.6</ele>
        <time>2022-08-27T16:16:39Z</time>
      </trkpt>
      <trkpt lat="48.53955" lon="-1.08758">
        <ele>162.8</ele>
        <time>2022-08-27T16:16:44Z</time>
      </trkpt>
      <trkpt lat="48.53942" lon="-1.0875">
        <ele>163</ele>
        <time>2022-08-27T16:16:49Z</time>
      </trkpt>
      <trkpt lat="48.53926" lon="-1.08742">
        <ele>163.6</ele>
        <time>2022-08-27T16:16:55Z</time>
      </trkpt>
      <trkpt lat="48.53911" lon="-1.08737">
        <ele>164</ele>
        <time>2022-08-27T16:17:00Z</time>
      </trkpt>
      <trkpt lat="48.539" lon="-1.08734">
        <ele>164.6</ele>
        <time>2022-08-27T16:17:04Z</time>
      </trkpt>
      <trkpt lat="48.53879" lon="-1.0873">
        <ele>165.4</ele>
        <time>2022-08-27T16:17:10Z</time>
      </trkpt>
      <trkpt lat="48.53857" lon="-1.08723">
        <ele>166.4</ele>
        <time>2022-08-27T16:17:17Z</time>
      </trkpt>
      <trkpt lat="48.53839" lon="-1.08719">
        <ele>167</ele>
        <time>2022-08-27T16:17:23Z</time>
      </trkpt>
      <trkpt lat="48.53813" lon="-1.08714">
        <ele>167.8</ele>
        <time>2022-08-27T16:17:31Z</time>
      </trkpt>
      <trkpt lat="48.53795" lon="-1.08713">
        <ele>168.4</ele>
        <time>2022-08-27T16:17:36Z</time>
      </trkpt>
      <trkpt lat="48.53775" lon="-1.08713">
        <ele>168.8</ele>
        <time>2022-08-27T16:17:41Z</time>
      </trkpt>
      <trkpt lat="48.53743" lon="-1.08718">
        <ele>169.2</ele>
        <time>2022-08-27T16:17:48Z</time>
      </trkpt>
      <trkpt lat="48.53704" lon="-1.08728">
        <ele>169.2</ele>
        <time>2022-08-27T16:17:56Z</time>
      </trkpt>
      <trkpt lat="48.53673" lon="-1.08735">
        <ele>169</ele>
        <time>2022-08-27T16:18:03Z</time>
      </trkpt>
      <trkpt lat="48.53664" lon="-1.08735">
        <ele>169</ele>
        <time>2022-08-27T16:18:05Z</time>
      </trkpt>
      <trkpt lat="48.53651" lon="-1.08733">
        <ele>169.2</ele>
        <time>2022-08-27T16:18:08Z</time>
      </trkpt>
      <trkpt lat="48.53646" lon="-1.08732">
        <ele>169.2</ele>
        <time>2022-08-27T16:18:09Z</time>
      </trkpt>
      <trkpt lat="48.53616" lon="-1.08726">
        <ele>169</ele>
        <time>2022-08-27T16:18:16Z</time>
      </trkpt>
      <trkpt lat="48.536" lon="-1.08725">
        <ele>169</ele>
        <time>2022-08-27T16:18:20Z</time>
      </trkpt>
      <trkpt lat="48.53578" lon="-1.08722">
        <ele>169</ele>
        <time>2022-08-27T16:18:25Z</time>
      </trkpt>
      <trkpt lat="48.53561" lon="-1.08722">
        <ele>168.8</ele>
        <time>2022-08-27T16:18:29Z</time>
      </trkpt>
      <trkpt lat="48.5355" lon="-1.08723">
        <ele>169</ele>
        <time>2022-08-27T16:18:32Z</time>
      </trkpt>
      <trkpt lat="48.53542" lon="-1.08724">
        <ele>169.2</ele>
        <time>2022-08-27T16:18:34Z</time>
      </trkpt>
      <trkpt lat="48.53532" lon="-1.08724">
        <ele>169.2</ele>
        <time>2022-08-27T16:18:36Z</time>
      </trkpt>
      <trkpt lat="48.53522" lon="-1.08726">
        <ele>169.2</ele>
        <time>2022-08-27T16:18:38Z</time>
      </trkpt>
      <trkpt lat="48.53506" lon="-1.08728">
        <ele>169.4</ele>
        <time>2022-08-27T16:18:41Z</time>
      </trkpt>
      <trkpt lat="48.53464" lon="-1.08728">
        <ele>169.4</ele>
        <time>2022-08-27T16:18:48Z</time>
      </trkpt>
      <trkpt lat="48.53421" lon="-1.0873">
        <ele>169.4</ele>
        <time>2022-08-27T16:18:56Z</time>
      </trkpt>
      <trkpt lat="48.53407" lon="-1.0874">
        <ele>169.4</ele>
        <time>2022-08-27T16:19:00Z</time>
      </trkpt>
      <trkpt lat="48.53392" lon="-1.08751">
        <ele>169.6</ele>
        <time>2022-08-27T16:19:05Z</time>
      </trkpt>
      <trkpt lat="48.53387" lon="-1.08751">
        <ele>169.2</ele>
        <time>2022-08-27T16:19:06Z</time>
      </trkpt>
      <trkpt lat="48.53384" lon="-1.08749">
        <ele>169.2</ele>
        <time>2022-08-27T16:19:07Z</time>
      </trkpt>
      <trkpt lat="48.53384" lon="-1.08745">
        <ele>169.2</ele>
        <time>2022-08-27T16:19:08Z</time>
      </trkpt>
      <trkpt lat="48.53389" lon="-1.08734">
        <ele>168.6</ele>
        <time>2022-08-27T16:19:11Z</time>
      </trkpt>
      <trkpt lat="48.53394" lon="-1.08728">
        <ele>168.4</ele>
        <time>2022-08-27T16:19:13Z</time>
      </trkpt>
      <trkpt lat="48.53394" lon="-1.08723">
        <ele>168.2</ele>
        <time>2022-08-27T16:19:14Z</time>
      </trkpt>
      <trkpt lat="48.53393" lon="-1.08719">
        <ele>168</ele>
        <time>2022-08-27T16:19:15Z</time>
      </trkpt>
      <trkpt lat="48.53392" lon="-1.08714">
        <ele>167.8</ele>
        <time>2022-08-27T16:19:17Z</time>
      </trkpt>
      <trkpt lat="48.5339" lon="-1.08711">
        <ele>167.6</ele>
        <time>2022-08-27T16:19:18Z</time>
      </trkpt>
      <trkpt lat="48.53388" lon="-1.08707">
        <ele>167.4</ele>
        <time>2022-08-27T16:19:20Z</time>
      </trkpt>
      <trkpt lat="48.53386" lon="-1.08701">
        <ele>167</ele>
        <time>2022-08-27T16:19:22Z</time>
      </trkpt>
      <trkpt lat="48.53369" lon="-1.08672">
        <ele>166</ele>
        <time>2022-08-27T16:19:29Z</time>
      </trkpt>
      <trkpt lat="48.53351" lon="-1.08643">
        <ele>165.4</ele>
        <time>2022-08-27T16:19:35Z</time>
      </trkpt>
      <trkpt lat="48.53332" lon="-1.08617">
        <ele>165</ele>
        <time>2022-08-27T16:19:41Z</time>
      </trkpt>
      <trkpt lat="48.53311" lon="-1.08595">
        <ele>164.4</ele>
        <time>2022-08-27T16:19:47Z</time>
      </trkpt>
      <trkpt lat="48.53306" lon="-1.08591">
        <ele>164.2</ele>
        <time>2022-08-27T16:19:48Z</time>
      </trkpt>
      <trkpt lat="48.53292" lon="-1.08579">
        <ele>164</ele>
        <time>2022-08-27T16:19:51Z</time>
      </trkpt>
      <trkpt lat="48.53268" lon="-1.08556">
        <ele>163.2</ele>
        <time>2022-08-27T16:19:56Z</time>
      </trkpt>
      <trkpt lat="48.53251" lon="-1.08545">
        <ele>162.6</ele>
        <time>2022-08-27T16:20:00Z</time>
      </trkpt>
      <trkpt lat="48.53229" lon="-1.08534">
        <ele>162.2</ele>
        <time>2022-08-27T16:20:05Z</time>
      </trkpt>
      <trkpt lat="48.53206" lon="-1.08527">
        <ele>162</ele>
        <time>2022-08-27T16:20:10Z</time>
      </trkpt>
      <trkpt lat="48.53185" lon="-1.0852">
        <ele>161.8</ele>
        <time>2022-08-27T16:20:14Z</time>
      </trkpt>
      <trkpt lat="48.53173" lon="-1.08514">
        <ele>161.6</ele>
        <time>2022-08-27T16:20:16Z</time>
      </trkpt>
      <trkpt lat="48.53161" lon="-1.0851">
        <ele>161.6</ele>
        <time>2022-08-27T16:20:18Z</time>
      </trkpt>
      <trkpt lat="48.53143" lon="-1.08506">
        <ele>161.6</ele>
        <time>2022-08-27T16:20:21Z</time>
      </trkpt>
      <trkpt lat="48.53113" lon="-1.08499">
        <ele>161.8</ele>
        <time>2022-08-27T16:20:26Z</time>
      </trkpt>
      <trkpt lat="48.53106" lon="-1.08498">
        <ele>161.8</ele>
        <time>2022-08-27T16:20:27Z</time>
      </trkpt>
      <trkpt lat="48.53076" lon="-1.08497">
        <ele>161.8</ele>
        <time>2022-08-27T16:20:32Z</time>
      </trkpt>
      <trkpt lat="48.53048" lon="-1.08501">
        <ele>162</ele>
        <time>2022-08-27T16:20:37Z</time>
      </trkpt>
      <trkpt lat="48.53014" lon="-1.08511">
        <ele>161.4</ele>
        <time>2022-08-27T16:20:43Z</time>
      </trkpt>
      <trkpt lat="48.52982" lon="-1.08525">
        <ele>161</ele>
        <time>2022-08-27T16:20:49Z</time>
      </trkpt>
      <trkpt lat="48.52968" lon="-1.08532">
        <ele>160.8</ele>
        <time>2022-08-27T16:20:52Z</time>
      </trkpt>
      <trkpt lat="48.52945" lon="-1.08549">
        <ele>160.8</ele>
        <time>2022-08-27T16:20:57Z</time>
      </trkpt>
      <trkpt lat="48.52925" lon="-1.08564">
        <ele>160.6</ele>
        <time>2022-08-27T16:21:01Z</time>
      </trkpt>
      <trkpt lat="48.52909" lon="-1.08578">
        <ele>160.6</ele>
        <time>2022-08-27T16:21:04Z</time>
      </trkpt>
      <trkpt lat="48.52889" lon="-1.08598">
        <ele>160.4</ele>
        <time>2022-08-27T16:21:08Z</time>
      </trkpt>
      <trkpt lat="48.52884" lon="-1.08602">
        <ele>160.6</ele>
        <time>2022-08-27T16:21:09Z</time>
      </trkpt>
      <trkpt lat="48.52863" lon="-1.08619">
        <ele>160.6</ele>
        <time>2022-08-27T16:21:13Z</time>
      </trkpt>
      <trkpt lat="48.52834" lon="-1.08645">
        <ele>160.4</ele>
        <time>2022-08-27T16:21:19Z</time>
      </trkpt>
      <trkpt lat="48.52805" lon="-1.0867">
        <ele>160.4</ele>
        <time>2022-08-27T16:21:25Z</time>
      </trkpt>
      <trkpt lat="48.52771" lon="-1.08699">
        <ele>161</ele>
        <time>2022-08-27T16:21:32Z</time>
      </trkpt>
      <trkpt lat="48.5273" lon="-1.08736">
        <ele>161.8</ele>
        <time>2022-08-27T16:21:40Z</time>
      </trkpt>
      <trkpt lat="48.52696" lon="-1.08768">
        <ele>162</ele>
        <time>2022-08-27T16:21:47Z</time>
      </trkpt>
      <trkpt lat="48.52691" lon="-1.08772">
        <ele>162</ele>
        <time>2022-08-27T16:21:48Z</time>
      </trkpt>
      <trkpt lat="48.52673" lon="-1.08789">
        <ele>162</ele>
        <time>2022-08-27T16:21:52Z</time>
      </trkpt>
      <trkpt lat="48.52632" lon="-1.08824">
        <ele>162.4</ele>
        <time>2022-08-27T16:22:01Z</time>
      </trkpt>
      <trkpt lat="48.52592" lon="-1.0886">
        <ele>163</ele>
        <time>2022-08-27T16:22:10Z</time>
      </trkpt>
      <trkpt lat="48.5258" lon="-1.08872">
        <ele>163</ele>
        <time>2022-08-27T16:22:13Z</time>
      </trkpt>
      <trkpt lat="48.52573" lon="-1.08876">
        <ele>163.2</ele>
        <time>2022-08-27T16:22:15Z</time>
      </trkpt>
      <trkpt lat="48.5256" lon="-1.0888">
        <ele>163.4</ele>
        <time>2022-08-27T16:22:19Z</time>
      </trkpt>
      <trkpt lat="48.52551" lon="-1.08892">
        <ele>163.6</ele>
        <time>2022-08-27T16:22:24Z</time>
      </trkpt>
      <trkpt lat="48.52542" lon="-1.08902">
        <ele>163.6</ele>
        <time>2022-08-27T16:22:28Z</time>
      </trkpt>
      <trkpt lat="48.52523" lon="-1.08922">
        <ele>163.8</ele>
        <time>2022-08-27T16:22:33Z</time>
      </trkpt>
      <trkpt lat="48.52504" lon="-1.08936">
        <ele>164.2</ele>
        <time>2022-08-27T16:22:38Z</time>
      </trkpt>
      <trkpt lat="48.525" lon="-1.08939">
        <ele>164.2</ele>
        <time>2022-08-27T16:22:39Z</time>
      </trkpt>
      <trkpt lat="48.52457" lon="-1.08976">
        <ele>164.8</ele>
        <time>2022-08-27T16:22:49Z</time>
      </trkpt>
      <trkpt lat="48.52418" lon="-1.09009">
        <ele>165</ele>
        <time>2022-08-27T16:22:57Z</time>
      </trkpt>
      <trkpt lat="48.5237" lon="-1.09052">
        <ele>165.4</ele>
        <time>2022-08-27T16:23:07Z</time>
      </trkpt>
      <trkpt lat="48.52325" lon="-1.09091">
        <ele>165.6</ele>
        <time>2022-08-27T16:23:16Z</time>
      </trkpt>
      <trkpt lat="48.52285" lon="-1.09128">
        <ele>165.8</ele>
        <time>2022-08-27T16:23:24Z</time>
      </trkpt>
      <trkpt lat="48.52255" lon="-1.09156">
        <ele>165.8</ele>
        <time>2022-08-27T16:23:30Z</time>
      </trkpt>
      <trkpt lat="48.52233" lon="-1.09181">
        <ele>165.8</ele>
        <time>2022-08-27T16:23:35Z</time>
      </trkpt>
      <trkpt lat="48.52229" lon="-1.09185">
        <ele>165.8</ele>
        <time>2022-08-27T16:23:36Z</time>
      </trkpt>
      <trkpt lat="48.52226" lon="-1.09189">
        <ele>165.8</ele>
        <time>2022-08-27T16:23:37Z</time>
      </trkpt>
      <trkpt lat="48.52218" lon="-1.092">
        <ele>166</ele>
        <time>2022-08-27T16:23:40Z</time>
      </trkpt>
      <trkpt lat="48.52204" lon="-1.09224">
        <ele>166</ele>
        <time>2022-08-27T16:23:45Z</time>
      </trkpt>
      <trkpt lat="48.5219" lon="-1.09244">
        <ele>166</ele>
        <time>2022-08-27T16:23:49Z</time>
      </trkpt>
      <trkpt lat="48.52187" lon="-1.0925">
        <ele>166</ele>
        <time>2022-08-27T16:23:50Z</time>
      </trkpt>
      <trkpt lat="48.52168" lon="-1.09286">
        <ele>166.2</ele>
        <time>2022-08-27T16:23:56Z</time>
      </trkpt>
      <trkpt lat="48.52152" lon="-1.09323">
        <ele>166.4</ele>
        <time>2022-08-27T16:24:02Z</time>
      </trkpt>
      <trkpt lat="48.52147" lon="-1.09335">
        <ele>166.6</ele>
        <time>2022-08-27T16:24:04Z</time>
      </trkpt>
      <trkpt lat="48.52145" lon="-1.09342">
        <ele>166.6</ele>
        <time>2022-08-27T16:24:05Z</time>
      </trkpt>
      <trkpt lat="48.5214" lon="-1.09357">
        <ele>166.8</ele>
        <time>2022-08-27T16:24:07Z</time>
      </trkpt>
      <trkpt lat="48.52136" lon="-1.09371">
        <ele>167.2</ele>
        <time>2022-08-27T16:24:09Z</time>
      </trkpt>
      <trkpt lat="48.52131" lon="-1.09391">
        <ele>167.4</ele>
        <time>2022-08-27T16:24:12Z</time>
      </trkpt>
      <trkpt lat="48.5212" lon="-1.09434">
        <ele>167.8</ele>
        <time>2022-08-27T16:24:17Z</time>
      </trkpt>
      <trkpt lat="48.52109" lon="-1.09493">
        <ele>168.2</ele>
        <time>2022-08-27T16:24:24Z</time>
      </trkpt>
      <trkpt lat="48.52104" lon="-1.09547">
        <ele>168.4</ele>
        <time>2022-08-27T16:24:31Z</time>
      </trkpt>
      <trkpt lat="48.52103" lon="-1.09553">
        <ele>168.6</ele>
        <time>2022-08-27T16:24:32Z</time>
      </trkpt>
      <trkpt lat="48.52101" lon="-1.09571">
        <ele>168.6</ele>
        <time>2022-08-27T16:24:35Z</time>
      </trkpt>
      <trkpt lat="48.521" lon="-1.096">
        <ele>169</ele>
        <time>2022-08-27T16:24:41Z</time>
      </trkpt>
      <trkpt lat="48.52099" lon="-1.09616">
        <ele>169.2</ele>
        <time>2022-08-27T16:24:45Z</time>
      </trkpt>
      <trkpt lat="48.52099" lon="-1.09628">
        <ele>169.4</ele>
        <time>2022-08-27T16:24:47Z</time>
      </trkpt>
      <trkpt lat="48.52099" lon="-1.0964">
        <ele>169.4</ele>
        <time>2022-08-27T16:24:49Z</time>
      </trkpt>
      <trkpt lat="48.52095" lon="-1.09673">
        <ele>169.6</ele>
        <time>2022-08-27T16:24:54Z</time>
      </trkpt>
      <trkpt lat="48.52093" lon="-1.09693">
        <ele>169.6</ele>
        <time>2022-08-27T16:24:57Z</time>
      </trkpt>
      <trkpt lat="48.52093" lon="-1.09706">
        <ele>169.6</ele>
        <time>2022-08-27T16:24:59Z</time>
      </trkpt>
      <trkpt lat="48.5209" lon="-1.09747">
        <ele>169.8</ele>
        <time>2022-08-27T16:25:05Z</time>
      </trkpt>
      <trkpt lat="48.5209" lon="-1.09753">
        <ele>169.8</ele>
        <time>2022-08-27T16:25:06Z</time>
      </trkpt>
      <trkpt lat="48.52089" lon="-1.09783">
        <ele>170</ele>
        <time>2022-08-27T16:25:10Z</time>
      </trkpt>
      <trkpt lat="48.52089" lon="-1.09791">
        <ele>170</ele>
        <time>2022-08-27T16:25:11Z</time>
      </trkpt>
      <trkpt lat="48.52089" lon="-1.09805">
        <ele>170</ele>
        <time>2022-08-27T16:25:13Z</time>
      </trkpt>
      <trkpt lat="48.52087" lon="-1.09822">
        <ele>170</ele>
        <time>2022-08-27T16:25:15Z</time>
      </trkpt>
      <trkpt lat="48.52084" lon="-1.0987">
        <ele>170.2</ele>
        <time>2022-08-27T16:25:21Z</time>
      </trkpt>
      <trkpt lat="48.52084" lon="-1.09877">
        <ele>170.2</ele>
        <time>2022-08-27T16:25:22Z</time>
      </trkpt>
      <trkpt lat="48.52083" lon="-1.09898">
        <ele>170.2</ele>
        <time>2022-08-27T16:25:25Z</time>
      </trkpt>
      <trkpt lat="48.5208" lon="-1.09951">
        <ele>170.2</ele>
        <time>2022-08-27T16:25:32Z</time>
      </trkpt>
      <trkpt lat="48.52077" lon="-1.10015">
        <ele>170.2</ele>
        <time>2022-08-27T16:25:40Z</time>
      </trkpt>
      <trkpt lat="48.52073" lon="-1.10072">
        <ele>170.2</ele>
        <time>2022-08-27T16:25:47Z</time>
      </trkpt>
      <trkpt lat="48.52069" lon="-1.1013">
        <ele>170.4</ele>
        <time>2022-08-27T16:25:54Z</time>
      </trkpt>
      <trkpt lat="48.52067" lon="-1.1018">
        <ele>170.4</ele>
        <time>2022-08-27T16:26:00Z</time>
      </trkpt>
      <trkpt lat="48.52066" lon="-1.10195">
        <ele>170.6</ele>
        <time>2022-08-27T16:26:02Z</time>
      </trkpt>
      <trkpt lat="48.52066" lon="-1.10211">
        <ele>170.6</ele>
        <time>2022-08-27T16:26:04Z</time>
      </trkpt>
      <trkpt lat="48.52063" lon="-1.10251">
        <ele>170.8</ele>
        <time>2022-08-27T16:26:09Z</time>
      </trkpt>
      <trkpt lat="48.52061" lon="-1.10297">
        <ele>171</ele>
        <time>2022-08-27T16:26:15Z</time>
      </trkpt>
      <trkpt lat="48.52058" lon="-1.10346">
        <ele>171.4</ele>
        <time>2022-08-27T16:26:21Z</time>
      </trkpt>
      <trkpt lat="48.52054" lon="-1.10402">
        <ele>171.8</ele>
        <time>2022-08-27T16:26:28Z</time>
      </trkpt>
      <trkpt lat="48.52049" lon="-1.10464">
        <ele>172.2</ele>
        <time>2022-08-27T16:26:36Z</time>
      </trkpt>
      <trkpt lat="48.52041" lon="-1.10522">
        <ele>172.6</ele>
        <time>2022-08-27T16:26:43Z</time>
      </trkpt>
      <trkpt lat="48.52027" lon="-1.10587">
        <ele>173</ele>
        <time>2022-08-27T16:26:51Z</time>
      </trkpt>
      <trkpt lat="48.52018" lon="-1.10632">
        <ele>173.4</ele>
        <time>2022-08-27T16:26:57Z</time>
      </trkpt>
      <trkpt lat="48.52008" lon="-1.1068">
        <ele>173.6</ele>
        <time>2022-08-27T16:27:03Z</time>
      </trkpt>
      <trkpt lat="48.51993" lon="-1.10744">
        <ele>174</ele>
        <time>2022-08-27T16:27:11Z</time>
      </trkpt>
      <trkpt lat="48.5198" lon="-1.10797">
        <ele>174.2</ele>
        <time>2022-08-27T16:27:18Z</time>
      </trkpt>
      <trkpt lat="48.51974" lon="-1.10827">
        <ele>174.6</ele>
        <time>2022-08-27T16:27:23Z</time>
      </trkpt>
      <trkpt lat="48.51971" lon="-1.10836">
        <ele>174.8</ele>
        <time>2022-08-27T16:27:25Z</time>
      </trkpt>
      <trkpt lat="48.51969" lon="-1.10849">
        <ele>174.8</ele>
        <time>2022-08-27T16:27:27Z</time>
      </trkpt>
      <trkpt lat="48.51966" lon="-1.10862">
        <ele>174.8</ele>
        <time>2022-08-27T16:27:29Z</time>
      </trkpt>
      <trkpt lat="48.51961" lon="-1.10882">
        <ele>175</ele>
        <time>2022-08-27T16:27:32Z</time>
      </trkpt>
      <trkpt lat="48.51955" lon="-1.10916">
        <ele>175</ele>
        <time>2022-08-27T16:27:37Z</time>
      </trkpt>
      <trkpt lat="48.51946" lon="-1.10959">
        <ele>175</ele>
        <time>2022-08-27T16:27:43Z</time>
      </trkpt>
      <trkpt lat="48.51934" lon="-1.11013">
        <ele>175.2</ele>
        <time>2022-08-27T16:27:50Z</time>
      </trkpt>
      <trkpt lat="48.51932" lon="-1.11021">
        <ele>175.2</ele>
        <time>2022-08-27T16:27:51Z</time>
      </trkpt>
      <trkpt lat="48.51917" lon="-1.11092">
        <ele>176</ele>
        <time>2022-08-27T16:28:00Z</time>
      </trkpt>
      <trkpt lat="48.51899" lon="-1.11164">
        <ele>176.4</ele>
        <time>2022-08-27T16:28:09Z</time>
      </trkpt>
      <trkpt lat="48.51882" lon="-1.11242">
        <ele>176.8</ele>
        <time>2022-08-27T16:28:19Z</time>
      </trkpt>
      <trkpt lat="48.5186" lon="-1.11318">
        <ele>177.4</ele>
        <time>2022-08-27T16:28:29Z</time>
      </trkpt>
      <trkpt lat="48.51858" lon="-1.11325">
        <ele>177.4</ele>
        <time>2022-08-27T16:28:30Z</time>
      </trkpt>
      <trkpt lat="48.51842" lon="-1.11375">
        <ele>177.8</ele>
        <time>2022-08-27T16:28:37Z</time>
      </trkpt>
      <trkpt lat="48.51822" lon="-1.11432">
        <ele>178</ele>
        <time>2022-08-27T16:28:45Z</time>
      </trkpt>
      <trkpt lat="48.51801" lon="-1.11481">
        <ele>178.2</ele>
        <time>2022-08-27T16:28:53Z</time>
      </trkpt>
      <trkpt lat="48.51799" lon="-1.11488">
        <ele>178.2</ele>
        <time>2022-08-27T16:28:54Z</time>
      </trkpt>
      <trkpt lat="48.51787" lon="-1.11513">
        <ele>178.4</ele>
        <time>2022-08-27T16:28:58Z</time>
      </trkpt>
      <trkpt lat="48.51782" lon="-1.11526">
        <ele>178.4</ele>
        <time>2022-08-27T16:29:00Z</time>
      </trkpt>
      <trkpt lat="48.51775" lon="-1.1154">
        <ele>178.6</ele>
        <time>2022-08-27T16:29:02Z</time>
      </trkpt>
      <trkpt lat="48.51764" lon="-1.11561">
        <ele>178.6</ele>
        <time>2022-08-27T16:29:05Z</time>
      </trkpt>
      <trkpt lat="48.51757" lon="-1.11577">
        <ele>178.6</ele>
        <time>2022-08-27T16:29:07Z</time>
      </trkpt>
      <trkpt lat="48.51751" lon="-1.1159">
        <ele>178.6</ele>
        <time>2022-08-27T16:29:09Z</time>
      </trkpt>
      <trkpt lat="48.51747" lon="-1.11597">
        <ele>178.8</ele>
        <time>2022-08-27T16:29:10Z</time>
      </trkpt>
      <trkpt lat="48.5174" lon="-1.11613">
        <ele>178.8</ele>
        <time>2022-08-27T16:29:12Z</time>
      </trkpt>
      <trkpt lat="48.51732" lon="-1.11627">
        <ele>178.8</ele>
        <time>2022-08-27T16:29:14Z</time>
      </trkpt>
      <trkpt lat="48.51729" lon="-1.11634">
        <ele>178.8</ele>
        <time>2022-08-27T16:29:15Z</time>
      </trkpt>
      <trkpt lat="48.51722" lon="-1.11648">
        <ele>178.8</ele>
        <time>2022-08-27T16:29:17Z</time>
      </trkpt>
      <trkpt lat="48.517" lon="-1.11691">
        <ele>178.8</ele>
        <time>2022-08-27T16:29:23Z</time>
      </trkpt>
      <trkpt lat="48.51693" lon="-1.11704">
        <ele>178.8</ele>
        <time>2022-08-27T16:29:25Z</time>
      </trkpt>
      <trkpt lat="48.51686" lon="-1.11718">
        <ele>179</ele>
        <time>2022-08-27T16:29:27Z</time>
      </trkpt>
      <trkpt lat="48.51672" lon="-1.11748">
        <ele>179</ele>
        <time>2022-08-27T16:29:31Z</time>
      </trkpt>
      <trkpt lat="48.51658" lon="-1.11776">
        <ele>178.6</ele>
        <time>2022-08-27T16:29:35Z</time>
      </trkpt>
      <trkpt lat="48.51654" lon="-1.11783">
        <ele>178.6</ele>
        <time>2022-08-27T16:29:36Z</time>
      </trkpt>
      <trkpt lat="48.51646" lon="-1.11798">
        <ele>178.6</ele>
        <time>2022-08-27T16:29:38Z</time>
      </trkpt>
      <trkpt lat="48.51643" lon="-1.11806">
        <ele>178.4</ele>
        <time>2022-08-27T16:29:39Z</time>
      </trkpt>
      <trkpt lat="48.51627" lon="-1.11837">
        <ele>178.2</ele>
        <time>2022-08-27T16:29:43Z</time>
      </trkpt>
      <trkpt lat="48.51606" lon="-1.11887">
        <ele>178</ele>
        <time>2022-08-27T16:29:49Z</time>
      </trkpt>
      <trkpt lat="48.51586" lon="-1.11941">
        <ele>178.2</ele>
        <time>2022-08-27T16:29:55Z</time>
      </trkpt>
      <trkpt lat="48.51569" lon="-1.12001">
        <ele>178</ele>
        <time>2022-08-27T16:30:01Z</time>
      </trkpt>
      <trkpt lat="48.51559" lon="-1.12054">
        <ele>178.6</ele>
        <time>2022-08-27T16:30:06Z</time>
      </trkpt>
      <trkpt lat="48.51553" lon="-1.12109">
        <ele>178.4</ele>
        <time>2022-08-27T16:30:11Z</time>
      </trkpt>
      <trkpt lat="48.51548" lon="-1.1216">
        <ele>178</ele>
        <time>2022-08-27T16:30:16Z</time>
      </trkpt>
      <trkpt lat="48.51541" lon="-1.1222">
        <ele>178</ele>
        <time>2022-08-27T16:30:22Z</time>
      </trkpt>
      <trkpt lat="48.51537" lon="-1.1225">
        <ele>177.8</ele>
        <time>2022-08-27T16:30:25Z</time>
      </trkpt>
      <trkpt lat="48.51534" lon="-1.12271">
        <ele>178</ele>
        <time>2022-08-27T16:30:27Z</time>
      </trkpt>
      <trkpt lat="48.51529" lon="-1.12309">
        <ele>177.8</ele>
        <time>2022-08-27T16:30:31Z</time>
      </trkpt>
      <trkpt lat="48.51524" lon="-1.12347">
        <ele>177.8</ele>
        <time>2022-08-27T16:30:35Z</time>
      </trkpt>
      <trkpt lat="48.51518" lon="-1.12387">
        <ele>178</ele>
        <time>2022-08-27T16:30:39Z</time>
      </trkpt>
      <trkpt lat="48.51516" lon="-1.12396">
        <ele>177.6</ele>
        <time>2022-08-27T16:30:40Z</time>
      </trkpt>
      <trkpt lat="48.51501" lon="-1.12461">
        <ele>177.6</ele>
        <time>2022-08-27T16:30:47Z</time>
      </trkpt>
      <trkpt lat="48.51497" lon="-1.12474">
        <ele>177.6</ele>
        <time>2022-08-27T16:30:49Z</time>
      </trkpt>
      <trkpt lat="48.51493" lon="-1.12487">
        <ele>177.4</ele>
        <time>2022-08-27T16:30:51Z</time>
      </trkpt>
      <trkpt lat="48.51477" lon="-1.12535">
        <ele>177</ele>
        <time>2022-08-27T16:30:57Z</time>
      </trkpt>
      <trkpt lat="48.51471" lon="-1.12552">
        <ele>176.8</ele>
        <time>2022-08-27T16:30:59Z</time>
      </trkpt>
      <trkpt lat="48.51464" lon="-1.12569">
        <ele>176.6</ele>
        <time>2022-08-27T16:31:01Z</time>
      </trkpt>
      <trkpt lat="48.51445" lon="-1.12612">
        <ele>176</ele>
        <time>2022-08-27T16:31:06Z</time>
      </trkpt>
      <trkpt lat="48.51439" lon="-1.12628">
        <ele>175.8</ele>
        <time>2022-08-27T16:31:08Z</time>
      </trkpt>
      <trkpt lat="48.51431" lon="-1.12644">
        <ele>175.6</ele>
        <time>2022-08-27T16:31:10Z</time>
      </trkpt>
      <trkpt lat="48.51403" lon="-1.12689">
        <ele>174.8</ele>
        <time>2022-08-27T16:31:16Z</time>
      </trkpt>
      <trkpt lat="48.51392" lon="-1.12704">
        <ele>174.6</ele>
        <time>2022-08-27T16:31:18Z</time>
      </trkpt>
      <trkpt lat="48.51375" lon="-1.12726">
        <ele>174.2</ele>
        <time>2022-08-27T16:31:21Z</time>
      </trkpt>
      <trkpt lat="48.51339" lon="-1.12765">
        <ele>173</ele>
        <time>2022-08-27T16:31:27Z</time>
      </trkpt>
      <trkpt lat="48.51328" lon="-1.12776">
        <ele>172.6</ele>
        <time>2022-08-27T16:31:29Z</time>
      </trkpt>
      <trkpt lat="48.51316" lon="-1.12787">
        <ele>172.2</ele>
        <time>2022-08-27T16:31:31Z</time>
      </trkpt>
      <trkpt lat="48.51309" lon="-1.12793">
        <ele>172</ele>
        <time>2022-08-27T16:31:32Z</time>
      </trkpt>
      <trkpt lat="48.51292" lon="-1.12806">
        <ele>171.2</ele>
        <time>2022-08-27T16:31:35Z</time>
      </trkpt>
      <trkpt lat="48.5126" lon="-1.1283">
        <ele>169.6</ele>
        <time>2022-08-27T16:31:40Z</time>
      </trkpt>
      <trkpt lat="48.51236" lon="-1.12852">
        <ele>168.4</ele>
        <time>2022-08-27T16:31:44Z</time>
      </trkpt>
      <trkpt lat="48.51212" lon="-1.12872">
        <ele>167.4</ele>
        <time>2022-08-27T16:31:48Z</time>
      </trkpt>
      <trkpt lat="48.51206" lon="-1.12877">
        <ele>167.2</ele>
        <time>2022-08-27T16:31:49Z</time>
      </trkpt>
      <trkpt lat="48.51174" lon="-1.12903">
        <ele>166</ele>
        <time>2022-08-27T16:31:54Z</time>
      </trkpt>
      <trkpt lat="48.51147" lon="-1.12923">
        <ele>165.2</ele>
        <time>2022-08-27T16:31:58Z</time>
      </trkpt>
      <trkpt lat="48.5113" lon="-1.12939">
        <ele>164.4</ele>
        <time>2022-08-27T16:32:01Z</time>
      </trkpt>
      <trkpt lat="48.51117" lon="-1.12948">
        <ele>164</ele>
        <time>2022-08-27T16:32:03Z</time>
      </trkpt>
      <trkpt lat="48.5111" lon="-1.12953">
        <ele>163.6</ele>
        <time>2022-08-27T16:32:04Z</time>
      </trkpt>
      <trkpt lat="48.51104" lon="-1.12957">
        <ele>163.4</ele>
        <time>2022-08-27T16:32:05Z</time>
      </trkpt>
      <trkpt lat="48.51087" lon="-1.12969">
        <ele>162.6</ele>
        <time>2022-08-27T16:32:08Z</time>
      </trkpt>
      <trkpt lat="48.51059" lon="-1.12987">
        <ele>161.4</ele>
        <time>2022-08-27T16:32:13Z</time>
      </trkpt>
      <trkpt lat="48.51023" lon="-1.13007">
        <ele>159.8</ele>
        <time>2022-08-27T16:32:19Z</time>
      </trkpt>
      <trkpt lat="48.51017" lon="-1.13011">
        <ele>159.6</ele>
        <time>2022-08-27T16:32:20Z</time>
      </trkpt>
      <trkpt lat="48.51005" lon="-1.13017">
        <ele>159.2</ele>
        <time>2022-08-27T16:32:22Z</time>
      </trkpt>
      <trkpt lat="48.51" lon="-1.13021">
        <ele>159.2</ele>
        <time>2022-08-27T16:32:23Z</time>
      </trkpt>
      <trkpt lat="48.50989" lon="-1.13027">
        <ele>158.8</ele>
        <time>2022-08-27T16:32:25Z</time>
      </trkpt>
      <trkpt lat="48.50983" lon="-1.1303">
        <ele>158.6</ele>
        <time>2022-08-27T16:32:26Z</time>
      </trkpt>
      <trkpt lat="48.50977" lon="-1.13032">
        <ele>158.4</ele>
        <time>2022-08-27T16:32:27Z</time>
      </trkpt>
      <trkpt lat="48.50959" lon="-1.1304">
        <ele>158</ele>
        <time>2022-08-27T16:32:30Z</time>
      </trkpt>
      <trkpt lat="48.50953" lon="-1.13042">
        <ele>157.8</ele>
        <time>2022-08-27T16:32:31Z</time>
      </trkpt>
      <trkpt lat="48.50937" lon="-1.1305">
        <ele>157.4</ele>
        <time>2022-08-27T16:32:34Z</time>
      </trkpt>
      <trkpt lat="48.50913" lon="-1.13061">
        <ele>156.8</ele>
        <time>2022-08-27T16:32:39Z</time>
      </trkpt>
      <trkpt lat="48.50897" lon="-1.13068">
        <ele>156.4</ele>
        <time>2022-08-27T16:32:42Z</time>
      </trkpt>
      <trkpt lat="48.50884" lon="-1.13073">
        <ele>156.4</ele>
        <time>2022-08-27T16:32:44Z</time>
      </trkpt>
      <trkpt lat="48.50873" lon="-1.13076">
        <ele>156.2</ele>
        <time>2022-08-27T16:32:46Z</time>
      </trkpt>
      <trkpt lat="48.50861" lon="-1.1308">
        <ele>156.2</ele>
        <time>2022-08-27T16:32:48Z</time>
      </trkpt>
      <trkpt lat="48.50837" lon="-1.13085">
        <ele>156.2</ele>
        <time>2022-08-27T16:32:52Z</time>
      </trkpt>
      <trkpt lat="48.50815" lon="-1.1309">
        <ele>156.4</ele>
        <time>2022-08-27T16:32:56Z</time>
      </trkpt>
      <trkpt lat="48.50787" lon="-1.13096">
        <ele>155.4</ele>
        <time>2022-08-27T16:33:01Z</time>
      </trkpt>
      <trkpt lat="48.50781" lon="-1.13097">
        <ele>156</ele>
        <time>2022-08-27T16:33:02Z</time>
      </trkpt>
      <trkpt lat="48.50764" lon="-1.131">
        <ele>157</ele>
        <time>2022-08-27T16:33:05Z</time>
      </trkpt>
      <trkpt lat="48.50739" lon="-1.13102">
        <ele>156.8</ele>
        <time>2022-08-27T16:33:09Z</time>
      </trkpt>
      <trkpt lat="48.50732" lon="-1.13102">
        <ele>156.8</ele>
        <time>2022-08-27T16:33:10Z</time>
      </trkpt>
      <trkpt lat="48.50726" lon="-1.13102">
        <ele>156.8</ele>
        <time>2022-08-27T16:33:11Z</time>
      </trkpt>
      <trkpt lat="48.50715" lon="-1.13101">
        <ele>157</ele>
        <time>2022-08-27T16:33:13Z</time>
      </trkpt>
      <trkpt lat="48.50709" lon="-1.13101">
        <ele>157</ele>
        <time>2022-08-27T16:33:14Z</time>
      </trkpt>
      <trkpt lat="48.50687" lon="-1.13101">
        <ele>157.2</ele>
        <time>2022-08-27T16:33:18Z</time>
      </trkpt>
      <trkpt lat="48.50672" lon="-1.13102">
        <ele>157.4</ele>
        <time>2022-08-27T16:33:21Z</time>
      </trkpt>
      <trkpt lat="48.50648" lon="-1.13102">
        <ele>157.6</ele>
        <time>2022-08-27T16:33:25Z</time>
      </trkpt>
      <trkpt lat="48.50643" lon="-1.13101">
        <ele>157.6</ele>
        <time>2022-08-27T16:33:26Z</time>
      </trkpt>
      <trkpt lat="48.50631" lon="-1.131">
        <ele>157.6</ele>
        <time>2022-08-27T16:33:28Z</time>
      </trkpt>
      <trkpt lat="48.50612" lon="-1.13096">
        <ele>157.8</ele>
        <time>2022-08-27T16:33:31Z</time>
      </trkpt>
      <trkpt lat="48.50587" lon="-1.13092">
        <ele>157.8</ele>
        <time>2022-08-27T16:33:35Z</time>
      </trkpt>
      <trkpt lat="48.50576" lon="-1.13091">
        <ele>158</ele>
        <time>2022-08-27T16:33:37Z</time>
      </trkpt>
      <trkpt lat="48.50556" lon="-1.13084">
        <ele>158.2</ele>
        <time>2022-08-27T16:33:40Z</time>
      </trkpt>
      <trkpt lat="48.50517" lon="-1.13072">
        <ele>158.8</ele>
        <time>2022-08-27T16:33:46Z</time>
      </trkpt>
      <trkpt lat="48.50483" lon="-1.13059">
        <ele>159</ele>
        <time>2022-08-27T16:33:52Z</time>
      </trkpt>
      <trkpt lat="48.5046" lon="-1.13051">
        <ele>159.4</ele>
        <time>2022-08-27T16:33:56Z</time>
      </trkpt>
      <trkpt lat="48.50427" lon="-1.13037">
        <ele>160</ele>
        <time>2022-08-27T16:34:02Z</time>
      </trkpt>
      <trkpt lat="48.50394" lon="-1.13023">
        <ele>160.6</ele>
        <time>2022-08-27T16:34:08Z</time>
      </trkpt>
      <trkpt lat="48.50368" lon="-1.13011">
        <ele>161</ele>
        <time>2022-08-27T16:34:13Z</time>
      </trkpt>
      <trkpt lat="48.50348" lon="-1.13003">
        <ele>161.2</ele>
        <time>2022-08-27T16:34:17Z</time>
      </trkpt>
      <trkpt lat="48.50333" lon="-1.12995">
        <ele>161.4</ele>
        <time>2022-08-27T16:34:21Z</time>
      </trkpt>
      <trkpt lat="48.50316" lon="-1.12987">
        <ele>161.4</ele>
        <time>2022-08-27T16:34:25Z</time>
      </trkpt>
      <trkpt lat="48.50308" lon="-1.12983">
        <ele>161.6</ele>
        <time>2022-08-27T16:34:27Z</time>
      </trkpt>
      <trkpt lat="48.50295" lon="-1.12976">
        <ele>161.6</ele>
        <time>2022-08-27T16:34:30Z</time>
      </trkpt>
      <trkpt lat="48.50277" lon="-1.12968">
        <ele>161.6</ele>
        <time>2022-08-27T16:34:34Z</time>
      </trkpt>
      <trkpt lat="48.50272" lon="-1.12966">
        <ele>161.6</ele>
        <time>2022-08-27T16:34:35Z</time>
      </trkpt>
      <trkpt lat="48.50258" lon="-1.1296">
        <ele>161.6</ele>
        <time>2022-08-27T16:34:38Z</time>
      </trkpt>
      <trkpt lat="48.50253" lon="-1.12957">
        <ele>161.4</ele>
        <time>2022-08-27T16:34:39Z</time>
      </trkpt>
      <trkpt lat="48.50245" lon="-1.12953">
        <ele>161.4</ele>
        <time>2022-08-27T16:34:41Z</time>
      </trkpt>
      <trkpt lat="48.50228" lon="-1.12947">
        <ele>161.2</ele>
        <time>2022-08-27T16:34:45Z</time>
      </trkpt>
      <trkpt lat="48.50208" lon="-1.1294">
        <ele>161</ele>
        <time>2022-08-27T16:34:49Z</time>
      </trkpt>
      <trkpt lat="48.50185" lon="-1.12931">
        <ele>160.4</ele>
        <time>2022-08-27T16:34:54Z</time>
      </trkpt>
      <trkpt lat="48.50173" lon="-1.12926">
        <ele>160.2</ele>
        <time>2022-08-27T16:34:57Z</time>
      </trkpt>
      <trkpt lat="48.50153" lon="-1.12918">
        <ele>160</ele>
        <time>2022-08-27T16:35:01Z</time>
      </trkpt>
      <trkpt lat="48.50128" lon="-1.12905">
        <ele>159.8</ele>
        <time>2022-08-27T16:35:05Z</time>
      </trkpt>
      <trkpt lat="48.5011" lon="-1.12897">
        <ele>159.6</ele>
        <time>2022-08-27T16:35:08Z</time>
      </trkpt>
      <trkpt lat="48.50101" lon="-1.12895">
        <ele>159.4</ele>
        <time>2022-08-27T16:35:10Z</time>
      </trkpt>
      <trkpt lat="48.50082" lon="-1.12888">
        <ele>159</ele>
        <time>2022-08-27T16:35:14Z</time>
      </trkpt>
      <trkpt lat="48.50057" lon="-1.12877">
        <ele>158.8</ele>
        <time>2022-08-27T16:35:19Z</time>
      </trkpt>
      <trkpt lat="48.50037" lon="-1.12869">
        <ele>158.6</ele>
        <time>2022-08-27T16:35:23Z</time>
      </trkpt>
      <trkpt lat="48.50022" lon="-1.12863">
        <ele>158.6</ele>
        <time>2022-08-27T16:35:26Z</time>
      </trkpt>
      <trkpt lat="48.49993" lon="-1.12851">
        <ele>158.4</ele>
        <time>2022-08-27T16:35:31Z</time>
      </trkpt>
      <trkpt lat="48.49987" lon="-1.12849">
        <ele>158.6</ele>
        <time>2022-08-27T16:35:32Z</time>
      </trkpt>
      <trkpt lat="48.49975" lon="-1.12845">
        <ele>159.2</ele>
        <time>2022-08-27T16:35:34Z</time>
      </trkpt>
      <trkpt lat="48.4997" lon="-1.12844">
        <ele>159.8</ele>
        <time>2022-08-27T16:35:35Z</time>
      </trkpt>
      <trkpt lat="48.49951" lon="-1.12839">
        <ele>159.4</ele>
        <time>2022-08-27T16:35:38Z</time>
      </trkpt>
      <trkpt lat="48.49946" lon="-1.12837">
        <ele>159.6</ele>
        <time>2022-08-27T16:35:39Z</time>
      </trkpt>
      <trkpt lat="48.49935" lon="-1.12835">
        <ele>159.8</ele>
        <time>2022-08-27T16:35:41Z</time>
      </trkpt>
      <trkpt lat="48.49922" lon="-1.12831">
        <ele>159.8</ele>
        <time>2022-08-27T16:35:43Z</time>
      </trkpt>
      <trkpt lat="48.49876" lon="-1.12814">
        <ele>160.6</ele>
        <time>2022-08-27T16:35:50Z</time>
      </trkpt>
      <trkpt lat="48.4987" lon="-1.12813">
        <ele>160.8</ele>
        <time>2022-08-27T16:35:51Z</time>
      </trkpt>
      <trkpt lat="48.49848" lon="-1.12807">
        <ele>161.6</ele>
        <time>2022-08-27T16:35:55Z</time>
      </trkpt>
      <trkpt lat="48.49813" lon="-1.12796">
        <ele>162.2</ele>
        <time>2022-08-27T16:36:01Z</time>
      </trkpt>
      <trkpt lat="48.49788" lon="-1.12789">
        <ele>162.8</ele>
        <time>2022-08-27T16:36:06Z</time>
      </trkpt>
      <trkpt lat="48.49784" lon="-1.12788">
        <ele>163</ele>
        <time>2022-08-27T16:36:07Z</time>
      </trkpt>
      <trkpt lat="48.49775" lon="-1.12786">
        <ele>163.2</ele>
        <time>2022-08-27T16:36:09Z</time>
      </trkpt>
      <trkpt lat="48.49765" lon="-1.12784">
        <ele>163.4</ele>
        <time>2022-08-27T16:36:11Z</time>
      </trkpt>
      <trkpt lat="48.49755" lon="-1.12781">
        <ele>163.8</ele>
        <time>2022-08-27T16:36:13Z</time>
      </trkpt>
      <trkpt lat="48.49744" lon="-1.12778">
        <ele>164</ele>
        <time>2022-08-27T16:36:15Z</time>
      </trkpt>
      <trkpt lat="48.49736" lon="-1.12775">
        <ele>164.2</ele>
        <time>2022-08-27T16:36:17Z</time>
      </trkpt>
      <trkpt lat="48.49731" lon="-1.12774">
        <ele>164.4</ele>
        <time>2022-08-27T16:36:18Z</time>
      </trkpt>
      <trkpt lat="48.49726" lon="-1.12773">
        <ele>164.4</ele>
        <time>2022-08-27T16:36:19Z</time>
      </trkpt>
      <trkpt lat="48.4971" lon="-1.12768">
        <ele>164.8</ele>
        <time>2022-08-27T16:36:22Z</time>
      </trkpt>
      <trkpt lat="48.49691" lon="-1.12763">
        <ele>165.2</ele>
        <time>2022-08-27T16:36:26Z</time>
      </trkpt>
      <trkpt lat="48.4968" lon="-1.1276">
        <ele>165.4</ele>
        <time>2022-08-27T16:36:28Z</time>
      </trkpt>
      <trkpt lat="48.49669" lon="-1.12758">
        <ele>165.4</ele>
        <time>2022-08-27T16:36:30Z</time>
      </trkpt>
      <trkpt lat="48.49647" lon="-1.12753">
        <ele>165.8</ele>
        <time>2022-08-27T16:36:34Z</time>
      </trkpt>
      <trkpt lat="48.49624" lon="-1.12749">
        <ele>166.2</ele>
        <time>2022-08-27T16:36:39Z</time>
      </trkpt>
      <trkpt lat="48.49617" lon="-1.12746">
        <ele>166.2</ele>
        <time>2022-08-27T16:36:40Z</time>
      </trkpt>
      <trkpt lat="48.49591" lon="-1.12735">
        <ele>166.6</ele>
        <time>2022-08-27T16:36:44Z</time>
      </trkpt>
      <trkpt lat="48.49561" lon="-1.12722">
        <ele>167</ele>
        <time>2022-08-27T16:36:49Z</time>
      </trkpt>
      <trkpt lat="48.49554" lon="-1.12719">
        <ele>167.2</ele>
        <time>2022-08-27T16:36:50Z</time>
      </trkpt>
      <trkpt lat="48.49542" lon="-1.12713">
        <ele>167.4</ele>
        <time>2022-08-27T16:36:52Z</time>
      </trkpt>
      <trkpt lat="48.49519" lon="-1.12701">
        <ele>168</ele>
        <time>2022-08-27T16:36:56Z</time>
      </trkpt>
      <trkpt lat="48.49504" lon="-1.12692">
        <ele>168.4</ele>
        <time>2022-08-27T16:36:59Z</time>
      </trkpt>
      <trkpt lat="48.49494" lon="-1.12687">
        <ele>168.8</ele>
        <time>2022-08-27T16:37:01Z</time>
      </trkpt>
      <trkpt lat="48.49483" lon="-1.12683">
        <ele>169</ele>
        <time>2022-08-27T16:37:03Z</time>
      </trkpt>
      <trkpt lat="48.49468" lon="-1.12674">
        <ele>169.2</ele>
        <time>2022-08-27T16:37:06Z</time>
      </trkpt>
      <trkpt lat="48.49463" lon="-1.12671">
        <ele>169.2</ele>
        <time>2022-08-27T16:37:07Z</time>
      </trkpt>
      <trkpt lat="48.49445" lon="-1.12662">
        <ele>169.6</ele>
        <time>2022-08-27T16:37:10Z</time>
      </trkpt>
      <trkpt lat="48.49429" lon="-1.12653">
        <ele>169.8</ele>
        <time>2022-08-27T16:37:13Z</time>
      </trkpt>
      <trkpt lat="48.49409" lon="-1.1264">
        <ele>170.4</ele>
        <time>2022-08-27T16:37:17Z</time>
      </trkpt>
      <trkpt lat="48.49405" lon="-1.12638">
        <ele>170.6</ele>
        <time>2022-08-27T16:37:18Z</time>
      </trkpt>
      <trkpt lat="48.49378" lon="-1.12622">
        <ele>171.4</ele>
        <time>2022-08-27T16:37:23Z</time>
      </trkpt>
      <trkpt lat="48.49372" lon="-1.12619">
        <ele>171.6</ele>
        <time>2022-08-27T16:37:24Z</time>
      </trkpt>
      <trkpt lat="48.49344" lon="-1.12602">
        <ele>172.2</ele>
        <time>2022-08-27T16:37:29Z</time>
      </trkpt>
      <trkpt lat="48.49329" lon="-1.12594">
        <ele>172.2</ele>
        <time>2022-08-27T16:37:32Z</time>
      </trkpt>
      <trkpt lat="48.49309" lon="-1.12583">
        <ele>172.6</ele>
        <time>2022-08-27T16:37:36Z</time>
      </trkpt>
      <trkpt lat="48.49288" lon="-1.12576">
        <ele>172.8</ele>
        <time>2022-08-27T16:37:40Z</time>
      </trkpt>
      <trkpt lat="48.49265" lon="-1.1257">
        <ele>173.4</ele>
        <time>2022-08-27T16:37:44Z</time>
      </trkpt>
      <trkpt lat="48.49259" lon="-1.12569">
        <ele>173.6</ele>
        <time>2022-08-27T16:37:45Z</time>
      </trkpt>
      <trkpt lat="48.4923" lon="-1.12565">
        <ele>174.2</ele>
        <time>2022-08-27T16:37:50Z</time>
      </trkpt>
      <trkpt lat="48.49197" lon="-1.12564">
        <ele>174.6</ele>
        <time>2022-08-27T16:37:55Z</time>
      </trkpt>
      <trkpt lat="48.49191" lon="-1.12564">
        <ele>174.8</ele>
        <time>2022-08-27T16:37:56Z</time>
      </trkpt>
      <trkpt lat="48.49173" lon="-1.12565">
        <ele>174.8</ele>
        <time>2022-08-27T16:37:59Z</time>
      </trkpt>
      <trkpt lat="48.49168" lon="-1.12567">
        <ele>175</ele>
        <time>2022-08-27T16:38:00Z</time>
      </trkpt>
      <trkpt lat="48.49157" lon="-1.12569">
        <ele>175</ele>
        <time>2022-08-27T16:38:02Z</time>
      </trkpt>
      <trkpt lat="48.49152" lon="-1.1257">
        <ele>175</ele>
        <time>2022-08-27T16:38:03Z</time>
      </trkpt>
      <trkpt lat="48.49135" lon="-1.12575">
        <ele>175</ele>
        <time>2022-08-27T16:38:06Z</time>
      </trkpt>
      <trkpt lat="48.49129" lon="-1.12577">
        <ele>175</ele>
        <time>2022-08-27T16:38:07Z</time>
      </trkpt>
      <trkpt lat="48.49105" lon="-1.12586">
        <ele>175</ele>
        <time>2022-08-27T16:38:11Z</time>
      </trkpt>
      <trkpt lat="48.49086" lon="-1.12594">
        <ele>174.8</ele>
        <time>2022-08-27T16:38:14Z</time>
      </trkpt>
      <trkpt lat="48.4908" lon="-1.12596">
        <ele>174.8</ele>
        <time>2022-08-27T16:38:15Z</time>
      </trkpt>
      <trkpt lat="48.49048" lon="-1.1261">
        <ele>174.6</ele>
        <time>2022-08-27T16:38:20Z</time>
      </trkpt>
      <trkpt lat="48.49036" lon="-1.12616">
        <ele>174.2</ele>
        <time>2022-08-27T16:38:22Z</time>
      </trkpt>
      <trkpt lat="48.49023" lon="-1.12621">
        <ele>174.6</ele>
        <time>2022-08-27T16:38:24Z</time>
      </trkpt>
      <trkpt lat="48.48995" lon="-1.12635">
        <ele>174.2</ele>
        <time>2022-08-27T16:38:29Z</time>
      </trkpt>
      <trkpt lat="48.48978" lon="-1.12643">
        <ele>173.8</ele>
        <time>2022-08-27T16:38:32Z</time>
      </trkpt>
      <trkpt lat="48.48973" lon="-1.12645">
        <ele>173.6</ele>
        <time>2022-08-27T16:38:33Z</time>
      </trkpt>
      <trkpt lat="48.48962" lon="-1.12651">
        <ele>173.4</ele>
        <time>2022-08-27T16:38:35Z</time>
      </trkpt>
      <trkpt lat="48.48954" lon="-1.12657">
        <ele>173.2</ele>
        <time>2022-08-27T16:38:37Z</time>
      </trkpt>
      <trkpt lat="48.48924" lon="-1.12671">
        <ele>172.4</ele>
        <time>2022-08-27T16:38:42Z</time>
      </trkpt>
      <trkpt lat="48.48918" lon="-1.12673">
        <ele>172.2</ele>
        <time>2022-08-27T16:38:43Z</time>
      </trkpt>
      <trkpt lat="48.48893" lon="-1.12684">
        <ele>171.4</ele>
        <time>2022-08-27T16:38:47Z</time>
      </trkpt>
      <trkpt lat="48.48881" lon="-1.12688">
        <ele>170.8</ele>
        <time>2022-08-27T16:38:49Z</time>
      </trkpt>
      <trkpt lat="48.4887" lon="-1.12692">
        <ele>170.4</ele>
        <time>2022-08-27T16:38:51Z</time>
      </trkpt>
      <trkpt lat="48.48846" lon="-1.12701">
        <ele>169.4</ele>
        <time>2022-08-27T16:38:55Z</time>
      </trkpt>
      <trkpt lat="48.48841" lon="-1.12704">
        <ele>169.2</ele>
        <time>2022-08-27T16:38:56Z</time>
      </trkpt>
      <trkpt lat="48.48835" lon="-1.12707">
        <ele>169</ele>
        <time>2022-08-27T16:38:57Z</time>
      </trkpt>
      <trkpt lat="48.48824" lon="-1.12711">
        <ele>168.4</ele>
        <time>2022-08-27T16:38:59Z</time>
      </trkpt>
      <trkpt lat="48.48812" lon="-1.12717">
        <ele>168.2</ele>
        <time>2022-08-27T16:39:01Z</time>
      </trkpt>
      <trkpt lat="48.48792" lon="-1.12726">
        <ele>167.6</ele>
        <time>2022-08-27T16:39:04Z</time>
      </trkpt>
      <trkpt lat="48.4878" lon="-1.12732">
        <ele>167.2</ele>
        <time>2022-08-27T16:39:06Z</time>
      </trkpt>
      <trkpt lat="48.4875" lon="-1.12745">
        <ele>166.2</ele>
        <time>2022-08-27T16:39:11Z</time>
      </trkpt>
      <trkpt lat="48.48744" lon="-1.12748">
        <ele>165.8</ele>
        <time>2022-08-27T16:39:12Z</time>
      </trkpt>
      <trkpt lat="48.48732" lon="-1.12754">
        <ele>165.4</ele>
        <time>2022-08-27T16:39:14Z</time>
      </trkpt>
      <trkpt lat="48.48713" lon="-1.12761">
        <ele>164.8</ele>
        <time>2022-08-27T16:39:17Z</time>
      </trkpt>
      <trkpt lat="48.4869" lon="-1.12771">
        <ele>164</ele>
        <time>2022-08-27T16:39:21Z</time>
      </trkpt>
      <trkpt lat="48.48684" lon="-1.12773">
        <ele>163.8</ele>
        <time>2022-08-27T16:39:22Z</time>
      </trkpt>
      <trkpt lat="48.48667" lon="-1.12781">
        <ele>163.2</ele>
        <time>2022-08-27T16:39:25Z</time>
      </trkpt>
      <trkpt lat="48.48636" lon="-1.12796">
        <ele>162.6</ele>
        <time>2022-08-27T16:39:30Z</time>
      </trkpt>
      <trkpt lat="48.48605" lon="-1.12815">
        <ele>162.2</ele>
        <time>2022-08-27T16:39:35Z</time>
      </trkpt>
      <trkpt lat="48.4857" lon="-1.12834">
        <ele>161.8</ele>
        <time>2022-08-27T16:39:41Z</time>
      </trkpt>
      <trkpt lat="48.48541" lon="-1.12848">
        <ele>161.8</ele>
        <time>2022-08-27T16:39:46Z</time>
      </trkpt>
      <trkpt lat="48.48524" lon="-1.12858">
        <ele>161.6</ele>
        <time>2022-08-27T16:39:49Z</time>
      </trkpt>
      <trkpt lat="48.48518" lon="-1.12862">
        <ele>161.6</ele>
        <time>2022-08-27T16:39:50Z</time>
      </trkpt>
      <trkpt lat="48.48483" lon="-1.12888">
        <ele>161.8</ele>
        <time>2022-08-27T16:39:56Z</time>
      </trkpt>
      <trkpt lat="48.48462" lon="-1.12907">
        <ele>161.6</ele>
        <time>2022-08-27T16:40:00Z</time>
      </trkpt>
      <trkpt lat="48.48457" lon="-1.12912">
        <ele>161.4</ele>
        <time>2022-08-27T16:40:01Z</time>
      </trkpt>
      <trkpt lat="48.48428" lon="-1.12948">
        <ele>161</ele>
        <time>2022-08-27T16:40:07Z</time>
      </trkpt>
      <trkpt lat="48.48404" lon="-1.12989">
        <ele>161</ele>
        <time>2022-08-27T16:40:13Z</time>
      </trkpt>
      <trkpt lat="48.48388" lon="-1.13023">
        <ele>160.8</ele>
        <time>2022-08-27T16:40:18Z</time>
      </trkpt>
      <trkpt lat="48.48368" lon="-1.13073">
        <ele>160.6</ele>
        <time>2022-08-27T16:40:25Z</time>
      </trkpt>
      <trkpt lat="48.48354" lon="-1.13114">
        <ele>160.6</ele>
        <time>2022-08-27T16:40:31Z</time>
      </trkpt>
      <trkpt lat="48.48352" lon="-1.13121">
        <ele>160.6</ele>
        <time>2022-08-27T16:40:32Z</time>
      </trkpt>
      <trkpt lat="48.48351" lon="-1.13126">
        <ele>160.6</ele>
        <time>2022-08-27T16:40:33Z</time>
      </trkpt>
      <trkpt lat="48.48349" lon="-1.13132">
        <ele>160.6</ele>
        <time>2022-08-27T16:40:35Z</time>
      </trkpt>
      <trkpt lat="48.48342" lon="-1.13154">
        <ele>160.6</ele>
        <time>2022-08-27T16:40:40Z</time>
      </trkpt>
      <trkpt lat="48.48337" lon="-1.13189">
        <ele>160.6</ele>
        <time>2022-08-27T16:40:46Z</time>
      </trkpt>
      <trkpt lat="48.48336" lon="-1.13194">
        <ele>160.4</ele>
        <time>2022-08-27T16:40:47Z</time>
      </trkpt>
      <trkpt lat="48.48332" lon="-1.13221">
        <ele>160.4</ele>
        <time>2022-08-27T16:40:51Z</time>
      </trkpt>
      <trkpt lat="48.4833" lon="-1.13236">
        <ele>160.4</ele>
        <time>2022-08-27T16:40:53Z</time>
      </trkpt>
      <trkpt lat="48.48326" lon="-1.13265">
        <ele>160.6</ele>
        <time>2022-08-27T16:40:57Z</time>
      </trkpt>
      <trkpt lat="48.48322" lon="-1.13296">
        <ele>160.8</ele>
        <time>2022-08-27T16:41:01Z</time>
      </trkpt>
      <trkpt lat="48.4832" lon="-1.13311">
        <ele>160.8</ele>
        <time>2022-08-27T16:41:03Z</time>
      </trkpt>
      <trkpt lat="48.48317" lon="-1.13341">
        <ele>160.6</ele>
        <time>2022-08-27T16:41:07Z</time>
      </trkpt>
      <trkpt lat="48.48314" lon="-1.13356">
        <ele>160.8</ele>
        <time>2022-08-27T16:41:09Z</time>
      </trkpt>
      <trkpt lat="48.4831" lon="-1.13385">
        <ele>160.4</ele>
        <time>2022-08-27T16:41:13Z</time>
      </trkpt>
      <trkpt lat="48.4831" lon="-1.13393">
        <ele>160.4</ele>
        <time>2022-08-27T16:41:14Z</time>
      </trkpt>
      <trkpt lat="48.48307" lon="-1.1342">
        <ele>160.4</ele>
        <time>2022-08-27T16:41:17Z</time>
      </trkpt>
      <trkpt lat="48.48304" lon="-1.13438">
        <ele>160.2</ele>
        <time>2022-08-27T16:41:19Z</time>
      </trkpt>
      <trkpt lat="48.48301" lon="-1.13463">
        <ele>160</ele>
        <time>2022-08-27T16:41:22Z</time>
      </trkpt>
      <trkpt lat="48.48297" lon="-1.13496">
        <ele>159.8</ele>
        <time>2022-08-27T16:41:26Z</time>
      </trkpt>
      <trkpt lat="48.48296" lon="-1.13503">
        <ele>159.8</ele>
        <time>2022-08-27T16:41:27Z</time>
      </trkpt>
      <trkpt lat="48.48296" lon="-1.1351">
        <ele>159.8</ele>
        <time>2022-08-27T16:41:28Z</time>
      </trkpt>
      <trkpt lat="48.48294" lon="-1.13532">
        <ele>159.6</ele>
        <time>2022-08-27T16:41:31Z</time>
      </trkpt>
      <trkpt lat="48.48288" lon="-1.13581">
        <ele>159</ele>
        <time>2022-08-27T16:41:37Z</time>
      </trkpt>
      <trkpt lat="48.48279" lon="-1.13637">
        <ele>158.6</ele>
        <time>2022-08-27T16:41:44Z</time>
      </trkpt>
      <trkpt lat="48.48274" lon="-1.13676">
        <ele>158</ele>
        <time>2022-08-27T16:41:49Z</time>
      </trkpt>
      <trkpt lat="48.4827" lon="-1.13719">
        <ele>157.6</ele>
        <time>2022-08-27T16:41:54Z</time>
      </trkpt>
      <trkpt lat="48.48262" lon="-1.1378">
        <ele>157</ele>
        <time>2022-08-27T16:42:01Z</time>
      </trkpt>
      <trkpt lat="48.48257" lon="-1.13822">
        <ele>157</ele>
        <time>2022-08-27T16:42:06Z</time>
      </trkpt>
      <trkpt lat="48.48256" lon="-1.1383">
        <ele>157</ele>
        <time>2022-08-27T16:42:07Z</time>
      </trkpt>
      <trkpt lat="48.48254" lon="-1.13847">
        <ele>156.8</ele>
        <time>2022-08-27T16:42:09Z</time>
      </trkpt>
      <trkpt lat="48.4825" lon="-1.13868">
        <ele>156.8</ele>
        <time>2022-08-27T16:42:12Z</time>
      </trkpt>
      <trkpt lat="48.48249" lon="-1.13874">
        <ele>156.8</ele>
        <time>2022-08-27T16:42:13Z</time>
      </trkpt>
      <trkpt lat="48.48248" lon="-1.1388">
        <ele>156.8</ele>
        <time>2022-08-27T16:42:14Z</time>
      </trkpt>
      <trkpt lat="48.48248" lon="-1.13894">
        <ele>157</ele>
        <time>2022-08-27T16:42:16Z</time>
      </trkpt>
      <trkpt lat="48.48247" lon="-1.13901">
        <ele>157</ele>
        <time>2022-08-27T16:42:17Z</time>
      </trkpt>
      <trkpt lat="48.48241" lon="-1.13947">
        <ele>156.4</ele>
        <time>2022-08-27T16:42:23Z</time>
      </trkpt>
      <trkpt lat="48.4824" lon="-1.13961">
        <ele>156.8</ele>
        <time>2022-08-27T16:42:25Z</time>
      </trkpt>
      <trkpt lat="48.48238" lon="-1.13976">
        <ele>156.8</ele>
        <time>2022-08-27T16:42:27Z</time>
      </trkpt>
      <trkpt lat="48.48231" lon="-1.14034">
        <ele>156.2</ele>
        <time>2022-08-27T16:42:34Z</time>
      </trkpt>
      <trkpt lat="48.48227" lon="-1.14083">
        <ele>155.6</ele>
        <time>2022-08-27T16:42:40Z</time>
      </trkpt>
      <trkpt lat="48.4822" lon="-1.14125">
        <ele>155</ele>
        <time>2022-08-27T16:42:45Z</time>
      </trkpt>
      <trkpt lat="48.4821" lon="-1.14174">
        <ele>154.4</ele>
        <time>2022-08-27T16:42:51Z</time>
      </trkpt>
      <trkpt lat="48.48208" lon="-1.14181">
        <ele>154.4</ele>
        <time>2022-08-27T16:42:52Z</time>
      </trkpt>
      <trkpt lat="48.48204" lon="-1.14196">
        <ele>154.2</ele>
        <time>2022-08-27T16:42:54Z</time>
      </trkpt>
      <trkpt lat="48.48202" lon="-1.14203">
        <ele>154</ele>
        <time>2022-08-27T16:42:55Z</time>
      </trkpt>
      <trkpt lat="48.48186" lon="-1.14243">
        <ele>153.2</ele>
        <time>2022-08-27T16:43:00Z</time>
      </trkpt>
      <trkpt lat="48.48165" lon="-1.14288">
        <ele>152.4</ele>
        <time>2022-08-27T16:43:06Z</time>
      </trkpt>
      <trkpt lat="48.48161" lon="-1.14295">
        <ele>152.2</ele>
        <time>2022-08-27T16:43:07Z</time>
      </trkpt>
      <trkpt lat="48.48153" lon="-1.14309">
        <ele>152</ele>
        <time>2022-08-27T16:43:09Z</time>
      </trkpt>
      <trkpt lat="48.48145" lon="-1.14322">
        <ele>151.6</ele>
        <time>2022-08-27T16:43:11Z</time>
      </trkpt>
      <trkpt lat="48.4814" lon="-1.14328">
        <ele>151.4</ele>
        <time>2022-08-27T16:43:12Z</time>
      </trkpt>
      <trkpt lat="48.48127" lon="-1.14345">
        <ele>151</ele>
        <time>2022-08-27T16:43:15Z</time>
      </trkpt>
      <trkpt lat="48.48118" lon="-1.14354">
        <ele>150.6</ele>
        <time>2022-08-27T16:43:17Z</time>
      </trkpt>
      <trkpt lat="48.48093" lon="-1.14388">
        <ele>150.2</ele>
        <time>2022-08-27T16:43:23Z</time>
      </trkpt>
      <trkpt lat="48.48067" lon="-1.14414">
        <ele>150.4</ele>
        <time>2022-08-27T16:43:28Z</time>
      </trkpt>
      <trkpt lat="48.48056" lon="-1.14424">
        <ele>150.8</ele>
        <time>2022-08-27T16:43:30Z</time>
      </trkpt>
      <trkpt lat="48.48041" lon="-1.1443">
        <ele>151.2</ele>
        <time>2022-08-27T16:43:33Z</time>
      </trkpt>
      <trkpt lat="48.4803" lon="-1.14424">
        <ele>151.8</ele>
        <time>2022-08-27T16:43:36Z</time>
      </trkpt>
      <trkpt lat="48.48025" lon="-1.14425">
        <ele>151.8</ele>
        <time>2022-08-27T16:43:37Z</time>
      </trkpt>
      <trkpt lat="48.48021" lon="-1.14428">
        <ele>151.8</ele>
        <time>2022-08-27T16:43:38Z</time>
      </trkpt>
      <trkpt lat="48.48012" lon="-1.14442">
        <ele>152</ele>
        <time>2022-08-27T16:43:41Z</time>
      </trkpt>
      <trkpt lat="48.48007" lon="-1.14464">
        <ele>151.8</ele>
        <time>2022-08-27T16:43:45Z</time>
      </trkpt>
      <trkpt lat="48.48006" lon="-1.14469">
        <ele>151.8</ele>
        <time>2022-08-27T16:43:46Z</time>
      </trkpt>
      <trkpt lat="48.48001" lon="-1.1448">
        <ele>151.8</ele>
        <time>2022-08-27T16:43:48Z</time>
      </trkpt>
      <trkpt lat="48.47998" lon="-1.14485">
        <ele>151.6</ele>
        <time>2022-08-27T16:43:49Z</time>
      </trkpt>
      <trkpt lat="48.47995" lon="-1.1449">
        <ele>151.6</ele>
        <time>2022-08-27T16:43:50Z</time>
      </trkpt>
      <trkpt lat="48.47983" lon="-1.14504">
        <ele>152.6</ele>
        <time>2022-08-27T16:43:53Z</time>
      </trkpt>
      <trkpt lat="48.47967" lon="-1.14522">
        <ele>151.2</ele>
        <time>2022-08-27T16:43:57Z</time>
      </trkpt>
      <trkpt lat="48.47947" lon="-1.14541">
        <ele>151</ele>
        <time>2022-08-27T16:44:01Z</time>
      </trkpt>
      <trkpt lat="48.47915" lon="-1.14574">
        <ele>150.8</ele>
        <time>2022-08-27T16:44:08Z</time>
      </trkpt>
      <trkpt lat="48.47897" lon="-1.14593">
        <ele>151</ele>
        <time>2022-08-27T16:44:12Z</time>
      </trkpt>
      <trkpt lat="48.47893" lon="-1.14599">
        <ele>151</ele>
        <time>2022-08-27T16:44:13Z</time>
      </trkpt>
      <trkpt lat="48.47865" lon="-1.14632">
        <ele>150.8</ele>
        <time>2022-08-27T16:44:19Z</time>
      </trkpt>
      <trkpt lat="48.47837" lon="-1.14671">
        <ele>150.6</ele>
        <time>2022-08-27T16:44:25Z</time>
      </trkpt>
      <trkpt lat="48.47833" lon="-1.14678">
        <ele>150.4</ele>
        <time>2022-08-27T16:44:26Z</time>
      </trkpt>
      <trkpt lat="48.47822" lon="-1.14701">
        <ele>150.2</ele>
        <time>2022-08-27T16:44:29Z</time>
      </trkpt>
      <trkpt lat="48.47809" lon="-1.14732">
        <ele>150</ele>
        <time>2022-08-27T16:44:33Z</time>
      </trkpt>
      <trkpt lat="48.47803" lon="-1.14749">
        <ele>149.8</ele>
        <time>2022-08-27T16:44:35Z</time>
      </trkpt>
      <trkpt lat="48.47798" lon="-1.14766">
        <ele>149.8</ele>
        <time>2022-08-27T16:44:37Z</time>
      </trkpt>
      <trkpt lat="48.47793" lon="-1.14784">
        <ele>149.6</ele>
        <time>2022-08-27T16:44:39Z</time>
      </trkpt>
      <trkpt lat="48.47788" lon="-1.14803">
        <ele>149.6</ele>
        <time>2022-08-27T16:44:41Z</time>
      </trkpt>
      <trkpt lat="48.47778" lon="-1.14861">
        <ele>149.2</ele>
        <time>2022-08-27T16:44:47Z</time>
      </trkpt>
      <trkpt lat="48.47776" lon="-1.14892">
        <ele>149</ele>
        <time>2022-08-27T16:44:50Z</time>
      </trkpt>
      <trkpt lat="48.47776" lon="-1.14912">
        <ele>148.8</ele>
        <time>2022-08-27T16:44:52Z</time>
      </trkpt>
      <trkpt lat="48.47776" lon="-1.14961">
        <ele>148.8</ele>
        <time>2022-08-27T16:44:57Z</time>
      </trkpt>
      <trkpt lat="48.47776" lon="-1.15">
        <ele>149.2</ele>
        <time>2022-08-27T16:45:01Z</time>
      </trkpt>
      <trkpt lat="48.47776" lon="-1.15018">
        <ele>148.8</ele>
        <time>2022-08-27T16:45:03Z</time>
      </trkpt>
      <trkpt lat="48.47778" lon="-1.15036">
        <ele>149.2</ele>
        <time>2022-08-27T16:45:05Z</time>
      </trkpt>
      <trkpt lat="48.47782" lon="-1.1506">
        <ele>149.6</ele>
        <time>2022-08-27T16:45:08Z</time>
      </trkpt>
      <trkpt lat="48.47783" lon="-1.15069">
        <ele>149.4</ele>
        <time>2022-08-27T16:45:09Z</time>
      </trkpt>
      <trkpt lat="48.47785" lon="-1.15102">
        <ele>149.8</ele>
        <time>2022-08-27T16:45:13Z</time>
      </trkpt>
      <trkpt lat="48.47786" lon="-1.15129">
        <ele>150</ele>
        <time>2022-08-27T16:45:16Z</time>
      </trkpt>
      <trkpt lat="48.47788" lon="-1.15147">
        <ele>150.4</ele>
        <time>2022-08-27T16:45:18Z</time>
      </trkpt>
      <trkpt lat="48.47789" lon="-1.15166">
        <ele>150.6</ele>
        <time>2022-08-27T16:45:20Z</time>
      </trkpt>
      <trkpt lat="48.4779" lon="-1.15184">
        <ele>150.8</ele>
        <time>2022-08-27T16:45:22Z</time>
      </trkpt>
      <trkpt lat="48.47792" lon="-1.15202">
        <ele>151</ele>
        <time>2022-08-27T16:45:24Z</time>
      </trkpt>
      <trkpt lat="48.47794" lon="-1.1523">
        <ele>151.4</ele>
        <time>2022-08-27T16:45:27Z</time>
      </trkpt>
      <trkpt lat="48.47798" lon="-1.15288">
        <ele>152.2</ele>
        <time>2022-08-27T16:45:33Z</time>
      </trkpt>
      <trkpt lat="48.47802" lon="-1.15354">
        <ele>153.2</ele>
        <time>2022-08-27T16:45:40Z</time>
      </trkpt>
      <trkpt lat="48.47801" lon="-1.15409">
        <ele>154.2</ele>
        <time>2022-08-27T16:45:46Z</time>
      </trkpt>
      <trkpt lat="48.47798" lon="-1.15443">
        <ele>154.8</ele>
        <time>2022-08-27T16:45:50Z</time>
      </trkpt>
      <trkpt lat="48.47797" lon="-1.15452">
        <ele>155</ele>
        <time>2022-08-27T16:45:51Z</time>
      </trkpt>
      <trkpt lat="48.47796" lon="-1.15461">
        <ele>155.2</ele>
        <time>2022-08-27T16:45:52Z</time>
      </trkpt>
      <trkpt lat="48.47789" lon="-1.15488">
        <ele>155.8</ele>
        <time>2022-08-27T16:45:55Z</time>
      </trkpt>
      <trkpt lat="48.4778" lon="-1.15523">
        <ele>156.4</ele>
        <time>2022-08-27T16:45:59Z</time>
      </trkpt>
      <trkpt lat="48.47772" lon="-1.15547">
        <ele>156.6</ele>
        <time>2022-08-27T16:46:02Z</time>
      </trkpt>
      <trkpt lat="48.47767" lon="-1.15563">
        <ele>157</ele>
        <time>2022-08-27T16:46:04Z</time>
      </trkpt>
      <trkpt lat="48.47761" lon="-1.15578">
        <ele>157.2</ele>
        <time>2022-08-27T16:46:06Z</time>
      </trkpt>
      <trkpt lat="48.47757" lon="-1.15586">
        <ele>157.4</ele>
        <time>2022-08-27T16:46:07Z</time>
      </trkpt>
      <trkpt lat="48.47745" lon="-1.1561">
        <ele>157.8</ele>
        <time>2022-08-27T16:46:10Z</time>
      </trkpt>
      <trkpt lat="48.47723" lon="-1.15648">
        <ele>158.4</ele>
        <time>2022-08-27T16:46:16Z</time>
      </trkpt>
      <trkpt lat="48.47711" lon="-1.15667">
        <ele>158.4</ele>
        <time>2022-08-27T16:46:19Z</time>
      </trkpt>
      <trkpt lat="48.47707" lon="-1.15672">
        <ele>158.4</ele>
        <time>2022-08-27T16:46:20Z</time>
      </trkpt>
      <trkpt lat="48.47698" lon="-1.15686">
        <ele>158.6</ele>
        <time>2022-08-27T16:46:22Z</time>
      </trkpt>
      <trkpt lat="48.47685" lon="-1.15705">
        <ele>158.8</ele>
        <time>2022-08-27T16:46:25Z</time>
      </trkpt>
      <trkpt lat="48.47681" lon="-1.15712">
        <ele>158.8</ele>
        <time>2022-08-27T16:46:26Z</time>
      </trkpt>
      <trkpt lat="48.47667" lon="-1.15731">
        <ele>159</ele>
        <time>2022-08-27T16:46:29Z</time>
      </trkpt>
      <trkpt lat="48.47646" lon="-1.15764">
        <ele>159.2</ele>
        <time>2022-08-27T16:46:34Z</time>
      </trkpt>
      <trkpt lat="48.47642" lon="-1.1577">
        <ele>159.2</ele>
        <time>2022-08-27T16:46:35Z</time>
      </trkpt>
      <trkpt lat="48.47625" lon="-1.15796">
        <ele>159.6</ele>
        <time>2022-08-27T16:46:39Z</time>
      </trkpt>
      <trkpt lat="48.47618" lon="-1.15807">
        <ele>159.8</ele>
        <time>2022-08-27T16:46:41Z</time>
      </trkpt>
      <trkpt lat="48.47611" lon="-1.1582">
        <ele>160</ele>
        <time>2022-08-27T16:46:43Z</time>
      </trkpt>
      <trkpt lat="48.47602" lon="-1.15832">
        <ele>160</ele>
        <time>2022-08-27T16:46:45Z</time>
      </trkpt>
      <trkpt lat="48.47594" lon="-1.15845">
        <ele>160.2</ele>
        <time>2022-08-27T16:46:47Z</time>
      </trkpt>
      <trkpt lat="48.47581" lon="-1.15867">
        <ele>160.6</ele>
        <time>2022-08-27T16:46:50Z</time>
      </trkpt>
      <trkpt lat="48.47572" lon="-1.15879">
        <ele>160.8</ele>
        <time>2022-08-27T16:46:52Z</time>
      </trkpt>
      <trkpt lat="48.47562" lon="-1.15893">
        <ele>161</ele>
        <time>2022-08-27T16:46:54Z</time>
      </trkpt>
      <trkpt lat="48.47553" lon="-1.15905">
        <ele>161.2</ele>
        <time>2022-08-27T16:46:56Z</time>
      </trkpt>
      <trkpt lat="48.47529" lon="-1.1594">
        <ele>161.8</ele>
        <time>2022-08-27T16:47:01Z</time>
      </trkpt>
      <trkpt lat="48.47505" lon="-1.15973">
        <ele>162.2</ele>
        <time>2022-08-27T16:47:06Z</time>
      </trkpt>
      <trkpt lat="48.47484" lon="-1.16">
        <ele>162.4</ele>
        <time>2022-08-27T16:47:11Z</time>
      </trkpt>
      <trkpt lat="48.47467" lon="-1.16023">
        <ele>162.6</ele>
        <time>2022-08-27T16:47:15Z</time>
      </trkpt>
      <trkpt lat="48.47443" lon="-1.16051">
        <ele>163</ele>
        <time>2022-08-27T16:47:20Z</time>
      </trkpt>
      <trkpt lat="48.4741" lon="-1.1608">
        <ele>163</ele>
        <time>2022-08-27T16:47:26Z</time>
      </trkpt>
      <trkpt lat="48.47386" lon="-1.16102">
        <ele>163.4</ele>
        <time>2022-08-27T16:47:31Z</time>
      </trkpt>
      <trkpt lat="48.4736" lon="-1.16122">
        <ele>163.6</ele>
        <time>2022-08-27T16:47:37Z</time>
      </trkpt>
      <trkpt lat="48.47351" lon="-1.16132">
        <ele>163.6</ele>
        <time>2022-08-27T16:47:41Z</time>
      </trkpt>
      <trkpt lat="48.47347" lon="-1.16135">
        <ele>163.8</ele>
        <time>2022-08-27T16:47:43Z</time>
      </trkpt>
      <trkpt lat="48.47338" lon="-1.1614">
        <ele>164</ele>
        <time>2022-08-27T16:47:46Z</time>
      </trkpt>
      <trkpt lat="48.47333" lon="-1.16148">
        <ele>164.2</ele>
        <time>2022-08-27T16:47:48Z</time>
      </trkpt>
      <trkpt lat="48.47331" lon="-1.16149">
        <ele>164.2</ele>
        <time>2022-08-27T16:47:49Z</time>
      </trkpt>
      <trkpt lat="48.47323" lon="-1.16155">
        <ele>164.4</ele>
        <time>2022-08-27T16:47:52Z</time>
      </trkpt>
      <trkpt lat="48.47307" lon="-1.1617">
        <ele>164.6</ele>
        <time>2022-08-27T16:47:57Z</time>
      </trkpt>
      <trkpt lat="48.47292" lon="-1.16183">
        <ele>164.8</ele>
        <time>2022-08-27T16:48:01Z</time>
      </trkpt>
      <trkpt lat="48.47271" lon="-1.16201">
        <ele>165</ele>
        <time>2022-08-27T16:48:06Z</time>
      </trkpt>
      <trkpt lat="48.47242" lon="-1.16227">
        <ele>165.4</ele>
        <time>2022-08-27T16:48:12Z</time>
      </trkpt>
      <trkpt lat="48.47223" lon="-1.16242">
        <ele>165.6</ele>
        <time>2022-08-27T16:48:16Z</time>
      </trkpt>
      <trkpt lat="48.47208" lon="-1.16253">
        <ele>165.6</ele>
        <time>2022-08-27T16:48:19Z</time>
      </trkpt>
      <trkpt lat="48.47203" lon="-1.16257">
        <ele>165.6</ele>
        <time>2022-08-27T16:48:20Z</time>
      </trkpt>
      <trkpt lat="48.47172" lon="-1.16285">
        <ele>165.4</ele>
        <time>2022-08-27T16:48:26Z</time>
      </trkpt>
      <trkpt lat="48.47129" lon="-1.16322">
        <ele>166</ele>
        <time>2022-08-27T16:48:34Z</time>
      </trkpt>
      <trkpt lat="48.47092" lon="-1.16356">
        <ele>166.6</ele>
        <time>2022-08-27T16:48:41Z</time>
      </trkpt>
      <trkpt lat="48.47087" lon="-1.16361">
        <ele>166.6</ele>
        <time>2022-08-27T16:48:42Z</time>
      </trkpt>
      <trkpt lat="48.47069" lon="-1.16383">
        <ele>166.8</ele>
        <time>2022-08-27T16:48:46Z</time>
      </trkpt>
      <trkpt lat="48.47057" lon="-1.16396">
        <ele>167</ele>
        <time>2022-08-27T16:48:49Z</time>
      </trkpt>
      <trkpt lat="48.47051" lon="-1.16401">
        <ele>167</ele>
        <time>2022-08-27T16:48:51Z</time>
      </trkpt>
      <trkpt lat="48.47048" lon="-1.16407">
        <ele>167</ele>
        <time>2022-08-27T16:48:53Z</time>
      </trkpt>
      <trkpt lat="48.47046" lon="-1.16407">
        <ele>167</ele>
        <time>2022-08-27T16:48:54Z</time>
      </trkpt>
      <trkpt lat="48.47043" lon="-1.16406">
        <ele>167.2</ele>
        <time>2022-08-27T16:48:55Z</time>
      </trkpt>
      <trkpt lat="48.47033" lon="-1.16399">
        <ele>167.2</ele>
        <time>2022-08-27T16:48:58Z</time>
      </trkpt>
      <trkpt lat="48.47025" lon="-1.16393">
        <ele>167.4</ele>
        <time>2022-08-27T16:49:00Z</time>
      </trkpt>
      <trkpt lat="48.47016" lon="-1.16397">
        <ele>167.4</ele>
        <time>2022-08-27T16:49:02Z</time>
      </trkpt>
      <trkpt lat="48.47009" lon="-1.16405">
        <ele>167.4</ele>
        <time>2022-08-27T16:49:04Z</time>
      </trkpt>
      <trkpt lat="48.47005" lon="-1.16408">
        <ele>167.4</ele>
        <time>2022-08-27T16:49:05Z</time>
      </trkpt>
      <trkpt lat="48.46986" lon="-1.16419">
        <ele>167.6</ele>
        <time>2022-08-27T16:49:09Z</time>
      </trkpt>
      <trkpt lat="48.46982" lon="-1.16421">
        <ele>167.6</ele>
        <time>2022-08-27T16:49:10Z</time>
      </trkpt>
      <trkpt lat="48.46954" lon="-1.16442">
        <ele>167.8</ele>
        <time>2022-08-27T16:49:16Z</time>
      </trkpt>
      <trkpt lat="48.4695" lon="-1.16446">
        <ele>167.8</ele>
        <time>2022-08-27T16:49:17Z</time>
      </trkpt>
      <trkpt lat="48.4694" lon="-1.16464">
        <ele>168</ele>
        <time>2022-08-27T16:49:20Z</time>
      </trkpt>
      <trkpt lat="48.46935" lon="-1.16477">
        <ele>168</ele>
        <time>2022-08-27T16:49:22Z</time>
      </trkpt>
      <trkpt lat="48.46932" lon="-1.16491">
        <ele>168.2</ele>
        <time>2022-08-27T16:49:24Z</time>
      </trkpt>
      <trkpt lat="48.46927" lon="-1.16503">
        <ele>168.2</ele>
        <time>2022-08-27T16:49:26Z</time>
      </trkpt>
      <trkpt lat="48.46923" lon="-1.16508">
        <ele>168.4</ele>
        <time>2022-08-27T16:49:27Z</time>
      </trkpt>
      <trkpt lat="48.4689" lon="-1.16543">
        <ele>168.6</ele>
        <time>2022-08-27T16:49:34Z</time>
      </trkpt>
      <trkpt lat="48.46875" lon="-1.1656">
        <ele>168.6</ele>
        <time>2022-08-27T16:49:37Z</time>
      </trkpt>
      <trkpt lat="48.46865" lon="-1.16572">
        <ele>168.6</ele>
        <time>2022-08-27T16:49:39Z</time>
      </trkpt>
      <trkpt lat="48.46846" lon="-1.16595">
        <ele>168.6</ele>
        <time>2022-08-27T16:49:43Z</time>
      </trkpt>
      <trkpt lat="48.46817" lon="-1.16631">
        <ele>168.8</ele>
        <time>2022-08-27T16:49:49Z</time>
      </trkpt>
      <trkpt lat="48.46798" lon="-1.16657">
        <ele>168.6</ele>
        <time>2022-08-27T16:49:53Z</time>
      </trkpt>
      <trkpt lat="48.46764" lon="-1.16697">
        <ele>168.4</ele>
        <time>2022-08-27T16:49:59Z</time>
      </trkpt>
      <trkpt lat="48.4674" lon="-1.1673">
        <ele>168.4</ele>
        <time>2022-08-27T16:50:04Z</time>
      </trkpt>
      <trkpt lat="48.46709" lon="-1.16772">
        <ele>168.4</ele>
        <time>2022-08-27T16:50:10Z</time>
      </trkpt>
      <trkpt lat="48.46675" lon="-1.16815">
        <ele>168</ele>
        <time>2022-08-27T16:50:16Z</time>
      </trkpt>
      <trkpt lat="48.46647" lon="-1.1685">
        <ele>167.8</ele>
        <time>2022-08-27T16:50:21Z</time>
      </trkpt>
      <trkpt lat="48.46626" lon="-1.16874">
        <ele>167.8</ele>
        <time>2022-08-27T16:50:25Z</time>
      </trkpt>
      <trkpt lat="48.46621" lon="-1.16881">
        <ele>167.8</ele>
        <time>2022-08-27T16:50:26Z</time>
      </trkpt>
      <trkpt lat="48.46607" lon="-1.169">
        <ele>167.8</ele>
        <time>2022-08-27T16:50:29Z</time>
      </trkpt>
      <trkpt lat="48.46598" lon="-1.16913">
        <ele>167.8</ele>
        <time>2022-08-27T16:50:31Z</time>
      </trkpt>
      <trkpt lat="48.46594" lon="-1.16919">
        <ele>167.8</ele>
        <time>2022-08-27T16:50:32Z</time>
      </trkpt>
      <trkpt lat="48.4658" lon="-1.16936">
        <ele>167.8</ele>
        <time>2022-08-27T16:50:35Z</time>
      </trkpt>
      <trkpt lat="48.46568" lon="-1.16953">
        <ele>167.6</ele>
        <time>2022-08-27T16:50:38Z</time>
      </trkpt>
      <trkpt lat="48.46564" lon="-1.16958">
        <ele>167.6</ele>
        <time>2022-08-27T16:50:39Z</time>
      </trkpt>
      <trkpt lat="48.46557" lon="-1.16969">
        <ele>167.4</ele>
        <time>2022-08-27T16:50:41Z</time>
      </trkpt>
      <trkpt lat="48.46549" lon="-1.1698">
        <ele>167.4</ele>
        <time>2022-08-27T16:50:43Z</time>
      </trkpt>
      <trkpt lat="48.46541" lon="-1.16991">
        <ele>167.2</ele>
        <time>2022-08-27T16:50:45Z</time>
      </trkpt>
      <trkpt lat="48.46527" lon="-1.17007">
        <ele>166.8</ele>
        <time>2022-08-27T16:50:48Z</time>
      </trkpt>
      <trkpt lat="48.46523" lon="-1.17013">
        <ele>166.6</ele>
        <time>2022-08-27T16:50:49Z</time>
      </trkpt>
      <trkpt lat="48.4651" lon="-1.17029">
        <ele>166.2</ele>
        <time>2022-08-27T16:50:52Z</time>
      </trkpt>
      <trkpt lat="48.46501" lon="-1.17041">
        <ele>166</ele>
        <time>2022-08-27T16:50:54Z</time>
      </trkpt>
      <trkpt lat="48.46488" lon="-1.1706">
        <ele>165.6</ele>
        <time>2022-08-27T16:50:57Z</time>
      </trkpt>
      <trkpt lat="48.46484" lon="-1.17066">
        <ele>165.6</ele>
        <time>2022-08-27T16:50:58Z</time>
      </trkpt>
      <trkpt lat="48.46476" lon="-1.17079">
        <ele>165.2</ele>
        <time>2022-08-27T16:51:00Z</time>
      </trkpt>
      <trkpt lat="48.46472" lon="-1.17086">
        <ele>165</ele>
        <time>2022-08-27T16:51:01Z</time>
      </trkpt>
      <trkpt lat="48.46454" lon="-1.17119">
        <ele>164.6</ele>
        <time>2022-08-27T16:51:06Z</time>
      </trkpt>
      <trkpt lat="48.46443" lon="-1.1714">
        <ele>164.6</ele>
        <time>2022-08-27T16:51:09Z</time>
      </trkpt>
      <trkpt lat="48.46438" lon="-1.17154">
        <ele>164.4</ele>
        <time>2022-08-27T16:51:11Z</time>
      </trkpt>
      <trkpt lat="48.46427" lon="-1.17188">
        <ele>164</ele>
        <time>2022-08-27T16:51:16Z</time>
      </trkpt>
      <trkpt lat="48.46425" lon="-1.17195">
        <ele>164</ele>
        <time>2022-08-27T16:51:17Z</time>
      </trkpt>
      <trkpt lat="48.46416" lon="-1.17226">
        <ele>163.6</ele>
        <time>2022-08-27T16:51:21Z</time>
      </trkpt>
      <trkpt lat="48.4641" lon="-1.17251">
        <ele>163.4</ele>
        <time>2022-08-27T16:51:24Z</time>
      </trkpt>
      <trkpt lat="48.46408" lon="-1.1726">
        <ele>163.4</ele>
        <time>2022-08-27T16:51:25Z</time>
      </trkpt>
      <trkpt lat="48.46405" lon="-1.1728">
        <ele>163.4</ele>
        <time>2022-08-27T16:51:27Z</time>
      </trkpt>
      <trkpt lat="48.46403" lon="-1.17298">
        <ele>163.2</ele>
        <time>2022-08-27T16:51:29Z</time>
      </trkpt>
      <trkpt lat="48.46402" lon="-1.17308">
        <ele>163.2</ele>
        <time>2022-08-27T16:51:30Z</time>
      </trkpt>
      <trkpt lat="48.464" lon="-1.17334">
        <ele>163.2</ele>
        <time>2022-08-27T16:51:33Z</time>
      </trkpt>
      <trkpt lat="48.464" lon="-1.17344">
        <ele>163.2</ele>
        <time>2022-08-27T16:51:34Z</time>
      </trkpt>
      <trkpt lat="48.46399" lon="-1.17374">
        <ele>163</ele>
        <time>2022-08-27T16:51:37Z</time>
      </trkpt>
      <trkpt lat="48.46399" lon="-1.17415">
        <ele>163</ele>
        <time>2022-08-27T16:51:41Z</time>
      </trkpt>
      <trkpt lat="48.464" lon="-1.17424">
        <ele>163</ele>
        <time>2022-08-27T16:51:42Z</time>
      </trkpt>
      <trkpt lat="48.46399" lon="-1.17434">
        <ele>163</ele>
        <time>2022-08-27T16:51:43Z</time>
      </trkpt>
      <trkpt lat="48.46399" lon="-1.17454">
        <ele>162.8</ele>
        <time>2022-08-27T16:51:45Z</time>
      </trkpt>
      <trkpt lat="48.46401" lon="-1.17514">
        <ele>162.6</ele>
        <time>2022-08-27T16:51:51Z</time>
      </trkpt>
      <trkpt lat="48.46402" lon="-1.17524">
        <ele>162.6</ele>
        <time>2022-08-27T16:51:52Z</time>
      </trkpt>
      <trkpt lat="48.46402" lon="-1.17547">
        <ele>162.4</ele>
        <time>2022-08-27T16:51:54Z</time>
      </trkpt>
      <trkpt lat="48.46401" lon="-1.17558">
        <ele>162.4</ele>
        <time>2022-08-27T16:51:55Z</time>
      </trkpt>
      <trkpt lat="48.46402" lon="-1.17591">
        <ele>162.4</ele>
        <time>2022-08-27T16:51:58Z</time>
      </trkpt>
      <trkpt lat="48.46401" lon="-1.17614">
        <ele>162.4</ele>
        <time>2022-08-27T16:52:00Z</time>
      </trkpt>
      <trkpt lat="48.46402" lon="-1.1768">
        <ele>162.4</ele>
        <time>2022-08-27T16:52:06Z</time>
      </trkpt>
      <trkpt lat="48.46402" lon="-1.17723">
        <ele>162.4</ele>
        <time>2022-08-27T16:52:10Z</time>
      </trkpt>
      <trkpt lat="48.46404" lon="-1.17741">
        <ele>163</ele>
        <time>2022-08-27T16:52:12Z</time>
      </trkpt>
      <trkpt lat="48.46405" lon="-1.1775">
        <ele>163</ele>
        <time>2022-08-27T16:52:13Z</time>
      </trkpt>
      <trkpt lat="48.46406" lon="-1.17761">
        <ele>163</ele>
        <time>2022-08-27T16:52:14Z</time>
      </trkpt>
      <trkpt lat="48.46407" lon="-1.17783">
        <ele>162.8</ele>
        <time>2022-08-27T16:52:16Z</time>
      </trkpt>
      <trkpt lat="48.46407" lon="-1.17804">
        <ele>162.8</ele>
        <time>2022-08-27T16:52:18Z</time>
      </trkpt>
      <trkpt lat="48.46406" lon="-1.17826">
        <ele>162.8</ele>
        <time>2022-08-27T16:52:20Z</time>
      </trkpt>
      <trkpt lat="48.46405" lon="-1.17881">
        <ele>163</ele>
        <time>2022-08-27T16:52:25Z</time>
      </trkpt>
      <trkpt lat="48.46404" lon="-1.17892">
        <ele>163</ele>
        <time>2022-08-27T16:52:26Z</time>
      </trkpt>
      <trkpt lat="48.46402" lon="-1.17914">
        <ele>162.8</ele>
        <time>2022-08-27T16:52:28Z</time>
      </trkpt>
      <trkpt lat="48.46398" lon="-1.17945">
        <ele>163</ele>
        <time>2022-08-27T16:52:31Z</time>
      </trkpt>
      <trkpt lat="48.46392" lon="-1.17982">
        <ele>162.6</ele>
        <time>2022-08-27T16:52:35Z</time>
      </trkpt>
      <trkpt lat="48.46386" lon="-1.18006">
        <ele>162.4</ele>
        <time>2022-08-27T16:52:38Z</time>
      </trkpt>
      <trkpt lat="48.46384" lon="-1.18015">
        <ele>162.4</ele>
        <time>2022-08-27T16:52:39Z</time>
      </trkpt>
      <trkpt lat="48.46377" lon="-1.18044">
        <ele>162.4</ele>
        <time>2022-08-27T16:52:42Z</time>
      </trkpt>
      <trkpt lat="48.4637" lon="-1.18062">
        <ele>162.4</ele>
        <time>2022-08-27T16:52:44Z</time>
      </trkpt>
      <trkpt lat="48.46354" lon="-1.18102">
        <ele>162.2</ele>
        <time>2022-08-27T16:52:49Z</time>
      </trkpt>
      <trkpt lat="48.46347" lon="-1.18115">
        <ele>162</ele>
        <time>2022-08-27T16:52:52Z</time>
      </trkpt>
      <trkpt lat="48.46345" lon="-1.18117">
        <ele>162</ele>
        <time>2022-08-27T16:52:53Z</time>
      </trkpt>
      <trkpt lat="48.46343" lon="-1.1812">
        <ele>162</ele>
        <time>2022-08-27T16:52:54Z</time>
      </trkpt>
      <trkpt lat="48.46338" lon="-1.18131">
        <ele>162</ele>
        <time>2022-08-27T16:52:57Z</time>
      </trkpt>
      <trkpt lat="48.46333" lon="-1.18141">
        <ele>162</ele>
        <time>2022-08-27T16:53:00Z</time>
      </trkpt>
      <trkpt lat="48.46328" lon="-1.18146">
        <ele>162.2</ele>
        <time>2022-08-27T16:53:02Z</time>
      </trkpt>
      <trkpt lat="48.46323" lon="-1.1816">
        <ele>162</ele>
        <time>2022-08-27T16:53:05Z</time>
      </trkpt>
      <trkpt lat="48.4632" lon="-1.18165">
        <ele>162</ele>
        <time>2022-08-27T16:53:06Z</time>
      </trkpt>
      <trkpt lat="48.46306" lon="-1.18187">
        <ele>162</ele>
        <time>2022-08-27T16:53:10Z</time>
      </trkpt>
      <trkpt lat="48.46298" lon="-1.18198">
        <ele>162</ele>
        <time>2022-08-27T16:53:12Z</time>
      </trkpt>
      <trkpt lat="48.46266" lon="-1.18237">
        <ele>161.8</ele>
        <time>2022-08-27T16:53:19Z</time>
      </trkpt>
      <trkpt lat="48.4623" lon="-1.18269">
        <ele>161.6</ele>
        <time>2022-08-27T16:53:25Z</time>
      </trkpt>
      <trkpt lat="48.46193" lon="-1.18301">
        <ele>161.2</ele>
        <time>2022-08-27T16:53:31Z</time>
      </trkpt>
      <trkpt lat="48.46162" lon="-1.18328">
        <ele>160.8</ele>
        <time>2022-08-27T16:53:36Z</time>
      </trkpt>
      <trkpt lat="48.46124" lon="-1.18361">
        <ele>160.4</ele>
        <time>2022-08-27T16:53:42Z</time>
      </trkpt>
      <trkpt lat="48.46097" lon="-1.18383">
        <ele>160</ele>
        <time>2022-08-27T16:53:47Z</time>
      </trkpt>
      <trkpt lat="48.46068" lon="-1.18409">
        <ele>159.8</ele>
        <time>2022-08-27T16:53:52Z</time>
      </trkpt>
      <trkpt lat="48.46054" lon="-1.1842">
        <ele>159.6</ele>
        <time>2022-08-27T16:53:54Z</time>
      </trkpt>
      <trkpt lat="48.46027" lon="-1.18441">
        <ele>159.6</ele>
        <time>2022-08-27T16:53:58Z</time>
      </trkpt>
      <trkpt lat="48.45994" lon="-1.18468">
        <ele>159.4</ele>
        <time>2022-08-27T16:54:03Z</time>
      </trkpt>
      <trkpt lat="48.45963" lon="-1.18494">
        <ele>159</ele>
        <time>2022-08-27T16:54:08Z</time>
      </trkpt>
      <trkpt lat="48.45927" lon="-1.18525">
        <ele>158.6</ele>
        <time>2022-08-27T16:54:14Z</time>
      </trkpt>
      <trkpt lat="48.45885" lon="-1.18559">
        <ele>158.2</ele>
        <time>2022-08-27T16:54:20Z</time>
      </trkpt>
      <trkpt lat="48.45867" lon="-1.18575">
        <ele>158</ele>
        <time>2022-08-27T16:54:23Z</time>
      </trkpt>
      <trkpt lat="48.45854" lon="-1.18586">
        <ele>157.8</ele>
        <time>2022-08-27T16:54:25Z</time>
      </trkpt>
      <trkpt lat="48.45818" lon="-1.18614">
        <ele>157.2</ele>
        <time>2022-08-27T16:54:30Z</time>
      </trkpt>
      <trkpt lat="48.45785" lon="-1.18641">
        <ele>156.4</ele>
        <time>2022-08-27T16:54:35Z</time>
      </trkpt>
      <trkpt lat="48.45751" lon="-1.18669">
        <ele>155.6</ele>
        <time>2022-08-27T16:54:40Z</time>
      </trkpt>
      <trkpt lat="48.4572" lon="-1.18697">
        <ele>154.8</ele>
        <time>2022-08-27T16:54:45Z</time>
      </trkpt>
      <trkpt lat="48.45682" lon="-1.1873">
        <ele>153.8</ele>
        <time>2022-08-27T16:54:51Z</time>
      </trkpt>
      <trkpt lat="48.4565" lon="-1.18757">
        <ele>153</ele>
        <time>2022-08-27T16:54:56Z</time>
      </trkpt>
      <trkpt lat="48.45611" lon="-1.18789">
        <ele>152.2</ele>
        <time>2022-08-27T16:55:02Z</time>
      </trkpt>
      <trkpt lat="48.45577" lon="-1.18818">
        <ele>151.8</ele>
        <time>2022-08-27T16:55:07Z</time>
      </trkpt>
      <trkpt lat="48.45571" lon="-1.18824">
        <ele>151.6</ele>
        <time>2022-08-27T16:55:08Z</time>
      </trkpt>
      <trkpt lat="48.45531" lon="-1.18855">
        <ele>151</ele>
        <time>2022-08-27T16:55:14Z</time>
      </trkpt>
      <trkpt lat="48.45499" lon="-1.18882">
        <ele>150.6</ele>
        <time>2022-08-27T16:55:19Z</time>
      </trkpt>
      <trkpt lat="48.45469" lon="-1.18909">
        <ele>150.2</ele>
        <time>2022-08-27T16:55:24Z</time>
      </trkpt>
      <trkpt lat="48.4543" lon="-1.18943">
        <ele>150.8</ele>
        <time>2022-08-27T16:55:30Z</time>
      </trkpt>
      <trkpt lat="48.45398" lon="-1.18968">
        <ele>150.6</ele>
        <time>2022-08-27T16:55:36Z</time>
      </trkpt>
      <trkpt lat="48.45383" lon="-1.1898">
        <ele>150.4</ele>
        <time>2022-08-27T16:55:40Z</time>
      </trkpt>
      <trkpt lat="48.45378" lon="-1.18983">
        <ele>150.4</ele>
        <time>2022-08-27T16:55:42Z</time>
      </trkpt>
      <trkpt lat="48.45375" lon="-1.18985">
        <ele>150.4</ele>
        <time>2022-08-27T16:55:44Z</time>
      </trkpt>
      <trkpt lat="48.45363" lon="-1.18997">
        <ele>150.2</ele>
        <time>2022-08-27T16:55:49Z</time>
      </trkpt>
      <trkpt lat="48.45359" lon="-1.19001">
        <ele>150.4</ele>
        <time>2022-08-27T16:55:51Z</time>
      </trkpt>
      <trkpt lat="48.45359" lon="-1.19003">
        <ele>150.2</ele>
        <time>2022-08-27T16:55:52Z</time>
      </trkpt>
      <trkpt lat="48.45353" lon="-1.1901">
        <ele>150</ele>
        <time>2022-08-27T16:55:54Z</time>
      </trkpt>
      <trkpt lat="48.4535" lon="-1.19014">
        <ele>149.8</ele>
        <time>2022-08-27T16:55:55Z</time>
      </trkpt>
      <trkpt lat="48.45334" lon="-1.19031">
        <ele>149.4</ele>
        <time>2022-08-27T16:55:59Z</time>
      </trkpt>
      <trkpt lat="48.4533" lon="-1.19037">
        <ele>149.4</ele>
        <time>2022-08-27T16:56:00Z</time>
      </trkpt>
      <trkpt lat="48.45325" lon="-1.19042">
        <ele>149.2</ele>
        <time>2022-08-27T16:56:01Z</time>
      </trkpt>
      <trkpt lat="48.45309" lon="-1.19059">
        <ele>149</ele>
        <time>2022-08-27T16:56:04Z</time>
      </trkpt>
      <trkpt lat="48.45283" lon="-1.19085">
        <ele>148.4</ele>
        <time>2022-08-27T16:56:09Z</time>
      </trkpt>
      <trkpt lat="48.45251" lon="-1.19118">
        <ele>148</ele>
        <time>2022-08-27T16:56:15Z</time>
      </trkpt>
      <trkpt lat="48.45247" lon="-1.19122">
        <ele>148</ele>
        <time>2022-08-27T16:56:16Z</time>
      </trkpt>
      <trkpt lat="48.45237" lon="-1.19133">
        <ele>148</ele>
        <time>2022-08-27T16:56:18Z</time>
      </trkpt>
      <trkpt lat="48.45232" lon="-1.19138">
        <ele>148</ele>
        <time>2022-08-27T16:56:19Z</time>
      </trkpt>
      <trkpt lat="48.45207" lon="-1.19163">
        <ele>148</ele>
        <time>2022-08-27T16:56:24Z</time>
      </trkpt>
      <trkpt lat="48.45202" lon="-1.19169">
        <ele>148</ele>
        <time>2022-08-27T16:56:25Z</time>
      </trkpt>
      <trkpt lat="48.45186" lon="-1.19187">
        <ele>148.2</ele>
        <time>2022-08-27T16:56:28Z</time>
      </trkpt>
      <trkpt lat="48.4516" lon="-1.19218">
        <ele>148.4</ele>
        <time>2022-08-27T16:56:33Z</time>
      </trkpt>
      <trkpt lat="48.45149" lon="-1.1923">
        <ele>149</ele>
        <time>2022-08-27T16:56:35Z</time>
      </trkpt>
      <trkpt lat="48.45141" lon="-1.19242">
        <ele>148.4</ele>
        <time>2022-08-27T16:56:37Z</time>
      </trkpt>
      <trkpt lat="48.45136" lon="-1.19248">
        <ele>148.6</ele>
        <time>2022-08-27T16:56:38Z</time>
      </trkpt>
      <trkpt lat="48.4512" lon="-1.19268">
        <ele>148.6</ele>
        <time>2022-08-27T16:56:41Z</time>
      </trkpt>
      <trkpt lat="48.45093" lon="-1.19304">
        <ele>148.6</ele>
        <time>2022-08-27T16:56:46Z</time>
      </trkpt>
      <trkpt lat="48.45073" lon="-1.19332">
        <ele>148.8</ele>
        <time>2022-08-27T16:56:50Z</time>
      </trkpt>
      <trkpt lat="48.4505" lon="-1.19364">
        <ele>149.2</ele>
        <time>2022-08-27T16:56:55Z</time>
      </trkpt>
      <trkpt lat="48.45042" lon="-1.19377">
        <ele>149.2</ele>
        <time>2022-08-27T16:56:57Z</time>
      </trkpt>
      <trkpt lat="48.45028" lon="-1.19398">
        <ele>149.4</ele>
        <time>2022-08-27T16:57:00Z</time>
      </trkpt>
      <trkpt lat="48.45001" lon="-1.19434">
        <ele>149.4</ele>
        <time>2022-08-27T16:57:05Z</time>
      </trkpt>
      <trkpt lat="48.4497" lon="-1.19474">
        <ele>149.6</ele>
        <time>2022-08-27T16:57:11Z</time>
      </trkpt>
      <trkpt lat="48.44966" lon="-1.19481">
        <ele>149.6</ele>
        <time>2022-08-27T16:57:12Z</time>
      </trkpt>
      <trkpt lat="48.44946" lon="-1.19508">
        <ele>149.6</ele>
        <time>2022-08-27T16:57:16Z</time>
      </trkpt>
      <trkpt lat="48.44917" lon="-1.19546">
        <ele>149.8</ele>
        <time>2022-08-27T16:57:22Z</time>
      </trkpt>
      <trkpt lat="48.44885" lon="-1.1959">
        <ele>150.2</ele>
        <time>2022-08-27T16:57:28Z</time>
      </trkpt>
      <trkpt lat="48.44872" lon="-1.19609">
        <ele>150.4</ele>
        <time>2022-08-27T16:57:31Z</time>
      </trkpt>
      <trkpt lat="48.44863" lon="-1.19621">
        <ele>150.4</ele>
        <time>2022-08-27T16:57:33Z</time>
      </trkpt>
      <trkpt lat="48.4485" lon="-1.19639">
        <ele>150.6</ele>
        <time>2022-08-27T16:57:36Z</time>
      </trkpt>
      <trkpt lat="48.44841" lon="-1.19651">
        <ele>150.6</ele>
        <time>2022-08-27T16:57:38Z</time>
      </trkpt>
      <trkpt lat="48.44823" lon="-1.19674">
        <ele>150.8</ele>
        <time>2022-08-27T16:57:42Z</time>
      </trkpt>
      <trkpt lat="48.44808" lon="-1.19693">
        <ele>151</ele>
        <time>2022-08-27T16:57:46Z</time>
      </trkpt>
      <trkpt lat="48.44803" lon="-1.19698">
        <ele>151</ele>
        <time>2022-08-27T16:57:47Z</time>
      </trkpt>
      <trkpt lat="48.44787" lon="-1.19717">
        <ele>151</ele>
        <time>2022-08-27T16:57:50Z</time>
      </trkpt>
      <trkpt lat="48.44781" lon="-1.19723">
        <ele>151</ele>
        <time>2022-08-27T16:57:51Z</time>
      </trkpt>
      <trkpt lat="48.44767" lon="-1.19741">
        <ele>151</ele>
        <time>2022-08-27T16:57:54Z</time>
      </trkpt>
      <trkpt lat="48.44762" lon="-1.19747">
        <ele>151</ele>
        <time>2022-08-27T16:57:55Z</time>
      </trkpt>
      <trkpt lat="48.44757" lon="-1.19753">
        <ele>151</ele>
        <time>2022-08-27T16:57:56Z</time>
      </trkpt>
      <trkpt lat="48.44737" lon="-1.19775">
        <ele>151</ele>
        <time>2022-08-27T16:58:00Z</time>
      </trkpt>
      <trkpt lat="48.44701" lon="-1.19811">
        <ele>150.8</ele>
        <time>2022-08-27T16:58:06Z</time>
      </trkpt>
      <trkpt lat="48.44679" lon="-1.19834">
        <ele>150.6</ele>
        <time>2022-08-27T16:58:10Z</time>
      </trkpt>
      <trkpt lat="48.44642" lon="-1.19867">
        <ele>150.4</ele>
        <time>2022-08-27T16:58:16Z</time>
      </trkpt>
      <trkpt lat="48.44629" lon="-1.19878">
        <ele>150.4</ele>
        <time>2022-08-27T16:58:18Z</time>
      </trkpt>
      <trkpt lat="48.44616" lon="-1.1989">
        <ele>150.2</ele>
        <time>2022-08-27T16:58:20Z</time>
      </trkpt>
      <trkpt lat="48.4459" lon="-1.19911">
        <ele>150.6</ele>
        <time>2022-08-27T16:58:24Z</time>
      </trkpt>
      <trkpt lat="48.44584" lon="-1.19916">
        <ele>150.8</ele>
        <time>2022-08-27T16:58:25Z</time>
      </trkpt>
      <trkpt lat="48.44546" lon="-1.19945">
        <ele>151.4</ele>
        <time>2022-08-27T16:58:31Z</time>
      </trkpt>
      <trkpt lat="48.44508" lon="-1.19973">
        <ele>152</ele>
        <time>2022-08-27T16:58:37Z</time>
      </trkpt>
      <trkpt lat="48.44496" lon="-1.19981">
        <ele>152</ele>
        <time>2022-08-27T16:58:39Z</time>
      </trkpt>
      <trkpt lat="48.44476" lon="-1.19995">
        <ele>152</ele>
        <time>2022-08-27T16:58:42Z</time>
      </trkpt>
      <trkpt lat="48.44434" lon="-1.20019">
        <ele>152</ele>
        <time>2022-08-27T16:58:48Z</time>
      </trkpt>
      <trkpt lat="48.44427" lon="-1.20023">
        <ele>152</ele>
        <time>2022-08-27T16:58:49Z</time>
      </trkpt>
      <trkpt lat="48.44405" lon="-1.20035">
        <ele>152</ele>
        <time>2022-08-27T16:58:52Z</time>
      </trkpt>
      <trkpt lat="48.44353" lon="-1.2006">
        <ele>152</ele>
        <time>2022-08-27T16:58:59Z</time>
      </trkpt>
      <trkpt lat="48.4431" lon="-1.20076">
        <ele>151.4</ele>
        <time>2022-08-27T16:59:05Z</time>
      </trkpt>
      <trkpt lat="48.44297" lon="-1.20077">
        <ele>151</ele>
        <time>2022-08-27T16:59:08Z</time>
      </trkpt>
      <trkpt lat="48.44285" lon="-1.20081">
        <ele>150.8</ele>
        <time>2022-08-27T16:59:12Z</time>
      </trkpt>
      <trkpt lat="48.44277" lon="-1.20086">
        <ele>150.6</ele>
        <time>2022-08-27T16:59:15Z</time>
      </trkpt>
      <trkpt lat="48.44273" lon="-1.20087">
        <ele>150.6</ele>
        <time>2022-08-27T16:59:16Z</time>
      </trkpt>
      <trkpt lat="48.44269" lon="-1.20088">
        <ele>150.6</ele>
        <time>2022-08-27T16:59:17Z</time>
      </trkpt>
      <trkpt lat="48.44251" lon="-1.20095">
        <ele>150.4</ele>
        <time>2022-08-27T16:59:21Z</time>
      </trkpt>
      <trkpt lat="48.44225" lon="-1.20104">
        <ele>150.2</ele>
        <time>2022-08-27T16:59:26Z</time>
      </trkpt>
      <trkpt lat="48.4422" lon="-1.20106">
        <ele>150.2</ele>
        <time>2022-08-27T16:59:27Z</time>
      </trkpt>
      <trkpt lat="48.44209" lon="-1.2011">
        <ele>150.2</ele>
        <time>2022-08-27T16:59:29Z</time>
      </trkpt>
      <trkpt lat="48.44174" lon="-1.20123">
        <ele>149.8</ele>
        <time>2022-08-27T16:59:35Z</time>
      </trkpt>
      <trkpt lat="48.44145" lon="-1.20134">
        <ele>149.8</ele>
        <time>2022-08-27T16:59:40Z</time>
      </trkpt>
      <trkpt lat="48.44115" lon="-1.20144">
        <ele>149.6</ele>
        <time>2022-08-27T16:59:45Z</time>
      </trkpt>
      <trkpt lat="48.4408" lon="-1.20156">
        <ele>149.6</ele>
        <time>2022-08-27T16:59:51Z</time>
      </trkpt>
      <trkpt lat="48.44046" lon="-1.20168">
        <ele>149.4</ele>
        <time>2022-08-27T16:59:57Z</time>
      </trkpt>
      <trkpt lat="48.44015" lon="-1.2018">
        <ele>149.4</ele>
        <time>2022-08-27T17:00:03Z</time>
      </trkpt>
      <trkpt lat="48.43998" lon="-1.20187">
        <ele>149.4</ele>
        <time>2022-08-27T17:00:07Z</time>
      </trkpt>
      <trkpt lat="48.43974" lon="-1.20195">
        <ele>149.4</ele>
        <time>2022-08-27T17:00:13Z</time>
      </trkpt>
      <trkpt lat="48.43949" lon="-1.20202">
        <ele>149.2</ele>
        <time>2022-08-27T17:00:18Z</time>
      </trkpt>
      <trkpt lat="48.43933" lon="-1.20207">
        <ele>148.8</ele>
        <time>2022-08-27T17:00:21Z</time>
      </trkpt>
      <trkpt lat="48.43924" lon="-1.20211">
        <ele>148.8</ele>
        <time>2022-08-27T17:00:23Z</time>
      </trkpt>
      <trkpt lat="48.43919" lon="-1.20213">
        <ele>148.8</ele>
        <time>2022-08-27T17:00:24Z</time>
      </trkpt>
      <trkpt lat="48.43901" lon="-1.20219">
        <ele>148.6</ele>
        <time>2022-08-27T17:00:27Z</time>
      </trkpt>
      <trkpt lat="48.43873" lon="-1.20229">
        <ele>148.4</ele>
        <time>2022-08-27T17:00:32Z</time>
      </trkpt>
      <trkpt lat="48.43868" lon="-1.20232">
        <ele>148.4</ele>
        <time>2022-08-27T17:00:33Z</time>
      </trkpt>
      <trkpt lat="48.43834" lon="-1.20244">
        <ele>148.4</ele>
        <time>2022-08-27T17:00:39Z</time>
      </trkpt>
      <trkpt lat="48.43804" lon="-1.20255">
        <ele>148.2</ele>
        <time>2022-08-27T17:00:44Z</time>
      </trkpt>
      <trkpt lat="48.43769" lon="-1.20269">
        <ele>148</ele>
        <time>2022-08-27T17:00:50Z</time>
      </trkpt>
      <trkpt lat="48.43744" lon="-1.20277">
        <ele>147.6</ele>
        <time>2022-08-27T17:00:54Z</time>
      </trkpt>
      <trkpt lat="48.43726" lon="-1.20284">
        <ele>147.6</ele>
        <time>2022-08-27T17:00:57Z</time>
      </trkpt>
      <trkpt lat="48.43713" lon="-1.20288">
        <ele>147.4</ele>
        <time>2022-08-27T17:00:59Z</time>
      </trkpt>
      <trkpt lat="48.43676" lon="-1.20301">
        <ele>147.2</ele>
        <time>2022-08-27T17:01:05Z</time>
      </trkpt>
      <trkpt lat="48.43645" lon="-1.20313">
        <ele>147.2</ele>
        <time>2022-08-27T17:01:10Z</time>
      </trkpt>
      <trkpt lat="48.43618" lon="-1.20323">
        <ele>147.2</ele>
        <time>2022-08-27T17:01:14Z</time>
      </trkpt>
      <trkpt lat="48.43604" lon="-1.20328">
        <ele>147.2</ele>
        <time>2022-08-27T17:01:16Z</time>
      </trkpt>
      <trkpt lat="48.43587" lon="-1.20333">
        <ele>147</ele>
        <time>2022-08-27T17:01:19Z</time>
      </trkpt>
      <trkpt lat="48.43576" lon="-1.20335">
        <ele>146.8</ele>
        <time>2022-08-27T17:01:21Z</time>
      </trkpt>
      <trkpt lat="48.4357" lon="-1.20337">
        <ele>146.8</ele>
        <time>2022-08-27T17:01:22Z</time>
      </trkpt>
      <trkpt lat="48.4355" lon="-1.20345">
        <ele>146.6</ele>
        <time>2022-08-27T17:01:25Z</time>
      </trkpt>
      <trkpt lat="48.4353" lon="-1.20351">
        <ele>146.4</ele>
        <time>2022-08-27T17:01:28Z</time>
      </trkpt>
      <trkpt lat="48.43524" lon="-1.20354">
        <ele>146.4</ele>
        <time>2022-08-27T17:01:29Z</time>
      </trkpt>
      <trkpt lat="48.43486" lon="-1.20369">
        <ele>146.2</ele>
        <time>2022-08-27T17:01:35Z</time>
      </trkpt>
      <trkpt lat="48.4346" lon="-1.20377">
        <ele>146.2</ele>
        <time>2022-08-27T17:01:39Z</time>
      </trkpt>
      <trkpt lat="48.43454" lon="-1.20379">
        <ele>146.2</ele>
        <time>2022-08-27T17:01:40Z</time>
      </trkpt>
      <trkpt lat="48.43437" lon="-1.20387">
        <ele>146.2</ele>
        <time>2022-08-27T17:01:43Z</time>
      </trkpt>
      <trkpt lat="48.43431" lon="-1.20389">
        <ele>146.2</ele>
        <time>2022-08-27T17:01:44Z</time>
      </trkpt>
      <trkpt lat="48.43392" lon="-1.20402">
        <ele>146.2</ele>
        <time>2022-08-27T17:01:50Z</time>
      </trkpt>
      <trkpt lat="48.43365" lon="-1.20414">
        <ele>146.4</ele>
        <time>2022-08-27T17:01:55Z</time>
      </trkpt>
      <trkpt lat="48.4335" lon="-1.20421">
        <ele>146.4</ele>
        <time>2022-08-27T17:01:58Z</time>
      </trkpt>
      <trkpt lat="48.43345" lon="-1.20423">
        <ele>146.4</ele>
        <time>2022-08-27T17:01:59Z</time>
      </trkpt>
      <trkpt lat="48.43328" lon="-1.2043">
        <ele>146.6</ele>
        <time>2022-08-27T17:02:03Z</time>
      </trkpt>
      <trkpt lat="48.43324" lon="-1.20432">
        <ele>146.6</ele>
        <time>2022-08-27T17:02:04Z</time>
      </trkpt>
      <trkpt lat="48.43314" lon="-1.20435">
        <ele>146.6</ele>
        <time>2022-08-27T17:02:06Z</time>
      </trkpt>
      <trkpt lat="48.43309" lon="-1.20437">
        <ele>146.8</ele>
        <time>2022-08-27T17:02:07Z</time>
      </trkpt>
      <trkpt lat="48.43288" lon="-1.20447">
        <ele>147</ele>
        <time>2022-08-27T17:02:11Z</time>
      </trkpt>
      <trkpt lat="48.43278" lon="-1.20452">
        <ele>147.4</ele>
        <time>2022-08-27T17:02:13Z</time>
      </trkpt>
      <trkpt lat="48.43272" lon="-1.20453">
        <ele>147.4</ele>
        <time>2022-08-27T17:02:14Z</time>
      </trkpt>
      <trkpt lat="48.43267" lon="-1.20455">
        <ele>147.4</ele>
        <time>2022-08-27T17:02:15Z</time>
      </trkpt>
      <trkpt lat="48.43251" lon="-1.20463">
        <ele>147.6</ele>
        <time>2022-08-27T17:02:18Z</time>
      </trkpt>
      <trkpt lat="48.43245" lon="-1.20465">
        <ele>147.6</ele>
        <time>2022-08-27T17:02:19Z</time>
      </trkpt>
      <trkpt lat="48.43215" lon="-1.20475">
        <ele>147.8</ele>
        <time>2022-08-27T17:02:24Z</time>
      </trkpt>
      <trkpt lat="48.43192" lon="-1.20481">
        <ele>148</ele>
        <time>2022-08-27T17:02:28Z</time>
      </trkpt>
      <trkpt lat="48.43187" lon="-1.20483">
        <ele>148.2</ele>
        <time>2022-08-27T17:02:29Z</time>
      </trkpt>
      <trkpt lat="48.43182" lon="-1.20484">
        <ele>148.2</ele>
        <time>2022-08-27T17:02:30Z</time>
      </trkpt>
      <trkpt lat="48.43164" lon="-1.2049">
        <ele>148.4</ele>
        <time>2022-08-27T17:02:33Z</time>
      </trkpt>
      <trkpt lat="48.43142" lon="-1.20499">
        <ele>148.6</ele>
        <time>2022-08-27T17:02:38Z</time>
      </trkpt>
      <trkpt lat="48.4313" lon="-1.20504">
        <ele>149</ele>
        <time>2022-08-27T17:02:42Z</time>
      </trkpt>
      <trkpt lat="48.43115" lon="-1.20508">
        <ele>149.4</ele>
        <time>2022-08-27T17:02:47Z</time>
      </trkpt>
      <trkpt lat="48.43108" lon="-1.20512">
        <ele>149.6</ele>
        <time>2022-08-27T17:02:49Z</time>
      </trkpt>
      <trkpt lat="48.43102" lon="-1.20513">
        <ele>149.6</ele>
        <time>2022-08-27T17:02:50Z</time>
      </trkpt>
      <trkpt lat="48.43067" lon="-1.20524">
        <ele>150</ele>
        <time>2022-08-27T17:02:56Z</time>
      </trkpt>
      <trkpt lat="48.43026" lon="-1.20538">
        <ele>150.4</ele>
        <time>2022-08-27T17:03:02Z</time>
      </trkpt>
      <trkpt lat="48.42985" lon="-1.20552">
        <ele>150.8</ele>
        <time>2022-08-27T17:03:08Z</time>
      </trkpt>
      <trkpt lat="48.42939" lon="-1.20567">
        <ele>151.2</ele>
        <time>2022-08-27T17:03:15Z</time>
      </trkpt>
      <trkpt lat="48.42933" lon="-1.20569">
        <ele>151.2</ele>
        <time>2022-08-27T17:03:16Z</time>
      </trkpt>
      <trkpt lat="48.42908" lon="-1.2058">
        <ele>151.4</ele>
        <time>2022-08-27T17:03:20Z</time>
      </trkpt>
      <trkpt lat="48.4287" lon="-1.20594">
        <ele>152</ele>
        <time>2022-08-27T17:03:26Z</time>
      </trkpt>
      <trkpt lat="48.42857" lon="-1.20599">
        <ele>152.2</ele>
        <time>2022-08-27T17:03:28Z</time>
      </trkpt>
      <trkpt lat="48.42833" lon="-1.20612">
        <ele>152.4</ele>
        <time>2022-08-27T17:03:32Z</time>
      </trkpt>
      <trkpt lat="48.42804" lon="-1.20628">
        <ele>152.8</ele>
        <time>2022-08-27T17:03:37Z</time>
      </trkpt>
      <trkpt lat="48.42799" lon="-1.20632">
        <ele>152.8</ele>
        <time>2022-08-27T17:03:38Z</time>
      </trkpt>
      <trkpt lat="48.4278" lon="-1.20645">
        <ele>152.8</ele>
        <time>2022-08-27T17:03:41Z</time>
      </trkpt>
      <trkpt lat="48.42743" lon="-1.20673">
        <ele>153</ele>
        <time>2022-08-27T17:03:47Z</time>
      </trkpt>
      <trkpt lat="48.4272" lon="-1.20694">
        <ele>153.4</ele>
        <time>2022-08-27T17:03:51Z</time>
      </trkpt>
      <trkpt lat="48.42696" lon="-1.20722">
        <ele>153.6</ele>
        <time>2022-08-27T17:03:56Z</time>
      </trkpt>
      <trkpt lat="48.42674" lon="-1.20752">
        <ele>153.8</ele>
        <time>2022-08-27T17:04:01Z</time>
      </trkpt>
      <trkpt lat="48.42655" lon="-1.2078">
        <ele>154</ele>
        <time>2022-08-27T17:04:05Z</time>
      </trkpt>
      <trkpt lat="48.42638" lon="-1.20807">
        <ele>154.2</ele>
        <time>2022-08-27T17:04:09Z</time>
      </trkpt>
      <trkpt lat="48.42626" lon="-1.20828">
        <ele>154.2</ele>
        <time>2022-08-27T17:04:12Z</time>
      </trkpt>
      <trkpt lat="48.42619" lon="-1.20841">
        <ele>154.4</ele>
        <time>2022-08-27T17:04:14Z</time>
      </trkpt>
      <trkpt lat="48.42616" lon="-1.20849">
        <ele>154.4</ele>
        <time>2022-08-27T17:04:15Z</time>
      </trkpt>
      <trkpt lat="48.42597" lon="-1.20894">
        <ele>155</ele>
        <time>2022-08-27T17:04:21Z</time>
      </trkpt>
      <trkpt lat="48.42582" lon="-1.20932">
        <ele>155.4</ele>
        <time>2022-08-27T17:04:26Z</time>
      </trkpt>
      <trkpt lat="48.42573" lon="-1.20954">
        <ele>155.8</ele>
        <time>2022-08-27T17:04:29Z</time>
      </trkpt>
      <trkpt lat="48.42567" lon="-1.20968">
        <ele>156</ele>
        <time>2022-08-27T17:04:31Z</time>
      </trkpt>
      <trkpt lat="48.42549" lon="-1.21013">
        <ele>156.6</ele>
        <time>2022-08-27T17:04:37Z</time>
      </trkpt>
      <trkpt lat="48.42527" lon="-1.21068">
        <ele>157.4</ele>
        <time>2022-08-27T17:04:44Z</time>
      </trkpt>
      <trkpt lat="48.42513" lon="-1.21105">
        <ele>158</ele>
        <time>2022-08-27T17:04:49Z</time>
      </trkpt>
      <trkpt lat="48.42502" lon="-1.21135">
        <ele>158.4</ele>
        <time>2022-08-27T17:04:53Z</time>
      </trkpt>
      <trkpt lat="48.42499" lon="-1.21143">
        <ele>158.6</ele>
        <time>2022-08-27T17:04:54Z</time>
      </trkpt>
      <trkpt lat="48.4249" lon="-1.21167">
        <ele>158.8</ele>
        <time>2022-08-27T17:04:57Z</time>
      </trkpt>
      <trkpt lat="48.42487" lon="-1.21174">
        <ele>158.8</ele>
        <time>2022-08-27T17:04:58Z</time>
      </trkpt>
      <trkpt lat="48.42466" lon="-1.21225">
        <ele>159.2</ele>
        <time>2022-08-27T17:05:04Z</time>
      </trkpt>
      <trkpt lat="48.42453" lon="-1.21257">
        <ele>159.4</ele>
        <time>2022-08-27T17:05:08Z</time>
      </trkpt>
      <trkpt lat="48.42446" lon="-1.21273">
        <ele>159.6</ele>
        <time>2022-08-27T17:05:10Z</time>
      </trkpt>
      <trkpt lat="48.42441" lon="-1.21289">
        <ele>159.8</ele>
        <time>2022-08-27T17:05:12Z</time>
      </trkpt>
      <trkpt lat="48.42423" lon="-1.21336">
        <ele>160.2</ele>
        <time>2022-08-27T17:05:18Z</time>
      </trkpt>
      <trkpt lat="48.42403" lon="-1.21385">
        <ele>160.6</ele>
        <time>2022-08-27T17:05:24Z</time>
      </trkpt>
      <trkpt lat="48.424" lon="-1.21392">
        <ele>160.6</ele>
        <time>2022-08-27T17:05:25Z</time>
      </trkpt>
      <trkpt lat="48.42395" lon="-1.21408">
        <ele>160.8</ele>
        <time>2022-08-27T17:05:27Z</time>
      </trkpt>
      <trkpt lat="48.42385" lon="-1.21431">
        <ele>161</ele>
        <time>2022-08-27T17:05:30Z</time>
      </trkpt>
      <trkpt lat="48.42368" lon="-1.21477">
        <ele>161.6</ele>
        <time>2022-08-27T17:05:36Z</time>
      </trkpt>
      <trkpt lat="48.42365" lon="-1.21485">
        <ele>161.6</ele>
        <time>2022-08-27T17:05:37Z</time>
      </trkpt>
      <trkpt lat="48.42353" lon="-1.21518">
        <ele>162.2</ele>
        <time>2022-08-27T17:05:41Z</time>
      </trkpt>
      <trkpt lat="48.4235" lon="-1.21526">
        <ele>162.2</ele>
        <time>2022-08-27T17:05:42Z</time>
      </trkpt>
      <trkpt lat="48.42343" lon="-1.21542">
        <ele>162.4</ele>
        <time>2022-08-27T17:05:44Z</time>
      </trkpt>
      <trkpt lat="48.42338" lon="-1.21557">
        <ele>162.6</ele>
        <time>2022-08-27T17:05:46Z</time>
      </trkpt>
      <trkpt lat="48.42335" lon="-1.21564">
        <ele>162.6</ele>
        <time>2022-08-27T17:05:47Z</time>
      </trkpt>
      <trkpt lat="48.42319" lon="-1.21604">
        <ele>163.2</ele>
        <time>2022-08-27T17:05:52Z</time>
      </trkpt>
      <trkpt lat="48.42314" lon="-1.21619">
        <ele>163.2</ele>
        <time>2022-08-27T17:05:54Z</time>
      </trkpt>
      <trkpt lat="48.42309" lon="-1.21633">
        <ele>163.6</ele>
        <time>2022-08-27T17:05:56Z</time>
      </trkpt>
      <trkpt lat="48.42299" lon="-1.21656">
        <ele>163.8</ele>
        <time>2022-08-27T17:05:59Z</time>
      </trkpt>
      <trkpt lat="48.42295" lon="-1.21664">
        <ele>164</ele>
        <time>2022-08-27T17:06:00Z</time>
      </trkpt>
      <trkpt lat="48.42273" lon="-1.21709">
        <ele>164.6</ele>
        <time>2022-08-27T17:06:06Z</time>
      </trkpt>
      <trkpt lat="48.42259" lon="-1.21739">
        <ele>165</ele>
        <time>2022-08-27T17:06:10Z</time>
      </trkpt>
      <trkpt lat="48.42255" lon="-1.21746">
        <ele>165</ele>
        <time>2022-08-27T17:06:11Z</time>
      </trkpt>
      <trkpt lat="48.42228" lon="-1.218">
        <ele>165.2</ele>
        <time>2022-08-27T17:06:18Z</time>
      </trkpt>
      <trkpt lat="48.4221" lon="-1.21832">
        <ele>165.6</ele>
        <time>2022-08-27T17:06:24Z</time>
      </trkpt>
      <trkpt lat="48.42201" lon="-1.21846">
        <ele>165.8</ele>
        <time>2022-08-27T17:06:29Z</time>
      </trkpt>
      <trkpt lat="48.42195" lon="-1.21862">
        <ele>166</ele>
        <time>2022-08-27T17:06:34Z</time>
      </trkpt>
      <trkpt lat="48.42191" lon="-1.21865">
        <ele>166.2</ele>
        <time>2022-08-27T17:06:36Z</time>
      </trkpt>
      <trkpt lat="48.42188" lon="-1.21872">
        <ele>166.4</ele>
        <time>2022-08-27T17:06:38Z</time>
      </trkpt>
      <trkpt lat="48.42185" lon="-1.21882">
        <ele>166.4</ele>
        <time>2022-08-27T17:06:40Z</time>
      </trkpt>
      <trkpt lat="48.42179" lon="-1.21892">
        <ele>166.6</ele>
        <time>2022-08-27T17:06:42Z</time>
      </trkpt>
      <trkpt lat="48.42155" lon="-1.21935">
        <ele>167</ele>
        <time>2022-08-27T17:06:49Z</time>
      </trkpt>
      <trkpt lat="48.42149" lon="-1.21947">
        <ele>167</ele>
        <time>2022-08-27T17:06:51Z</time>
      </trkpt>
      <trkpt lat="48.42139" lon="-1.21966">
        <ele>167</ele>
        <time>2022-08-27T17:06:54Z</time>
      </trkpt>
      <trkpt lat="48.42135" lon="-1.21972">
        <ele>167</ele>
        <time>2022-08-27T17:06:55Z</time>
      </trkpt>
      <trkpt lat="48.42125" lon="-1.21989">
        <ele>167.4</ele>
        <time>2022-08-27T17:06:58Z</time>
      </trkpt>
      <trkpt lat="48.42114" lon="-1.2201">
        <ele>167.6</ele>
        <time>2022-08-27T17:07:02Z</time>
      </trkpt>
      <trkpt lat="48.42111" lon="-1.22015">
        <ele>167.8</ele>
        <time>2022-08-27T17:07:03Z</time>
      </trkpt>
      <trkpt lat="48.42102" lon="-1.22033">
        <ele>168</ele>
        <time>2022-08-27T17:07:06Z</time>
      </trkpt>
      <trkpt lat="48.42095" lon="-1.22043">
        <ele>168.2</ele>
        <time>2022-08-27T17:07:08Z</time>
      </trkpt>
      <trkpt lat="48.42089" lon="-1.22057">
        <ele>168.4</ele>
        <time>2022-08-27T17:07:10Z</time>
      </trkpt>
      <trkpt lat="48.42081" lon="-1.22068">
        <ele>168.8</ele>
        <time>2022-08-27T17:07:12Z</time>
      </trkpt>
      <trkpt lat="48.42066" lon="-1.22092">
        <ele>169.4</ele>
        <time>2022-08-27T17:07:16Z</time>
      </trkpt>
      <trkpt lat="48.42052" lon="-1.2212">
        <ele>169.8</ele>
        <time>2022-08-27T17:07:20Z</time>
      </trkpt>
      <trkpt lat="48.42048" lon="-1.22127">
        <ele>169.8</ele>
        <time>2022-08-27T17:07:21Z</time>
      </trkpt>
      <trkpt lat="48.42044" lon="-1.22133">
        <ele>170</ele>
        <time>2022-08-27T17:07:22Z</time>
      </trkpt>
      <trkpt lat="48.42037" lon="-1.22146">
        <ele>170.2</ele>
        <time>2022-08-27T17:07:24Z</time>
      </trkpt>
      <trkpt lat="48.4201" lon="-1.22187">
        <ele>170.6</ele>
        <time>2022-08-27T17:07:30Z</time>
      </trkpt>
      <trkpt lat="48.41989" lon="-1.22222">
        <ele>170.8</ele>
        <time>2022-08-27T17:07:35Z</time>
      </trkpt>
      <trkpt lat="48.41967" lon="-1.2226">
        <ele>171</ele>
        <time>2022-08-27T17:07:40Z</time>
      </trkpt>
      <trkpt lat="48.41946" lon="-1.22298">
        <ele>171.2</ele>
        <time>2022-08-27T17:07:45Z</time>
      </trkpt>
      <trkpt lat="48.41925" lon="-1.22335">
        <ele>171</ele>
        <time>2022-08-27T17:07:50Z</time>
      </trkpt>
      <trkpt lat="48.41915" lon="-1.2235">
        <ele>171</ele>
        <time>2022-08-27T17:07:52Z</time>
      </trkpt>
      <trkpt lat="48.41907" lon="-1.22365">
        <ele>171</ele>
        <time>2022-08-27T17:07:54Z</time>
      </trkpt>
      <trkpt lat="48.41886" lon="-1.22398">
        <ele>170.2</ele>
        <time>2022-08-27T17:07:59Z</time>
      </trkpt>
      <trkpt lat="48.41882" lon="-1.22405">
        <ele>170.2</ele>
        <time>2022-08-27T17:08:00Z</time>
      </trkpt>
      <trkpt lat="48.41866" lon="-1.22432">
        <ele>170</ele>
        <time>2022-08-27T17:08:04Z</time>
      </trkpt>
      <trkpt lat="48.41862" lon="-1.22439">
        <ele>170</ele>
        <time>2022-08-27T17:08:05Z</time>
      </trkpt>
      <trkpt lat="48.41846" lon="-1.22465">
        <ele>169.8</ele>
        <time>2022-08-27T17:08:09Z</time>
      </trkpt>
      <trkpt lat="48.41828" lon="-1.22493">
        <ele>169.6</ele>
        <time>2022-08-27T17:08:14Z</time>
      </trkpt>
      <trkpt lat="48.41826" lon="-1.22498">
        <ele>169.4</ele>
        <time>2022-08-27T17:08:15Z</time>
      </trkpt>
      <trkpt lat="48.41824" lon="-1.22501">
        <ele>169.4</ele>
        <time>2022-08-27T17:08:16Z</time>
      </trkpt>
      <trkpt lat="48.41823" lon="-1.22504">
        <ele>169.2</ele>
        <time>2022-08-27T17:08:18Z</time>
      </trkpt>
      <trkpt lat="48.41823" lon="-1.22505">
        <ele>169.2</ele>
        <time>2022-08-27T17:08:19Z</time>
      </trkpt>
      <trkpt lat="48.41822" lon="-1.2251">
        <ele>169</ele>
        <time>2022-08-27T17:08:21Z</time>
      </trkpt>
      <trkpt lat="48.41814" lon="-1.22524">
        <ele>168.4</ele>
        <time>2022-08-27T17:08:26Z</time>
      </trkpt>
      <trkpt lat="48.41809" lon="-1.22533">
        <ele>168.2</ele>
        <time>2022-08-27T17:08:29Z</time>
      </trkpt>
      <trkpt lat="48.41807" lon="-1.22535">
        <ele>168.2</ele>
        <time>2022-08-27T17:08:30Z</time>
      </trkpt>
      <trkpt lat="48.41805" lon="-1.22539">
        <ele>168</ele>
        <time>2022-08-27T17:08:31Z</time>
      </trkpt>
      <trkpt lat="48.418" lon="-1.2255">
        <ele>167.8</ele>
        <time>2022-08-27T17:08:34Z</time>
      </trkpt>
      <trkpt lat="48.41795" lon="-1.22559">
        <ele>167.8</ele>
        <time>2022-08-27T17:08:36Z</time>
      </trkpt>
      <trkpt lat="48.4179" lon="-1.22567">
        <ele>167.8</ele>
        <time>2022-08-27T17:08:38Z</time>
      </trkpt>
      <trkpt lat="48.41775" lon="-1.22593">
        <ele>167.8</ele>
        <time>2022-08-27T17:08:43Z</time>
      </trkpt>
      <trkpt lat="48.41766" lon="-1.22609">
        <ele>168</ele>
        <time>2022-08-27T17:08:46Z</time>
      </trkpt>
      <trkpt lat="48.4176" lon="-1.2262">
        <ele>168</ele>
        <time>2022-08-27T17:08:48Z</time>
      </trkpt>
      <trkpt lat="48.41743" lon="-1.22648">
        <ele>167.8</ele>
        <time>2022-08-27T17:08:53Z</time>
      </trkpt>
      <trkpt lat="48.41737" lon="-1.2266">
        <ele>168.2</ele>
        <time>2022-08-27T17:08:55Z</time>
      </trkpt>
      <trkpt lat="48.41723" lon="-1.22682">
        <ele>168.4</ele>
        <time>2022-08-27T17:08:59Z</time>
      </trkpt>
      <trkpt lat="48.41711" lon="-1.227">
        <ele>168.6</ele>
        <time>2022-08-27T17:09:02Z</time>
      </trkpt>
      <trkpt lat="48.41706" lon="-1.22706">
        <ele>168.6</ele>
        <time>2022-08-27T17:09:03Z</time>
      </trkpt>
      <trkpt lat="48.41699" lon="-1.22717">
        <ele>168.8</ele>
        <time>2022-08-27T17:09:05Z</time>
      </trkpt>
      <trkpt lat="48.41693" lon="-1.22727">
        <ele>168.8</ele>
        <time>2022-08-27T17:09:07Z</time>
      </trkpt>
      <trkpt lat="48.41673" lon="-1.22751">
        <ele>169.2</ele>
        <time>2022-08-27T17:09:12Z</time>
      </trkpt>
      <trkpt lat="48.4165" lon="-1.22777">
        <ele>169.6</ele>
        <time>2022-08-27T17:09:17Z</time>
      </trkpt>
      <trkpt lat="48.41625" lon="-1.22806">
        <ele>169.8</ele>
        <time>2022-08-27T17:09:23Z</time>
      </trkpt>
      <trkpt lat="48.41601" lon="-1.22829">
        <ele>170</ele>
        <time>2022-08-27T17:09:28Z</time>
      </trkpt>
      <trkpt lat="48.41577" lon="-1.22852">
        <ele>170.2</ele>
        <time>2022-08-27T17:09:33Z</time>
      </trkpt>
      <trkpt lat="48.41551" lon="-1.22873">
        <ele>170.2</ele>
        <time>2022-08-27T17:09:38Z</time>
      </trkpt>
      <trkpt lat="48.41525" lon="-1.22893">
        <ele>170.4</ele>
        <time>2022-08-27T17:09:43Z</time>
      </trkpt>
      <trkpt lat="48.4152" lon="-1.22898">
        <ele>170.4</ele>
        <time>2022-08-27T17:09:44Z</time>
      </trkpt>
      <trkpt lat="48.41515" lon="-1.22901">
        <ele>170.4</ele>
        <time>2022-08-27T17:09:45Z</time>
      </trkpt>
      <trkpt lat="48.41501" lon="-1.2291">
        <ele>170.4</ele>
        <time>2022-08-27T17:09:48Z</time>
      </trkpt>
      <trkpt lat="48.41472" lon="-1.22926">
        <ele>170.2</ele>
        <time>2022-08-27T17:09:53Z</time>
      </trkpt>
      <trkpt lat="48.41466" lon="-1.22929">
        <ele>170.2</ele>
        <time>2022-08-27T17:09:54Z</time>
      </trkpt>
      <trkpt lat="48.41441" lon="-1.22941">
        <ele>170.2</ele>
        <time>2022-08-27T17:09:58Z</time>
      </trkpt>
      <trkpt lat="48.41405" lon="-1.22954">
        <ele>169.8</ele>
        <time>2022-08-27T17:10:04Z</time>
      </trkpt>
      <trkpt lat="48.41399" lon="-1.22955">
        <ele>169.6</ele>
        <time>2022-08-27T17:10:05Z</time>
      </trkpt>
      <trkpt lat="48.4138" lon="-1.22961">
        <ele>169.4</ele>
        <time>2022-08-27T17:10:08Z</time>
      </trkpt>
      <trkpt lat="48.41354" lon="-1.22969">
        <ele>169</ele>
        <time>2022-08-27T17:10:12Z</time>
      </trkpt>
      <trkpt lat="48.41342" lon="-1.22972">
        <ele>169</ele>
        <time>2022-08-27T17:10:14Z</time>
      </trkpt>
      <trkpt lat="48.41305" lon="-1.2298">
        <ele>168.8</ele>
        <time>2022-08-27T17:10:20Z</time>
      </trkpt>
      <trkpt lat="48.41282" lon="-1.22982">
        <ele>168.6</ele>
        <time>2022-08-27T17:10:24Z</time>
      </trkpt>
      <trkpt lat="48.41249" lon="-1.22982">
        <ele>168.6</ele>
        <time>2022-08-27T17:10:29Z</time>
      </trkpt>
      <trkpt lat="48.41204" lon="-1.22978">
        <ele>168.4</ele>
        <time>2022-08-27T17:10:37Z</time>
      </trkpt>
      <trkpt lat="48.41192" lon="-1.22976">
        <ele>169</ele>
        <time>2022-08-27T17:10:41Z</time>
      </trkpt>
      <trkpt lat="48.41178" lon="-1.22974">
        <ele>169</ele>
        <time>2022-08-27T17:10:45Z</time>
      </trkpt>
      <trkpt lat="48.41174" lon="-1.22974">
        <ele>169</ele>
        <time>2022-08-27T17:10:46Z</time>
      </trkpt>
      <trkpt lat="48.41169" lon="-1.22973">
        <ele>169</ele>
        <time>2022-08-27T17:10:47Z</time>
      </trkpt>
      <trkpt lat="48.41152" lon="-1.2297">
        <ele>169</ele>
        <time>2022-08-27T17:10:50Z</time>
      </trkpt>
      <trkpt lat="48.4112" lon="-1.22962">
        <ele>168.8</ele>
        <time>2022-08-27T17:10:55Z</time>
      </trkpt>
      <trkpt lat="48.41096" lon="-1.22957">
        <ele>169</ele>
        <time>2022-08-27T17:11:00Z</time>
      </trkpt>
      <trkpt lat="48.41076" lon="-1.22954">
        <ele>169</ele>
        <time>2022-08-27T17:11:04Z</time>
      </trkpt>
      <trkpt lat="48.41061" lon="-1.22951">
        <ele>169</ele>
        <time>2022-08-27T17:11:07Z</time>
      </trkpt>
      <trkpt lat="48.41056" lon="-1.2295">
        <ele>169</ele>
        <time>2022-08-27T17:11:08Z</time>
      </trkpt>
      <trkpt lat="48.41035" lon="-1.22946">
        <ele>169.2</ele>
        <time>2022-08-27T17:11:12Z</time>
      </trkpt>
      <trkpt lat="48.4103" lon="-1.22945">
        <ele>169.2</ele>
        <time>2022-08-27T17:11:13Z</time>
      </trkpt>
      <trkpt lat="48.41024" lon="-1.22945">
        <ele>169.2</ele>
        <time>2022-08-27T17:11:14Z</time>
      </trkpt>
      <trkpt lat="48.41014" lon="-1.22945">
        <ele>169.2</ele>
        <time>2022-08-27T17:11:16Z</time>
      </trkpt>
      <trkpt lat="48.41002" lon="-1.22943">
        <ele>169.2</ele>
        <time>2022-08-27T17:11:18Z</time>
      </trkpt>
      <trkpt lat="48.40996" lon="-1.22941">
        <ele>169.2</ele>
        <time>2022-08-27T17:11:19Z</time>
      </trkpt>
      <trkpt lat="48.4097" lon="-1.22936">
        <ele>169.2</ele>
        <time>2022-08-27T17:11:23Z</time>
      </trkpt>
      <trkpt lat="48.40946" lon="-1.22929">
        <ele>169.2</ele>
        <time>2022-08-27T17:11:27Z</time>
      </trkpt>
      <trkpt lat="48.40914" lon="-1.22922">
        <ele>169.4</ele>
        <time>2022-08-27T17:11:32Z</time>
      </trkpt>
      <trkpt lat="48.40877" lon="-1.22912">
        <ele>169.4</ele>
        <time>2022-08-27T17:11:37Z</time>
      </trkpt>
      <trkpt lat="48.40864" lon="-1.22909">
        <ele>169.2</ele>
        <time>2022-08-27T17:11:39Z</time>
      </trkpt>
      <trkpt lat="48.40851" lon="-1.22907">
        <ele>169.2</ele>
        <time>2022-08-27T17:11:41Z</time>
      </trkpt>
      <trkpt lat="48.40825" lon="-1.22901">
        <ele>169.4</ele>
        <time>2022-08-27T17:11:45Z</time>
      </trkpt>
      <trkpt lat="48.40809" lon="-1.22898">
        <ele>169.4</ele>
        <time>2022-08-27T17:11:48Z</time>
      </trkpt>
      <trkpt lat="48.40804" lon="-1.22898">
        <ele>169.4</ele>
        <time>2022-08-27T17:11:49Z</time>
      </trkpt>
      <trkpt lat="48.40786" lon="-1.22895">
        <ele>169.4</ele>
        <time>2022-08-27T17:11:52Z</time>
      </trkpt>
      <trkpt lat="48.40779" lon="-1.22892">
        <ele>169.4</ele>
        <time>2022-08-27T17:11:53Z</time>
      </trkpt>
      <trkpt lat="48.40754" lon="-1.22888">
        <ele>169.4</ele>
        <time>2022-08-27T17:11:57Z</time>
      </trkpt>
      <trkpt lat="48.40749" lon="-1.22886">
        <ele>169.4</ele>
        <time>2022-08-27T17:11:58Z</time>
      </trkpt>
      <trkpt lat="48.40744" lon="-1.22886">
        <ele>169.4</ele>
        <time>2022-08-27T17:11:59Z</time>
      </trkpt>
      <trkpt lat="48.40727" lon="-1.22881">
        <ele>169.4</ele>
        <time>2022-08-27T17:12:02Z</time>
      </trkpt>
      <trkpt lat="48.40707" lon="-1.22876">
        <ele>169.6</ele>
        <time>2022-08-27T17:12:05Z</time>
      </trkpt>
      <trkpt lat="48.40682" lon="-1.22869">
        <ele>169.6</ele>
        <time>2022-08-27T17:12:09Z</time>
      </trkpt>
      <trkpt lat="48.40655" lon="-1.22864">
        <ele>169.6</ele>
        <time>2022-08-27T17:12:13Z</time>
      </trkpt>
      <trkpt lat="48.40619" lon="-1.22857">
        <ele>169.6</ele>
        <time>2022-08-27T17:12:19Z</time>
      </trkpt>
      <trkpt lat="48.40588" lon="-1.22851">
        <ele>169.6</ele>
        <time>2022-08-27T17:12:24Z</time>
      </trkpt>
      <trkpt lat="48.40576" lon="-1.22847">
        <ele>169.8</ele>
        <time>2022-08-27T17:12:26Z</time>
      </trkpt>
      <trkpt lat="48.40564" lon="-1.22844">
        <ele>169.8</ele>
        <time>2022-08-27T17:12:28Z</time>
      </trkpt>
      <trkpt lat="48.40533" lon="-1.22837">
        <ele>170</ele>
        <time>2022-08-27T17:12:33Z</time>
      </trkpt>
      <trkpt lat="48.405" lon="-1.22829">
        <ele>170</ele>
        <time>2022-08-27T17:12:39Z</time>
      </trkpt>
      <trkpt lat="48.40477" lon="-1.22825">
        <ele>170</ele>
        <time>2022-08-27T17:12:43Z</time>
      </trkpt>
      <trkpt lat="48.40447" lon="-1.2282">
        <ele>170</ele>
        <time>2022-08-27T17:12:48Z</time>
      </trkpt>
      <trkpt lat="48.40429" lon="-1.22817">
        <ele>170.2</ele>
        <time>2022-08-27T17:12:51Z</time>
      </trkpt>
      <trkpt lat="48.40419" lon="-1.22816">
        <ele>170.2</ele>
        <time>2022-08-27T17:12:53Z</time>
      </trkpt>
      <trkpt lat="48.4038" lon="-1.22805">
        <ele>170.2</ele>
        <time>2022-08-27T17:12:59Z</time>
      </trkpt>
      <trkpt lat="48.40354" lon="-1.22798">
        <ele>170.2</ele>
        <time>2022-08-27T17:13:04Z</time>
      </trkpt>
      <trkpt lat="48.4033" lon="-1.22794">
        <ele>170.2</ele>
        <time>2022-08-27T17:13:08Z</time>
      </trkpt>
      <trkpt lat="48.40306" lon="-1.22789">
        <ele>170</ele>
        <time>2022-08-27T17:13:12Z</time>
      </trkpt>
      <trkpt lat="48.40281" lon="-1.22785">
        <ele>169.8</ele>
        <time>2022-08-27T17:13:16Z</time>
      </trkpt>
      <trkpt lat="48.40255" lon="-1.2278">
        <ele>169.4</ele>
        <time>2022-08-27T17:13:20Z</time>
      </trkpt>
      <trkpt lat="48.40223" lon="-1.22771">
        <ele>169</ele>
        <time>2022-08-27T17:13:25Z</time>
      </trkpt>
      <trkpt lat="48.40197" lon="-1.22765">
        <ele>168.8</ele>
        <time>2022-08-27T17:13:29Z</time>
      </trkpt>
      <trkpt lat="48.40164" lon="-1.22758">
        <ele>168.2</ele>
        <time>2022-08-27T17:13:34Z</time>
      </trkpt>
      <trkpt lat="48.40131" lon="-1.22752">
        <ele>167.6</ele>
        <time>2022-08-27T17:13:39Z</time>
      </trkpt>
      <trkpt lat="48.40099" lon="-1.22747">
        <ele>167.2</ele>
        <time>2022-08-27T17:13:44Z</time>
      </trkpt>
      <trkpt lat="48.40074" lon="-1.22743">
        <ele>166.8</ele>
        <time>2022-08-27T17:13:48Z</time>
      </trkpt>
      <trkpt lat="48.40048" lon="-1.22736">
        <ele>166.4</ele>
        <time>2022-08-27T17:13:52Z</time>
      </trkpt>
      <trkpt lat="48.40036" lon="-1.22733">
        <ele>166</ele>
        <time>2022-08-27T17:13:54Z</time>
      </trkpt>
      <trkpt lat="48.40011" lon="-1.22726">
        <ele>165.6</ele>
        <time>2022-08-27T17:13:58Z</time>
      </trkpt>
      <trkpt lat="48.39996" lon="-1.22722">
        <ele>165.4</ele>
        <time>2022-08-27T17:14:00Z</time>
      </trkpt>
      <trkpt lat="48.39981" lon="-1.22716">
        <ele>165.2</ele>
        <time>2022-08-27T17:14:02Z</time>
      </trkpt>
      <trkpt lat="48.39945" lon="-1.22704">
        <ele>165</ele>
        <time>2022-08-27T17:14:07Z</time>
      </trkpt>
      <trkpt lat="48.39911" lon="-1.22692">
        <ele>165</ele>
        <time>2022-08-27T17:14:12Z</time>
      </trkpt>
      <trkpt lat="48.39862" lon="-1.22675">
        <ele>164.6</ele>
        <time>2022-08-27T17:14:19Z</time>
      </trkpt>
      <trkpt lat="48.39833" lon="-1.22665">
        <ele>164.2</ele>
        <time>2022-08-27T17:14:23Z</time>
      </trkpt>
      <trkpt lat="48.39807" lon="-1.22653">
        <ele>163.8</ele>
        <time>2022-08-27T17:14:27Z</time>
      </trkpt>
      <trkpt lat="48.39802" lon="-1.22652">
        <ele>163.8</ele>
        <time>2022-08-27T17:14:28Z</time>
      </trkpt>
      <trkpt lat="48.39799" lon="-1.22653">
        <ele>163.6</ele>
        <time>2022-08-27T17:14:29Z</time>
      </trkpt>
      <trkpt lat="48.39795" lon="-1.22653">
        <ele>163.4</ele>
        <time>2022-08-27T17:14:30Z</time>
      </trkpt>
      <trkpt lat="48.3979" lon="-1.22652">
        <ele>163.2</ele>
        <time>2022-08-27T17:14:32Z</time>
      </trkpt>
      <trkpt lat="48.39781" lon="-1.2265">
        <ele>162.8</ele>
        <time>2022-08-27T17:14:35Z</time>
      </trkpt>
      <trkpt lat="48.39759" lon="-1.22642">
        <ele>162.4</ele>
        <time>2022-08-27T17:14:38Z</time>
      </trkpt>
      <trkpt lat="48.39729" lon="-1.22631">
        <ele>162</ele>
        <time>2022-08-27T17:14:42Z</time>
      </trkpt>
      <trkpt lat="48.39709" lon="-1.22624">
        <ele>161.8</ele>
        <time>2022-08-27T17:14:45Z</time>
      </trkpt>
      <trkpt lat="48.39672" lon="-1.22612">
        <ele>161.4</ele>
        <time>2022-08-27T17:14:50Z</time>
      </trkpt>
      <trkpt lat="48.39625" lon="-1.22594">
        <ele>161</ele>
        <time>2022-08-27T17:14:56Z</time>
      </trkpt>
      <trkpt lat="48.39571" lon="-1.22575">
        <ele>160.4</ele>
        <time>2022-08-27T17:15:03Z</time>
      </trkpt>
      <trkpt lat="48.39527" lon="-1.2256">
        <ele>160</ele>
        <time>2022-08-27T17:15:09Z</time>
      </trkpt>
      <trkpt lat="48.39479" lon="-1.22544">
        <ele>159.4</ele>
        <time>2022-08-27T17:15:16Z</time>
      </trkpt>
      <trkpt lat="48.39467" lon="-1.22541">
        <ele>159.4</ele>
        <time>2022-08-27T17:15:18Z</time>
      </trkpt>
      <trkpt lat="48.3944" lon="-1.22532">
        <ele>159</ele>
        <time>2022-08-27T17:15:22Z</time>
      </trkpt>
      <trkpt lat="48.39427" lon="-1.22527">
        <ele>158.8</ele>
        <time>2022-08-27T17:15:24Z</time>
      </trkpt>
      <trkpt lat="48.39414" lon="-1.22523">
        <ele>158.4</ele>
        <time>2022-08-27T17:15:26Z</time>
      </trkpt>
      <trkpt lat="48.39386" lon="-1.22513">
        <ele>158</ele>
        <time>2022-08-27T17:15:30Z</time>
      </trkpt>
      <trkpt lat="48.39341" lon="-1.22499">
        <ele>157.4</ele>
        <time>2022-08-27T17:15:36Z</time>
      </trkpt>
      <trkpt lat="48.39296" lon="-1.22484">
        <ele>156.8</ele>
        <time>2022-08-27T17:15:42Z</time>
      </trkpt>
      <trkpt lat="48.3926" lon="-1.22471">
        <ele>156.2</ele>
        <time>2022-08-27T17:15:47Z</time>
      </trkpt>
      <trkpt lat="48.39217" lon="-1.22456">
        <ele>155.6</ele>
        <time>2022-08-27T17:15:53Z</time>
      </trkpt>
      <trkpt lat="48.39181" lon="-1.22445">
        <ele>155.4</ele>
        <time>2022-08-27T17:15:58Z</time>
      </trkpt>
      <trkpt lat="48.39174" lon="-1.22443">
        <ele>155.4</ele>
        <time>2022-08-27T17:15:59Z</time>
      </trkpt>
      <trkpt lat="48.39151" lon="-1.22436">
        <ele>155.2</ele>
        <time>2022-08-27T17:16:02Z</time>
      </trkpt>
      <trkpt lat="48.39121" lon="-1.22427">
        <ele>154.8</ele>
        <time>2022-08-27T17:16:06Z</time>
      </trkpt>
      <trkpt lat="48.39098" lon="-1.2242">
        <ele>154.6</ele>
        <time>2022-08-27T17:16:09Z</time>
      </trkpt>
      <trkpt lat="48.39091" lon="-1.22418">
        <ele>154.6</ele>
        <time>2022-08-27T17:16:10Z</time>
      </trkpt>
      <trkpt lat="48.39084" lon="-1.22417">
        <ele>154.6</ele>
        <time>2022-08-27T17:16:11Z</time>
      </trkpt>
      <trkpt lat="48.39063" lon="-1.22411">
        <ele>154.4</ele>
        <time>2022-08-27T17:16:14Z</time>
      </trkpt>
      <trkpt lat="48.39027" lon="-1.22402">
        <ele>153.8</ele>
        <time>2022-08-27T17:16:19Z</time>
      </trkpt>
      <trkpt lat="48.38975" lon="-1.22387">
        <ele>153</ele>
        <time>2022-08-27T17:16:26Z</time>
      </trkpt>
      <trkpt lat="48.38952" lon="-1.22381">
        <ele>152.6</ele>
        <time>2022-08-27T17:16:29Z</time>
      </trkpt>
      <trkpt lat="48.38931" lon="-1.22368">
        <ele>152.2</ele>
        <time>2022-08-27T17:16:31Z</time>
      </trkpt>
      <trkpt lat="48.38879" lon="-1.22346">
        <ele>151.6</ele>
        <time>2022-08-27T17:16:37Z</time>
      </trkpt>
      <trkpt lat="48.38842" lon="-1.22332">
        <ele>150.6</ele>
        <time>2022-08-27T17:16:42Z</time>
      </trkpt>
      <trkpt lat="48.38813" lon="-1.22319">
        <ele>149.6</ele>
        <time>2022-08-27T17:16:47Z</time>
      </trkpt>
      <trkpt lat="48.38808" lon="-1.22315">
        <ele>149.4</ele>
        <time>2022-08-27T17:16:48Z</time>
      </trkpt>
      <trkpt lat="48.38801" lon="-1.22309">
        <ele>149</ele>
        <time>2022-08-27T17:16:50Z</time>
      </trkpt>
      <trkpt lat="48.38786" lon="-1.223">
        <ele>148.2</ele>
        <time>2022-08-27T17:16:53Z</time>
      </trkpt>
      <trkpt lat="48.38778" lon="-1.22294">
        <ele>148.2</ele>
        <time>2022-08-27T17:16:54Z</time>
      </trkpt>
      <trkpt lat="48.38769" lon="-1.22293">
        <ele>148</ele>
        <time>2022-08-27T17:16:56Z</time>
      </trkpt>
      <trkpt lat="48.38754" lon="-1.22279">
        <ele>147.4</ele>
        <time>2022-08-27T17:17:00Z</time>
      </trkpt>
      <trkpt lat="48.38735" lon="-1.22257">
        <ele>146.8</ele>
        <time>2022-08-27T17:17:04Z</time>
      </trkpt>
      <trkpt lat="48.38731" lon="-1.22251">
        <ele>146.6</ele>
        <time>2022-08-27T17:17:05Z</time>
      </trkpt>
      <trkpt lat="48.3871" lon="-1.22221">
        <ele>146</ele>
        <time>2022-08-27T17:17:10Z</time>
      </trkpt>
      <trkpt lat="48.38703" lon="-1.22209">
        <ele>145.8</ele>
        <time>2022-08-27T17:17:12Z</time>
      </trkpt>
      <trkpt lat="48.38697" lon="-1.22197">
        <ele>145.4</ele>
        <time>2022-08-27T17:17:14Z</time>
      </trkpt>
      <trkpt lat="48.3868" lon="-1.22159">
        <ele>144.2</ele>
        <time>2022-08-27T17:17:20Z</time>
      </trkpt>
      <trkpt lat="48.3865" lon="-1.22108">
        <ele>142.8</ele>
        <time>2022-08-27T17:17:26Z</time>
      </trkpt>
      <trkpt lat="48.38623" lon="-1.22065">
        <ele>142</ele>
        <time>2022-08-27T17:17:31Z</time>
      </trkpt>
      <trkpt lat="48.38599" lon="-1.22025">
        <ele>141.2</ele>
        <time>2022-08-27T17:17:36Z</time>
      </trkpt>
      <trkpt lat="48.38583" lon="-1.22">
        <ele>140.6</ele>
        <time>2022-08-27T17:17:39Z</time>
      </trkpt>
      <trkpt lat="48.3857" lon="-1.21985">
        <ele>140.2</ele>
        <time>2022-08-27T17:17:41Z</time>
      </trkpt>
      <trkpt lat="48.38535" lon="-1.21945">
        <ele>139.6</ele>
        <time>2022-08-27T17:17:46Z</time>
      </trkpt>
      <trkpt lat="48.38506" lon="-1.21916">
        <ele>139</ele>
        <time>2022-08-27T17:17:50Z</time>
      </trkpt>
      <trkpt lat="48.38485" lon="-1.21898">
        <ele>138.8</ele>
        <time>2022-08-27T17:17:53Z</time>
      </trkpt>
      <trkpt lat="48.3847" lon="-1.21885">
        <ele>138.6</ele>
        <time>2022-08-27T17:17:56Z</time>
      </trkpt>
      <trkpt lat="48.38457" lon="-1.21877">
        <ele>138.8</ele>
        <time>2022-08-27T17:18:00Z</time>
      </trkpt>
      <trkpt lat="48.38453" lon="-1.21876">
        <ele>139</ele>
        <time>2022-08-27T17:18:01Z</time>
      </trkpt>
      <trkpt lat="48.38447" lon="-1.21872">
        <ele>138.8</ele>
        <time>2022-08-27T17:18:03Z</time>
      </trkpt>
      <trkpt lat="48.38435" lon="-1.21869">
        <ele>138.6</ele>
        <time>2022-08-27T17:18:06Z</time>
      </trkpt>
      <trkpt lat="48.38423" lon="-1.21865">
        <ele>138.4</ele>
        <time>2022-08-27T17:18:08Z</time>
      </trkpt>
      <trkpt lat="48.3841" lon="-1.21856">
        <ele>138.2</ele>
        <time>2022-08-27T17:18:10Z</time>
      </trkpt>
      <trkpt lat="48.38383" lon="-1.21839">
        <ele>137.8</ele>
        <time>2022-08-27T17:18:14Z</time>
      </trkpt>
      <trkpt lat="48.3835" lon="-1.21819">
        <ele>137.2</ele>
        <time>2022-08-27T17:18:19Z</time>
      </trkpt>
      <trkpt lat="48.38343" lon="-1.21814">
        <ele>137</ele>
        <time>2022-08-27T17:18:20Z</time>
      </trkpt>
      <trkpt lat="48.3832" lon="-1.21799">
        <ele>136.8</ele>
        <time>2022-08-27T17:18:23Z</time>
      </trkpt>
      <trkpt lat="48.38284" lon="-1.21778">
        <ele>135.8</ele>
        <time>2022-08-27T17:18:28Z</time>
      </trkpt>
      <trkpt lat="48.38263" lon="-1.21765">
        <ele>135.4</ele>
        <time>2022-08-27T17:18:31Z</time>
      </trkpt>
      <trkpt lat="48.38239" lon="-1.2175">
        <ele>134.8</ele>
        <time>2022-08-27T17:18:34Z</time>
      </trkpt>
      <trkpt lat="48.38217" lon="-1.21735">
        <ele>134.4</ele>
        <time>2022-08-27T17:18:37Z</time>
      </trkpt>
      <trkpt lat="48.38202" lon="-1.21724">
        <ele>134.2</ele>
        <time>2022-08-27T17:18:39Z</time>
      </trkpt>
      <trkpt lat="48.38161" lon="-1.2169">
        <ele>133.4</ele>
        <time>2022-08-27T17:18:45Z</time>
      </trkpt>
      <trkpt lat="48.38156" lon="-1.21685">
        <ele>133.4</ele>
        <time>2022-08-27T17:18:46Z</time>
      </trkpt>
      <trkpt lat="48.38147" lon="-1.21676">
        <ele>133</ele>
        <time>2022-08-27T17:18:48Z</time>
      </trkpt>
      <trkpt lat="48.38138" lon="-1.21668">
        <ele>132.8</ele>
        <time>2022-08-27T17:18:50Z</time>
      </trkpt>
      <trkpt lat="48.38128" lon="-1.21661">
        <ele>132.8</ele>
        <time>2022-08-27T17:18:52Z</time>
      </trkpt>
      <trkpt lat="48.38112" lon="-1.21645">
        <ele>132.4</ele>
        <time>2022-08-27T17:18:55Z</time>
      </trkpt>
      <trkpt lat="48.38107" lon="-1.21638">
        <ele>132.2</ele>
        <time>2022-08-27T17:18:56Z</time>
      </trkpt>
      <trkpt lat="48.38084" lon="-1.21615">
        <ele>132.2</ele>
        <time>2022-08-27T17:19:00Z</time>
      </trkpt>
      <trkpt lat="48.38055" lon="-1.21583">
        <ele>132.4</ele>
        <time>2022-08-27T17:19:06Z</time>
      </trkpt>
      <trkpt lat="48.3805" lon="-1.21576">
        <ele>132.4</ele>
        <time>2022-08-27T17:19:07Z</time>
      </trkpt>
      <trkpt lat="48.38035" lon="-1.21556">
        <ele>132.6</ele>
        <time>2022-08-27T17:19:10Z</time>
      </trkpt>
      <trkpt lat="48.38024" lon="-1.21543">
        <ele>131.8</ele>
        <time>2022-08-27T17:19:12Z</time>
      </trkpt>
      <trkpt lat="48.3802" lon="-1.21537">
        <ele>132</ele>
        <time>2022-08-27T17:19:13Z</time>
      </trkpt>
      <trkpt lat="48.38009" lon="-1.21523">
        <ele>132.4</ele>
        <time>2022-08-27T17:19:15Z</time>
      </trkpt>
      <trkpt lat="48.38003" lon="-1.21514">
        <ele>132.4</ele>
        <time>2022-08-27T17:19:16Z</time>
      </trkpt>
      <trkpt lat="48.37967" lon="-1.21462">
        <ele>132.6</ele>
        <time>2022-08-27T17:19:22Z</time>
      </trkpt>
      <trkpt lat="48.37941" lon="-1.21428">
        <ele>132.6</ele>
        <time>2022-08-27T17:19:26Z</time>
      </trkpt>
      <trkpt lat="48.37914" lon="-1.21391">
        <ele>133</ele>
        <time>2022-08-27T17:19:31Z</time>
      </trkpt>
      <trkpt lat="48.37886" lon="-1.21355">
        <ele>132.8</ele>
        <time>2022-08-27T17:19:36Z</time>
      </trkpt>
      <trkpt lat="48.37854" lon="-1.2131">
        <ele>131.8</ele>
        <time>2022-08-27T17:19:41Z</time>
      </trkpt>
      <trkpt lat="48.37822" lon="-1.21266">
        <ele>131.2</ele>
        <time>2022-08-27T17:19:47Z</time>
      </trkpt>
      <trkpt lat="48.37806" lon="-1.21246">
        <ele>130.8</ele>
        <time>2022-08-27T17:19:52Z</time>
      </trkpt>
      <trkpt lat="48.37805" lon="-1.21244">
        <ele>130.6</ele>
        <time>2022-08-27T17:19:53Z</time>
      </trkpt>
      <trkpt lat="48.37802" lon="-1.21238">
        <ele>130.6</ele>
        <time>2022-08-27T17:19:55Z</time>
      </trkpt>
      <trkpt lat="48.37798" lon="-1.21222">
        <ele>130.2</ele>
        <time>2022-08-27T17:19:59Z</time>
      </trkpt>
      <trkpt lat="48.37795" lon="-1.21222">
        <ele>130.2</ele>
        <time>2022-08-27T17:20:00Z</time>
      </trkpt>
      <trkpt lat="48.37793" lon="-1.21221">
        <ele>130</ele>
        <time>2022-08-27T17:20:01Z</time>
      </trkpt>
      <trkpt lat="48.37791" lon="-1.21216">
        <ele>130</ele>
        <time>2022-08-27T17:20:03Z</time>
      </trkpt>
      <trkpt lat="48.37779" lon="-1.212">
        <ele>129.6</ele>
        <time>2022-08-27T17:20:07Z</time>
      </trkpt>
      <trkpt lat="48.37755" lon="-1.21162">
        <ele>129.2</ele>
        <time>2022-08-27T17:20:13Z</time>
      </trkpt>
      <trkpt lat="48.37744" lon="-1.2114">
        <ele>128.8</ele>
        <time>2022-08-27T17:20:16Z</time>
      </trkpt>
      <trkpt lat="48.37741" lon="-1.21133">
        <ele>128.6</ele>
        <time>2022-08-27T17:20:17Z</time>
      </trkpt>
      <trkpt lat="48.37738" lon="-1.21127">
        <ele>128.6</ele>
        <time>2022-08-27T17:20:18Z</time>
      </trkpt>
      <trkpt lat="48.37727" lon="-1.21104">
        <ele>128.2</ele>
        <time>2022-08-27T17:20:21Z</time>
      </trkpt>
      <trkpt lat="48.37719" lon="-1.21085">
        <ele>128</ele>
        <time>2022-08-27T17:20:23Z</time>
      </trkpt>
      <trkpt lat="48.37707" lon="-1.21057">
        <ele>127.6</ele>
        <time>2022-08-27T17:20:26Z</time>
      </trkpt>
      <trkpt lat="48.37704" lon="-1.21048">
        <ele>127.6</ele>
        <time>2022-08-27T17:20:27Z</time>
      </trkpt>
      <trkpt lat="48.37687" lon="-1.20992">
        <ele>127</ele>
        <time>2022-08-27T17:20:33Z</time>
      </trkpt>
      <trkpt lat="48.37677" lon="-1.20946">
        <ele>126.6</ele>
        <time>2022-08-27T17:20:38Z</time>
      </trkpt>
      <trkpt lat="48.37675" lon="-1.20931">
        <ele>126.2</ele>
        <time>2022-08-27T17:20:40Z</time>
      </trkpt>
      <trkpt lat="48.37674" lon="-1.20923">
        <ele>126</ele>
        <time>2022-08-27T17:20:41Z</time>
      </trkpt>
      <trkpt lat="48.3767" lon="-1.20906">
        <ele>125.4</ele>
        <time>2022-08-27T17:20:43Z</time>
      </trkpt>
      <trkpt lat="48.37666" lon="-1.20888">
        <ele>125</ele>
        <time>2022-08-27T17:20:45Z</time>
      </trkpt>
      <trkpt lat="48.37661" lon="-1.20859">
        <ele>124.2</ele>
        <time>2022-08-27T17:20:48Z</time>
      </trkpt>
      <trkpt lat="48.37659" lon="-1.2085">
        <ele>123.8</ele>
        <time>2022-08-27T17:20:49Z</time>
      </trkpt>
      <trkpt lat="48.37657" lon="-1.20841">
        <ele>123.6</ele>
        <time>2022-08-27T17:20:50Z</time>
      </trkpt>
      <trkpt lat="48.37658" lon="-1.20828">
        <ele>123</ele>
        <time>2022-08-27T17:20:52Z</time>
      </trkpt>
      <trkpt lat="48.37654" lon="-1.20789">
        <ele>121.6</ele>
        <time>2022-08-27T17:20:56Z</time>
      </trkpt>
      <trkpt lat="48.37651" lon="-1.20759">
        <ele>120.4</ele>
        <time>2022-08-27T17:20:59Z</time>
      </trkpt>
      <trkpt lat="48.3765" lon="-1.2074">
        <ele>119.8</ele>
        <time>2022-08-27T17:21:01Z</time>
      </trkpt>
      <trkpt lat="48.37646" lon="-1.20718">
        <ele>119.2</ele>
        <time>2022-08-27T17:21:03Z</time>
      </trkpt>
      <trkpt lat="48.37642" lon="-1.20698">
        <ele>118.6</ele>
        <time>2022-08-27T17:21:05Z</time>
      </trkpt>
      <trkpt lat="48.37641" lon="-1.20688">
        <ele>118.4</ele>
        <time>2022-08-27T17:21:06Z</time>
      </trkpt>
      <trkpt lat="48.3764" lon="-1.20669">
        <ele>118</ele>
        <time>2022-08-27T17:21:08Z</time>
      </trkpt>
      <trkpt lat="48.37638" lon="-1.20652">
        <ele>117.4</ele>
        <time>2022-08-27T17:21:10Z</time>
      </trkpt>
      <trkpt lat="48.37637" lon="-1.20634">
        <ele>116.8</ele>
        <time>2022-08-27T17:21:12Z</time>
      </trkpt>
      <trkpt lat="48.37637" lon="-1.20617">
        <ele>116.2</ele>
        <time>2022-08-27T17:21:14Z</time>
      </trkpt>
      <trkpt lat="48.37635" lon="-1.20594">
        <ele>115.4</ele>
        <time>2022-08-27T17:21:16Z</time>
      </trkpt>
      <trkpt lat="48.37631" lon="-1.2056">
        <ele>114.6</ele>
        <time>2022-08-27T17:21:19Z</time>
      </trkpt>
      <trkpt lat="48.37628" lon="-1.20538">
        <ele>114</ele>
        <time>2022-08-27T17:21:21Z</time>
      </trkpt>
      <trkpt lat="48.37623" lon="-1.20498">
        <ele>113</ele>
        <time>2022-08-27T17:21:25Z</time>
      </trkpt>
      <trkpt lat="48.37622" lon="-1.20482">
        <ele>112.6</ele>
        <time>2022-08-27T17:21:27Z</time>
      </trkpt>
      <trkpt lat="48.37614" lon="-1.20448">
        <ele>112</ele>
        <time>2022-08-27T17:21:30Z</time>
      </trkpt>
      <trkpt lat="48.37601" lon="-1.204">
        <ele>111.6</ele>
        <time>2022-08-27T17:21:35Z</time>
      </trkpt>
      <trkpt lat="48.37578" lon="-1.20343">
        <ele>110.6</ele>
        <time>2022-08-27T17:21:41Z</time>
      </trkpt>
      <trkpt lat="48.37571" lon="-1.2033">
        <ele>113.2</ele>
        <time>2022-08-27T17:21:43Z</time>
      </trkpt>
      <trkpt lat="48.37565" lon="-1.20318">
        <ele>115.2</ele>
        <time>2022-08-27T17:21:45Z</time>
      </trkpt>
      <trkpt lat="48.37559" lon="-1.20306">
        <ele>116.4</ele>
        <time>2022-08-27T17:21:47Z</time>
      </trkpt>
      <trkpt lat="48.37551" lon="-1.20293">
        <ele>114</ele>
        <time>2022-08-27T17:21:49Z</time>
      </trkpt>
      <trkpt lat="48.37543" lon="-1.2028">
        <ele>114</ele>
        <time>2022-08-27T17:21:51Z</time>
      </trkpt>
      <trkpt lat="48.37534" lon="-1.20268">
        <ele>114</ele>
        <time>2022-08-27T17:21:53Z</time>
      </trkpt>
      <trkpt lat="48.37515" lon="-1.20247">
        <ele>114</ele>
        <time>2022-08-27T17:21:57Z</time>
      </trkpt>
      <trkpt lat="48.37506" lon="-1.20238">
        <ele>114.2</ele>
        <time>2022-08-27T17:21:59Z</time>
      </trkpt>
      <trkpt lat="48.37496" lon="-1.20231">
        <ele>114.2</ele>
        <time>2022-08-27T17:22:01Z</time>
      </trkpt>
      <trkpt lat="48.37486" lon="-1.20222">
        <ele>114.4</ele>
        <time>2022-08-27T17:22:03Z</time>
      </trkpt>
      <trkpt lat="48.37474" lon="-1.20214">
        <ele>114.6</ele>
        <time>2022-08-27T17:22:05Z</time>
      </trkpt>
      <trkpt lat="48.37462" lon="-1.20204">
        <ele>115</ele>
        <time>2022-08-27T17:22:07Z</time>
      </trkpt>
      <trkpt lat="48.37445" lon="-1.20192">
        <ele>115.4</ele>
        <time>2022-08-27T17:22:10Z</time>
      </trkpt>
      <trkpt lat="48.37425" lon="-1.20177">
        <ele>115.8</ele>
        <time>2022-08-27T17:22:13Z</time>
      </trkpt>
      <trkpt lat="48.37413" lon="-1.20168">
        <ele>116</ele>
        <time>2022-08-27T17:22:15Z</time>
      </trkpt>
      <trkpt lat="48.37392" lon="-1.2015">
        <ele>116.4</ele>
        <time>2022-08-27T17:22:18Z</time>
      </trkpt>
      <trkpt lat="48.37377" lon="-1.20137">
        <ele>116.4</ele>
        <time>2022-08-27T17:22:22Z</time>
      </trkpt>
      <trkpt lat="48.37363" lon="-1.20127">
        <ele>116.4</ele>
        <time>2022-08-27T17:22:25Z</time>
      </trkpt>
      <trkpt lat="48.37353" lon="-1.20123">
        <ele>116.4</ele>
        <time>2022-08-27T17:22:27Z</time>
      </trkpt>
      <trkpt lat="48.37337" lon="-1.20111">
        <ele>116.4</ele>
        <time>2022-08-27T17:22:29Z</time>
      </trkpt>
      <trkpt lat="48.37314" lon="-1.20095">
        <ele>116.6</ele>
        <time>2022-08-27T17:22:32Z</time>
      </trkpt>
      <trkpt lat="48.37293" lon="-1.2008">
        <ele>116.8</ele>
        <time>2022-08-27T17:22:35Z</time>
      </trkpt>
      <trkpt lat="48.37286" lon="-1.20075">
        <ele>117</ele>
        <time>2022-08-27T17:22:36Z</time>
      </trkpt>
      <trkpt lat="48.37266" lon="-1.20061">
        <ele>117.2</ele>
        <time>2022-08-27T17:22:39Z</time>
      </trkpt>
      <trkpt lat="48.37222" lon="-1.20028">
        <ele>117.4</ele>
        <time>2022-08-27T17:22:45Z</time>
      </trkpt>
      <trkpt lat="48.37182" lon="-1.19998">
        <ele>117.6</ele>
        <time>2022-08-27T17:22:50Z</time>
      </trkpt>
      <trkpt lat="48.37141" lon="-1.19967">
        <ele>117.4</ele>
        <time>2022-08-27T17:22:56Z</time>
      </trkpt>
      <trkpt lat="48.37111" lon="-1.19944">
        <ele>117.4</ele>
        <time>2022-08-27T17:23:00Z</time>
      </trkpt>
      <trkpt lat="48.37068" lon="-1.19913">
        <ele>116.8</ele>
        <time>2022-08-27T17:23:06Z</time>
      </trkpt>
      <trkpt lat="48.37025" lon="-1.19881">
        <ele>115.2</ele>
        <time>2022-08-27T17:23:12Z</time>
      </trkpt>
      <trkpt lat="48.36994" lon="-1.19863">
        <ele>114.2</ele>
        <time>2022-08-27T17:23:16Z</time>
      </trkpt>
      <trkpt lat="48.36979" lon="-1.19856">
        <ele>113.8</ele>
        <time>2022-08-27T17:23:18Z</time>
      </trkpt>
      <trkpt lat="48.36964" lon="-1.19847">
        <ele>113.2</ele>
        <time>2022-08-27T17:23:20Z</time>
      </trkpt>
      <trkpt lat="48.36916" lon="-1.19821">
        <ele>112.2</ele>
        <time>2022-08-27T17:23:26Z</time>
      </trkpt>
      <trkpt lat="48.36898" lon="-1.19813">
        <ele>111.8</ele>
        <time>2022-08-27T17:23:29Z</time>
      </trkpt>
      <trkpt lat="48.36893" lon="-1.19812">
        <ele>111.8</ele>
        <time>2022-08-27T17:23:31Z</time>
      </trkpt>
      <trkpt lat="48.36892" lon="-1.19811">
        <ele>111.8</ele>
        <time>2022-08-27T17:23:32Z</time>
      </trkpt>
      <trkpt lat="48.36888" lon="-1.19807">
        <ele>111.8</ele>
        <time>2022-08-27T17:23:35Z</time>
      </trkpt>
      <trkpt lat="48.36886" lon="-1.19807">
        <ele>110</ele>
        <time>2022-08-27T17:23:50Z</time>
      </trkpt>
      <trkpt lat="48.36873" lon="-1.19808">
        <ele>109.8</ele>
        <time>2022-08-27T17:23:54Z</time>
      </trkpt>
      <trkpt lat="48.36865" lon="-1.19807">
        <ele>109.8</ele>
        <time>2022-08-27T17:23:57Z</time>
      </trkpt>
      <trkpt lat="48.36847" lon="-1.19807">
        <ele>109.8</ele>
        <time>2022-08-27T17:24:02Z</time>
      </trkpt>
      <trkpt lat="48.3683" lon="-1.19808">
        <ele>109.8</ele>
        <time>2022-08-27T17:24:05Z</time>
      </trkpt>
      <trkpt lat="48.36797" lon="-1.1981">
        <ele>109.8</ele>
        <time>2022-08-27T17:24:10Z</time>
      </trkpt>
      <trkpt lat="48.36762" lon="-1.19816">
        <ele>109.6</ele>
        <time>2022-08-27T17:24:15Z</time>
      </trkpt>
      <trkpt lat="48.36754" lon="-1.19817">
        <ele>109.6</ele>
        <time>2022-08-27T17:24:16Z</time>
      </trkpt>
      <trkpt lat="48.36717" lon="-1.19823">
        <ele>109.2</ele>
        <time>2022-08-27T17:24:21Z</time>
      </trkpt>
      <trkpt lat="48.36702" lon="-1.19827">
        <ele>109.2</ele>
        <time>2022-08-27T17:24:23Z</time>
      </trkpt>
      <trkpt lat="48.36687" lon="-1.19831">
        <ele>109</ele>
        <time>2022-08-27T17:24:25Z</time>
      </trkpt>
      <trkpt lat="48.36654" lon="-1.19839">
        <ele>109</ele>
        <time>2022-08-27T17:24:29Z</time>
      </trkpt>
      <trkpt lat="48.36613" lon="-1.19848">
        <ele>108.6</ele>
        <time>2022-08-27T17:24:34Z</time>
      </trkpt>
      <trkpt lat="48.36575" lon="-1.1986">
        <ele>108.4</ele>
        <time>2022-08-27T17:24:39Z</time>
      </trkpt>
      <trkpt lat="48.36536" lon="-1.19872">
        <ele>107.8</ele>
        <time>2022-08-27T17:24:44Z</time>
      </trkpt>
      <trkpt lat="48.36504" lon="-1.1988">
        <ele>107.4</ele>
        <time>2022-08-27T17:24:48Z</time>
      </trkpt>
      <trkpt lat="48.36496" lon="-1.19883">
        <ele>107.4</ele>
        <time>2022-08-27T17:24:49Z</time>
      </trkpt>
      <trkpt lat="48.36479" lon="-1.19887">
        <ele>107</ele>
        <time>2022-08-27T17:24:51Z</time>
      </trkpt>
      <trkpt lat="48.36464" lon="-1.19891">
        <ele>106.8</ele>
        <time>2022-08-27T17:24:53Z</time>
      </trkpt>
      <trkpt lat="48.36434" lon="-1.19901">
        <ele>106.4</ele>
        <time>2022-08-27T17:24:57Z</time>
      </trkpt>
      <trkpt lat="48.36389" lon="-1.19916">
        <ele>106</ele>
        <time>2022-08-27T17:25:03Z</time>
      </trkpt>
      <trkpt lat="48.36352" lon="-1.1993">
        <ele>105.8</ele>
        <time>2022-08-27T17:25:08Z</time>
      </trkpt>
      <trkpt lat="48.3634" lon="-1.19934">
        <ele>105.8</ele>
        <time>2022-08-27T17:25:10Z</time>
      </trkpt>
      <trkpt lat="48.36328" lon="-1.19938">
        <ele>105.8</ele>
        <time>2022-08-27T17:25:12Z</time>
      </trkpt>
      <trkpt lat="48.36294" lon="-1.19948">
        <ele>105.6</ele>
        <time>2022-08-27T17:25:17Z</time>
      </trkpt>
      <trkpt lat="48.36264" lon="-1.19951">
        <ele>105.2</ele>
        <time>2022-08-27T17:25:21Z</time>
      </trkpt>
      <trkpt lat="48.36229" lon="-1.19961">
        <ele>104.8</ele>
        <time>2022-08-27T17:25:26Z</time>
      </trkpt>
      <trkpt lat="48.36202" lon="-1.19971">
        <ele>104.4</ele>
        <time>2022-08-27T17:25:30Z</time>
      </trkpt>
      <trkpt lat="48.36188" lon="-1.19976">
        <ele>104</ele>
        <time>2022-08-27T17:25:32Z</time>
      </trkpt>
      <trkpt lat="48.36168" lon="-1.19986">
        <ele>103.8</ele>
        <time>2022-08-27T17:25:35Z</time>
      </trkpt>
      <trkpt lat="48.36148" lon="-1.19998">
        <ele>103.4</ele>
        <time>2022-08-27T17:25:38Z</time>
      </trkpt>
      <trkpt lat="48.36142" lon="-1.20003">
        <ele>103.4</ele>
        <time>2022-08-27T17:25:39Z</time>
      </trkpt>
      <trkpt lat="48.36117" lon="-1.20026">
        <ele>102.8</ele>
        <time>2022-08-27T17:25:43Z</time>
      </trkpt>
      <trkpt lat="48.36105" lon="-1.2004">
        <ele>102.8</ele>
        <time>2022-08-27T17:25:45Z</time>
      </trkpt>
      <trkpt lat="48.36083" lon="-1.20069">
        <ele>102.6</ele>
        <time>2022-08-27T17:25:49Z</time>
      </trkpt>
      <trkpt lat="48.36078" lon="-1.20076">
        <ele>102.6</ele>
        <time>2022-08-27T17:25:50Z</time>
      </trkpt>
      <trkpt lat="48.36044" lon="-1.20123">
        <ele>102.8</ele>
        <time>2022-08-27T17:25:56Z</time>
      </trkpt>
      <trkpt lat="48.36008" lon="-1.20177">
        <ele>102.2</ele>
        <time>2022-08-27T17:26:03Z</time>
      </trkpt>
      <trkpt lat="48.35983" lon="-1.20214">
        <ele>103</ele>
        <time>2022-08-27T17:26:08Z</time>
      </trkpt>
      <trkpt lat="48.35972" lon="-1.20226">
        <ele>103.6</ele>
        <time>2022-08-27T17:26:10Z</time>
      </trkpt>
      <trkpt lat="48.35938" lon="-1.20264">
        <ele>103.2</ele>
        <time>2022-08-27T17:26:16Z</time>
      </trkpt>
      <trkpt lat="48.35899" lon="-1.20288">
        <ele>103.8</ele>
        <time>2022-08-27T17:26:22Z</time>
      </trkpt>
      <trkpt lat="48.35865" lon="-1.20299">
        <ele>104</ele>
        <time>2022-08-27T17:26:27Z</time>
      </trkpt>
      <trkpt lat="48.35851" lon="-1.20301">
        <ele>104</ele>
        <time>2022-08-27T17:26:29Z</time>
      </trkpt>
      <trkpt lat="48.35841" lon="-1.20301">
        <ele>104</ele>
        <time>2022-08-27T17:26:31Z</time>
      </trkpt>
      <trkpt lat="48.35826" lon="-1.20306">
        <ele>104</ele>
        <time>2022-08-27T17:26:35Z</time>
      </trkpt>
      <trkpt lat="48.35813" lon="-1.20307">
        <ele>104.2</ele>
        <time>2022-08-27T17:26:38Z</time>
      </trkpt>
      <trkpt lat="48.35807" lon="-1.20306">
        <ele>104.2</ele>
        <time>2022-08-27T17:26:39Z</time>
      </trkpt>
      <trkpt lat="48.35795" lon="-1.20304">
        <ele>104.2</ele>
        <time>2022-08-27T17:26:41Z</time>
      </trkpt>
      <trkpt lat="48.35774" lon="-1.20296">
        <ele>104.4</ele>
        <time>2022-08-27T17:26:44Z</time>
      </trkpt>
      <trkpt lat="48.35748" lon="-1.20284">
        <ele>104.4</ele>
        <time>2022-08-27T17:26:48Z</time>
      </trkpt>
      <trkpt lat="48.35742" lon="-1.2028">
        <ele>104.4</ele>
        <time>2022-08-27T17:26:49Z</time>
      </trkpt>
      <trkpt lat="48.35724" lon="-1.20268">
        <ele>104.4</ele>
        <time>2022-08-27T17:26:52Z</time>
      </trkpt>
      <trkpt lat="48.35711" lon="-1.20259">
        <ele>104.4</ele>
        <time>2022-08-27T17:26:55Z</time>
      </trkpt>
      <trkpt lat="48.35702" lon="-1.20249">
        <ele>104.2</ele>
        <time>2022-08-27T17:26:57Z</time>
      </trkpt>
      <trkpt lat="48.35694" lon="-1.20237">
        <ele>104.2</ele>
        <time>2022-08-27T17:26:59Z</time>
      </trkpt>
      <trkpt lat="48.35691" lon="-1.2023">
        <ele>104</ele>
        <time>2022-08-27T17:27:00Z</time>
      </trkpt>
      <trkpt lat="48.35684" lon="-1.20216">
        <ele>104</ele>
        <time>2022-08-27T17:27:03Z</time>
      </trkpt>
      <trkpt lat="48.35684" lon="-1.20216">
        <ele>104</ele>
        <time>2022-08-27T17:27:05Z</time>
      </trkpt>
      <trkpt lat="48.35681" lon="-1.20201">
        <ele>106.4</ele>
        <time>2022-08-27T17:42:52Z</time>
      </trkpt>
      <trkpt lat="48.35679" lon="-1.20203">
        <ele>106.2</ele>
        <time>2022-08-27T17:42:53Z</time>
      </trkpt>
      <trkpt lat="48.35671" lon="-1.20219">
        <ele>105.8</ele>
        <time>2022-08-27T17:42:59Z</time>
      </trkpt>
      <trkpt lat="48.35662" lon="-1.20234">
        <ele>105.6</ele>
        <time>2022-08-27T17:43:04Z</time>
      </trkpt>
      <trkpt lat="48.35644" lon="-1.20265">
        <ele>105.6</ele>
        <time>2022-08-27T17:43:11Z</time>
      </trkpt>
      <trkpt lat="48.35641" lon="-1.20271">
        <ele>106</ele>
        <time>2022-08-27T17:43:12Z</time>
      </trkpt>
      <trkpt lat="48.35632" lon="-1.20285">
        <ele>106.2</ele>
        <time>2022-08-27T17:43:15Z</time>
      </trkpt>
      <trkpt lat="48.3562" lon="-1.20292">
        <ele>106.4</ele>
        <time>2022-08-27T17:43:19Z</time>
      </trkpt>
      <trkpt lat="48.35614" lon="-1.20288">
        <ele>106.4</ele>
        <time>2022-08-27T17:43:21Z</time>
      </trkpt>
      <trkpt lat="48.35613" lon="-1.20284">
        <ele>106.4</ele>
        <time>2022-08-27T17:43:22Z</time>
      </trkpt>
      <trkpt lat="48.35604" lon="-1.20273">
        <ele>106.6</ele>
        <time>2022-08-27T17:43:27Z</time>
      </trkpt>
      <trkpt lat="48.35592" lon="-1.20256">
        <ele>106.6</ele>
        <time>2022-08-27T17:43:33Z</time>
      </trkpt>
      <trkpt lat="48.35584" lon="-1.20244">
        <ele>106.6</ele>
        <time>2022-08-27T17:43:38Z</time>
      </trkpt>
      <trkpt lat="48.35579" lon="-1.20236">
        <ele>106.6</ele>
        <time>2022-08-27T17:43:42Z</time>
      </trkpt>
      <trkpt lat="48.35573" lon="-1.20216">
        <ele>106.8</ele>
        <time>2022-08-27T17:43:47Z</time>
      </trkpt>
      <trkpt lat="48.35572" lon="-1.20193">
        <ele>107.2</ele>
        <time>2022-08-27T17:43:53Z</time>
      </trkpt>
      <trkpt lat="48.35572" lon="-1.20187">
        <ele>107.2</ele>
        <time>2022-08-27T17:43:55Z</time>
      </trkpt>
      <trkpt lat="48.35572" lon="-1.20176">
        <ele>107.4</ele>
        <time>2022-08-27T17:43:58Z</time>
      </trkpt>
      <trkpt lat="48.35573" lon="-1.20153">
        <ele>108</ele>
        <time>2022-08-27T17:44:05Z</time>
      </trkpt>
      <trkpt lat="48.35571" lon="-1.20133">
        <ele>108.4</ele>
        <time>2022-08-27T17:44:10Z</time>
      </trkpt>
      <trkpt lat="48.35563" lon="-1.20111">
        <ele>109.6</ele>
        <time>2022-08-27T17:44:18Z</time>
      </trkpt>
      <trkpt lat="48.35561" lon="-1.20107">
        <ele>109.8</ele>
        <time>2022-08-27T17:44:20Z</time>
      </trkpt>
      <trkpt lat="48.35557" lon="-1.20107">
        <ele>110.2</ele>
        <time>2022-08-27T17:44:23Z</time>
      </trkpt>
      <trkpt lat="48.35542" lon="-1.20118">
        <ele>111</ele>
        <time>2022-08-27T17:44:29Z</time>
      </trkpt>
      <trkpt lat="48.35537" lon="-1.2012">
        <ele>111.2</ele>
        <time>2022-08-27T17:44:31Z</time>
      </trkpt>
      <trkpt lat="48.35533" lon="-1.20116">
        <ele>111.4</ele>
        <time>2022-08-27T17:44:33Z</time>
      </trkpt>
      <trkpt lat="48.35529" lon="-1.20099">
        <ele>111.8</ele>
        <time>2022-08-27T17:44:37Z</time>
      </trkpt>
      <trkpt lat="48.35528" lon="-1.20089">
        <ele>112</ele>
        <time>2022-08-27T17:44:39Z</time>
      </trkpt>
      <trkpt lat="48.35525" lon="-1.20079">
        <ele>112.2</ele>
        <time>2022-08-27T17:44:41Z</time>
      </trkpt>
      <trkpt lat="48.35524" lon="-1.20067">
        <ele>112.4</ele>
        <time>2022-08-27T17:44:43Z</time>
      </trkpt>
      <trkpt lat="48.35523" lon="-1.20054">
        <ele>112.6</ele>
        <time>2022-08-27T17:44:45Z</time>
      </trkpt>
      <trkpt lat="48.35522" lon="-1.20047">
        <ele>112.8</ele>
        <time>2022-08-27T17:44:46Z</time>
      </trkpt>
      <trkpt lat="48.35518" lon="-1.20026">
        <ele>113</ele>
        <time>2022-08-27T17:44:49Z</time>
      </trkpt>
      <trkpt lat="48.35517" lon="-1.20018">
        <ele>113.2</ele>
        <time>2022-08-27T17:44:50Z</time>
      </trkpt>
      <trkpt lat="48.35514" lon="-1.19993">
        <ele>113.4</ele>
        <time>2022-08-27T17:44:53Z</time>
      </trkpt>
      <trkpt lat="48.35512" lon="-1.19975">
        <ele>113.6</ele>
        <time>2022-08-27T17:44:55Z</time>
      </trkpt>
      <trkpt lat="48.35508" lon="-1.19943">
        <ele>113.8</ele>
        <time>2022-08-27T17:44:58Z</time>
      </trkpt>
      <trkpt lat="48.35506" lon="-1.19933">
        <ele>113.8</ele>
        <time>2022-08-27T17:44:59Z</time>
      </trkpt>
      <trkpt lat="48.35497" lon="-1.19892">
        <ele>114</ele>
        <time>2022-08-27T17:45:04Z</time>
      </trkpt>
      <trkpt lat="48.35492" lon="-1.19874">
        <ele>113.8</ele>
        <time>2022-08-27T17:45:07Z</time>
      </trkpt>
      <trkpt lat="48.35489" lon="-1.1987">
        <ele>113.8</ele>
        <time>2022-08-27T17:45:08Z</time>
      </trkpt>
      <trkpt lat="48.35486" lon="-1.19868">
        <ele>113.8</ele>
        <time>2022-08-27T17:45:09Z</time>
      </trkpt>
      <trkpt lat="48.35479" lon="-1.19868">
        <ele>113.8</ele>
        <time>2022-08-27T17:45:11Z</time>
      </trkpt>
      <trkpt lat="48.35459" lon="-1.19869">
        <ele>114</ele>
        <time>2022-08-27T17:45:15Z</time>
      </trkpt>
      <trkpt lat="48.35449" lon="-1.19875">
        <ele>113.8</ele>
        <time>2022-08-27T17:45:18Z</time>
      </trkpt>
      <trkpt lat="48.35446" lon="-1.19878">
        <ele>114</ele>
        <time>2022-08-27T17:45:21Z</time>
      </trkpt>
      <trkpt lat="48.35447" lon="-1.1987">
        <ele>114.2</ele>
        <time>2022-08-27T17:45:42Z</time>
      </trkpt>
      <trkpt lat="48.35455" lon="-1.19865">
        <ele>114</ele>
        <time>2022-08-27T17:45:45Z</time>
      </trkpt>
      <trkpt lat="48.35475" lon="-1.19858">
        <ele>114</ele>
        <time>2022-08-27T17:45:51Z</time>
      </trkpt>
      <trkpt lat="48.35479" lon="-1.19855">
        <ele>113.8</ele>
        <time>2022-08-27T17:45:52Z</time>
      </trkpt>
      <trkpt lat="48.35482" lon="-1.19846">
        <ele>113.8</ele>
        <time>2022-08-27T17:45:54Z</time>
      </trkpt>
      <trkpt lat="48.35477" lon="-1.19825">
        <ele>113.4</ele>
        <time>2022-08-27T17:45:57Z</time>
      </trkpt>
      <trkpt lat="48.35469" lon="-1.1979">
        <ele>113.4</ele>
        <time>2022-08-27T17:46:01Z</time>
      </trkpt>
      <trkpt lat="48.35468" lon="-1.19781">
        <ele>113.2</ele>
        <time>2022-08-27T17:46:02Z</time>
      </trkpt>
      <trkpt lat="48.35462" lon="-1.19731">
        <ele>113.4</ele>
        <time>2022-08-27T17:46:07Z</time>
      </trkpt>
      <trkpt lat="48.35459" lon="-1.19721">
        <ele>113.4</ele>
        <time>2022-08-27T17:46:08Z</time>
      </trkpt>
      <trkpt lat="48.35444" lon="-1.19664">
        <ele>114</ele>
        <time>2022-08-27T17:46:14Z</time>
      </trkpt>
      <trkpt lat="48.35431" lon="-1.19656">
        <ele>114</ele>
        <time>2022-08-27T17:46:16Z</time>
      </trkpt>
      <trkpt lat="48.35412" lon="-1.19655">
        <ele>114.2</ele>
        <time>2022-08-27T17:46:19Z</time>
      </trkpt>
      <trkpt lat="48.354" lon="-1.19654">
        <ele>114.2</ele>
        <time>2022-08-27T17:46:21Z</time>
      </trkpt>
      <trkpt lat="48.35388" lon="-1.19652">
        <ele>114.2</ele>
        <time>2022-08-27T17:46:23Z</time>
      </trkpt>
      <trkpt lat="48.35383" lon="-1.1965">
        <ele>114.2</ele>
        <time>2022-08-27T17:46:24Z</time>
      </trkpt>
      <trkpt lat="48.35361" lon="-1.19648">
        <ele>114.4</ele>
        <time>2022-08-27T17:46:28Z</time>
      </trkpt>
      <trkpt lat="48.35329" lon="-1.19645">
        <ele>113.4</ele>
        <time>2022-08-27T17:46:33Z</time>
      </trkpt>
      <trkpt lat="48.35315" lon="-1.19642">
        <ele>113</ele>
        <time>2022-08-27T17:46:35Z</time>
      </trkpt>
      <trkpt lat="48.35303" lon="-1.1964">
        <ele>112.8</ele>
        <time>2022-08-27T17:46:37Z</time>
      </trkpt>
      <trkpt lat="48.35297" lon="-1.19639">
        <ele>112.6</ele>
        <time>2022-08-27T17:46:38Z</time>
      </trkpt>
      <trkpt lat="48.3527" lon="-1.19634">
        <ele>112</ele>
        <time>2022-08-27T17:46:42Z</time>
      </trkpt>
      <trkpt lat="48.35238" lon="-1.1963">
        <ele>111.4</ele>
        <time>2022-08-27T17:46:48Z</time>
      </trkpt>
      <trkpt lat="48.3522" lon="-1.19632">
        <ele>110.6</ele>
        <time>2022-08-27T17:46:53Z</time>
      </trkpt>
      <trkpt lat="48.35212" lon="-1.19635">
        <ele>110.4</ele>
        <time>2022-08-27T17:46:55Z</time>
      </trkpt>
      <trkpt lat="48.35208" lon="-1.19638">
        <ele>110.2</ele>
        <time>2022-08-27T17:46:56Z</time>
      </trkpt>
      <trkpt lat="48.35204" lon="-1.1964">
        <ele>110.2</ele>
        <time>2022-08-27T17:46:57Z</time>
      </trkpt>
      <trkpt lat="48.35196" lon="-1.19638">
        <ele>109.8</ele>
        <time>2022-08-27T17:46:59Z</time>
      </trkpt>
      <trkpt lat="48.35193" lon="-1.19636">
        <ele>109.6</ele>
        <time>2022-08-27T17:47:00Z</time>
      </trkpt>
      <trkpt lat="48.35182" lon="-1.19633">
        <ele>109</ele>
        <time>2022-08-27T17:47:02Z</time>
      </trkpt>
      <trkpt lat="48.35169" lon="-1.19627">
        <ele>108.4</ele>
        <time>2022-08-27T17:47:04Z</time>
      </trkpt>
      <trkpt lat="48.35155" lon="-1.19624">
        <ele>107.6</ele>
        <time>2022-08-27T17:47:06Z</time>
      </trkpt>
      <trkpt lat="48.35116" lon="-1.19614">
        <ele>106.4</ele>
        <time>2022-08-27T17:47:11Z</time>
      </trkpt>
      <trkpt lat="48.3508" lon="-1.19604">
        <ele>105.4</ele>
        <time>2022-08-27T17:47:16Z</time>
      </trkpt>
      <trkpt lat="48.35069" lon="-1.19602">
        <ele>105.2</ele>
        <time>2022-08-27T17:47:19Z</time>
      </trkpt>
      <trkpt lat="48.35065" lon="-1.19604">
        <ele>104.8</ele>
        <time>2022-08-27T17:47:22Z</time>
      </trkpt>
      <trkpt lat="48.35061" lon="-1.1961">
        <ele>104.4</ele>
        <time>2022-08-27T17:47:24Z</time>
      </trkpt>
      <trkpt lat="48.3505" lon="-1.19619">
        <ele>104</ele>
        <time>2022-08-27T17:47:27Z</time>
      </trkpt>
      <trkpt lat="48.35041" lon="-1.19623">
        <ele>103.8</ele>
        <time>2022-08-27T17:47:29Z</time>
      </trkpt>
      <trkpt lat="48.35032" lon="-1.1962">
        <ele>103.4</ele>
        <time>2022-08-27T17:47:31Z</time>
      </trkpt>
      <trkpt lat="48.35022" lon="-1.19614">
        <ele>103.2</ele>
        <time>2022-08-27T17:47:33Z</time>
      </trkpt>
      <trkpt lat="48.34995" lon="-1.19591">
        <ele>102.2</ele>
        <time>2022-08-27T17:47:38Z</time>
      </trkpt>
      <trkpt lat="48.34978" lon="-1.19576">
        <ele>101.8</ele>
        <time>2022-08-27T17:47:41Z</time>
      </trkpt>
      <trkpt lat="48.34972" lon="-1.19572">
        <ele>101.6</ele>
        <time>2022-08-27T17:47:42Z</time>
      </trkpt>
      <trkpt lat="48.34944" lon="-1.19548">
        <ele>100.8</ele>
        <time>2022-08-27T17:47:47Z</time>
      </trkpt>
      <trkpt lat="48.3494" lon="-1.19542">
        <ele>100.6</ele>
        <time>2022-08-27T17:47:48Z</time>
      </trkpt>
      <trkpt lat="48.34934" lon="-1.19525">
        <ele>100.4</ele>
        <time>2022-08-27T17:47:50Z</time>
      </trkpt>
      <trkpt lat="48.34935" lon="-1.19505">
        <ele>100</ele>
        <time>2022-08-27T17:47:52Z</time>
      </trkpt>
      <trkpt lat="48.34937" lon="-1.19497">
        <ele>100</ele>
        <time>2022-08-27T17:47:53Z</time>
      </trkpt>
      <trkpt lat="48.34943" lon="-1.19462">
        <ele>99.6</ele>
        <time>2022-08-27T17:47:57Z</time>
      </trkpt>
      <trkpt lat="48.34946" lon="-1.19454">
        <ele>99.6</ele>
        <time>2022-08-27T17:47:58Z</time>
      </trkpt>
      <trkpt lat="48.34961" lon="-1.19411">
        <ele>99.2</ele>
        <time>2022-08-27T17:48:04Z</time>
      </trkpt>
      <trkpt lat="48.34974" lon="-1.19369">
        <ele>98.2</ele>
        <time>2022-08-27T17:48:11Z</time>
      </trkpt>
      <trkpt lat="48.34967" lon="-1.1936">
        <ele>98</ele>
        <time>2022-08-27T17:48:13Z</time>
      </trkpt>
      <trkpt lat="48.34963" lon="-1.19357">
        <ele>97.8</ele>
        <time>2022-08-27T17:48:14Z</time>
      </trkpt>
      <trkpt lat="48.34929" lon="-1.1933">
        <ele>97</ele>
        <time>2022-08-27T17:48:22Z</time>
      </trkpt>
      <trkpt lat="48.34925" lon="-1.19327">
        <ele>97</ele>
        <time>2022-08-27T17:48:23Z</time>
      </trkpt>
      <trkpt lat="48.34909" lon="-1.19313">
        <ele>96.6</ele>
        <time>2022-08-27T17:48:27Z</time>
      </trkpt>
      <trkpt lat="48.34875" lon="-1.19286">
        <ele>96.4</ele>
        <time>2022-08-27T17:48:34Z</time>
      </trkpt>
      <trkpt lat="48.34827" lon="-1.19241">
        <ele>96.2</ele>
        <time>2022-08-27T17:48:43Z</time>
      </trkpt>
      <trkpt lat="48.34811" lon="-1.19226">
        <ele>96.2</ele>
        <time>2022-08-27T17:48:47Z</time>
      </trkpt>
      <trkpt lat="48.34776" lon="-1.19198">
        <ele>95.8</ele>
        <time>2022-08-27T17:48:54Z</time>
      </trkpt>
      <trkpt lat="48.3473" lon="-1.1916">
        <ele>95.6</ele>
        <time>2022-08-27T17:49:02Z</time>
      </trkpt>
      <trkpt lat="48.34684" lon="-1.19117">
        <ele>95.6</ele>
        <time>2022-08-27T17:49:10Z</time>
      </trkpt>
      <trkpt lat="48.34678" lon="-1.19111">
        <ele>95.6</ele>
        <time>2022-08-27T17:49:11Z</time>
      </trkpt>
      <trkpt lat="48.34654" lon="-1.19092">
        <ele>95.6</ele>
        <time>2022-08-27T17:49:15Z</time>
      </trkpt>
      <trkpt lat="48.34642" lon="-1.19089">
        <ele>95.4</ele>
        <time>2022-08-27T17:49:17Z</time>
      </trkpt>
      <trkpt lat="48.34635" lon="-1.19087">
        <ele>95.4</ele>
        <time>2022-08-27T17:49:18Z</time>
      </trkpt>
      <trkpt lat="48.34623" lon="-1.19076">
        <ele>95.2</ele>
        <time>2022-08-27T17:49:20Z</time>
      </trkpt>
      <trkpt lat="48.34587" lon="-1.19036">
        <ele>95</ele>
        <time>2022-08-27T17:49:26Z</time>
      </trkpt>
      <trkpt lat="48.34545" lon="-1.18989">
        <ele>94.8</ele>
        <time>2022-08-27T17:49:33Z</time>
      </trkpt>
      <trkpt lat="48.34513" lon="-1.1894">
        <ele>94.8</ele>
        <time>2022-08-27T17:49:39Z</time>
      </trkpt>
      <trkpt lat="48.34476" lon="-1.18877">
        <ele>94.4</ele>
        <time>2022-08-27T17:49:46Z</time>
      </trkpt>
      <trkpt lat="48.34471" lon="-1.18869">
        <ele>94.4</ele>
        <time>2022-08-27T17:49:47Z</time>
      </trkpt>
      <trkpt lat="48.34434" lon="-1.18807">
        <ele>93.8</ele>
        <time>2022-08-27T17:49:54Z</time>
      </trkpt>
      <trkpt lat="48.3443" lon="-1.18799">
        <ele>93.8</ele>
        <time>2022-08-27T17:49:55Z</time>
      </trkpt>
      <trkpt lat="48.34398" lon="-1.18746">
        <ele>93.2</ele>
        <time>2022-08-27T17:50:01Z</time>
      </trkpt>
      <trkpt lat="48.34382" lon="-1.18718">
        <ele>93.2</ele>
        <time>2022-08-27T17:50:04Z</time>
      </trkpt>
      <trkpt lat="48.34363" lon="-1.18687">
        <ele>92.8</ele>
        <time>2022-08-27T17:50:08Z</time>
      </trkpt>
      <trkpt lat="48.34347" lon="-1.18659">
        <ele>92.4</ele>
        <time>2022-08-27T17:50:13Z</time>
      </trkpt>
      <trkpt lat="48.34329" lon="-1.18629">
        <ele>92.2</ele>
        <time>2022-08-27T17:50:17Z</time>
      </trkpt>
      <trkpt lat="48.34293" lon="-1.18568">
        <ele>91.6</ele>
        <time>2022-08-27T17:50:24Z</time>
      </trkpt>
      <trkpt lat="48.34266" lon="-1.18525">
        <ele>91.4</ele>
        <time>2022-08-27T17:50:29Z</time>
      </trkpt>
      <trkpt lat="48.34261" lon="-1.18516">
        <ele>91.2</ele>
        <time>2022-08-27T17:50:30Z</time>
      </trkpt>
      <trkpt lat="48.34235" lon="-1.18471">
        <ele>90.8</ele>
        <time>2022-08-27T17:50:35Z</time>
      </trkpt>
      <trkpt lat="48.34209" lon="-1.1843">
        <ele>90.2</ele>
        <time>2022-08-27T17:50:40Z</time>
      </trkpt>
      <trkpt lat="48.34182" lon="-1.18385">
        <ele>89.4</ele>
        <time>2022-08-27T17:50:45Z</time>
      </trkpt>
      <trkpt lat="48.34156" lon="-1.18336">
        <ele>88.8</ele>
        <time>2022-08-27T17:50:50Z</time>
      </trkpt>
      <trkpt lat="48.34131" lon="-1.18286">
        <ele>88.2</ele>
        <time>2022-08-27T17:50:55Z</time>
      </trkpt>
      <trkpt lat="48.34094" lon="-1.18211">
        <ele>87</ele>
        <time>2022-08-27T17:51:02Z</time>
      </trkpt>
      <trkpt lat="48.34062" lon="-1.18149">
        <ele>86.2</ele>
        <time>2022-08-27T17:51:08Z</time>
      </trkpt>
      <trkpt lat="48.34038" lon="-1.181">
        <ele>85.4</ele>
        <time>2022-08-27T17:51:13Z</time>
      </trkpt>
      <trkpt lat="48.34014" lon="-1.18054">
        <ele>84.4</ele>
        <time>2022-08-27T17:51:18Z</time>
      </trkpt>
      <trkpt lat="48.33989" lon="-1.18006">
        <ele>83.2</ele>
        <time>2022-08-27T17:51:23Z</time>
      </trkpt>
      <trkpt lat="48.33963" lon="-1.17955">
        <ele>82.2</ele>
        <time>2022-08-27T17:51:28Z</time>
      </trkpt>
      <trkpt lat="48.33943" lon="-1.17915">
        <ele>81.4</ele>
        <time>2022-08-27T17:51:32Z</time>
      </trkpt>
      <trkpt lat="48.33922" lon="-1.17872">
        <ele>80.8</ele>
        <time>2022-08-27T17:51:36Z</time>
      </trkpt>
      <trkpt lat="48.33902" lon="-1.17832">
        <ele>80</ele>
        <time>2022-08-27T17:51:40Z</time>
      </trkpt>
      <trkpt lat="48.33876" lon="-1.17781">
        <ele>79.4</ele>
        <time>2022-08-27T17:51:45Z</time>
      </trkpt>
      <trkpt lat="48.33864" lon="-1.17758">
        <ele>79.2</ele>
        <time>2022-08-27T17:51:48Z</time>
      </trkpt>
      <trkpt lat="48.33843" lon="-1.17714">
        <ele>78.6</ele>
        <time>2022-08-27T17:51:53Z</time>
      </trkpt>
      <trkpt lat="48.33818" lon="-1.17659">
        <ele>78</ele>
        <time>2022-08-27T17:51:59Z</time>
      </trkpt>
      <trkpt lat="48.33804" lon="-1.17629">
        <ele>77.4</ele>
        <time>2022-08-27T17:52:03Z</time>
      </trkpt>
      <trkpt lat="48.33799" lon="-1.17623">
        <ele>77.4</ele>
        <time>2022-08-27T17:52:04Z</time>
      </trkpt>
      <trkpt lat="48.33795" lon="-1.17619">
        <ele>77.2</ele>
        <time>2022-08-27T17:52:05Z</time>
      </trkpt>
      <trkpt lat="48.33784" lon="-1.17619">
        <ele>76.8</ele>
        <time>2022-08-27T17:52:07Z</time>
      </trkpt>
      <trkpt lat="48.33775" lon="-1.17626">
        <ele>77</ele>
        <time>2022-08-27T17:52:09Z</time>
      </trkpt>
      <trkpt lat="48.33757" lon="-1.17646">
        <ele>77.2</ele>
        <time>2022-08-27T17:52:13Z</time>
      </trkpt>
      <trkpt lat="48.33754" lon="-1.17652">
        <ele>77.2</ele>
        <time>2022-08-27T17:52:14Z</time>
      </trkpt>
      <trkpt lat="48.33739" lon="-1.17676">
        <ele>77</ele>
        <time>2022-08-27T17:52:18Z</time>
      </trkpt>
      <trkpt lat="48.33716" lon="-1.17719">
        <ele>76.8</ele>
        <time>2022-08-27T17:52:24Z</time>
      </trkpt>
      <trkpt lat="48.3371" lon="-1.17732">
        <ele>76.6</ele>
        <time>2022-08-27T17:52:26Z</time>
      </trkpt>
      <trkpt lat="48.33705" lon="-1.17742">
        <ele>76.6</ele>
        <time>2022-08-27T17:52:28Z</time>
      </trkpt>
      <trkpt lat="48.33699" lon="-1.17746">
        <ele>76.4</ele>
        <time>2022-08-27T17:52:30Z</time>
      </trkpt>
      <trkpt lat="48.33698" lon="-1.17746">
        <ele>76.4</ele>
        <time>2022-08-27T17:52:31Z</time>
      </trkpt>
      <trkpt lat="48.33695" lon="-1.17743">
        <ele>76.4</ele>
        <time>2022-08-27T17:52:33Z</time>
      </trkpt>
      <trkpt lat="48.33694" lon="-1.17737">
        <ele>76.2</ele>
        <time>2022-08-27T17:52:35Z</time>
      </trkpt>
      <trkpt lat="48.33692" lon="-1.17733">
        <ele>76.2</ele>
        <time>2022-08-27T17:52:36Z</time>
      </trkpt>
      <trkpt lat="48.33685" lon="-1.17722">
        <ele>75.8</ele>
        <time>2022-08-27T17:52:39Z</time>
      </trkpt>
      <trkpt lat="48.33688" lon="-1.1771">
        <ele>75.6</ele>
        <time>2022-08-27T17:52:42Z</time>
      </trkpt>
      <trkpt lat="48.33694" lon="-1.17703">
        <ele>75.4</ele>
        <time>2022-08-27T17:52:44Z</time>
      </trkpt>
      <trkpt lat="48.33696" lon="-1.17697">
        <ele>75.2</ele>
        <time>2022-08-27T17:52:45Z</time>
      </trkpt>
      <trkpt lat="48.33711" lon="-1.17667">
        <ele>74.4</ele>
        <time>2022-08-27T17:52:50Z</time>
      </trkpt>
      <trkpt lat="48.33731" lon="-1.17635">
        <ele>73.8</ele>
        <time>2022-08-27T17:52:55Z</time>
      </trkpt>
      <trkpt lat="48.33759" lon="-1.17597">
        <ele>73</ele>
        <time>2022-08-27T17:53:01Z</time>
      </trkpt>
      <trkpt lat="48.33762" lon="-1.17589">
        <ele>73</ele>
        <time>2022-08-27T17:53:02Z</time>
      </trkpt>
      <trkpt lat="48.33763" lon="-1.1758">
        <ele>73</ele>
        <time>2022-08-27T17:53:03Z</time>
      </trkpt>
      <trkpt lat="48.33762" lon="-1.17562">
        <ele>72.8</ele>
        <time>2022-08-27T17:53:05Z</time>
      </trkpt>
      <trkpt lat="48.3375" lon="-1.17493">
        <ele>72.6</ele>
        <time>2022-08-27T17:53:13Z</time>
      </trkpt>
      <trkpt lat="48.33742" lon="-1.17459">
        <ele>72.6</ele>
        <time>2022-08-27T17:53:17Z</time>
      </trkpt>
      <trkpt lat="48.33738" lon="-1.17442">
        <ele>72.4</ele>
        <time>2022-08-27T17:53:19Z</time>
      </trkpt>
      <trkpt lat="48.33719" lon="-1.17359">
        <ele>72.6</ele>
        <time>2022-08-27T17:53:28Z</time>
      </trkpt>
      <trkpt lat="48.337" lon="-1.17274">
        <ele>73.4</ele>
        <time>2022-08-27T17:53:37Z</time>
      </trkpt>
      <trkpt lat="48.33698" lon="-1.17265">
        <ele>73.4</ele>
        <time>2022-08-27T17:53:38Z</time>
      </trkpt>
      <trkpt lat="48.33686" lon="-1.17204">
        <ele>73.4</ele>
        <time>2022-08-27T17:53:45Z</time>
      </trkpt>
      <trkpt lat="48.33683" lon="-1.17186">
        <ele>73.4</ele>
        <time>2022-08-27T17:53:47Z</time>
      </trkpt>
      <trkpt lat="48.33676" lon="-1.17159">
        <ele>73.4</ele>
        <time>2022-08-27T17:53:50Z</time>
      </trkpt>
      <trkpt lat="48.3367" lon="-1.17131">
        <ele>73.2</ele>
        <time>2022-08-27T17:53:53Z</time>
      </trkpt>
      <trkpt lat="48.33664" lon="-1.17103">
        <ele>73.2</ele>
        <time>2022-08-27T17:53:56Z</time>
      </trkpt>
      <trkpt lat="48.33655" lon="-1.17065">
        <ele>73.4</ele>
        <time>2022-08-27T17:54:00Z</time>
      </trkpt>
      <trkpt lat="48.33652" lon="-1.17046">
        <ele>73.2</ele>
        <time>2022-08-27T17:54:02Z</time>
      </trkpt>
      <trkpt lat="48.33635" lon="-1.16968">
        <ele>73.2</ele>
        <time>2022-08-27T17:54:10Z</time>
      </trkpt>
      <trkpt lat="48.33628" lon="-1.1693">
        <ele>73.2</ele>
        <time>2022-08-27T17:54:14Z</time>
      </trkpt>
      <trkpt lat="48.33609" lon="-1.16847">
        <ele>73</ele>
        <time>2022-08-27T17:54:23Z</time>
      </trkpt>
      <trkpt lat="48.33593" lon="-1.16786">
        <ele>73.4</ele>
        <time>2022-08-27T17:54:30Z</time>
      </trkpt>
      <trkpt lat="48.33573" lon="-1.1673">
        <ele>73.4</ele>
        <time>2022-08-27T17:54:37Z</time>
      </trkpt>
      <trkpt lat="48.33561" lon="-1.16703">
        <ele>73.4</ele>
        <time>2022-08-27T17:54:41Z</time>
      </trkpt>
      <trkpt lat="48.3355" lon="-1.16675">
        <ele>73.4</ele>
        <time>2022-08-27T17:54:46Z</time>
      </trkpt>
      <trkpt lat="48.33545" lon="-1.16665">
        <ele>73.6</ele>
        <time>2022-08-27T17:54:48Z</time>
      </trkpt>
      <trkpt lat="48.3354" lon="-1.16653">
        <ele>73.6</ele>
        <time>2022-08-27T17:54:50Z</time>
      </trkpt>
      <trkpt lat="48.33527" lon="-1.16627">
        <ele>73.8</ele>
        <time>2022-08-27T17:54:54Z</time>
      </trkpt>
      <trkpt lat="48.33523" lon="-1.16621">
        <ele>73.8</ele>
        <time>2022-08-27T17:54:55Z</time>
      </trkpt>
      <trkpt lat="48.33513" lon="-1.16604">
        <ele>73.6</ele>
        <time>2022-08-27T17:54:58Z</time>
      </trkpt>
      <trkpt lat="48.33505" lon="-1.16592">
        <ele>73.8</ele>
        <time>2022-08-27T17:55:00Z</time>
      </trkpt>
      <trkpt lat="48.33482" lon="-1.16561">
        <ele>73.2</ele>
        <time>2022-08-27T17:55:05Z</time>
      </trkpt>
      <trkpt lat="48.33457" lon="-1.16531">
        <ele>72.6</ele>
        <time>2022-08-27T17:55:10Z</time>
      </trkpt>
      <trkpt lat="48.33425" lon="-1.16493">
        <ele>72.2</ele>
        <time>2022-08-27T17:55:16Z</time>
      </trkpt>
      <trkpt lat="48.33381" lon="-1.16443">
        <ele>71.8</ele>
        <time>2022-08-27T17:55:24Z</time>
      </trkpt>
      <trkpt lat="48.33376" lon="-1.16438">
        <ele>71.8</ele>
        <time>2022-08-27T17:55:25Z</time>
      </trkpt>
      <trkpt lat="48.33343" lon="-1.16404">
        <ele>71.6</ele>
        <time>2022-08-27T17:55:31Z</time>
      </trkpt>
      <trkpt lat="48.33306" lon="-1.16364">
        <ele>71.6</ele>
        <time>2022-08-27T17:55:38Z</time>
      </trkpt>
      <trkpt lat="48.33262" lon="-1.16316">
        <ele>71.4</ele>
        <time>2022-08-27T17:55:46Z</time>
      </trkpt>
      <trkpt lat="48.33229" lon="-1.16282">
        <ele>71.2</ele>
        <time>2022-08-27T17:55:52Z</time>
      </trkpt>
      <trkpt lat="48.33192" lon="-1.16243">
        <ele>71</ele>
        <time>2022-08-27T17:55:59Z</time>
      </trkpt>
      <trkpt lat="48.33148" lon="-1.16195">
        <ele>70.6</ele>
        <time>2022-08-27T17:56:07Z</time>
      </trkpt>
      <trkpt lat="48.33112" lon="-1.16157">
        <ele>70.4</ele>
        <time>2022-08-27T17:56:14Z</time>
      </trkpt>
      <trkpt lat="48.33079" lon="-1.16122">
        <ele>70.2</ele>
        <time>2022-08-27T17:56:20Z</time>
      </trkpt>
      <trkpt lat="48.33048" lon="-1.16083">
        <ele>70.2</ele>
        <time>2022-08-27T17:56:26Z</time>
      </trkpt>
      <trkpt lat="48.3301" lon="-1.16035">
        <ele>70.8</ele>
        <time>2022-08-27T17:56:34Z</time>
      </trkpt>
      <trkpt lat="48.32983" lon="-1.16">
        <ele>71</ele>
        <time>2022-08-27T17:56:40Z</time>
      </trkpt>
      <trkpt lat="48.32979" lon="-1.15994">
        <ele>71</ele>
        <time>2022-08-27T17:56:41Z</time>
      </trkpt>
      <trkpt lat="48.3295" lon="-1.15959">
        <ele>71.6</ele>
        <time>2022-08-27T17:56:47Z</time>
      </trkpt>
      <trkpt lat="48.3292" lon="-1.15916">
        <ele>72.2</ele>
        <time>2022-08-27T17:56:54Z</time>
      </trkpt>
      <trkpt lat="48.32904" lon="-1.15895">
        <ele>72.4</ele>
        <time>2022-08-27T17:56:58Z</time>
      </trkpt>
      <trkpt lat="48.32897" lon="-1.15886">
        <ele>72.4</ele>
        <time>2022-08-27T17:57:00Z</time>
      </trkpt>
      <trkpt lat="48.32881" lon="-1.15865">
        <ele>72.6</ele>
        <time>2022-08-27T17:57:05Z</time>
      </trkpt>
      <trkpt lat="48.32862" lon="-1.15838">
        <ele>72.8</ele>
        <time>2022-08-27T17:57:10Z</time>
      </trkpt>
      <trkpt lat="48.32839" lon="-1.1581">
        <ele>73</ele>
        <time>2022-08-27T17:57:15Z</time>
      </trkpt>
      <trkpt lat="48.3283" lon="-1.15797">
        <ele>73.2</ele>
        <time>2022-08-27T17:57:17Z</time>
      </trkpt>
      <trkpt lat="48.32807" lon="-1.1577">
        <ele>73.4</ele>
        <time>2022-08-27T17:57:22Z</time>
      </trkpt>
      <trkpt lat="48.32784" lon="-1.15744">
        <ele>73.4</ele>
        <time>2022-08-27T17:57:27Z</time>
      </trkpt>
      <trkpt lat="48.32752" lon="-1.15709">
        <ele>73.6</ele>
        <time>2022-08-27T17:57:33Z</time>
      </trkpt>
      <trkpt lat="48.32716" lon="-1.15672">
        <ele>74</ele>
        <time>2022-08-27T17:57:40Z</time>
      </trkpt>
      <trkpt lat="48.32695" lon="-1.15652">
        <ele>74</ele>
        <time>2022-08-27T17:57:44Z</time>
      </trkpt>
      <trkpt lat="48.32691" lon="-1.15648">
        <ele>74</ele>
        <time>2022-08-27T17:57:45Z</time>
      </trkpt>
      <trkpt lat="48.3266" lon="-1.15616">
        <ele>74</ele>
        <time>2022-08-27T17:57:51Z</time>
      </trkpt>
      <trkpt lat="48.32631" lon="-1.15585">
        <ele>74</ele>
        <time>2022-08-27T17:57:57Z</time>
      </trkpt>
      <trkpt lat="48.32591" lon="-1.1554">
        <ele>74.6</ele>
        <time>2022-08-27T17:58:04Z</time>
      </trkpt>
      <trkpt lat="48.32542" lon="-1.15489">
        <ele>75.2</ele>
        <time>2022-08-27T17:58:13Z</time>
      </trkpt>
      <trkpt lat="48.32503" lon="-1.15448">
        <ele>75.6</ele>
        <time>2022-08-27T17:58:20Z</time>
      </trkpt>
      <trkpt lat="48.32497" lon="-1.15443">
        <ele>75.8</ele>
        <time>2022-08-27T17:58:21Z</time>
      </trkpt>
      <trkpt lat="48.3247" lon="-1.15415">
        <ele>76.2</ele>
        <time>2022-08-27T17:58:26Z</time>
      </trkpt>
      <trkpt lat="48.32432" lon="-1.15377">
        <ele>76.8</ele>
        <time>2022-08-27T17:58:33Z</time>
      </trkpt>
      <trkpt lat="48.32398" lon="-1.15348">
        <ele>77.2</ele>
        <time>2022-08-27T17:58:39Z</time>
      </trkpt>
      <trkpt lat="48.32367" lon="-1.15326">
        <ele>77.6</ele>
        <time>2022-08-27T17:58:44Z</time>
      </trkpt>
      <trkpt lat="48.32315" lon="-1.15297">
        <ele>78.4</ele>
        <time>2022-08-27T17:58:52Z</time>
      </trkpt>
      <trkpt lat="48.32275" lon="-1.15279">
        <ele>78.8</ele>
        <time>2022-08-27T17:58:58Z</time>
      </trkpt>
      <trkpt lat="48.3223" lon="-1.15266">
        <ele>79</ele>
        <time>2022-08-27T17:59:05Z</time>
      </trkpt>
      <trkpt lat="48.32193" lon="-1.15261">
        <ele>79</ele>
        <time>2022-08-27T17:59:11Z</time>
      </trkpt>
      <trkpt lat="48.32153" lon="-1.1526">
        <ele>79</ele>
        <time>2022-08-27T17:59:17Z</time>
      </trkpt>
      <trkpt lat="48.32118" lon="-1.15261">
        <ele>79</ele>
        <time>2022-08-27T17:59:22Z</time>
      </trkpt>
      <trkpt lat="48.32082" lon="-1.15266">
        <ele>79.2</ele>
        <time>2022-08-27T17:59:27Z</time>
      </trkpt>
      <trkpt lat="48.32026" lon="-1.15281">
        <ele>79.6</ele>
        <time>2022-08-27T17:59:35Z</time>
      </trkpt>
      <trkpt lat="48.31973" lon="-1.15304">
        <ele>80</ele>
        <time>2022-08-27T17:59:43Z</time>
      </trkpt>
      <trkpt lat="48.31933" lon="-1.15325">
        <ele>80.2</ele>
        <time>2022-08-27T17:59:49Z</time>
      </trkpt>
      <trkpt lat="48.31897" lon="-1.15343">
        <ele>80.6</ele>
        <time>2022-08-27T17:59:55Z</time>
      </trkpt>
      <trkpt lat="48.3188" lon="-1.15351">
        <ele>80.8</ele>
        <time>2022-08-27T17:59:59Z</time>
      </trkpt>
      <trkpt lat="48.31867" lon="-1.15358">
        <ele>81</ele>
        <time>2022-08-27T18:00:03Z</time>
      </trkpt>
      <trkpt lat="48.31859" lon="-1.15362">
        <ele>81</ele>
        <time>2022-08-27T18:00:05Z</time>
      </trkpt>
      <trkpt lat="48.3185" lon="-1.15364">
        <ele>81</ele>
        <time>2022-08-27T18:00:07Z</time>
      </trkpt>
      <trkpt lat="48.31845" lon="-1.15366">
        <ele>81.2</ele>
        <time>2022-08-27T18:00:08Z</time>
      </trkpt>
      <trkpt lat="48.3184" lon="-1.15369">
        <ele>81.2</ele>
        <time>2022-08-27T18:00:09Z</time>
      </trkpt>
      <trkpt lat="48.31823" lon="-1.15378">
        <ele>81.2</ele>
        <time>2022-08-27T18:00:12Z</time>
      </trkpt>
      <trkpt lat="48.31791" lon="-1.15393">
        <ele>81.2</ele>
        <time>2022-08-27T18:00:17Z</time>
      </trkpt>
      <trkpt lat="48.3175" lon="-1.15403">
        <ele>81.2</ele>
        <time>2022-08-27T18:00:23Z</time>
      </trkpt>
      <trkpt lat="48.31711" lon="-1.15407">
        <ele>81.2</ele>
        <time>2022-08-27T18:00:29Z</time>
      </trkpt>
      <trkpt lat="48.31672" lon="-1.15406">
        <ele>81.2</ele>
        <time>2022-08-27T18:00:35Z</time>
      </trkpt>
      <trkpt lat="48.31616" lon="-1.15395">
        <ele>81.4</ele>
        <time>2022-08-27T18:00:43Z</time>
      </trkpt>
      <trkpt lat="48.3161" lon="-1.15394">
        <ele>81.4</ele>
        <time>2022-08-27T18:00:44Z</time>
      </trkpt>
      <trkpt lat="48.31562" lon="-1.15376">
        <ele>81.6</ele>
        <time>2022-08-27T18:00:51Z</time>
      </trkpt>
      <trkpt lat="48.31529" lon="-1.15358">
        <ele>81.8</ele>
        <time>2022-08-27T18:00:56Z</time>
      </trkpt>
      <trkpt lat="48.31505" lon="-1.15344">
        <ele>81.8</ele>
        <time>2022-08-27T18:01:00Z</time>
      </trkpt>
      <trkpt lat="48.31461" lon="-1.15315">
        <ele>82</ele>
        <time>2022-08-27T18:01:07Z</time>
      </trkpt>
      <trkpt lat="48.3143" lon="-1.15293">
        <ele>82.6</ele>
        <time>2022-08-27T18:01:12Z</time>
      </trkpt>
      <trkpt lat="48.31405" lon="-1.15273">
        <ele>82.8</ele>
        <time>2022-08-27T18:01:16Z</time>
      </trkpt>
      <trkpt lat="48.31369" lon="-1.15242">
        <ele>83</ele>
        <time>2022-08-27T18:01:22Z</time>
      </trkpt>
      <trkpt lat="48.31333" lon="-1.15216">
        <ele>83.2</ele>
        <time>2022-08-27T18:01:28Z</time>
      </trkpt>
      <trkpt lat="48.31309" lon="-1.15204">
        <ele>83.2</ele>
        <time>2022-08-27T18:01:32Z</time>
      </trkpt>
      <trkpt lat="48.31303" lon="-1.152">
        <ele>83.2</ele>
        <time>2022-08-27T18:01:33Z</time>
      </trkpt>
      <trkpt lat="48.31285" lon="-1.15188">
        <ele>83</ele>
        <time>2022-08-27T18:01:36Z</time>
      </trkpt>
      <trkpt lat="48.31268" lon="-1.15176">
        <ele>83</ele>
        <time>2022-08-27T18:01:39Z</time>
      </trkpt>
      <trkpt lat="48.31263" lon="-1.15172">
        <ele>83</ele>
        <time>2022-08-27T18:01:40Z</time>
      </trkpt>
      <trkpt lat="48.31245" lon="-1.15159">
        <ele>82.6</ele>
        <time>2022-08-27T18:01:44Z</time>
      </trkpt>
      <trkpt lat="48.31241" lon="-1.15157">
        <ele>82.8</ele>
        <time>2022-08-27T18:01:45Z</time>
      </trkpt>
      <trkpt lat="48.31232" lon="-1.15151">
        <ele>82.6</ele>
        <time>2022-08-27T18:01:47Z</time>
      </trkpt>
      <trkpt lat="48.31223" lon="-1.15145">
        <ele>82.6</ele>
        <time>2022-08-27T18:01:49Z</time>
      </trkpt>
      <trkpt lat="48.31218" lon="-1.15142">
        <ele>82.4</ele>
        <time>2022-08-27T18:01:50Z</time>
      </trkpt>
      <trkpt lat="48.31187" lon="-1.15122">
        <ele>82.2</ele>
        <time>2022-08-27T18:01:56Z</time>
      </trkpt>
      <trkpt lat="48.31151" lon="-1.151">
        <ele>82</ele>
        <time>2022-08-27T18:02:02Z</time>
      </trkpt>
      <trkpt lat="48.31107" lon="-1.15076">
        <ele>81.6</ele>
        <time>2022-08-27T18:02:09Z</time>
      </trkpt>
      <trkpt lat="48.31051" lon="-1.15044">
        <ele>81.8</ele>
        <time>2022-08-27T18:02:18Z</time>
      </trkpt>
      <trkpt lat="48.31002" lon="-1.15013">
        <ele>81.8</ele>
        <time>2022-08-27T18:02:26Z</time>
      </trkpt>
      <trkpt lat="48.30954" lon="-1.14981">
        <ele>81.8</ele>
        <time>2022-08-27T18:02:34Z</time>
      </trkpt>
      <trkpt lat="48.3093" lon="-1.14967">
        <ele>81.6</ele>
        <time>2022-08-27T18:02:38Z</time>
      </trkpt>
      <trkpt lat="48.30912" lon="-1.14954">
        <ele>81.6</ele>
        <time>2022-08-27T18:02:41Z</time>
      </trkpt>
      <trkpt lat="48.309" lon="-1.14946">
        <ele>81.6</ele>
        <time>2022-08-27T18:02:43Z</time>
      </trkpt>
      <trkpt lat="48.30883" lon="-1.14936">
        <ele>81.4</ele>
        <time>2022-08-27T18:02:46Z</time>
      </trkpt>
      <trkpt lat="48.30873" lon="-1.14926">
        <ele>81.4</ele>
        <time>2022-08-27T18:02:48Z</time>
      </trkpt>
      <trkpt lat="48.30845" lon="-1.14896">
        <ele>81.2</ele>
        <time>2022-08-27T18:02:53Z</time>
      </trkpt>
      <trkpt lat="48.30818" lon="-1.14863">
        <ele>80.8</ele>
        <time>2022-08-27T18:02:58Z</time>
      </trkpt>
      <trkpt lat="48.3079" lon="-1.14817">
        <ele>80.4</ele>
        <time>2022-08-27T18:03:04Z</time>
      </trkpt>
      <trkpt lat="48.30759" lon="-1.14754">
        <ele>80.2</ele>
        <time>2022-08-27T18:03:11Z</time>
      </trkpt>
      <trkpt lat="48.30735" lon="-1.14686">
        <ele>81.8</ele>
        <time>2022-08-27T18:03:18Z</time>
      </trkpt>
      <trkpt lat="48.30718" lon="-1.14619">
        <ele>81.4</ele>
        <time>2022-08-27T18:03:25Z</time>
      </trkpt>
      <trkpt lat="48.30702" lon="-1.14536">
        <ele>81.8</ele>
        <time>2022-08-27T18:03:34Z</time>
      </trkpt>
      <trkpt lat="48.3069" lon="-1.14471">
        <ele>82.2</ele>
        <time>2022-08-27T18:03:41Z</time>
      </trkpt>
      <trkpt lat="48.30675" lon="-1.14388">
        <ele>82.6</ele>
        <time>2022-08-27T18:03:50Z</time>
      </trkpt>
      <trkpt lat="48.30672" lon="-1.1437">
        <ele>82.8</ele>
        <time>2022-08-27T18:03:52Z</time>
      </trkpt>
      <trkpt lat="48.30658" lon="-1.14289">
        <ele>83.4</ele>
        <time>2022-08-27T18:04:01Z</time>
      </trkpt>
      <trkpt lat="48.30656" lon="-1.1428">
        <ele>83.4</ele>
        <time>2022-08-27T18:04:02Z</time>
      </trkpt>
      <trkpt lat="48.30643" lon="-1.14209">
        <ele>84</ele>
        <time>2022-08-27T18:04:10Z</time>
      </trkpt>
      <trkpt lat="48.30623" lon="-1.14134">
        <ele>84.6</ele>
        <time>2022-08-27T18:04:19Z</time>
      </trkpt>
      <trkpt lat="48.306" lon="-1.14078">
        <ele>85</ele>
        <time>2022-08-27T18:04:26Z</time>
      </trkpt>
      <trkpt lat="48.30569" lon="-1.14026">
        <ele>85.4</ele>
        <time>2022-08-27T18:04:33Z</time>
      </trkpt>
      <trkpt lat="48.30527" lon="-1.13976">
        <ele>85.8</ele>
        <time>2022-08-27T18:04:41Z</time>
      </trkpt>
      <trkpt lat="48.30495" lon="-1.13951">
        <ele>86</ele>
        <time>2022-08-27T18:04:47Z</time>
      </trkpt>
      <trkpt lat="48.30464" lon="-1.13935">
        <ele>86.2</ele>
        <time>2022-08-27T18:04:52Z</time>
      </trkpt>
      <trkpt lat="48.30416" lon="-1.13919">
        <ele>86.6</ele>
        <time>2022-08-27T18:04:59Z</time>
      </trkpt>
      <trkpt lat="48.30378" lon="-1.13915">
        <ele>87</ele>
        <time>2022-08-27T18:05:05Z</time>
      </trkpt>
      <trkpt lat="48.30323" lon="-1.13914">
        <ele>87.4</ele>
        <time>2022-08-27T18:05:14Z</time>
      </trkpt>
      <trkpt lat="48.30312" lon="-1.13914">
        <ele>87.4</ele>
        <time>2022-08-27T18:05:16Z</time>
      </trkpt>
      <trkpt lat="48.30258" lon="-1.13913">
        <ele>88</ele>
        <time>2022-08-27T18:05:25Z</time>
      </trkpt>
      <trkpt lat="48.30218" lon="-1.13913">
        <ele>88.6</ele>
        <time>2022-08-27T18:05:32Z</time>
      </trkpt>
      <trkpt lat="48.30176" lon="-1.13913">
        <ele>89</ele>
        <time>2022-08-27T18:05:39Z</time>
      </trkpt>
      <trkpt lat="48.30122" lon="-1.13911">
        <ele>89.6</ele>
        <time>2022-08-27T18:05:48Z</time>
      </trkpt>
      <trkpt lat="48.30116" lon="-1.13911">
        <ele>89.8</ele>
        <time>2022-08-27T18:05:49Z</time>
      </trkpt>
      <trkpt lat="48.30093" lon="-1.1391">
        <ele>90</ele>
        <time>2022-08-27T18:05:53Z</time>
      </trkpt>
      <trkpt lat="48.30076" lon="-1.13909">
        <ele>90.2</ele>
        <time>2022-08-27T18:05:56Z</time>
      </trkpt>
      <trkpt lat="48.30018" lon="-1.13902">
        <ele>90.6</ele>
        <time>2022-08-27T18:06:06Z</time>
      </trkpt>
      <trkpt lat="48.29983" lon="-1.13898">
        <ele>91</ele>
        <time>2022-08-27T18:06:12Z</time>
      </trkpt>
      <trkpt lat="48.29973" lon="-1.13898">
        <ele>91</ele>
        <time>2022-08-27T18:06:14Z</time>
      </trkpt>
      <trkpt lat="48.29937" lon="-1.13891">
        <ele>91.4</ele>
        <time>2022-08-27T18:06:20Z</time>
      </trkpt>
      <trkpt lat="48.29882" lon="-1.13879">
        <ele>90.2</ele>
        <time>2022-08-27T18:06:29Z</time>
      </trkpt>
      <trkpt lat="48.2983" lon="-1.13869">
        <ele>91</ele>
        <time>2022-08-27T18:06:37Z</time>
      </trkpt>
      <trkpt lat="48.2977" lon="-1.13857">
        <ele>91</ele>
        <time>2022-08-27T18:06:46Z</time>
      </trkpt>
      <trkpt lat="48.29757" lon="-1.13855">
        <ele>91</ele>
        <time>2022-08-27T18:06:48Z</time>
      </trkpt>
      <trkpt lat="48.29726" lon="-1.13849">
        <ele>91</ele>
        <time>2022-08-27T18:06:53Z</time>
      </trkpt>
      <trkpt lat="48.29695" lon="-1.13843">
        <ele>90.8</ele>
        <time>2022-08-27T18:06:58Z</time>
      </trkpt>
      <trkpt lat="48.29665" lon="-1.13836">
        <ele>90.6</ele>
        <time>2022-08-27T18:07:03Z</time>
      </trkpt>
      <trkpt lat="48.29659" lon="-1.13835">
        <ele>90.8</ele>
        <time>2022-08-27T18:07:04Z</time>
      </trkpt>
      <trkpt lat="48.29616" lon="-1.13828">
        <ele>90.6</ele>
        <time>2022-08-27T18:07:11Z</time>
      </trkpt>
      <trkpt lat="48.2957" lon="-1.13817">
        <ele>90.8</ele>
        <time>2022-08-27T18:07:19Z</time>
      </trkpt>
      <trkpt lat="48.29534" lon="-1.13811">
        <ele>91</ele>
        <time>2022-08-27T18:07:26Z</time>
      </trkpt>
      <trkpt lat="48.29515" lon="-1.13808">
        <ele>91.4</ele>
        <time>2022-08-27T18:07:31Z</time>
      </trkpt>
      <trkpt lat="48.29498" lon="-1.13807">
        <ele>91.4</ele>
        <time>2022-08-27T18:07:36Z</time>
      </trkpt>
      <trkpt lat="48.2949" lon="-1.13805">
        <ele>91.4</ele>
        <time>2022-08-27T18:07:38Z</time>
      </trkpt>
      <trkpt lat="48.29481" lon="-1.13802">
        <ele>91.6</ele>
        <time>2022-08-27T18:07:40Z</time>
      </trkpt>
      <trkpt lat="48.29471" lon="-1.13799">
        <ele>91.6</ele>
        <time>2022-08-27T18:07:42Z</time>
      </trkpt>
      <trkpt lat="48.29461" lon="-1.13798">
        <ele>91.8</ele>
        <time>2022-08-27T18:07:44Z</time>
      </trkpt>
      <trkpt lat="48.29452" lon="-1.13797">
        <ele>91.8</ele>
        <time>2022-08-27T18:07:46Z</time>
      </trkpt>
      <trkpt lat="48.29437" lon="-1.13795">
        <ele>92</ele>
        <time>2022-08-27T18:07:49Z</time>
      </trkpt>
      <trkpt lat="48.29407" lon="-1.13788">
        <ele>92.4</ele>
        <time>2022-08-27T18:07:55Z</time>
      </trkpt>
      <trkpt lat="48.29402" lon="-1.13787">
        <ele>92.4</ele>
        <time>2022-08-27T18:07:56Z</time>
      </trkpt>
      <trkpt lat="48.2938" lon="-1.13781">
        <ele>93</ele>
        <time>2022-08-27T18:08:00Z</time>
      </trkpt>
      <trkpt lat="48.29338" lon="-1.13774">
        <ele>94.4</ele>
        <time>2022-08-27T18:08:08Z</time>
      </trkpt>
      <trkpt lat="48.29318" lon="-1.1377">
        <ele>94.6</ele>
        <time>2022-08-27T18:08:12Z</time>
      </trkpt>
      <trkpt lat="48.29307" lon="-1.13768">
        <ele>94.8</ele>
        <time>2022-08-27T18:08:14Z</time>
      </trkpt>
      <trkpt lat="48.29257" lon="-1.13759">
        <ele>95.8</ele>
        <time>2022-08-27T18:08:23Z</time>
      </trkpt>
      <trkpt lat="48.29202" lon="-1.13755">
        <ele>97</ele>
        <time>2022-08-27T18:08:33Z</time>
      </trkpt>
      <trkpt lat="48.29197" lon="-1.13755">
        <ele>97.2</ele>
        <time>2022-08-27T18:08:34Z</time>
      </trkpt>
      <trkpt lat="48.29159" lon="-1.1376">
        <ele>98</ele>
        <time>2022-08-27T18:08:41Z</time>
      </trkpt>
      <trkpt lat="48.2912" lon="-1.13767">
        <ele>98.8</ele>
        <time>2022-08-27T18:08:48Z</time>
      </trkpt>
      <trkpt lat="48.29095" lon="-1.13777">
        <ele>99.4</ele>
        <time>2022-08-27T18:08:53Z</time>
      </trkpt>
      <trkpt lat="48.2909" lon="-1.13779">
        <ele>99.6</ele>
        <time>2022-08-27T18:08:54Z</time>
      </trkpt>
      <trkpt lat="48.29057" lon="-1.13795">
        <ele>100.2</ele>
        <time>2022-08-27T18:09:00Z</time>
      </trkpt>
      <trkpt lat="48.29015" lon="-1.13816">
        <ele>101.2</ele>
        <time>2022-08-27T18:09:08Z</time>
      </trkpt>
      <trkpt lat="48.28968" lon="-1.13838">
        <ele>102.2</ele>
        <time>2022-08-27T18:09:17Z</time>
      </trkpt>
      <trkpt lat="48.28924" lon="-1.13851">
        <ele>103.2</ele>
        <time>2022-08-27T18:09:25Z</time>
      </trkpt>
      <trkpt lat="48.28887" lon="-1.13853">
        <ele>104</ele>
        <time>2022-08-27T18:09:32Z</time>
      </trkpt>
      <trkpt lat="48.28847" lon="-1.13847">
        <ele>104.8</ele>
        <time>2022-08-27T18:09:39Z</time>
      </trkpt>
      <trkpt lat="48.28807" lon="-1.13833">
        <ele>105.4</ele>
        <time>2022-08-27T18:09:46Z</time>
      </trkpt>
      <trkpt lat="48.28775" lon="-1.13812">
        <ele>106</ele>
        <time>2022-08-27T18:09:52Z</time>
      </trkpt>
      <trkpt lat="48.2876" lon="-1.13801">
        <ele>106</ele>
        <time>2022-08-27T18:09:55Z</time>
      </trkpt>
      <trkpt lat="48.28755" lon="-1.13797">
        <ele>106.2</ele>
        <time>2022-08-27T18:09:56Z</time>
      </trkpt>
      <trkpt lat="48.28736" lon="-1.13778">
        <ele>106.4</ele>
        <time>2022-08-27T18:10:00Z</time>
      </trkpt>
      <trkpt lat="48.28726" lon="-1.13767">
        <ele>106.4</ele>
        <time>2022-08-27T18:10:02Z</time>
      </trkpt>
      <trkpt lat="48.287" lon="-1.13733">
        <ele>106.8</ele>
        <time>2022-08-27T18:10:08Z</time>
      </trkpt>
      <trkpt lat="48.28674" lon="-1.13698">
        <ele>107.2</ele>
        <time>2022-08-27T18:10:14Z</time>
      </trkpt>
      <trkpt lat="48.28662" lon="-1.13682">
        <ele>107.2</ele>
        <time>2022-08-27T18:10:17Z</time>
      </trkpt>
      <trkpt lat="48.28658" lon="-1.13677">
        <ele>107.2</ele>
        <time>2022-08-27T18:10:18Z</time>
      </trkpt>
      <trkpt lat="48.28632" lon="-1.13642">
        <ele>107.6</ele>
        <time>2022-08-27T18:10:24Z</time>
      </trkpt>
      <trkpt lat="48.28602" lon="-1.13602">
        <ele>108</ele>
        <time>2022-08-27T18:10:32Z</time>
      </trkpt>
      <trkpt lat="48.28577" lon="-1.13566">
        <ele>108.6</ele>
        <time>2022-08-27T18:10:39Z</time>
      </trkpt>
      <trkpt lat="48.28552" lon="-1.13534">
        <ele>108.8</ele>
        <time>2022-08-27T18:10:45Z</time>
      </trkpt>
      <trkpt lat="48.28528" lon="-1.13503">
        <ele>109</ele>
        <time>2022-08-27T18:10:51Z</time>
      </trkpt>
      <trkpt lat="48.28509" lon="-1.13479">
        <ele>109.2</ele>
        <time>2022-08-27T18:10:56Z</time>
      </trkpt>
      <trkpt lat="48.28489" lon="-1.13454">
        <ele>109.6</ele>
        <time>2022-08-27T18:11:01Z</time>
      </trkpt>
      <trkpt lat="48.28468" lon="-1.13424">
        <ele>110</ele>
        <time>2022-08-27T18:11:06Z</time>
      </trkpt>
      <trkpt lat="48.28439" lon="-1.13388">
        <ele>110.2</ele>
        <time>2022-08-27T18:11:12Z</time>
      </trkpt>
      <trkpt lat="48.28406" lon="-1.13352">
        <ele>110.6</ele>
        <time>2022-08-27T18:11:19Z</time>
      </trkpt>
      <trkpt lat="48.28396" lon="-1.13342">
        <ele>110.6</ele>
        <time>2022-08-27T18:11:21Z</time>
      </trkpt>
      <trkpt lat="48.28376" lon="-1.13325">
        <ele>110.8</ele>
        <time>2022-08-27T18:11:25Z</time>
      </trkpt>
      <trkpt lat="48.28339" lon="-1.13296">
        <ele>111.2</ele>
        <time>2022-08-27T18:11:32Z</time>
      </trkpt>
      <trkpt lat="48.28313" lon="-1.13281">
        <ele>111.4</ele>
        <time>2022-08-27T18:11:37Z</time>
      </trkpt>
      <trkpt lat="48.28281" lon="-1.13264">
        <ele>111.8</ele>
        <time>2022-08-27T18:11:43Z</time>
      </trkpt>
      <trkpt lat="48.28276" lon="-1.13262">
        <ele>111.8</ele>
        <time>2022-08-27T18:11:44Z</time>
      </trkpt>
      <trkpt lat="48.28255" lon="-1.13253">
        <ele>111.8</ele>
        <time>2022-08-27T18:11:48Z</time>
      </trkpt>
      <trkpt lat="48.28245" lon="-1.1325">
        <ele>111.8</ele>
        <time>2022-08-27T18:11:50Z</time>
      </trkpt>
      <trkpt lat="48.28229" lon="-1.13247">
        <ele>111.8</ele>
        <time>2022-08-27T18:11:53Z</time>
      </trkpt>
      <trkpt lat="48.28195" lon="-1.13238">
        <ele>111.8</ele>
        <time>2022-08-27T18:11:59Z</time>
      </trkpt>
      <trkpt lat="48.28157" lon="-1.13229">
        <ele>112</ele>
        <time>2022-08-27T18:12:06Z</time>
      </trkpt>
      <trkpt lat="48.28126" lon="-1.13223">
        <ele>112.2</ele>
        <time>2022-08-27T18:12:12Z</time>
      </trkpt>
      <trkpt lat="48.2808" lon="-1.13215">
        <ele>112.6</ele>
        <time>2022-08-27T18:12:21Z</time>
      </trkpt>
      <trkpt lat="48.28075" lon="-1.13215">
        <ele>112.6</ele>
        <time>2022-08-27T18:12:22Z</time>
      </trkpt>
      <trkpt lat="48.28044" lon="-1.13208">
        <ele>112.6</ele>
        <time>2022-08-27T18:12:28Z</time>
      </trkpt>
      <trkpt lat="48.28005" lon="-1.13202">
        <ele>112.4</ele>
        <time>2022-08-27T18:12:36Z</time>
      </trkpt>
      <trkpt lat="48.2797" lon="-1.13195">
        <ele>112.4</ele>
        <time>2022-08-27T18:12:43Z</time>
      </trkpt>
      <trkpt lat="48.27965" lon="-1.13194">
        <ele>112.4</ele>
        <time>2022-08-27T18:12:44Z</time>
      </trkpt>
      <trkpt lat="48.2796" lon="-1.13194">
        <ele>112.2</ele>
        <time>2022-08-27T18:12:45Z</time>
      </trkpt>
      <trkpt lat="48.27934" lon="-1.13188">
        <ele>112</ele>
        <time>2022-08-27T18:12:50Z</time>
      </trkpt>
      <trkpt lat="48.27898" lon="-1.13179">
        <ele>112</ele>
        <time>2022-08-27T18:12:57Z</time>
      </trkpt>
      <trkpt lat="48.27883" lon="-1.13177">
        <ele>112</ele>
        <time>2022-08-27T18:13:00Z</time>
      </trkpt>
      <trkpt lat="48.27872" lon="-1.13175">
        <ele>111.8</ele>
        <time>2022-08-27T18:13:02Z</time>
      </trkpt>
      <trkpt lat="48.27866" lon="-1.13175">
        <ele>112.2</ele>
        <time>2022-08-27T18:13:03Z</time>
      </trkpt>
      <trkpt lat="48.2783" lon="-1.13172">
        <ele>112.6</ele>
        <time>2022-08-27T18:13:10Z</time>
      </trkpt>
      <trkpt lat="48.2782" lon="-1.13172">
        <ele>112.6</ele>
        <time>2022-08-27T18:13:12Z</time>
      </trkpt>
      <trkpt lat="48.27809" lon="-1.13173">
        <ele>112.8</ele>
        <time>2022-08-27T18:13:14Z</time>
      </trkpt>
      <trkpt lat="48.27798" lon="-1.13173">
        <ele>112.8</ele>
        <time>2022-08-27T18:13:16Z</time>
      </trkpt>
      <trkpt lat="48.27755" lon="-1.13182">
        <ele>113.4</ele>
        <time>2022-08-27T18:13:24Z</time>
      </trkpt>
      <trkpt lat="48.27707" lon="-1.13197">
        <ele>114.2</ele>
        <time>2022-08-27T18:13:33Z</time>
      </trkpt>
      <trkpt lat="48.27672" lon="-1.13214">
        <ele>115.2</ele>
        <time>2022-08-27T18:13:40Z</time>
      </trkpt>
      <trkpt lat="48.27662" lon="-1.13219">
        <ele>115.4</ele>
        <time>2022-08-27T18:13:42Z</time>
      </trkpt>
      <trkpt lat="48.27653" lon="-1.13225">
        <ele>115.8</ele>
        <time>2022-08-27T18:13:44Z</time>
      </trkpt>
      <trkpt lat="48.27614" lon="-1.13254">
        <ele>117</ele>
        <time>2022-08-27T18:13:52Z</time>
      </trkpt>
      <trkpt lat="48.27586" lon="-1.13277">
        <ele>117.8</ele>
        <time>2022-08-27T18:13:58Z</time>
      </trkpt>
      <trkpt lat="48.27581" lon="-1.1328">
        <ele>117.8</ele>
        <time>2022-08-27T18:13:59Z</time>
      </trkpt>
      <trkpt lat="48.27553" lon="-1.13302">
        <ele>118.8</ele>
        <time>2022-08-27T18:14:05Z</time>
      </trkpt>
      <trkpt lat="48.27534" lon="-1.13317">
        <ele>119.6</ele>
        <time>2022-08-27T18:14:09Z</time>
      </trkpt>
      <trkpt lat="48.27526" lon="-1.13325">
        <ele>119.8</ele>
        <time>2022-08-27T18:14:11Z</time>
      </trkpt>
      <trkpt lat="48.27513" lon="-1.13335">
        <ele>120.6</ele>
        <time>2022-08-27T18:14:15Z</time>
      </trkpt>
      <trkpt lat="48.27495" lon="-1.1335">
        <ele>121.4</ele>
        <time>2022-08-27T18:14:20Z</time>
      </trkpt>
      <trkpt lat="48.27471" lon="-1.13371">
        <ele>122</ele>
        <time>2022-08-27T18:14:25Z</time>
      </trkpt>
      <trkpt lat="48.27428" lon="-1.13406">
        <ele>123</ele>
        <time>2022-08-27T18:14:33Z</time>
      </trkpt>
      <trkpt lat="48.27423" lon="-1.13411">
        <ele>123</ele>
        <time>2022-08-27T18:14:34Z</time>
      </trkpt>
      <trkpt lat="48.27401" lon="-1.1343">
        <ele>123.4</ele>
        <time>2022-08-27T18:14:38Z</time>
      </trkpt>
      <trkpt lat="48.27384" lon="-1.13445">
        <ele>123.8</ele>
        <time>2022-08-27T18:14:41Z</time>
      </trkpt>
      <trkpt lat="48.27356" lon="-1.13466">
        <ele>124.4</ele>
        <time>2022-08-27T18:14:46Z</time>
      </trkpt>
      <trkpt lat="48.27315" lon="-1.13499">
        <ele>125.4</ele>
        <time>2022-08-27T18:14:53Z</time>
      </trkpt>
      <trkpt lat="48.27263" lon="-1.13537">
        <ele>126.2</ele>
        <time>2022-08-27T18:15:02Z</time>
      </trkpt>
      <trkpt lat="48.27257" lon="-1.1354">
        <ele>126.2</ele>
        <time>2022-08-27T18:15:03Z</time>
      </trkpt>
      <trkpt lat="48.27219" lon="-1.13564">
        <ele>126.8</ele>
        <time>2022-08-27T18:15:09Z</time>
      </trkpt>
      <trkpt lat="48.27182" lon="-1.13585">
        <ele>127.2</ele>
        <time>2022-08-27T18:15:15Z</time>
      </trkpt>
      <trkpt lat="48.27143" lon="-1.13607">
        <ele>127.6</ele>
        <time>2022-08-27T18:15:21Z</time>
      </trkpt>
      <trkpt lat="48.27088" lon="-1.13639">
        <ele>128.4</ele>
        <time>2022-08-27T18:15:30Z</time>
      </trkpt>
      <trkpt lat="48.27082" lon="-1.13641">
        <ele>128.4</ele>
        <time>2022-08-27T18:15:31Z</time>
      </trkpt>
      <trkpt lat="48.27047" lon="-1.13661">
        <ele>128.6</ele>
        <time>2022-08-27T18:15:37Z</time>
      </trkpt>
      <trkpt lat="48.27011" lon="-1.13682">
        <ele>129</ele>
        <time>2022-08-27T18:15:43Z</time>
      </trkpt>
      <trkpt lat="48.2698" lon="-1.137">
        <ele>129.2</ele>
        <time>2022-08-27T18:15:48Z</time>
      </trkpt>
      <trkpt lat="48.26951" lon="-1.13718">
        <ele>129.2</ele>
        <time>2022-08-27T18:15:53Z</time>
      </trkpt>
      <trkpt lat="48.26908" lon="-1.13747">
        <ele>129.2</ele>
        <time>2022-08-27T18:16:00Z</time>
      </trkpt>
      <trkpt lat="48.26868" lon="-1.13779">
        <ele>129.2</ele>
        <time>2022-08-27T18:16:07Z</time>
      </trkpt>
      <trkpt lat="48.26834" lon="-1.13806">
        <ele>129.4</ele>
        <time>2022-08-27T18:16:13Z</time>
      </trkpt>
      <trkpt lat="48.26783" lon="-1.13855">
        <ele>129.6</ele>
        <time>2022-08-27T18:16:22Z</time>
      </trkpt>
      <trkpt lat="48.26736" lon="-1.13906">
        <ele>129.6</ele>
        <time>2022-08-27T18:16:31Z</time>
      </trkpt>
      <trkpt lat="48.26731" lon="-1.13912">
        <ele>129.6</ele>
        <time>2022-08-27T18:16:32Z</time>
      </trkpt>
      <trkpt lat="48.26697" lon="-1.13955">
        <ele>129.4</ele>
        <time>2022-08-27T18:16:39Z</time>
      </trkpt>
      <trkpt lat="48.26671" lon="-1.13992">
        <ele>129.2</ele>
        <time>2022-08-27T18:16:45Z</time>
      </trkpt>
      <trkpt lat="48.26638" lon="-1.14041">
        <ele>128.8</ele>
        <time>2022-08-27T18:16:53Z</time>
      </trkpt>
      <trkpt lat="48.26612" lon="-1.14083">
        <ele>128.2</ele>
        <time>2022-08-27T18:17:00Z</time>
      </trkpt>
      <trkpt lat="48.26605" lon="-1.14094">
        <ele>128</ele>
        <time>2022-08-27T18:17:02Z</time>
      </trkpt>
      <trkpt lat="48.26598" lon="-1.14103">
        <ele>127.6</ele>
        <time>2022-08-27T18:17:04Z</time>
      </trkpt>
      <trkpt lat="48.26593" lon="-1.14113">
        <ele>127.4</ele>
        <time>2022-08-27T18:17:06Z</time>
      </trkpt>
      <trkpt lat="48.26581" lon="-1.14126">
        <ele>127.2</ele>
        <time>2022-08-27T18:17:09Z</time>
      </trkpt>
      <trkpt lat="48.26557" lon="-1.14162">
        <ele>127.2</ele>
        <time>2022-08-27T18:17:15Z</time>
      </trkpt>
      <trkpt lat="48.26537" lon="-1.14191">
        <ele>127</ele>
        <time>2022-08-27T18:17:20Z</time>
      </trkpt>
      <trkpt lat="48.26533" lon="-1.14197">
        <ele>126.8</ele>
        <time>2022-08-27T18:17:21Z</time>
      </trkpt>
      <trkpt lat="48.2652" lon="-1.14216">
        <ele>126.8</ele>
        <time>2022-08-27T18:17:24Z</time>
      </trkpt>
      <trkpt lat="48.26503" lon="-1.14243">
        <ele>126.8</ele>
        <time>2022-08-27T18:17:28Z</time>
      </trkpt>
      <trkpt lat="48.26499" lon="-1.1425">
        <ele>126.8</ele>
        <time>2022-08-27T18:17:29Z</time>
      </trkpt>
      <trkpt lat="48.26474" lon="-1.14295">
        <ele>126.8</ele>
        <time>2022-08-27T18:17:35Z</time>
      </trkpt>
      <trkpt lat="48.26442" lon="-1.14346">
        <ele>126.6</ele>
        <time>2022-08-27T18:17:42Z</time>
      </trkpt>
      <trkpt lat="48.2641" lon="-1.14397">
        <ele>126.6</ele>
        <time>2022-08-27T18:17:49Z</time>
      </trkpt>
      <trkpt lat="48.26374" lon="-1.14455">
        <ele>126.2</ele>
        <time>2022-08-27T18:17:57Z</time>
      </trkpt>
      <trkpt lat="48.26352" lon="-1.14489">
        <ele>126</ele>
        <time>2022-08-27T18:18:02Z</time>
      </trkpt>
      <trkpt lat="48.26348" lon="-1.14496">
        <ele>125.8</ele>
        <time>2022-08-27T18:18:03Z</time>
      </trkpt>
      <trkpt lat="48.2634" lon="-1.1451">
        <ele>125.8</ele>
        <time>2022-08-27T18:18:05Z</time>
      </trkpt>
      <trkpt lat="48.26332" lon="-1.14521">
        <ele>125.6</ele>
        <time>2022-08-27T18:18:07Z</time>
      </trkpt>
      <trkpt lat="48.26321" lon="-1.14537">
        <ele>125.4</ele>
        <time>2022-08-27T18:18:11Z</time>
      </trkpt>
      <trkpt lat="48.26313" lon="-1.14549">
        <ele>125.2</ele>
        <time>2022-08-27T18:18:14Z</time>
      </trkpt>
      <trkpt lat="48.26306" lon="-1.14557">
        <ele>125</ele>
        <time>2022-08-27T18:18:16Z</time>
      </trkpt>
      <trkpt lat="48.26301" lon="-1.14568">
        <ele>125</ele>
        <time>2022-08-27T18:18:18Z</time>
      </trkpt>
      <trkpt lat="48.26289" lon="-1.14584">
        <ele>124.8</ele>
        <time>2022-08-27T18:18:21Z</time>
      </trkpt>
      <trkpt lat="48.26259" lon="-1.14629">
        <ele>124.4</ele>
        <time>2022-08-27T18:18:28Z</time>
      </trkpt>
      <trkpt lat="48.26225" lon="-1.14681">
        <ele>123.8</ele>
        <time>2022-08-27T18:18:35Z</time>
      </trkpt>
      <trkpt lat="48.26196" lon="-1.14726">
        <ele>123.2</ele>
        <time>2022-08-27T18:18:41Z</time>
      </trkpt>
      <trkpt lat="48.2617" lon="-1.14763">
        <ele>122.8</ele>
        <time>2022-08-27T18:18:46Z</time>
      </trkpt>
      <trkpt lat="48.26128" lon="-1.14829">
        <ele>122.2</ele>
        <time>2022-08-27T18:18:54Z</time>
      </trkpt>
      <trkpt lat="48.26119" lon="-1.14845">
        <ele>122</ele>
        <time>2022-08-27T18:18:56Z</time>
      </trkpt>
      <trkpt lat="48.26088" lon="-1.14902">
        <ele>121.6</ele>
        <time>2022-08-27T18:19:03Z</time>
      </trkpt>
      <trkpt lat="48.26064" lon="-1.14951">
        <ele>121.2</ele>
        <time>2022-08-27T18:19:09Z</time>
      </trkpt>
      <trkpt lat="48.26038" lon="-1.15009">
        <ele>120.6</ele>
        <time>2022-08-27T18:19:16Z</time>
      </trkpt>
      <trkpt lat="48.26031" lon="-1.15024">
        <ele>120.4</ele>
        <time>2022-08-27T18:19:18Z</time>
      </trkpt>
      <trkpt lat="48.26025" lon="-1.15042">
        <ele>120.2</ele>
        <time>2022-08-27T18:19:20Z</time>
      </trkpt>
      <trkpt lat="48.26006" lon="-1.15094">
        <ele>120</ele>
        <time>2022-08-27T18:19:26Z</time>
      </trkpt>
      <trkpt lat="48.25984" lon="-1.15155">
        <ele>119.8</ele>
        <time>2022-08-27T18:19:33Z</time>
      </trkpt>
      <trkpt lat="48.25963" lon="-1.1521">
        <ele>119.8</ele>
        <time>2022-08-27T18:19:39Z</time>
      </trkpt>
      <trkpt lat="48.25935" lon="-1.15287">
        <ele>119.4</ele>
        <time>2022-08-27T18:19:47Z</time>
      </trkpt>
      <trkpt lat="48.25928" lon="-1.15306">
        <ele>119.4</ele>
        <time>2022-08-27T18:19:49Z</time>
      </trkpt>
      <trkpt lat="48.2591" lon="-1.15355">
        <ele>119.2</ele>
        <time>2022-08-27T18:19:54Z</time>
      </trkpt>
      <trkpt lat="48.25893" lon="-1.15401">
        <ele>119</ele>
        <time>2022-08-27T18:19:59Z</time>
      </trkpt>
      <trkpt lat="48.25875" lon="-1.15448">
        <ele>118.8</ele>
        <time>2022-08-27T18:20:04Z</time>
      </trkpt>
      <trkpt lat="48.25847" lon="-1.15515">
        <ele>118.4</ele>
        <time>2022-08-27T18:20:11Z</time>
      </trkpt>
      <trkpt lat="48.25838" lon="-1.15533">
        <ele>118.2</ele>
        <time>2022-08-27T18:20:13Z</time>
      </trkpt>
      <trkpt lat="48.25824" lon="-1.1556">
        <ele>118</ele>
        <time>2022-08-27T18:20:16Z</time>
      </trkpt>
      <trkpt lat="48.25798" lon="-1.15601">
        <ele>117.8</ele>
        <time>2022-08-27T18:20:21Z</time>
      </trkpt>
      <trkpt lat="48.25777" lon="-1.1563">
        <ele>117.6</ele>
        <time>2022-08-27T18:20:25Z</time>
      </trkpt>
      <trkpt lat="48.25737" lon="-1.15677">
        <ele>117.6</ele>
        <time>2022-08-27T18:20:32Z</time>
      </trkpt>
      <trkpt lat="48.25716" lon="-1.15702">
        <ele>117.6</ele>
        <time>2022-08-27T18:20:36Z</time>
      </trkpt>
      <trkpt lat="48.25673" lon="-1.15757">
        <ele>117.4</ele>
        <time>2022-08-27T18:20:44Z</time>
      </trkpt>
      <trkpt lat="48.25668" lon="-1.15764">
        <ele>117.4</ele>
        <time>2022-08-27T18:20:45Z</time>
      </trkpt>
      <trkpt lat="48.25642" lon="-1.15801">
        <ele>117.4</ele>
        <time>2022-08-27T18:20:50Z</time>
      </trkpt>
      <trkpt lat="48.25617" lon="-1.1585">
        <ele>117</ele>
        <time>2022-08-27T18:20:56Z</time>
      </trkpt>
      <trkpt lat="48.25595" lon="-1.15902">
        <ele>116.4</ele>
        <time>2022-08-27T18:21:02Z</time>
      </trkpt>
      <trkpt lat="48.2557" lon="-1.15962">
        <ele>115.8</ele>
        <time>2022-08-27T18:21:09Z</time>
      </trkpt>
      <trkpt lat="48.25544" lon="-1.16021">
        <ele>115.6</ele>
        <time>2022-08-27T18:21:16Z</time>
      </trkpt>
      <trkpt lat="48.25529" lon="-1.16057">
        <ele>115.6</ele>
        <time>2022-08-27T18:21:20Z</time>
      </trkpt>
      <trkpt lat="48.25525" lon="-1.16066">
        <ele>115.8</ele>
        <time>2022-08-27T18:21:21Z</time>
      </trkpt>
      <trkpt lat="48.2551" lon="-1.16105">
        <ele>115.8</ele>
        <time>2022-08-27T18:21:25Z</time>
      </trkpt>
      <trkpt lat="48.25506" lon="-1.16114">
        <ele>115.8</ele>
        <time>2022-08-27T18:21:26Z</time>
      </trkpt>
      <trkpt lat="48.25491" lon="-1.16151">
        <ele>115.6</ele>
        <time>2022-08-27T18:21:30Z</time>
      </trkpt>
      <trkpt lat="48.25487" lon="-1.16159">
        <ele>115.6</ele>
        <time>2022-08-27T18:21:31Z</time>
      </trkpt>
      <trkpt lat="48.25483" lon="-1.16167">
        <ele>115.4</ele>
        <time>2022-08-27T18:21:32Z</time>
      </trkpt>
      <trkpt lat="48.2547" lon="-1.16191">
        <ele>115</ele>
        <time>2022-08-27T18:21:35Z</time>
      </trkpt>
      <trkpt lat="48.2545" lon="-1.16228">
        <ele>114.6</ele>
        <time>2022-08-27T18:21:40Z</time>
      </trkpt>
      <trkpt lat="48.25442" lon="-1.16241">
        <ele>114.4</ele>
        <time>2022-08-27T18:21:42Z</time>
      </trkpt>
      <trkpt lat="48.25429" lon="-1.1626">
        <ele>114.4</ele>
        <time>2022-08-27T18:21:45Z</time>
      </trkpt>
      <trkpt lat="48.25425" lon="-1.16266">
        <ele>114.2</ele>
        <time>2022-08-27T18:21:46Z</time>
      </trkpt>
      <trkpt lat="48.25411" lon="-1.16285">
        <ele>114.2</ele>
        <time>2022-08-27T18:21:49Z</time>
      </trkpt>
      <trkpt lat="48.25379" lon="-1.16323">
        <ele>113.6</ele>
        <time>2022-08-27T18:21:55Z</time>
      </trkpt>
      <trkpt lat="48.25368" lon="-1.16335">
        <ele>113.4</ele>
        <time>2022-08-27T18:21:57Z</time>
      </trkpt>
      <trkpt lat="48.25351" lon="-1.16352">
        <ele>113.2</ele>
        <time>2022-08-27T18:22:00Z</time>
      </trkpt>
      <trkpt lat="48.2534" lon="-1.16363">
        <ele>113</ele>
        <time>2022-08-27T18:22:02Z</time>
      </trkpt>
      <trkpt lat="48.25323" lon="-1.16379">
        <ele>112.6</ele>
        <time>2022-08-27T18:22:05Z</time>
      </trkpt>
      <trkpt lat="48.25302" lon="-1.164">
        <ele>112</ele>
        <time>2022-08-27T18:22:09Z</time>
      </trkpt>
      <trkpt lat="48.25292" lon="-1.16411">
        <ele>111.6</ele>
        <time>2022-08-27T18:22:11Z</time>
      </trkpt>
      <trkpt lat="48.25264" lon="-1.16438">
        <ele>111</ele>
        <time>2022-08-27T18:22:16Z</time>
      </trkpt>
      <trkpt lat="48.25248" lon="-1.16455">
        <ele>110.6</ele>
        <time>2022-08-27T18:22:19Z</time>
      </trkpt>
      <trkpt lat="48.25237" lon="-1.16465">
        <ele>110.2</ele>
        <time>2022-08-27T18:22:21Z</time>
      </trkpt>
      <trkpt lat="48.25199" lon="-1.16503">
        <ele>109</ele>
        <time>2022-08-27T18:22:28Z</time>
      </trkpt>
      <trkpt lat="48.25188" lon="-1.16514">
        <ele>108.8</ele>
        <time>2022-08-27T18:22:30Z</time>
      </trkpt>
      <trkpt lat="48.25172" lon="-1.16528">
        <ele>108.4</ele>
        <time>2022-08-27T18:22:33Z</time>
      </trkpt>
      <trkpt lat="48.25161" lon="-1.16538">
        <ele>108.2</ele>
        <time>2022-08-27T18:22:35Z</time>
      </trkpt>
      <trkpt lat="48.25145" lon="-1.16554">
        <ele>107.6</ele>
        <time>2022-08-27T18:22:38Z</time>
      </trkpt>
      <trkpt lat="48.25122" lon="-1.16575">
        <ele>107.4</ele>
        <time>2022-08-27T18:22:42Z</time>
      </trkpt>
      <trkpt lat="48.25084" lon="-1.16614">
        <ele>107.4</ele>
        <time>2022-08-27T18:22:49Z</time>
      </trkpt>
      <trkpt lat="48.25056" lon="-1.16642">
        <ele>107</ele>
        <time>2022-08-27T18:22:54Z</time>
      </trkpt>
      <trkpt lat="48.25051" lon="-1.16648">
        <ele>107</ele>
        <time>2022-08-27T18:22:55Z</time>
      </trkpt>
      <trkpt lat="48.25023" lon="-1.16675">
        <ele>106.8</ele>
        <time>2022-08-27T18:23:00Z</time>
      </trkpt>
      <trkpt lat="48.25018" lon="-1.16679">
        <ele>106.8</ele>
        <time>2022-08-27T18:23:01Z</time>
      </trkpt>
      <trkpt lat="48.24984" lon="-1.16712">
        <ele>106.4</ele>
        <time>2022-08-27T18:23:07Z</time>
      </trkpt>
      <trkpt lat="48.24952" lon="-1.16744">
        <ele>106.2</ele>
        <time>2022-08-27T18:23:13Z</time>
      </trkpt>
      <trkpt lat="48.2492" lon="-1.16775">
        <ele>106.4</ele>
        <time>2022-08-27T18:23:19Z</time>
      </trkpt>
      <trkpt lat="48.24883" lon="-1.16811">
        <ele>106.4</ele>
        <time>2022-08-27T18:23:26Z</time>
      </trkpt>
      <trkpt lat="48.24846" lon="-1.16849">
        <ele>106.6</ele>
        <time>2022-08-27T18:23:33Z</time>
      </trkpt>
      <trkpt lat="48.2481" lon="-1.16885">
        <ele>107</ele>
        <time>2022-08-27T18:23:40Z</time>
      </trkpt>
      <trkpt lat="48.24775" lon="-1.16919">
        <ele>107.6</ele>
        <time>2022-08-27T18:23:47Z</time>
      </trkpt>
      <trkpt lat="48.2475" lon="-1.16943">
        <ele>108</ele>
        <time>2022-08-27T18:23:52Z</time>
      </trkpt>
      <trkpt lat="48.2472" lon="-1.16971">
        <ele>108.8</ele>
        <time>2022-08-27T18:23:58Z</time>
      </trkpt>
      <trkpt lat="48.24684" lon="-1.17009">
        <ele>109.4</ele>
        <time>2022-08-27T18:24:05Z</time>
      </trkpt>
      <trkpt lat="48.24652" lon="-1.17041">
        <ele>109.6</ele>
        <time>2022-08-27T18:24:11Z</time>
      </trkpt>
      <trkpt lat="48.24626" lon="-1.17067">
        <ele>109.8</ele>
        <time>2022-08-27T18:24:16Z</time>
      </trkpt>
      <trkpt lat="48.24622" lon="-1.17072">
        <ele>109.8</ele>
        <time>2022-08-27T18:24:17Z</time>
      </trkpt>
      <trkpt lat="48.24595" lon="-1.171">
        <ele>110</ele>
        <time>2022-08-27T18:24:23Z</time>
      </trkpt>
      <trkpt lat="48.24587" lon="-1.17107">
        <ele>110.2</ele>
        <time>2022-08-27T18:24:25Z</time>
      </trkpt>
      <trkpt lat="48.24579" lon="-1.17113">
        <ele>110.2</ele>
        <time>2022-08-27T18:24:27Z</time>
      </trkpt>
      <trkpt lat="48.24568" lon="-1.17126">
        <ele>110.4</ele>
        <time>2022-08-27T18:24:30Z</time>
      </trkpt>
      <trkpt lat="48.24559" lon="-1.17131">
        <ele>110.4</ele>
        <time>2022-08-27T18:24:32Z</time>
      </trkpt>
      <trkpt lat="48.24539" lon="-1.17153">
        <ele>110.4</ele>
        <time>2022-08-27T18:24:37Z</time>
      </trkpt>
      <trkpt lat="48.24506" lon="-1.17185">
        <ele>110.4</ele>
        <time>2022-08-27T18:24:44Z</time>
      </trkpt>
      <trkpt lat="48.24484" lon="-1.17207">
        <ele>110.2</ele>
        <time>2022-08-27T18:24:49Z</time>
      </trkpt>
      <trkpt lat="48.24475" lon="-1.17215">
        <ele>110.2</ele>
        <time>2022-08-27T18:24:51Z</time>
      </trkpt>
      <trkpt lat="48.24438" lon="-1.17255">
        <ele>109.6</ele>
        <time>2022-08-27T18:24:59Z</time>
      </trkpt>
      <trkpt lat="48.24419" lon="-1.17273">
        <ele>109.4</ele>
        <time>2022-08-27T18:25:03Z</time>
      </trkpt>
      <trkpt lat="48.2441" lon="-1.17283">
        <ele>109.4</ele>
        <time>2022-08-27T18:25:05Z</time>
      </trkpt>
      <trkpt lat="48.24396" lon="-1.17295">
        <ele>109.2</ele>
        <time>2022-08-27T18:25:08Z</time>
      </trkpt>
      <trkpt lat="48.24392" lon="-1.17299">
        <ele>109</ele>
        <time>2022-08-27T18:25:09Z</time>
      </trkpt>
      <trkpt lat="48.24387" lon="-1.17303">
        <ele>109</ele>
        <time>2022-08-27T18:25:10Z</time>
      </trkpt>
      <trkpt lat="48.24373" lon="-1.17319">
        <ele>108.6</ele>
        <time>2022-08-27T18:25:13Z</time>
      </trkpt>
      <trkpt lat="48.24331" lon="-1.17362">
        <ele>107.8</ele>
        <time>2022-08-27T18:25:21Z</time>
      </trkpt>
      <trkpt lat="48.24293" lon="-1.17398">
        <ele>107.2</ele>
        <time>2022-08-27T18:25:28Z</time>
      </trkpt>
      <trkpt lat="48.24267" lon="-1.17424">
        <ele>106.6</ele>
        <time>2022-08-27T18:25:33Z</time>
      </trkpt>
      <trkpt lat="48.24232" lon="-1.17455">
        <ele>106.2</ele>
        <time>2022-08-27T18:25:39Z</time>
      </trkpt>
      <trkpt lat="48.24191" lon="-1.17486">
        <ele>106.2</ele>
        <time>2022-08-27T18:25:46Z</time>
      </trkpt>
      <trkpt lat="48.24162" lon="-1.17505">
        <ele>106.4</ele>
        <time>2022-08-27T18:25:51Z</time>
      </trkpt>
      <trkpt lat="48.24156" lon="-1.17508">
        <ele>106.4</ele>
        <time>2022-08-27T18:25:52Z</time>
      </trkpt>
      <trkpt lat="48.24111" lon="-1.17528">
        <ele>106.8</ele>
        <time>2022-08-27T18:25:59Z</time>
      </trkpt>
      <trkpt lat="48.24073" lon="-1.17545">
        <ele>106</ele>
        <time>2022-08-27T18:26:05Z</time>
      </trkpt>
      <trkpt lat="48.24033" lon="-1.17559">
        <ele>105.8</ele>
        <time>2022-08-27T18:26:11Z</time>
      </trkpt>
      <trkpt lat="48.23993" lon="-1.17573">
        <ele>105.8</ele>
        <time>2022-08-27T18:26:17Z</time>
      </trkpt>
      <trkpt lat="48.23939" lon="-1.17594">
        <ele>105.4</ele>
        <time>2022-08-27T18:26:25Z</time>
      </trkpt>
      <trkpt lat="48.23898" lon="-1.17609">
        <ele>105.6</ele>
        <time>2022-08-27T18:26:31Z</time>
      </trkpt>
      <trkpt lat="48.23849" lon="-1.17628">
        <ele>105.8</ele>
        <time>2022-08-27T18:26:38Z</time>
      </trkpt>
      <trkpt lat="48.23802" lon="-1.17646">
        <ele>106</ele>
        <time>2022-08-27T18:26:45Z</time>
      </trkpt>
      <trkpt lat="48.23762" lon="-1.17661">
        <ele>106</ele>
        <time>2022-08-27T18:26:51Z</time>
      </trkpt>
      <trkpt lat="48.2371" lon="-1.17681">
        <ele>106.4</ele>
        <time>2022-08-27T18:26:59Z</time>
      </trkpt>
      <trkpt lat="48.23703" lon="-1.17683">
        <ele>106.4</ele>
        <time>2022-08-27T18:27:00Z</time>
      </trkpt>
      <trkpt lat="48.2365" lon="-1.17702">
        <ele>106.6</ele>
        <time>2022-08-27T18:27:08Z</time>
      </trkpt>
      <trkpt lat="48.2363" lon="-1.17709">
        <ele>106.8</ele>
        <time>2022-08-27T18:27:11Z</time>
      </trkpt>
      <trkpt lat="48.23585" lon="-1.17727">
        <ele>107</ele>
        <time>2022-08-27T18:27:18Z</time>
      </trkpt>
      <trkpt lat="48.23532" lon="-1.17748">
        <ele>107.2</ele>
        <time>2022-08-27T18:27:26Z</time>
      </trkpt>
      <trkpt lat="48.23525" lon="-1.1775">
        <ele>107.2</ele>
        <time>2022-08-27T18:27:27Z</time>
      </trkpt>
      <trkpt lat="48.23491" lon="-1.17764">
        <ele>107</ele>
        <time>2022-08-27T18:27:32Z</time>
      </trkpt>
      <trkpt lat="48.23444" lon="-1.17783">
        <ele>107</ele>
        <time>2022-08-27T18:27:39Z</time>
      </trkpt>
      <trkpt lat="48.23397" lon="-1.178">
        <ele>107.6</ele>
        <time>2022-08-27T18:27:46Z</time>
      </trkpt>
      <trkpt lat="48.23374" lon="-1.17809">
        <ele>107.6</ele>
        <time>2022-08-27T18:27:50Z</time>
      </trkpt>
      <trkpt lat="48.23365" lon="-1.17812">
        <ele>107.8</ele>
        <time>2022-08-27T18:27:52Z</time>
      </trkpt>
      <trkpt lat="48.23351" lon="-1.17817">
        <ele>108</ele>
        <time>2022-08-27T18:27:56Z</time>
      </trkpt>
      <trkpt lat="48.23347" lon="-1.17818">
        <ele>108</ele>
        <time>2022-08-27T18:27:57Z</time>
      </trkpt>
      <trkpt lat="48.23319" lon="-1.17829">
        <ele>108.4</ele>
        <time>2022-08-27T18:28:02Z</time>
      </trkpt>
      <trkpt lat="48.2327" lon="-1.17847">
        <ele>108.8</ele>
        <time>2022-08-27T18:28:10Z</time>
      </trkpt>
      <trkpt lat="48.23234" lon="-1.1786">
        <ele>108.8</ele>
        <time>2022-08-27T18:28:16Z</time>
      </trkpt>
      <trkpt lat="48.23198" lon="-1.17874">
        <ele>108.8</ele>
        <time>2022-08-27T18:28:22Z</time>
      </trkpt>
      <trkpt lat="48.23155" lon="-1.1789">
        <ele>108.4</ele>
        <time>2022-08-27T18:28:29Z</time>
      </trkpt>
      <trkpt lat="48.23114" lon="-1.17906">
        <ele>108.4</ele>
        <time>2022-08-27T18:28:36Z</time>
      </trkpt>
      <trkpt lat="48.23076" lon="-1.17919">
        <ele>108.4</ele>
        <time>2022-08-27T18:28:43Z</time>
      </trkpt>
      <trkpt lat="48.23034" lon="-1.17936">
        <ele>108.2</ele>
        <time>2022-08-27T18:28:50Z</time>
      </trkpt>
      <trkpt lat="48.23002" lon="-1.17948">
        <ele>108.2</ele>
        <time>2022-08-27T18:28:56Z</time>
      </trkpt>
      <trkpt lat="48.22993" lon="-1.1795">
        <ele>108</ele>
        <time>2022-08-27T18:28:59Z</time>
      </trkpt>
      <trkpt lat="48.22991" lon="-1.1795">
        <ele>108.2</ele>
        <time>2022-08-27T18:29:00Z</time>
      </trkpt>
      <trkpt lat="48.2298" lon="-1.17955">
        <ele>108</ele>
        <time>2022-08-27T18:29:04Z</time>
      </trkpt>
      <trkpt lat="48.22976" lon="-1.17956">
        <ele>108</ele>
        <time>2022-08-27T18:29:05Z</time>
      </trkpt>
      <trkpt lat="48.22954" lon="-1.17965">
        <ele>108</ele>
        <time>2022-08-27T18:29:10Z</time>
      </trkpt>
      <trkpt lat="48.22926" lon="-1.17975">
        <ele>108</ele>
        <time>2022-08-27T18:29:16Z</time>
      </trkpt>
      <trkpt lat="48.22891" lon="-1.17989">
        <ele>107.8</ele>
        <time>2022-08-27T18:29:23Z</time>
      </trkpt>
      <trkpt lat="48.22854" lon="-1.18007">
        <ele>107</ele>
        <time>2022-08-27T18:29:30Z</time>
      </trkpt>
      <trkpt lat="48.22819" lon="-1.18029">
        <ele>106</ele>
        <time>2022-08-27T18:29:37Z</time>
      </trkpt>
      <trkpt lat="48.22785" lon="-1.18063">
        <ele>106</ele>
        <time>2022-08-27T18:29:44Z</time>
      </trkpt>
      <trkpt lat="48.22767" lon="-1.18085">
        <ele>106.4</ele>
        <time>2022-08-27T18:29:48Z</time>
      </trkpt>
      <trkpt lat="48.22755" lon="-1.18102">
        <ele>106</ele>
        <time>2022-08-27T18:29:51Z</time>
      </trkpt>
      <trkpt lat="48.22752" lon="-1.18108">
        <ele>106.2</ele>
        <time>2022-08-27T18:29:52Z</time>
      </trkpt>
      <trkpt lat="48.22729" lon="-1.18145">
        <ele>106.6</ele>
        <time>2022-08-27T18:29:58Z</time>
      </trkpt>
      <trkpt lat="48.22701" lon="-1.18197">
        <ele>106.6</ele>
        <time>2022-08-27T18:30:06Z</time>
      </trkpt>
      <trkpt lat="48.22675" lon="-1.18241">
        <ele>106.6</ele>
        <time>2022-08-27T18:30:13Z</time>
      </trkpt>
      <trkpt lat="48.22647" lon="-1.18282">
        <ele>107</ele>
        <time>2022-08-27T18:30:20Z</time>
      </trkpt>
      <trkpt lat="48.22612" lon="-1.18321">
        <ele>107.4</ele>
        <time>2022-08-27T18:30:28Z</time>
      </trkpt>
      <trkpt lat="48.22603" lon="-1.18328">
        <ele>107.4</ele>
        <time>2022-08-27T18:30:30Z</time>
      </trkpt>
      <trkpt lat="48.2259" lon="-1.18337">
        <ele>107.6</ele>
        <time>2022-08-27T18:30:33Z</time>
      </trkpt>
      <trkpt lat="48.22563" lon="-1.18354">
        <ele>107.4</ele>
        <time>2022-08-27T18:30:39Z</time>
      </trkpt>
      <trkpt lat="48.22523" lon="-1.18375">
        <ele>107.4</ele>
        <time>2022-08-27T18:30:46Z</time>
      </trkpt>
      <trkpt lat="48.22479" lon="-1.18387">
        <ele>107.6</ele>
        <time>2022-08-27T18:30:53Z</time>
      </trkpt>
      <trkpt lat="48.2244" lon="-1.18385">
        <ele>107.2</ele>
        <time>2022-08-27T18:30:59Z</time>
      </trkpt>
      <trkpt lat="48.22412" lon="-1.18382">
        <ele>106.8</ele>
        <time>2022-08-27T18:31:03Z</time>
      </trkpt>
      <trkpt lat="48.22376" lon="-1.18378">
        <ele>106.2</ele>
        <time>2022-08-27T18:31:08Z</time>
      </trkpt>
      <trkpt lat="48.22329" lon="-1.18376">
        <ele>105.4</ele>
        <time>2022-08-27T18:31:15Z</time>
      </trkpt>
      <trkpt lat="48.22303" lon="-1.18379">
        <ele>104.8</ele>
        <time>2022-08-27T18:31:19Z</time>
      </trkpt>
      <trkpt lat="48.22266" lon="-1.18389">
        <ele>104</ele>
        <time>2022-08-27T18:31:24Z</time>
      </trkpt>
      <trkpt lat="48.22216" lon="-1.18415">
        <ele>102.8</ele>
        <time>2022-08-27T18:31:31Z</time>
      </trkpt>
      <trkpt lat="48.22178" lon="-1.18445">
        <ele>102.6</ele>
        <time>2022-08-27T18:31:37Z</time>
      </trkpt>
      <trkpt lat="48.22144" lon="-1.18485">
        <ele>102.4</ele>
        <time>2022-08-27T18:31:43Z</time>
      </trkpt>
      <trkpt lat="48.22103" lon="-1.18543">
        <ele>102</ele>
        <time>2022-08-27T18:31:51Z</time>
      </trkpt>
      <trkpt lat="48.22074" lon="-1.18586">
        <ele>101.6</ele>
        <time>2022-08-27T18:31:57Z</time>
      </trkpt>
      <trkpt lat="48.22042" lon="-1.18634">
        <ele>101.4</ele>
        <time>2022-08-27T18:32:04Z</time>
      </trkpt>
      <trkpt lat="48.2201" lon="-1.18685">
        <ele>101.2</ele>
        <time>2022-08-27T18:32:11Z</time>
      </trkpt>
      <trkpt lat="48.21983" lon="-1.18725">
        <ele>101.2</ele>
        <time>2022-08-27T18:32:17Z</time>
      </trkpt>
      <trkpt lat="48.21948" lon="-1.18771">
        <ele>100.8</ele>
        <time>2022-08-27T18:32:24Z</time>
      </trkpt>
      <trkpt lat="48.21912" lon="-1.18808">
        <ele>100.8</ele>
        <time>2022-08-27T18:32:30Z</time>
      </trkpt>
      <trkpt lat="48.21864" lon="-1.18858">
        <ele>100.4</ele>
        <time>2022-08-27T18:32:38Z</time>
      </trkpt>
      <trkpt lat="48.21858" lon="-1.18864">
        <ele>100.4</ele>
        <time>2022-08-27T18:32:39Z</time>
      </trkpt>
      <trkpt lat="48.21811" lon="-1.18913">
        <ele>100.2</ele>
        <time>2022-08-27T18:32:47Z</time>
      </trkpt>
      <trkpt lat="48.21806" lon="-1.18919">
        <ele>100.2</ele>
        <time>2022-08-27T18:32:48Z</time>
      </trkpt>
      <trkpt lat="48.21758" lon="-1.18967">
        <ele>100</ele>
        <time>2022-08-27T18:32:56Z</time>
      </trkpt>
      <trkpt lat="48.21747" lon="-1.18979">
        <ele>100</ele>
        <time>2022-08-27T18:32:58Z</time>
      </trkpt>
      <trkpt lat="48.21702" lon="-1.19024">
        <ele>99.6</ele>
        <time>2022-08-27T18:33:06Z</time>
      </trkpt>
      <trkpt lat="48.21675" lon="-1.19048">
        <ele>99</ele>
        <time>2022-08-27T18:33:11Z</time>
      </trkpt>
      <trkpt lat="48.2167" lon="-1.19052">
        <ele>99</ele>
        <time>2022-08-27T18:33:12Z</time>
      </trkpt>
      <trkpt lat="48.21664" lon="-1.19055">
        <ele>98.8</ele>
        <time>2022-08-27T18:33:13Z</time>
      </trkpt>
      <trkpt lat="48.2164" lon="-1.19068">
        <ele>98.4</ele>
        <time>2022-08-27T18:33:17Z</time>
      </trkpt>
      <trkpt lat="48.21595" lon="-1.19083">
        <ele>97.8</ele>
        <time>2022-08-27T18:33:24Z</time>
      </trkpt>
      <trkpt lat="48.21559" lon="-1.19086">
        <ele>97.6</ele>
        <time>2022-08-27T18:33:30Z</time>
      </trkpt>
      <trkpt lat="48.21508" lon="-1.19081">
        <ele>96.8</ele>
        <time>2022-08-27T18:33:38Z</time>
      </trkpt>
      <trkpt lat="48.21468" lon="-1.19071">
        <ele>96.2</ele>
        <time>2022-08-27T18:33:44Z</time>
      </trkpt>
      <trkpt lat="48.21427" lon="-1.19064">
        <ele>95.6</ele>
        <time>2022-08-27T18:33:50Z</time>
      </trkpt>
      <trkpt lat="48.21378" lon="-1.19055">
        <ele>94.8</ele>
        <time>2022-08-27T18:33:57Z</time>
      </trkpt>
      <trkpt lat="48.21334" lon="-1.19045">
        <ele>94.2</ele>
        <time>2022-08-27T18:34:03Z</time>
      </trkpt>
      <trkpt lat="48.21276" lon="-1.19026">
        <ele>93.6</ele>
        <time>2022-08-27T18:34:11Z</time>
      </trkpt>
      <trkpt lat="48.21219" lon="-1.18997">
        <ele>93</ele>
        <time>2022-08-27T18:34:19Z</time>
      </trkpt>
      <trkpt lat="48.2118" lon="-1.18969">
        <ele>92.6</ele>
        <time>2022-08-27T18:34:25Z</time>
      </trkpt>
      <trkpt lat="48.21146" lon="-1.18941">
        <ele>92.2</ele>
        <time>2022-08-27T18:34:31Z</time>
      </trkpt>
      <trkpt lat="48.21108" lon="-1.18904">
        <ele>91.6</ele>
        <time>2022-08-27T18:34:38Z</time>
      </trkpt>
      <trkpt lat="48.21083" lon="-1.18875">
        <ele>91.2</ele>
        <time>2022-08-27T18:34:43Z</time>
      </trkpt>
      <trkpt lat="48.21078" lon="-1.1887">
        <ele>91</ele>
        <time>2022-08-27T18:34:44Z</time>
      </trkpt>
      <trkpt lat="48.21049" lon="-1.18836">
        <ele>90.6</ele>
        <time>2022-08-27T18:34:50Z</time>
      </trkpt>
      <trkpt lat="48.21009" lon="-1.18789">
        <ele>90.2</ele>
        <time>2022-08-27T18:34:59Z</time>
      </trkpt>
      <trkpt lat="48.20981" lon="-1.1876">
        <ele>89.6</ele>
        <time>2022-08-27T18:35:05Z</time>
      </trkpt>
      <trkpt lat="48.20939" lon="-1.18729">
        <ele>89.2</ele>
        <time>2022-08-27T18:35:13Z</time>
      </trkpt>
      <trkpt lat="48.20906" lon="-1.18711">
        <ele>88.8</ele>
        <time>2022-08-27T18:35:19Z</time>
      </trkpt>
      <trkpt lat="48.20857" lon="-1.18695">
        <ele>88.4</ele>
        <time>2022-08-27T18:35:27Z</time>
      </trkpt>
      <trkpt lat="48.208" lon="-1.18689">
        <ele>88</ele>
        <time>2022-08-27T18:35:36Z</time>
      </trkpt>
      <trkpt lat="48.20762" lon="-1.18685">
        <ele>87.6</ele>
        <time>2022-08-27T18:35:42Z</time>
      </trkpt>
      <trkpt lat="48.2071" lon="-1.18679">
        <ele>86.8</ele>
        <time>2022-08-27T18:35:50Z</time>
      </trkpt>
      <trkpt lat="48.20672" lon="-1.18669">
        <ele>86.4</ele>
        <time>2022-08-27T18:35:56Z</time>
      </trkpt>
      <trkpt lat="48.20635" lon="-1.1865">
        <ele>86</ele>
        <time>2022-08-27T18:36:02Z</time>
      </trkpt>
      <trkpt lat="48.20594" lon="-1.18621">
        <ele>86</ele>
        <time>2022-08-27T18:36:09Z</time>
      </trkpt>
      <trkpt lat="48.20554" lon="-1.18587">
        <ele>85.8</ele>
        <time>2022-08-27T18:36:16Z</time>
      </trkpt>
      <trkpt lat="48.20515" lon="-1.18553">
        <ele>85.6</ele>
        <time>2022-08-27T18:36:23Z</time>
      </trkpt>
      <trkpt lat="48.20489" lon="-1.1853">
        <ele>85.6</ele>
        <time>2022-08-27T18:36:28Z</time>
      </trkpt>
      <trkpt lat="48.20445" lon="-1.18496">
        <ele>85.6</ele>
        <time>2022-08-27T18:36:36Z</time>
      </trkpt>
      <trkpt lat="48.20405" lon="-1.18474">
        <ele>85.6</ele>
        <time>2022-08-27T18:36:43Z</time>
      </trkpt>
      <trkpt lat="48.20386" lon="-1.18467">
        <ele>85.4</ele>
        <time>2022-08-27T18:36:46Z</time>
      </trkpt>
      <trkpt lat="48.2038" lon="-1.18465">
        <ele>85.4</ele>
        <time>2022-08-27T18:36:47Z</time>
      </trkpt>
      <trkpt lat="48.2034" lon="-1.18459">
        <ele>85.2</ele>
        <time>2022-08-27T18:36:53Z</time>
      </trkpt>
      <trkpt lat="48.20293" lon="-1.1846">
        <ele>85</ele>
        <time>2022-08-27T18:37:00Z</time>
      </trkpt>
      <trkpt lat="48.20234" lon="-1.18471">
        <ele>85</ele>
        <time>2022-08-27T18:37:09Z</time>
      </trkpt>
      <trkpt lat="48.20193" lon="-1.18481">
        <ele>84.8</ele>
        <time>2022-08-27T18:37:16Z</time>
      </trkpt>
      <trkpt lat="48.20183" lon="-1.18482">
        <ele>84.8</ele>
        <time>2022-08-27T18:37:19Z</time>
      </trkpt>
      <trkpt lat="48.20168" lon="-1.18481">
        <ele>84.6</ele>
        <time>2022-08-27T18:37:23Z</time>
      </trkpt>
      <trkpt lat="48.20141" lon="-1.18488">
        <ele>84</ele>
        <time>2022-08-27T18:37:28Z</time>
      </trkpt>
      <trkpt lat="48.20101" lon="-1.18501">
        <ele>83.2</ele>
        <time>2022-08-27T18:37:34Z</time>
      </trkpt>
      <trkpt lat="48.20067" lon="-1.18518">
        <ele>82.4</ele>
        <time>2022-08-27T18:37:39Z</time>
      </trkpt>
      <trkpt lat="48.20036" lon="-1.1854">
        <ele>81.4</ele>
        <time>2022-08-27T18:37:44Z</time>
      </trkpt>
      <trkpt lat="48.19991" lon="-1.18587">
        <ele>80.4</ele>
        <time>2022-08-27T18:37:52Z</time>
      </trkpt>
      <trkpt lat="48.19977" lon="-1.18608">
        <ele>80.2</ele>
        <time>2022-08-27T18:37:55Z</time>
      </trkpt>
      <trkpt lat="48.19968" lon="-1.18624">
        <ele>80</ele>
        <time>2022-08-27T18:37:57Z</time>
      </trkpt>
      <trkpt lat="48.19932" lon="-1.18688">
        <ele>80.4</ele>
        <time>2022-08-27T18:38:05Z</time>
      </trkpt>
      <trkpt lat="48.19928" lon="-1.18697">
        <ele>80.4</ele>
        <time>2022-08-27T18:38:06Z</time>
      </trkpt>
      <trkpt lat="48.19924" lon="-1.18705">
        <ele>80.6</ele>
        <time>2022-08-27T18:38:07Z</time>
      </trkpt>
      <trkpt lat="48.19898" lon="-1.18769">
        <ele>80.8</ele>
        <time>2022-08-27T18:38:14Z</time>
      </trkpt>
      <trkpt lat="48.19873" lon="-1.18819">
        <ele>80.8</ele>
        <time>2022-08-27T18:38:20Z</time>
      </trkpt>
      <trkpt lat="48.1986" lon="-1.18845">
        <ele>81</ele>
        <time>2022-08-27T18:38:23Z</time>
      </trkpt>
      <trkpt lat="48.1985" lon="-1.18859">
        <ele>81.2</ele>
        <time>2022-08-27T18:38:25Z</time>
      </trkpt>
      <trkpt lat="48.19818" lon="-1.18902">
        <ele>81.8</ele>
        <time>2022-08-27T18:38:31Z</time>
      </trkpt>
      <trkpt lat="48.19784" lon="-1.18935">
        <ele>82</ele>
        <time>2022-08-27T18:38:37Z</time>
      </trkpt>
      <trkpt lat="48.19746" lon="-1.18959">
        <ele>82.4</ele>
        <time>2022-08-27T18:38:43Z</time>
      </trkpt>
      <trkpt lat="48.19703" lon="-1.18981">
        <ele>82.8</ele>
        <time>2022-08-27T18:38:50Z</time>
      </trkpt>
      <trkpt lat="48.19655" lon="-1.19002">
        <ele>83</ele>
        <time>2022-08-27T18:38:58Z</time>
      </trkpt>
      <trkpt lat="48.19615" lon="-1.19021">
        <ele>83</ele>
        <time>2022-08-27T18:39:05Z</time>
      </trkpt>
      <trkpt lat="48.19581" lon="-1.19041">
        <ele>83</ele>
        <time>2022-08-27T18:39:11Z</time>
      </trkpt>
      <trkpt lat="48.19553" lon="-1.19061">
        <ele>82.2</ele>
        <time>2022-08-27T18:39:16Z</time>
      </trkpt>
      <trkpt lat="48.19548" lon="-1.19065">
        <ele>82.2</ele>
        <time>2022-08-27T18:39:17Z</time>
      </trkpt>
      <trkpt lat="48.19511" lon="-1.191">
        <ele>81.6</ele>
        <time>2022-08-27T18:39:24Z</time>
      </trkpt>
      <trkpt lat="48.19483" lon="-1.19132">
        <ele>81.6</ele>
        <time>2022-08-27T18:39:30Z</time>
      </trkpt>
      <trkpt lat="48.19456" lon="-1.1917">
        <ele>81.4</ele>
        <time>2022-08-27T18:39:36Z</time>
      </trkpt>
      <trkpt lat="48.19429" lon="-1.19212">
        <ele>81.2</ele>
        <time>2022-08-27T18:39:42Z</time>
      </trkpt>
      <trkpt lat="48.19421" lon="-1.19224">
        <ele>81</ele>
        <time>2022-08-27T18:39:44Z</time>
      </trkpt>
      <trkpt lat="48.19412" lon="-1.19238">
        <ele>80.8</ele>
        <time>2022-08-27T18:39:46Z</time>
      </trkpt>
      <trkpt lat="48.19403" lon="-1.19251">
        <ele>80.6</ele>
        <time>2022-08-27T18:39:48Z</time>
      </trkpt>
      <trkpt lat="48.19387" lon="-1.1927">
        <ele>80.6</ele>
        <time>2022-08-27T18:39:51Z</time>
      </trkpt>
      <trkpt lat="48.19378" lon="-1.19282">
        <ele>80.4</ele>
        <time>2022-08-27T18:39:53Z</time>
      </trkpt>
      <trkpt lat="48.19369" lon="-1.19293">
        <ele>80.4</ele>
        <time>2022-08-27T18:39:55Z</time>
      </trkpt>
      <trkpt lat="48.19338" lon="-1.19324">
        <ele>80</ele>
        <time>2022-08-27T18:40:01Z</time>
      </trkpt>
      <trkpt lat="48.19311" lon="-1.19344">
        <ele>79.6</ele>
        <time>2022-08-27T18:40:06Z</time>
      </trkpt>
      <trkpt lat="48.19279" lon="-1.19359">
        <ele>79.2</ele>
        <time>2022-08-27T18:40:11Z</time>
      </trkpt>
      <trkpt lat="48.19249" lon="-1.19368">
        <ele>78.8</ele>
        <time>2022-08-27T18:40:16Z</time>
      </trkpt>
      <trkpt lat="48.19243" lon="-1.19369">
        <ele>79</ele>
        <time>2022-08-27T18:40:17Z</time>
      </trkpt>
      <trkpt lat="48.1921" lon="-1.19381">
        <ele>79</ele>
        <time>2022-08-27T18:40:23Z</time>
      </trkpt>
      <trkpt lat="48.19181" lon="-1.19396">
        <ele>78.4</ele>
        <time>2022-08-27T18:40:29Z</time>
      </trkpt>
      <trkpt lat="48.19152" lon="-1.19409">
        <ele>78</ele>
        <time>2022-08-27T18:40:34Z</time>
      </trkpt>
      <trkpt lat="48.1911" lon="-1.19433">
        <ele>77.6</ele>
        <time>2022-08-27T18:40:41Z</time>
      </trkpt>
      <trkpt lat="48.1907" lon="-1.19466">
        <ele>77.4</ele>
        <time>2022-08-27T18:40:48Z</time>
      </trkpt>
      <trkpt lat="48.19038" lon="-1.19502">
        <ele>77.2</ele>
        <time>2022-08-27T18:40:54Z</time>
      </trkpt>
      <trkpt lat="48.19005" lon="-1.1954">
        <ele>77</ele>
        <time>2022-08-27T18:41:00Z</time>
      </trkpt>
      <trkpt lat="48.18968" lon="-1.19583">
        <ele>76.4</ele>
        <time>2022-08-27T18:41:07Z</time>
      </trkpt>
      <trkpt lat="48.18943" lon="-1.19613">
        <ele>76.2</ele>
        <time>2022-08-27T18:41:13Z</time>
      </trkpt>
      <trkpt lat="48.18935" lon="-1.19624">
        <ele>76</ele>
        <time>2022-08-27T18:41:17Z</time>
      </trkpt>
      <trkpt lat="48.18933" lon="-1.1963">
        <ele>76.4</ele>
        <time>2022-08-27T18:41:20Z</time>
      </trkpt>
      <trkpt lat="48.18932" lon="-1.1963">
        <ele>76.4</ele>
        <time>2022-08-27T18:41:21Z</time>
      </trkpt>
      <trkpt lat="48.18931" lon="-1.19632">
        <ele>76</ele>
        <time>2022-08-27T18:41:22Z</time>
      </trkpt>
      <trkpt lat="48.18929" lon="-1.19635">
        <ele>76.4</ele>
        <time>2022-08-27T18:41:25Z</time>
      </trkpt>
      <trkpt lat="48.18928" lon="-1.19636">
        <ele>76.4</ele>
        <time>2022-08-27T18:41:26Z</time>
      </trkpt>
      <trkpt lat="48.18921" lon="-1.19641">
        <ele>76.8</ele>
        <time>2022-08-27T18:41:29Z</time>
      </trkpt>
      <trkpt lat="48.18906" lon="-1.19661">
        <ele>76.6</ele>
        <time>2022-08-27T18:41:34Z</time>
      </trkpt>
      <trkpt lat="48.18878" lon="-1.19695">
        <ele>76.8</ele>
        <time>2022-08-27T18:41:41Z</time>
      </trkpt>
      <trkpt lat="48.18871" lon="-1.19704">
        <ele>76.8</ele>
        <time>2022-08-27T18:41:43Z</time>
      </trkpt>
      <trkpt lat="48.18859" lon="-1.19719">
        <ele>76.8</ele>
        <time>2022-08-27T18:41:46Z</time>
      </trkpt>
      <trkpt lat="48.18842" lon="-1.19739">
        <ele>76.8</ele>
        <time>2022-08-27T18:41:50Z</time>
      </trkpt>
      <trkpt lat="48.18834" lon="-1.1975">
        <ele>76.6</ele>
        <time>2022-08-27T18:41:52Z</time>
      </trkpt>
      <trkpt lat="48.18809" lon="-1.19779">
        <ele>76.4</ele>
        <time>2022-08-27T18:41:58Z</time>
      </trkpt>
      <trkpt lat="48.18789" lon="-1.198">
        <ele>76.4</ele>
        <time>2022-08-27T18:42:02Z</time>
      </trkpt>
      <trkpt lat="48.18784" lon="-1.19805">
        <ele>76.4</ele>
        <time>2022-08-27T18:42:03Z</time>
      </trkpt>
      <trkpt lat="48.18737" lon="-1.19848">
        <ele>76.8</ele>
        <time>2022-08-27T18:42:12Z</time>
      </trkpt>
      <trkpt lat="48.18697" lon="-1.19874">
        <ele>76.8</ele>
        <time>2022-08-27T18:42:19Z</time>
      </trkpt>
      <trkpt lat="48.18655" lon="-1.19894">
        <ele>76.8</ele>
        <time>2022-08-27T18:42:26Z</time>
      </trkpt>
      <trkpt lat="48.18601" lon="-1.19917">
        <ele>76.8</ele>
        <time>2022-08-27T18:42:35Z</time>
      </trkpt>
      <trkpt lat="48.18552" lon="-1.19937">
        <ele>76.8</ele>
        <time>2022-08-27T18:42:43Z</time>
      </trkpt>
      <trkpt lat="48.18504" lon="-1.1996">
        <ele>76.4</ele>
        <time>2022-08-27T18:42:51Z</time>
      </trkpt>
      <trkpt lat="48.18457" lon="-1.1999">
        <ele>76.2</ele>
        <time>2022-08-27T18:42:59Z</time>
      </trkpt>
      <trkpt lat="48.18434" lon="-1.20013">
        <ele>76</ele>
        <time>2022-08-27T18:43:04Z</time>
      </trkpt>
      <trkpt lat="48.18423" lon="-1.20023">
        <ele>75.8</ele>
        <time>2022-08-27T18:43:08Z</time>
      </trkpt>
      <trkpt lat="48.18416" lon="-1.20035">
        <ele>75.6</ele>
        <time>2022-08-27T18:43:11Z</time>
      </trkpt>
      <trkpt lat="48.18412" lon="-1.20038">
        <ele>75.6</ele>
        <time>2022-08-27T18:43:12Z</time>
      </trkpt>
      <trkpt lat="48.18409" lon="-1.20043">
        <ele>75.4</ele>
        <time>2022-08-27T18:43:13Z</time>
      </trkpt>
      <trkpt lat="48.18404" lon="-1.20053">
        <ele>75.4</ele>
        <time>2022-08-27T18:43:15Z</time>
      </trkpt>
      <trkpt lat="48.18382" lon="-1.20087">
        <ele>75.2</ele>
        <time>2022-08-27T18:43:21Z</time>
      </trkpt>
      <trkpt lat="48.18379" lon="-1.20093">
        <ele>75.2</ele>
        <time>2022-08-27T18:43:22Z</time>
      </trkpt>
      <trkpt lat="48.18355" lon="-1.20145">
        <ele>75.4</ele>
        <time>2022-08-27T18:43:29Z</time>
      </trkpt>
      <trkpt lat="48.18329" lon="-1.20208">
        <ele>75</ele>
        <time>2022-08-27T18:43:37Z</time>
      </trkpt>
      <trkpt lat="48.18304" lon="-1.20263">
        <ele>75.2</ele>
        <time>2022-08-27T18:43:44Z</time>
      </trkpt>
      <trkpt lat="48.18281" lon="-1.20308">
        <ele>75.2</ele>
        <time>2022-08-27T18:43:50Z</time>
      </trkpt>
      <trkpt lat="48.18259" lon="-1.20341">
        <ele>75.4</ele>
        <time>2022-08-27T18:43:55Z</time>
      </trkpt>
      <trkpt lat="48.18234" lon="-1.20372">
        <ele>75.4</ele>
        <time>2022-08-27T18:44:00Z</time>
      </trkpt>
      <trkpt lat="48.18229" lon="-1.20377">
        <ele>75.4</ele>
        <time>2022-08-27T18:44:01Z</time>
      </trkpt>
      <trkpt lat="48.18189" lon="-1.20409">
        <ele>75.4</ele>
        <time>2022-08-27T18:44:08Z</time>
      </trkpt>
      <trkpt lat="48.18159" lon="-1.20425">
        <ele>75.4</ele>
        <time>2022-08-27T18:44:13Z</time>
      </trkpt>
      <trkpt lat="48.18117" lon="-1.20442">
        <ele>75.2</ele>
        <time>2022-08-27T18:44:20Z</time>
      </trkpt>
      <trkpt lat="48.181" lon="-1.20449">
        <ele>75.2</ele>
        <time>2022-08-27T18:44:23Z</time>
      </trkpt>
      <trkpt lat="48.18077" lon="-1.20457">
        <ele>75.2</ele>
        <time>2022-08-27T18:44:27Z</time>
      </trkpt>
      <trkpt lat="48.18039" lon="-1.20469">
        <ele>75.4</ele>
        <time>2022-08-27T18:44:33Z</time>
      </trkpt>
      <trkpt lat="48.17989" lon="-1.20486">
        <ele>75.6</ele>
        <time>2022-08-27T18:44:41Z</time>
      </trkpt>
      <trkpt lat="48.17953" lon="-1.20501">
        <ele>75.8</ele>
        <time>2022-08-27T18:44:47Z</time>
      </trkpt>
      <trkpt lat="48.17919" lon="-1.20519">
        <ele>76.2</ele>
        <time>2022-08-27T18:44:53Z</time>
      </trkpt>
      <trkpt lat="48.17884" lon="-1.20541">
        <ele>76.4</ele>
        <time>2022-08-27T18:44:59Z</time>
      </trkpt>
      <trkpt lat="48.1785" lon="-1.2057">
        <ele>76.6</ele>
        <time>2022-08-27T18:45:05Z</time>
      </trkpt>
      <trkpt lat="48.17807" lon="-1.20616">
        <ele>77</ele>
        <time>2022-08-27T18:45:13Z</time>
      </trkpt>
      <trkpt lat="48.17772" lon="-1.20662">
        <ele>77.2</ele>
        <time>2022-08-27T18:45:20Z</time>
      </trkpt>
      <trkpt lat="48.17734" lon="-1.20721">
        <ele>77.4</ele>
        <time>2022-08-27T18:45:28Z</time>
      </trkpt>
      <trkpt lat="48.17707" lon="-1.20766">
        <ele>77.6</ele>
        <time>2022-08-27T18:45:34Z</time>
      </trkpt>
      <trkpt lat="48.17671" lon="-1.20826">
        <ele>78</ele>
        <time>2022-08-27T18:45:42Z</time>
      </trkpt>
      <trkpt lat="48.17662" lon="-1.20841">
        <ele>78</ele>
        <time>2022-08-27T18:45:44Z</time>
      </trkpt>
      <trkpt lat="48.17648" lon="-1.20863">
        <ele>78.2</ele>
        <time>2022-08-27T18:45:47Z</time>
      </trkpt>
      <trkpt lat="48.17639" lon="-1.20878">
        <ele>78.4</ele>
        <time>2022-08-27T18:45:49Z</time>
      </trkpt>
      <trkpt lat="48.1761" lon="-1.20934">
        <ele>78.6</ele>
        <time>2022-08-27T18:45:56Z</time>
      </trkpt>
      <trkpt lat="48.17581" lon="-1.20989">
        <ele>78.8</ele>
        <time>2022-08-27T18:46:03Z</time>
      </trkpt>
      <trkpt lat="48.17548" lon="-1.21052">
        <ele>79</ele>
        <time>2022-08-27T18:46:11Z</time>
      </trkpt>
      <trkpt lat="48.17528" lon="-1.21083">
        <ele>79.2</ele>
        <time>2022-08-27T18:46:16Z</time>
      </trkpt>
      <trkpt lat="48.1752" lon="-1.21093">
        <ele>79.2</ele>
        <time>2022-08-27T18:46:19Z</time>
      </trkpt>
      <trkpt lat="48.17515" lon="-1.21095">
        <ele>79.2</ele>
        <time>2022-08-27T18:46:21Z</time>
      </trkpt>
      <trkpt lat="48.1751" lon="-1.21101">
        <ele>79.2</ele>
        <time>2022-08-27T18:46:23Z</time>
      </trkpt>
      <trkpt lat="48.17503" lon="-1.21109">
        <ele>79.2</ele>
        <time>2022-08-27T18:46:25Z</time>
      </trkpt>
      <trkpt lat="48.17489" lon="-1.21122">
        <ele>79.2</ele>
        <time>2022-08-27T18:46:28Z</time>
      </trkpt>
      <trkpt lat="48.17437" lon="-1.21168">
        <ele>79.4</ele>
        <time>2022-08-27T18:46:37Z</time>
      </trkpt>
      <trkpt lat="48.17431" lon="-1.21173">
        <ele>79.4</ele>
        <time>2022-08-27T18:46:38Z</time>
      </trkpt>
      <trkpt lat="48.17379" lon="-1.21218">
        <ele>79.4</ele>
        <time>2022-08-27T18:46:47Z</time>
      </trkpt>
      <trkpt lat="48.17374" lon="-1.21223">
        <ele>79.4</ele>
        <time>2022-08-27T18:46:48Z</time>
      </trkpt>
      <trkpt lat="48.17335" lon="-1.21259">
        <ele>79.6</ele>
        <time>2022-08-27T18:46:55Z</time>
      </trkpt>
      <trkpt lat="48.17305" lon="-1.21297">
        <ele>79.4</ele>
        <time>2022-08-27T18:47:01Z</time>
      </trkpt>
      <trkpt lat="48.1727" lon="-1.21358">
        <ele>79</ele>
        <time>2022-08-27T18:47:09Z</time>
      </trkpt>
      <trkpt lat="48.17242" lon="-1.21404">
        <ele>79.2</ele>
        <time>2022-08-27T18:47:15Z</time>
      </trkpt>
      <trkpt lat="48.1721" lon="-1.2146">
        <ele>79</ele>
        <time>2022-08-27T18:47:22Z</time>
      </trkpt>
      <trkpt lat="48.17179" lon="-1.21513">
        <ele>79</ele>
        <time>2022-08-27T18:47:29Z</time>
      </trkpt>
      <trkpt lat="48.17142" lon="-1.21582">
        <ele>79</ele>
        <time>2022-08-27T18:47:38Z</time>
      </trkpt>
      <trkpt lat="48.17135" lon="-1.21598">
        <ele>79</ele>
        <time>2022-08-27T18:47:40Z</time>
      </trkpt>
      <trkpt lat="48.17114" lon="-1.21648">
        <ele>79</ele>
        <time>2022-08-27T18:47:46Z</time>
      </trkpt>
      <trkpt lat="48.17112" lon="-1.21657">
        <ele>79.2</ele>
        <time>2022-08-27T18:47:47Z</time>
      </trkpt>
      <trkpt lat="48.17099" lon="-1.21716">
        <ele>79.2</ele>
        <time>2022-08-27T18:47:53Z</time>
      </trkpt>
      <trkpt lat="48.17086" lon="-1.21795">
        <ele>79.2</ele>
        <time>2022-08-27T18:48:01Z</time>
      </trkpt>
      <trkpt lat="48.17081" lon="-1.21836">
        <ele>79</ele>
        <time>2022-08-27T18:48:05Z</time>
      </trkpt>
      <trkpt lat="48.17075" lon="-1.21875">
        <ele>78.8</ele>
        <time>2022-08-27T18:48:09Z</time>
      </trkpt>
      <trkpt lat="48.17073" lon="-1.21885">
        <ele>78.6</ele>
        <time>2022-08-27T18:48:10Z</time>
      </trkpt>
      <trkpt lat="48.17068" lon="-1.21921">
        <ele>78.2</ele>
        <time>2022-08-27T18:48:14Z</time>
      </trkpt>
      <trkpt lat="48.17061" lon="-1.21961">
        <ele>77.6</ele>
        <time>2022-08-27T18:48:18Z</time>
      </trkpt>
      <trkpt lat="48.17043" lon="-1.22033">
        <ele>77.4</ele>
        <time>2022-08-27T18:48:25Z</time>
      </trkpt>
      <trkpt lat="48.17019" lon="-1.2209">
        <ele>77.6</ele>
        <time>2022-08-27T18:48:31Z</time>
      </trkpt>
      <trkpt lat="48.16982" lon="-1.22144">
        <ele>77.6</ele>
        <time>2022-08-27T18:48:38Z</time>
      </trkpt>
      <trkpt lat="48.16947" lon="-1.22179">
        <ele>77</ele>
        <time>2022-08-27T18:48:44Z</time>
      </trkpt>
      <trkpt lat="48.1691" lon="-1.222">
        <ele>76.8</ele>
        <time>2022-08-27T18:48:50Z</time>
      </trkpt>
      <trkpt lat="48.16899" lon="-1.22205">
        <ele>76.6</ele>
        <time>2022-08-27T18:48:52Z</time>
      </trkpt>
      <trkpt lat="48.16876" lon="-1.22213">
        <ele>76.2</ele>
        <time>2022-08-27T18:48:56Z</time>
      </trkpt>
      <trkpt lat="48.16831" lon="-1.22223">
        <ele>75.4</ele>
        <time>2022-08-27T18:49:03Z</time>
      </trkpt>
      <trkpt lat="48.1679" lon="-1.2223">
        <ele>74.8</ele>
        <time>2022-08-27T18:49:09Z</time>
      </trkpt>
      <trkpt lat="48.16756" lon="-1.22238">
        <ele>74.6</ele>
        <time>2022-08-27T18:49:14Z</time>
      </trkpt>
      <trkpt lat="48.167" lon="-1.22257">
        <ele>74.8</ele>
        <time>2022-08-27T18:49:22Z</time>
      </trkpt>
      <trkpt lat="48.16693" lon="-1.2226">
        <ele>74.8</ele>
        <time>2022-08-27T18:49:23Z</time>
      </trkpt>
      <trkpt lat="48.16641" lon="-1.22293">
        <ele>74.8</ele>
        <time>2022-08-27T18:49:31Z</time>
      </trkpt>
      <trkpt lat="48.16591" lon="-1.22335">
        <ele>75</ele>
        <time>2022-08-27T18:49:39Z</time>
      </trkpt>
      <trkpt lat="48.16584" lon="-1.2234">
        <ele>75</ele>
        <time>2022-08-27T18:49:40Z</time>
      </trkpt>
      <trkpt lat="48.16542" lon="-1.22377">
        <ele>75</ele>
        <time>2022-08-27T18:49:47Z</time>
      </trkpt>
      <trkpt lat="48.16507" lon="-1.22409">
        <ele>75.2</ele>
        <time>2022-08-27T18:49:53Z</time>
      </trkpt>
      <trkpt lat="48.16477" lon="-1.22435">
        <ele>75.2</ele>
        <time>2022-08-27T18:49:58Z</time>
      </trkpt>
      <trkpt lat="48.16435" lon="-1.22477">
        <ele>75.2</ele>
        <time>2022-08-27T18:50:06Z</time>
      </trkpt>
      <trkpt lat="48.16424" lon="-1.22491">
        <ele>75.2</ele>
        <time>2022-08-27T18:50:09Z</time>
      </trkpt>
      <trkpt lat="48.16421" lon="-1.22494">
        <ele>75.2</ele>
        <time>2022-08-27T18:50:10Z</time>
      </trkpt>
      <trkpt lat="48.1641" lon="-1.22508">
        <ele>75.4</ele>
        <time>2022-08-27T18:50:14Z</time>
      </trkpt>
      <trkpt lat="48.16406" lon="-1.22517">
        <ele>75.6</ele>
        <time>2022-08-27T18:50:16Z</time>
      </trkpt>
      <trkpt lat="48.16396" lon="-1.22532">
        <ele>75.8</ele>
        <time>2022-08-27T18:50:19Z</time>
      </trkpt>
      <trkpt lat="48.16388" lon="-1.22541">
        <ele>75.8</ele>
        <time>2022-08-27T18:50:21Z</time>
      </trkpt>
      <trkpt lat="48.16385" lon="-1.22547">
        <ele>75.8</ele>
        <time>2022-08-27T18:50:22Z</time>
      </trkpt>
      <trkpt lat="48.16365" lon="-1.22584">
        <ele>76</ele>
        <time>2022-08-27T18:50:27Z</time>
      </trkpt>
      <trkpt lat="48.16344" lon="-1.22624">
        <ele>76.2</ele>
        <time>2022-08-27T18:50:32Z</time>
      </trkpt>
      <trkpt lat="48.16337" lon="-1.22637">
        <ele>76.2</ele>
        <time>2022-08-27T18:50:34Z</time>
      </trkpt>
      <trkpt lat="48.1633" lon="-1.22651">
        <ele>76.2</ele>
        <time>2022-08-27T18:50:36Z</time>
      </trkpt>
      <trkpt lat="48.16326" lon="-1.22658">
        <ele>76</ele>
        <time>2022-08-27T18:50:37Z</time>
      </trkpt>
      <trkpt lat="48.16315" lon="-1.22679">
        <ele>76</ele>
        <time>2022-08-27T18:50:40Z</time>
      </trkpt>
      <trkpt lat="48.16311" lon="-1.22687">
        <ele>76</ele>
        <time>2022-08-27T18:50:41Z</time>
      </trkpt>
      <trkpt lat="48.16285" lon="-1.22739">
        <ele>76.2</ele>
        <time>2022-08-27T18:50:48Z</time>
      </trkpt>
      <trkpt lat="48.16282" lon="-1.22747">
        <ele>76</ele>
        <time>2022-08-27T18:50:49Z</time>
      </trkpt>
      <trkpt lat="48.16271" lon="-1.22768">
        <ele>76</ele>
        <time>2022-08-27T18:50:52Z</time>
      </trkpt>
      <trkpt lat="48.16247" lon="-1.2282">
        <ele>75.8</ele>
        <time>2022-08-27T18:50:59Z</time>
      </trkpt>
      <trkpt lat="48.16231" lon="-1.22861">
        <ele>75.8</ele>
        <time>2022-08-27T18:51:05Z</time>
      </trkpt>
      <trkpt lat="48.16229" lon="-1.22867">
        <ele>75.8</ele>
        <time>2022-08-27T18:51:06Z</time>
      </trkpt>
      <trkpt lat="48.16226" lon="-1.22881">
        <ele>75.8</ele>
        <time>2022-08-27T18:51:08Z</time>
      </trkpt>
      <trkpt lat="48.16223" lon="-1.22896">
        <ele>75.8</ele>
        <time>2022-08-27T18:51:10Z</time>
      </trkpt>
      <trkpt lat="48.16221" lon="-1.22905">
        <ele>75.6</ele>
        <time>2022-08-27T18:51:11Z</time>
      </trkpt>
      <trkpt lat="48.16211" lon="-1.22959">
        <ele>75.2</ele>
        <time>2022-08-27T18:51:17Z</time>
      </trkpt>
      <trkpt lat="48.16206" lon="-1.23017">
        <ele>74.4</ele>
        <time>2022-08-27T18:51:23Z</time>
      </trkpt>
      <trkpt lat="48.16204" lon="-1.23065">
        <ele>73.8</ele>
        <time>2022-08-27T18:51:28Z</time>
      </trkpt>
      <trkpt lat="48.16201" lon="-1.23113">
        <ele>73.2</ele>
        <time>2022-08-27T18:51:33Z</time>
      </trkpt>
      <trkpt lat="48.16194" lon="-1.23173">
        <ele>72.8</ele>
        <time>2022-08-27T18:51:39Z</time>
      </trkpt>
      <trkpt lat="48.16186" lon="-1.23218">
        <ele>72.2</ele>
        <time>2022-08-27T18:51:44Z</time>
      </trkpt>
      <trkpt lat="48.16177" lon="-1.23261">
        <ele>71.6</ele>
        <time>2022-08-27T18:51:49Z</time>
      </trkpt>
      <trkpt lat="48.16171" lon="-1.23288">
        <ele>71.2</ele>
        <time>2022-08-27T18:51:52Z</time>
      </trkpt>
      <trkpt lat="48.16169" lon="-1.23298">
        <ele>71</ele>
        <time>2022-08-27T18:51:53Z</time>
      </trkpt>
      <trkpt lat="48.16154" lon="-1.23364">
        <ele>69.6</ele>
        <time>2022-08-27T18:52:00Z</time>
      </trkpt>
      <trkpt lat="48.16144" lon="-1.23419">
        <ele>68</ele>
        <time>2022-08-27T18:52:06Z</time>
      </trkpt>
      <trkpt lat="48.1614" lon="-1.23439">
        <ele>67.4</ele>
        <time>2022-08-27T18:52:08Z</time>
      </trkpt>
      <trkpt lat="48.16135" lon="-1.23459">
        <ele>67.2</ele>
        <time>2022-08-27T18:52:10Z</time>
      </trkpt>
      <trkpt lat="48.16125" lon="-1.23507">
        <ele>66.2</ele>
        <time>2022-08-27T18:52:15Z</time>
      </trkpt>
      <trkpt lat="48.16118" lon="-1.23555">
        <ele>65.2</ele>
        <time>2022-08-27T18:52:20Z</time>
      </trkpt>
      <trkpt lat="48.16116" lon="-1.23608">
        <ele>64</ele>
        <time>2022-08-27T18:52:25Z</time>
      </trkpt>
      <trkpt lat="48.16115" lon="-1.23672">
        <ele>62.4</ele>
        <time>2022-08-27T18:52:31Z</time>
      </trkpt>
      <trkpt lat="48.16118" lon="-1.23741">
        <ele>61.8</ele>
        <time>2022-08-27T18:52:37Z</time>
      </trkpt>
      <trkpt lat="48.16116" lon="-1.23823">
        <ele>62.4</ele>
        <time>2022-08-27T18:52:44Z</time>
      </trkpt>
      <trkpt lat="48.16107" lon="-1.23878">
        <ele>60.4</ele>
        <time>2022-08-27T18:52:49Z</time>
      </trkpt>
      <trkpt lat="48.16091" lon="-1.23931">
        <ele>62</ele>
        <time>2022-08-27T18:52:54Z</time>
      </trkpt>
      <trkpt lat="48.16087" lon="-1.2394">
        <ele>62.2</ele>
        <time>2022-08-27T18:52:55Z</time>
      </trkpt>
      <trkpt lat="48.1607" lon="-1.23978">
        <ele>63.8</ele>
        <time>2022-08-27T18:52:59Z</time>
      </trkpt>
      <trkpt lat="48.16042" lon="-1.24027">
        <ele>63</ele>
        <time>2022-08-27T18:53:05Z</time>
      </trkpt>
      <trkpt lat="48.16033" lon="-1.24042">
        <ele>63</ele>
        <time>2022-08-27T18:53:07Z</time>
      </trkpt>
      <trkpt lat="48.16023" lon="-1.24055">
        <ele>63</ele>
        <time>2022-08-27T18:53:09Z</time>
      </trkpt>
      <trkpt lat="48.15994" lon="-1.24083">
        <ele>63</ele>
        <time>2022-08-27T18:53:14Z</time>
      </trkpt>
      <trkpt lat="48.15952" lon="-1.24117">
        <ele>63.4</ele>
        <time>2022-08-27T18:53:21Z</time>
      </trkpt>
      <trkpt lat="48.15902" lon="-1.24154">
        <ele>64.6</ele>
        <time>2022-08-27T18:53:29Z</time>
      </trkpt>
      <trkpt lat="48.15853" lon="-1.24191">
        <ele>65.2</ele>
        <time>2022-08-27T18:53:37Z</time>
      </trkpt>
      <trkpt lat="48.15814" lon="-1.24221">
        <ele>65.4</ele>
        <time>2022-08-27T18:53:44Z</time>
      </trkpt>
      <trkpt lat="48.15778" lon="-1.24245">
        <ele>65.8</ele>
        <time>2022-08-27T18:53:51Z</time>
      </trkpt>
      <trkpt lat="48.15738" lon="-1.24266">
        <ele>66</ele>
        <time>2022-08-27T18:53:58Z</time>
      </trkpt>
      <trkpt lat="48.15696" lon="-1.24283">
        <ele>65.6</ele>
        <time>2022-08-27T18:54:05Z</time>
      </trkpt>
      <trkpt lat="48.15652" lon="-1.24297">
        <ele>65.4</ele>
        <time>2022-08-27T18:54:12Z</time>
      </trkpt>
      <trkpt lat="48.15607" lon="-1.24312">
        <ele>65.6</ele>
        <time>2022-08-27T18:54:19Z</time>
      </trkpt>
      <trkpt lat="48.15558" lon="-1.24334">
        <ele>65.4</ele>
        <time>2022-08-27T18:54:27Z</time>
      </trkpt>
      <trkpt lat="48.15537" lon="-1.24347">
        <ele>65.4</ele>
        <time>2022-08-27T18:54:31Z</time>
      </trkpt>
      <trkpt lat="48.15528" lon="-1.24353">
        <ele>65.2</ele>
        <time>2022-08-27T18:54:33Z</time>
      </trkpt>
      <trkpt lat="48.1552" lon="-1.24361">
        <ele>65.2</ele>
        <time>2022-08-27T18:54:35Z</time>
      </trkpt>
      <trkpt lat="48.15509" lon="-1.24369">
        <ele>65.4</ele>
        <time>2022-08-27T18:54:37Z</time>
      </trkpt>
      <trkpt lat="48.15486" lon="-1.24396">
        <ele>65.6</ele>
        <time>2022-08-27T18:54:42Z</time>
      </trkpt>
      <trkpt lat="48.15454" lon="-1.24445">
        <ele>65.4</ele>
        <time>2022-08-27T18:54:49Z</time>
      </trkpt>
      <trkpt lat="48.1542" lon="-1.2451">
        <ele>65.4</ele>
        <time>2022-08-27T18:54:57Z</time>
      </trkpt>
      <trkpt lat="48.15394" lon="-1.24564">
        <ele>65.6</ele>
        <time>2022-08-27T18:55:04Z</time>
      </trkpt>
      <trkpt lat="48.1537" lon="-1.24609">
        <ele>65</ele>
        <time>2022-08-27T18:55:10Z</time>
      </trkpt>
      <trkpt lat="48.15341" lon="-1.2465">
        <ele>64.6</ele>
        <time>2022-08-27T18:55:16Z</time>
      </trkpt>
      <trkpt lat="48.15309" lon="-1.24689">
        <ele>64</ele>
        <time>2022-08-27T18:55:22Z</time>
      </trkpt>
      <trkpt lat="48.15285" lon="-1.24709">
        <ele>63.2</ele>
        <time>2022-08-27T18:55:26Z</time>
      </trkpt>
      <trkpt lat="48.15251" lon="-1.2473">
        <ele>62.4</ele>
        <time>2022-08-27T18:55:31Z</time>
      </trkpt>
      <trkpt lat="48.15216" lon="-1.24751">
        <ele>61.6</ele>
        <time>2022-08-27T18:55:36Z</time>
      </trkpt>
      <trkpt lat="48.15159" lon="-1.24783">
        <ele>60.4</ele>
        <time>2022-08-27T18:55:44Z</time>
      </trkpt>
      <trkpt lat="48.15152" lon="-1.24787">
        <ele>60.2</ele>
        <time>2022-08-27T18:55:45Z</time>
      </trkpt>
      <trkpt lat="48.15123" lon="-1.24799">
        <ele>59.6</ele>
        <time>2022-08-27T18:55:49Z</time>
      </trkpt>
      <trkpt lat="48.15116" lon="-1.24802">
        <ele>59.4</ele>
        <time>2022-08-27T18:55:50Z</time>
      </trkpt>
      <trkpt lat="48.15088" lon="-1.24811">
        <ele>59</ele>
        <time>2022-08-27T18:55:54Z</time>
      </trkpt>
      <trkpt lat="48.15041" lon="-1.24822">
        <ele>58.2</ele>
        <time>2022-08-27T18:56:01Z</time>
      </trkpt>
      <trkpt lat="48.14997" lon="-1.24816">
        <ele>56.8</ele>
        <time>2022-08-27T18:56:07Z</time>
      </trkpt>
      <trkpt lat="48.14974" lon="-1.24809">
        <ele>56.2</ele>
        <time>2022-08-27T18:56:10Z</time>
      </trkpt>
      <trkpt lat="48.1496" lon="-1.24803">
        <ele>55.8</ele>
        <time>2022-08-27T18:56:12Z</time>
      </trkpt>
      <trkpt lat="48.14945" lon="-1.24796">
        <ele>55.6</ele>
        <time>2022-08-27T18:56:14Z</time>
      </trkpt>
      <trkpt lat="48.149" lon="-1.24768">
        <ele>54.6</ele>
        <time>2022-08-27T18:56:21Z</time>
      </trkpt>
      <trkpt lat="48.14888" lon="-1.24759">
        <ele>54.4</ele>
        <time>2022-08-27T18:56:24Z</time>
      </trkpt>
      <trkpt lat="48.14884" lon="-1.24755">
        <ele>54.4</ele>
        <time>2022-08-27T18:56:26Z</time>
      </trkpt>
      <trkpt lat="48.14879" lon="-1.24752">
        <ele>54.4</ele>
        <time>2022-08-27T18:56:28Z</time>
      </trkpt>
      <trkpt lat="48.14865" lon="-1.24742">
        <ele>54.2</ele>
        <time>2022-08-27T18:56:33Z</time>
      </trkpt>
      <trkpt lat="48.1485" lon="-1.24735">
        <ele>53.6</ele>
        <time>2022-08-27T18:56:39Z</time>
      </trkpt>
      <trkpt lat="48.14848" lon="-1.24735">
        <ele>53.6</ele>
        <time>2022-08-27T18:56:40Z</time>
      </trkpt>
      <trkpt lat="48.14848" lon="-1.24732">
        <ele>53.4</ele>
        <time>2022-08-27T18:56:42Z</time>
      </trkpt>
      <trkpt lat="48.14856" lon="-1.24736">
        <ele>53.6</ele>
        <time>2022-08-27T18:56:47Z</time>
      </trkpt>
      <trkpt lat="48.14865" lon="-1.24743">
        <ele>53.8</ele>
        <time>2022-08-27T18:56:51Z</time>
      </trkpt>
      <trkpt lat="48.14867" lon="-1.24744">
        <ele>53.8</ele>
        <time>2022-08-27T18:56:52Z</time>
      </trkpt>
      <trkpt lat="48.14868" lon="-1.24748">
        <ele>53.8</ele>
        <time>2022-08-27T18:56:53Z</time>
      </trkpt>
      <trkpt lat="48.14867" lon="-1.24752">
        <ele>53.8</ele>
        <time>2022-08-27T18:56:54Z</time>
      </trkpt>
      <trkpt lat="48.14857" lon="-1.2476">
        <ele>53.8</ele>
        <time>2022-08-27T18:56:57Z</time>
      </trkpt>
      <trkpt lat="48.14854" lon="-1.24759">
        <ele>53.8</ele>
        <time>2022-08-27T18:56:58Z</time>
      </trkpt>
      <trkpt lat="48.14851" lon="-1.24756">
        <ele>54</ele>
        <time>2022-08-27T18:56:59Z</time>
      </trkpt>
      <trkpt lat="48.14842" lon="-1.24748">
        <ele>53.8</ele>
        <time>2022-08-27T18:57:01Z</time>
      </trkpt>
      <trkpt lat="48.14829" lon="-1.24738">
        <ele>53.4</ele>
        <time>2022-08-27T18:57:04Z</time>
      </trkpt>
      <trkpt lat="48.14818" lon="-1.24731">
        <ele>53.6</ele>
        <time>2022-08-27T18:57:06Z</time>
      </trkpt>
      <trkpt lat="48.14798" lon="-1.2472">
        <ele>53.2</ele>
        <time>2022-08-27T18:57:10Z</time>
      </trkpt>
      <trkpt lat="48.14776" lon="-1.24709">
        <ele>52.8</ele>
        <time>2022-08-27T18:57:14Z</time>
      </trkpt>
      <trkpt lat="48.14771" lon="-1.24708">
        <ele>52.6</ele>
        <time>2022-08-27T18:57:15Z</time>
      </trkpt>
      <trkpt lat="48.14762" lon="-1.24703">
        <ele>52.4</ele>
        <time>2022-08-27T18:57:17Z</time>
      </trkpt>
      <trkpt lat="48.14754" lon="-1.24696">
        <ele>52.2</ele>
        <time>2022-08-27T18:57:19Z</time>
      </trkpt>
      <trkpt lat="48.14743" lon="-1.24692">
        <ele>51.8</ele>
        <time>2022-08-27T18:57:22Z</time>
      </trkpt>
      <trkpt lat="48.14721" lon="-1.24694">
        <ele>51.6</ele>
        <time>2022-08-27T18:57:26Z</time>
      </trkpt>
      <trkpt lat="48.14679" lon="-1.24694">
        <ele>52.2</ele>
        <time>2022-08-27T18:57:33Z</time>
      </trkpt>
      <trkpt lat="48.14662" lon="-1.24693">
        <ele>52.2</ele>
        <time>2022-08-27T18:57:36Z</time>
      </trkpt>
      <trkpt lat="48.14656" lon="-1.24696">
        <ele>52</ele>
        <time>2022-08-27T18:57:37Z</time>
      </trkpt>
      <trkpt lat="48.14641" lon="-1.24705">
        <ele>51.8</ele>
        <time>2022-08-27T18:57:40Z</time>
      </trkpt>
      <trkpt lat="48.14631" lon="-1.24712">
        <ele>51.8</ele>
        <time>2022-08-27T18:57:42Z</time>
      </trkpt>
      <trkpt lat="48.14618" lon="-1.24717">
        <ele>51.8</ele>
        <time>2022-08-27T18:57:44Z</time>
      </trkpt>
      <trkpt lat="48.14588" lon="-1.24732">
        <ele>51.6</ele>
        <time>2022-08-27T18:57:49Z</time>
      </trkpt>
      <trkpt lat="48.14558" lon="-1.24751">
        <ele>52.4</ele>
        <time>2022-08-27T18:57:54Z</time>
      </trkpt>
      <trkpt lat="48.14552" lon="-1.24753">
        <ele>52.4</ele>
        <time>2022-08-27T18:57:55Z</time>
      </trkpt>
      <trkpt lat="48.14535" lon="-1.24758">
        <ele>52.4</ele>
        <time>2022-08-27T18:57:58Z</time>
      </trkpt>
      <trkpt lat="48.14523" lon="-1.24764">
        <ele>52.4</ele>
        <time>2022-08-27T18:58:00Z</time>
      </trkpt>
      <trkpt lat="48.14512" lon="-1.24773">
        <ele>52.4</ele>
        <time>2022-08-27T18:58:02Z</time>
      </trkpt>
      <trkpt lat="48.14507" lon="-1.24777">
        <ele>52.4</ele>
        <time>2022-08-27T18:58:03Z</time>
      </trkpt>
      <trkpt lat="48.14494" lon="-1.24782">
        <ele>52.6</ele>
        <time>2022-08-27T18:58:05Z</time>
      </trkpt>
      <trkpt lat="48.14481" lon="-1.24785">
        <ele>52.6</ele>
        <time>2022-08-27T18:58:07Z</time>
      </trkpt>
      <trkpt lat="48.14462" lon="-1.24794">
        <ele>52.6</ele>
        <time>2022-08-27T18:58:10Z</time>
      </trkpt>
      <trkpt lat="48.14456" lon="-1.24797">
        <ele>52.6</ele>
        <time>2022-08-27T18:58:11Z</time>
      </trkpt>
      <trkpt lat="48.14445" lon="-1.24795">
        <ele>52.4</ele>
        <time>2022-08-27T18:58:13Z</time>
      </trkpt>
      <trkpt lat="48.1443" lon="-1.24784">
        <ele>52.4</ele>
        <time>2022-08-27T18:58:16Z</time>
      </trkpt>
      <trkpt lat="48.14419" lon="-1.2478">
        <ele>52.8</ele>
        <time>2022-08-27T18:58:18Z</time>
      </trkpt>
      <trkpt lat="48.14396" lon="-1.24779">
        <ele>52.6</ele>
        <time>2022-08-27T18:58:22Z</time>
      </trkpt>
      <trkpt lat="48.14386" lon="-1.24786">
        <ele>52.8</ele>
        <time>2022-08-27T18:58:24Z</time>
      </trkpt>
      <trkpt lat="48.14374" lon="-1.24815">
        <ele>53</ele>
        <time>2022-08-27T18:58:28Z</time>
      </trkpt>
      <trkpt lat="48.14366" lon="-1.24846">
        <ele>52.8</ele>
        <time>2022-08-27T18:58:32Z</time>
      </trkpt>
      <trkpt lat="48.14365" lon="-1.24863">
        <ele>52.8</ele>
        <time>2022-08-27T18:58:34Z</time>
      </trkpt>
      <trkpt lat="48.14363" lon="-1.24925">
        <ele>52.4</ele>
        <time>2022-08-27T18:58:41Z</time>
      </trkpt>
      <trkpt lat="48.1436" lon="-1.24942">
        <ele>52.6</ele>
        <time>2022-08-27T18:58:43Z</time>
      </trkpt>
      <trkpt lat="48.14357" lon="-1.24946">
        <ele>52.6</ele>
        <time>2022-08-27T18:58:44Z</time>
      </trkpt>
      <trkpt lat="48.14347" lon="-1.24951">
        <ele>52.6</ele>
        <time>2022-08-27T18:58:47Z</time>
      </trkpt>
      <trkpt lat="48.14343" lon="-1.24964">
        <ele>52.6</ele>
        <time>2022-08-27T18:58:49Z</time>
      </trkpt>
      <trkpt lat="48.14343" lon="-1.24971">
        <ele>52.4</ele>
        <time>2022-08-27T18:58:50Z</time>
      </trkpt>
      <trkpt lat="48.14342" lon="-1.24978">
        <ele>52.4</ele>
        <time>2022-08-27T18:58:51Z</time>
      </trkpt>
      <trkpt lat="48.14337" lon="-1.2499">
        <ele>52.4</ele>
        <time>2022-08-27T18:58:53Z</time>
      </trkpt>
      <trkpt lat="48.14331" lon="-1.24999">
        <ele>52.4</ele>
        <time>2022-08-27T18:58:55Z</time>
      </trkpt>
      <trkpt lat="48.14322" lon="-1.25013">
        <ele>53</ele>
        <time>2022-08-27T18:58:58Z</time>
      </trkpt>
      <trkpt lat="48.14318" lon="-1.25024">
        <ele>52.8</ele>
        <time>2022-08-27T18:59:01Z</time>
      </trkpt>
      <trkpt lat="48.14318" lon="-1.25024">
        <ele>52.8</ele>
        <time>2022-08-27T18:59:02Z</time>
      </trkpt>
      <trkpt lat="48.14312" lon="-1.25041">
        <ele>58.8</ele>
        <time>2022-08-27T19:03:40Z</time>
      </trkpt>
      <trkpt lat="48.1431" lon="-1.25047">
        <ele>58.8</ele>
        <time>2022-08-27T19:03:42Z</time>
      </trkpt>
      <trkpt lat="48.14304" lon="-1.25067">
        <ele>58.8</ele>
        <time>2022-08-27T19:03:47Z</time>
      </trkpt>
      <trkpt lat="48.14302" lon="-1.2507">
        <ele>58.8</ele>
        <time>2022-08-27T19:03:48Z</time>
      </trkpt>
      <trkpt lat="48.14288" lon="-1.25082">
        <ele>59</ele>
        <time>2022-08-27T19:03:53Z</time>
      </trkpt>
      <trkpt lat="48.14279" lon="-1.25088">
        <ele>58.8</ele>
        <time>2022-08-27T19:03:56Z</time>
      </trkpt>
      <trkpt lat="48.14275" lon="-1.25093">
        <ele>59</ele>
        <time>2022-08-27T19:03:58Z</time>
      </trkpt>
      <trkpt lat="48.14273" lon="-1.25094">
        <ele>58.6</ele>
        <time>2022-08-27T19:04:00Z</time>
      </trkpt>
      <trkpt lat="48.14271" lon="-1.25098">
        <ele>58.6</ele>
        <time>2022-08-27T19:04:09Z</time>
      </trkpt>
      <trkpt lat="48.14264" lon="-1.25098">
        <ele>58.4</ele>
        <time>2022-08-27T19:04:12Z</time>
      </trkpt>
      <trkpt lat="48.14262" lon="-1.25096">
        <ele>58.4</ele>
        <time>2022-08-27T19:04:13Z</time>
      </trkpt>
      <trkpt lat="48.14254" lon="-1.25085">
        <ele>58.4</ele>
        <time>2022-08-27T19:04:17Z</time>
      </trkpt>
      <trkpt lat="48.14253" lon="-1.2508">
        <ele>58.4</ele>
        <time>2022-08-27T19:04:18Z</time>
      </trkpt>
      <trkpt lat="48.14251" lon="-1.25075">
        <ele>58.4</ele>
        <time>2022-08-27T19:04:19Z</time>
      </trkpt>
      <trkpt lat="48.14242" lon="-1.25048">
        <ele>58.2</ele>
        <time>2022-08-27T19:04:24Z</time>
      </trkpt>
      <trkpt lat="48.14235" lon="-1.25018">
        <ele>58.4</ele>
        <time>2022-08-27T19:04:29Z</time>
      </trkpt>
      <trkpt lat="48.14233" lon="-1.2501">
        <ele>58.4</ele>
        <time>2022-08-27T19:04:30Z</time>
      </trkpt>
      <trkpt lat="48.14223" lon="-1.24982">
        <ele>58.4</ele>
        <time>2022-08-27T19:04:34Z</time>
      </trkpt>
      <trkpt lat="48.14212" lon="-1.24949">
        <ele>58.6</ele>
        <time>2022-08-27T19:04:40Z</time>
      </trkpt>
      <trkpt lat="48.14207" lon="-1.24937">
        <ele>58.6</ele>
        <time>2022-08-27T19:04:42Z</time>
      </trkpt>
      <trkpt lat="48.14198" lon="-1.2491">
        <ele>58.6</ele>
        <time>2022-08-27T19:04:46Z</time>
      </trkpt>
      <trkpt lat="48.14177" lon="-1.24848">
        <ele>58.8</ele>
        <time>2022-08-27T19:04:55Z</time>
      </trkpt>
      <trkpt lat="48.1416" lon="-1.24798">
        <ele>58.8</ele>
        <time>2022-08-27T19:05:02Z</time>
      </trkpt>
      <trkpt lat="48.1415" lon="-1.24769">
        <ele>58.4</ele>
        <time>2022-08-27T19:05:06Z</time>
      </trkpt>
      <trkpt lat="48.14143" lon="-1.24743">
        <ele>58.4</ele>
        <time>2022-08-27T19:05:10Z</time>
      </trkpt>
      <trkpt lat="48.14135" lon="-1.24721">
        <ele>58.4</ele>
        <time>2022-08-27T19:05:14Z</time>
      </trkpt>
      <trkpt lat="48.14131" lon="-1.24709">
        <ele>58.6</ele>
        <time>2022-08-27T19:05:16Z</time>
      </trkpt>
      <trkpt lat="48.14122" lon="-1.24677">
        <ele>58.8</ele>
        <time>2022-08-27T19:05:21Z</time>
      </trkpt>
      <trkpt lat="48.14119" lon="-1.24671">
        <ele>58.8</ele>
        <time>2022-08-27T19:05:22Z</time>
      </trkpt>
      <trkpt lat="48.14103" lon="-1.24625">
        <ele>59.2</ele>
        <time>2022-08-27T19:05:29Z</time>
      </trkpt>
      <trkpt lat="48.1408" lon="-1.24568">
        <ele>59.6</ele>
        <time>2022-08-27T19:05:38Z</time>
      </trkpt>
      <trkpt lat="48.14055" lon="-1.24521">
        <ele>60.2</ele>
        <time>2022-08-27T19:05:46Z</time>
      </trkpt>
      <trkpt lat="48.14028" lon="-1.24476">
        <ele>60.6</ele>
        <time>2022-08-27T19:05:54Z</time>
      </trkpt>
      <trkpt lat="48.14005" lon="-1.24437">
        <ele>61</ele>
        <time>2022-08-27T19:06:01Z</time>
      </trkpt>
      <trkpt lat="48.13999" lon="-1.24426">
        <ele>61.2</ele>
        <time>2022-08-27T19:06:03Z</time>
      </trkpt>
      <trkpt lat="48.1399" lon="-1.24408">
        <ele>61.2</ele>
        <time>2022-08-27T19:06:06Z</time>
      </trkpt>
      <trkpt lat="48.13987" lon="-1.24402">
        <ele>61.4</ele>
        <time>2022-08-27T19:06:07Z</time>
      </trkpt>
      <trkpt lat="48.13978" lon="-1.24384">
        <ele>61.6</ele>
        <time>2022-08-27T19:06:10Z</time>
      </trkpt>
      <trkpt lat="48.13973" lon="-1.24371">
        <ele>61.6</ele>
        <time>2022-08-27T19:06:12Z</time>
      </trkpt>
      <trkpt lat="48.1396" lon="-1.2433">
        <ele>62</ele>
        <time>2022-08-27T19:06:18Z</time>
      </trkpt>
      <trkpt lat="48.13953" lon="-1.24318">
        <ele>62</ele>
        <time>2022-08-27T19:06:20Z</time>
      </trkpt>
      <trkpt lat="48.13948" lon="-1.24303">
        <ele>62.2</ele>
        <time>2022-08-27T19:06:22Z</time>
      </trkpt>
      <trkpt lat="48.13944" lon="-1.24288">
        <ele>62.4</ele>
        <time>2022-08-27T19:06:24Z</time>
      </trkpt>
      <trkpt lat="48.1394" lon="-1.24265">
        <ele>62.4</ele>
        <time>2022-08-27T19:06:27Z</time>
      </trkpt>
      <trkpt lat="48.13925" lon="-1.24222">
        <ele>62.6</ele>
        <time>2022-08-27T19:06:33Z</time>
      </trkpt>
      <trkpt lat="48.13906" lon="-1.2419">
        <ele>63</ele>
        <time>2022-08-27T19:06:39Z</time>
      </trkpt>
      <trkpt lat="48.13878" lon="-1.24135">
        <ele>63.6</ele>
        <time>2022-08-27T19:06:48Z</time>
      </trkpt>
      <trkpt lat="48.13851" lon="-1.24077">
        <ele>64.6</ele>
        <time>2022-08-27T19:06:57Z</time>
      </trkpt>
      <trkpt lat="48.13832" lon="-1.24039">
        <ele>65.4</ele>
        <time>2022-08-27T19:07:04Z</time>
      </trkpt>
      <trkpt lat="48.13808" lon="-1.23991">
        <ele>66.4</ele>
        <time>2022-08-27T19:07:13Z</time>
      </trkpt>
      <trkpt lat="48.13786" lon="-1.23948">
        <ele>67.2</ele>
        <time>2022-08-27T19:07:21Z</time>
      </trkpt>
      <trkpt lat="48.13773" lon="-1.23924">
        <ele>67.6</ele>
        <time>2022-08-27T19:07:26Z</time>
      </trkpt>
      <trkpt lat="48.1376" lon="-1.239">
        <ele>68</ele>
        <time>2022-08-27T19:07:31Z</time>
      </trkpt>
      <trkpt lat="48.13757" lon="-1.23895">
        <ele>68.2</ele>
        <time>2022-08-27T19:07:32Z</time>
      </trkpt>
      <trkpt lat="48.1375" lon="-1.23879">
        <ele>68.4</ele>
        <time>2022-08-27T19:07:35Z</time>
      </trkpt>
      <trkpt lat="48.13742" lon="-1.23865">
        <ele>68.4</ele>
        <time>2022-08-27T19:07:38Z</time>
      </trkpt>
      <trkpt lat="48.1374" lon="-1.2386">
        <ele>68.4</ele>
        <time>2022-08-27T19:07:39Z</time>
      </trkpt>
      <trkpt lat="48.13728" lon="-1.23841">
        <ele>68.2</ele>
        <time>2022-08-27T19:07:43Z</time>
      </trkpt>
      <trkpt lat="48.13725" lon="-1.23835">
        <ele>68.2</ele>
        <time>2022-08-27T19:07:44Z</time>
      </trkpt>
      <trkpt lat="48.13715" lon="-1.23814">
        <ele>68.2</ele>
        <time>2022-08-27T19:07:48Z</time>
      </trkpt>
      <trkpt lat="48.13704" lon="-1.23792">
        <ele>67.8</ele>
        <time>2022-08-27T19:07:52Z</time>
      </trkpt>
      <trkpt lat="48.13697" lon="-1.23783">
        <ele>67.2</ele>
        <time>2022-08-27T19:07:54Z</time>
      </trkpt>
      <trkpt lat="48.13687" lon="-1.23766">
        <ele>67.6</ele>
        <time>2022-08-27T19:07:57Z</time>
      </trkpt>
      <trkpt lat="48.13684" lon="-1.2376">
        <ele>67.2</ele>
        <time>2022-08-27T19:07:58Z</time>
      </trkpt>
      <trkpt lat="48.13669" lon="-1.23733">
        <ele>68.8</ele>
        <time>2022-08-27T19:08:03Z</time>
      </trkpt>
      <trkpt lat="48.13662" lon="-1.23717">
        <ele>68.4</ele>
        <time>2022-08-27T19:08:06Z</time>
      </trkpt>
      <trkpt lat="48.13655" lon="-1.23706">
        <ele>68.4</ele>
        <time>2022-08-27T19:08:08Z</time>
      </trkpt>
      <trkpt lat="48.13637" lon="-1.23673">
        <ele>69</ele>
        <time>2022-08-27T19:08:14Z</time>
      </trkpt>
      <trkpt lat="48.13634" lon="-1.23667">
        <ele>69</ele>
        <time>2022-08-27T19:08:15Z</time>
      </trkpt>
      <trkpt lat="48.13623" lon="-1.23639">
        <ele>69.2</ele>
        <time>2022-08-27T19:08:20Z</time>
      </trkpt>
      <trkpt lat="48.13611" lon="-1.23603">
        <ele>69.6</ele>
        <time>2022-08-27T19:08:25Z</time>
      </trkpt>
      <trkpt lat="48.13608" lon="-1.23597">
        <ele>69.8</ele>
        <time>2022-08-27T19:08:26Z</time>
      </trkpt>
      <trkpt lat="48.13605" lon="-1.23591">
        <ele>70</ele>
        <time>2022-08-27T19:08:27Z</time>
      </trkpt>
      <trkpt lat="48.13593" lon="-1.2357">
        <ele>70.4</ele>
        <time>2022-08-27T19:08:31Z</time>
      </trkpt>
      <trkpt lat="48.13586" lon="-1.23562">
        <ele>70.6</ele>
        <time>2022-08-27T19:08:33Z</time>
      </trkpt>
      <trkpt lat="48.13579" lon="-1.23546">
        <ele>71</ele>
        <time>2022-08-27T19:08:36Z</time>
      </trkpt>
      <trkpt lat="48.13563" lon="-1.23505">
        <ele>72</ele>
        <time>2022-08-27T19:08:43Z</time>
      </trkpt>
      <trkpt lat="48.13547" lon="-1.23459">
        <ele>73</ele>
        <time>2022-08-27T19:08:50Z</time>
      </trkpt>
      <trkpt lat="48.13545" lon="-1.23453">
        <ele>73.2</ele>
        <time>2022-08-27T19:08:51Z</time>
      </trkpt>
      <trkpt lat="48.13539" lon="-1.2343">
        <ele>73.8</ele>
        <time>2022-08-27T19:08:55Z</time>
      </trkpt>
      <trkpt lat="48.13534" lon="-1.23396">
        <ele>74.4</ele>
        <time>2022-08-27T19:09:01Z</time>
      </trkpt>
      <trkpt lat="48.13532" lon="-1.2339">
        <ele>74.4</ele>
        <time>2022-08-27T19:09:02Z</time>
      </trkpt>
      <trkpt lat="48.13526" lon="-1.23368">
        <ele>75</ele>
        <time>2022-08-27T19:09:06Z</time>
      </trkpt>
      <trkpt lat="48.13524" lon="-1.23362">
        <ele>75</ele>
        <time>2022-08-27T19:09:07Z</time>
      </trkpt>
      <trkpt lat="48.13521" lon="-1.23345">
        <ele>75.4</ele>
        <time>2022-08-27T19:09:10Z</time>
      </trkpt>
      <trkpt lat="48.13518" lon="-1.2334">
        <ele>75.6</ele>
        <time>2022-08-27T19:09:11Z</time>
      </trkpt>
      <trkpt lat="48.13515" lon="-1.23334">
        <ele>75.6</ele>
        <time>2022-08-27T19:09:12Z</time>
      </trkpt>
      <trkpt lat="48.13509" lon="-1.23314">
        <ele>76</ele>
        <time>2022-08-27T19:09:15Z</time>
      </trkpt>
      <trkpt lat="48.13502" lon="-1.23295">
        <ele>76.4</ele>
        <time>2022-08-27T19:09:18Z</time>
      </trkpt>
      <trkpt lat="48.13497" lon="-1.23276">
        <ele>76.8</ele>
        <time>2022-08-27T19:09:21Z</time>
      </trkpt>
      <trkpt lat="48.13483" lon="-1.23221">
        <ele>78</ele>
        <time>2022-08-27T19:09:30Z</time>
      </trkpt>
      <trkpt lat="48.1347" lon="-1.23181">
        <ele>79</ele>
        <time>2022-08-27T19:09:37Z</time>
      </trkpt>
      <trkpt lat="48.13468" lon="-1.23175">
        <ele>79.2</ele>
        <time>2022-08-27T19:09:38Z</time>
      </trkpt>
      <trkpt lat="48.13453" lon="-1.23119">
        <ele>80.8</ele>
        <time>2022-08-27T19:09:48Z</time>
      </trkpt>
      <trkpt lat="48.13438" lon="-1.23066">
        <ele>82</ele>
        <time>2022-08-27T19:09:57Z</time>
      </trkpt>
      <trkpt lat="48.13424" lon="-1.23019">
        <ele>82.8</ele>
        <time>2022-08-27T19:10:04Z</time>
      </trkpt>
      <trkpt lat="48.13414" lon="-1.22997">
        <ele>83.2</ele>
        <time>2022-08-27T19:10:08Z</time>
      </trkpt>
      <trkpt lat="48.13408" lon="-1.22988">
        <ele>83.4</ele>
        <time>2022-08-27T19:10:10Z</time>
      </trkpt>
      <trkpt lat="48.13398" lon="-1.22962">
        <ele>84</ele>
        <time>2022-08-27T19:10:15Z</time>
      </trkpt>
      <trkpt lat="48.13381" lon="-1.22917">
        <ele>85</ele>
        <time>2022-08-27T19:10:23Z</time>
      </trkpt>
      <trkpt lat="48.13359" lon="-1.22868">
        <ele>86</ele>
        <time>2022-08-27T19:10:32Z</time>
      </trkpt>
      <trkpt lat="48.13348" lon="-1.22841">
        <ele>86.6</ele>
        <time>2022-08-27T19:10:37Z</time>
      </trkpt>
      <trkpt lat="48.13341" lon="-1.22825">
        <ele>87</ele>
        <time>2022-08-27T19:10:40Z</time>
      </trkpt>
      <trkpt lat="48.13319" lon="-1.22777">
        <ele>88.2</ele>
        <time>2022-08-27T19:10:49Z</time>
      </trkpt>
      <trkpt lat="48.13302" lon="-1.22738">
        <ele>89</ele>
        <time>2022-08-27T19:10:56Z</time>
      </trkpt>
      <trkpt lat="48.13286" lon="-1.22705">
        <ele>90</ele>
        <time>2022-08-27T19:11:03Z</time>
      </trkpt>
      <trkpt lat="48.13269" lon="-1.22671">
        <ele>90.8</ele>
        <time>2022-08-27T19:11:10Z</time>
      </trkpt>
      <trkpt lat="48.13259" lon="-1.22659">
        <ele>91.2</ele>
        <time>2022-08-27T19:11:14Z</time>
      </trkpt>
      <trkpt lat="48.13247" lon="-1.22657">
        <ele>91.8</ele>
        <time>2022-08-27T19:11:19Z</time>
      </trkpt>
      <trkpt lat="48.13244" lon="-1.22657">
        <ele>91.8</ele>
        <time>2022-08-27T19:11:20Z</time>
      </trkpt>
      <trkpt lat="48.13238" lon="-1.22653">
        <ele>92</ele>
        <time>2022-08-27T19:11:22Z</time>
      </trkpt>
      <trkpt lat="48.13236" lon="-1.2265">
        <ele>92</ele>
        <time>2022-08-27T19:11:23Z</time>
      </trkpt>
      <trkpt lat="48.13234" lon="-1.22649">
        <ele>92.2</ele>
        <time>2022-08-27T19:11:24Z</time>
      </trkpt>
      <trkpt lat="48.13226" lon="-1.22645">
        <ele>92.4</ele>
        <time>2022-08-27T19:11:27Z</time>
      </trkpt>
      <trkpt lat="48.13224" lon="-1.22642">
        <ele>92.4</ele>
        <time>2022-08-27T19:11:28Z</time>
      </trkpt>
      <trkpt lat="48.1322" lon="-1.22631">
        <ele>92.4</ele>
        <time>2022-08-27T19:11:31Z</time>
      </trkpt>
      <trkpt lat="48.13211" lon="-1.2261">
        <ele>92.6</ele>
        <time>2022-08-27T19:11:35Z</time>
      </trkpt>
      <trkpt lat="48.13211" lon="-1.22604">
        <ele>92.8</ele>
        <time>2022-08-27T19:11:36Z</time>
      </trkpt>
      <trkpt lat="48.13207" lon="-1.22585">
        <ele>93.2</ele>
        <time>2022-08-27T19:11:39Z</time>
      </trkpt>
      <trkpt lat="48.13198" lon="-1.22555">
        <ele>94.2</ele>
        <time>2022-08-27T19:11:45Z</time>
      </trkpt>
      <trkpt lat="48.13192" lon="-1.22531">
        <ele>94.6</ele>
        <time>2022-08-27T19:11:50Z</time>
      </trkpt>
      <trkpt lat="48.13182" lon="-1.22501">
        <ele>95.2</ele>
        <time>2022-08-27T19:11:56Z</time>
      </trkpt>
      <trkpt lat="48.13176" lon="-1.22472">
        <ele>96</ele>
        <time>2022-08-27T19:12:01Z</time>
      </trkpt>
      <trkpt lat="48.13173" lon="-1.22461">
        <ele>96.2</ele>
        <time>2022-08-27T19:12:03Z</time>
      </trkpt>
      <trkpt lat="48.13169" lon="-1.22449">
        <ele>96.4</ele>
        <time>2022-08-27T19:12:05Z</time>
      </trkpt>
      <trkpt lat="48.13163" lon="-1.22428">
        <ele>96.8</ele>
        <time>2022-08-27T19:12:09Z</time>
      </trkpt>
      <trkpt lat="48.13159" lon="-1.2241">
        <ele>97.2</ele>
        <time>2022-08-27T19:12:12Z</time>
      </trkpt>
      <trkpt lat="48.13157" lon="-1.22398">
        <ele>97.4</ele>
        <time>2022-08-27T19:12:14Z</time>
      </trkpt>
      <trkpt lat="48.13154" lon="-1.22386">
        <ele>97.6</ele>
        <time>2022-08-27T19:12:16Z</time>
      </trkpt>
      <trkpt lat="48.1315" lon="-1.22374">
        <ele>97.8</ele>
        <time>2022-08-27T19:12:18Z</time>
      </trkpt>
      <trkpt lat="48.13145" lon="-1.22355">
        <ele>98.4</ele>
        <time>2022-08-27T19:12:21Z</time>
      </trkpt>
      <trkpt lat="48.1314" lon="-1.22336">
        <ele>98.6</ele>
        <time>2022-08-27T19:12:24Z</time>
      </trkpt>
      <trkpt lat="48.13136" lon="-1.22318">
        <ele>99</ele>
        <time>2022-08-27T19:12:27Z</time>
      </trkpt>
      <trkpt lat="48.1313" lon="-1.22298">
        <ele>99.2</ele>
        <time>2022-08-27T19:12:30Z</time>
      </trkpt>
      <trkpt lat="48.13129" lon="-1.22284">
        <ele>99.6</ele>
        <time>2022-08-27T19:12:32Z</time>
      </trkpt>
      <trkpt lat="48.13125" lon="-1.22264">
        <ele>99.8</ele>
        <time>2022-08-27T19:12:35Z</time>
      </trkpt>
      <trkpt lat="48.1312" lon="-1.22237">
        <ele>100.4</ele>
        <time>2022-08-27T19:12:39Z</time>
      </trkpt>
      <trkpt lat="48.13118" lon="-1.22221">
        <ele>100.4</ele>
        <time>2022-08-27T19:12:41Z</time>
      </trkpt>
      <trkpt lat="48.13108" lon="-1.22167">
        <ele>101.2</ele>
        <time>2022-08-27T19:12:48Z</time>
      </trkpt>
      <trkpt lat="48.13093" lon="-1.22092">
        <ele>102</ele>
        <time>2022-08-27T19:12:57Z</time>
      </trkpt>
      <trkpt lat="48.13081" lon="-1.22023">
        <ele>102.6</ele>
        <time>2022-08-27T19:13:05Z</time>
      </trkpt>
      <trkpt lat="48.13079" lon="-1.22014">
        <ele>102.6</ele>
        <time>2022-08-27T19:13:06Z</time>
      </trkpt>
      <trkpt lat="48.13074" lon="-1.21996">
        <ele>102.6</ele>
        <time>2022-08-27T19:13:08Z</time>
      </trkpt>
      <trkpt lat="48.1307" lon="-1.21978">
        <ele>102.8</ele>
        <time>2022-08-27T19:13:10Z</time>
      </trkpt>
      <trkpt lat="48.13054" lon="-1.219">
        <ele>103</ele>
        <time>2022-08-27T19:13:18Z</time>
      </trkpt>
      <trkpt lat="48.13052" lon="-1.2189">
        <ele>103.2</ele>
        <time>2022-08-27T19:13:19Z</time>
      </trkpt>
      <trkpt lat="48.13041" lon="-1.21835">
        <ele>103.2</ele>
        <time>2022-08-27T19:13:25Z</time>
      </trkpt>
      <trkpt lat="48.13028" lon="-1.21772">
        <ele>103.2</ele>
        <time>2022-08-27T19:13:32Z</time>
      </trkpt>
      <trkpt lat="48.13023" lon="-1.21753">
        <ele>103</ele>
        <time>2022-08-27T19:13:34Z</time>
      </trkpt>
      <trkpt lat="48.13018" lon="-1.21726">
        <ele>102.8</ele>
        <time>2022-08-27T19:13:37Z</time>
      </trkpt>
      <trkpt lat="48.13002" lon="-1.2164">
        <ele>102.4</ele>
        <time>2022-08-27T19:13:46Z</time>
      </trkpt>
      <trkpt lat="48.12989" lon="-1.21563">
        <ele>101.8</ele>
        <time>2022-08-27T19:13:54Z</time>
      </trkpt>
      <trkpt lat="48.12978" lon="-1.21512">
        <ele>101.4</ele>
        <time>2022-08-27T19:14:00Z</time>
      </trkpt>
      <trkpt lat="48.12974" lon="-1.21494">
        <ele>101.2</ele>
        <time>2022-08-27T19:14:02Z</time>
      </trkpt>
      <trkpt lat="48.12968" lon="-1.21474">
        <ele>101</ele>
        <time>2022-08-27T19:14:05Z</time>
      </trkpt>
      <trkpt lat="48.1296" lon="-1.21472">
        <ele>100.8</ele>
        <time>2022-08-27T19:14:07Z</time>
      </trkpt>
      <trkpt lat="48.12955" lon="-1.21475">
        <ele>100.6</ele>
        <time>2022-08-27T19:14:08Z</time>
      </trkpt>
      <trkpt lat="48.12941" lon="-1.21488">
        <ele>100.4</ele>
        <time>2022-08-27T19:14:11Z</time>
      </trkpt>
      <trkpt lat="48.12915" lon="-1.2151">
        <ele>99.8</ele>
        <time>2022-08-27T19:14:15Z</time>
      </trkpt>
      <trkpt lat="48.12898" lon="-1.21525">
        <ele>99.4</ele>
        <time>2022-08-27T19:14:18Z</time>
      </trkpt>
      <trkpt lat="48.12868" lon="-1.21548">
        <ele>98.2</ele>
        <time>2022-08-27T19:14:22Z</time>
      </trkpt>
      <trkpt lat="48.12842" lon="-1.21571">
        <ele>97.2</ele>
        <time>2022-08-27T19:14:26Z</time>
      </trkpt>
      <trkpt lat="48.12835" lon="-1.21575">
        <ele>96.8</ele>
        <time>2022-08-27T19:14:27Z</time>
      </trkpt>
      <trkpt lat="48.12814" lon="-1.21587">
        <ele>96</ele>
        <time>2022-08-27T19:14:30Z</time>
      </trkpt>
      <trkpt lat="48.12806" lon="-1.2159">
        <ele>95.8</ele>
        <time>2022-08-27T19:14:31Z</time>
      </trkpt>
      <trkpt lat="48.12784" lon="-1.21596">
        <ele>95</ele>
        <time>2022-08-27T19:14:34Z</time>
      </trkpt>
      <trkpt lat="48.12754" lon="-1.21605">
        <ele>93.6</ele>
        <time>2022-08-27T19:14:39Z</time>
      </trkpt>
      <trkpt lat="48.12747" lon="-1.21607">
        <ele>93.2</ele>
        <time>2022-08-27T19:14:40Z</time>
      </trkpt>
      <trkpt lat="48.12721" lon="-1.21614">
        <ele>92</ele>
        <time>2022-08-27T19:14:44Z</time>
      </trkpt>
      <trkpt lat="48.12708" lon="-1.2162">
        <ele>90.8</ele>
        <time>2022-08-27T19:14:48Z</time>
      </trkpt>
      <trkpt lat="48.12695" lon="-1.21632">
        <ele>89.4</ele>
        <time>2022-08-27T19:14:52Z</time>
      </trkpt>
      <trkpt lat="48.12687" lon="-1.21632">
        <ele>88.8</ele>
        <time>2022-08-27T19:14:54Z</time>
      </trkpt>
      <trkpt lat="48.12682" lon="-1.2163">
        <ele>88.4</ele>
        <time>2022-08-27T19:14:55Z</time>
      </trkpt>
      <trkpt lat="48.12656" lon="-1.21615">
        <ele>86.2</ele>
        <time>2022-08-27T19:15:00Z</time>
      </trkpt>
      <trkpt lat="48.12643" lon="-1.21606">
        <ele>84.2</ele>
        <time>2022-08-27T19:15:04Z</time>
      </trkpt>
      <trkpt lat="48.12641" lon="-1.21606">
        <ele>84</ele>
        <time>2022-08-27T19:15:05Z</time>
      </trkpt>
      <trkpt lat="48.12639" lon="-1.21609">
        <ele>83.4</ele>
        <time>2022-08-27T19:15:06Z</time>
      </trkpt>
      <trkpt lat="48.12631" lon="-1.21627">
        <ele>82</ele>
        <time>2022-08-27T19:15:10Z</time>
      </trkpt>
      <trkpt lat="48.12628" lon="-1.21631">
        <ele>81.6</ele>
        <time>2022-08-27T19:15:11Z</time>
      </trkpt>
      <trkpt lat="48.12623" lon="-1.21633">
        <ele>81.2</ele>
        <time>2022-08-27T19:15:12Z</time>
      </trkpt>
      <trkpt lat="48.12613" lon="-1.21633">
        <ele>80.8</ele>
        <time>2022-08-27T19:15:14Z</time>
      </trkpt>
      <trkpt lat="48.12604" lon="-1.21627">
        <ele>80.4</ele>
        <time>2022-08-27T19:15:16Z</time>
      </trkpt>
      <trkpt lat="48.12597" lon="-1.21617">
        <ele>79.8</ele>
        <time>2022-08-27T19:15:18Z</time>
      </trkpt>
      <trkpt lat="48.12593" lon="-1.21612">
        <ele>79.6</ele>
        <time>2022-08-27T19:15:19Z</time>
      </trkpt>
      <trkpt lat="48.12585" lon="-1.21606">
        <ele>79</ele>
        <time>2022-08-27T19:15:21Z</time>
      </trkpt>
      <trkpt lat="48.12574" lon="-1.21601">
        <ele>78.6</ele>
        <time>2022-08-27T19:15:23Z</time>
      </trkpt>
      <trkpt lat="48.12564" lon="-1.21599">
        <ele>78</ele>
        <time>2022-08-27T19:15:25Z</time>
      </trkpt>
      <trkpt lat="48.12558" lon="-1.21599">
        <ele>77.6</ele>
        <time>2022-08-27T19:15:26Z</time>
      </trkpt>
      <trkpt lat="48.12535" lon="-1.21601">
        <ele>76.2</ele>
        <time>2022-08-27T19:15:30Z</time>
      </trkpt>
      <trkpt lat="48.12505" lon="-1.21606">
        <ele>73.8</ele>
        <time>2022-08-27T19:15:36Z</time>
      </trkpt>
      <trkpt lat="48.125" lon="-1.21607">
        <ele>73.4</ele>
        <time>2022-08-27T19:15:37Z</time>
      </trkpt>
      <trkpt lat="48.12494" lon="-1.21616">
        <ele>72.6</ele>
        <time>2022-08-27T19:15:39Z</time>
      </trkpt>
      <trkpt lat="48.1248" lon="-1.21635">
        <ele>72</ele>
        <time>2022-08-27T19:15:44Z</time>
      </trkpt>
      <trkpt lat="48.12469" lon="-1.21658">
        <ele>71.2</ele>
        <time>2022-08-27T19:15:49Z</time>
      </trkpt>
      <trkpt lat="48.12464" lon="-1.21663">
        <ele>71</ele>
        <time>2022-08-27T19:15:51Z</time>
      </trkpt>
      <trkpt lat="48.12456" lon="-1.21662">
        <ele>70.8</ele>
        <time>2022-08-27T19:15:53Z</time>
      </trkpt>
      <trkpt lat="48.12439" lon="-1.21657">
        <ele>70.6</ele>
        <time>2022-08-27T19:15:59Z</time>
      </trkpt>
      <trkpt lat="48.12429" lon="-1.21655">
        <ele>71</ele>
        <time>2022-08-27T19:16:04Z</time>
      </trkpt>
      <trkpt lat="48.12428" lon="-1.21655">
        <ele>71</ele>
        <time>2022-08-27T19:16:05Z</time>
      </trkpt>
      <trkpt lat="48.12421" lon="-1.21652">
        <ele>71</ele>
        <time>2022-08-27T19:16:15Z</time>
      </trkpt>
      <trkpt lat="48.12417" lon="-1.21651">
        <ele>71.6</ele>
        <time>2022-08-27T19:16:17Z</time>
      </trkpt>
      <trkpt lat="48.12404" lon="-1.21648">
        <ele>71.4</ele>
        <time>2022-08-27T19:16:21Z</time>
      </trkpt>
      <trkpt lat="48.12391" lon="-1.21642">
        <ele>71.4</ele>
        <time>2022-08-27T19:16:25Z</time>
      </trkpt>
      <trkpt lat="48.12384" lon="-1.21625">
        <ele>71.4</ele>
        <time>2022-08-27T19:16:29Z</time>
      </trkpt>
      <trkpt lat="48.12366" lon="-1.21591">
        <ele>71.2</ele>
        <time>2022-08-27T19:16:37Z</time>
      </trkpt>
      <trkpt lat="48.12359" lon="-1.2157">
        <ele>71.4</ele>
        <time>2022-08-27T19:16:42Z</time>
      </trkpt>
      <trkpt lat="48.12345" lon="-1.21542">
        <ele>71.8</ele>
        <time>2022-08-27T19:16:49Z</time>
      </trkpt>
      <trkpt lat="48.12334" lon="-1.21507">
        <ele>72</ele>
        <time>2022-08-27T19:16:58Z</time>
      </trkpt>
      <trkpt lat="48.12334" lon="-1.21501">
        <ele>72.4</ele>
        <time>2022-08-27T19:17:00Z</time>
      </trkpt>
      <trkpt lat="48.12335" lon="-1.215">
        <ele>72.4</ele>
        <time>2022-08-27T19:17:01Z</time>
      </trkpt>
      <trkpt lat="48.12338" lon="-1.21498">
        <ele>72.6</ele>
        <time>2022-08-27T19:17:04Z</time>
      </trkpt>
      <trkpt lat="48.12339" lon="-1.21495">
        <ele>72.6</ele>
        <time>2022-08-27T19:17:05Z</time>
      </trkpt>
      <trkpt lat="48.1234" lon="-1.21494">
        <ele>72.8</ele>
        <time>2022-08-27T19:17:07Z</time>
      </trkpt>
      <trkpt lat="48.12339" lon="-1.21499">
        <ele>80.6</ele>
        <time>2022-08-27T19:34:40Z</time>
      </trkpt>
      <trkpt lat="48.12338" lon="-1.215">
        <ele>80.6</ele>
        <time>2022-08-27T19:34:41Z</time>
      </trkpt>
      <trkpt lat="48.12331" lon="-1.21506">
        <ele>83.2</ele>
        <time>2022-08-27T19:36:57Z</time>
      </trkpt>
      <trkpt lat="48.12328" lon="-1.21505">
        <ele>83.4</ele>
        <time>2022-08-27T19:36:58Z</time>
      </trkpt>
      <trkpt lat="48.12325" lon="-1.21491">
        <ele>83.4</ele>
        <time>2022-08-27T19:37:01Z</time>
      </trkpt>
      <trkpt lat="48.12318" lon="-1.2146">
        <ele>83.2</ele>
        <time>2022-08-27T19:37:07Z</time>
      </trkpt>
      <trkpt lat="48.12312" lon="-1.21433">
        <ele>82.8</ele>
        <time>2022-08-27T19:37:13Z</time>
      </trkpt>
      <trkpt lat="48.12308" lon="-1.21402">
        <ele>82.2</ele>
        <time>2022-08-27T19:37:20Z</time>
      </trkpt>
      <trkpt lat="48.12307" lon="-1.21399">
        <ele>82</ele>
        <time>2022-08-27T19:37:21Z</time>
      </trkpt>
      <trkpt lat="48.12304" lon="-1.214">
        <ele>82</ele>
        <time>2022-08-27T19:37:23Z</time>
      </trkpt>
      <trkpt lat="48.123" lon="-1.21403">
        <ele>82</ele>
        <time>2022-08-27T19:37:26Z</time>
      </trkpt>
      <trkpt lat="48.12299" lon="-1.21405">
        <ele>82</ele>
        <time>2022-08-27T19:37:27Z</time>
      </trkpt>
      <trkpt lat="48.12297" lon="-1.21409">
        <ele>81.8</ele>
        <time>2022-08-27T19:37:29Z</time>
      </trkpt>
      <trkpt lat="48.12298" lon="-1.21418">
        <ele>81.6</ele>
        <time>2022-08-27T19:37:31Z</time>
      </trkpt>
      <trkpt lat="48.12298" lon="-1.21438">
        <ele>80.8</ele>
        <time>2022-08-27T19:37:36Z</time>
      </trkpt>
      <trkpt lat="48.12298" lon="-1.21458">
        <ele>80</ele>
        <time>2022-08-27T19:37:41Z</time>
      </trkpt>
      <trkpt lat="48.12301" lon="-1.21479">
        <ele>79.4</ele>
        <time>2022-08-27T19:37:45Z</time>
      </trkpt>
      <trkpt lat="48.12305" lon="-1.21503">
        <ele>78.8</ele>
        <time>2022-08-27T19:37:49Z</time>
      </trkpt>
      <trkpt lat="48.12309" lon="-1.21522">
        <ele>78.2</ele>
        <time>2022-08-27T19:37:53Z</time>
      </trkpt>
      <trkpt lat="48.12321" lon="-1.21548">
        <ele>77.2</ele>
        <time>2022-08-27T19:37:59Z</time>
      </trkpt>
      <trkpt lat="48.12328" lon="-1.21575">
        <ele>77</ele>
        <time>2022-08-27T19:38:03Z</time>
      </trkpt>
      <trkpt lat="48.1233" lon="-1.21583">
        <ele>77</ele>
        <time>2022-08-27T19:38:04Z</time>
      </trkpt>
      <trkpt lat="48.12334" lon="-1.21599">
        <ele>77</ele>
        <time>2022-08-27T19:38:06Z</time>
      </trkpt>
      <trkpt lat="48.12334" lon="-1.21607">
        <ele>77</ele>
        <time>2022-08-27T19:38:07Z</time>
      </trkpt>
      <trkpt lat="48.12334" lon="-1.21637">
        <ele>76.6</ele>
        <time>2022-08-27T19:38:12Z</time>
      </trkpt>
      <trkpt lat="48.12334" lon="-1.21654">
        <ele>76.6</ele>
        <time>2022-08-27T19:38:16Z</time>
      </trkpt>
      <trkpt lat="48.1232" lon="-1.21664">
        <ele>76.8</ele>
        <time>2022-08-27T19:38:20Z</time>
      </trkpt>
      <trkpt lat="48.12301" lon="-1.2167">
        <ele>78</ele>
        <time>2022-08-27T19:38:26Z</time>
      </trkpt>
      <trkpt lat="48.1228" lon="-1.21675">
        <ele>79.6</ele>
        <time>2022-08-27T19:38:33Z</time>
      </trkpt>
      <trkpt lat="48.12265" lon="-1.21678">
        <ele>80.6</ele>
        <time>2022-08-27T19:38:38Z</time>
      </trkpt>
      <trkpt lat="48.1225" lon="-1.21681">
        <ele>82</ele>
        <time>2022-08-27T19:38:44Z</time>
      </trkpt>
      <trkpt lat="48.12237" lon="-1.21684">
        <ele>82.8</ele>
        <time>2022-08-27T19:38:49Z</time>
      </trkpt>
      <trkpt lat="48.12217" lon="-1.2169">
        <ele>84.4</ele>
        <time>2022-08-27T19:38:57Z</time>
      </trkpt>
      <trkpt lat="48.12196" lon="-1.21694">
        <ele>86</ele>
        <time>2022-08-27T19:39:05Z</time>
      </trkpt>
      <trkpt lat="48.12175" lon="-1.21699">
        <ele>87.6</ele>
        <time>2022-08-27T19:39:13Z</time>
      </trkpt>
      <trkpt lat="48.12173" lon="-1.21701">
        <ele>87.8</ele>
        <time>2022-08-27T19:39:14Z</time>
      </trkpt>
      <trkpt lat="48.12168" lon="-1.21704">
        <ele>88</ele>
        <time>2022-08-27T19:39:16Z</time>
      </trkpt>
      <trkpt lat="48.12153" lon="-1.21707">
        <ele>88.8</ele>
        <time>2022-08-27T19:39:22Z</time>
      </trkpt>
      <trkpt lat="48.12135" lon="-1.21704">
        <ele>90</ele>
        <time>2022-08-27T19:39:29Z</time>
      </trkpt>
      <trkpt lat="48.12111" lon="-1.217">
        <ele>91.6</ele>
        <time>2022-08-27T19:39:37Z</time>
      </trkpt>
      <trkpt lat="48.12094" lon="-1.21698">
        <ele>92.6</ele>
        <time>2022-08-27T19:39:43Z</time>
      </trkpt>
      <trkpt lat="48.12078" lon="-1.21696">
        <ele>93.6</ele>
        <time>2022-08-27T19:39:48Z</time>
      </trkpt>
      <trkpt lat="48.12066" lon="-1.21697">
        <ele>94.2</ele>
        <time>2022-08-27T19:39:52Z</time>
      </trkpt>
      <trkpt lat="48.12063" lon="-1.21697">
        <ele>94.4</ele>
        <time>2022-08-27T19:39:53Z</time>
      </trkpt>
      <trkpt lat="48.12047" lon="-1.21695">
        <ele>95</ele>
        <time>2022-08-27T19:39:57Z</time>
      </trkpt>
      <trkpt lat="48.12044" lon="-1.21697">
        <ele>95.2</ele>
        <time>2022-08-27T19:39:58Z</time>
      </trkpt>
      <trkpt lat="48.12041" lon="-1.21702">
        <ele>95.2</ele>
        <time>2022-08-27T19:39:59Z</time>
      </trkpt>
      <trkpt lat="48.12041" lon="-1.21714">
        <ele>95.4</ele>
        <time>2022-08-27T19:40:01Z</time>
      </trkpt>
      <trkpt lat="48.12046" lon="-1.21758">
        <ele>96.2</ele>
        <time>2022-08-27T19:40:09Z</time>
      </trkpt>
      <trkpt lat="48.1205" lon="-1.21787">
        <ele>96.8</ele>
        <time>2022-08-27T19:40:14Z</time>
      </trkpt>
      <trkpt lat="48.12052" lon="-1.21805">
        <ele>97</ele>
        <time>2022-08-27T19:40:17Z</time>
      </trkpt>
      <trkpt lat="48.12054" lon="-1.21818">
        <ele>97.2</ele>
        <time>2022-08-27T19:40:19Z</time>
      </trkpt>
      <trkpt lat="48.12059" lon="-1.21844">
        <ele>97.8</ele>
        <time>2022-08-27T19:40:23Z</time>
      </trkpt>
      <trkpt lat="48.12061" lon="-1.21857">
        <ele>98</ele>
        <time>2022-08-27T19:40:25Z</time>
      </trkpt>
      <trkpt lat="48.12066" lon="-1.21873">
        <ele>98.2</ele>
        <time>2022-08-27T19:40:28Z</time>
      </trkpt>
      <trkpt lat="48.12066" lon="-1.2188">
        <ele>98.4</ele>
        <time>2022-08-27T19:40:30Z</time>
      </trkpt>
      <trkpt lat="48.12064" lon="-1.21879">
        <ele>98.6</ele>
        <time>2022-08-27T19:40:32Z</time>
      </trkpt>
      <trkpt lat="48.12062" lon="-1.21862">
        <ele>99</ele>
        <time>2022-08-27T19:40:37Z</time>
      </trkpt>
      <trkpt lat="48.12057" lon="-1.21845">
        <ele>99.6</ele>
        <time>2022-08-27T19:40:43Z</time>
      </trkpt>
      <trkpt lat="48.12058" lon="-1.21839">
        <ele>99.8</ele>
        <time>2022-08-27T19:40:47Z</time>
      </trkpt>
      <trkpt lat="48.12058" lon="-1.2184">
        <ele>99.8</ele>
        <time>2022-08-27T19:40:48Z</time>
      </trkpt>
      <trkpt lat="48.12058" lon="-1.21842">
        <ele>99.8</ele>
        <time>2022-08-27T19:40:50Z</time>
      </trkpt>
      <trkpt lat="48.12056" lon="-1.21837">
        <ele>100</ele>
        <time>2022-08-27T19:40:54Z</time>
      </trkpt>
      <trkpt lat="48.12055" lon="-1.21834">
        <ele>100.2</ele>
        <time>2022-08-27T19:40:55Z</time>
      </trkpt>
      <trkpt lat="48.12052" lon="-1.2181">
        <ele>100.6</ele>
        <time>2022-08-27T19:41:00Z</time>
      </trkpt>
      <trkpt lat="48.12049" lon="-1.21784">
        <ele>100.8</ele>
        <time>2022-08-27T19:41:05Z</time>
      </trkpt>
      <trkpt lat="48.12044" lon="-1.21748">
        <ele>101.2</ele>
        <time>2022-08-27T19:41:11Z</time>
      </trkpt>
      <trkpt lat="48.12043" lon="-1.21742">
        <ele>101.4</ele>
        <time>2022-08-27T19:41:12Z</time>
      </trkpt>
      <trkpt lat="48.12037" lon="-1.21703">
        <ele>101.6</ele>
        <time>2022-08-27T19:41:19Z</time>
      </trkpt>
      <trkpt lat="48.12036" lon="-1.21699">
        <ele>101.6</ele>
        <time>2022-08-27T19:41:20Z</time>
      </trkpt>
      <trkpt lat="48.12032" lon="-1.21696">
        <ele>101.8</ele>
        <time>2022-08-27T19:41:22Z</time>
      </trkpt>
      <trkpt lat="48.12024" lon="-1.2171">
        <ele>102.2</ele>
        <time>2022-08-27T19:41:26Z</time>
      </trkpt>
      <trkpt lat="48.12022" lon="-1.21717">
        <ele>102.4</ele>
        <time>2022-08-27T19:41:28Z</time>
      </trkpt>
      <trkpt lat="48.12023" lon="-1.21724">
        <ele>102.4</ele>
        <time>2022-08-27T19:41:30Z</time>
      </trkpt>
      <trkpt lat="48.12025" lon="-1.21759">
        <ele>102.6</ele>
        <time>2022-08-27T19:41:37Z</time>
      </trkpt>
      <trkpt lat="48.12027" lon="-1.21797">
        <ele>102.8</ele>
        <time>2022-08-27T19:41:44Z</time>
      </trkpt>
      <trkpt lat="48.12026" lon="-1.21835">
        <ele>103.2</ele>
        <time>2022-08-27T19:41:51Z</time>
      </trkpt>
      <trkpt lat="48.12025" lon="-1.21847">
        <ele>103.4</ele>
        <time>2022-08-27T19:41:53Z</time>
      </trkpt>
      <trkpt lat="48.12016" lon="-1.21875">
        <ele>103.6</ele>
        <time>2022-08-27T19:41:58Z</time>
      </trkpt>
      <trkpt lat="48.12013" lon="-1.21888">
        <ele>103.8</ele>
        <time>2022-08-27T19:42:00Z</time>
      </trkpt>
      <trkpt lat="48.12007" lon="-1.21908">
        <ele>104</ele>
        <time>2022-08-27T19:42:03Z</time>
      </trkpt>
      <trkpt lat="48.12" lon="-1.21929">
        <ele>104</ele>
        <time>2022-08-27T19:42:06Z</time>
      </trkpt>
      <trkpt lat="48.11993" lon="-1.21942">
        <ele>104</ele>
        <time>2022-08-27T19:42:08Z</time>
      </trkpt>
      <trkpt lat="48.11981" lon="-1.21949">
        <ele>104</ele>
        <time>2022-08-27T19:42:10Z</time>
      </trkpt>
      <trkpt lat="48.11975" lon="-1.21951">
        <ele>103.8</ele>
        <time>2022-08-27T19:42:11Z</time>
      </trkpt>
      <trkpt lat="48.11953" lon="-1.21962">
        <ele>103.6</ele>
        <time>2022-08-27T19:42:14Z</time>
      </trkpt>
      <trkpt lat="48.11946" lon="-1.21969">
        <ele>104.2</ele>
        <time>2022-08-27T19:42:15Z</time>
      </trkpt>
      <trkpt lat="48.1194" lon="-1.21979">
        <ele>103.8</ele>
        <time>2022-08-27T19:42:16Z</time>
      </trkpt>
      <trkpt lat="48.11932" lon="-1.22001">
        <ele>103.2</ele>
        <time>2022-08-27T19:42:18Z</time>
      </trkpt>
      <trkpt lat="48.11928" lon="-1.22012">
        <ele>102.8</ele>
        <time>2022-08-27T19:42:19Z</time>
      </trkpt>
      <trkpt lat="48.11913" lon="-1.22037">
        <ele>103.2</ele>
        <time>2022-08-27T19:42:22Z</time>
      </trkpt>
      <trkpt lat="48.11884" lon="-1.2206">
        <ele>102.8</ele>
        <time>2022-08-27T19:42:26Z</time>
      </trkpt>
      <trkpt lat="48.11869" lon="-1.22069">
        <ele>102.8</ele>
        <time>2022-08-27T19:42:28Z</time>
      </trkpt>
      <trkpt lat="48.11845" lon="-1.22083">
        <ele>102.6</ele>
        <time>2022-08-27T19:42:31Z</time>
      </trkpt>
      <trkpt lat="48.11808" lon="-1.22106">
        <ele>101.6</ele>
        <time>2022-08-27T19:42:36Z</time>
      </trkpt>
      <trkpt lat="48.11794" lon="-1.22108">
        <ele>101.2</ele>
        <time>2022-08-27T19:42:38Z</time>
      </trkpt>
      <trkpt lat="48.11786" lon="-1.2211">
        <ele>101</ele>
        <time>2022-08-27T19:42:39Z</time>
      </trkpt>
      <trkpt lat="48.11778" lon="-1.22114">
        <ele>100.8</ele>
        <time>2022-08-27T19:42:40Z</time>
      </trkpt>
      <trkpt lat="48.11755" lon="-1.2213">
        <ele>100</ele>
        <time>2022-08-27T19:42:43Z</time>
      </trkpt>
      <trkpt lat="48.11703" lon="-1.22163">
        <ele>98.2</ele>
        <time>2022-08-27T19:42:49Z</time>
      </trkpt>
      <trkpt lat="48.1168" lon="-1.22177">
        <ele>97</ele>
        <time>2022-08-27T19:42:52Z</time>
      </trkpt>
      <trkpt lat="48.11671" lon="-1.22188">
        <ele>96.4</ele>
        <time>2022-08-27T19:42:54Z</time>
      </trkpt>
      <trkpt lat="48.11669" lon="-1.22192">
        <ele>96.2</ele>
        <time>2022-08-27T19:42:55Z</time>
      </trkpt>
      <trkpt lat="48.11659" lon="-1.22207">
        <ele>95.2</ele>
        <time>2022-08-27T19:42:59Z</time>
      </trkpt>
      <trkpt lat="48.11657" lon="-1.22209">
        <ele>94.8</ele>
        <time>2022-08-27T19:43:00Z</time>
      </trkpt>
      <trkpt lat="48.11654" lon="-1.22216">
        <ele>94.4</ele>
        <time>2022-08-27T19:43:02Z</time>
      </trkpt>
      <trkpt lat="48.11657" lon="-1.22237">
        <ele>93.2</ele>
        <time>2022-08-27T19:43:06Z</time>
      </trkpt>
      <trkpt lat="48.11655" lon="-1.22276">
        <ele>91.8</ele>
        <time>2022-08-27T19:43:11Z</time>
      </trkpt>
      <trkpt lat="48.11664" lon="-1.22327">
        <ele>90.2</ele>
        <time>2022-08-27T19:43:17Z</time>
      </trkpt>
      <trkpt lat="48.1167" lon="-1.22353">
        <ele>89.4</ele>
        <time>2022-08-27T19:43:20Z</time>
      </trkpt>
      <trkpt lat="48.11673" lon="-1.22379">
        <ele>88.6</ele>
        <time>2022-08-27T19:43:23Z</time>
      </trkpt>
      <trkpt lat="48.11679" lon="-1.22429">
        <ele>87.4</ele>
        <time>2022-08-27T19:43:28Z</time>
      </trkpt>
      <trkpt lat="48.11679" lon="-1.22438">
        <ele>87</ele>
        <time>2022-08-27T19:43:29Z</time>
      </trkpt>
      <trkpt lat="48.11675" lon="-1.22465">
        <ele>86.6</ele>
        <time>2022-08-27T19:43:32Z</time>
      </trkpt>
      <trkpt lat="48.11678" lon="-1.2248">
        <ele>86.2</ele>
        <time>2022-08-27T19:43:35Z</time>
      </trkpt>
      <trkpt lat="48.11683" lon="-1.22484">
        <ele>85.6</ele>
        <time>2022-08-27T19:43:38Z</time>
      </trkpt>
      <trkpt lat="48.11685" lon="-1.22484">
        <ele>85.4</ele>
        <time>2022-08-27T19:43:39Z</time>
      </trkpt>
      <trkpt lat="48.11694" lon="-1.2248">
        <ele>84.6</ele>
        <time>2022-08-27T19:43:43Z</time>
      </trkpt>
      <trkpt lat="48.11696" lon="-1.22481">
        <ele>84.2</ele>
        <time>2022-08-27T19:43:44Z</time>
      </trkpt>
      <trkpt lat="48.11696" lon="-1.22483">
        <ele>83.8</ele>
        <time>2022-08-27T19:43:46Z</time>
      </trkpt>
      <trkpt lat="48.11695" lon="-1.22483">
        <ele>83.6</ele>
        <time>2022-08-27T19:43:47Z</time>
      </trkpt>
      <trkpt lat="48.11684" lon="-1.22486">
        <ele>83</ele>
        <time>2022-08-27T19:43:51Z</time>
      </trkpt>
      <trkpt lat="48.11675" lon="-1.22499">
        <ele>82.6</ele>
        <time>2022-08-27T19:43:55Z</time>
      </trkpt>
      <trkpt lat="48.1167" lon="-1.2252">
        <ele>81.8</ele>
        <time>2022-08-27T19:44:00Z</time>
      </trkpt>
      <trkpt lat="48.11664" lon="-1.2254">
        <ele>81.2</ele>
        <time>2022-08-27T19:44:05Z</time>
      </trkpt>
      <trkpt lat="48.11659" lon="-1.22555">
        <ele>80.6</ele>
        <time>2022-08-27T19:44:09Z</time>
      </trkpt>
      <trkpt lat="48.11657" lon="-1.22567">
        <ele>80.2</ele>
        <time>2022-08-27T19:44:12Z</time>
      </trkpt>
      <trkpt lat="48.11657" lon="-1.2257">
        <ele>80</ele>
        <time>2022-08-27T19:44:13Z</time>
      </trkpt>
      <trkpt lat="48.11657" lon="-1.22578">
        <ele>79.4</ele>
        <time>2022-08-27T19:44:15Z</time>
      </trkpt>
      <trkpt lat="48.11658" lon="-1.22588">
        <ele>78.8</ele>
        <time>2022-08-27T19:44:17Z</time>
      </trkpt>
      <trkpt lat="48.11658" lon="-1.22601">
        <ele>77.8</ele>
        <time>2022-08-27T19:44:21Z</time>
      </trkpt>
      <trkpt lat="48.11659" lon="-1.22613">
        <ele>76.8</ele>
        <time>2022-08-27T19:44:24Z</time>
      </trkpt>
      <trkpt lat="48.11658" lon="-1.22617">
        <ele>76.6</ele>
        <time>2022-08-27T19:44:25Z</time>
      </trkpt>
      <trkpt lat="48.1166" lon="-1.22639">
        <ele>75.8</ele>
        <time>2022-08-27T19:44:30Z</time>
      </trkpt>
      <trkpt lat="48.11662" lon="-1.22663">
        <ele>75.4</ele>
        <time>2022-08-27T19:44:36Z</time>
      </trkpt>
      <trkpt lat="48.11662" lon="-1.22669">
        <ele>75.2</ele>
        <time>2022-08-27T19:44:37Z</time>
      </trkpt>
      <trkpt lat="48.11656" lon="-1.22677">
        <ele>75.2</ele>
        <time>2022-08-27T19:44:40Z</time>
      </trkpt>
      <trkpt lat="48.11653" lon="-1.22684">
        <ele>75</ele>
        <time>2022-08-27T19:44:42Z</time>
      </trkpt>
      <trkpt lat="48.11649" lon="-1.2269">
        <ele>75.2</ele>
        <time>2022-08-27T19:44:44Z</time>
      </trkpt>
      <trkpt lat="48.11648" lon="-1.22692">
        <ele>75.2</ele>
        <time>2022-08-27T19:44:45Z</time>
      </trkpt>
      <trkpt lat="48.11646" lon="-1.22698">
        <ele>75.2</ele>
        <time>2022-08-27T19:44:47Z</time>
      </trkpt>
      <trkpt lat="48.11646" lon="-1.22702">
        <ele>75.2</ele>
        <time>2022-08-27T19:44:48Z</time>
      </trkpt>
      <trkpt lat="48.11645" lon="-1.22708">
        <ele>75.2</ele>
        <time>2022-08-27T19:44:50Z</time>
      </trkpt>
      <trkpt lat="48.11642" lon="-1.22715">
        <ele>75.2</ele>
        <time>2022-08-27T19:44:52Z</time>
      </trkpt>
      <trkpt lat="48.11635" lon="-1.22728">
        <ele>75.2</ele>
        <time>2022-08-27T19:44:55Z</time>
      </trkpt>
      <trkpt lat="48.11632" lon="-1.22735">
        <ele>75.8</ele>
        <time>2022-08-27T19:44:57Z</time>
      </trkpt>
      <trkpt lat="48.11621" lon="-1.22756">
        <ele>75.6</ele>
        <time>2022-08-27T19:45:02Z</time>
      </trkpt>
      <trkpt lat="48.11619" lon="-1.2276">
        <ele>75.6</ele>
        <time>2022-08-27T19:45:03Z</time>
      </trkpt>
      <trkpt lat="48.11615" lon="-1.22768">
        <ele>75.6</ele>
        <time>2022-08-27T19:45:05Z</time>
      </trkpt>
      <trkpt lat="48.11599" lon="-1.22792">
        <ele>75.8</ele>
        <time>2022-08-27T19:45:10Z</time>
      </trkpt>
      <trkpt lat="48.11584" lon="-1.22818">
        <ele>76</ele>
        <time>2022-08-27T19:45:16Z</time>
      </trkpt>
      <trkpt lat="48.11582" lon="-1.22822">
        <ele>76</ele>
        <time>2022-08-27T19:45:17Z</time>
      </trkpt>
      <trkpt lat="48.11573" lon="-1.22831">
        <ele>76.2</ele>
        <time>2022-08-27T19:45:19Z</time>
      </trkpt>
      <trkpt lat="48.11561" lon="-1.22852">
        <ele>76.4</ele>
        <time>2022-08-27T19:45:23Z</time>
      </trkpt>
      <trkpt lat="48.11555" lon="-1.22862">
        <ele>76.4</ele>
        <time>2022-08-27T19:45:25Z</time>
      </trkpt>
      <trkpt lat="48.11546" lon="-1.22877">
        <ele>76.4</ele>
        <time>2022-08-27T19:45:28Z</time>
      </trkpt>
      <trkpt lat="48.11528" lon="-1.22912">
        <ele>76.4</ele>
        <time>2022-08-27T19:45:34Z</time>
      </trkpt>
      <trkpt lat="48.11507" lon="-1.22944">
        <ele>76.4</ele>
        <time>2022-08-27T19:45:40Z</time>
      </trkpt>
      <trkpt lat="48.11496" lon="-1.22959">
        <ele>76</ele>
        <time>2022-08-27T19:45:43Z</time>
      </trkpt>
      <trkpt lat="48.11492" lon="-1.22964">
        <ele>76.2</ele>
        <time>2022-08-27T19:45:44Z</time>
      </trkpt>
      <trkpt lat="48.11487" lon="-1.22968">
        <ele>76</ele>
        <time>2022-08-27T19:45:45Z</time>
      </trkpt>
      <trkpt lat="48.11477" lon="-1.22981">
        <ele>75.8</ele>
        <time>2022-08-27T19:45:48Z</time>
      </trkpt>
      <trkpt lat="48.11474" lon="-1.22986">
        <ele>75.6</ele>
        <time>2022-08-27T19:45:49Z</time>
      </trkpt>
      <trkpt lat="48.1147" lon="-1.22992">
        <ele>75.6</ele>
        <time>2022-08-27T19:45:50Z</time>
      </trkpt>
      <trkpt lat="48.11462" lon="-1.23002">
        <ele>75.4</ele>
        <time>2022-08-27T19:45:52Z</time>
      </trkpt>
      <trkpt lat="48.11446" lon="-1.23019">
        <ele>74.8</ele>
        <time>2022-08-27T19:45:56Z</time>
      </trkpt>
      <trkpt lat="48.11442" lon="-1.23022">
        <ele>74.6</ele>
        <time>2022-08-27T19:45:57Z</time>
      </trkpt>
      <trkpt lat="48.11438" lon="-1.23025">
        <ele>74.4</ele>
        <time>2022-08-27T19:45:58Z</time>
      </trkpt>
      <trkpt lat="48.1143" lon="-1.23034">
        <ele>74.4</ele>
        <time>2022-08-27T19:46:00Z</time>
      </trkpt>
      <trkpt lat="48.11411" lon="-1.23048">
        <ele>74.4</ele>
        <time>2022-08-27T19:46:04Z</time>
      </trkpt>
      <trkpt lat="48.11397" lon="-1.23056">
        <ele>74.4</ele>
        <time>2022-08-27T19:46:07Z</time>
      </trkpt>
      <trkpt lat="48.11392" lon="-1.23059">
        <ele>74.4</ele>
        <time>2022-08-27T19:46:08Z</time>
      </trkpt>
      <trkpt lat="48.11387" lon="-1.23061">
        <ele>74.2</ele>
        <time>2022-08-27T19:46:09Z</time>
      </trkpt>
      <trkpt lat="48.11372" lon="-1.23071">
        <ele>73.8</ele>
        <time>2022-08-27T19:46:12Z</time>
      </trkpt>
      <trkpt lat="48.11366" lon="-1.23076">
        <ele>73.8</ele>
        <time>2022-08-27T19:46:13Z</time>
      </trkpt>
      <trkpt lat="48.11345" lon="-1.23092">
        <ele>74.4</ele>
        <time>2022-08-27T19:46:17Z</time>
      </trkpt>
      <trkpt lat="48.11321" lon="-1.23108">
        <ele>75</ele>
        <time>2022-08-27T19:46:22Z</time>
      </trkpt>
      <trkpt lat="48.11316" lon="-1.2311">
        <ele>75.2</ele>
        <time>2022-08-27T19:46:23Z</time>
      </trkpt>
      <trkpt lat="48.11307" lon="-1.23115">
        <ele>75.2</ele>
        <time>2022-08-27T19:46:25Z</time>
      </trkpt>
      <trkpt lat="48.11302" lon="-1.23118">
        <ele>75.4</ele>
        <time>2022-08-27T19:46:26Z</time>
      </trkpt>
      <trkpt lat="48.11298" lon="-1.2312">
        <ele>75.4</ele>
        <time>2022-08-27T19:46:27Z</time>
      </trkpt>
      <trkpt lat="48.11285" lon="-1.23127">
        <ele>75.8</ele>
        <time>2022-08-27T19:46:30Z</time>
      </trkpt>
      <trkpt lat="48.11281" lon="-1.2313">
        <ele>76</ele>
        <time>2022-08-27T19:46:31Z</time>
      </trkpt>
      <trkpt lat="48.11267" lon="-1.23136">
        <ele>76.6</ele>
        <time>2022-08-27T19:46:34Z</time>
      </trkpt>
      <trkpt lat="48.11251" lon="-1.23139">
        <ele>77</ele>
        <time>2022-08-27T19:46:37Z</time>
      </trkpt>
      <trkpt lat="48.11234" lon="-1.2314">
        <ele>77.6</ele>
        <time>2022-08-27T19:46:40Z</time>
      </trkpt>
      <trkpt lat="48.11225" lon="-1.23142">
        <ele>77.8</ele>
        <time>2022-08-27T19:46:42Z</time>
      </trkpt>
      <trkpt lat="48.11216" lon="-1.23143">
        <ele>78</ele>
        <time>2022-08-27T19:46:44Z</time>
      </trkpt>
      <trkpt lat="48.11211" lon="-1.23143">
        <ele>78</ele>
        <time>2022-08-27T19:46:45Z</time>
      </trkpt>
      <trkpt lat="48.11201" lon="-1.23144">
        <ele>78.2</ele>
        <time>2022-08-27T19:46:47Z</time>
      </trkpt>
      <trkpt lat="48.11195" lon="-1.23144">
        <ele>78.4</ele>
        <time>2022-08-27T19:46:48Z</time>
      </trkpt>
      <trkpt lat="48.11183" lon="-1.23147">
        <ele>79</ele>
        <time>2022-08-27T19:46:51Z</time>
      </trkpt>
      <trkpt lat="48.11179" lon="-1.23147">
        <ele>79.2</ele>
        <time>2022-08-27T19:46:52Z</time>
      </trkpt>
      <trkpt lat="48.1116" lon="-1.23146">
        <ele>79.8</ele>
        <time>2022-08-27T19:46:56Z</time>
      </trkpt>
      <trkpt lat="48.11151" lon="-1.23147">
        <ele>80.2</ele>
        <time>2022-08-27T19:46:58Z</time>
      </trkpt>
      <trkpt lat="48.11139" lon="-1.23146">
        <ele>80.8</ele>
        <time>2022-08-27T19:47:01Z</time>
      </trkpt>
      <trkpt lat="48.1112" lon="-1.23144">
        <ele>81.6</ele>
        <time>2022-08-27T19:47:05Z</time>
      </trkpt>
      <trkpt lat="48.11114" lon="-1.23143">
        <ele>81.8</ele>
        <time>2022-08-27T19:47:06Z</time>
      </trkpt>
      <trkpt lat="48.11093" lon="-1.23141">
        <ele>82.6</ele>
        <time>2022-08-27T19:47:10Z</time>
      </trkpt>
      <trkpt lat="48.11088" lon="-1.23141">
        <ele>82.8</ele>
        <time>2022-08-27T19:47:11Z</time>
      </trkpt>
      <trkpt lat="48.11062" lon="-1.23141">
        <ele>83.8</ele>
        <time>2022-08-27T19:47:16Z</time>
      </trkpt>
      <trkpt lat="48.11052" lon="-1.23141">
        <ele>84.2</ele>
        <time>2022-08-27T19:47:18Z</time>
      </trkpt>
      <trkpt lat="48.11031" lon="-1.2314">
        <ele>85</ele>
        <time>2022-08-27T19:47:22Z</time>
      </trkpt>
      <trkpt lat="48.11027" lon="-1.2314">
        <ele>85.2</ele>
        <time>2022-08-27T19:47:23Z</time>
      </trkpt>
      <trkpt lat="48.11014" lon="-1.23141">
        <ele>85.8</ele>
        <time>2022-08-27T19:47:26Z</time>
      </trkpt>
      <trkpt lat="48.1101" lon="-1.23142">
        <ele>86</ele>
        <time>2022-08-27T19:47:27Z</time>
      </trkpt>
      <trkpt lat="48.11006" lon="-1.23142">
        <ele>86.2</ele>
        <time>2022-08-27T19:47:28Z</time>
      </trkpt>
      <trkpt lat="48.10992" lon="-1.2314">
        <ele>86.6</ele>
        <time>2022-08-27T19:47:31Z</time>
      </trkpt>
      <trkpt lat="48.10974" lon="-1.23141">
        <ele>87.2</ele>
        <time>2022-08-27T19:47:35Z</time>
      </trkpt>
      <trkpt lat="48.1095" lon="-1.23139">
        <ele>88</ele>
        <time>2022-08-27T19:47:40Z</time>
      </trkpt>
      <trkpt lat="48.10928" lon="-1.23139">
        <ele>88.6</ele>
        <time>2022-08-27T19:47:45Z</time>
      </trkpt>
      <trkpt lat="48.10918" lon="-1.2314">
        <ele>88.8</ele>
        <time>2022-08-27T19:47:47Z</time>
      </trkpt>
      <trkpt lat="48.10913" lon="-1.2314">
        <ele>89</ele>
        <time>2022-08-27T19:47:48Z</time>
      </trkpt>
      <trkpt lat="48.10888" lon="-1.2314">
        <ele>89.6</ele>
        <time>2022-08-27T19:47:53Z</time>
      </trkpt>
      <trkpt lat="48.10857" lon="-1.23138">
        <ele>90.4</ele>
        <time>2022-08-27T19:47:59Z</time>
      </trkpt>
      <trkpt lat="48.1084" lon="-1.23136">
        <ele>90.8</ele>
        <time>2022-08-27T19:48:02Z</time>
      </trkpt>
      <trkpt lat="48.10835" lon="-1.23135">
        <ele>90.8</ele>
        <time>2022-08-27T19:48:03Z</time>
      </trkpt>
      <trkpt lat="48.10821" lon="-1.23135">
        <ele>91.2</ele>
        <time>2022-08-27T19:48:06Z</time>
      </trkpt>
      <trkpt lat="48.10797" lon="-1.23136">
        <ele>92</ele>
        <time>2022-08-27T19:48:11Z</time>
      </trkpt>
      <trkpt lat="48.10781" lon="-1.23134">
        <ele>92.2</ele>
        <time>2022-08-27T19:48:14Z</time>
      </trkpt>
      <trkpt lat="48.10778" lon="-1.23134">
        <ele>92.4</ele>
        <time>2022-08-27T19:48:15Z</time>
      </trkpt>
      <trkpt lat="48.10773" lon="-1.23133">
        <ele>92.8</ele>
        <time>2022-08-27T19:48:17Z</time>
      </trkpt>
      <trkpt lat="48.10766" lon="-1.23134">
        <ele>92.8</ele>
        <time>2022-08-27T19:48:18Z</time>
      </trkpt>
      <trkpt lat="48.10754" lon="-1.23135">
        <ele>93</ele>
        <time>2022-08-27T19:48:20Z</time>
      </trkpt>
      <trkpt lat="48.10748" lon="-1.23134">
        <ele>93.2</ele>
        <time>2022-08-27T19:48:21Z</time>
      </trkpt>
      <trkpt lat="48.10738" lon="-1.23133">
        <ele>93.4</ele>
        <time>2022-08-27T19:48:23Z</time>
      </trkpt>
      <trkpt lat="48.10733" lon="-1.23133">
        <ele>93.4</ele>
        <time>2022-08-27T19:48:24Z</time>
      </trkpt>
      <trkpt lat="48.10702" lon="-1.23134">
        <ele>94.2</ele>
        <time>2022-08-27T19:48:30Z</time>
      </trkpt>
      <trkpt lat="48.10691" lon="-1.23134">
        <ele>94.6</ele>
        <time>2022-08-27T19:48:32Z</time>
      </trkpt>
      <trkpt lat="48.10676" lon="-1.23136">
        <ele>95</ele>
        <time>2022-08-27T19:48:35Z</time>
      </trkpt>
      <trkpt lat="48.10647" lon="-1.23137">
        <ele>95.8</ele>
        <time>2022-08-27T19:48:41Z</time>
      </trkpt>
      <trkpt lat="48.10612" lon="-1.23135">
        <ele>96.6</ele>
        <time>2022-08-27T19:48:47Z</time>
      </trkpt>
      <trkpt lat="48.10606" lon="-1.23135">
        <ele>96.8</ele>
        <time>2022-08-27T19:48:48Z</time>
      </trkpt>
      <trkpt lat="48.10586" lon="-1.23131">
        <ele>97</ele>
        <time>2022-08-27T19:48:51Z</time>
      </trkpt>
      <trkpt lat="48.10579" lon="-1.2313">
        <ele>97</ele>
        <time>2022-08-27T19:48:52Z</time>
      </trkpt>
      <trkpt lat="48.10545" lon="-1.23121">
        <ele>97.6</ele>
        <time>2022-08-27T19:48:57Z</time>
      </trkpt>
      <trkpt lat="48.10506" lon="-1.2311">
        <ele>98.2</ele>
        <time>2022-08-27T19:49:03Z</time>
      </trkpt>
      <trkpt lat="48.10474" lon="-1.23097">
        <ele>98.6</ele>
        <time>2022-08-27T19:49:08Z</time>
      </trkpt>
      <trkpt lat="48.10444" lon="-1.23083">
        <ele>98.6</ele>
        <time>2022-08-27T19:49:13Z</time>
      </trkpt>
      <trkpt lat="48.10408" lon="-1.23062">
        <ele>98.8</ele>
        <time>2022-08-27T19:49:19Z</time>
      </trkpt>
      <trkpt lat="48.1038" lon="-1.23044">
        <ele>98.8</ele>
        <time>2022-08-27T19:49:24Z</time>
      </trkpt>
      <trkpt lat="48.10357" lon="-1.23028">
        <ele>98.8</ele>
        <time>2022-08-27T19:49:28Z</time>
      </trkpt>
      <trkpt lat="48.10327" lon="-1.23">
        <ele>98.8</ele>
        <time>2022-08-27T19:49:33Z</time>
      </trkpt>
      <trkpt lat="48.10286" lon="-1.2296">
        <ele>99</ele>
        <time>2022-08-27T19:49:40Z</time>
      </trkpt>
      <trkpt lat="48.10255" lon="-1.22925">
        <ele>98.8</ele>
        <time>2022-08-27T19:49:46Z</time>
      </trkpt>
      <trkpt lat="48.10234" lon="-1.229">
        <ele>98.6</ele>
        <time>2022-08-27T19:49:50Z</time>
      </trkpt>
      <trkpt lat="48.10206" lon="-1.22863">
        <ele>97.4</ele>
        <time>2022-08-27T19:49:56Z</time>
      </trkpt>
      <trkpt lat="48.10196" lon="-1.22849">
        <ele>96.8</ele>
        <time>2022-08-27T19:50:00Z</time>
      </trkpt>
      <trkpt lat="48.10184" lon="-1.22828">
        <ele>95.8</ele>
        <time>2022-08-27T19:50:05Z</time>
      </trkpt>
      <trkpt lat="48.10175" lon="-1.2281">
        <ele>95.2</ele>
        <time>2022-08-27T19:50:08Z</time>
      </trkpt>
      <trkpt lat="48.1017" lon="-1.22803">
        <ele>95</ele>
        <time>2022-08-27T19:50:09Z</time>
      </trkpt>
      <trkpt lat="48.10162" lon="-1.22784">
        <ele>93.8</ele>
        <time>2022-08-27T19:50:13Z</time>
      </trkpt>
      <trkpt lat="48.10136" lon="-1.22736">
        <ele>92.4</ele>
        <time>2022-08-27T19:50:18Z</time>
      </trkpt>
      <trkpt lat="48.10112" lon="-1.2269">
        <ele>91.6</ele>
        <time>2022-08-27T19:50:21Z</time>
      </trkpt>
      <trkpt lat="48.10074" lon="-1.22617">
        <ele>90.8</ele>
        <time>2022-08-27T19:50:26Z</time>
      </trkpt>
      <trkpt lat="48.10068" lon="-1.22606">
        <ele>90.6</ele>
        <time>2022-08-27T19:50:27Z</time>
      </trkpt>
      <trkpt lat="48.1005" lon="-1.22571">
        <ele>90.2</ele>
        <time>2022-08-27T19:50:31Z</time>
      </trkpt>
      <trkpt lat="48.10045" lon="-1.22562">
        <ele>90.2</ele>
        <time>2022-08-27T19:50:32Z</time>
      </trkpt>
      <trkpt lat="48.1003" lon="-1.22533">
        <ele>89.8</ele>
        <time>2022-08-27T19:50:35Z</time>
      </trkpt>
      <trkpt lat="48.10022" lon="-1.22517">
        <ele>89.4</ele>
        <time>2022-08-27T19:50:37Z</time>
      </trkpt>
      <trkpt lat="48.10018" lon="-1.22511">
        <ele>89.2</ele>
        <time>2022-08-27T19:50:38Z</time>
      </trkpt>
      <trkpt lat="48.10002" lon="-1.22478">
        <ele>88.6</ele>
        <time>2022-08-27T19:50:42Z</time>
      </trkpt>
      <trkpt lat="48.09982" lon="-1.22437">
        <ele>88.2</ele>
        <time>2022-08-27T19:50:46Z</time>
      </trkpt>
      <trkpt lat="48.09975" lon="-1.22424">
        <ele>88</ele>
        <time>2022-08-27T19:50:48Z</time>
      </trkpt>
      <trkpt lat="48.09968" lon="-1.22412">
        <ele>87.8</ele>
        <time>2022-08-27T19:50:50Z</time>
      </trkpt>
      <trkpt lat="48.09964" lon="-1.22406">
        <ele>87.8</ele>
        <time>2022-08-27T19:50:51Z</time>
      </trkpt>
      <trkpt lat="48.09948" lon="-1.22379">
        <ele>87.6</ele>
        <time>2022-08-27T19:50:55Z</time>
      </trkpt>
      <trkpt lat="48.09925" lon="-1.22344">
        <ele>87.4</ele>
        <time>2022-08-27T19:51:00Z</time>
      </trkpt>
      <trkpt lat="48.09896" lon="-1.22304">
        <ele>87.4</ele>
        <time>2022-08-27T19:51:06Z</time>
      </trkpt>
      <trkpt lat="48.0987" lon="-1.22273">
        <ele>87.4</ele>
        <time>2022-08-27T19:51:11Z</time>
      </trkpt>
      <trkpt lat="48.09843" lon="-1.22243">
        <ele>87.2</ele>
        <time>2022-08-27T19:51:16Z</time>
      </trkpt>
      <trkpt lat="48.09815" lon="-1.22217">
        <ele>87.2</ele>
        <time>2022-08-27T19:51:21Z</time>
      </trkpt>
      <trkpt lat="48.09781" lon="-1.22189">
        <ele>87</ele>
        <time>2022-08-27T19:51:27Z</time>
      </trkpt>
      <trkpt lat="48.09775" lon="-1.22185">
        <ele>87</ele>
        <time>2022-08-27T19:51:28Z</time>
      </trkpt>
      <trkpt lat="48.0974" lon="-1.22163">
        <ele>86.8</ele>
        <time>2022-08-27T19:51:34Z</time>
      </trkpt>
      <trkpt lat="48.0971" lon="-1.22147">
        <ele>86.4</ele>
        <time>2022-08-27T19:51:39Z</time>
      </trkpt>
      <trkpt lat="48.09693" lon="-1.22138">
        <ele>86.2</ele>
        <time>2022-08-27T19:51:42Z</time>
      </trkpt>
      <trkpt lat="48.09682" lon="-1.2213">
        <ele>86</ele>
        <time>2022-08-27T19:51:44Z</time>
      </trkpt>
      <trkpt lat="48.0967" lon="-1.22123">
        <ele>85.8</ele>
        <time>2022-08-27T19:51:46Z</time>
      </trkpt>
      <trkpt lat="48.09658" lon="-1.22116">
        <ele>85.8</ele>
        <time>2022-08-27T19:51:48Z</time>
      </trkpt>
      <trkpt lat="48.09633" lon="-1.221">
        <ele>85.4</ele>
        <time>2022-08-27T19:51:52Z</time>
      </trkpt>
      <trkpt lat="48.09599" lon="-1.22077">
        <ele>85.2</ele>
        <time>2022-08-27T19:51:57Z</time>
      </trkpt>
      <trkpt lat="48.09586" lon="-1.22069">
        <ele>85</ele>
        <time>2022-08-27T19:51:59Z</time>
      </trkpt>
      <trkpt lat="48.09567" lon="-1.22058">
        <ele>84.8</ele>
        <time>2022-08-27T19:52:02Z</time>
      </trkpt>
      <trkpt lat="48.09535" lon="-1.2204">
        <ele>84.2</ele>
        <time>2022-08-27T19:52:07Z</time>
      </trkpt>
      <trkpt lat="48.09496" lon="-1.22014">
        <ele>83.8</ele>
        <time>2022-08-27T19:52:12Z</time>
      </trkpt>
      <trkpt lat="48.09477" lon="-1.21998">
        <ele>83.6</ele>
        <time>2022-08-27T19:52:15Z</time>
      </trkpt>
      <trkpt lat="48.09472" lon="-1.21993">
        <ele>83.4</ele>
        <time>2022-08-27T19:52:16Z</time>
      </trkpt>
      <trkpt lat="48.09446" lon="-1.21976">
        <ele>83</ele>
        <time>2022-08-27T19:52:20Z</time>
      </trkpt>
      <trkpt lat="48.09425" lon="-1.2196">
        <ele>82.4</ele>
        <time>2022-08-27T19:52:23Z</time>
      </trkpt>
      <trkpt lat="48.09411" lon="-1.21951">
        <ele>82</ele>
        <time>2022-08-27T19:52:25Z</time>
      </trkpt>
      <trkpt lat="48.09399" lon="-1.21943">
        <ele>81.8</ele>
        <time>2022-08-27T19:52:27Z</time>
      </trkpt>
      <trkpt lat="48.09374" lon="-1.21917">
        <ele>81</ele>
        <time>2022-08-27T19:52:30Z</time>
      </trkpt>
      <trkpt lat="48.09342" lon="-1.21878">
        <ele>80.2</ele>
        <time>2022-08-27T19:52:34Z</time>
      </trkpt>
      <trkpt lat="48.09335" lon="-1.21867">
        <ele>80.2</ele>
        <time>2022-08-27T19:52:35Z</time>
      </trkpt>
      <trkpt lat="48.09294" lon="-1.21811">
        <ele>80</ele>
        <time>2022-08-27T19:52:41Z</time>
      </trkpt>
      <trkpt lat="48.09257" lon="-1.21751">
        <ele>79.6</ele>
        <time>2022-08-27T19:52:47Z</time>
      </trkpt>
      <trkpt lat="48.09234" lon="-1.2171">
        <ele>79.2</ele>
        <time>2022-08-27T19:52:51Z</time>
      </trkpt>
      <trkpt lat="48.09207" lon="-1.21656">
        <ele>78.8</ele>
        <time>2022-08-27T19:52:56Z</time>
      </trkpt>
      <trkpt lat="48.09185" lon="-1.21605">
        <ele>78.4</ele>
        <time>2022-08-27T19:53:01Z</time>
      </trkpt>
      <trkpt lat="48.09164" lon="-1.21556">
        <ele>78.2</ele>
        <time>2022-08-27T19:53:07Z</time>
      </trkpt>
      <trkpt lat="48.09142" lon="-1.21501">
        <ele>77.8</ele>
        <time>2022-08-27T19:53:13Z</time>
      </trkpt>
      <trkpt lat="48.09129" lon="-1.21474">
        <ele>77.4</ele>
        <time>2022-08-27T19:53:16Z</time>
      </trkpt>
      <trkpt lat="48.09124" lon="-1.21466">
        <ele>77.2</ele>
        <time>2022-08-27T19:53:17Z</time>
      </trkpt>
      <trkpt lat="48.09103" lon="-1.21411">
        <ele>76.6</ele>
        <time>2022-08-27T19:53:23Z</time>
      </trkpt>
      <trkpt lat="48.09096" lon="-1.21392">
        <ele>76.4</ele>
        <time>2022-08-27T19:53:25Z</time>
      </trkpt>
      <trkpt lat="48.09089" lon="-1.21373">
        <ele>76</ele>
        <time>2022-08-27T19:53:27Z</time>
      </trkpt>
      <trkpt lat="48.09078" lon="-1.21346">
        <ele>75.4</ele>
        <time>2022-08-27T19:53:30Z</time>
      </trkpt>
      <trkpt lat="48.09058" lon="-1.213">
        <ele>74.4</ele>
        <time>2022-08-27T19:53:35Z</time>
      </trkpt>
      <trkpt lat="48.09054" lon="-1.21289">
        <ele>74.2</ele>
        <time>2022-08-27T19:53:36Z</time>
      </trkpt>
      <trkpt lat="48.09046" lon="-1.2127">
        <ele>73.8</ele>
        <time>2022-08-27T19:53:38Z</time>
      </trkpt>
      <trkpt lat="48.09042" lon="-1.2126">
        <ele>73.6</ele>
        <time>2022-08-27T19:53:39Z</time>
      </trkpt>
      <trkpt lat="48.09026" lon="-1.21231">
        <ele>73.2</ele>
        <time>2022-08-27T19:53:42Z</time>
      </trkpt>
      <trkpt lat="48.09021" lon="-1.21221">
        <ele>73</ele>
        <time>2022-08-27T19:53:43Z</time>
      </trkpt>
      <trkpt lat="48.09007" lon="-1.21195">
        <ele>72.4</ele>
        <time>2022-08-27T19:53:46Z</time>
      </trkpt>
      <trkpt lat="48.08979" lon="-1.2115">
        <ele>71.6</ele>
        <time>2022-08-27T19:53:51Z</time>
      </trkpt>
      <trkpt lat="48.08952" lon="-1.21106">
        <ele>70.8</ele>
        <time>2022-08-27T19:53:56Z</time>
      </trkpt>
      <trkpt lat="48.08917" lon="-1.21057">
        <ele>69.8</ele>
        <time>2022-08-27T19:54:02Z</time>
      </trkpt>
      <trkpt lat="48.08889" lon="-1.21019">
        <ele>69</ele>
        <time>2022-08-27T19:54:07Z</time>
      </trkpt>
      <trkpt lat="48.08852" lon="-1.20973">
        <ele>68.2</ele>
        <time>2022-08-27T19:54:13Z</time>
      </trkpt>
      <trkpt lat="48.08828" lon="-1.20943">
        <ele>67.6</ele>
        <time>2022-08-27T19:54:17Z</time>
      </trkpt>
      <trkpt lat="48.08823" lon="-1.20936">
        <ele>67.4</ele>
        <time>2022-08-27T19:54:18Z</time>
      </trkpt>
      <trkpt lat="48.08805" lon="-1.20913">
        <ele>67</ele>
        <time>2022-08-27T19:54:21Z</time>
      </trkpt>
      <trkpt lat="48.08763" lon="-1.20859">
        <ele>66.4</ele>
        <time>2022-08-27T19:54:28Z</time>
      </trkpt>
      <trkpt lat="48.0873" lon="-1.20817">
        <ele>66</ele>
        <time>2022-08-27T19:54:34Z</time>
      </trkpt>
      <trkpt lat="48.08703" lon="-1.20785">
        <ele>65.6</ele>
        <time>2022-08-27T19:54:39Z</time>
      </trkpt>
      <trkpt lat="48.0867" lon="-1.20738">
        <ele>65.4</ele>
        <time>2022-08-27T19:54:45Z</time>
      </trkpt>
      <trkpt lat="48.08665" lon="-1.20731">
        <ele>65.2</ele>
        <time>2022-08-27T19:54:46Z</time>
      </trkpt>
      <trkpt lat="48.08659" lon="-1.20723">
        <ele>65.2</ele>
        <time>2022-08-27T19:54:47Z</time>
      </trkpt>
      <trkpt lat="48.08649" lon="-1.2071">
        <ele>65</ele>
        <time>2022-08-27T19:54:49Z</time>
      </trkpt>
      <trkpt lat="48.08619" lon="-1.20664">
        <ele>64.4</ele>
        <time>2022-08-27T19:54:55Z</time>
      </trkpt>
      <trkpt lat="48.08587" lon="-1.20611">
        <ele>64</ele>
        <time>2022-08-27T19:55:01Z</time>
      </trkpt>
      <trkpt lat="48.08559" lon="-1.20567">
        <ele>63.4</ele>
        <time>2022-08-27T19:55:06Z</time>
      </trkpt>
      <trkpt lat="48.08554" lon="-1.20558">
        <ele>63.2</ele>
        <time>2022-08-27T19:55:07Z</time>
      </trkpt>
      <trkpt lat="48.08538" lon="-1.20532">
        <ele>62.8</ele>
        <time>2022-08-27T19:55:10Z</time>
      </trkpt>
      <trkpt lat="48.08508" lon="-1.20483">
        <ele>62</ele>
        <time>2022-08-27T19:55:16Z</time>
      </trkpt>
      <trkpt lat="48.08475" lon="-1.20426">
        <ele>61.2</ele>
        <time>2022-08-27T19:55:23Z</time>
      </trkpt>
      <trkpt lat="48.08458" lon="-1.20399">
        <ele>60.2</ele>
        <time>2022-08-27T19:55:27Z</time>
      </trkpt>
      <trkpt lat="48.08444" lon="-1.20384">
        <ele>59</ele>
        <time>2022-08-27T19:55:31Z</time>
      </trkpt>
      <trkpt lat="48.08438" lon="-1.20372">
        <ele>58.4</ele>
        <time>2022-08-27T19:55:33Z</time>
      </trkpt>
      <trkpt lat="48.08434" lon="-1.20366">
        <ele>57.8</ele>
        <time>2022-08-27T19:55:34Z</time>
      </trkpt>
      <trkpt lat="48.08415" lon="-1.20335">
        <ele>56.4</ele>
        <time>2022-08-27T19:55:38Z</time>
      </trkpt>
      <trkpt lat="48.08404" lon="-1.20311">
        <ele>55.8</ele>
        <time>2022-08-27T19:55:40Z</time>
      </trkpt>
      <trkpt lat="48.08399" lon="-1.20303">
        <ele>55.4</ele>
        <time>2022-08-27T19:55:41Z</time>
      </trkpt>
      <trkpt lat="48.08385" lon="-1.20279">
        <ele>54</ele>
        <time>2022-08-27T19:55:45Z</time>
      </trkpt>
      <trkpt lat="48.08381" lon="-1.20272">
        <ele>54</ele>
        <time>2022-08-27T19:55:46Z</time>
      </trkpt>
      <trkpt lat="48.08377" lon="-1.20266">
        <ele>54</ele>
        <time>2022-08-27T19:55:47Z</time>
      </trkpt>
      <trkpt lat="48.08367" lon="-1.20249">
        <ele>54</ele>
        <time>2022-08-27T19:55:50Z</time>
      </trkpt>
      <trkpt lat="48.08365" lon="-1.20246">
        <ele>54.2</ele>
        <time>2022-08-27T19:55:51Z</time>
      </trkpt>
      <trkpt lat="48.08359" lon="-1.20239">
        <ele>54.8</ele>
        <time>2022-08-27T19:55:53Z</time>
      </trkpt>
      <trkpt lat="48.08356" lon="-1.20237">
        <ele>55.2</ele>
        <time>2022-08-27T19:55:55Z</time>
      </trkpt>
      <trkpt lat="48.08355" lon="-1.20234">
        <ele>54.8</ele>
        <time>2022-08-27T19:56:01Z</time>
      </trkpt>
      <trkpt lat="48.08354" lon="-1.20231">
        <ele>54.8</ele>
        <time>2022-08-27T19:56:02Z</time>
      </trkpt>
      <trkpt lat="48.08345" lon="-1.20213">
        <ele>52.8</ele>
        <time>2022-08-27T19:56:07Z</time>
      </trkpt>
      <trkpt lat="48.0834" lon="-1.20208">
        <ele>53.4</ele>
        <time>2022-08-27T19:56:09Z</time>
      </trkpt>
      <trkpt lat="48.08335" lon="-1.20198">
        <ele>53.8</ele>
        <time>2022-08-27T19:56:11Z</time>
      </trkpt>
      <trkpt lat="48.08322" lon="-1.20173">
        <ele>55</ele>
        <time>2022-08-27T19:56:15Z</time>
      </trkpt>
      <trkpt lat="48.08296" lon="-1.2013">
        <ele>55.2</ele>
        <time>2022-08-27T19:56:21Z</time>
      </trkpt>
      <trkpt lat="48.08288" lon="-1.20116">
        <ele>54.8</ele>
        <time>2022-08-27T19:56:23Z</time>
      </trkpt>
      <trkpt lat="48.0828" lon="-1.20102">
        <ele>54.4</ele>
        <time>2022-08-27T19:56:25Z</time>
      </trkpt>
      <trkpt lat="48.08267" lon="-1.20083">
        <ele>53.8</ele>
        <time>2022-08-27T19:56:28Z</time>
      </trkpt>
      <trkpt lat="48.08259" lon="-1.20069">
        <ele>53.4</ele>
        <time>2022-08-27T19:56:30Z</time>
      </trkpt>
      <trkpt lat="48.08256" lon="-1.20062">
        <ele>54</ele>
        <time>2022-08-27T19:56:31Z</time>
      </trkpt>
      <trkpt lat="48.08243" lon="-1.2004">
        <ele>53.8</ele>
        <time>2022-08-27T19:56:34Z</time>
      </trkpt>
      <trkpt lat="48.0822" lon="-1.20006">
        <ele>53.6</ele>
        <time>2022-08-27T19:56:39Z</time>
      </trkpt>
      <trkpt lat="48.08217" lon="-1.19999">
        <ele>53.6</ele>
        <time>2022-08-27T19:56:40Z</time>
      </trkpt>
      <trkpt lat="48.08213" lon="-1.19992">
        <ele>53.6</ele>
        <time>2022-08-27T19:56:41Z</time>
      </trkpt>
      <trkpt lat="48.08209" lon="-1.19985">
        <ele>53.6</ele>
        <time>2022-08-27T19:56:42Z</time>
      </trkpt>
      <trkpt lat="48.08196" lon="-1.19964">
        <ele>53.4</ele>
        <time>2022-08-27T19:56:45Z</time>
      </trkpt>
      <trkpt lat="48.08188" lon="-1.1995">
        <ele>53.4</ele>
        <time>2022-08-27T19:56:47Z</time>
      </trkpt>
      <trkpt lat="48.08174" lon="-1.19929">
        <ele>53.2</ele>
        <time>2022-08-27T19:56:50Z</time>
      </trkpt>
      <trkpt lat="48.08154" lon="-1.19895">
        <ele>53</ele>
        <time>2022-08-27T19:56:55Z</time>
      </trkpt>
      <trkpt lat="48.08146" lon="-1.1988">
        <ele>52.8</ele>
        <time>2022-08-27T19:56:57Z</time>
      </trkpt>
      <trkpt lat="48.08137" lon="-1.19864">
        <ele>52.8</ele>
        <time>2022-08-27T19:56:59Z</time>
      </trkpt>
      <trkpt lat="48.08132" lon="-1.19856">
        <ele>52.6</ele>
        <time>2022-08-27T19:57:00Z</time>
      </trkpt>
      <trkpt lat="48.08119" lon="-1.19833">
        <ele>52.4</ele>
        <time>2022-08-27T19:57:03Z</time>
      </trkpt>
      <trkpt lat="48.08114" lon="-1.19826">
        <ele>52.4</ele>
        <time>2022-08-27T19:57:04Z</time>
      </trkpt>
      <trkpt lat="48.08104" lon="-1.19811">
        <ele>52.4</ele>
        <time>2022-08-27T19:57:06Z</time>
      </trkpt>
      <trkpt lat="48.08071" lon="-1.19757">
        <ele>52.8</ele>
        <time>2022-08-27T19:57:13Z</time>
      </trkpt>
      <trkpt lat="48.08045" lon="-1.19714">
        <ele>53.2</ele>
        <time>2022-08-27T19:57:19Z</time>
      </trkpt>
      <trkpt lat="48.08028" lon="-1.19686">
        <ele>53.2</ele>
        <time>2022-08-27T19:57:23Z</time>
      </trkpt>
      <trkpt lat="48.08007" lon="-1.19652">
        <ele>53.2</ele>
        <time>2022-08-27T19:57:28Z</time>
      </trkpt>
      <trkpt lat="48.07989" lon="-1.19626">
        <ele>53.2</ele>
        <time>2022-08-27T19:57:32Z</time>
      </trkpt>
      <trkpt lat="48.07979" lon="-1.1961">
        <ele>53.2</ele>
        <time>2022-08-27T19:57:34Z</time>
      </trkpt>
      <trkpt lat="48.07971" lon="-1.19594">
        <ele>53.4</ele>
        <time>2022-08-27T19:57:36Z</time>
      </trkpt>
      <trkpt lat="48.07958" lon="-1.19571">
        <ele>53.6</ele>
        <time>2022-08-27T19:57:39Z</time>
      </trkpt>
      <trkpt lat="48.0795" lon="-1.19556">
        <ele>53.8</ele>
        <time>2022-08-27T19:57:41Z</time>
      </trkpt>
      <trkpt lat="48.07946" lon="-1.19549">
        <ele>54</ele>
        <time>2022-08-27T19:57:42Z</time>
      </trkpt>
      <trkpt lat="48.07929" lon="-1.19521">
        <ele>54.2</ele>
        <time>2022-08-27T19:57:46Z</time>
      </trkpt>
      <trkpt lat="48.07907" lon="-1.19487">
        <ele>54.2</ele>
        <time>2022-08-27T19:57:51Z</time>
      </trkpt>
      <trkpt lat="48.07903" lon="-1.19479">
        <ele>54.4</ele>
        <time>2022-08-27T19:57:52Z</time>
      </trkpt>
      <trkpt lat="48.0789" lon="-1.19459">
        <ele>54.4</ele>
        <time>2022-08-27T19:57:55Z</time>
      </trkpt>
      <trkpt lat="48.07873" lon="-1.1943">
        <ele>54.4</ele>
        <time>2022-08-27T19:57:59Z</time>
      </trkpt>
      <trkpt lat="48.07852" lon="-1.19395">
        <ele>54.6</ele>
        <time>2022-08-27T19:58:04Z</time>
      </trkpt>
      <trkpt lat="48.07848" lon="-1.19388">
        <ele>54.6</ele>
        <time>2022-08-27T19:58:05Z</time>
      </trkpt>
      <trkpt lat="48.07839" lon="-1.19373">
        <ele>54.6</ele>
        <time>2022-08-27T19:58:07Z</time>
      </trkpt>
      <trkpt lat="48.07816" lon="-1.19336">
        <ele>55</ele>
        <time>2022-08-27T19:58:12Z</time>
      </trkpt>
      <trkpt lat="48.07787" lon="-1.19288">
        <ele>55.4</ele>
        <time>2022-08-27T19:58:19Z</time>
      </trkpt>
      <trkpt lat="48.07778" lon="-1.19274">
        <ele>55.4</ele>
        <time>2022-08-27T19:58:21Z</time>
      </trkpt>
      <trkpt lat="48.07766" lon="-1.19255">
        <ele>55.4</ele>
        <time>2022-08-27T19:58:24Z</time>
      </trkpt>
      <trkpt lat="48.07759" lon="-1.19242">
        <ele>55.6</ele>
        <time>2022-08-27T19:58:26Z</time>
      </trkpt>
      <trkpt lat="48.07756" lon="-1.19235">
        <ele>55.6</ele>
        <time>2022-08-27T19:58:27Z</time>
      </trkpt>
      <trkpt lat="48.07753" lon="-1.19227">
        <ele>55.6</ele>
        <time>2022-08-27T19:58:28Z</time>
      </trkpt>
      <trkpt lat="48.0775" lon="-1.19219">
        <ele>55.6</ele>
        <time>2022-08-27T19:58:29Z</time>
      </trkpt>
      <trkpt lat="48.07746" lon="-1.19213">
        <ele>55.6</ele>
        <time>2022-08-27T19:58:30Z</time>
      </trkpt>
      <trkpt lat="48.07734" lon="-1.19196">
        <ele>55.6</ele>
        <time>2022-08-27T19:58:33Z</time>
      </trkpt>
      <trkpt lat="48.07729" lon="-1.19189">
        <ele>55.6</ele>
        <time>2022-08-27T19:58:34Z</time>
      </trkpt>
      <trkpt lat="48.07721" lon="-1.19176">
        <ele>55.6</ele>
        <time>2022-08-27T19:58:36Z</time>
      </trkpt>
      <trkpt lat="48.07716" lon="-1.19169">
        <ele>55.6</ele>
        <time>2022-08-27T19:58:37Z</time>
      </trkpt>
      <trkpt lat="48.07712" lon="-1.19162">
        <ele>55.6</ele>
        <time>2022-08-27T19:58:38Z</time>
      </trkpt>
      <trkpt lat="48.07704" lon="-1.19149">
        <ele>55.6</ele>
        <time>2022-08-27T19:58:40Z</time>
      </trkpt>
      <trkpt lat="48.07678" lon="-1.19105">
        <ele>56</ele>
        <time>2022-08-27T19:58:46Z</time>
      </trkpt>
      <trkpt lat="48.07673" lon="-1.19097">
        <ele>56</ele>
        <time>2022-08-27T19:58:47Z</time>
      </trkpt>
      <trkpt lat="48.07656" lon="-1.19068">
        <ele>56.2</ele>
        <time>2022-08-27T19:58:51Z</time>
      </trkpt>
      <trkpt lat="48.07632" lon="-1.19028">
        <ele>56.4</ele>
        <time>2022-08-27T19:58:57Z</time>
      </trkpt>
      <trkpt lat="48.07623" lon="-1.1901">
        <ele>56.4</ele>
        <time>2022-08-27T19:59:00Z</time>
      </trkpt>
      <trkpt lat="48.0762" lon="-1.19006">
        <ele>56.4</ele>
        <time>2022-08-27T19:59:01Z</time>
      </trkpt>
      <trkpt lat="48.07615" lon="-1.19002">
        <ele>56.6</ele>
        <time>2022-08-27T19:59:02Z</time>
      </trkpt>
      <trkpt lat="48.07609" lon="-1.18992">
        <ele>56.6</ele>
        <time>2022-08-27T19:59:04Z</time>
      </trkpt>
      <trkpt lat="48.07607" lon="-1.18987">
        <ele>56.6</ele>
        <time>2022-08-27T19:59:05Z</time>
      </trkpt>
      <trkpt lat="48.07604" lon="-1.18982">
        <ele>56.6</ele>
        <time>2022-08-27T19:59:06Z</time>
      </trkpt>
      <trkpt lat="48.07597" lon="-1.1897">
        <ele>56.6</ele>
        <time>2022-08-27T19:59:08Z</time>
      </trkpt>
      <trkpt lat="48.07578" lon="-1.18939">
        <ele>56.6</ele>
        <time>2022-08-27T19:59:13Z</time>
      </trkpt>
      <trkpt lat="48.07564" lon="-1.18916">
        <ele>56.2</ele>
        <time>2022-08-27T19:59:17Z</time>
      </trkpt>
      <trkpt lat="48.0756" lon="-1.18911">
        <ele>56.2</ele>
        <time>2022-08-27T19:59:18Z</time>
      </trkpt>
      <trkpt lat="48.07548" lon="-1.18892">
        <ele>56</ele>
        <time>2022-08-27T19:59:21Z</time>
      </trkpt>
      <trkpt lat="48.07535" lon="-1.18871">
        <ele>55.8</ele>
        <time>2022-08-27T19:59:24Z</time>
      </trkpt>
      <trkpt lat="48.07531" lon="-1.18864">
        <ele>55.6</ele>
        <time>2022-08-27T19:59:25Z</time>
      </trkpt>
      <trkpt lat="48.07526" lon="-1.18856">
        <ele>55.6</ele>
        <time>2022-08-27T19:59:26Z</time>
      </trkpt>
      <trkpt lat="48.07519" lon="-1.18844">
        <ele>55.6</ele>
        <time>2022-08-27T19:59:28Z</time>
      </trkpt>
      <trkpt lat="48.07512" lon="-1.18832">
        <ele>55.4</ele>
        <time>2022-08-27T19:59:30Z</time>
      </trkpt>
      <trkpt lat="48.07501" lon="-1.18812">
        <ele>55.4</ele>
        <time>2022-08-27T19:59:33Z</time>
      </trkpt>
      <trkpt lat="48.0749" lon="-1.18792">
        <ele>55.2</ele>
        <time>2022-08-27T19:59:36Z</time>
      </trkpt>
      <trkpt lat="48.07473" lon="-1.18758">
        <ele>54.8</ele>
        <time>2022-08-27T19:59:40Z</time>
      </trkpt>
      <trkpt lat="48.07466" lon="-1.18742">
        <ele>54.6</ele>
        <time>2022-08-27T19:59:42Z</time>
      </trkpt>
      <trkpt lat="48.07461" lon="-1.18728">
        <ele>54.4</ele>
        <time>2022-08-27T19:59:44Z</time>
      </trkpt>
      <trkpt lat="48.07458" lon="-1.18721">
        <ele>54.2</ele>
        <time>2022-08-27T19:59:45Z</time>
      </trkpt>
      <trkpt lat="48.07448" lon="-1.187">
        <ele>54</ele>
        <time>2022-08-27T19:59:48Z</time>
      </trkpt>
      <trkpt lat="48.07434" lon="-1.18667">
        <ele>53.8</ele>
        <time>2022-08-27T19:59:52Z</time>
      </trkpt>
      <trkpt lat="48.07431" lon="-1.18658">
        <ele>53.8</ele>
        <time>2022-08-27T19:59:53Z</time>
      </trkpt>
      <trkpt lat="48.07423" lon="-1.18639">
        <ele>53.6</ele>
        <time>2022-08-27T19:59:55Z</time>
      </trkpt>
      <trkpt lat="48.07416" lon="-1.18622">
        <ele>53.6</ele>
        <time>2022-08-27T19:59:57Z</time>
      </trkpt>
      <trkpt lat="48.07409" lon="-1.18604">
        <ele>53.6</ele>
        <time>2022-08-27T19:59:59Z</time>
      </trkpt>
      <trkpt lat="48.07399" lon="-1.18575">
        <ele>54</ele>
        <time>2022-08-27T20:00:02Z</time>
      </trkpt>
      <trkpt lat="48.07393" lon="-1.18558">
        <ele>53.4</ele>
        <time>2022-08-27T20:00:04Z</time>
      </trkpt>
      <trkpt lat="48.07388" lon="-1.18544">
        <ele>54.2</ele>
        <time>2022-08-27T20:00:06Z</time>
      </trkpt>
      <trkpt lat="48.07382" lon="-1.18528">
        <ele>54.8</ele>
        <time>2022-08-27T20:00:08Z</time>
      </trkpt>
      <trkpt lat="48.07376" lon="-1.18511">
        <ele>55</ele>
        <time>2022-08-27T20:00:10Z</time>
      </trkpt>
      <trkpt lat="48.07361" lon="-1.18472">
        <ele>54.4</ele>
        <time>2022-08-27T20:00:15Z</time>
      </trkpt>
      <trkpt lat="48.07353" lon="-1.18448">
        <ele>54.8</ele>
        <time>2022-08-27T20:00:18Z</time>
      </trkpt>
      <trkpt lat="48.07348" lon="-1.18432">
        <ele>55</ele>
        <time>2022-08-27T20:00:20Z</time>
      </trkpt>
      <trkpt lat="48.07339" lon="-1.18409">
        <ele>55.4</ele>
        <time>2022-08-27T20:00:23Z</time>
      </trkpt>
      <trkpt lat="48.07334" lon="-1.18391">
        <ele>55.8</ele>
        <time>2022-08-27T20:00:25Z</time>
      </trkpt>
      <trkpt lat="48.07328" lon="-1.18376">
        <ele>56</ele>
        <time>2022-08-27T20:00:27Z</time>
      </trkpt>
      <trkpt lat="48.07323" lon="-1.18362">
        <ele>56</ele>
        <time>2022-08-27T20:00:29Z</time>
      </trkpt>
      <trkpt lat="48.07321" lon="-1.18355">
        <ele>56.2</ele>
        <time>2022-08-27T20:00:30Z</time>
      </trkpt>
      <trkpt lat="48.07314" lon="-1.18334">
        <ele>56.4</ele>
        <time>2022-08-27T20:00:33Z</time>
      </trkpt>
      <trkpt lat="48.07309" lon="-1.1832">
        <ele>56.6</ele>
        <time>2022-08-27T20:00:35Z</time>
      </trkpt>
      <trkpt lat="48.07305" lon="-1.18305">
        <ele>56.8</ele>
        <time>2022-08-27T20:00:37Z</time>
      </trkpt>
      <trkpt lat="48.07301" lon="-1.1829">
        <ele>57</ele>
        <time>2022-08-27T20:00:39Z</time>
      </trkpt>
      <trkpt lat="48.07287" lon="-1.18255">
        <ele>57.6</ele>
        <time>2022-08-27T20:00:44Z</time>
      </trkpt>
      <trkpt lat="48.07265" lon="-1.18206">
        <ele>58.4</ele>
        <time>2022-08-27T20:00:51Z</time>
      </trkpt>
      <trkpt lat="48.07258" lon="-1.18187">
        <ele>58.6</ele>
        <time>2022-08-27T20:00:54Z</time>
      </trkpt>
      <trkpt lat="48.07253" lon="-1.18174">
        <ele>58.8</ele>
        <time>2022-08-27T20:00:56Z</time>
      </trkpt>
      <trkpt lat="48.0725" lon="-1.18167">
        <ele>59</ele>
        <time>2022-08-27T20:00:57Z</time>
      </trkpt>
      <trkpt lat="48.07247" lon="-1.18159">
        <ele>59</ele>
        <time>2022-08-27T20:00:58Z</time>
      </trkpt>
      <trkpt lat="48.0724" lon="-1.18145">
        <ele>59.2</ele>
        <time>2022-08-27T20:01:00Z</time>
      </trkpt>
      <trkpt lat="48.07236" lon="-1.18139">
        <ele>59.2</ele>
        <time>2022-08-27T20:01:01Z</time>
      </trkpt>
      <trkpt lat="48.07214" lon="-1.18098">
        <ele>59.4</ele>
        <time>2022-08-27T20:01:07Z</time>
      </trkpt>
      <trkpt lat="48.07195" lon="-1.18064">
        <ele>60</ele>
        <time>2022-08-27T20:01:12Z</time>
      </trkpt>
      <trkpt lat="48.07187" lon="-1.18052">
        <ele>60.2</ele>
        <time>2022-08-27T20:01:14Z</time>
      </trkpt>
      <trkpt lat="48.07174" lon="-1.18033">
        <ele>60.4</ele>
        <time>2022-08-27T20:01:17Z</time>
      </trkpt>
      <trkpt lat="48.07169" lon="-1.18027">
        <ele>60.4</ele>
        <time>2022-08-27T20:01:18Z</time>
      </trkpt>
      <trkpt lat="48.07156" lon="-1.18008">
        <ele>60.6</ele>
        <time>2022-08-27T20:01:21Z</time>
      </trkpt>
      <trkpt lat="48.07151" lon="-1.18002">
        <ele>60.6</ele>
        <time>2022-08-27T20:01:22Z</time>
      </trkpt>
      <trkpt lat="48.07134" lon="-1.17982">
        <ele>60.6</ele>
        <time>2022-08-27T20:01:26Z</time>
      </trkpt>
      <trkpt lat="48.07108" lon="-1.17948">
        <ele>60.6</ele>
        <time>2022-08-27T20:01:31Z</time>
      </trkpt>
      <trkpt lat="48.07084" lon="-1.17917">
        <ele>60.8</ele>
        <time>2022-08-27T20:01:35Z</time>
      </trkpt>
      <trkpt lat="48.0705" lon="-1.17871">
        <ele>61</ele>
        <time>2022-08-27T20:01:41Z</time>
      </trkpt>
      <trkpt lat="48.07022" lon="-1.17836">
        <ele>61.2</ele>
        <time>2022-08-27T20:01:46Z</time>
      </trkpt>
      <trkpt lat="48.07014" lon="-1.17829">
        <ele>61.2</ele>
        <time>2022-08-27T20:01:48Z</time>
      </trkpt>
      <trkpt lat="48.0699" lon="-1.17797">
        <ele>61.6</ele>
        <time>2022-08-27T20:01:53Z</time>
      </trkpt>
      <trkpt lat="48.0698" lon="-1.17783">
        <ele>61.6</ele>
        <time>2022-08-27T20:01:54Z</time>
      </trkpt>
      <trkpt lat="48.06942" lon="-1.1773">
        <ele>61.8</ele>
        <time>2022-08-27T20:02:00Z</time>
      </trkpt>
      <trkpt lat="48.06912" lon="-1.17689">
        <ele>62</ele>
        <time>2022-08-27T20:02:06Z</time>
      </trkpt>
      <trkpt lat="48.06907" lon="-1.17682">
        <ele>62</ele>
        <time>2022-08-27T20:02:07Z</time>
      </trkpt>
      <trkpt lat="48.06898" lon="-1.17669">
        <ele>62.2</ele>
        <time>2022-08-27T20:02:09Z</time>
      </trkpt>
      <trkpt lat="48.06888" lon="-1.17656">
        <ele>62.2</ele>
        <time>2022-08-27T20:02:11Z</time>
      </trkpt>
      <trkpt lat="48.06863" lon="-1.17613">
        <ele>62.4</ele>
        <time>2022-08-27T20:02:17Z</time>
      </trkpt>
      <trkpt lat="48.06833" lon="-1.17562">
        <ele>62.6</ele>
        <time>2022-08-27T20:02:24Z</time>
      </trkpt>
      <trkpt lat="48.06805" lon="-1.17508">
        <ele>62.8</ele>
        <time>2022-08-27T20:02:31Z</time>
      </trkpt>
      <trkpt lat="48.06801" lon="-1.17501">
        <ele>62.8</ele>
        <time>2022-08-27T20:02:32Z</time>
      </trkpt>
      <trkpt lat="48.06784" lon="-1.17463">
        <ele>62.8</ele>
        <time>2022-08-27T20:02:37Z</time>
      </trkpt>
      <trkpt lat="48.06767" lon="-1.17425">
        <ele>62.6</ele>
        <time>2022-08-27T20:02:42Z</time>
      </trkpt>
      <trkpt lat="48.06749" lon="-1.17386">
        <ele>62.6</ele>
        <time>2022-08-27T20:02:47Z</time>
      </trkpt>
      <trkpt lat="48.06728" lon="-1.17339">
        <ele>62.8</ele>
        <time>2022-08-27T20:02:53Z</time>
      </trkpt>
      <trkpt lat="48.06711" lon="-1.17304">
        <ele>62.6</ele>
        <time>2022-08-27T20:02:58Z</time>
      </trkpt>
      <trkpt lat="48.06704" lon="-1.17289">
        <ele>62.6</ele>
        <time>2022-08-27T20:03:00Z</time>
      </trkpt>
      <trkpt lat="48.06691" lon="-1.17261">
        <ele>62.4</ele>
        <time>2022-08-27T20:03:04Z</time>
      </trkpt>
      <trkpt lat="48.06671" lon="-1.17217">
        <ele>62.4</ele>
        <time>2022-08-27T20:03:10Z</time>
      </trkpt>
      <trkpt lat="48.06668" lon="-1.17209">
        <ele>62.4</ele>
        <time>2022-08-27T20:03:11Z</time>
      </trkpt>
      <trkpt lat="48.06653" lon="-1.17181">
        <ele>62.4</ele>
        <time>2022-08-27T20:03:15Z</time>
      </trkpt>
      <trkpt lat="48.06647" lon="-1.17171">
        <ele>62.4</ele>
        <time>2022-08-27T20:03:17Z</time>
      </trkpt>
      <trkpt lat="48.0664" lon="-1.1716">
        <ele>62.2</ele>
        <time>2022-08-27T20:03:19Z</time>
      </trkpt>
      <trkpt lat="48.0663" lon="-1.17153">
        <ele>62.8</ele>
        <time>2022-08-27T20:03:21Z</time>
      </trkpt>
      <trkpt lat="48.06625" lon="-1.17151">
        <ele>62.6</ele>
        <time>2022-08-27T20:03:22Z</time>
      </trkpt>
      <trkpt lat="48.0662" lon="-1.1715">
        <ele>62.6</ele>
        <time>2022-08-27T20:03:23Z</time>
      </trkpt>
      <trkpt lat="48.06609" lon="-1.17149">
        <ele>62.6</ele>
        <time>2022-08-27T20:03:25Z</time>
      </trkpt>
      <trkpt lat="48.06604" lon="-1.17148">
        <ele>62.6</ele>
        <time>2022-08-27T20:03:26Z</time>
      </trkpt>
      <trkpt lat="48.06583" lon="-1.17144">
        <ele>62.6</ele>
        <time>2022-08-27T20:03:30Z</time>
      </trkpt>
      <trkpt lat="48.06578" lon="-1.17143">
        <ele>62.6</ele>
        <time>2022-08-27T20:03:31Z</time>
      </trkpt>
      <trkpt lat="48.06563" lon="-1.17138">
        <ele>62.6</ele>
        <time>2022-08-27T20:03:35Z</time>
      </trkpt>
      <trkpt lat="48.0656" lon="-1.17126">
        <ele>62.6</ele>
        <time>2022-08-27T20:03:37Z</time>
      </trkpt>
      <trkpt lat="48.06559" lon="-1.17113">
        <ele>62.8</ele>
        <time>2022-08-27T20:03:39Z</time>
      </trkpt>
      <trkpt lat="48.06561" lon="-1.17064">
        <ele>63</ele>
        <time>2022-08-27T20:03:46Z</time>
      </trkpt>
      <trkpt lat="48.06562" lon="-1.17035">
        <ele>63.6</ele>
        <time>2022-08-27T20:03:51Z</time>
      </trkpt>
      <trkpt lat="48.0656" lon="-1.17031">
        <ele>63.6</ele>
        <time>2022-08-27T20:03:52Z</time>
      </trkpt>
      <trkpt lat="48.06552" lon="-1.17019">
        <ele>63.6</ele>
        <time>2022-08-27T20:03:55Z</time>
      </trkpt>
      <trkpt lat="48.06526" lon="-1.16981">
        <ele>63.8</ele>
        <time>2022-08-27T20:04:03Z</time>
      </trkpt>
      <trkpt lat="48.06513" lon="-1.1696">
        <ele>64</ele>
        <time>2022-08-27T20:04:07Z</time>
      </trkpt>
      <trkpt lat="48.06506" lon="-1.1695">
        <ele>64</ele>
        <time>2022-08-27T20:04:09Z</time>
      </trkpt>
      <trkpt lat="48.06486" lon="-1.16922">
        <ele>64.2</ele>
        <time>2022-08-27T20:04:15Z</time>
      </trkpt>
      <trkpt lat="48.06462" lon="-1.16888">
        <ele>64.2</ele>
        <time>2022-08-27T20:04:22Z</time>
      </trkpt>
      <trkpt lat="48.06454" lon="-1.16877">
        <ele>64.2</ele>
        <time>2022-08-27T20:04:25Z</time>
      </trkpt>
      <trkpt lat="48.06451" lon="-1.16872">
        <ele>64</ele>
        <time>2022-08-27T20:04:26Z</time>
      </trkpt>
      <trkpt lat="48.06447" lon="-1.16867">
        <ele>64.2</ele>
        <time>2022-08-27T20:04:27Z</time>
      </trkpt>
      <trkpt lat="48.06437" lon="-1.16851">
        <ele>63.8</ele>
        <time>2022-08-27T20:04:30Z</time>
      </trkpt>
      <trkpt lat="48.06434" lon="-1.16846">
        <ele>63.8</ele>
        <time>2022-08-27T20:04:31Z</time>
      </trkpt>
      <trkpt lat="48.06428" lon="-1.16836">
        <ele>63.6</ele>
        <time>2022-08-27T20:04:33Z</time>
      </trkpt>
      <trkpt lat="48.06416" lon="-1.16822">
        <ele>63.6</ele>
        <time>2022-08-27T20:04:36Z</time>
      </trkpt>
      <trkpt lat="48.06404" lon="-1.16807">
        <ele>63.2</ele>
        <time>2022-08-27T20:04:39Z</time>
      </trkpt>
      <trkpt lat="48.06383" lon="-1.16777">
        <ele>62.4</ele>
        <time>2022-08-27T20:04:45Z</time>
      </trkpt>
      <trkpt lat="48.06366" lon="-1.16752">
        <ele>61.6</ele>
        <time>2022-08-27T20:04:50Z</time>
      </trkpt>
      <trkpt lat="48.06356" lon="-1.16737">
        <ele>61</ele>
        <time>2022-08-27T20:04:53Z</time>
      </trkpt>
      <trkpt lat="48.06349" lon="-1.16727">
        <ele>60.8</ele>
        <time>2022-08-27T20:04:55Z</time>
      </trkpt>
      <trkpt lat="48.06339" lon="-1.16712">
        <ele>60.2</ele>
        <time>2022-08-27T20:04:58Z</time>
      </trkpt>
      <trkpt lat="48.06331" lon="-1.16701">
        <ele>60</ele>
        <time>2022-08-27T20:05:00Z</time>
      </trkpt>
      <trkpt lat="48.06317" lon="-1.16681">
        <ele>59.6</ele>
        <time>2022-08-27T20:05:04Z</time>
      </trkpt>
      <trkpt lat="48.06313" lon="-1.16677">
        <ele>59.6</ele>
        <time>2022-08-27T20:05:05Z</time>
      </trkpt>
      <trkpt lat="48.063" lon="-1.16657">
        <ele>59</ele>
        <time>2022-08-27T20:05:09Z</time>
      </trkpt>
      <trkpt lat="48.06295" lon="-1.16648">
        <ele>58.8</ele>
        <time>2022-08-27T20:05:11Z</time>
      </trkpt>
      <trkpt lat="48.06289" lon="-1.16637">
        <ele>58.6</ele>
        <time>2022-08-27T20:05:13Z</time>
      </trkpt>
      <trkpt lat="48.06265" lon="-1.16604">
        <ele>58</ele>
        <time>2022-08-27T20:05:20Z</time>
      </trkpt>
      <trkpt lat="48.06248" lon="-1.16579">
        <ele>58</ele>
        <time>2022-08-27T20:05:25Z</time>
      </trkpt>
      <trkpt lat="48.06231" lon="-1.16553">
        <ele>58.2</ele>
        <time>2022-08-27T20:05:30Z</time>
      </trkpt>
      <trkpt lat="48.06211" lon="-1.16528">
        <ele>58</ele>
        <time>2022-08-27T20:05:35Z</time>
      </trkpt>
      <trkpt lat="48.06208" lon="-1.16523">
        <ele>58.2</ele>
        <time>2022-08-27T20:05:36Z</time>
      </trkpt>
      <trkpt lat="48.06182" lon="-1.16485">
        <ele>58.8</ele>
        <time>2022-08-27T20:05:43Z</time>
      </trkpt>
      <trkpt lat="48.06159" lon="-1.16449">
        <ele>59.4</ele>
        <time>2022-08-27T20:05:49Z</time>
      </trkpt>
      <trkpt lat="48.06148" lon="-1.16432">
        <ele>59.4</ele>
        <time>2022-08-27T20:05:52Z</time>
      </trkpt>
      <trkpt lat="48.06144" lon="-1.16428">
        <ele>59.4</ele>
        <time>2022-08-27T20:05:53Z</time>
      </trkpt>
      <trkpt lat="48.06118" lon="-1.16393">
        <ele>60.2</ele>
        <time>2022-08-27T20:06:00Z</time>
      </trkpt>
      <trkpt lat="48.06102" lon="-1.16374">
        <ele>60.4</ele>
        <time>2022-08-27T20:06:04Z</time>
      </trkpt>
      <trkpt lat="48.0609" lon="-1.16363">
        <ele>60.6</ele>
        <time>2022-08-27T20:06:07Z</time>
      </trkpt>
      <trkpt lat="48.06086" lon="-1.16358">
        <ele>60.6</ele>
        <time>2022-08-27T20:06:08Z</time>
      </trkpt>
      <trkpt lat="48.06067" lon="-1.16338">
        <ele>61</ele>
        <time>2022-08-27T20:06:13Z</time>
      </trkpt>
      <trkpt lat="48.06046" lon="-1.16318">
        <ele>61.4</ele>
        <time>2022-08-27T20:06:18Z</time>
      </trkpt>
      <trkpt lat="48.0602" lon="-1.16296">
        <ele>61.6</ele>
        <time>2022-08-27T20:06:24Z</time>
      </trkpt>
      <trkpt lat="48.05998" lon="-1.16281">
        <ele>62</ele>
        <time>2022-08-27T20:06:29Z</time>
      </trkpt>
      <trkpt lat="48.05979" lon="-1.16268">
        <ele>62.2</ele>
        <time>2022-08-27T20:06:33Z</time>
      </trkpt>
      <trkpt lat="48.05975" lon="-1.16264">
        <ele>62.2</ele>
        <time>2022-08-27T20:06:34Z</time>
      </trkpt>
      <trkpt lat="48.05965" lon="-1.16259">
        <ele>62.4</ele>
        <time>2022-08-27T20:06:36Z</time>
      </trkpt>
      <trkpt lat="48.05961" lon="-1.16256">
        <ele>62.4</ele>
        <time>2022-08-27T20:06:37Z</time>
      </trkpt>
      <trkpt lat="48.05942" lon="-1.16244">
        <ele>62.8</ele>
        <time>2022-08-27T20:06:41Z</time>
      </trkpt>
      <trkpt lat="48.05924" lon="-1.16235">
        <ele>63</ele>
        <time>2022-08-27T20:06:45Z</time>
      </trkpt>
      <trkpt lat="48.05919" lon="-1.16233">
        <ele>63</ele>
        <time>2022-08-27T20:06:46Z</time>
      </trkpt>
      <trkpt lat="48.05889" lon="-1.16218">
        <ele>63.6</ele>
        <time>2022-08-27T20:06:52Z</time>
      </trkpt>
      <trkpt lat="48.05875" lon="-1.16214">
        <ele>63.8</ele>
        <time>2022-08-27T20:06:55Z</time>
      </trkpt>
      <trkpt lat="48.05863" lon="-1.16209">
        <ele>63.8</ele>
        <time>2022-08-27T20:06:57Z</time>
      </trkpt>
      <trkpt lat="48.05858" lon="-1.16207">
        <ele>64</ele>
        <time>2022-08-27T20:06:58Z</time>
      </trkpt>
      <trkpt lat="48.05843" lon="-1.16202">
        <ele>64.2</ele>
        <time>2022-08-27T20:07:01Z</time>
      </trkpt>
      <trkpt lat="48.05825" lon="-1.16197">
        <ele>64.6</ele>
        <time>2022-08-27T20:07:05Z</time>
      </trkpt>
      <trkpt lat="48.05815" lon="-1.16193">
        <ele>64.8</ele>
        <time>2022-08-27T20:07:07Z</time>
      </trkpt>
      <trkpt lat="48.05805" lon="-1.16193">
        <ele>65</ele>
        <time>2022-08-27T20:07:09Z</time>
      </trkpt>
      <trkpt lat="48.05793" lon="-1.16196">
        <ele>65.2</ele>
        <time>2022-08-27T20:07:11Z</time>
      </trkpt>
      <trkpt lat="48.05786" lon="-1.16196">
        <ele>65.2</ele>
        <time>2022-08-27T20:07:12Z</time>
      </trkpt>
      <trkpt lat="48.05741" lon="-1.1619">
        <ele>66.4</ele>
        <time>2022-08-27T20:07:19Z</time>
      </trkpt>
      <trkpt lat="48.057" lon="-1.16184">
        <ele>67.4</ele>
        <time>2022-08-27T20:07:26Z</time>
      </trkpt>
      <trkpt lat="48.0569" lon="-1.16183">
        <ele>67.6</ele>
        <time>2022-08-27T20:07:28Z</time>
      </trkpt>
      <trkpt lat="48.05679" lon="-1.16182">
        <ele>68</ele>
        <time>2022-08-27T20:07:31Z</time>
      </trkpt>
      <trkpt lat="48.05669" lon="-1.16182">
        <ele>68.8</ele>
        <time>2022-08-27T20:07:35Z</time>
      </trkpt>
      <trkpt lat="48.05657" lon="-1.16176">
        <ele>69.8</ele>
        <time>2022-08-27T20:07:40Z</time>
      </trkpt>
      <trkpt lat="48.05641" lon="-1.16159">
        <ele>70.4</ele>
        <time>2022-08-27T20:07:45Z</time>
      </trkpt>
      <trkpt lat="48.05637" lon="-1.16157">
        <ele>70.6</ele>
        <time>2022-08-27T20:07:46Z</time>
      </trkpt>
      <trkpt lat="48.05624" lon="-1.16155">
        <ele>71.2</ele>
        <time>2022-08-27T20:07:49Z</time>
      </trkpt>
      <trkpt lat="48.05599" lon="-1.16156">
        <ele>72.2</ele>
        <time>2022-08-27T20:07:55Z</time>
      </trkpt>
      <trkpt lat="48.05567" lon="-1.16155">
        <ele>74</ele>
        <time>2022-08-27T20:08:02Z</time>
      </trkpt>
      <trkpt lat="48.05547" lon="-1.16153">
        <ele>74.6</ele>
        <time>2022-08-27T20:08:06Z</time>
      </trkpt>
      <trkpt lat="48.05538" lon="-1.16153">
        <ele>75</ele>
        <time>2022-08-27T20:08:08Z</time>
      </trkpt>
      <trkpt lat="48.05506" lon="-1.16158">
        <ele>76</ele>
        <time>2022-08-27T20:08:14Z</time>
      </trkpt>
      <trkpt lat="48.05487" lon="-1.16161">
        <ele>76.6</ele>
        <time>2022-08-27T20:08:18Z</time>
      </trkpt>
      <trkpt lat="48.05474" lon="-1.16162">
        <ele>77</ele>
        <time>2022-08-27T20:08:21Z</time>
      </trkpt>
      <trkpt lat="48.05456" lon="-1.16163">
        <ele>77.4</ele>
        <time>2022-08-27T20:08:26Z</time>
      </trkpt>
      <trkpt lat="48.0545" lon="-1.16166">
        <ele>77.8</ele>
        <time>2022-08-27T20:08:29Z</time>
      </trkpt>
      <trkpt lat="48.05448" lon="-1.16169">
        <ele>77.8</ele>
        <time>2022-08-27T20:08:30Z</time>
      </trkpt>
      <trkpt lat="48.05444" lon="-1.16184">
        <ele>78.2</ele>
        <time>2022-08-27T20:08:34Z</time>
      </trkpt>
      <trkpt lat="48.05432" lon="-1.16196">
        <ele>78.4</ele>
        <time>2022-08-27T20:08:37Z</time>
      </trkpt>
      <trkpt lat="48.05427" lon="-1.16199">
        <ele>78.6</ele>
        <time>2022-08-27T20:08:38Z</time>
      </trkpt>
      <trkpt lat="48.05421" lon="-1.16201">
        <ele>78.6</ele>
        <time>2022-08-27T20:08:39Z</time>
      </trkpt>
      <trkpt lat="48.05399" lon="-1.16207">
        <ele>79</ele>
        <time>2022-08-27T20:08:43Z</time>
      </trkpt>
      <trkpt lat="48.05377" lon="-1.16212">
        <ele>79.4</ele>
        <time>2022-08-27T20:08:47Z</time>
      </trkpt>
      <trkpt lat="48.05371" lon="-1.16214">
        <ele>79.4</ele>
        <time>2022-08-27T20:08:48Z</time>
      </trkpt>
      <trkpt lat="48.05355" lon="-1.16219">
        <ele>79.6</ele>
        <time>2022-08-27T20:08:51Z</time>
      </trkpt>
      <trkpt lat="48.05343" lon="-1.16222">
        <ele>79.8</ele>
        <time>2022-08-27T20:08:53Z</time>
      </trkpt>
      <trkpt lat="48.05312" lon="-1.1623">
        <ele>80.2</ele>
        <time>2022-08-27T20:08:58Z</time>
      </trkpt>
      <trkpt lat="48.05277" lon="-1.16241">
        <ele>80.4</ele>
        <time>2022-08-27T20:09:04Z</time>
      </trkpt>
      <trkpt lat="48.05242" lon="-1.16249">
        <ele>80.8</ele>
        <time>2022-08-27T20:09:10Z</time>
      </trkpt>
      <trkpt lat="48.05203" lon="-1.16258">
        <ele>81.4</ele>
        <time>2022-08-27T20:09:17Z</time>
      </trkpt>
      <trkpt lat="48.05165" lon="-1.16266">
        <ele>81.8</ele>
        <time>2022-08-27T20:09:24Z</time>
      </trkpt>
      <trkpt lat="48.05128" lon="-1.16276">
        <ele>82.4</ele>
        <time>2022-08-27T20:09:31Z</time>
      </trkpt>
      <trkpt lat="48.05108" lon="-1.16281">
        <ele>82.8</ele>
        <time>2022-08-27T20:09:35Z</time>
      </trkpt>
      <trkpt lat="48.05102" lon="-1.16283">
        <ele>82.8</ele>
        <time>2022-08-27T20:09:36Z</time>
      </trkpt>
      <trkpt lat="48.05082" lon="-1.1629">
        <ele>83</ele>
        <time>2022-08-27T20:09:40Z</time>
      </trkpt>
      <trkpt lat="48.05049" lon="-1.16302">
        <ele>83.2</ele>
        <time>2022-08-27T20:09:46Z</time>
      </trkpt>
      <trkpt lat="48.05033" lon="-1.16309">
        <ele>83.2</ele>
        <time>2022-08-27T20:09:49Z</time>
      </trkpt>
      <trkpt lat="48.05024" lon="-1.16315">
        <ele>83.2</ele>
        <time>2022-08-27T20:09:51Z</time>
      </trkpt>
      <trkpt lat="48.05005" lon="-1.16324">
        <ele>83.4</ele>
        <time>2022-08-27T20:09:55Z</time>
      </trkpt>
      <trkpt lat="48.05" lon="-1.16327">
        <ele>83.4</ele>
        <time>2022-08-27T20:09:56Z</time>
      </trkpt>
      <trkpt lat="48.04996" lon="-1.16329">
        <ele>83.4</ele>
        <time>2022-08-27T20:09:57Z</time>
      </trkpt>
      <trkpt lat="48.04987" lon="-1.16334">
        <ele>83.6</ele>
        <time>2022-08-27T20:09:59Z</time>
      </trkpt>
      <trkpt lat="48.04982" lon="-1.16337">
        <ele>83.6</ele>
        <time>2022-08-27T20:10:00Z</time>
      </trkpt>
      <trkpt lat="48.04959" lon="-1.1635">
        <ele>83.4</ele>
        <time>2022-08-27T20:10:05Z</time>
      </trkpt>
      <trkpt lat="48.04954" lon="-1.16352">
        <ele>83.4</ele>
        <time>2022-08-27T20:10:06Z</time>
      </trkpt>
      <trkpt lat="48.0494" lon="-1.1636">
        <ele>83</ele>
        <time>2022-08-27T20:10:09Z</time>
      </trkpt>
      <trkpt lat="48.04924" lon="-1.16371">
        <ele>82.8</ele>
        <time>2022-08-27T20:10:13Z</time>
      </trkpt>
      <trkpt lat="48.04904" lon="-1.16389">
        <ele>82.4</ele>
        <time>2022-08-27T20:10:18Z</time>
      </trkpt>
      <trkpt lat="48.0489" lon="-1.16401">
        <ele>82</ele>
        <time>2022-08-27T20:10:21Z</time>
      </trkpt>
      <trkpt lat="48.04881" lon="-1.16409">
        <ele>82</ele>
        <time>2022-08-27T20:10:23Z</time>
      </trkpt>
      <trkpt lat="48.04861" lon="-1.16426">
        <ele>81.6</ele>
        <time>2022-08-27T20:10:27Z</time>
      </trkpt>
      <trkpt lat="48.04856" lon="-1.1643">
        <ele>81.6</ele>
        <time>2022-08-27T20:10:28Z</time>
      </trkpt>
      <trkpt lat="48.04825" lon="-1.16458">
        <ele>80.8</ele>
        <time>2022-08-27T20:10:34Z</time>
      </trkpt>
      <trkpt lat="48.04815" lon="-1.16468">
        <ele>80.6</ele>
        <time>2022-08-27T20:10:36Z</time>
      </trkpt>
      <trkpt lat="48.04799" lon="-1.16484">
        <ele>80.2</ele>
        <time>2022-08-27T20:10:39Z</time>
      </trkpt>
      <trkpt lat="48.04778" lon="-1.16501">
        <ele>79.8</ele>
        <time>2022-08-27T20:10:43Z</time>
      </trkpt>
      <trkpt lat="48.04774" lon="-1.16505">
        <ele>79.6</ele>
        <time>2022-08-27T20:10:44Z</time>
      </trkpt>
      <trkpt lat="48.04763" lon="-1.16514">
        <ele>79.4</ele>
        <time>2022-08-27T20:10:48Z</time>
      </trkpt>
      <trkpt lat="48.04757" lon="-1.16518">
        <ele>79.4</ele>
        <time>2022-08-27T20:10:51Z</time>
      </trkpt>
      <trkpt lat="48.04754" lon="-1.1652">
        <ele>79.6</ele>
        <time>2022-08-27T20:10:53Z</time>
      </trkpt>
      <trkpt lat="48.0475" lon="-1.16527">
        <ele>78.2</ele>
        <time>2022-08-27T20:12:39Z</time>
      </trkpt>
      <trkpt lat="48.04747" lon="-1.16534">
        <ele>78.4</ele>
        <time>2022-08-27T20:12:41Z</time>
      </trkpt>
      <trkpt lat="48.04731" lon="-1.1655">
        <ele>78.6</ele>
        <time>2022-08-27T20:12:46Z</time>
      </trkpt>
      <trkpt lat="48.04701" lon="-1.16579">
        <ele>78.8</ele>
        <time>2022-08-27T20:12:53Z</time>
      </trkpt>
      <trkpt lat="48.04673" lon="-1.16603">
        <ele>78.8</ele>
        <time>2022-08-27T20:12:58Z</time>
      </trkpt>
      <trkpt lat="48.04648" lon="-1.16628">
        <ele>78.8</ele>
        <time>2022-08-27T20:13:03Z</time>
      </trkpt>
      <trkpt lat="48.04618" lon="-1.16658">
        <ele>79.2</ele>
        <time>2022-08-27T20:13:09Z</time>
      </trkpt>
      <trkpt lat="48.04597" lon="-1.1668">
        <ele>78.8</ele>
        <time>2022-08-27T20:13:13Z</time>
      </trkpt>
      <trkpt lat="48.0456" lon="-1.16714">
        <ele>78.6</ele>
        <time>2022-08-27T20:13:19Z</time>
      </trkpt>
      <trkpt lat="48.04513" lon="-1.16754">
        <ele>79</ele>
        <time>2022-08-27T20:13:26Z</time>
      </trkpt>
      <trkpt lat="48.04472" lon="-1.1679">
        <ele>79.8</ele>
        <time>2022-08-27T20:13:33Z</time>
      </trkpt>
      <trkpt lat="48.04449" lon="-1.16813">
        <ele>80.2</ele>
        <time>2022-08-27T20:13:38Z</time>
      </trkpt>
      <trkpt lat="48.04442" lon="-1.16824">
        <ele>80.4</ele>
        <time>2022-08-27T20:13:40Z</time>
      </trkpt>
      <trkpt lat="48.04431" lon="-1.16839">
        <ele>80.8</ele>
        <time>2022-08-27T20:13:43Z</time>
      </trkpt>
      <trkpt lat="48.0442" lon="-1.16849">
        <ele>81</ele>
        <time>2022-08-27T20:13:46Z</time>
      </trkpt>
      <trkpt lat="48.04401" lon="-1.16862">
        <ele>81.6</ele>
        <time>2022-08-27T20:13:51Z</time>
      </trkpt>
      <trkpt lat="48.04397" lon="-1.16865">
        <ele>81.6</ele>
        <time>2022-08-27T20:13:52Z</time>
      </trkpt>
      <trkpt lat="48.04367" lon="-1.16889">
        <ele>82.4</ele>
        <time>2022-08-27T20:13:58Z</time>
      </trkpt>
      <trkpt lat="48.04329" lon="-1.16924">
        <ele>82.4</ele>
        <time>2022-08-27T20:14:04Z</time>
      </trkpt>
      <trkpt lat="48.04283" lon="-1.16967">
        <ele>82.4</ele>
        <time>2022-08-27T20:14:11Z</time>
      </trkpt>
      <trkpt lat="48.04264" lon="-1.16985">
        <ele>82.4</ele>
        <time>2022-08-27T20:14:14Z</time>
      </trkpt>
      <trkpt lat="48.04233" lon="-1.17017">
        <ele>82.6</ele>
        <time>2022-08-27T20:14:20Z</time>
      </trkpt>
      <trkpt lat="48.04229" lon="-1.17021">
        <ele>82.6</ele>
        <time>2022-08-27T20:14:21Z</time>
      </trkpt>
      <trkpt lat="48.04216" lon="-1.17036">
        <ele>82.4</ele>
        <time>2022-08-27T20:14:24Z</time>
      </trkpt>
      <trkpt lat="48.04187" lon="-1.17066">
        <ele>82.2</ele>
        <time>2022-08-27T20:14:30Z</time>
      </trkpt>
      <trkpt lat="48.04161" lon="-1.17092">
        <ele>81.8</ele>
        <time>2022-08-27T20:14:35Z</time>
      </trkpt>
      <trkpt lat="48.04124" lon="-1.17129">
        <ele>81.2</ele>
        <time>2022-08-27T20:14:42Z</time>
      </trkpt>
      <trkpt lat="48.04085" lon="-1.17166">
        <ele>80.6</ele>
        <time>2022-08-27T20:14:49Z</time>
      </trkpt>
      <trkpt lat="48.04068" lon="-1.17182">
        <ele>80.2</ele>
        <time>2022-08-27T20:14:52Z</time>
      </trkpt>
      <trkpt lat="48.04063" lon="-1.17187">
        <ele>80.2</ele>
        <time>2022-08-27T20:14:53Z</time>
      </trkpt>
      <trkpt lat="48.04036" lon="-1.17214">
        <ele>79.6</ele>
        <time>2022-08-27T20:14:58Z</time>
      </trkpt>
      <trkpt lat="48.04014" lon="-1.17236">
        <ele>79.4</ele>
        <time>2022-08-27T20:15:02Z</time>
      </trkpt>
      <trkpt lat="48.04002" lon="-1.17247">
        <ele>79.2</ele>
        <time>2022-08-27T20:15:04Z</time>
      </trkpt>
      <trkpt lat="48.03987" lon="-1.17261">
        <ele>78.8</ele>
        <time>2022-08-27T20:15:07Z</time>
      </trkpt>
      <trkpt lat="48.03952" lon="-1.17296">
        <ele>77.6</ele>
        <time>2022-08-27T20:15:14Z</time>
      </trkpt>
      <trkpt lat="48.03928" lon="-1.17319">
        <ele>77.6</ele>
        <time>2022-08-27T20:15:18Z</time>
      </trkpt>
      <trkpt lat="48.03921" lon="-1.17324">
        <ele>77.6</ele>
        <time>2022-08-27T20:15:19Z</time>
      </trkpt>
      <trkpt lat="48.03898" lon="-1.17346">
        <ele>77.4</ele>
        <time>2022-08-27T20:15:23Z</time>
      </trkpt>
      <trkpt lat="48.03893" lon="-1.1735">
        <ele>77.4</ele>
        <time>2022-08-27T20:15:24Z</time>
      </trkpt>
      <trkpt lat="48.0388" lon="-1.17364">
        <ele>77.4</ele>
        <time>2022-08-27T20:15:27Z</time>
      </trkpt>
      <trkpt lat="48.03868" lon="-1.17374">
        <ele>77.4</ele>
        <time>2022-08-27T20:15:29Z</time>
      </trkpt>
      <trkpt lat="48.03856" lon="-1.17387">
        <ele>77.4</ele>
        <time>2022-08-27T20:15:32Z</time>
      </trkpt>
      <trkpt lat="48.03852" lon="-1.17392">
        <ele>77.4</ele>
        <time>2022-08-27T20:15:33Z</time>
      </trkpt>
      <trkpt lat="48.0385" lon="-1.17397">
        <ele>77.4</ele>
        <time>2022-08-27T20:15:34Z</time>
      </trkpt>
      <trkpt lat="48.0385" lon="-1.17401">
        <ele>77.4</ele>
        <time>2022-08-27T20:15:35Z</time>
      </trkpt>
      <trkpt lat="48.03833" lon="-1.17416">
        <ele>77.4</ele>
        <time>2022-08-27T20:15:38Z</time>
      </trkpt>
      <trkpt lat="48.03802" lon="-1.1744">
        <ele>77.8</ele>
        <time>2022-08-27T20:15:43Z</time>
      </trkpt>
      <trkpt lat="48.0379" lon="-1.1745">
        <ele>78</ele>
        <time>2022-08-27T20:15:45Z</time>
      </trkpt>
      <trkpt lat="48.03779" lon="-1.1746">
        <ele>78.2</ele>
        <time>2022-08-27T20:15:47Z</time>
      </trkpt>
      <trkpt lat="48.03757" lon="-1.17479">
        <ele>78.4</ele>
        <time>2022-08-27T20:15:51Z</time>
      </trkpt>
      <trkpt lat="48.03733" lon="-1.17504">
        <ele>79.2</ele>
        <time>2022-08-27T20:15:56Z</time>
      </trkpt>
      <trkpt lat="48.03728" lon="-1.17508">
        <ele>79.4</ele>
        <time>2022-08-27T20:15:57Z</time>
      </trkpt>
      <trkpt lat="48.03718" lon="-1.17518">
        <ele>79.6</ele>
        <time>2022-08-27T20:15:59Z</time>
      </trkpt>
      <trkpt lat="48.03703" lon="-1.17532">
        <ele>80.2</ele>
        <time>2022-08-27T20:16:02Z</time>
      </trkpt>
      <trkpt lat="48.03676" lon="-1.17559">
        <ele>81</ele>
        <time>2022-08-27T20:16:08Z</time>
      </trkpt>
      <trkpt lat="48.03655" lon="-1.1758">
        <ele>81.8</ele>
        <time>2022-08-27T20:16:13Z</time>
      </trkpt>
      <trkpt lat="48.03643" lon="-1.17592">
        <ele>82.2</ele>
        <time>2022-08-27T20:16:16Z</time>
      </trkpt>
      <trkpt lat="48.03635" lon="-1.176">
        <ele>82.2</ele>
        <time>2022-08-27T20:16:18Z</time>
      </trkpt>
      <trkpt lat="48.03618" lon="-1.17617">
        <ele>82.6</ele>
        <time>2022-08-27T20:16:22Z</time>
      </trkpt>
      <trkpt lat="48.03614" lon="-1.17622">
        <ele>82.6</ele>
        <time>2022-08-27T20:16:23Z</time>
      </trkpt>
      <trkpt lat="48.03587" lon="-1.17648">
        <ele>83</ele>
        <time>2022-08-27T20:16:29Z</time>
      </trkpt>
      <trkpt lat="48.03579" lon="-1.17657">
        <ele>83.2</ele>
        <time>2022-08-27T20:16:31Z</time>
      </trkpt>
      <trkpt lat="48.03571" lon="-1.17665">
        <ele>83.4</ele>
        <time>2022-08-27T20:16:33Z</time>
      </trkpt>
      <trkpt lat="48.03566" lon="-1.17668">
        <ele>83.6</ele>
        <time>2022-08-27T20:16:34Z</time>
      </trkpt>
      <trkpt lat="48.03548" lon="-1.17684">
        <ele>83.8</ele>
        <time>2022-08-27T20:16:38Z</time>
      </trkpt>
      <trkpt lat="48.03535" lon="-1.177">
        <ele>84</ele>
        <time>2022-08-27T20:16:42Z</time>
      </trkpt>
      <trkpt lat="48.03533" lon="-1.17705">
        <ele>84</ele>
        <time>2022-08-27T20:16:43Z</time>
      </trkpt>
      <trkpt lat="48.03528" lon="-1.17709">
        <ele>84</ele>
        <time>2022-08-27T20:16:44Z</time>
      </trkpt>
      <trkpt lat="48.03511" lon="-1.17723">
        <ele>84.2</ele>
        <time>2022-08-27T20:16:47Z</time>
      </trkpt>
      <trkpt lat="48.03495" lon="-1.1774">
        <ele>84.4</ele>
        <time>2022-08-27T20:16:51Z</time>
      </trkpt>
      <trkpt lat="48.03472" lon="-1.17762">
        <ele>84.8</ele>
        <time>2022-08-27T20:16:56Z</time>
      </trkpt>
      <trkpt lat="48.0346" lon="-1.17771">
        <ele>85</ele>
        <time>2022-08-27T20:16:58Z</time>
      </trkpt>
      <trkpt lat="48.03451" lon="-1.17779">
        <ele>85</ele>
        <time>2022-08-27T20:17:00Z</time>
      </trkpt>
      <trkpt lat="48.03429" lon="-1.178">
        <ele>85.2</ele>
        <time>2022-08-27T20:17:05Z</time>
      </trkpt>
      <trkpt lat="48.03407" lon="-1.1782">
        <ele>85.4</ele>
        <time>2022-08-27T20:17:10Z</time>
      </trkpt>
      <trkpt lat="48.0339" lon="-1.17836">
        <ele>85.6</ele>
        <time>2022-08-27T20:17:14Z</time>
      </trkpt>
      <trkpt lat="48.03377" lon="-1.17848">
        <ele>85.8</ele>
        <time>2022-08-27T20:17:17Z</time>
      </trkpt>
      <trkpt lat="48.03348" lon="-1.17875">
        <ele>86.2</ele>
        <time>2022-08-27T20:17:23Z</time>
      </trkpt>
      <trkpt lat="48.03326" lon="-1.17897">
        <ele>86.6</ele>
        <time>2022-08-27T20:17:28Z</time>
      </trkpt>
      <trkpt lat="48.03319" lon="-1.17906">
        <ele>86.6</ele>
        <time>2022-08-27T20:17:30Z</time>
      </trkpt>
      <trkpt lat="48.03314" lon="-1.17911">
        <ele>86.8</ele>
        <time>2022-08-27T20:17:31Z</time>
      </trkpt>
      <trkpt lat="48.0331" lon="-1.17915">
        <ele>86.8</ele>
        <time>2022-08-27T20:17:32Z</time>
      </trkpt>
      <trkpt lat="48.03301" lon="-1.17925">
        <ele>87</ele>
        <time>2022-08-27T20:17:34Z</time>
      </trkpt>
      <trkpt lat="48.03292" lon="-1.17935">
        <ele>87.2</ele>
        <time>2022-08-27T20:17:36Z</time>
      </trkpt>
      <trkpt lat="48.03282" lon="-1.17944">
        <ele>87.4</ele>
        <time>2022-08-27T20:17:38Z</time>
      </trkpt>
      <trkpt lat="48.03273" lon="-1.17954">
        <ele>87.6</ele>
        <time>2022-08-27T20:17:40Z</time>
      </trkpt>
      <trkpt lat="48.03268" lon="-1.17959">
        <ele>87.6</ele>
        <time>2022-08-27T20:17:41Z</time>
      </trkpt>
      <trkpt lat="48.03233" lon="-1.1799">
        <ele>88.2</ele>
        <time>2022-08-27T20:17:47Z</time>
      </trkpt>
      <trkpt lat="48.03204" lon="-1.18017">
        <ele>88.6</ele>
        <time>2022-08-27T20:17:52Z</time>
      </trkpt>
      <trkpt lat="48.0318" lon="-1.18039">
        <ele>88.8</ele>
        <time>2022-08-27T20:17:56Z</time>
      </trkpt>
      <trkpt lat="48.03157" lon="-1.18062">
        <ele>89</ele>
        <time>2022-08-27T20:18:00Z</time>
      </trkpt>
      <trkpt lat="48.03127" lon="-1.1809">
        <ele>89</ele>
        <time>2022-08-27T20:18:05Z</time>
      </trkpt>
      <trkpt lat="48.03103" lon="-1.18113">
        <ele>89.2</ele>
        <time>2022-08-27T20:18:09Z</time>
      </trkpt>
      <trkpt lat="48.03061" lon="-1.18156">
        <ele>89</ele>
        <time>2022-08-27T20:18:16Z</time>
      </trkpt>
      <trkpt lat="48.03031" lon="-1.18185">
        <ele>89.2</ele>
        <time>2022-08-27T20:18:21Z</time>
      </trkpt>
      <trkpt lat="48.0299" lon="-1.18227">
        <ele>88.8</ele>
        <time>2022-08-27T20:18:28Z</time>
      </trkpt>
      <trkpt lat="48.0296" lon="-1.18255">
        <ele>88.6</ele>
        <time>2022-08-27T20:18:33Z</time>
      </trkpt>
      <trkpt lat="48.02938" lon="-1.18278">
        <ele>88.4</ele>
        <time>2022-08-27T20:18:37Z</time>
      </trkpt>
      <trkpt lat="48.02915" lon="-1.18299">
        <ele>88.2</ele>
        <time>2022-08-27T20:18:41Z</time>
      </trkpt>
      <trkpt lat="48.02904" lon="-1.1831">
        <ele>88</ele>
        <time>2022-08-27T20:18:43Z</time>
      </trkpt>
      <trkpt lat="48.02894" lon="-1.1832">
        <ele>87.8</ele>
        <time>2022-08-27T20:18:45Z</time>
      </trkpt>
      <trkpt lat="48.02884" lon="-1.1833">
        <ele>87.6</ele>
        <time>2022-08-27T20:18:47Z</time>
      </trkpt>
      <trkpt lat="48.02872" lon="-1.1834">
        <ele>87.4</ele>
        <time>2022-08-27T20:18:49Z</time>
      </trkpt>
      <trkpt lat="48.02854" lon="-1.1836">
        <ele>87</ele>
        <time>2022-08-27T20:18:53Z</time>
      </trkpt>
      <trkpt lat="48.02845" lon="-1.1837">
        <ele>86.8</ele>
        <time>2022-08-27T20:18:55Z</time>
      </trkpt>
      <trkpt lat="48.02834" lon="-1.18378">
        <ele>86.6</ele>
        <time>2022-08-27T20:18:57Z</time>
      </trkpt>
      <trkpt lat="48.02829" lon="-1.18383">
        <ele>86.4</ele>
        <time>2022-08-27T20:18:58Z</time>
      </trkpt>
      <trkpt lat="48.02824" lon="-1.18387">
        <ele>86.2</ele>
        <time>2022-08-27T20:18:59Z</time>
      </trkpt>
      <trkpt lat="48.02811" lon="-1.18399">
        <ele>85.8</ele>
        <time>2022-08-27T20:19:02Z</time>
      </trkpt>
      <trkpt lat="48.02798" lon="-1.18414">
        <ele>85</ele>
        <time>2022-08-27T20:19:06Z</time>
      </trkpt>
      <trkpt lat="48.02771" lon="-1.18439">
        <ele>84.4</ele>
        <time>2022-08-27T20:19:11Z</time>
      </trkpt>
      <trkpt lat="48.02749" lon="-1.18457">
        <ele>84.2</ele>
        <time>2022-08-27T20:19:15Z</time>
      </trkpt>
      <trkpt lat="48.02744" lon="-1.18461">
        <ele>84.2</ele>
        <time>2022-08-27T20:19:16Z</time>
      </trkpt>
      <trkpt lat="48.02714" lon="-1.18495">
        <ele>84</ele>
        <time>2022-08-27T20:19:23Z</time>
      </trkpt>
      <trkpt lat="48.02703" lon="-1.18506">
        <ele>84</ele>
        <time>2022-08-27T20:19:25Z</time>
      </trkpt>
      <trkpt lat="48.02689" lon="-1.18519">
        <ele>84.2</ele>
        <time>2022-08-27T20:19:28Z</time>
      </trkpt>
      <trkpt lat="48.02684" lon="-1.18525">
        <ele>84.4</ele>
        <time>2022-08-27T20:19:29Z</time>
      </trkpt>
      <trkpt lat="48.02669" lon="-1.1854">
        <ele>83.4</ele>
        <time>2022-08-27T20:19:32Z</time>
      </trkpt>
      <trkpt lat="48.02664" lon="-1.18544">
        <ele>83.4</ele>
        <time>2022-08-27T20:19:33Z</time>
      </trkpt>
      <trkpt lat="48.02644" lon="-1.18563">
        <ele>84</ele>
        <time>2022-08-27T20:19:37Z</time>
      </trkpt>
      <trkpt lat="48.0262" lon="-1.18586">
        <ele>84.8</ele>
        <time>2022-08-27T20:19:42Z</time>
      </trkpt>
      <trkpt lat="48.02595" lon="-1.1861">
        <ele>84.2</ele>
        <time>2022-08-27T20:19:47Z</time>
      </trkpt>
      <trkpt lat="48.02575" lon="-1.18628">
        <ele>84.6</ele>
        <time>2022-08-27T20:19:51Z</time>
      </trkpt>
      <trkpt lat="48.02554" lon="-1.18652">
        <ele>84.2</ele>
        <time>2022-08-27T20:19:56Z</time>
      </trkpt>
      <trkpt lat="48.02525" lon="-1.1868">
        <ele>84.4</ele>
        <time>2022-08-27T20:20:02Z</time>
      </trkpt>
      <trkpt lat="48.02497" lon="-1.18708">
        <ele>84.2</ele>
        <time>2022-08-27T20:20:08Z</time>
      </trkpt>
      <trkpt lat="48.02475" lon="-1.18731">
        <ele>84.2</ele>
        <time>2022-08-27T20:20:13Z</time>
      </trkpt>
      <trkpt lat="48.02471" lon="-1.18735">
        <ele>84.2</ele>
        <time>2022-08-27T20:20:14Z</time>
      </trkpt>
      <trkpt lat="48.02444" lon="-1.18759">
        <ele>84.6</ele>
        <time>2022-08-27T20:20:19Z</time>
      </trkpt>
      <trkpt lat="48.02428" lon="-1.18774">
        <ele>84.6</ele>
        <time>2022-08-27T20:20:22Z</time>
      </trkpt>
      <trkpt lat="48.02418" lon="-1.18785">
        <ele>84.8</ele>
        <time>2022-08-27T20:20:24Z</time>
      </trkpt>
      <trkpt lat="48.02396" lon="-1.18809">
        <ele>85.2</ele>
        <time>2022-08-27T20:20:29Z</time>
      </trkpt>
      <trkpt lat="48.02388" lon="-1.18818">
        <ele>85.4</ele>
        <time>2022-08-27T20:20:31Z</time>
      </trkpt>
      <trkpt lat="48.02378" lon="-1.18828">
        <ele>85.8</ele>
        <time>2022-08-27T20:20:33Z</time>
      </trkpt>
      <trkpt lat="48.02353" lon="-1.1885">
        <ele>86.2</ele>
        <time>2022-08-27T20:20:38Z</time>
      </trkpt>
      <trkpt lat="48.02324" lon="-1.18876">
        <ele>86.8</ele>
        <time>2022-08-27T20:20:44Z</time>
      </trkpt>
      <trkpt lat="48.02298" lon="-1.18903">
        <ele>87.2</ele>
        <time>2022-08-27T20:20:50Z</time>
      </trkpt>
      <trkpt lat="48.02269" lon="-1.18928">
        <ele>87.8</ele>
        <time>2022-08-27T20:20:56Z</time>
      </trkpt>
      <trkpt lat="48.02252" lon="-1.18945">
        <ele>88.6</ele>
        <time>2022-08-27T20:21:01Z</time>
      </trkpt>
      <trkpt lat="48.02232" lon="-1.18964">
        <ele>89.4</ele>
        <time>2022-08-27T20:21:06Z</time>
      </trkpt>
      <trkpt lat="48.0221" lon="-1.18984">
        <ele>90</ele>
        <time>2022-08-27T20:21:11Z</time>
      </trkpt>
      <trkpt lat="48.02206" lon="-1.18988">
        <ele>90</ele>
        <time>2022-08-27T20:21:12Z</time>
      </trkpt>
      <trkpt lat="48.02184" lon="-1.19012">
        <ele>90.8</ele>
        <time>2022-08-27T20:21:18Z</time>
      </trkpt>
      <trkpt lat="48.02164" lon="-1.19034">
        <ele>91.4</ele>
        <time>2022-08-27T20:21:23Z</time>
      </trkpt>
      <trkpt lat="48.02142" lon="-1.19058">
        <ele>92</ele>
        <time>2022-08-27T20:21:29Z</time>
      </trkpt>
      <trkpt lat="48.02133" lon="-1.19066">
        <ele>92.2</ele>
        <time>2022-08-27T20:21:31Z</time>
      </trkpt>
      <trkpt lat="48.02123" lon="-1.19073">
        <ele>92.4</ele>
        <time>2022-08-27T20:21:33Z</time>
      </trkpt>
      <trkpt lat="48.0209" lon="-1.19099">
        <ele>92.6</ele>
        <time>2022-08-27T20:21:39Z</time>
      </trkpt>
      <trkpt lat="48.02062" lon="-1.19119">
        <ele>92.8</ele>
        <time>2022-08-27T20:21:44Z</time>
      </trkpt>
      <trkpt lat="48.0205" lon="-1.19126">
        <ele>93</ele>
        <time>2022-08-27T20:21:46Z</time>
      </trkpt>
      <trkpt lat="48.02039" lon="-1.19133">
        <ele>93</ele>
        <time>2022-08-27T20:21:48Z</time>
      </trkpt>
      <trkpt lat="48.02018" lon="-1.19149">
        <ele>93.2</ele>
        <time>2022-08-27T20:21:53Z</time>
      </trkpt>
      <trkpt lat="48.02008" lon="-1.19155">
        <ele>93.2</ele>
        <time>2022-08-27T20:21:55Z</time>
      </trkpt>
      <trkpt lat="48.01993" lon="-1.19164">
        <ele>93.4</ele>
        <time>2022-08-27T20:21:58Z</time>
      </trkpt>
      <trkpt lat="48.01976" lon="-1.19173">
        <ele>93.4</ele>
        <time>2022-08-27T20:22:01Z</time>
      </trkpt>
      <trkpt lat="48.01966" lon="-1.19178">
        <ele>93.4</ele>
        <time>2022-08-27T20:22:03Z</time>
      </trkpt>
      <trkpt lat="48.01937" lon="-1.19195">
        <ele>93.4</ele>
        <time>2022-08-27T20:22:08Z</time>
      </trkpt>
      <trkpt lat="48.01931" lon="-1.19198">
        <ele>93.4</ele>
        <time>2022-08-27T20:22:09Z</time>
      </trkpt>
      <trkpt lat="48.01914" lon="-1.19209">
        <ele>93.4</ele>
        <time>2022-08-27T20:22:12Z</time>
      </trkpt>
      <trkpt lat="48.01891" lon="-1.19223">
        <ele>93.2</ele>
        <time>2022-08-27T20:22:16Z</time>
      </trkpt>
      <trkpt lat="48.01858" lon="-1.19242">
        <ele>93.2</ele>
        <time>2022-08-27T20:22:22Z</time>
      </trkpt>
      <trkpt lat="48.01819" lon="-1.19261">
        <ele>93.2</ele>
        <time>2022-08-27T20:22:28Z</time>
      </trkpt>
      <trkpt lat="48.01786" lon="-1.19279">
        <ele>93.2</ele>
        <time>2022-08-27T20:22:34Z</time>
      </trkpt>
      <trkpt lat="48.01783" lon="-1.19282">
        <ele>93</ele>
        <time>2022-08-27T20:22:35Z</time>
      </trkpt>
      <trkpt lat="48.01772" lon="-1.19285">
        <ele>93.4</ele>
        <time>2022-08-27T20:22:37Z</time>
      </trkpt>
      <trkpt lat="48.01765" lon="-1.19287">
        <ele>93.4</ele>
        <time>2022-08-27T20:22:39Z</time>
      </trkpt>
      <trkpt lat="48.01758" lon="-1.19288">
        <ele>93.4</ele>
        <time>2022-08-27T20:22:41Z</time>
      </trkpt>
      <trkpt lat="48.01749" lon="-1.19296">
        <ele>93.4</ele>
        <time>2022-08-27T20:22:44Z</time>
      </trkpt>
      <trkpt lat="48.0173" lon="-1.19306">
        <ele>93.4</ele>
        <time>2022-08-27T20:22:48Z</time>
      </trkpt>
      <trkpt lat="48.01693" lon="-1.19326">
        <ele>93.8</ele>
        <time>2022-08-27T20:22:55Z</time>
      </trkpt>
      <trkpt lat="48.01684" lon="-1.19332">
        <ele>93.8</ele>
        <time>2022-08-27T20:22:57Z</time>
      </trkpt>
      <trkpt lat="48.01675" lon="-1.19339">
        <ele>93.8</ele>
        <time>2022-08-27T20:22:59Z</time>
      </trkpt>
      <trkpt lat="48.01657" lon="-1.1935">
        <ele>94</ele>
        <time>2022-08-27T20:23:03Z</time>
      </trkpt>
      <trkpt lat="48.01641" lon="-1.19361">
        <ele>94</ele>
        <time>2022-08-27T20:23:07Z</time>
      </trkpt>
      <trkpt lat="48.01636" lon="-1.19363">
        <ele>94</ele>
        <time>2022-08-27T20:23:08Z</time>
      </trkpt>
      <trkpt lat="48.01617" lon="-1.19374">
        <ele>94.2</ele>
        <time>2022-08-27T20:23:12Z</time>
      </trkpt>
      <trkpt lat="48.01597" lon="-1.19385">
        <ele>94.4</ele>
        <time>2022-08-27T20:23:16Z</time>
      </trkpt>
      <trkpt lat="48.01569" lon="-1.19402">
        <ele>94.8</ele>
        <time>2022-08-27T20:23:21Z</time>
      </trkpt>
      <trkpt lat="48.01543" lon="-1.19417">
        <ele>95</ele>
        <time>2022-08-27T20:23:26Z</time>
      </trkpt>
      <trkpt lat="48.01515" lon="-1.19433">
        <ele>95.2</ele>
        <time>2022-08-27T20:23:31Z</time>
      </trkpt>
      <trkpt lat="48.0151" lon="-1.19436">
        <ele>95.2</ele>
        <time>2022-08-27T20:23:32Z</time>
      </trkpt>
      <trkpt lat="48.0148" lon="-1.19453">
        <ele>95</ele>
        <time>2022-08-27T20:23:37Z</time>
      </trkpt>
      <trkpt lat="48.01475" lon="-1.19456">
        <ele>95.2</ele>
        <time>2022-08-27T20:23:38Z</time>
      </trkpt>
      <trkpt lat="48.01455" lon="-1.19466">
        <ele>95.2</ele>
        <time>2022-08-27T20:23:41Z</time>
      </trkpt>
      <trkpt lat="48.01426" lon="-1.19483">
        <ele>95.2</ele>
        <time>2022-08-27T20:23:46Z</time>
      </trkpt>
      <trkpt lat="48.01398" lon="-1.19498">
        <ele>95.2</ele>
        <time>2022-08-27T20:23:50Z</time>
      </trkpt>
      <trkpt lat="48.01387" lon="-1.19505">
        <ele>95.2</ele>
        <time>2022-08-27T20:23:52Z</time>
      </trkpt>
      <trkpt lat="48.01378" lon="-1.19511">
        <ele>95.4</ele>
        <time>2022-08-27T20:23:54Z</time>
      </trkpt>
      <trkpt lat="48.01349" lon="-1.19527">
        <ele>95.8</ele>
        <time>2022-08-27T20:24:00Z</time>
      </trkpt>
      <trkpt lat="48.01339" lon="-1.19532">
        <ele>95.8</ele>
        <time>2022-08-27T20:24:02Z</time>
      </trkpt>
      <trkpt lat="48.01324" lon="-1.19539">
        <ele>96</ele>
        <time>2022-08-27T20:24:04Z</time>
      </trkpt>
      <trkpt lat="48.01316" lon="-1.19543">
        <ele>96</ele>
        <time>2022-08-27T20:24:05Z</time>
      </trkpt>
      <trkpt lat="48.01293" lon="-1.19553">
        <ele>96</ele>
        <time>2022-08-27T20:24:08Z</time>
      </trkpt>
      <trkpt lat="48.01274" lon="-1.1956">
        <ele>95.8</ele>
        <time>2022-08-27T20:24:11Z</time>
      </trkpt>
      <trkpt lat="48.01261" lon="-1.19566">
        <ele>95.6</ele>
        <time>2022-08-27T20:24:13Z</time>
      </trkpt>
      <trkpt lat="48.0122" lon="-1.1958">
        <ele>95.4</ele>
        <time>2022-08-27T20:24:19Z</time>
      </trkpt>
      <trkpt lat="48.01187" lon="-1.1959">
        <ele>95.4</ele>
        <time>2022-08-27T20:24:24Z</time>
      </trkpt>
      <trkpt lat="48.01144" lon="-1.19598">
        <ele>96</ele>
        <time>2022-08-27T20:24:30Z</time>
      </trkpt>
      <trkpt lat="48.01097" lon="-1.19608">
        <ele>96.4</ele>
        <time>2022-08-27T20:24:37Z</time>
      </trkpt>
      <trkpt lat="48.01056" lon="-1.19615">
        <ele>96.6</ele>
        <time>2022-08-27T20:24:43Z</time>
      </trkpt>
      <trkpt lat="48.01025" lon="-1.19621">
        <ele>96.4</ele>
        <time>2022-08-27T20:24:48Z</time>
      </trkpt>
      <trkpt lat="48.01002" lon="-1.19624">
        <ele>96.4</ele>
        <time>2022-08-27T20:24:52Z</time>
      </trkpt>
      <trkpt lat="48.00991" lon="-1.19626">
        <ele>96.4</ele>
        <time>2022-08-27T20:24:54Z</time>
      </trkpt>
      <trkpt lat="48.00973" lon="-1.1963">
        <ele>96.4</ele>
        <time>2022-08-27T20:24:57Z</time>
      </trkpt>
      <trkpt lat="48.00958" lon="-1.19634">
        <ele>96</ele>
        <time>2022-08-27T20:25:01Z</time>
      </trkpt>
      <trkpt lat="48.00955" lon="-1.19635">
        <ele>96</ele>
        <time>2022-08-27T20:25:02Z</time>
      </trkpt>
      <trkpt lat="48.00948" lon="-1.19633">
        <ele>96</ele>
        <time>2022-08-27T20:25:05Z</time>
      </trkpt>
      <trkpt lat="48.00936" lon="-1.19633">
        <ele>95.8</ele>
        <time>2022-08-27T20:25:09Z</time>
      </trkpt>
      <trkpt lat="48.00932" lon="-1.19634">
        <ele>95.8</ele>
        <time>2022-08-27T20:25:10Z</time>
      </trkpt>
      <trkpt lat="48.0092" lon="-1.19638">
        <ele>95.6</ele>
        <time>2022-08-27T20:25:12Z</time>
      </trkpt>
      <trkpt lat="48.00887" lon="-1.19647">
        <ele>95.8</ele>
        <time>2022-08-27T20:25:17Z</time>
      </trkpt>
      <trkpt lat="48.00849" lon="-1.19653">
        <ele>96</ele>
        <time>2022-08-27T20:25:23Z</time>
      </trkpt>
      <trkpt lat="48.0081" lon="-1.1966">
        <ele>96.2</ele>
        <time>2022-08-27T20:25:29Z</time>
      </trkpt>
      <trkpt lat="48.00778" lon="-1.19665">
        <ele>96.2</ele>
        <time>2022-08-27T20:25:34Z</time>
      </trkpt>
      <trkpt lat="48.00723" lon="-1.19675">
        <ele>96.2</ele>
        <time>2022-08-27T20:25:42Z</time>
      </trkpt>
      <trkpt lat="48.00682" lon="-1.19683">
        <ele>96.6</ele>
        <time>2022-08-27T20:25:48Z</time>
      </trkpt>
      <trkpt lat="48.00624" lon="-1.19692">
        <ele>96.8</ele>
        <time>2022-08-27T20:25:56Z</time>
      </trkpt>
      <trkpt lat="48.00617" lon="-1.19694">
        <ele>96.8</ele>
        <time>2022-08-27T20:25:57Z</time>
      </trkpt>
      <trkpt lat="48.00575" lon="-1.19701">
        <ele>96.8</ele>
        <time>2022-08-27T20:26:03Z</time>
      </trkpt>
      <trkpt lat="48.00544" lon="-1.19706">
        <ele>96.8</ele>
        <time>2022-08-27T20:26:08Z</time>
      </trkpt>
      <trkpt lat="48.0051" lon="-1.19713">
        <ele>96.8</ele>
        <time>2022-08-27T20:26:13Z</time>
      </trkpt>
      <trkpt lat="48.00503" lon="-1.19714">
        <ele>96.8</ele>
        <time>2022-08-27T20:26:14Z</time>
      </trkpt>
      <trkpt lat="48.00468" lon="-1.19722">
        <ele>96.6</ele>
        <time>2022-08-27T20:26:19Z</time>
      </trkpt>
      <trkpt lat="48.00426" lon="-1.1973">
        <ele>96.6</ele>
        <time>2022-08-27T20:26:25Z</time>
      </trkpt>
      <trkpt lat="48.00419" lon="-1.19731">
        <ele>96.6</ele>
        <time>2022-08-27T20:26:26Z</time>
      </trkpt>
      <trkpt lat="48.00398" lon="-1.19735">
        <ele>96.6</ele>
        <time>2022-08-27T20:26:29Z</time>
      </trkpt>
      <trkpt lat="48.00365" lon="-1.19742">
        <ele>96.2</ele>
        <time>2022-08-27T20:26:34Z</time>
      </trkpt>
      <trkpt lat="48.00358" lon="-1.19743">
        <ele>96</ele>
        <time>2022-08-27T20:26:35Z</time>
      </trkpt>
      <trkpt lat="48.00334" lon="-1.19746">
        <ele>95.6</ele>
        <time>2022-08-27T20:26:39Z</time>
      </trkpt>
      <trkpt lat="48.00323" lon="-1.19747">
        <ele>95.4</ele>
        <time>2022-08-27T20:26:41Z</time>
      </trkpt>
      <trkpt lat="48.00309" lon="-1.19751">
        <ele>95.2</ele>
        <time>2022-08-27T20:26:43Z</time>
      </trkpt>
      <trkpt lat="48.00263" lon="-1.1976">
        <ele>94.8</ele>
        <time>2022-08-27T20:26:49Z</time>
      </trkpt>
      <trkpt lat="48.0022" lon="-1.19768">
        <ele>94.8</ele>
        <time>2022-08-27T20:26:55Z</time>
      </trkpt>
      <trkpt lat="48.00176" lon="-1.19777">
        <ele>94.6</ele>
        <time>2022-08-27T20:27:01Z</time>
      </trkpt>
      <trkpt lat="48.00129" lon="-1.19786">
        <ele>94.2</ele>
        <time>2022-08-27T20:27:08Z</time>
      </trkpt>
      <trkpt lat="48.00102" lon="-1.1979">
        <ele>94</ele>
        <time>2022-08-27T20:27:12Z</time>
      </trkpt>
      <trkpt lat="48.00063" lon="-1.19797">
        <ele>94</ele>
        <time>2022-08-27T20:27:18Z</time>
      </trkpt>
      <trkpt lat="48.00016" lon="-1.19807">
        <ele>93.8</ele>
        <time>2022-08-27T20:27:25Z</time>
      </trkpt>
      <trkpt lat="47.99984" lon="-1.19812">
        <ele>93.6</ele>
        <time>2022-08-27T20:27:30Z</time>
      </trkpt>
      <trkpt lat="47.99977" lon="-1.19813">
        <ele>93.6</ele>
        <time>2022-08-27T20:27:31Z</time>
      </trkpt>
      <trkpt lat="47.99963" lon="-1.19814">
        <ele>93.4</ele>
        <time>2022-08-27T20:27:33Z</time>
      </trkpt>
      <trkpt lat="47.99957" lon="-1.19816">
        <ele>93.4</ele>
        <time>2022-08-27T20:27:34Z</time>
      </trkpt>
      <trkpt lat="47.99944" lon="-1.19818">
        <ele>93.4</ele>
        <time>2022-08-27T20:27:36Z</time>
      </trkpt>
      <trkpt lat="47.99897" lon="-1.19828">
        <ele>93</ele>
        <time>2022-08-27T20:27:43Z</time>
      </trkpt>
      <trkpt lat="47.99855" lon="-1.19838">
        <ele>92.6</ele>
        <time>2022-08-27T20:27:49Z</time>
      </trkpt>
      <trkpt lat="47.99814" lon="-1.19844">
        <ele>92.4</ele>
        <time>2022-08-27T20:27:55Z</time>
      </trkpt>
      <trkpt lat="47.99766" lon="-1.19852">
        <ele>92.6</ele>
        <time>2022-08-27T20:28:02Z</time>
      </trkpt>
      <trkpt lat="47.99759" lon="-1.19854">
        <ele>92.8</ele>
        <time>2022-08-27T20:28:03Z</time>
      </trkpt>
      <trkpt lat="47.99732" lon="-1.19858">
        <ele>93</ele>
        <time>2022-08-27T20:28:07Z</time>
      </trkpt>
      <trkpt lat="47.99719" lon="-1.1986">
        <ele>93</ele>
        <time>2022-08-27T20:28:09Z</time>
      </trkpt>
      <trkpt lat="47.99672" lon="-1.19866">
        <ele>93</ele>
        <time>2022-08-27T20:28:16Z</time>
      </trkpt>
      <trkpt lat="47.99632" lon="-1.19875">
        <ele>93</ele>
        <time>2022-08-27T20:28:22Z</time>
      </trkpt>
      <trkpt lat="47.99607" lon="-1.1988">
        <ele>92.4</ele>
        <time>2022-08-27T20:28:26Z</time>
      </trkpt>
      <trkpt lat="47.996" lon="-1.19881">
        <ele>92.2</ele>
        <time>2022-08-27T20:28:27Z</time>
      </trkpt>
      <trkpt lat="47.99574" lon="-1.19886">
        <ele>92.6</ele>
        <time>2022-08-27T20:28:31Z</time>
      </trkpt>
      <trkpt lat="47.99568" lon="-1.19887">
        <ele>92.6</ele>
        <time>2022-08-27T20:28:32Z</time>
      </trkpt>
      <trkpt lat="47.99562" lon="-1.19889">
        <ele>92.4</ele>
        <time>2022-08-27T20:28:33Z</time>
      </trkpt>
      <trkpt lat="47.99535" lon="-1.19893">
        <ele>92.4</ele>
        <time>2022-08-27T20:28:37Z</time>
      </trkpt>
      <trkpt lat="47.99492" lon="-1.19899">
        <ele>92.4</ele>
        <time>2022-08-27T20:28:43Z</time>
      </trkpt>
      <trkpt lat="47.9945" lon="-1.19906">
        <ele>92.2</ele>
        <time>2022-08-27T20:28:49Z</time>
      </trkpt>
      <trkpt lat="47.99429" lon="-1.1991">
        <ele>92.4</ele>
        <time>2022-08-27T20:28:52Z</time>
      </trkpt>
      <trkpt lat="47.99415" lon="-1.19912">
        <ele>92.4</ele>
        <time>2022-08-27T20:28:54Z</time>
      </trkpt>
      <trkpt lat="47.99373" lon="-1.1992">
        <ele>92.4</ele>
        <time>2022-08-27T20:29:00Z</time>
      </trkpt>
      <trkpt lat="47.99323" lon="-1.19928">
        <ele>92.6</ele>
        <time>2022-08-27T20:29:07Z</time>
      </trkpt>
      <trkpt lat="47.99267" lon="-1.19937">
        <ele>92.8</ele>
        <time>2022-08-27T20:29:15Z</time>
      </trkpt>
      <trkpt lat="47.99261" lon="-1.19938">
        <ele>92.6</ele>
        <time>2022-08-27T20:29:16Z</time>
      </trkpt>
      <trkpt lat="47.99245" lon="-1.1994">
        <ele>92.8</ele>
        <time>2022-08-27T20:29:19Z</time>
      </trkpt>
      <trkpt lat="47.9924" lon="-1.1994">
        <ele>92.6</ele>
        <time>2022-08-27T20:29:20Z</time>
      </trkpt>
      <trkpt lat="47.99228" lon="-1.19944">
        <ele>92.8</ele>
        <time>2022-08-27T20:29:24Z</time>
      </trkpt>
      <trkpt lat="47.99217" lon="-1.19946">
        <ele>92.6</ele>
        <time>2022-08-27T20:29:27Z</time>
      </trkpt>
      <trkpt lat="47.99212" lon="-1.19947">
        <ele>92.4</ele>
        <time>2022-08-27T20:29:28Z</time>
      </trkpt>
      <trkpt lat="47.99179" lon="-1.19953">
        <ele>92.2</ele>
        <time>2022-08-27T20:29:34Z</time>
      </trkpt>
      <trkpt lat="47.99124" lon="-1.19963">
        <ele>91.8</ele>
        <time>2022-08-27T20:29:43Z</time>
      </trkpt>
      <trkpt lat="47.99072" lon="-1.19972">
        <ele>91.4</ele>
        <time>2022-08-27T20:29:51Z</time>
      </trkpt>
      <trkpt lat="47.99026" lon="-1.19982">
        <ele>91</ele>
        <time>2022-08-27T20:29:58Z</time>
      </trkpt>
      <trkpt lat="47.98976" lon="-1.19991">
        <ele>90.4</ele>
        <time>2022-08-27T20:30:05Z</time>
      </trkpt>
      <trkpt lat="47.98935" lon="-1.19998">
        <ele>90.2</ele>
        <time>2022-08-27T20:30:11Z</time>
      </trkpt>
      <trkpt lat="47.98929" lon="-1.19999">
        <ele>90.2</ele>
        <time>2022-08-27T20:30:12Z</time>
      </trkpt>
      <trkpt lat="47.98908" lon="-1.20003">
        <ele>90.2</ele>
        <time>2022-08-27T20:30:15Z</time>
      </trkpt>
      <trkpt lat="47.98859" lon="-1.20012">
        <ele>90</ele>
        <time>2022-08-27T20:30:22Z</time>
      </trkpt>
      <trkpt lat="47.98824" lon="-1.2002">
        <ele>89.6</ele>
        <time>2022-08-27T20:30:27Z</time>
      </trkpt>
      <trkpt lat="47.98788" lon="-1.20026">
        <ele>89.4</ele>
        <time>2022-08-27T20:30:32Z</time>
      </trkpt>
      <trkpt lat="47.98747" lon="-1.20033">
        <ele>89</ele>
        <time>2022-08-27T20:30:38Z</time>
      </trkpt>
      <trkpt lat="47.98704" lon="-1.2004">
        <ele>88.4</ele>
        <time>2022-08-27T20:30:44Z</time>
      </trkpt>
      <trkpt lat="47.98655" lon="-1.20049">
        <ele>88</ele>
        <time>2022-08-27T20:30:51Z</time>
      </trkpt>
      <trkpt lat="47.98628" lon="-1.20054">
        <ele>88</ele>
        <time>2022-08-27T20:30:55Z</time>
      </trkpt>
      <trkpt lat="47.98615" lon="-1.20056">
        <ele>88</ele>
        <time>2022-08-27T20:30:57Z</time>
      </trkpt>
      <trkpt lat="47.98583" lon="-1.20062">
        <ele>87.8</ele>
        <time>2022-08-27T20:31:02Z</time>
      </trkpt>
      <trkpt lat="47.98536" lon="-1.2007">
        <ele>87.4</ele>
        <time>2022-08-27T20:31:09Z</time>
      </trkpt>
      <trkpt lat="47.98495" lon="-1.20078">
        <ele>87</ele>
        <time>2022-08-27T20:31:15Z</time>
      </trkpt>
      <trkpt lat="47.9845" lon="-1.20086">
        <ele>86.4</ele>
        <time>2022-08-27T20:31:22Z</time>
      </trkpt>
      <trkpt lat="47.9841" lon="-1.20094">
        <ele>86.2</ele>
        <time>2022-08-27T20:31:28Z</time>
      </trkpt>
      <trkpt lat="47.98361" lon="-1.20102">
        <ele>86</ele>
        <time>2022-08-27T20:31:36Z</time>
      </trkpt>
      <trkpt lat="47.98348" lon="-1.20105">
        <ele>85.8</ele>
        <time>2022-08-27T20:31:39Z</time>
      </trkpt>
      <trkpt lat="47.98334" lon="-1.20108">
        <ele>85.6</ele>
        <time>2022-08-27T20:31:42Z</time>
      </trkpt>
      <trkpt lat="47.98289" lon="-1.20114">
        <ele>85.6</ele>
        <time>2022-08-27T20:31:50Z</time>
      </trkpt>
      <trkpt lat="47.98243" lon="-1.20122">
        <ele>85.4</ele>
        <time>2022-08-27T20:31:58Z</time>
      </trkpt>
      <trkpt lat="47.98214" lon="-1.20127">
        <ele>85.4</ele>
        <time>2022-08-27T20:32:03Z</time>
      </trkpt>
      <trkpt lat="47.98206" lon="-1.20135">
        <ele>85.2</ele>
        <time>2022-08-27T20:32:05Z</time>
      </trkpt>
      <trkpt lat="47.98205" lon="-1.2015">
        <ele>85.2</ele>
        <time>2022-08-27T20:32:07Z</time>
      </trkpt>
      <trkpt lat="47.98205" lon="-1.20158">
        <ele>85.2</ele>
        <time>2022-08-27T20:32:08Z</time>
      </trkpt>
      <trkpt lat="47.98207" lon="-1.20237">
        <ele>85</ele>
        <time>2022-08-27T20:32:17Z</time>
      </trkpt>
      <trkpt lat="47.98209" lon="-1.20297">
        <ele>85</ele>
        <time>2022-08-27T20:32:24Z</time>
      </trkpt>
      <trkpt lat="47.98209" lon="-1.20305">
        <ele>85</ele>
        <time>2022-08-27T20:32:25Z</time>
      </trkpt>
      <trkpt lat="47.98209" lon="-1.20317">
        <ele>84.8</ele>
        <time>2022-08-27T20:32:27Z</time>
      </trkpt>
      <trkpt lat="47.98208" lon="-1.2032">
        <ele>85</ele>
        <time>2022-08-27T20:32:28Z</time>
      </trkpt>
      <trkpt lat="47.98203" lon="-1.20321">
        <ele>85</ele>
        <time>2022-08-27T20:32:30Z</time>
      </trkpt>
      <trkpt lat="47.98198" lon="-1.2032">
        <ele>85</ele>
        <time>2022-08-27T20:32:32Z</time>
      </trkpt>
      <trkpt lat="47.98178" lon="-1.20317">
        <ele>85.2</ele>
        <time>2022-08-27T20:32:38Z</time>
      </trkpt>
      <trkpt lat="47.98151" lon="-1.20313">
        <ele>85.2</ele>
        <time>2022-08-27T20:32:44Z</time>
      </trkpt>
      <trkpt lat="47.98119" lon="-1.20308">
        <ele>85.4</ele>
        <time>2022-08-27T20:32:51Z</time>
      </trkpt>
      <trkpt lat="47.98085" lon="-1.20306">
        <ele>85</ele>
        <time>2022-08-27T20:32:58Z</time>
      </trkpt>
      <trkpt lat="47.98052" lon="-1.20303">
        <ele>84.8</ele>
        <time>2022-08-27T20:33:05Z</time>
      </trkpt>
      <trkpt lat="47.98018" lon="-1.20302">
        <ele>84.6</ele>
        <time>2022-08-27T20:33:11Z</time>
      </trkpt>
      <trkpt lat="47.9797" lon="-1.203">
        <ele>84.2</ele>
        <time>2022-08-27T20:33:19Z</time>
      </trkpt>
      <trkpt lat="47.97929" lon="-1.20303">
        <ele>83.6</ele>
        <time>2022-08-27T20:33:26Z</time>
      </trkpt>
      <trkpt lat="47.97895" lon="-1.20304">
        <ele>82.8</ele>
        <time>2022-08-27T20:33:32Z</time>
      </trkpt>
      <trkpt lat="47.97848" lon="-1.20306">
        <ele>81.2</ele>
        <time>2022-08-27T20:33:40Z</time>
      </trkpt>
      <trkpt lat="47.97804" lon="-1.20309">
        <ele>79.8</ele>
        <time>2022-08-27T20:33:47Z</time>
      </trkpt>
      <trkpt lat="47.97766" lon="-1.20312">
        <ele>79</ele>
        <time>2022-08-27T20:33:53Z</time>
      </trkpt>
      <trkpt lat="47.97748" lon="-1.20312">
        <ele>78.4</ele>
        <time>2022-08-27T20:33:56Z</time>
      </trkpt>
      <trkpt lat="47.97737" lon="-1.20311">
        <ele>78.2</ele>
        <time>2022-08-27T20:33:58Z</time>
      </trkpt>
      <trkpt lat="47.97704" lon="-1.20306">
        <ele>79</ele>
        <time>2022-08-27T20:34:05Z</time>
      </trkpt>
      <trkpt lat="47.97698" lon="-1.20295">
        <ele>79.4</ele>
        <time>2022-08-27T20:34:09Z</time>
      </trkpt>
      <trkpt lat="47.97687" lon="-1.20297">
        <ele>80.8</ele>
        <time>2022-08-27T20:34:13Z</time>
      </trkpt>
      <trkpt lat="47.97684" lon="-1.20297">
        <ele>79.8</ele>
        <time>2022-08-27T20:34:14Z</time>
      </trkpt>
      <trkpt lat="47.97669" lon="-1.20301">
        <ele>80.6</ele>
        <time>2022-08-27T20:34:20Z</time>
      </trkpt>
      <trkpt lat="47.97666" lon="-1.20307">
        <ele>80.8</ele>
        <time>2022-08-27T20:34:22Z</time>
      </trkpt>
      <trkpt lat="47.97663" lon="-1.20312">
        <ele>81</ele>
        <time>2022-08-27T20:34:24Z</time>
      </trkpt>
      <trkpt lat="47.97658" lon="-1.20316">
        <ele>81.2</ele>
        <time>2022-08-27T20:34:26Z</time>
      </trkpt>
      <trkpt lat="47.97653" lon="-1.20325">
        <ele>81.6</ele>
        <time>2022-08-27T20:34:29Z</time>
      </trkpt>
      <trkpt lat="47.97649" lon="-1.20331">
        <ele>81.8</ele>
        <time>2022-08-27T20:34:33Z</time>
      </trkpt>
      <trkpt lat="47.97662" lon="-1.20327">
        <ele>83.4</ele>
        <time>2022-08-27T20:34:50Z</time>
      </trkpt>
      <trkpt lat="47.97665" lon="-1.20327">
        <ele>83.4</ele>
        <time>2022-08-27T20:34:51Z</time>
      </trkpt>
      <trkpt lat="47.97675" lon="-1.20329">
        <ele>83.6</ele>
        <time>2022-08-27T20:34:54Z</time>
      </trkpt>
      <trkpt lat="47.97677" lon="-1.20333">
        <ele>83.6</ele>
        <time>2022-08-27T20:34:55Z</time>
      </trkpt>
      <trkpt lat="47.97677" lon="-1.20339">
        <ele>83.6</ele>
        <time>2022-08-27T20:34:56Z</time>
      </trkpt>
      <trkpt lat="47.97674" lon="-1.2035">
        <ele>83.6</ele>
        <time>2022-08-27T20:34:58Z</time>
      </trkpt>
      <trkpt lat="47.97668" lon="-1.2036">
        <ele>83.8</ele>
        <time>2022-08-27T20:35:00Z</time>
      </trkpt>
      <trkpt lat="47.97662" lon="-1.20369">
        <ele>84</ele>
        <time>2022-08-27T20:35:02Z</time>
      </trkpt>
      <trkpt lat="47.97639" lon="-1.20394">
        <ele>84.6</ele>
        <time>2022-08-27T20:35:08Z</time>
      </trkpt>
      <trkpt lat="47.97616" lon="-1.20418">
        <ele>85.2</ele>
        <time>2022-08-27T20:35:14Z</time>
      </trkpt>
      <trkpt lat="47.97593" lon="-1.20449">
        <ele>85.8</ele>
        <time>2022-08-27T20:35:20Z</time>
      </trkpt>
      <trkpt lat="47.97571" lon="-1.20485">
        <ele>86.4</ele>
        <time>2022-08-27T20:35:26Z</time>
      </trkpt>
      <trkpt lat="47.97542" lon="-1.20538">
        <ele>86.8</ele>
        <time>2022-08-27T20:35:34Z</time>
      </trkpt>
      <trkpt lat="47.97511" lon="-1.20585">
        <ele>87.4</ele>
        <time>2022-08-27T20:35:41Z</time>
      </trkpt>
      <trkpt lat="47.97478" lon="-1.20626">
        <ele>87.6</ele>
        <time>2022-08-27T20:35:47Z</time>
      </trkpt>
      <trkpt lat="47.97438" lon="-1.20674">
        <ele>87.6</ele>
        <time>2022-08-27T20:35:54Z</time>
      </trkpt>
      <trkpt lat="47.97391" lon="-1.20729">
        <ele>87.8</ele>
        <time>2022-08-27T20:36:02Z</time>
      </trkpt>
      <trkpt lat="47.97348" lon="-1.20779">
        <ele>88.2</ele>
        <time>2022-08-27T20:36:10Z</time>
      </trkpt>
      <trkpt lat="47.97315" lon="-1.20817">
        <ele>88.6</ele>
        <time>2022-08-27T20:36:17Z</time>
      </trkpt>
      <trkpt lat="47.97293" lon="-1.20844">
        <ele>88.8</ele>
        <time>2022-08-27T20:36:23Z</time>
      </trkpt>
      <trkpt lat="47.97298" lon="-1.20852">
        <ele>89</ele>
        <time>2022-08-27T20:36:26Z</time>
      </trkpt>
      <trkpt lat="47.97298" lon="-1.20854">
        <ele>88.8</ele>
        <time>2022-08-27T20:36:28Z</time>
      </trkpt>
      <trkpt lat="47.97297" lon="-1.20862">
        <ele>89.2</ele>
        <time>2022-08-27T20:36:49Z</time>
      </trkpt>
      <trkpt lat="47.97296" lon="-1.20866">
        <ele>89.2</ele>
        <time>2022-08-27T20:36:50Z</time>
      </trkpt>
      <trkpt lat="47.97295" lon="-1.20874">
        <ele>89.2</ele>
        <time>2022-08-27T20:36:52Z</time>
      </trkpt>
      <trkpt lat="47.97294" lon="-1.20882">
        <ele>89.2</ele>
        <time>2022-08-27T20:36:54Z</time>
      </trkpt>
      <trkpt lat="47.9729" lon="-1.209">
        <ele>88.8</ele>
        <time>2022-08-27T20:36:59Z</time>
      </trkpt>
      <trkpt lat="47.97282" lon="-1.20916">
        <ele>88.6</ele>
        <time>2022-08-27T20:37:05Z</time>
      </trkpt>
      <trkpt lat="47.97278" lon="-1.20931">
        <ele>88.4</ele>
        <time>2022-08-27T20:37:09Z</time>
      </trkpt>
      <trkpt lat="47.97274" lon="-1.20952">
        <ele>88.6</ele>
        <time>2022-08-27T20:37:13Z</time>
      </trkpt>
      <trkpt lat="47.97273" lon="-1.2096">
        <ele>88.6</ele>
        <time>2022-08-27T20:37:15Z</time>
      </trkpt>
      <trkpt lat="47.97271" lon="-1.20963">
        <ele>88.6</ele>
        <time>2022-08-27T20:37:16Z</time>
      </trkpt>
      <trkpt lat="47.97268" lon="-1.20965">
        <ele>88.6</ele>
        <time>2022-08-27T20:37:17Z</time>
      </trkpt>
      <trkpt lat="47.97264" lon="-1.20966">
        <ele>88.6</ele>
        <time>2022-08-27T20:37:19Z</time>
      </trkpt>
      <trkpt lat="47.97249" lon="-1.20972">
        <ele>88.6</ele>
        <time>2022-08-27T20:37:23Z</time>
      </trkpt>
      <trkpt lat="47.97244" lon="-1.20975">
        <ele>88.8</ele>
        <time>2022-08-27T20:37:24Z</time>
      </trkpt>
      <trkpt lat="47.97228" lon="-1.20986">
        <ele>89</ele>
        <time>2022-08-27T20:37:28Z</time>
      </trkpt>
      <trkpt lat="47.97216" lon="-1.20992">
        <ele>89</ele>
        <time>2022-08-27T20:37:32Z</time>
      </trkpt>
      <trkpt lat="47.97194" lon="-1.21003">
        <ele>89</ele>
        <time>2022-08-27T20:37:37Z</time>
      </trkpt>
      <trkpt lat="47.97173" lon="-1.21013">
        <ele>88.8</ele>
        <time>2022-08-27T20:37:42Z</time>
      </trkpt>
      <trkpt lat="47.97159" lon="-1.21022">
        <ele>88.8</ele>
        <time>2022-08-27T20:37:45Z</time>
      </trkpt>
      <trkpt lat="47.97153" lon="-1.21025">
        <ele>88.4</ele>
        <time>2022-08-27T20:37:46Z</time>
      </trkpt>
      <trkpt lat="47.97138" lon="-1.21035">
        <ele>88.4</ele>
        <time>2022-08-27T20:37:49Z</time>
      </trkpt>
      <trkpt lat="47.97134" lon="-1.21039">
        <ele>88.2</ele>
        <time>2022-08-27T20:37:50Z</time>
      </trkpt>
      <trkpt lat="47.97125" lon="-1.21052">
        <ele>88</ele>
        <time>2022-08-27T20:37:53Z</time>
      </trkpt>
      <trkpt lat="47.97112" lon="-1.21066">
        <ele>87.4</ele>
        <time>2022-08-27T20:37:57Z</time>
      </trkpt>
      <trkpt lat="47.97101" lon="-1.2108">
        <ele>86.6</ele>
        <time>2022-08-27T20:38:01Z</time>
      </trkpt>
      <trkpt lat="47.97096" lon="-1.21088">
        <ele>86.2</ele>
        <time>2022-08-27T20:38:03Z</time>
      </trkpt>
      <trkpt lat="47.97092" lon="-1.21093">
        <ele>86</ele>
        <time>2022-08-27T20:38:04Z</time>
      </trkpt>
      <trkpt lat="47.97079" lon="-1.21108">
        <ele>85.2</ele>
        <time>2022-08-27T20:38:08Z</time>
      </trkpt>
      <trkpt lat="47.97066" lon="-1.21122">
        <ele>84.8</ele>
        <time>2022-08-27T20:38:12Z</time>
      </trkpt>
      <trkpt lat="47.97052" lon="-1.21136">
        <ele>84.2</ele>
        <time>2022-08-27T20:38:16Z</time>
      </trkpt>
      <trkpt lat="47.97045" lon="-1.21144">
        <ele>83.8</ele>
        <time>2022-08-27T20:38:18Z</time>
      </trkpt>
      <trkpt lat="47.97041" lon="-1.21148">
        <ele>83.8</ele>
        <time>2022-08-27T20:38:19Z</time>
      </trkpt>
      <trkpt lat="47.97027" lon="-1.2116">
        <ele>83.2</ele>
        <time>2022-08-27T20:38:23Z</time>
      </trkpt>
      <trkpt lat="47.97006" lon="-1.21179">
        <ele>82.4</ele>
        <time>2022-08-27T20:38:28Z</time>
      </trkpt>
      <trkpt lat="47.96994" lon="-1.2119">
        <ele>82.2</ele>
        <time>2022-08-27T20:38:31Z</time>
      </trkpt>
      <trkpt lat="47.96992" lon="-1.21195">
        <ele>82</ele>
        <time>2022-08-27T20:38:33Z</time>
      </trkpt>
      <trkpt lat="47.96988" lon="-1.21199">
        <ele>81.8</ele>
        <time>2022-08-27T20:38:35Z</time>
      </trkpt>
      <trkpt lat="47.96963" lon="-1.21218">
        <ele>81</ele>
        <time>2022-08-27T20:38:39Z</time>
      </trkpt>
      <trkpt lat="47.96958" lon="-1.21221">
        <ele>80.8</ele>
        <time>2022-08-27T20:38:40Z</time>
      </trkpt>
      <trkpt lat="47.9695" lon="-1.21227">
        <ele>80.4</ele>
        <time>2022-08-27T20:38:42Z</time>
      </trkpt>
      <trkpt lat="47.96939" lon="-1.21236">
        <ele>80</ele>
        <time>2022-08-27T20:38:45Z</time>
      </trkpt>
      <trkpt lat="47.96913" lon="-1.21253">
        <ele>78.6</ele>
        <time>2022-08-27T20:38:52Z</time>
      </trkpt>
      <trkpt lat="47.96892" lon="-1.21258">
        <ele>77.8</ele>
        <time>2022-08-27T20:38:57Z</time>
      </trkpt>
      <trkpt lat="47.96888" lon="-1.21259">
        <ele>77.6</ele>
        <time>2022-08-27T20:38:58Z</time>
      </trkpt>
      <trkpt lat="47.96874" lon="-1.21263">
        <ele>77.2</ele>
        <time>2022-08-27T20:39:02Z</time>
      </trkpt>
      <trkpt lat="47.96867" lon="-1.21267">
        <ele>76.8</ele>
        <time>2022-08-27T20:39:05Z</time>
      </trkpt>
      <trkpt lat="47.96863" lon="-1.21269">
        <ele>76.6</ele>
        <time>2022-08-27T20:39:07Z</time>
      </trkpt>
      <trkpt lat="47.9686" lon="-1.21264">
        <ele>76</ele>
        <time>2022-08-27T20:39:10Z</time>
      </trkpt>
      <trkpt lat="47.96858" lon="-1.21262">
        <ele>75.6</ele>
        <time>2022-08-27T20:39:11Z</time>
      </trkpt>
      <trkpt lat="47.96846" lon="-1.21246">
        <ele>74.6</ele>
        <time>2022-08-27T20:39:17Z</time>
      </trkpt>
      <trkpt lat="47.9683" lon="-1.21223">
        <ele>73.4</ele>
        <time>2022-08-27T20:39:24Z</time>
      </trkpt>
      <trkpt lat="47.96828" lon="-1.21221">
        <ele>73.2</ele>
        <time>2022-08-27T20:39:25Z</time>
      </trkpt>
      <trkpt lat="47.96823" lon="-1.21223">
        <ele>73.2</ele>
        <time>2022-08-27T20:39:27Z</time>
      </trkpt>
      <trkpt lat="47.96806" lon="-1.21234">
        <ele>73</ele>
        <time>2022-08-27T20:39:32Z</time>
      </trkpt>
      <trkpt lat="47.96777" lon="-1.21254">
        <ele>72.8</ele>
        <time>2022-08-27T20:39:39Z</time>
      </trkpt>
      <trkpt lat="47.96773" lon="-1.21257">
        <ele>72.8</ele>
        <time>2022-08-27T20:39:40Z</time>
      </trkpt>
      <trkpt lat="47.96752" lon="-1.21276">
        <ele>72.6</ele>
        <time>2022-08-27T20:39:45Z</time>
      </trkpt>
      <trkpt lat="47.96729" lon="-1.21293">
        <ele>72.2</ele>
        <time>2022-08-27T20:39:50Z</time>
      </trkpt>
      <trkpt lat="47.96707" lon="-1.2131">
        <ele>72</ele>
        <time>2022-08-27T20:39:55Z</time>
      </trkpt>
      <trkpt lat="47.96703" lon="-1.21311">
        <ele>72</ele>
        <time>2022-08-27T20:39:56Z</time>
      </trkpt>
      <trkpt lat="47.96696" lon="-1.21312">
        <ele>72</ele>
        <time>2022-08-27T20:40:00Z</time>
      </trkpt>
      <trkpt lat="47.96699" lon="-1.21316">
        <ele>70.8</ele>
        <time>2022-08-27T20:42:08Z</time>
      </trkpt>
      <trkpt lat="47.96698" lon="-1.21319">
        <ele>70.6</ele>
        <time>2022-08-27T20:42:10Z</time>
      </trkpt>
      <trkpt lat="47.96694" lon="-1.21332">
        <ele>69.4</ele>
        <time>2022-08-27T20:43:48Z</time>
      </trkpt>
      <trkpt lat="47.96688" lon="-1.21342">
        <ele>69.6</ele>
        <time>2022-08-27T20:43:51Z</time>
      </trkpt>
      <trkpt lat="47.96681" lon="-1.2136">
        <ele>69.6</ele>
        <time>2022-08-27T20:43:55Z</time>
      </trkpt>
      <trkpt lat="47.96668" lon="-1.21391">
        <ele>69.4</ele>
        <time>2022-08-27T20:44:01Z</time>
      </trkpt>
      <trkpt lat="47.96663" lon="-1.21408">
        <ele>69.4</ele>
        <time>2022-08-27T20:44:04Z</time>
      </trkpt>
      <trkpt lat="47.96662" lon="-1.21414">
        <ele>69.6</ele>
        <time>2022-08-27T20:44:05Z</time>
      </trkpt>
      <trkpt lat="47.96659" lon="-1.21443">
        <ele>69.6</ele>
        <time>2022-08-27T20:44:09Z</time>
      </trkpt>
      <trkpt lat="47.96659" lon="-1.21452">
        <ele>69.6</ele>
        <time>2022-08-27T20:44:10Z</time>
      </trkpt>
      <trkpt lat="47.96654" lon="-1.21509">
        <ele>69.2</ele>
        <time>2022-08-27T20:44:16Z</time>
      </trkpt>
      <trkpt lat="47.96652" lon="-1.2153">
        <ele>69.2</ele>
        <time>2022-08-27T20:44:18Z</time>
      </trkpt>
      <trkpt lat="47.96644" lon="-1.21563">
        <ele>68.8</ele>
        <time>2022-08-27T20:44:21Z</time>
      </trkpt>
      <trkpt lat="47.96627" lon="-1.21631">
        <ele>68</ele>
        <time>2022-08-27T20:44:27Z</time>
      </trkpt>
      <trkpt lat="47.96606" lon="-1.21707">
        <ele>67</ele>
        <time>2022-08-27T20:44:33Z</time>
      </trkpt>
      <trkpt lat="47.96587" lon="-1.21784">
        <ele>66</ele>
        <time>2022-08-27T20:44:39Z</time>
      </trkpt>
      <trkpt lat="47.96585" lon="-1.21796">
        <ele>66</ele>
        <time>2022-08-27T20:44:40Z</time>
      </trkpt>
      <trkpt lat="47.96571" lon="-1.21877">
        <ele>64.8</ele>
        <time>2022-08-27T20:44:46Z</time>
      </trkpt>
      <trkpt lat="47.96567" lon="-1.21904">
        <ele>64.6</ele>
        <time>2022-08-27T20:44:48Z</time>
      </trkpt>
      <trkpt lat="47.96552" lon="-1.21982">
        <ele>64</ele>
        <time>2022-08-27T20:44:54Z</time>
      </trkpt>
      <trkpt lat="47.96528" lon="-1.22064">
        <ele>63.2</ele>
        <time>2022-08-27T20:45:01Z</time>
      </trkpt>
      <trkpt lat="47.96524" lon="-1.22076">
        <ele>63.2</ele>
        <time>2022-08-27T20:45:02Z</time>
      </trkpt>
      <trkpt lat="47.96498" lon="-1.22154">
        <ele>62.4</ele>
        <time>2022-08-27T20:45:09Z</time>
      </trkpt>
      <trkpt lat="47.9649" lon="-1.22175">
        <ele>62.2</ele>
        <time>2022-08-27T20:45:11Z</time>
      </trkpt>
      <trkpt lat="47.96479" lon="-1.22209">
        <ele>61.8</ele>
        <time>2022-08-27T20:45:14Z</time>
      </trkpt>
      <trkpt lat="47.96468" lon="-1.22241">
        <ele>61.6</ele>
        <time>2022-08-27T20:45:17Z</time>
      </trkpt>
      <trkpt lat="47.96442" lon="-1.223">
        <ele>61</ele>
        <time>2022-08-27T20:45:23Z</time>
      </trkpt>
      <trkpt lat="47.96408" lon="-1.22355">
        <ele>61</ele>
        <time>2022-08-27T20:45:30Z</time>
      </trkpt>
      <trkpt lat="47.96374" lon="-1.22396">
        <ele>60.6</ele>
        <time>2022-08-27T20:45:36Z</time>
      </trkpt>
      <trkpt lat="47.96327" lon="-1.22438">
        <ele>60.2</ele>
        <time>2022-08-27T20:45:44Z</time>
      </trkpt>
      <trkpt lat="47.96284" lon="-1.22462">
        <ele>60</ele>
        <time>2022-08-27T20:45:51Z</time>
      </trkpt>
      <trkpt lat="47.96247" lon="-1.22477">
        <ele>59.8</ele>
        <time>2022-08-27T20:45:57Z</time>
      </trkpt>
      <trkpt lat="47.96203" lon="-1.22484">
        <ele>59.6</ele>
        <time>2022-08-27T20:46:04Z</time>
      </trkpt>
      <trkpt lat="47.96161" lon="-1.22482">
        <ele>59.6</ele>
        <time>2022-08-27T20:46:11Z</time>
      </trkpt>
      <trkpt lat="47.96122" lon="-1.22475">
        <ele>59.4</ele>
        <time>2022-08-27T20:46:18Z</time>
      </trkpt>
      <trkpt lat="47.96085" lon="-1.22467">
        <ele>59.4</ele>
        <time>2022-08-27T20:46:25Z</time>
      </trkpt>
      <trkpt lat="47.96045" lon="-1.22459">
        <ele>59.8</ele>
        <time>2022-08-27T20:46:33Z</time>
      </trkpt>
      <trkpt lat="47.96006" lon="-1.22451">
        <ele>59.6</ele>
        <time>2022-08-27T20:46:41Z</time>
      </trkpt>
      <trkpt lat="47.95976" lon="-1.22445">
        <ele>59.8</ele>
        <time>2022-08-27T20:46:47Z</time>
      </trkpt>
      <trkpt lat="47.9595" lon="-1.22439">
        <ele>60</ele>
        <time>2022-08-27T20:46:52Z</time>
      </trkpt>
      <trkpt lat="47.95924" lon="-1.22434">
        <ele>60.2</ele>
        <time>2022-08-27T20:46:57Z</time>
      </trkpt>
      <trkpt lat="47.95914" lon="-1.22432">
        <ele>60.4</ele>
        <time>2022-08-27T20:46:59Z</time>
      </trkpt>
      <trkpt lat="47.95879" lon="-1.22425">
        <ele>60.6</ele>
        <time>2022-08-27T20:47:06Z</time>
      </trkpt>
      <trkpt lat="47.9584" lon="-1.2242">
        <ele>61.2</ele>
        <time>2022-08-27T20:47:14Z</time>
      </trkpt>
      <trkpt lat="47.95805" lon="-1.22426">
        <ele>61.6</ele>
        <time>2022-08-27T20:47:21Z</time>
      </trkpt>
      <trkpt lat="47.95777" lon="-1.22442">
        <ele>62.2</ele>
        <time>2022-08-27T20:47:27Z</time>
      </trkpt>
      <trkpt lat="47.95744" lon="-1.22464">
        <ele>62.8</ele>
        <time>2022-08-27T20:47:34Z</time>
      </trkpt>
      <trkpt lat="47.95702" lon="-1.22495">
        <ele>63.8</ele>
        <time>2022-08-27T20:47:43Z</time>
      </trkpt>
      <trkpt lat="47.95661" lon="-1.22525">
        <ele>64.6</ele>
        <time>2022-08-27T20:47:52Z</time>
      </trkpt>
      <trkpt lat="47.95625" lon="-1.22551">
        <ele>65.6</ele>
        <time>2022-08-27T20:48:00Z</time>
      </trkpt>
      <trkpt lat="47.95587" lon="-1.22576">
        <ele>66.6</ele>
        <time>2022-08-27T20:48:08Z</time>
      </trkpt>
      <trkpt lat="47.95567" lon="-1.22587">
        <ele>67</ele>
        <time>2022-08-27T20:48:12Z</time>
      </trkpt>
      <trkpt lat="47.95538" lon="-1.22593">
        <ele>67.6</ele>
        <time>2022-08-27T20:48:18Z</time>
      </trkpt>
      <trkpt lat="47.95493" lon="-1.22597">
        <ele>68.6</ele>
        <time>2022-08-27T20:48:27Z</time>
      </trkpt>
      <trkpt lat="47.95455" lon="-1.226">
        <ele>69.6</ele>
        <time>2022-08-27T20:48:35Z</time>
      </trkpt>
      <trkpt lat="47.95416" lon="-1.22602">
        <ele>70.6</ele>
        <time>2022-08-27T20:48:43Z</time>
      </trkpt>
      <trkpt lat="47.95384" lon="-1.22603">
        <ele>71</ele>
        <time>2022-08-27T20:48:49Z</time>
      </trkpt>
      <trkpt lat="47.95349" lon="-1.22596">
        <ele>71.2</ele>
        <time>2022-08-27T20:48:55Z</time>
      </trkpt>
      <trkpt lat="47.95304" lon="-1.22584">
        <ele>71.2</ele>
        <time>2022-08-27T20:49:01Z</time>
      </trkpt>
      <trkpt lat="47.95248" lon="-1.22569">
        <ele>71.6</ele>
        <time>2022-08-27T20:49:08Z</time>
      </trkpt>
      <trkpt lat="47.95187" lon="-1.22554">
        <ele>70.4</ele>
        <time>2022-08-27T20:49:15Z</time>
      </trkpt>
      <trkpt lat="47.95171" lon="-1.22549">
        <ele>70.4</ele>
        <time>2022-08-27T20:49:17Z</time>
      </trkpt>
      <trkpt lat="47.95156" lon="-1.22545">
        <ele>70.4</ele>
        <time>2022-08-27T20:49:19Z</time>
      </trkpt>
      <trkpt lat="47.95141" lon="-1.22548">
        <ele>70.6</ele>
        <time>2022-08-27T20:49:21Z</time>
      </trkpt>
      <trkpt lat="47.95135" lon="-1.2255">
        <ele>70.6</ele>
        <time>2022-08-27T20:49:22Z</time>
      </trkpt>
      <trkpt lat="47.95121" lon="-1.22545">
        <ele>70.4</ele>
        <time>2022-08-27T20:49:24Z</time>
      </trkpt>
      <trkpt lat="47.95106" lon="-1.22526">
        <ele>70.4</ele>
        <time>2022-08-27T20:49:27Z</time>
      </trkpt>
      <trkpt lat="47.95093" lon="-1.2252">
        <ele>70.6</ele>
        <time>2022-08-27T20:49:29Z</time>
      </trkpt>
      <trkpt lat="47.95087" lon="-1.22518">
        <ele>70.2</ele>
        <time>2022-08-27T20:49:30Z</time>
      </trkpt>
      <trkpt lat="47.95068" lon="-1.22516">
        <ele>71</ele>
        <time>2022-08-27T20:49:33Z</time>
      </trkpt>
      <trkpt lat="47.95054" lon="-1.22513">
        <ele>70.8</ele>
        <time>2022-08-27T20:49:35Z</time>
      </trkpt>
      <trkpt lat="47.95016" lon="-1.22503">
        <ele>71.2</ele>
        <time>2022-08-27T20:49:41Z</time>
      </trkpt>
      <trkpt lat="47.9498" lon="-1.22494">
        <ele>70.8</ele>
        <time>2022-08-27T20:49:47Z</time>
      </trkpt>
      <trkpt lat="47.94941" lon="-1.22483">
        <ele>71</ele>
        <time>2022-08-27T20:49:54Z</time>
      </trkpt>
      <trkpt lat="47.94909" lon="-1.22474">
        <ele>71.4</ele>
        <time>2022-08-27T20:50:00Z</time>
      </trkpt>
      <trkpt lat="47.94868" lon="-1.22461">
        <ele>71.8</ele>
        <time>2022-08-27T20:50:08Z</time>
      </trkpt>
      <trkpt lat="47.94828" lon="-1.2245">
        <ele>72.2</ele>
        <time>2022-08-27T20:50:15Z</time>
      </trkpt>
      <trkpt lat="47.94783" lon="-1.22435">
        <ele>72.6</ele>
        <time>2022-08-27T20:50:23Z</time>
      </trkpt>
      <trkpt lat="47.94741" lon="-1.22423">
        <ele>72.8</ele>
        <time>2022-08-27T20:50:31Z</time>
      </trkpt>
      <trkpt lat="47.94712" lon="-1.22414">
        <ele>73.2</ele>
        <time>2022-08-27T20:50:37Z</time>
      </trkpt>
      <trkpt lat="47.94702" lon="-1.22412">
        <ele>73.4</ele>
        <time>2022-08-27T20:50:39Z</time>
      </trkpt>
      <trkpt lat="47.94693" lon="-1.2241">
        <ele>73.4</ele>
        <time>2022-08-27T20:50:41Z</time>
      </trkpt>
      <trkpt lat="47.94679" lon="-1.22416">
        <ele>73.6</ele>
        <time>2022-08-27T20:50:44Z</time>
      </trkpt>
      <trkpt lat="47.9467" lon="-1.22426">
        <ele>73.6</ele>
        <time>2022-08-27T20:50:46Z</time>
      </trkpt>
      <trkpt lat="47.94663" lon="-1.22438">
        <ele>73.8</ele>
        <time>2022-08-27T20:50:48Z</time>
      </trkpt>
      <trkpt lat="47.9466" lon="-1.22445">
        <ele>73.8</ele>
        <time>2022-08-27T20:50:49Z</time>
      </trkpt>
      <trkpt lat="47.94642" lon="-1.22492">
        <ele>74</ele>
        <time>2022-08-27T20:50:56Z</time>
      </trkpt>
      <trkpt lat="47.94637" lon="-1.22504">
        <ele>74.2</ele>
        <time>2022-08-27T20:50:58Z</time>
      </trkpt>
      <trkpt lat="47.94627" lon="-1.22508">
        <ele>74.2</ele>
        <time>2022-08-27T20:51:00Z</time>
      </trkpt>
      <trkpt lat="47.94607" lon="-1.22497">
        <ele>74.4</ele>
        <time>2022-08-27T20:51:04Z</time>
      </trkpt>
      <trkpt lat="47.94602" lon="-1.22494">
        <ele>74.4</ele>
        <time>2022-08-27T20:51:05Z</time>
      </trkpt>
      <trkpt lat="47.94584" lon="-1.22493">
        <ele>74.4</ele>
        <time>2022-08-27T20:51:08Z</time>
      </trkpt>
      <trkpt lat="47.94553" lon="-1.225">
        <ele>74.4</ele>
        <time>2022-08-27T20:51:13Z</time>
      </trkpt>
      <trkpt lat="47.94512" lon="-1.22512">
        <ele>74.6</ele>
        <time>2022-08-27T20:51:20Z</time>
      </trkpt>
      <trkpt lat="47.94464" lon="-1.22526">
        <ele>74.6</ele>
        <time>2022-08-27T20:51:28Z</time>
      </trkpt>
      <trkpt lat="47.94434" lon="-1.22533">
        <ele>74.6</ele>
        <time>2022-08-27T20:51:33Z</time>
      </trkpt>
      <trkpt lat="47.94421" lon="-1.22533">
        <ele>74.6</ele>
        <time>2022-08-27T20:51:35Z</time>
      </trkpt>
      <trkpt lat="47.9441" lon="-1.22537">
        <ele>74.6</ele>
        <time>2022-08-27T20:51:37Z</time>
      </trkpt>
      <trkpt lat="47.94406" lon="-1.22542">
        <ele>74.8</ele>
        <time>2022-08-27T20:51:38Z</time>
      </trkpt>
      <trkpt lat="47.94386" lon="-1.22572">
        <ele>75</ele>
        <time>2022-08-27T20:51:43Z</time>
      </trkpt>
      <trkpt lat="47.94376" lon="-1.22581">
        <ele>75</ele>
        <time>2022-08-27T20:51:45Z</time>
      </trkpt>
      <trkpt lat="47.94364" lon="-1.22587">
        <ele>75</ele>
        <time>2022-08-27T20:51:47Z</time>
      </trkpt>
      <trkpt lat="47.94314" lon="-1.22606">
        <ele>75.2</ele>
        <time>2022-08-27T20:51:56Z</time>
      </trkpt>
      <trkpt lat="47.94294" lon="-1.22615">
        <ele>75.2</ele>
        <time>2022-08-27T20:52:00Z</time>
      </trkpt>
      <trkpt lat="47.94287" lon="-1.22618">
        <ele>75.4</ele>
        <time>2022-08-27T20:52:02Z</time>
      </trkpt>
      <trkpt lat="47.94277" lon="-1.22618">
        <ele>75.4</ele>
        <time>2022-08-27T20:52:07Z</time>
      </trkpt>
      <trkpt lat="47.94275" lon="-1.22618">
        <ele>75.4</ele>
        <time>2022-08-27T20:52:08Z</time>
      </trkpt>
      <trkpt lat="47.9427" lon="-1.22616">
        <ele>75.2</ele>
        <time>2022-08-27T20:52:10Z</time>
      </trkpt>
      <trkpt lat="47.94267" lon="-1.22615">
        <ele>75.2</ele>
        <time>2022-08-27T20:52:11Z</time>
      </trkpt>
      <trkpt lat="47.9425" lon="-1.22615">
        <ele>75.2</ele>
        <time>2022-08-27T20:52:15Z</time>
      </trkpt>
      <trkpt lat="47.94239" lon="-1.22615">
        <ele>75.2</ele>
        <time>2022-08-27T20:52:17Z</time>
      </trkpt>
      <trkpt lat="47.9423" lon="-1.22616">
        <ele>75</ele>
        <time>2022-08-27T20:52:19Z</time>
      </trkpt>
      <trkpt lat="47.94219" lon="-1.22618">
        <ele>75.2</ele>
        <time>2022-08-27T20:52:22Z</time>
      </trkpt>
      <trkpt lat="47.942" lon="-1.2262">
        <ele>75.2</ele>
        <time>2022-08-27T20:52:28Z</time>
      </trkpt>
      <trkpt lat="47.94191" lon="-1.22623">
        <ele>75.2</ele>
        <time>2022-08-27T20:52:32Z</time>
      </trkpt>
      <trkpt lat="47.94189" lon="-1.22624">
        <ele>75.2</ele>
        <time>2022-08-27T20:52:33Z</time>
      </trkpt>
      <trkpt lat="47.94179" lon="-1.22633">
        <ele>75.6</ele>
        <time>2022-08-27T20:52:39Z</time>
      </trkpt>
      <trkpt lat="47.94171" lon="-1.22638">
        <ele>75.8</ele>
        <time>2022-08-27T20:52:44Z</time>
      </trkpt>
      <trkpt lat="47.94163" lon="-1.22645">
        <ele>75.8</ele>
        <time>2022-08-27T20:52:48Z</time>
      </trkpt>
      <trkpt lat="47.94151" lon="-1.2266">
        <ele>75.8</ele>
        <time>2022-08-27T20:52:53Z</time>
      </trkpt>
      <trkpt lat="47.94145" lon="-1.22659">
        <ele>75.8</ele>
        <time>2022-08-27T20:52:56Z</time>
      </trkpt>
      <trkpt lat="47.94145" lon="-1.22659">
        <ele>75.8</ele>
        <time>2022-08-27T20:52:57Z</time>
      </trkpt>
      <trkpt lat="47.94152" lon="-1.22663">
        <ele>76</ele>
        <time>2022-08-27T20:53:06Z</time>
      </trkpt>
      <trkpt lat="47.94154" lon="-1.22665">
        <ele>75.8</ele>
        <time>2022-08-27T20:53:07Z</time>
      </trkpt>
      <trkpt lat="47.94157" lon="-1.22665">
        <ele>75.8</ele>
        <time>2022-08-27T20:53:08Z</time>
      </trkpt>
      <trkpt lat="47.94163" lon="-1.22664">
        <ele>75.6</ele>
        <time>2022-08-27T20:53:10Z</time>
      </trkpt>
      <trkpt lat="47.94166" lon="-1.22663">
        <ele>75.4</ele>
        <time>2022-08-27T20:53:12Z</time>
      </trkpt>
      <trkpt lat="47.94168" lon="-1.22661">
        <ele>75.2</ele>
        <time>2022-08-27T20:53:14Z</time>
      </trkpt>
      <trkpt lat="47.94168" lon="-1.22661">
        <ele>75.2</ele>
        <time>2022-08-27T20:53:15Z</time>
      </trkpt>
      <trkpt lat="47.94161" lon="-1.22665">
        <ele>71.4</ele>
        <time>2022-08-27T20:55:52Z</time>
      </trkpt>
      <trkpt lat="47.94154" lon="-1.22666">
        <ele>71.6</ele>
        <time>2022-08-27T20:55:54Z</time>
      </trkpt>
      <trkpt lat="47.94149" lon="-1.2266">
        <ele>71.6</ele>
        <time>2022-08-27T20:55:56Z</time>
      </trkpt>
      <trkpt lat="47.94147" lon="-1.22658">
        <ele>71.6</ele>
        <time>2022-08-27T20:55:57Z</time>
      </trkpt>
      <trkpt lat="47.94135" lon="-1.2266">
        <ele>71.6</ele>
        <time>2022-08-27T20:56:01Z</time>
      </trkpt>
      <trkpt lat="47.94122" lon="-1.22661">
        <ele>72</ele>
        <time>2022-08-27T20:56:06Z</time>
      </trkpt>
      <trkpt lat="47.941" lon="-1.22654">
        <ele>72.6</ele>
        <time>2022-08-27T20:56:13Z</time>
      </trkpt>
      <trkpt lat="47.94089" lon="-1.2265">
        <ele>72.8</ele>
        <time>2022-08-27T20:56:17Z</time>
      </trkpt>
      <trkpt lat="47.94086" lon="-1.22659">
        <ele>73</ele>
        <time>2022-08-27T20:56:20Z</time>
      </trkpt>
      <trkpt lat="47.94086" lon="-1.22688">
        <ele>73</ele>
        <time>2022-08-27T20:56:25Z</time>
      </trkpt>
      <trkpt lat="47.94087" lon="-1.22706">
        <ele>73.2</ele>
        <time>2022-08-27T20:56:28Z</time>
      </trkpt>
      <trkpt lat="47.94089" lon="-1.22743">
        <ele>73.4</ele>
        <time>2022-08-27T20:56:35Z</time>
      </trkpt>
      <trkpt lat="47.9409" lon="-1.22751">
        <ele>73.4</ele>
        <time>2022-08-27T20:56:37Z</time>
      </trkpt>
      <trkpt lat="47.94093" lon="-1.22752">
        <ele>73.2</ele>
        <time>2022-08-27T20:56:38Z</time>
      </trkpt>
      <trkpt lat="47.94103" lon="-1.22764">
        <ele>73.2</ele>
        <time>2022-08-27T20:56:42Z</time>
      </trkpt>
      <trkpt lat="47.94104" lon="-1.22769">
        <ele>73.4</ele>
        <time>2022-08-27T20:56:43Z</time>
      </trkpt>
      <trkpt lat="47.94106" lon="-1.22782">
        <ele>72.8</ele>
        <time>2022-08-27T20:56:45Z</time>
      </trkpt>
      <trkpt lat="47.94105" lon="-1.22789">
        <ele>72.8</ele>
        <time>2022-08-27T20:56:46Z</time>
      </trkpt>
      <trkpt lat="47.94103" lon="-1.22796">
        <ele>72.8</ele>
        <time>2022-08-27T20:56:47Z</time>
      </trkpt>
      <trkpt lat="47.94095" lon="-1.22818">
        <ele>72.8</ele>
        <time>2022-08-27T20:56:50Z</time>
      </trkpt>
      <trkpt lat="47.9407" lon="-1.22876">
        <ele>72.8</ele>
        <time>2022-08-27T20:56:59Z</time>
      </trkpt>
      <trkpt lat="47.94052" lon="-1.22918">
        <ele>73.2</ele>
        <time>2022-08-27T20:57:06Z</time>
      </trkpt>
      <trkpt lat="47.94045" lon="-1.22936">
        <ele>73.4</ele>
        <time>2022-08-27T20:57:09Z</time>
      </trkpt>
      <trkpt lat="47.94042" lon="-1.22949">
        <ele>73.4</ele>
        <time>2022-08-27T20:57:11Z</time>
      </trkpt>
      <trkpt lat="47.94038" lon="-1.22963">
        <ele>73.4</ele>
        <time>2022-08-27T20:57:13Z</time>
      </trkpt>
      <trkpt lat="47.94034" lon="-1.22984">
        <ele>73.6</ele>
        <time>2022-08-27T20:57:16Z</time>
      </trkpt>
      <trkpt lat="47.94024" lon="-1.23028">
        <ele>74.2</ele>
        <time>2022-08-27T20:57:23Z</time>
      </trkpt>
      <trkpt lat="47.9402" lon="-1.23044">
        <ele>74.4</ele>
        <time>2022-08-27T20:57:27Z</time>
      </trkpt>
      <trkpt lat="47.94016" lon="-1.23069">
        <ele>75</ele>
        <time>2022-08-27T20:57:33Z</time>
      </trkpt>
      <trkpt lat="47.94017" lon="-1.23078">
        <ele>75.2</ele>
        <time>2022-08-27T20:57:35Z</time>
      </trkpt>
      <trkpt lat="47.94019" lon="-1.23081">
        <ele>75.4</ele>
        <time>2022-08-27T20:57:36Z</time>
      </trkpt>
      <trkpt lat="47.94034" lon="-1.23082">
        <ele>75.6</ele>
        <time>2022-08-27T20:57:40Z</time>
      </trkpt>
      <trkpt lat="47.94048" lon="-1.23082">
        <ele>75.8</ele>
        <time>2022-08-27T20:57:44Z</time>
      </trkpt>
      <trkpt lat="47.94056" lon="-1.23082">
        <ele>76</ele>
        <time>2022-08-27T20:57:46Z</time>
      </trkpt>
      <trkpt lat="47.94068" lon="-1.23083">
        <ele>76</ele>
        <time>2022-08-27T20:57:49Z</time>
      </trkpt>
      <trkpt lat="47.94075" lon="-1.23086">
        <ele>76</ele>
        <time>2022-08-27T20:57:51Z</time>
      </trkpt>
      <trkpt lat="47.94092" lon="-1.23093">
        <ele>76</ele>
        <time>2022-08-27T20:57:56Z</time>
      </trkpt>
      <trkpt lat="47.94106" lon="-1.23097">
        <ele>76</ele>
        <time>2022-08-27T20:58:00Z</time>
      </trkpt>
      <trkpt lat="47.94113" lon="-1.23095">
        <ele>76.6</ele>
        <time>2022-08-27T20:58:02Z</time>
      </trkpt>
      <trkpt lat="47.94122" lon="-1.23101">
        <ele>75</ele>
        <time>2022-08-27T20:58:06Z</time>
      </trkpt>
      <trkpt lat="47.94133" lon="-1.23106">
        <ele>74</ele>
        <time>2022-08-27T20:58:11Z</time>
      </trkpt>
      <trkpt lat="47.94137" lon="-1.23107">
        <ele>73.4</ele>
        <time>2022-08-27T20:58:14Z</time>
      </trkpt>
      <trkpt lat="47.94134" lon="-1.2311">
        <ele>72.2</ele>
        <time>2022-08-27T20:58:23Z</time>
      </trkpt>
      <trkpt lat="47.94125" lon="-1.23115">
        <ele>71.2</ele>
        <time>2022-08-27T20:58:27Z</time>
      </trkpt>
      <trkpt lat="47.94123" lon="-1.23115">
        <ele>70.8</ele>
        <time>2022-08-27T20:58:30Z</time>
      </trkpt>
      <trkpt lat="47.94128" lon="-1.23108">
        <ele>64.2</ele>
        <time>2022-08-27T21:00:23Z</time>
      </trkpt>
      <trkpt lat="47.94124" lon="-1.23107">
        <ele>64.6</ele>
        <time>2022-08-27T21:00:25Z</time>
      </trkpt>
      <trkpt lat="47.94113" lon="-1.23102">
        <ele>65.2</ele>
        <time>2022-08-27T21:00:30Z</time>
      </trkpt>
      <trkpt lat="47.941" lon="-1.231">
        <ele>65.8</ele>
        <time>2022-08-27T21:00:34Z</time>
      </trkpt>
      <trkpt lat="47.9408" lon="-1.23094">
        <ele>66.4</ele>
        <time>2022-08-27T21:00:39Z</time>
      </trkpt>
      <trkpt lat="47.94076" lon="-1.23093">
        <ele>66.6</ele>
        <time>2022-08-27T21:00:40Z</time>
      </trkpt>
      <trkpt lat="47.94048" lon="-1.23088">
        <ele>67.2</ele>
        <time>2022-08-27T21:00:46Z</time>
      </trkpt>
      <trkpt lat="47.9403" lon="-1.23085">
        <ele>68.2</ele>
        <time>2022-08-27T21:00:51Z</time>
      </trkpt>
      <trkpt lat="47.94009" lon="-1.23089">
        <ele>69.4</ele>
        <time>2022-08-27T21:00:57Z</time>
      </trkpt>
      <trkpt lat="47.93987" lon="-1.23091">
        <ele>70.2</ele>
        <time>2022-08-27T21:01:03Z</time>
      </trkpt>
      <trkpt lat="47.93965" lon="-1.23093">
        <ele>70.8</ele>
        <time>2022-08-27T21:01:09Z</time>
      </trkpt>
      <trkpt lat="47.93961" lon="-1.23093">
        <ele>71</ele>
        <time>2022-08-27T21:01:10Z</time>
      </trkpt>
      <trkpt lat="47.93952" lon="-1.23095">
        <ele>71.2</ele>
        <time>2022-08-27T21:01:12Z</time>
      </trkpt>
      <trkpt lat="47.93948" lon="-1.23095">
        <ele>71.4</ele>
        <time>2022-08-27T21:01:13Z</time>
      </trkpt>
      <trkpt lat="47.93921" lon="-1.23099">
        <ele>72</ele>
        <time>2022-08-27T21:01:19Z</time>
      </trkpt>
      <trkpt lat="47.93906" lon="-1.23101">
        <ele>72.6</ele>
        <time>2022-08-27T21:01:23Z</time>
      </trkpt>
      <trkpt lat="47.93898" lon="-1.23102">
        <ele>72.8</ele>
        <time>2022-08-27T21:01:25Z</time>
      </trkpt>
      <trkpt lat="47.93872" lon="-1.23106">
        <ele>73.6</ele>
        <time>2022-08-27T21:01:31Z</time>
      </trkpt>
      <trkpt lat="47.93839" lon="-1.23111">
        <ele>74.6</ele>
        <time>2022-08-27T21:01:39Z</time>
      </trkpt>
      <trkpt lat="47.93819" lon="-1.23117">
        <ele>75.2</ele>
        <time>2022-08-27T21:01:44Z</time>
      </trkpt>
      <trkpt lat="47.93791" lon="-1.23126">
        <ele>76.2</ele>
        <time>2022-08-27T21:01:51Z</time>
      </trkpt>
      <trkpt lat="47.93772" lon="-1.23133">
        <ele>77</ele>
        <time>2022-08-27T21:01:57Z</time>
      </trkpt>
      <trkpt lat="47.93758" lon="-1.23139">
        <ele>77.8</ele>
        <time>2022-08-27T21:02:03Z</time>
      </trkpt>
      <trkpt lat="47.93748" lon="-1.23143">
        <ele>78.6</ele>
        <time>2022-08-27T21:02:09Z</time>
      </trkpt>
      <trkpt lat="47.93735" lon="-1.23149">
        <ele>79.2</ele>
        <time>2022-08-27T21:02:14Z</time>
      </trkpt>
      <trkpt lat="47.93722" lon="-1.23156">
        <ele>79.8</ele>
        <time>2022-08-27T21:02:20Z</time>
      </trkpt>
      <trkpt lat="47.93706" lon="-1.23164">
        <ele>80.6</ele>
        <time>2022-08-27T21:02:26Z</time>
      </trkpt>
      <trkpt lat="47.93678" lon="-1.23177">
        <ele>81.4</ele>
        <time>2022-08-27T21:02:33Z</time>
      </trkpt>
      <trkpt lat="47.93641" lon="-1.23193">
        <ele>82</ele>
        <time>2022-08-27T21:02:40Z</time>
      </trkpt>
      <trkpt lat="47.93596" lon="-1.23211">
        <ele>82.2</ele>
        <time>2022-08-27T21:02:47Z</time>
      </trkpt>
      <trkpt lat="47.93582" lon="-1.23218">
        <ele>82.4</ele>
        <time>2022-08-27T21:02:49Z</time>
      </trkpt>
      <trkpt lat="47.93571" lon="-1.23233">
        <ele>82.2</ele>
        <time>2022-08-27T21:02:51Z</time>
      </trkpt>
      <trkpt lat="47.93556" lon="-1.23238">
        <ele>82.4</ele>
        <time>2022-08-27T21:02:53Z</time>
      </trkpt>
      <trkpt lat="47.93542" lon="-1.23239">
        <ele>82.4</ele>
        <time>2022-08-27T21:02:55Z</time>
      </trkpt>
      <trkpt lat="47.93527" lon="-1.23244">
        <ele>82.4</ele>
        <time>2022-08-27T21:02:57Z</time>
      </trkpt>
      <trkpt lat="47.93474" lon="-1.2327">
        <ele>82.6</ele>
        <time>2022-08-27T21:03:04Z</time>
      </trkpt>
      <trkpt lat="47.93467" lon="-1.23273">
        <ele>82.6</ele>
        <time>2022-08-27T21:03:05Z</time>
      </trkpt>
      <trkpt lat="47.9341" lon="-1.23305">
        <ele>82.6</ele>
        <time>2022-08-27T21:03:13Z</time>
      </trkpt>
      <trkpt lat="47.93388" lon="-1.23331">
        <ele>82.6</ele>
        <time>2022-08-27T21:03:17Z</time>
      </trkpt>
      <trkpt lat="47.93375" lon="-1.23332">
        <ele>82.6</ele>
        <time>2022-08-27T21:03:19Z</time>
      </trkpt>
      <trkpt lat="47.93362" lon="-1.23328">
        <ele>82.6</ele>
        <time>2022-08-27T21:03:21Z</time>
      </trkpt>
      <trkpt lat="47.93349" lon="-1.2333">
        <ele>82.6</ele>
        <time>2022-08-27T21:03:23Z</time>
      </trkpt>
      <trkpt lat="47.93336" lon="-1.23329">
        <ele>82.6</ele>
        <time>2022-08-27T21:03:25Z</time>
      </trkpt>
      <trkpt lat="47.93331" lon="-1.23329">
        <ele>82.6</ele>
        <time>2022-08-27T21:03:26Z</time>
      </trkpt>
      <trkpt lat="47.93325" lon="-1.23333">
        <ele>82.4</ele>
        <time>2022-08-27T21:03:27Z</time>
      </trkpt>
      <trkpt lat="47.93307" lon="-1.23346">
        <ele>82.4</ele>
        <time>2022-08-27T21:03:30Z</time>
      </trkpt>
      <trkpt lat="47.93256" lon="-1.23385">
        <ele>82.2</ele>
        <time>2022-08-27T21:03:38Z</time>
      </trkpt>
      <trkpt lat="47.9322" lon="-1.23411">
        <ele>82.2</ele>
        <time>2022-08-27T21:03:44Z</time>
      </trkpt>
      <trkpt lat="47.93168" lon="-1.2345">
        <ele>82.2</ele>
        <time>2022-08-27T21:03:53Z</time>
      </trkpt>
      <trkpt lat="47.93162" lon="-1.23454">
        <ele>82.2</ele>
        <time>2022-08-27T21:03:54Z</time>
      </trkpt>
      <trkpt lat="47.93156" lon="-1.23459">
        <ele>82.4</ele>
        <time>2022-08-27T21:03:55Z</time>
      </trkpt>
      <trkpt lat="47.93139" lon="-1.23471">
        <ele>82.4</ele>
        <time>2022-08-27T21:03:58Z</time>
      </trkpt>
      <trkpt lat="47.93128" lon="-1.23479">
        <ele>82.4</ele>
        <time>2022-08-27T21:04:00Z</time>
      </trkpt>
      <trkpt lat="47.93083" lon="-1.23513">
        <ele>82.4</ele>
        <time>2022-08-27T21:04:08Z</time>
      </trkpt>
      <trkpt lat="47.93032" lon="-1.2355">
        <ele>82.4</ele>
        <time>2022-08-27T21:04:17Z</time>
      </trkpt>
      <trkpt lat="47.93027" lon="-1.23554">
        <ele>82.4</ele>
        <time>2022-08-27T21:04:18Z</time>
      </trkpt>
      <trkpt lat="47.92977" lon="-1.23592">
        <ele>82.6</ele>
        <time>2022-08-27T21:04:27Z</time>
      </trkpt>
      <trkpt lat="47.92971" lon="-1.23596">
        <ele>82.6</ele>
        <time>2022-08-27T21:04:28Z</time>
      </trkpt>
      <trkpt lat="47.92935" lon="-1.23623">
        <ele>82.8</ele>
        <time>2022-08-27T21:04:34Z</time>
      </trkpt>
      <trkpt lat="47.92883" lon="-1.23662">
        <ele>82.8</ele>
        <time>2022-08-27T21:04:43Z</time>
      </trkpt>
      <trkpt lat="47.92877" lon="-1.23666">
        <ele>82.8</ele>
        <time>2022-08-27T21:04:44Z</time>
      </trkpt>
      <trkpt lat="47.92823" lon="-1.23706">
        <ele>83</ele>
        <time>2022-08-27T21:04:53Z</time>
      </trkpt>
      <trkpt lat="47.92777" lon="-1.23741">
        <ele>83</ele>
        <time>2022-08-27T21:05:01Z</time>
      </trkpt>
      <trkpt lat="47.9273" lon="-1.23777">
        <ele>83.2</ele>
        <time>2022-08-27T21:05:09Z</time>
      </trkpt>
      <trkpt lat="47.92691" lon="-1.23808">
        <ele>83.4</ele>
        <time>2022-08-27T21:05:16Z</time>
      </trkpt>
      <trkpt lat="47.92645" lon="-1.23845">
        <ele>83.4</ele>
        <time>2022-08-27T21:05:24Z</time>
      </trkpt>
      <trkpt lat="47.92612" lon="-1.23868">
        <ele>83.4</ele>
        <time>2022-08-27T21:05:30Z</time>
      </trkpt>
      <trkpt lat="47.92589" lon="-1.23883">
        <ele>83.4</ele>
        <time>2022-08-27T21:05:35Z</time>
      </trkpt>
      <trkpt lat="47.92585" lon="-1.23883">
        <ele>83.6</ele>
        <time>2022-08-27T21:05:36Z</time>
      </trkpt>
      <trkpt lat="47.92567" lon="-1.23885">
        <ele>83.2</ele>
        <time>2022-08-27T21:05:41Z</time>
      </trkpt>
      <trkpt lat="47.92557" lon="-1.23905">
        <ele>83.2</ele>
        <time>2022-08-27T21:05:45Z</time>
      </trkpt>
      <trkpt lat="47.92538" lon="-1.23943">
        <ele>83.2</ele>
        <time>2022-08-27T21:05:51Z</time>
      </trkpt>
      <trkpt lat="47.92531" lon="-1.23967">
        <ele>83</ele>
        <time>2022-08-27T21:05:55Z</time>
      </trkpt>
      <trkpt lat="47.92526" lon="-1.23978">
        <ele>83</ele>
        <time>2022-08-27T21:05:57Z</time>
      </trkpt>
      <trkpt lat="47.92517" lon="-1.23996">
        <ele>82.8</ele>
        <time>2022-08-27T21:06:00Z</time>
      </trkpt>
      <trkpt lat="47.92499" lon="-1.24032">
        <ele>82.4</ele>
        <time>2022-08-27T21:06:06Z</time>
      </trkpt>
      <trkpt lat="47.92492" lon="-1.24055">
        <ele>82</ele>
        <time>2022-08-27T21:06:09Z</time>
      </trkpt>
      <trkpt lat="47.9249" lon="-1.24062">
        <ele>82</ele>
        <time>2022-08-27T21:06:10Z</time>
      </trkpt>
      <trkpt lat="47.92482" lon="-1.24076">
        <ele>81.8</ele>
        <time>2022-08-27T21:06:12Z</time>
      </trkpt>
      <trkpt lat="47.92477" lon="-1.24081">
        <ele>81.8</ele>
        <time>2022-08-27T21:06:13Z</time>
      </trkpt>
      <trkpt lat="47.92471" lon="-1.24086">
        <ele>81.6</ele>
        <time>2022-08-27T21:06:14Z</time>
      </trkpt>
      <trkpt lat="47.92458" lon="-1.24091">
        <ele>81.4</ele>
        <time>2022-08-27T21:06:16Z</time>
      </trkpt>
      <trkpt lat="47.92424" lon="-1.241">
        <ele>80.8</ele>
        <time>2022-08-27T21:06:21Z</time>
      </trkpt>
      <trkpt lat="47.92408" lon="-1.24104">
        <ele>80.4</ele>
        <time>2022-08-27T21:06:25Z</time>
      </trkpt>
      <trkpt lat="47.92404" lon="-1.24104">
        <ele>80</ele>
        <time>2022-08-27T21:06:27Z</time>
      </trkpt>
      <trkpt lat="47.92405" lon="-1.24099">
        <ele>79.6</ele>
        <time>2022-08-27T21:06:29Z</time>
      </trkpt>
      <trkpt lat="47.92414" lon="-1.24096">
        <ele>79</ele>
        <time>2022-08-27T21:06:33Z</time>
      </trkpt>
      <trkpt lat="47.92424" lon="-1.24096">
        <ele>78.6</ele>
        <time>2022-08-27T21:06:37Z</time>
      </trkpt>
      <trkpt lat="47.92444" lon="-1.24099">
        <ele>78.2</ele>
        <time>2022-08-27T21:06:43Z</time>
      </trkpt>
      <trkpt lat="47.92443" lon="-1.24116">
        <ele>78</ele>
        <time>2022-08-27T21:06:46Z</time>
      </trkpt>
      <trkpt lat="47.9243" lon="-1.2415">
        <ele>77.8</ele>
        <time>2022-08-27T21:06:51Z</time>
      </trkpt>
      <trkpt lat="47.92414" lon="-1.24199">
        <ele>77</ele>
        <time>2022-08-27T21:06:57Z</time>
      </trkpt>
      <trkpt lat="47.92409" lon="-1.24228">
        <ele>76.6</ele>
        <time>2022-08-27T21:07:00Z</time>
      </trkpt>
      <trkpt lat="47.92406" lon="-1.24256">
        <ele>76.2</ele>
        <time>2022-08-27T21:07:03Z</time>
      </trkpt>
      <trkpt lat="47.92405" lon="-1.24263">
        <ele>76.2</ele>
        <time>2022-08-27T21:07:04Z</time>
      </trkpt>
      <trkpt lat="47.92399" lon="-1.24271">
        <ele>76</ele>
        <time>2022-08-27T21:07:06Z</time>
      </trkpt>
      <trkpt lat="47.92384" lon="-1.24268">
        <ele>75.6</ele>
        <time>2022-08-27T21:07:09Z</time>
      </trkpt>
      <trkpt lat="47.92368" lon="-1.24263">
        <ele>74.8</ele>
        <time>2022-08-27T21:07:14Z</time>
      </trkpt>
      <trkpt lat="47.92351" lon="-1.24261">
        <ele>74.6</ele>
        <time>2022-08-27T21:07:19Z</time>
      </trkpt>
      <trkpt lat="47.92338" lon="-1.24258">
        <ele>74.4</ele>
        <time>2022-08-27T21:07:22Z</time>
      </trkpt>
      <trkpt lat="47.92331" lon="-1.24262">
        <ele>74.2</ele>
        <time>2022-08-27T21:07:24Z</time>
      </trkpt>
      <trkpt lat="47.92326" lon="-1.24271">
        <ele>73.8</ele>
        <time>2022-08-27T21:07:26Z</time>
      </trkpt>
      <trkpt lat="47.92323" lon="-1.24285">
        <ele>73.6</ele>
        <time>2022-08-27T21:07:28Z</time>
      </trkpt>
      <trkpt lat="47.9232" lon="-1.24306">
        <ele>73.2</ele>
        <time>2022-08-27T21:07:31Z</time>
      </trkpt>
      <trkpt lat="47.92318" lon="-1.2432">
        <ele>72.8</ele>
        <time>2022-08-27T21:07:33Z</time>
      </trkpt>
      <trkpt lat="47.92315" lon="-1.24336">
        <ele>72.4</ele>
        <time>2022-08-27T21:07:35Z</time>
      </trkpt>
      <trkpt lat="47.92313" lon="-1.24352">
        <ele>72.2</ele>
        <time>2022-08-27T21:07:37Z</time>
      </trkpt>
      <trkpt lat="47.92308" lon="-1.2438">
        <ele>71.6</ele>
        <time>2022-08-27T21:07:40Z</time>
      </trkpt>
      <trkpt lat="47.92301" lon="-1.24409">
        <ele>70.8</ele>
        <time>2022-08-27T21:07:44Z</time>
      </trkpt>
      <trkpt lat="47.92299" lon="-1.24415">
        <ele>70.4</ele>
        <time>2022-08-27T21:07:46Z</time>
      </trkpt>
      <trkpt lat="47.923" lon="-1.24417">
        <ele>70.2</ele>
        <time>2022-08-27T21:07:47Z</time>
      </trkpt>
      <trkpt lat="47.92299" lon="-1.2442">
        <ele>69.8</ele>
        <time>2022-08-27T21:07:49Z</time>
      </trkpt>
      <trkpt lat="47.92298" lon="-1.24422">
        <ele>69.6</ele>
        <time>2022-08-27T21:07:50Z</time>
      </trkpt>
      <trkpt lat="47.92298" lon="-1.24426">
        <ele>69.4</ele>
        <time>2022-08-27T21:07:52Z</time>
      </trkpt>
      <trkpt lat="47.92298" lon="-1.24432">
        <ele>69.2</ele>
        <time>2022-08-27T21:07:54Z</time>
      </trkpt>
      <trkpt lat="47.92298" lon="-1.24434">
        <ele>69.2</ele>
        <time>2022-08-27T21:07:55Z</time>
      </trkpt>
      <trkpt lat="47.92295" lon="-1.24439">
        <ele>69</ele>
        <time>2022-08-27T21:07:57Z</time>
      </trkpt>
      <trkpt lat="47.92296" lon="-1.24443">
        <ele>69</ele>
        <time>2022-08-27T21:08:00Z</time>
      </trkpt>
      <trkpt lat="47.92291" lon="-1.24459">
        <ele>68.4</ele>
        <time>2022-08-27T21:08:05Z</time>
      </trkpt>
      <trkpt lat="47.92281" lon="-1.2447">
        <ele>67.8</ele>
        <time>2022-08-27T21:08:09Z</time>
      </trkpt>
      <trkpt lat="47.92273" lon="-1.24474">
        <ele>67.6</ele>
        <time>2022-08-27T21:08:11Z</time>
      </trkpt>
      <trkpt lat="47.92264" lon="-1.24478">
        <ele>67.4</ele>
        <time>2022-08-27T21:08:13Z</time>
      </trkpt>
      <trkpt lat="47.9226" lon="-1.24481">
        <ele>67.4</ele>
        <time>2022-08-27T21:08:14Z</time>
      </trkpt>
      <trkpt lat="47.92247" lon="-1.24494">
        <ele>67</ele>
        <time>2022-08-27T21:08:18Z</time>
      </trkpt>
      <trkpt lat="47.92235" lon="-1.24519">
        <ele>66.6</ele>
        <time>2022-08-27T21:08:23Z</time>
      </trkpt>
      <trkpt lat="47.92231" lon="-1.24533">
        <ele>66.6</ele>
        <time>2022-08-27T21:08:25Z</time>
      </trkpt>
      <trkpt lat="47.92228" lon="-1.24546">
        <ele>66.4</ele>
        <time>2022-08-27T21:08:27Z</time>
      </trkpt>
      <trkpt lat="47.92217" lon="-1.2458">
        <ele>66.2</ele>
        <time>2022-08-27T21:08:32Z</time>
      </trkpt>
      <trkpt lat="47.92208" lon="-1.24607">
        <ele>66.2</ele>
        <time>2022-08-27T21:08:36Z</time>
      </trkpt>
      <trkpt lat="47.92206" lon="-1.24615">
        <ele>66.2</ele>
        <time>2022-08-27T21:08:37Z</time>
      </trkpt>
      <trkpt lat="47.922" lon="-1.24633">
        <ele>66</ele>
        <time>2022-08-27T21:08:40Z</time>
      </trkpt>
      <trkpt lat="47.92195" lon="-1.24649">
        <ele>66</ele>
        <time>2022-08-27T21:08:43Z</time>
      </trkpt>
      <trkpt lat="47.92196" lon="-1.24654">
        <ele>66</ele>
        <time>2022-08-27T21:08:44Z</time>
      </trkpt>
      <trkpt lat="47.92198" lon="-1.24658">
        <ele>66.2</ele>
        <time>2022-08-27T21:08:45Z</time>
      </trkpt>
      <trkpt lat="47.92202" lon="-1.24666">
        <ele>66</ele>
        <time>2022-08-27T21:08:47Z</time>
      </trkpt>
      <trkpt lat="47.92204" lon="-1.24669">
        <ele>66</ele>
        <time>2022-08-27T21:08:48Z</time>
      </trkpt>
      <trkpt lat="47.92202" lon="-1.24675">
        <ele>65.8</ele>
        <time>2022-08-27T21:08:50Z</time>
      </trkpt>
      <trkpt lat="47.92199" lon="-1.24677">
        <ele>65.8</ele>
        <time>2022-08-27T21:08:54Z</time>
      </trkpt>
      <trkpt lat="47.92188" lon="-1.24663">
        <ele>64.2</ele>
        <time>2022-08-27T21:09:20Z</time>
      </trkpt>
      <trkpt lat="47.9218" lon="-1.24674">
        <ele>64.2</ele>
        <time>2022-08-27T21:09:23Z</time>
      </trkpt>
      <trkpt lat="47.92176" lon="-1.24677">
        <ele>64.2</ele>
        <time>2022-08-27T21:09:24Z</time>
      </trkpt>
      <trkpt lat="47.92165" lon="-1.24687">
        <ele>64.2</ele>
        <time>2022-08-27T21:09:28Z</time>
      </trkpt>
      <trkpt lat="47.92157" lon="-1.24696">
        <ele>64.2</ele>
        <time>2022-08-27T21:09:32Z</time>
      </trkpt>
      <trkpt lat="47.9215" lon="-1.247">
        <ele>64.2</ele>
        <time>2022-08-27T21:09:36Z</time>
      </trkpt>
      <trkpt lat="47.92136" lon="-1.24705">
        <ele>64.4</ele>
        <time>2022-08-27T21:09:41Z</time>
      </trkpt>
      <trkpt lat="47.9212" lon="-1.2471">
        <ele>64.6</ele>
        <time>2022-08-27T21:09:46Z</time>
      </trkpt>
      <trkpt lat="47.92105" lon="-1.24715">
        <ele>64.6</ele>
        <time>2022-08-27T21:09:50Z</time>
      </trkpt>
      <trkpt lat="47.92101" lon="-1.24717">
        <ele>64.8</ele>
        <time>2022-08-27T21:09:51Z</time>
      </trkpt>
      <trkpt lat="47.92082" lon="-1.24724">
        <ele>65</ele>
        <time>2022-08-27T21:09:56Z</time>
      </trkpt>
      <trkpt lat="47.92059" lon="-1.24734">
        <ele>65.2</ele>
        <time>2022-08-27T21:10:02Z</time>
      </trkpt>
      <trkpt lat="47.92044" lon="-1.2474">
        <ele>65.2</ele>
        <time>2022-08-27T21:10:06Z</time>
      </trkpt>
      <trkpt lat="47.92037" lon="-1.24744">
        <ele>65.2</ele>
        <time>2022-08-27T21:10:08Z</time>
      </trkpt>
      <trkpt lat="47.92026" lon="-1.24748">
        <ele>65.2</ele>
        <time>2022-08-27T21:10:11Z</time>
      </trkpt>
      <trkpt lat="47.92014" lon="-1.24752">
        <ele>65.4</ele>
        <time>2022-08-27T21:10:15Z</time>
      </trkpt>
      <trkpt lat="47.9201" lon="-1.24752">
        <ele>65.4</ele>
        <time>2022-08-27T21:10:16Z</time>
      </trkpt>
      <trkpt lat="47.91999" lon="-1.24757">
        <ele>65.4</ele>
        <time>2022-08-27T21:10:19Z</time>
      </trkpt>
      <trkpt lat="47.91984" lon="-1.24763">
        <ele>65.4</ele>
        <time>2022-08-27T21:10:23Z</time>
      </trkpt>
      <trkpt lat="47.91968" lon="-1.24771">
        <ele>65.6</ele>
        <time>2022-08-27T21:10:27Z</time>
      </trkpt>
      <trkpt lat="47.91964" lon="-1.24772">
        <ele>65.6</ele>
        <time>2022-08-27T21:10:28Z</time>
      </trkpt>
      <trkpt lat="47.91951" lon="-1.24776">
        <ele>65.6</ele>
        <time>2022-08-27T21:10:31Z</time>
      </trkpt>
      <trkpt lat="47.91943" lon="-1.24785">
        <ele>65.6</ele>
        <time>2022-08-27T21:10:33Z</time>
      </trkpt>
      <trkpt lat="47.91938" lon="-1.24798">
        <ele>65.8</ele>
        <time>2022-08-27T21:10:35Z</time>
      </trkpt>
      <trkpt lat="47.91933" lon="-1.24811">
        <ele>65.8</ele>
        <time>2022-08-27T21:10:37Z</time>
      </trkpt>
      <trkpt lat="47.91916" lon="-1.2486">
        <ele>66</ele>
        <time>2022-08-27T21:10:44Z</time>
      </trkpt>
      <trkpt lat="47.91899" lon="-1.24907">
        <ele>66</ele>
        <time>2022-08-27T21:10:50Z</time>
      </trkpt>
      <trkpt lat="47.91871" lon="-1.24984">
        <ele>65.6</ele>
        <time>2022-08-27T21:10:59Z</time>
      </trkpt>
      <trkpt lat="47.91855" lon="-1.25038">
        <ele>65.4</ele>
        <time>2022-08-27T21:11:05Z</time>
      </trkpt>
      <trkpt lat="47.91853" lon="-1.25045">
        <ele>65.4</ele>
        <time>2022-08-27T21:11:06Z</time>
      </trkpt>
      <trkpt lat="47.91849" lon="-1.25054">
        <ele>65.2</ele>
        <time>2022-08-27T21:11:08Z</time>
      </trkpt>
      <trkpt lat="47.91846" lon="-1.2507">
        <ele>65</ele>
        <time>2022-08-27T21:11:12Z</time>
      </trkpt>
      <trkpt lat="47.91844" lon="-1.25085">
        <ele>64.6</ele>
        <time>2022-08-27T21:11:17Z</time>
      </trkpt>
      <trkpt lat="47.91841" lon="-1.25087">
        <ele>64.4</ele>
        <time>2022-08-27T21:11:20Z</time>
      </trkpt>
      <trkpt lat="47.91848" lon="-1.25074">
        <ele>64</ele>
        <time>2022-08-27T21:11:24Z</time>
      </trkpt>
      <trkpt lat="47.91849" lon="-1.25065">
        <ele>63.8</ele>
        <time>2022-08-27T21:11:26Z</time>
      </trkpt>
      <trkpt lat="47.91849" lon="-1.25061">
        <ele>63.6</ele>
        <time>2022-08-27T21:11:28Z</time>
      </trkpt>
      <trkpt lat="47.91849" lon="-1.25061">
        <ele>63.6</ele>
        <time>2022-08-27T21:11:29Z</time>
      </trkpt>
      <trkpt lat="47.91849" lon="-1.25057">
        <ele>63.2</ele>
        <time>2022-08-27T21:11:34Z</time>
      </trkpt>
      <trkpt lat="47.91851" lon="-1.25051">
        <ele>63.2</ele>
        <time>2022-08-27T21:11:36Z</time>
      </trkpt>
      <trkpt lat="47.91852" lon="-1.25046">
        <ele>63</ele>
        <time>2022-08-27T21:11:38Z</time>
      </trkpt>
      <trkpt lat="47.91853" lon="-1.25039">
        <ele>63</ele>
        <time>2022-08-27T21:11:40Z</time>
      </trkpt>
      <trkpt lat="47.91859" lon="-1.25018">
        <ele>62.6</ele>
        <time>2022-08-27T21:11:45Z</time>
      </trkpt>
      <trkpt lat="47.91866" lon="-1.2499">
        <ele>62.2</ele>
        <time>2022-08-27T21:11:51Z</time>
      </trkpt>
      <trkpt lat="47.91874" lon="-1.24968">
        <ele>62.2</ele>
        <time>2022-08-27T21:11:57Z</time>
      </trkpt>
      <trkpt lat="47.91883" lon="-1.24945">
        <ele>62.4</ele>
        <time>2022-08-27T21:12:04Z</time>
      </trkpt>
      <trkpt lat="47.91883" lon="-1.24936">
        <ele>62.4</ele>
        <time>2022-08-27T21:12:07Z</time>
      </trkpt>
      <trkpt lat="47.91883" lon="-1.24936">
        <ele>62.4</ele>
        <time>2022-08-27T21:12:08Z</time>
      </trkpt>
      <trkpt lat="47.91883" lon="-1.24936">
        <ele>62.4</ele>
        <time>2022-08-27T21:12:09Z</time>
      </trkpt>
      <trkpt lat="47.91882" lon="-1.24936">
        <ele>62.4</ele>
        <time>2022-08-27T21:12:36Z</time>
      </trkpt>
      <trkpt lat="47.91882" lon="-1.24936">
        <ele>62.4</ele>
        <time>2022-08-27T21:12:37Z</time>
      </trkpt>
      <trkpt lat="47.91879" lon="-1.24937">
        <ele>62.6</ele>
        <time>2022-08-27T21:12:43Z</time>
      </trkpt>
      <trkpt lat="47.91877" lon="-1.2494">
        <ele>62.6</ele>
        <time>2022-08-27T21:12:45Z</time>
      </trkpt>
      <trkpt lat="47.91868" lon="-1.24957">
        <ele>62.8</ele>
        <time>2022-08-27T21:12:50Z</time>
      </trkpt>
      <trkpt lat="47.91859" lon="-1.24981">
        <ele>62.8</ele>
        <time>2022-08-27T21:12:55Z</time>
      </trkpt>
      <trkpt lat="47.91846" lon="-1.2502">
        <ele>62.8</ele>
        <time>2022-08-27T21:13:03Z</time>
      </trkpt>
      <trkpt lat="47.91833" lon="-1.25049">
        <ele>62.8</ele>
        <time>2022-08-27T21:13:10Z</time>
      </trkpt>
      <trkpt lat="47.91832" lon="-1.25051">
        <ele>63</ele>
        <time>2022-08-27T21:13:11Z</time>
      </trkpt>
      <trkpt lat="47.91831" lon="-1.25053">
        <ele>63</ele>
        <time>2022-08-27T21:13:14Z</time>
      </trkpt>
      <trkpt lat="47.91831" lon="-1.25047">
        <ele>63.2</ele>
        <time>2022-08-27T21:13:23Z</time>
      </trkpt>
      <trkpt lat="47.91825" lon="-1.25047">
        <ele>63.2</ele>
        <time>2022-08-27T21:13:25Z</time>
      </trkpt>
      <trkpt lat="47.91807" lon="-1.25044">
        <ele>63.2</ele>
        <time>2022-08-27T21:13:30Z</time>
      </trkpt>
      <trkpt lat="47.91794" lon="-1.2504">
        <ele>63.4</ele>
        <time>2022-08-27T21:13:35Z</time>
      </trkpt>
      <trkpt lat="47.91771" lon="-1.25035">
        <ele>63.6</ele>
        <time>2022-08-27T21:13:42Z</time>
      </trkpt>
      <trkpt lat="47.91755" lon="-1.25032">
        <ele>63.8</ele>
        <time>2022-08-27T21:13:48Z</time>
      </trkpt>
      <trkpt lat="47.91736" lon="-1.25027">
        <ele>64</ele>
        <time>2022-08-27T21:13:55Z</time>
      </trkpt>
      <trkpt lat="47.91715" lon="-1.25024">
        <ele>64.4</ele>
        <time>2022-08-27T21:14:02Z</time>
      </trkpt>
      <trkpt lat="47.91692" lon="-1.25019">
        <ele>64.8</ele>
        <time>2022-08-27T21:14:09Z</time>
      </trkpt>
      <trkpt lat="47.91665" lon="-1.25013">
        <ele>65.6</ele>
        <time>2022-08-27T21:14:18Z</time>
      </trkpt>
      <trkpt lat="47.91639" lon="-1.25009">
        <ele>66.2</ele>
        <time>2022-08-27T21:14:27Z</time>
      </trkpt>
      <trkpt lat="47.91623" lon="-1.25004">
        <ele>66.8</ele>
        <time>2022-08-27T21:14:34Z</time>
      </trkpt>
      <trkpt lat="47.91603" lon="-1.25001">
        <ele>67.2</ele>
        <time>2022-08-27T21:14:41Z</time>
      </trkpt>
      <trkpt lat="47.91588" lon="-1.24998">
        <ele>67.6</ele>
        <time>2022-08-27T21:14:47Z</time>
      </trkpt>
      <trkpt lat="47.91572" lon="-1.24995">
        <ele>68</ele>
        <time>2022-08-27T21:14:54Z</time>
      </trkpt>
      <trkpt lat="47.91559" lon="-1.24988">
        <ele>68.4</ele>
        <time>2022-08-27T21:14:59Z</time>
      </trkpt>
      <trkpt lat="47.9154" lon="-1.24976">
        <ele>69</ele>
        <time>2022-08-27T21:15:06Z</time>
      </trkpt>
      <trkpt lat="47.9152" lon="-1.24965">
        <ele>69.6</ele>
        <time>2022-08-27T21:15:14Z</time>
      </trkpt>
      <trkpt lat="47.915" lon="-1.24955">
        <ele>70.4</ele>
        <time>2022-08-27T21:15:22Z</time>
      </trkpt>
      <trkpt lat="47.91496" lon="-1.24954">
        <ele>70.4</ele>
        <time>2022-08-27T21:15:23Z</time>
      </trkpt>
      <trkpt lat="47.91488" lon="-1.24955">
        <ele>70.6</ele>
        <time>2022-08-27T21:15:25Z</time>
      </trkpt>
      <trkpt lat="47.91467" lon="-1.24961">
        <ele>71</ele>
        <time>2022-08-27T21:15:31Z</time>
      </trkpt>
      <trkpt lat="47.91444" lon="-1.24966">
        <ele>71.4</ele>
        <time>2022-08-27T21:15:37Z</time>
      </trkpt>
      <trkpt lat="47.91425" lon="-1.24965">
        <ele>71.8</ele>
        <time>2022-08-27T21:15:43Z</time>
      </trkpt>
      <trkpt lat="47.91413" lon="-1.24965">
        <ele>72.4</ele>
        <time>2022-08-27T21:15:48Z</time>
      </trkpt>
      <trkpt lat="47.91399" lon="-1.24965">
        <ele>73.2</ele>
        <time>2022-08-27T21:15:54Z</time>
      </trkpt>
      <trkpt lat="47.91387" lon="-1.2496">
        <ele>73.8</ele>
        <time>2022-08-27T21:15:59Z</time>
      </trkpt>
      <trkpt lat="47.91365" lon="-1.24954">
        <ele>74.4</ele>
        <time>2022-08-27T21:16:06Z</time>
      </trkpt>
      <trkpt lat="47.91348" lon="-1.24951">
        <ele>75</ele>
        <time>2022-08-27T21:16:11Z</time>
      </trkpt>
      <trkpt lat="47.91325" lon="-1.2495">
        <ele>75.4</ele>
        <time>2022-08-27T21:16:18Z</time>
      </trkpt>
      <trkpt lat="47.913" lon="-1.24953">
        <ele>76</ele>
        <time>2022-08-27T21:16:25Z</time>
      </trkpt>
      <trkpt lat="47.91283" lon="-1.24956">
        <ele>76.2</ele>
        <time>2022-08-27T21:16:30Z</time>
      </trkpt>
      <trkpt lat="47.91264" lon="-1.2496">
        <ele>76.6</ele>
        <time>2022-08-27T21:16:35Z</time>
      </trkpt>
      <trkpt lat="47.91239" lon="-1.24966">
        <ele>77</ele>
        <time>2022-08-27T21:16:42Z</time>
      </trkpt>
      <trkpt lat="47.91217" lon="-1.24973">
        <ele>77.2</ele>
        <time>2022-08-27T21:16:48Z</time>
      </trkpt>
      <trkpt lat="47.9119" lon="-1.2498">
        <ele>77.6</ele>
        <time>2022-08-27T21:16:55Z</time>
      </trkpt>
      <trkpt lat="47.91159" lon="-1.2499">
        <ele>77.6</ele>
        <time>2022-08-27T21:17:03Z</time>
      </trkpt>
      <trkpt lat="47.91127" lon="-1.25">
        <ele>77.8</ele>
        <time>2022-08-27T21:17:12Z</time>
      </trkpt>
      <trkpt lat="47.91109" lon="-1.25009">
        <ele>77.8</ele>
        <time>2022-08-27T21:17:18Z</time>
      </trkpt>
      <trkpt lat="47.91104" lon="-1.25011">
        <ele>77.8</ele>
        <time>2022-08-27T21:17:20Z</time>
      </trkpt>
      <trkpt lat="47.911" lon="-1.25009">
        <ele>77.8</ele>
        <time>2022-08-27T21:17:22Z</time>
      </trkpt>
      <trkpt lat="47.91096" lon="-1.24992">
        <ele>77.6</ele>
        <time>2022-08-27T21:17:26Z</time>
      </trkpt>
      <trkpt lat="47.91089" lon="-1.24975">
        <ele>77</ele>
        <time>2022-08-27T21:17:31Z</time>
      </trkpt>
      <trkpt lat="47.91084" lon="-1.24971">
        <ele>76.8</ele>
        <time>2022-08-27T21:17:35Z</time>
      </trkpt>
      <trkpt lat="47.91081" lon="-1.24961">
        <ele>76.2</ele>
        <time>2022-08-27T21:19:40Z</time>
      </trkpt>
      <trkpt lat="47.91084" lon="-1.24957">
        <ele>76.2</ele>
        <time>2022-08-27T21:19:42Z</time>
      </trkpt>
      <trkpt lat="47.91097" lon="-1.24942">
        <ele>76.4</ele>
        <time>2022-08-27T21:19:47Z</time>
      </trkpt>
      <trkpt lat="47.91121" lon="-1.24914">
        <ele>76.2</ele>
        <time>2022-08-27T21:19:55Z</time>
      </trkpt>
      <trkpt lat="47.91138" lon="-1.24893">
        <ele>76.4</ele>
        <time>2022-08-27T21:20:02Z</time>
      </trkpt>
      <trkpt lat="47.91142" lon="-1.24881">
        <ele>76.6</ele>
        <time>2022-08-27T21:20:05Z</time>
      </trkpt>
      <trkpt lat="47.9114" lon="-1.24877">
        <ele>76.6</ele>
        <time>2022-08-27T21:20:06Z</time>
      </trkpt>
      <trkpt lat="47.91126" lon="-1.24871">
        <ele>76.8</ele>
        <time>2022-08-27T21:20:10Z</time>
      </trkpt>
      <trkpt lat="47.91103" lon="-1.24863">
        <ele>76.8</ele>
        <time>2022-08-27T21:20:17Z</time>
      </trkpt>
      <trkpt lat="47.91082" lon="-1.24855">
        <ele>76.6</ele>
        <time>2022-08-27T21:20:24Z</time>
      </trkpt>
      <trkpt lat="47.91061" lon="-1.24847">
        <ele>76.8</ele>
        <time>2022-08-27T21:20:30Z</time>
      </trkpt>
      <trkpt lat="47.91033" lon="-1.24838">
        <ele>77.2</ele>
        <time>2022-08-27T21:20:37Z</time>
      </trkpt>
      <trkpt lat="47.91024" lon="-1.24835">
        <ele>77.4</ele>
        <time>2022-08-27T21:20:39Z</time>
      </trkpt>
      <trkpt lat="47.90994" lon="-1.24824">
        <ele>77.6</ele>
        <time>2022-08-27T21:20:46Z</time>
      </trkpt>
      <trkpt lat="47.90961" lon="-1.24812">
        <ele>77.8</ele>
        <time>2022-08-27T21:20:53Z</time>
      </trkpt>
      <trkpt lat="47.90929" lon="-1.24802">
        <ele>78</ele>
        <time>2022-08-27T21:21:00Z</time>
      </trkpt>
      <trkpt lat="47.9091" lon="-1.24806">
        <ele>78.2</ele>
        <time>2022-08-27T21:21:04Z</time>
      </trkpt>
      <trkpt lat="47.90906" lon="-1.24809">
        <ele>78.2</ele>
        <time>2022-08-27T21:21:05Z</time>
      </trkpt>
      <trkpt lat="47.90895" lon="-1.24815">
        <ele>78.6</ele>
        <time>2022-08-27T21:21:09Z</time>
      </trkpt>
      <trkpt lat="47.90885" lon="-1.24808">
        <ele>78.6</ele>
        <time>2022-08-27T21:21:12Z</time>
      </trkpt>
      <trkpt lat="47.90882" lon="-1.24804">
        <ele>78.8</ele>
        <time>2022-08-27T21:21:13Z</time>
      </trkpt>
      <trkpt lat="47.90868" lon="-1.24787">
        <ele>79</ele>
        <time>2022-08-27T21:21:17Z</time>
      </trkpt>
      <trkpt lat="47.90854" lon="-1.24776">
        <ele>79</ele>
        <time>2022-08-27T21:21:20Z</time>
      </trkpt>
      <trkpt lat="47.90816" lon="-1.24753">
        <ele>79.2</ele>
        <time>2022-08-27T21:21:27Z</time>
      </trkpt>
      <trkpt lat="47.90762" lon="-1.24728">
        <ele>79.4</ele>
        <time>2022-08-27T21:21:36Z</time>
      </trkpt>
      <trkpt lat="47.90756" lon="-1.24725">
        <ele>79.6</ele>
        <time>2022-08-27T21:21:37Z</time>
      </trkpt>
      <trkpt lat="47.90701" lon="-1.24699">
        <ele>79.6</ele>
        <time>2022-08-27T21:21:46Z</time>
      </trkpt>
      <trkpt lat="47.9069" lon="-1.24692">
        <ele>79.8</ele>
        <time>2022-08-27T21:21:48Z</time>
      </trkpt>
      <trkpt lat="47.9065" lon="-1.24663">
        <ele>79.8</ele>
        <time>2022-08-27T21:21:55Z</time>
      </trkpt>
      <trkpt lat="47.90599" lon="-1.24622">
        <ele>80</ele>
        <time>2022-08-27T21:22:04Z</time>
      </trkpt>
      <trkpt lat="47.90593" lon="-1.24618">
        <ele>80</ele>
        <time>2022-08-27T21:22:05Z</time>
      </trkpt>
      <trkpt lat="47.90542" lon="-1.2458">
        <ele>80.2</ele>
        <time>2022-08-27T21:22:14Z</time>
      </trkpt>
      <trkpt lat="47.90536" lon="-1.24575">
        <ele>80.2</ele>
        <time>2022-08-27T21:22:15Z</time>
      </trkpt>
      <trkpt lat="47.90485" lon="-1.24548">
        <ele>80.4</ele>
        <time>2022-08-27T21:22:24Z</time>
      </trkpt>
      <trkpt lat="47.90432" lon="-1.24528">
        <ele>80.8</ele>
        <time>2022-08-27T21:22:33Z</time>
      </trkpt>
      <trkpt lat="47.9042" lon="-1.24524">
        <ele>80.8</ele>
        <time>2022-08-27T21:22:35Z</time>
      </trkpt>
      <trkpt lat="47.90362" lon="-1.24501">
        <ele>81.4</ele>
        <time>2022-08-27T21:22:45Z</time>
      </trkpt>
      <trkpt lat="47.90306" lon="-1.24481">
        <ele>82.2</ele>
        <time>2022-08-27T21:22:55Z</time>
      </trkpt>
      <trkpt lat="47.903" lon="-1.24479">
        <ele>82.2</ele>
        <time>2022-08-27T21:22:56Z</time>
      </trkpt>
      <trkpt lat="47.90245" lon="-1.24459">
        <ele>82.6</ele>
        <time>2022-08-27T21:23:05Z</time>
      </trkpt>
      <trkpt lat="47.90187" lon="-1.24432">
        <ele>82.8</ele>
        <time>2022-08-27T21:23:14Z</time>
      </trkpt>
      <trkpt lat="47.9013" lon="-1.24406">
        <ele>83</ele>
        <time>2022-08-27T21:23:23Z</time>
      </trkpt>
      <trkpt lat="47.90074" lon="-1.24379">
        <ele>83.2</ele>
        <time>2022-08-27T21:23:32Z</time>
      </trkpt>
      <trkpt lat="47.90062" lon="-1.24374">
        <ele>83.4</ele>
        <time>2022-08-27T21:23:34Z</time>
      </trkpt>
      <trkpt lat="47.90008" lon="-1.24351">
        <ele>83.6</ele>
        <time>2022-08-27T21:23:43Z</time>
      </trkpt>
      <trkpt lat="47.89952" lon="-1.24329">
        <ele>83.8</ele>
        <time>2022-08-27T21:23:52Z</time>
      </trkpt>
      <trkpt lat="47.89946" lon="-1.24327">
        <ele>83.8</ele>
        <time>2022-08-27T21:23:53Z</time>
      </trkpt>
      <trkpt lat="47.89895" lon="-1.24316">
        <ele>83.8</ele>
        <time>2022-08-27T21:24:01Z</time>
      </trkpt>
      <trkpt lat="47.89851" lon="-1.24319">
        <ele>84.2</ele>
        <time>2022-08-27T21:24:08Z</time>
      </trkpt>
      <trkpt lat="47.89815" lon="-1.24316">
        <ele>84.2</ele>
        <time>2022-08-27T21:24:14Z</time>
      </trkpt>
      <trkpt lat="47.89809" lon="-1.24315">
        <ele>84.4</ele>
        <time>2022-08-27T21:24:15Z</time>
      </trkpt>
      <trkpt lat="47.8977" lon="-1.243">
        <ele>84.6</ele>
        <time>2022-08-27T21:24:22Z</time>
      </trkpt>
      <trkpt lat="47.89721" lon="-1.24271">
        <ele>84.8</ele>
        <time>2022-08-27T21:24:31Z</time>
      </trkpt>
      <trkpt lat="47.89675" lon="-1.24242">
        <ele>85.2</ele>
        <time>2022-08-27T21:24:40Z</time>
      </trkpt>
      <trkpt lat="47.89633" lon="-1.24218">
        <ele>85.6</ele>
        <time>2022-08-27T21:24:48Z</time>
      </trkpt>
      <trkpt lat="47.89592" lon="-1.24203">
        <ele>86</ele>
        <time>2022-08-27T21:24:56Z</time>
      </trkpt>
      <trkpt lat="47.89537" lon="-1.24185">
        <ele>86.6</ele>
        <time>2022-08-27T21:25:07Z</time>
      </trkpt>
      <trkpt lat="47.89518" lon="-1.2418">
        <ele>86.8</ele>
        <time>2022-08-27T21:25:11Z</time>
      </trkpt>
      <trkpt lat="47.89461" lon="-1.2416">
        <ele>87.4</ele>
        <time>2022-08-27T21:25:22Z</time>
      </trkpt>
      <trkpt lat="47.89414" lon="-1.24138">
        <ele>87.8</ele>
        <time>2022-08-27T21:25:30Z</time>
      </trkpt>
      <trkpt lat="47.89363" lon="-1.24111">
        <ele>88</ele>
        <time>2022-08-27T21:25:38Z</time>
      </trkpt>
      <trkpt lat="47.89356" lon="-1.24108">
        <ele>88</ele>
        <time>2022-08-27T21:25:39Z</time>
      </trkpt>
      <trkpt lat="47.89305" lon="-1.24081">
        <ele>88</ele>
        <time>2022-08-27T21:25:47Z</time>
      </trkpt>
      <trkpt lat="47.89293" lon="-1.24075">
        <ele>88</ele>
        <time>2022-08-27T21:25:49Z</time>
      </trkpt>
      <trkpt lat="47.89242" lon="-1.2405">
        <ele>88</ele>
        <time>2022-08-27T21:25:58Z</time>
      </trkpt>
      <trkpt lat="47.89204" lon="-1.24032">
        <ele>88</ele>
        <time>2022-08-27T21:26:06Z</time>
      </trkpt>
      <trkpt lat="47.89177" lon="-1.24019">
        <ele>88.2</ele>
        <time>2022-08-27T21:26:13Z</time>
      </trkpt>
      <trkpt lat="47.89159" lon="-1.24009">
        <ele>88.2</ele>
        <time>2022-08-27T21:26:19Z</time>
      </trkpt>
      <trkpt lat="47.89134" lon="-1.23998">
        <ele>88.6</ele>
        <time>2022-08-27T21:26:27Z</time>
      </trkpt>
      <trkpt lat="47.89119" lon="-1.23991">
        <ele>88.8</ele>
        <time>2022-08-27T21:26:32Z</time>
      </trkpt>
      <trkpt lat="47.89095" lon="-1.23977">
        <ele>89.4</ele>
        <time>2022-08-27T21:26:40Z</time>
      </trkpt>
      <trkpt lat="47.89074" lon="-1.23965">
        <ele>90.4</ele>
        <time>2022-08-27T21:26:47Z</time>
      </trkpt>
      <trkpt lat="47.8906" lon="-1.23956">
        <ele>91</ele>
        <time>2022-08-27T21:26:52Z</time>
      </trkpt>
      <trkpt lat="47.89038" lon="-1.23946">
        <ele>92.2</ele>
        <time>2022-08-27T21:26:59Z</time>
      </trkpt>
      <trkpt lat="47.8902" lon="-1.23937">
        <ele>93.2</ele>
        <time>2022-08-27T21:27:05Z</time>
      </trkpt>
      <trkpt lat="47.88999" lon="-1.23924">
        <ele>95.2</ele>
        <time>2022-08-27T21:27:12Z</time>
      </trkpt>
      <trkpt lat="47.88977" lon="-1.23913">
        <ele>97</ele>
        <time>2022-08-27T21:27:19Z</time>
      </trkpt>
      <trkpt lat="47.88964" lon="-1.23905">
        <ele>98.4</ele>
        <time>2022-08-27T21:27:24Z</time>
      </trkpt>
      <trkpt lat="47.88946" lon="-1.23897">
        <ele>99.8</ele>
        <time>2022-08-27T21:27:30Z</time>
      </trkpt>
      <trkpt lat="47.88924" lon="-1.23887">
        <ele>101.4</ele>
        <time>2022-08-27T21:27:38Z</time>
      </trkpt>
      <trkpt lat="47.88899" lon="-1.23875">
        <ele>103</ele>
        <time>2022-08-27T21:27:46Z</time>
      </trkpt>
      <trkpt lat="47.88875" lon="-1.23862">
        <ele>104.2</ele>
        <time>2022-08-27T21:27:52Z</time>
      </trkpt>
      <trkpt lat="47.88841" lon="-1.23847">
        <ele>105.4</ele>
        <time>2022-08-27T21:28:00Z</time>
      </trkpt>
      <trkpt lat="47.88811" lon="-1.2383">
        <ele>106.2</ele>
        <time>2022-08-27T21:28:06Z</time>
      </trkpt>
      <trkpt lat="47.88773" lon="-1.23813">
        <ele>106.8</ele>
        <time>2022-08-27T21:28:13Z</time>
      </trkpt>
      <trkpt lat="47.88746" lon="-1.23798">
        <ele>107.4</ele>
        <time>2022-08-27T21:28:18Z</time>
      </trkpt>
      <trkpt lat="47.8874" lon="-1.23795">
        <ele>107.4</ele>
        <time>2022-08-27T21:28:19Z</time>
      </trkpt>
      <trkpt lat="47.88713" lon="-1.23783">
        <ele>107.8</ele>
        <time>2022-08-27T21:28:24Z</time>
      </trkpt>
      <trkpt lat="47.88707" lon="-1.2378">
        <ele>108</ele>
        <time>2022-08-27T21:28:25Z</time>
      </trkpt>
      <trkpt lat="47.88668" lon="-1.23761">
        <ele>108.4</ele>
        <time>2022-08-27T21:28:32Z</time>
      </trkpt>
      <trkpt lat="47.88646" lon="-1.23751">
        <ele>108.6</ele>
        <time>2022-08-27T21:28:36Z</time>
      </trkpt>
      <trkpt lat="47.8864" lon="-1.23749">
        <ele>108.6</ele>
        <time>2022-08-27T21:28:37Z</time>
      </trkpt>
      <trkpt lat="47.88593" lon="-1.23725">
        <ele>108.8</ele>
        <time>2022-08-27T21:28:45Z</time>
      </trkpt>
      <trkpt lat="47.88587" lon="-1.23722">
        <ele>109</ele>
        <time>2022-08-27T21:28:46Z</time>
      </trkpt>
      <trkpt lat="47.88563" lon="-1.23709">
        <ele>109.2</ele>
        <time>2022-08-27T21:28:50Z</time>
      </trkpt>
      <trkpt lat="47.88539" lon="-1.23698">
        <ele>109.2</ele>
        <time>2022-08-27T21:28:54Z</time>
      </trkpt>
      <trkpt lat="47.88533" lon="-1.23695">
        <ele>109.4</ele>
        <time>2022-08-27T21:28:55Z</time>
      </trkpt>
      <trkpt lat="47.88493" lon="-1.23674">
        <ele>109.4</ele>
        <time>2022-08-27T21:29:02Z</time>
      </trkpt>
      <trkpt lat="47.88459" lon="-1.23659">
        <ele>109.6</ele>
        <time>2022-08-27T21:29:08Z</time>
      </trkpt>
      <trkpt lat="47.88425" lon="-1.23639">
        <ele>109.8</ele>
        <time>2022-08-27T21:29:14Z</time>
      </trkpt>
      <trkpt lat="47.88391" lon="-1.23623">
        <ele>110.2</ele>
        <time>2022-08-27T21:29:20Z</time>
      </trkpt>
      <trkpt lat="47.88352" lon="-1.23603">
        <ele>110.2</ele>
        <time>2022-08-27T21:29:27Z</time>
      </trkpt>
      <trkpt lat="47.88346" lon="-1.236">
        <ele>110.2</ele>
        <time>2022-08-27T21:29:28Z</time>
      </trkpt>
      <trkpt lat="47.88324" lon="-1.23589">
        <ele>110.2</ele>
        <time>2022-08-27T21:29:32Z</time>
      </trkpt>
      <trkpt lat="47.88289" lon="-1.23573">
        <ele>110.6</ele>
        <time>2022-08-27T21:29:38Z</time>
      </trkpt>
      <trkpt lat="47.8825" lon="-1.23552">
        <ele>110.8</ele>
        <time>2022-08-27T21:29:45Z</time>
      </trkpt>
      <trkpt lat="47.88244" lon="-1.2355">
        <ele>110.8</ele>
        <time>2022-08-27T21:29:46Z</time>
      </trkpt>
      <trkpt lat="47.88211" lon="-1.23533">
        <ele>111</ele>
        <time>2022-08-27T21:29:52Z</time>
      </trkpt>
      <trkpt lat="47.88168" lon="-1.23511">
        <ele>111.2</ele>
        <time>2022-08-27T21:30:00Z</time>
      </trkpt>
      <trkpt lat="47.88146" lon="-1.23501">
        <ele>111.4</ele>
        <time>2022-08-27T21:30:04Z</time>
      </trkpt>
      <trkpt lat="47.88136" lon="-1.23496">
        <ele>111.4</ele>
        <time>2022-08-27T21:30:06Z</time>
      </trkpt>
      <trkpt lat="47.8812" lon="-1.2349">
        <ele>111.2</ele>
        <time>2022-08-27T21:30:09Z</time>
      </trkpt>
      <trkpt lat="47.88104" lon="-1.23482">
        <ele>111.2</ele>
        <time>2022-08-27T21:30:12Z</time>
      </trkpt>
      <trkpt lat="47.88061" lon="-1.23459">
        <ele>111.2</ele>
        <time>2022-08-27T21:30:20Z</time>
      </trkpt>
      <trkpt lat="47.88044" lon="-1.23451">
        <ele>111</ele>
        <time>2022-08-27T21:30:23Z</time>
      </trkpt>
      <trkpt lat="47.88034" lon="-1.23445">
        <ele>111</ele>
        <time>2022-08-27T21:30:25Z</time>
      </trkpt>
      <trkpt lat="47.8799" lon="-1.23423">
        <ele>111.4</ele>
        <time>2022-08-27T21:30:33Z</time>
      </trkpt>
      <trkpt lat="47.8795" lon="-1.23404">
        <ele>111.4</ele>
        <time>2022-08-27T21:30:40Z</time>
      </trkpt>
      <trkpt lat="47.87917" lon="-1.23388">
        <ele>111.6</ele>
        <time>2022-08-27T21:30:46Z</time>
      </trkpt>
      <trkpt lat="47.87895" lon="-1.23377">
        <ele>111.2</ele>
        <time>2022-08-27T21:30:50Z</time>
      </trkpt>
      <trkpt lat="47.87883" lon="-1.23371">
        <ele>111.2</ele>
        <time>2022-08-27T21:30:52Z</time>
      </trkpt>
      <trkpt lat="47.87855" lon="-1.23356">
        <ele>111.2</ele>
        <time>2022-08-27T21:30:57Z</time>
      </trkpt>
      <trkpt lat="47.87849" lon="-1.23354">
        <ele>111.2</ele>
        <time>2022-08-27T21:30:58Z</time>
      </trkpt>
      <trkpt lat="47.87843" lon="-1.23351">
        <ele>111.2</ele>
        <time>2022-08-27T21:30:59Z</time>
      </trkpt>
      <trkpt lat="47.87819" lon="-1.23339">
        <ele>111.2</ele>
        <time>2022-08-27T21:31:03Z</time>
      </trkpt>
      <trkpt lat="47.87799" lon="-1.23331">
        <ele>111</ele>
        <time>2022-08-27T21:31:06Z</time>
      </trkpt>
      <trkpt lat="47.87781" lon="-1.23322">
        <ele>110.8</ele>
        <time>2022-08-27T21:31:09Z</time>
      </trkpt>
      <trkpt lat="47.87769" lon="-1.23316">
        <ele>110.8</ele>
        <time>2022-08-27T21:31:11Z</time>
      </trkpt>
      <trkpt lat="47.87751" lon="-1.23308">
        <ele>110.6</ele>
        <time>2022-08-27T21:31:14Z</time>
      </trkpt>
      <trkpt lat="47.87746" lon="-1.23304">
        <ele>110.6</ele>
        <time>2022-08-27T21:31:15Z</time>
      </trkpt>
      <trkpt lat="47.87733" lon="-1.23298">
        <ele>110.6</ele>
        <time>2022-08-27T21:31:17Z</time>
      </trkpt>
      <trkpt lat="47.87714" lon="-1.23289">
        <ele>110.6</ele>
        <time>2022-08-27T21:31:20Z</time>
      </trkpt>
      <trkpt lat="47.87689" lon="-1.23278">
        <ele>110.4</ele>
        <time>2022-08-27T21:31:24Z</time>
      </trkpt>
      <trkpt lat="47.87676" lon="-1.23272">
        <ele>110.2</ele>
        <time>2022-08-27T21:31:26Z</time>
      </trkpt>
      <trkpt lat="47.87662" lon="-1.23266">
        <ele>110</ele>
        <time>2022-08-27T21:31:28Z</time>
      </trkpt>
      <trkpt lat="47.87649" lon="-1.23259">
        <ele>109.8</ele>
        <time>2022-08-27T21:31:30Z</time>
      </trkpt>
      <trkpt lat="47.87616" lon="-1.23242">
        <ele>109.4</ele>
        <time>2022-08-27T21:31:35Z</time>
      </trkpt>
      <trkpt lat="47.87588" lon="-1.23228">
        <ele>108.8</ele>
        <time>2022-08-27T21:31:39Z</time>
      </trkpt>
      <trkpt lat="47.87538" lon="-1.23203">
        <ele>107.4</ele>
        <time>2022-08-27T21:31:46Z</time>
      </trkpt>
      <trkpt lat="47.87488" lon="-1.23178">
        <ele>106.6</ele>
        <time>2022-08-27T21:31:53Z</time>
      </trkpt>
      <trkpt lat="47.87474" lon="-1.23171">
        <ele>106.2</ele>
        <time>2022-08-27T21:31:55Z</time>
      </trkpt>
      <trkpt lat="47.87454" lon="-1.23161">
        <ele>106</ele>
        <time>2022-08-27T21:31:58Z</time>
      </trkpt>
      <trkpt lat="47.87405" lon="-1.23137">
        <ele>105.4</ele>
        <time>2022-08-27T21:32:05Z</time>
      </trkpt>
      <trkpt lat="47.87363" lon="-1.23116">
        <ele>105</ele>
        <time>2022-08-27T21:32:11Z</time>
      </trkpt>
      <trkpt lat="47.8732" lon="-1.23094">
        <ele>104.4</ele>
        <time>2022-08-27T21:32:17Z</time>
      </trkpt>
      <trkpt lat="47.87274" lon="-1.23071">
        <ele>104</ele>
        <time>2022-08-27T21:32:24Z</time>
      </trkpt>
      <trkpt lat="47.87228" lon="-1.23049">
        <ele>104</ele>
        <time>2022-08-27T21:32:31Z</time>
      </trkpt>
      <trkpt lat="47.8721" lon="-1.2304">
        <ele>104</ele>
        <time>2022-08-27T21:32:34Z</time>
      </trkpt>
      <trkpt lat="47.87204" lon="-1.23037">
        <ele>104</ele>
        <time>2022-08-27T21:32:35Z</time>
      </trkpt>
      <trkpt lat="47.87169" lon="-1.2302">
        <ele>104</ele>
        <time>2022-08-27T21:32:41Z</time>
      </trkpt>
      <trkpt lat="47.87143" lon="-1.23007">
        <ele>103.6</ele>
        <time>2022-08-27T21:32:46Z</time>
      </trkpt>
      <trkpt lat="47.87118" lon="-1.22994">
        <ele>104.2</ele>
        <time>2022-08-27T21:32:51Z</time>
      </trkpt>
      <trkpt lat="47.87112" lon="-1.22992">
        <ele>104.2</ele>
        <time>2022-08-27T21:32:52Z</time>
      </trkpt>
      <trkpt lat="47.87074" lon="-1.22975">
        <ele>104.6</ele>
        <time>2022-08-27T21:32:59Z</time>
      </trkpt>
      <trkpt lat="47.87039" lon="-1.22958">
        <ele>104.6</ele>
        <time>2022-08-27T21:33:05Z</time>
      </trkpt>
      <trkpt lat="47.8701" lon="-1.22944">
        <ele>104.6</ele>
        <time>2022-08-27T21:33:10Z</time>
      </trkpt>
      <trkpt lat="47.86972" lon="-1.22925">
        <ele>104.6</ele>
        <time>2022-08-27T21:33:16Z</time>
      </trkpt>
      <trkpt lat="47.86965" lon="-1.22921">
        <ele>104.6</ele>
        <time>2022-08-27T21:33:17Z</time>
      </trkpt>
      <trkpt lat="47.86952" lon="-1.22914">
        <ele>104.6</ele>
        <time>2022-08-27T21:33:19Z</time>
      </trkpt>
      <trkpt lat="47.86939" lon="-1.22908">
        <ele>104.6</ele>
        <time>2022-08-27T21:33:21Z</time>
      </trkpt>
      <trkpt lat="47.86925" lon="-1.22901">
        <ele>104.6</ele>
        <time>2022-08-27T21:33:23Z</time>
      </trkpt>
      <trkpt lat="47.86898" lon="-1.22888">
        <ele>104.6</ele>
        <time>2022-08-27T21:33:27Z</time>
      </trkpt>
      <trkpt lat="47.86843" lon="-1.22861">
        <ele>104.6</ele>
        <time>2022-08-27T21:33:35Z</time>
      </trkpt>
      <trkpt lat="47.86793" lon="-1.22837">
        <ele>104.4</ele>
        <time>2022-08-27T21:33:42Z</time>
      </trkpt>
      <trkpt lat="47.86742" lon="-1.22811">
        <ele>104</ele>
        <time>2022-08-27T21:33:49Z</time>
      </trkpt>
      <trkpt lat="47.86735" lon="-1.22808">
        <ele>103.8</ele>
        <time>2022-08-27T21:33:50Z</time>
      </trkpt>
      <trkpt lat="47.86712" lon="-1.22797">
        <ele>103.6</ele>
        <time>2022-08-27T21:33:53Z</time>
      </trkpt>
      <trkpt lat="47.86657" lon="-1.2277">
        <ele>103.6</ele>
        <time>2022-08-27T21:34:00Z</time>
      </trkpt>
      <trkpt lat="47.86601" lon="-1.22743">
        <ele>103.4</ele>
        <time>2022-08-27T21:34:07Z</time>
      </trkpt>
      <trkpt lat="47.86594" lon="-1.22739">
        <ele>103.4</ele>
        <time>2022-08-27T21:34:08Z</time>
      </trkpt>
      <trkpt lat="47.86586" lon="-1.22735">
        <ele>103.4</ele>
        <time>2022-08-27T21:34:09Z</time>
      </trkpt>
      <trkpt lat="47.8654" lon="-1.22712">
        <ele>103</ele>
        <time>2022-08-27T21:34:15Z</time>
      </trkpt>
      <trkpt lat="47.86504" lon="-1.22693">
        <ele>102.8</ele>
        <time>2022-08-27T21:34:20Z</time>
      </trkpt>
      <trkpt lat="47.86445" lon="-1.22665">
        <ele>102.8</ele>
        <time>2022-08-27T21:34:28Z</time>
      </trkpt>
      <trkpt lat="47.8641" lon="-1.22648">
        <ele>102.6</ele>
        <time>2022-08-27T21:34:33Z</time>
      </trkpt>
      <trkpt lat="47.86362" lon="-1.22627">
        <ele>102.8</ele>
        <time>2022-08-27T21:34:40Z</time>
      </trkpt>
      <trkpt lat="47.86319" lon="-1.22617">
        <ele>102.6</ele>
        <time>2022-08-27T21:34:46Z</time>
      </trkpt>
      <trkpt lat="47.86279" lon="-1.22612">
        <ele>103</ele>
        <time>2022-08-27T21:34:52Z</time>
      </trkpt>
      <trkpt lat="47.86266" lon="-1.2261">
        <ele>103.2</ele>
        <time>2022-08-27T21:34:54Z</time>
      </trkpt>
      <trkpt lat="47.86247" lon="-1.22606">
        <ele>103.4</ele>
        <time>2022-08-27T21:34:57Z</time>
      </trkpt>
      <trkpt lat="47.8624" lon="-1.22605">
        <ele>103.4</ele>
        <time>2022-08-27T21:34:58Z</time>
      </trkpt>
      <trkpt lat="47.86216" lon="-1.22603">
        <ele>103.6</ele>
        <time>2022-08-27T21:35:02Z</time>
      </trkpt>
      <trkpt lat="47.86186" lon="-1.22601">
        <ele>103.8</ele>
        <time>2022-08-27T21:35:07Z</time>
      </trkpt>
      <trkpt lat="47.86129" lon="-1.22595">
        <ele>104.4</ele>
        <time>2022-08-27T21:35:17Z</time>
      </trkpt>
      <trkpt lat="47.86088" lon="-1.22591">
        <ele>105.2</ele>
        <time>2022-08-27T21:35:25Z</time>
      </trkpt>
      <trkpt lat="47.86054" lon="-1.22586">
        <ele>105.6</ele>
        <time>2022-08-27T21:35:32Z</time>
      </trkpt>
      <trkpt lat="47.86031" lon="-1.22583">
        <ele>106</ele>
        <time>2022-08-27T21:35:37Z</time>
      </trkpt>
      <trkpt lat="47.86006" lon="-1.2258">
        <ele>106.4</ele>
        <time>2022-08-27T21:35:42Z</time>
      </trkpt>
      <trkpt lat="47.85996" lon="-1.2258">
        <ele>106.4</ele>
        <time>2022-08-27T21:35:44Z</time>
      </trkpt>
      <trkpt lat="47.85958" lon="-1.22575">
        <ele>107</ele>
        <time>2022-08-27T21:35:52Z</time>
      </trkpt>
      <trkpt lat="47.8592" lon="-1.22571">
        <ele>107.6</ele>
        <time>2022-08-27T21:36:00Z</time>
      </trkpt>
      <trkpt lat="47.85891" lon="-1.22568">
        <ele>108</ele>
        <time>2022-08-27T21:36:06Z</time>
      </trkpt>
      <trkpt lat="47.85845" lon="-1.22561">
        <ele>108.4</ele>
        <time>2022-08-27T21:36:14Z</time>
      </trkpt>
      <trkpt lat="47.85832" lon="-1.2256">
        <ele>108.6</ele>
        <time>2022-08-27T21:36:16Z</time>
      </trkpt>
      <trkpt lat="47.85815" lon="-1.22555">
        <ele>108.6</ele>
        <time>2022-08-27T21:36:19Z</time>
      </trkpt>
      <trkpt lat="47.85781" lon="-1.2254">
        <ele>108.8</ele>
        <time>2022-08-27T21:36:25Z</time>
      </trkpt>
      <trkpt lat="47.8577" lon="-1.22531">
        <ele>108.8</ele>
        <time>2022-08-27T21:36:27Z</time>
      </trkpt>
      <trkpt lat="47.85759" lon="-1.22518">
        <ele>108.8</ele>
        <time>2022-08-27T21:36:29Z</time>
      </trkpt>
      <trkpt lat="47.85749" lon="-1.22505">
        <ele>108.8</ele>
        <time>2022-08-27T21:36:31Z</time>
      </trkpt>
      <trkpt lat="47.85736" lon="-1.22482">
        <ele>108.6</ele>
        <time>2022-08-27T21:36:34Z</time>
      </trkpt>
      <trkpt lat="47.85707" lon="-1.22437">
        <ele>108.4</ele>
        <time>2022-08-27T21:36:40Z</time>
      </trkpt>
      <trkpt lat="47.85679" lon="-1.22391">
        <ele>108.2</ele>
        <time>2022-08-27T21:36:46Z</time>
      </trkpt>
      <trkpt lat="47.85639" lon="-1.22342">
        <ele>107.6</ele>
        <time>2022-08-27T21:36:53Z</time>
      </trkpt>
      <trkpt lat="47.85625" lon="-1.22333">
        <ele>107.6</ele>
        <time>2022-08-27T21:36:55Z</time>
      </trkpt>
      <trkpt lat="47.85612" lon="-1.2233">
        <ele>107.8</ele>
        <time>2022-08-27T21:36:57Z</time>
      </trkpt>
      <trkpt lat="47.85577" lon="-1.22334">
        <ele>107.8</ele>
        <time>2022-08-27T21:37:02Z</time>
      </trkpt>
      <trkpt lat="47.85531" lon="-1.2234">
        <ele>107.8</ele>
        <time>2022-08-27T21:37:09Z</time>
      </trkpt>
      <trkpt lat="47.85478" lon="-1.22345">
        <ele>107.6</ele>
        <time>2022-08-27T21:37:17Z</time>
      </trkpt>
      <trkpt lat="47.85467" lon="-1.22335">
        <ele>107.6</ele>
        <time>2022-08-27T21:37:19Z</time>
      </trkpt>
      <trkpt lat="47.8546" lon="-1.2231">
        <ele>107.6</ele>
        <time>2022-08-27T21:37:22Z</time>
      </trkpt>
      <trkpt lat="47.85452" lon="-1.223">
        <ele>107.4</ele>
        <time>2022-08-27T21:37:24Z</time>
      </trkpt>
      <trkpt lat="47.85447" lon="-1.223">
        <ele>107.4</ele>
        <time>2022-08-27T21:37:25Z</time>
      </trkpt>
      <trkpt lat="47.85441" lon="-1.22302">
        <ele>107.4</ele>
        <time>2022-08-27T21:37:26Z</time>
      </trkpt>
      <trkpt lat="47.85424" lon="-1.22312">
        <ele>107.4</ele>
        <time>2022-08-27T21:37:29Z</time>
      </trkpt>
      <trkpt lat="47.85378" lon="-1.22341">
        <ele>106.6</ele>
        <time>2022-08-27T21:37:36Z</time>
      </trkpt>
      <trkpt lat="47.85327" lon="-1.22372">
        <ele>105.6</ele>
        <time>2022-08-27T21:37:43Z</time>
      </trkpt>
      <trkpt lat="47.85298" lon="-1.22383">
        <ele>105</ele>
        <time>2022-08-27T21:37:47Z</time>
      </trkpt>
      <trkpt lat="47.85262" lon="-1.22395">
        <ele>104.4</ele>
        <time>2022-08-27T21:37:53Z</time>
      </trkpt>
      <trkpt lat="47.85207" lon="-1.22411">
        <ele>103.2</ele>
        <time>2022-08-27T21:38:01Z</time>
      </trkpt>
      <trkpt lat="47.85201" lon="-1.22414">
        <ele>103</ele>
        <time>2022-08-27T21:38:02Z</time>
      </trkpt>
      <trkpt lat="47.85148" lon="-1.22431">
        <ele>101.8</ele>
        <time>2022-08-27T21:38:10Z</time>
      </trkpt>
      <trkpt lat="47.85111" lon="-1.22441">
        <ele>101.2</ele>
        <time>2022-08-27T21:38:16Z</time>
      </trkpt>
      <trkpt lat="47.85074" lon="-1.2244">
        <ele>100.8</ele>
        <time>2022-08-27T21:38:22Z</time>
      </trkpt>
      <trkpt lat="47.85039" lon="-1.22431">
        <ele>100.2</ele>
        <time>2022-08-27T21:38:28Z</time>
      </trkpt>
      <trkpt lat="47.85011" lon="-1.22419">
        <ele>99.8</ele>
        <time>2022-08-27T21:38:33Z</time>
      </trkpt>
      <trkpt lat="47.85005" lon="-1.22416">
        <ele>99.6</ele>
        <time>2022-08-27T21:38:34Z</time>
      </trkpt>
      <trkpt lat="47.85" lon="-1.22412">
        <ele>99.6</ele>
        <time>2022-08-27T21:38:35Z</time>
      </trkpt>
      <trkpt lat="47.84986" lon="-1.22401">
        <ele>99.4</ele>
        <time>2022-08-27T21:38:38Z</time>
      </trkpt>
      <trkpt lat="47.84981" lon="-1.22397">
        <ele>99.4</ele>
        <time>2022-08-27T21:38:39Z</time>
      </trkpt>
      <trkpt lat="47.84976" lon="-1.22393">
        <ele>99.2</ele>
        <time>2022-08-27T21:38:40Z</time>
      </trkpt>
      <trkpt lat="47.84958" lon="-1.22375">
        <ele>99</ele>
        <time>2022-08-27T21:38:44Z</time>
      </trkpt>
      <trkpt lat="47.8493" lon="-1.22336">
        <ele>98.4</ele>
        <time>2022-08-27T21:38:51Z</time>
      </trkpt>
      <trkpt lat="47.84908" lon="-1.22292">
        <ele>98.2</ele>
        <time>2022-08-27T21:38:58Z</time>
      </trkpt>
      <trkpt lat="47.8488" lon="-1.22236">
        <ele>97.8</ele>
        <time>2022-08-27T21:39:07Z</time>
      </trkpt>
      <trkpt lat="47.84854" lon="-1.22181">
        <ele>97.6</ele>
        <time>2022-08-27T21:39:16Z</time>
      </trkpt>
      <trkpt lat="47.84848" lon="-1.22169">
        <ele>97.6</ele>
        <time>2022-08-27T21:39:18Z</time>
      </trkpt>
      <trkpt lat="47.8483" lon="-1.22133">
        <ele>97.6</ele>
        <time>2022-08-27T21:39:24Z</time>
      </trkpt>
      <trkpt lat="47.84797" lon="-1.22064">
        <ele>97.6</ele>
        <time>2022-08-27T21:39:35Z</time>
      </trkpt>
      <trkpt lat="47.84794" lon="-1.22058">
        <ele>97.6</ele>
        <time>2022-08-27T21:39:36Z</time>
      </trkpt>
      <trkpt lat="47.84767" lon="-1.22007">
        <ele>97.8</ele>
        <time>2022-08-27T21:39:44Z</time>
      </trkpt>
      <trkpt lat="47.84751" lon="-1.21984">
        <ele>97.8</ele>
        <time>2022-08-27T21:39:48Z</time>
      </trkpt>
      <trkpt lat="47.84742" lon="-1.21974">
        <ele>98</ele>
        <time>2022-08-27T21:39:50Z</time>
      </trkpt>
      <trkpt lat="47.84712" lon="-1.21953">
        <ele>98.2</ele>
        <time>2022-08-27T21:39:56Z</time>
      </trkpt>
      <trkpt lat="47.84697" lon="-1.21947">
        <ele>98.2</ele>
        <time>2022-08-27T21:39:59Z</time>
      </trkpt>
      <trkpt lat="47.84682" lon="-1.21944">
        <ele>98.4</ele>
        <time>2022-08-27T21:40:02Z</time>
      </trkpt>
      <trkpt lat="47.84633" lon="-1.21943">
        <ele>98.6</ele>
        <time>2022-08-27T21:40:11Z</time>
      </trkpt>
      <trkpt lat="47.84588" lon="-1.21943">
        <ele>99</ele>
        <time>2022-08-27T21:40:19Z</time>
      </trkpt>
      <trkpt lat="47.84533" lon="-1.2194">
        <ele>99</ele>
        <time>2022-08-27T21:40:28Z</time>
      </trkpt>
      <trkpt lat="47.84482" lon="-1.2194">
        <ele>99.2</ele>
        <time>2022-08-27T21:40:36Z</time>
      </trkpt>
      <trkpt lat="47.84428" lon="-1.2194">
        <ele>99.2</ele>
        <time>2022-08-27T21:40:44Z</time>
      </trkpt>
      <trkpt lat="47.84373" lon="-1.21939">
        <ele>99.2</ele>
        <time>2022-08-27T21:40:52Z</time>
      </trkpt>
      <trkpt lat="47.84316" lon="-1.21929">
        <ele>99.2</ele>
        <time>2022-08-27T21:41:00Z</time>
      </trkpt>
      <trkpt lat="47.84309" lon="-1.21927">
        <ele>99.2</ele>
        <time>2022-08-27T21:41:01Z</time>
      </trkpt>
      <trkpt lat="47.8425" lon="-1.21913">
        <ele>99.2</ele>
        <time>2022-08-27T21:41:09Z</time>
      </trkpt>
      <trkpt lat="47.84243" lon="-1.21911">
        <ele>99.2</ele>
        <time>2022-08-27T21:41:10Z</time>
      </trkpt>
      <trkpt lat="47.84186" lon="-1.21892">
        <ele>99.2</ele>
        <time>2022-08-27T21:41:18Z</time>
      </trkpt>
      <trkpt lat="47.84179" lon="-1.21888">
        <ele>99.2</ele>
        <time>2022-08-27T21:41:19Z</time>
      </trkpt>
      <trkpt lat="47.84123" lon="-1.21861">
        <ele>99.2</ele>
        <time>2022-08-27T21:41:27Z</time>
      </trkpt>
      <trkpt lat="47.8411" lon="-1.21854">
        <ele>99.2</ele>
        <time>2022-08-27T21:41:29Z</time>
      </trkpt>
      <trkpt lat="47.84057" lon="-1.21827">
        <ele>99.2</ele>
        <time>2022-08-27T21:41:37Z</time>
      </trkpt>
      <trkpt lat="47.84044" lon="-1.21821">
        <ele>99.2</ele>
        <time>2022-08-27T21:41:39Z</time>
      </trkpt>
      <trkpt lat="47.83988" lon="-1.21793">
        <ele>99.4</ele>
        <time>2022-08-27T21:41:48Z</time>
      </trkpt>
      <trkpt lat="47.83982" lon="-1.2179">
        <ele>99.4</ele>
        <time>2022-08-27T21:41:49Z</time>
      </trkpt>
      <trkpt lat="47.83947" lon="-1.21772">
        <ele>99.6</ele>
        <time>2022-08-27T21:41:55Z</time>
      </trkpt>
      <trkpt lat="47.83902" lon="-1.21745">
        <ele>99.8</ele>
        <time>2022-08-27T21:42:03Z</time>
      </trkpt>
      <trkpt lat="47.83854" lon="-1.21702">
        <ele>100.2</ele>
        <time>2022-08-27T21:42:12Z</time>
      </trkpt>
      <trkpt lat="47.83812" lon="-1.21664">
        <ele>100.4</ele>
        <time>2022-08-27T21:42:20Z</time>
      </trkpt>
      <trkpt lat="47.83762" lon="-1.21619">
        <ele>100.6</ele>
        <time>2022-08-27T21:42:30Z</time>
      </trkpt>
      <trkpt lat="47.83757" lon="-1.21614">
        <ele>100.6</ele>
        <time>2022-08-27T21:42:31Z</time>
      </trkpt>
      <trkpt lat="47.83714" lon="-1.21576">
        <ele>101</ele>
        <time>2022-08-27T21:42:40Z</time>
      </trkpt>
      <trkpt lat="47.837" lon="-1.21565">
        <ele>101.2</ele>
        <time>2022-08-27T21:42:43Z</time>
      </trkpt>
      <trkpt lat="47.83691" lon="-1.21557">
        <ele>101.2</ele>
        <time>2022-08-27T21:42:45Z</time>
      </trkpt>
      <trkpt lat="47.83687" lon="-1.21554">
        <ele>101.2</ele>
        <time>2022-08-27T21:42:46Z</time>
      </trkpt>
      <trkpt lat="47.83654" lon="-1.21528">
        <ele>101.4</ele>
        <time>2022-08-27T21:42:53Z</time>
      </trkpt>
      <trkpt lat="47.83612" lon="-1.21507">
        <ele>101.8</ele>
        <time>2022-08-27T21:43:01Z</time>
      </trkpt>
      <trkpt lat="47.83565" lon="-1.2149">
        <ele>102.2</ele>
        <time>2022-08-27T21:43:09Z</time>
      </trkpt>
      <trkpt lat="47.83522" lon="-1.21474">
        <ele>102.4</ele>
        <time>2022-08-27T21:43:16Z</time>
      </trkpt>
      <trkpt lat="47.83516" lon="-1.21472">
        <ele>102.4</ele>
        <time>2022-08-27T21:43:17Z</time>
      </trkpt>
      <trkpt lat="47.83502" lon="-1.21468">
        <ele>102.4</ele>
        <time>2022-08-27T21:43:19Z</time>
      </trkpt>
      <trkpt lat="47.83488" lon="-1.21463">
        <ele>102.6</ele>
        <time>2022-08-27T21:43:21Z</time>
      </trkpt>
      <trkpt lat="47.83467" lon="-1.21456">
        <ele>102.4</ele>
        <time>2022-08-27T21:43:24Z</time>
      </trkpt>
      <trkpt lat="47.8346" lon="-1.21454">
        <ele>102.4</ele>
        <time>2022-08-27T21:43:25Z</time>
      </trkpt>
      <trkpt lat="47.83413" lon="-1.21435">
        <ele>101.8</ele>
        <time>2022-08-27T21:43:31Z</time>
      </trkpt>
      <trkpt lat="47.83396" lon="-1.21429">
        <ele>102</ele>
        <time>2022-08-27T21:43:33Z</time>
      </trkpt>
      <trkpt lat="47.8338" lon="-1.21423">
        <ele>102</ele>
        <time>2022-08-27T21:43:35Z</time>
      </trkpt>
      <trkpt lat="47.83331" lon="-1.21404">
        <ele>102</ele>
        <time>2022-08-27T21:43:41Z</time>
      </trkpt>
      <trkpt lat="47.83276" lon="-1.21383">
        <ele>101.4</ele>
        <time>2022-08-27T21:43:48Z</time>
      </trkpt>
      <trkpt lat="47.83228" lon="-1.21364">
        <ele>100.8</ele>
        <time>2022-08-27T21:43:54Z</time>
      </trkpt>
      <trkpt lat="47.83169" lon="-1.21343">
        <ele>100.2</ele>
        <time>2022-08-27T21:44:01Z</time>
      </trkpt>
      <trkpt lat="47.83161" lon="-1.21341">
        <ele>100.2</ele>
        <time>2022-08-27T21:44:02Z</time>
      </trkpt>
      <trkpt lat="47.831" lon="-1.21318">
        <ele>99.4</ele>
        <time>2022-08-27T21:44:09Z</time>
      </trkpt>
      <trkpt lat="47.83057" lon="-1.21302">
        <ele>99</ele>
        <time>2022-08-27T21:44:14Z</time>
      </trkpt>
      <trkpt lat="47.83003" lon="-1.21283">
        <ele>98.2</ele>
        <time>2022-08-27T21:44:20Z</time>
      </trkpt>
      <trkpt lat="47.82977" lon="-1.21273">
        <ele>97.8</ele>
        <time>2022-08-27T21:44:23Z</time>
      </trkpt>
      <trkpt lat="47.82918" lon="-1.21251">
        <ele>97</ele>
        <time>2022-08-27T21:44:30Z</time>
      </trkpt>
      <trkpt lat="47.82862" lon="-1.2123">
        <ele>96.2</ele>
        <time>2022-08-27T21:44:37Z</time>
      </trkpt>
      <trkpt lat="47.82837" lon="-1.21221">
        <ele>95.8</ele>
        <time>2022-08-27T21:44:40Z</time>
      </trkpt>
      <trkpt lat="47.82782" lon="-1.21201">
        <ele>95.2</ele>
        <time>2022-08-27T21:44:47Z</time>
      </trkpt>
      <trkpt lat="47.82742" lon="-1.21186">
        <ele>94.6</ele>
        <time>2022-08-27T21:44:52Z</time>
      </trkpt>
      <trkpt lat="47.82685" lon="-1.21165">
        <ele>94.2</ele>
        <time>2022-08-27T21:44:59Z</time>
      </trkpt>
      <trkpt lat="47.82652" lon="-1.21152">
        <ele>93.8</ele>
        <time>2022-08-27T21:45:03Z</time>
      </trkpt>
      <trkpt lat="47.82593" lon="-1.21131">
        <ele>93.2</ele>
        <time>2022-08-27T21:45:10Z</time>
      </trkpt>
      <trkpt lat="47.82551" lon="-1.21116">
        <ele>92.8</ele>
        <time>2022-08-27T21:45:15Z</time>
      </trkpt>
      <trkpt lat="47.82493" lon="-1.21094">
        <ele>92.2</ele>
        <time>2022-08-27T21:45:22Z</time>
      </trkpt>
      <trkpt lat="47.82451" lon="-1.21079">
        <ele>91.6</ele>
        <time>2022-08-27T21:45:27Z</time>
      </trkpt>
      <trkpt lat="47.82394" lon="-1.21058">
        <ele>91</ele>
        <time>2022-08-27T21:45:34Z</time>
      </trkpt>
      <trkpt lat="47.82354" lon="-1.21043">
        <ele>90.6</ele>
        <time>2022-08-27T21:45:39Z</time>
      </trkpt>
      <trkpt lat="47.823" lon="-1.21023">
        <ele>90</ele>
        <time>2022-08-27T21:45:46Z</time>
      </trkpt>
      <trkpt lat="47.82285" lon="-1.21018">
        <ele>90</ele>
        <time>2022-08-27T21:45:48Z</time>
      </trkpt>
      <trkpt lat="47.82233" lon="-1.20998">
        <ele>89.4</ele>
        <time>2022-08-27T21:45:55Z</time>
      </trkpt>
      <trkpt lat="47.82188" lon="-1.20982">
        <ele>89</ele>
        <time>2022-08-27T21:46:01Z</time>
      </trkpt>
      <trkpt lat="47.82135" lon="-1.20962">
        <ele>88.6</ele>
        <time>2022-08-27T21:46:08Z</time>
      </trkpt>
      <trkpt lat="47.82111" lon="-1.20954">
        <ele>88.4</ele>
        <time>2022-08-27T21:46:11Z</time>
      </trkpt>
      <trkpt lat="47.82056" lon="-1.20933">
        <ele>87.8</ele>
        <time>2022-08-27T21:46:18Z</time>
      </trkpt>
      <trkpt lat="47.82017" lon="-1.20919">
        <ele>87.4</ele>
        <time>2022-08-27T21:46:23Z</time>
      </trkpt>
      <trkpt lat="47.81964" lon="-1.20899">
        <ele>86.8</ele>
        <time>2022-08-27T21:46:30Z</time>
      </trkpt>
      <trkpt lat="47.81949" lon="-1.20893">
        <ele>86.8</ele>
        <time>2022-08-27T21:46:32Z</time>
      </trkpt>
      <trkpt lat="47.81895" lon="-1.20873">
        <ele>86.2</ele>
        <time>2022-08-27T21:46:39Z</time>
      </trkpt>
      <trkpt lat="47.81872" lon="-1.20865">
        <ele>86</ele>
        <time>2022-08-27T21:46:42Z</time>
      </trkpt>
      <trkpt lat="47.81817" lon="-1.20844">
        <ele>85.6</ele>
        <time>2022-08-27T21:46:49Z</time>
      </trkpt>
      <trkpt lat="47.81801" lon="-1.20838">
        <ele>85.4</ele>
        <time>2022-08-27T21:46:51Z</time>
      </trkpt>
      <trkpt lat="47.81748" lon="-1.20818">
        <ele>85.2</ele>
        <time>2022-08-27T21:46:58Z</time>
      </trkpt>
      <trkpt lat="47.81741" lon="-1.20816">
        <ele>85.2</ele>
        <time>2022-08-27T21:46:59Z</time>
      </trkpt>
      <trkpt lat="47.81685" lon="-1.20796">
        <ele>84.8</ele>
        <time>2022-08-27T21:47:07Z</time>
      </trkpt>
      <trkpt lat="47.81672" lon="-1.20791">
        <ele>84.8</ele>
        <time>2022-08-27T21:47:09Z</time>
      </trkpt>
      <trkpt lat="47.81634" lon="-1.20777">
        <ele>84.8</ele>
        <time>2022-08-27T21:47:15Z</time>
      </trkpt>
      <trkpt lat="47.81589" lon="-1.2076">
        <ele>84.8</ele>
        <time>2022-08-27T21:47:23Z</time>
      </trkpt>
      <trkpt lat="47.81536" lon="-1.20741">
        <ele>85.2</ele>
        <time>2022-08-27T21:47:33Z</time>
      </trkpt>
      <trkpt lat="47.81531" lon="-1.20739">
        <ele>85.2</ele>
        <time>2022-08-27T21:47:34Z</time>
      </trkpt>
      <trkpt lat="47.81492" lon="-1.20725">
        <ele>85.4</ele>
        <time>2022-08-27T21:47:42Z</time>
      </trkpt>
      <trkpt lat="47.81454" lon="-1.2071">
        <ele>85.8</ele>
        <time>2022-08-27T21:47:50Z</time>
      </trkpt>
      <trkpt lat="47.81406" lon="-1.20693">
        <ele>86.4</ele>
        <time>2022-08-27T21:48:00Z</time>
      </trkpt>
      <trkpt lat="47.81368" lon="-1.20678">
        <ele>86.6</ele>
        <time>2022-08-27T21:48:08Z</time>
      </trkpt>
      <trkpt lat="47.81328" lon="-1.20664">
        <ele>87</ele>
        <time>2022-08-27T21:48:16Z</time>
      </trkpt>
      <trkpt lat="47.81272" lon="-1.20643">
        <ele>87.4</ele>
        <time>2022-08-27T21:48:27Z</time>
      </trkpt>
      <trkpt lat="47.81217" lon="-1.20623">
        <ele>87.8</ele>
        <time>2022-08-27T21:48:37Z</time>
      </trkpt>
      <trkpt lat="47.81206" lon="-1.20619">
        <ele>87.8</ele>
        <time>2022-08-27T21:48:39Z</time>
      </trkpt>
      <trkpt lat="47.81148" lon="-1.20598">
        <ele>88.4</ele>
        <time>2022-08-27T21:48:49Z</time>
      </trkpt>
      <trkpt lat="47.81137" lon="-1.20594">
        <ele>88.4</ele>
        <time>2022-08-27T21:48:51Z</time>
      </trkpt>
      <trkpt lat="47.81083" lon="-1.20574">
        <ele>88.8</ele>
        <time>2022-08-27T21:49:00Z</time>
      </trkpt>
      <trkpt lat="47.81064" lon="-1.20567">
        <ele>88.8</ele>
        <time>2022-08-27T21:49:03Z</time>
      </trkpt>
      <trkpt lat="47.81023" lon="-1.20552">
        <ele>89</ele>
        <time>2022-08-27T21:49:10Z</time>
      </trkpt>
      <trkpt lat="47.80973" lon="-1.20534">
        <ele>89.4</ele>
        <time>2022-08-27T21:49:18Z</time>
      </trkpt>
      <trkpt lat="47.80915" lon="-1.20512">
        <ele>89.6</ele>
        <time>2022-08-27T21:49:27Z</time>
      </trkpt>
      <trkpt lat="47.80863" lon="-1.20494">
        <ele>89.8</ele>
        <time>2022-08-27T21:49:35Z</time>
      </trkpt>
      <trkpt lat="47.80813" lon="-1.20475">
        <ele>89.8</ele>
        <time>2022-08-27T21:49:43Z</time>
      </trkpt>
      <trkpt lat="47.80761" lon="-1.20457">
        <ele>89.8</ele>
        <time>2022-08-27T21:49:51Z</time>
      </trkpt>
      <trkpt lat="47.80705" lon="-1.20436">
        <ele>89.6</ele>
        <time>2022-08-27T21:49:59Z</time>
      </trkpt>
      <trkpt lat="47.80691" lon="-1.20431">
        <ele>89.8</ele>
        <time>2022-08-27T21:50:01Z</time>
      </trkpt>
      <trkpt lat="47.80633" lon="-1.2041">
        <ele>89.4</ele>
        <time>2022-08-27T21:50:09Z</time>
      </trkpt>
      <trkpt lat="47.80626" lon="-1.20407">
        <ele>89.4</ele>
        <time>2022-08-27T21:50:10Z</time>
      </trkpt>
      <trkpt lat="47.80569" lon="-1.20387">
        <ele>89.2</ele>
        <time>2022-08-27T21:50:18Z</time>
      </trkpt>
      <trkpt lat="47.80562" lon="-1.20385">
        <ele>89.2</ele>
        <time>2022-08-27T21:50:19Z</time>
      </trkpt>
      <trkpt lat="47.80506" lon="-1.20362">
        <ele>88.8</ele>
        <time>2022-08-27T21:50:27Z</time>
      </trkpt>
      <trkpt lat="47.80473" lon="-1.20336">
        <ele>88.6</ele>
        <time>2022-08-27T21:50:32Z</time>
      </trkpt>
      <trkpt lat="47.80433" lon="-1.20302">
        <ele>88</ele>
        <time>2022-08-27T21:50:38Z</time>
      </trkpt>
      <trkpt lat="47.80381" lon="-1.20259">
        <ele>87.4</ele>
        <time>2022-08-27T21:50:46Z</time>
      </trkpt>
      <trkpt lat="47.80369" lon="-1.20249">
        <ele>87.2</ele>
        <time>2022-08-27T21:50:48Z</time>
      </trkpt>
      <trkpt lat="47.8033" lon="-1.20224">
        <ele>86.8</ele>
        <time>2022-08-27T21:50:54Z</time>
      </trkpt>
      <trkpt lat="47.80323" lon="-1.2022">
        <ele>86.8</ele>
        <time>2022-08-27T21:50:55Z</time>
      </trkpt>
      <trkpt lat="47.80295" lon="-1.20212">
        <ele>86.6</ele>
        <time>2022-08-27T21:50:59Z</time>
      </trkpt>
      <trkpt lat="47.80244" lon="-1.20207">
        <ele>86.4</ele>
        <time>2022-08-27T21:51:06Z</time>
      </trkpt>
      <trkpt lat="47.80186" lon="-1.20205">
        <ele>86</ele>
        <time>2022-08-27T21:51:14Z</time>
      </trkpt>
      <trkpt lat="47.8013" lon="-1.20206">
        <ele>85.2</ele>
        <time>2022-08-27T21:51:21Z</time>
      </trkpt>
      <trkpt lat="47.80074" lon="-1.20205">
        <ele>84.4</ele>
        <time>2022-08-27T21:51:28Z</time>
      </trkpt>
      <trkpt lat="47.80038" lon="-1.20205">
        <ele>84.2</ele>
        <time>2022-08-27T21:51:33Z</time>
      </trkpt>
      <trkpt lat="47.80025" lon="-1.20204">
        <ele>84</ele>
        <time>2022-08-27T21:51:35Z</time>
      </trkpt>
      <trkpt lat="47.80012" lon="-1.20205">
        <ele>84</ele>
        <time>2022-08-27T21:51:37Z</time>
      </trkpt>
      <trkpt lat="47.80005" lon="-1.20206">
        <ele>83.8</ele>
        <time>2022-08-27T21:51:38Z</time>
      </trkpt>
      <trkpt lat="47.79988" lon="-1.20215">
        <ele>83.6</ele>
        <time>2022-08-27T21:51:41Z</time>
      </trkpt>
      <trkpt lat="47.79958" lon="-1.20232">
        <ele>83.2</ele>
        <time>2022-08-27T21:51:47Z</time>
      </trkpt>
      <trkpt lat="47.79936" lon="-1.20247">
        <ele>82.8</ele>
        <time>2022-08-27T21:51:52Z</time>
      </trkpt>
      <trkpt lat="47.79932" lon="-1.20251">
        <ele>82.8</ele>
        <time>2022-08-27T21:51:53Z</time>
      </trkpt>
      <trkpt lat="47.79901" lon="-1.20273">
        <ele>82.6</ele>
        <time>2022-08-27T21:52:00Z</time>
      </trkpt>
      <trkpt lat="47.79867" lon="-1.20292">
        <ele>83</ele>
        <time>2022-08-27T21:52:08Z</time>
      </trkpt>
      <trkpt lat="47.7984" lon="-1.20314">
        <ele>82.8</ele>
        <time>2022-08-27T21:52:15Z</time>
      </trkpt>
      <trkpt lat="47.79802" lon="-1.20338">
        <ele>83.2</ele>
        <time>2022-08-27T21:52:24Z</time>
      </trkpt>
      <trkpt lat="47.79774" lon="-1.2036">
        <ele>83.4</ele>
        <time>2022-08-27T21:52:30Z</time>
      </trkpt>
      <trkpt lat="47.79764" lon="-1.20363">
        <ele>83.4</ele>
        <time>2022-08-27T21:52:32Z</time>
      </trkpt>
      <trkpt lat="47.79753" lon="-1.20362">
        <ele>83.4</ele>
        <time>2022-08-27T21:52:34Z</time>
      </trkpt>
      <trkpt lat="47.79717" lon="-1.20353">
        <ele>83.4</ele>
        <time>2022-08-27T21:52:40Z</time>
      </trkpt>
      <trkpt lat="47.79705" lon="-1.2035">
        <ele>83.4</ele>
        <time>2022-08-27T21:52:42Z</time>
      </trkpt>
      <trkpt lat="47.79681" lon="-1.20344">
        <ele>83.2</ele>
        <time>2022-08-27T21:52:46Z</time>
      </trkpt>
      <trkpt lat="47.7964" lon="-1.20338">
        <ele>83.2</ele>
        <time>2022-08-27T21:52:52Z</time>
      </trkpt>
      <trkpt lat="47.79597" lon="-1.2034">
        <ele>82.8</ele>
        <time>2022-08-27T21:52:58Z</time>
      </trkpt>
      <trkpt lat="47.79547" lon="-1.20341">
        <ele>82.6</ele>
        <time>2022-08-27T21:53:05Z</time>
      </trkpt>
      <trkpt lat="47.79515" lon="-1.20341">
        <ele>82.4</ele>
        <time>2022-08-27T21:53:10Z</time>
      </trkpt>
      <trkpt lat="47.79492" lon="-1.20349">
        <ele>82.6</ele>
        <time>2022-08-27T21:53:14Z</time>
      </trkpt>
      <trkpt lat="47.79486" lon="-1.20349">
        <ele>82.4</ele>
        <time>2022-08-27T21:53:15Z</time>
      </trkpt>
      <trkpt lat="47.79481" lon="-1.20348">
        <ele>82.4</ele>
        <time>2022-08-27T21:53:16Z</time>
      </trkpt>
      <trkpt lat="47.79471" lon="-1.20341">
        <ele>82.4</ele>
        <time>2022-08-27T21:53:18Z</time>
      </trkpt>
      <trkpt lat="47.79462" lon="-1.20334">
        <ele>82.4</ele>
        <time>2022-08-27T21:53:20Z</time>
      </trkpt>
      <trkpt lat="47.79451" lon="-1.2033">
        <ele>82.4</ele>
        <time>2022-08-27T21:53:22Z</time>
      </trkpt>
      <trkpt lat="47.79446" lon="-1.20329">
        <ele>82.4</ele>
        <time>2022-08-27T21:53:23Z</time>
      </trkpt>
      <trkpt lat="47.79411" lon="-1.20324">
        <ele>82.4</ele>
        <time>2022-08-27T21:53:29Z</time>
      </trkpt>
      <trkpt lat="47.79364" lon="-1.20318">
        <ele>82.4</ele>
        <time>2022-08-27T21:53:37Z</time>
      </trkpt>
      <trkpt lat="47.79319" lon="-1.20311">
        <ele>82.6</ele>
        <time>2022-08-27T21:53:45Z</time>
      </trkpt>
      <trkpt lat="47.79278" lon="-1.20305">
        <ele>83</ele>
        <time>2022-08-27T21:53:53Z</time>
      </trkpt>
      <trkpt lat="47.79232" lon="-1.20298">
        <ele>83.4</ele>
        <time>2022-08-27T21:54:02Z</time>
      </trkpt>
      <trkpt lat="47.79188" lon="-1.20292">
        <ele>83.8</ele>
        <time>2022-08-27T21:54:11Z</time>
      </trkpt>
      <trkpt lat="47.79138" lon="-1.20285">
        <ele>84.6</ele>
        <time>2022-08-27T21:54:22Z</time>
      </trkpt>
      <trkpt lat="47.79104" lon="-1.2028">
        <ele>85.2</ele>
        <time>2022-08-27T21:54:30Z</time>
      </trkpt>
      <trkpt lat="47.791" lon="-1.20279">
        <ele>85.4</ele>
        <time>2022-08-27T21:54:31Z</time>
      </trkpt>
      <trkpt lat="47.79071" lon="-1.20274">
        <ele>85.8</ele>
        <time>2022-08-27T21:54:38Z</time>
      </trkpt>
      <trkpt lat="47.79035" lon="-1.20269">
        <ele>86.6</ele>
        <time>2022-08-27T21:54:47Z</time>
      </trkpt>
      <trkpt lat="47.79003" lon="-1.20265">
        <ele>87.4</ele>
        <time>2022-08-27T21:54:55Z</time>
      </trkpt>
      <trkpt lat="47.78995" lon="-1.20264">
        <ele>87.6</ele>
        <time>2022-08-27T21:54:57Z</time>
      </trkpt>
      <trkpt lat="47.78983" lon="-1.20262">
        <ele>87.8</ele>
        <time>2022-08-27T21:55:00Z</time>
      </trkpt>
      <trkpt lat="47.78979" lon="-1.20261">
        <ele>88</ele>
        <time>2022-08-27T21:55:01Z</time>
      </trkpt>
      <trkpt lat="47.78951" lon="-1.2025">
        <ele>88.6</ele>
        <time>2022-08-27T21:55:08Z</time>
      </trkpt>
      <trkpt lat="47.78922" lon="-1.20232">
        <ele>89.4</ele>
        <time>2022-08-27T21:55:15Z</time>
      </trkpt>
      <trkpt lat="47.78892" lon="-1.20206">
        <ele>90</ele>
        <time>2022-08-27T21:55:23Z</time>
      </trkpt>
      <trkpt lat="47.78862" lon="-1.20168">
        <ele>90.6</ele>
        <time>2022-08-27T21:55:32Z</time>
      </trkpt>
      <trkpt lat="47.78845" lon="-1.2014">
        <ele>91</ele>
        <time>2022-08-27T21:55:38Z</time>
      </trkpt>
      <trkpt lat="47.78825" lon="-1.20103">
        <ele>91.8</ele>
        <time>2022-08-27T21:55:45Z</time>
      </trkpt>
      <trkpt lat="47.788" lon="-1.20059">
        <ele>92.4</ele>
        <time>2022-08-27T21:55:53Z</time>
      </trkpt>
      <trkpt lat="47.78775" lon="-1.20015">
        <ele>93</ele>
        <time>2022-08-27T21:56:01Z</time>
      </trkpt>
      <trkpt lat="47.78744" lon="-1.1996">
        <ele>93.8</ele>
        <time>2022-08-27T21:56:11Z</time>
      </trkpt>
      <trkpt lat="47.78741" lon="-1.19955">
        <ele>93.8</ele>
        <time>2022-08-27T21:56:12Z</time>
      </trkpt>
      <trkpt lat="47.78722" lon="-1.19922">
        <ele>94.4</ele>
        <time>2022-08-27T21:56:18Z</time>
      </trkpt>
      <trkpt lat="47.78703" lon="-1.19887">
        <ele>94.6</ele>
        <time>2022-08-27T21:56:24Z</time>
      </trkpt>
      <trkpt lat="47.78679" lon="-1.19843">
        <ele>95</ele>
        <time>2022-08-27T21:56:31Z</time>
      </trkpt>
      <trkpt lat="47.78655" lon="-1.19806">
        <ele>95.4</ele>
        <time>2022-08-27T21:56:38Z</time>
      </trkpt>
      <trkpt lat="47.78644" lon="-1.19792">
        <ele>95.6</ele>
        <time>2022-08-27T21:56:41Z</time>
      </trkpt>
      <trkpt lat="47.78634" lon="-1.1978">
        <ele>95.8</ele>
        <time>2022-08-27T21:56:44Z</time>
      </trkpt>
      <trkpt lat="47.78635" lon="-1.19772">
        <ele>95.8</ele>
        <time>2022-08-27T21:56:47Z</time>
      </trkpt>
      <trkpt lat="47.78639" lon="-1.1976">
        <ele>96</ele>
        <time>2022-08-27T21:56:52Z</time>
      </trkpt>
      <trkpt lat="47.78637" lon="-1.19756">
        <ele>96</ele>
        <time>2022-08-27T21:56:54Z</time>
      </trkpt>
      <trkpt lat="47.78636" lon="-1.19753">
        <ele>96.2</ele>
        <time>2022-08-27T21:56:57Z</time>
      </trkpt>
      <trkpt lat="47.78634" lon="-1.19749">
        <ele>96.8</ele>
        <time>2022-08-27T21:57:18Z</time>
      </trkpt>
      <trkpt lat="47.78633" lon="-1.19743">
        <ele>96.8</ele>
        <time>2022-08-27T21:57:20Z</time>
      </trkpt>
      <trkpt lat="47.78628" lon="-1.19717">
        <ele>97</ele>
        <time>2022-08-27T21:57:26Z</time>
      </trkpt>
      <trkpt lat="47.78624" lon="-1.19675">
        <ele>97</ele>
        <time>2022-08-27T21:57:34Z</time>
      </trkpt>
      <trkpt lat="47.7862" lon="-1.19644">
        <ele>97.2</ele>
        <time>2022-08-27T21:57:40Z</time>
      </trkpt>
      <trkpt lat="47.78615" lon="-1.19604">
        <ele>97.4</ele>
        <time>2022-08-27T21:57:48Z</time>
      </trkpt>
      <trkpt lat="47.78611" lon="-1.1957">
        <ele>97.6</ele>
        <time>2022-08-27T21:57:55Z</time>
      </trkpt>
      <trkpt lat="47.78606" lon="-1.19528">
        <ele>97.8</ele>
        <time>2022-08-27T21:58:03Z</time>
      </trkpt>
      <trkpt lat="47.78601" lon="-1.19473">
        <ele>98</ele>
        <time>2022-08-27T21:58:13Z</time>
      </trkpt>
      <trkpt lat="47.78593" lon="-1.19407">
        <ele>98.4</ele>
        <time>2022-08-27T21:58:24Z</time>
      </trkpt>
      <trkpt lat="47.78586" lon="-1.1936">
        <ele>98.4</ele>
        <time>2022-08-27T21:58:32Z</time>
      </trkpt>
      <trkpt lat="47.78577" lon="-1.19307">
        <ele>98.6</ele>
        <time>2022-08-27T21:58:41Z</time>
      </trkpt>
      <trkpt lat="47.78569" lon="-1.19256">
        <ele>98.6</ele>
        <time>2022-08-27T21:58:50Z</time>
      </trkpt>
      <trkpt lat="47.78565" lon="-1.19217">
        <ele>98.8</ele>
        <time>2022-08-27T21:58:57Z</time>
      </trkpt>
      <trkpt lat="47.78561" lon="-1.19193">
        <ele>98.8</ele>
        <time>2022-08-27T21:59:02Z</time>
      </trkpt>
      <trkpt lat="47.78558" lon="-1.1917">
        <ele>98.4</ele>
        <time>2022-08-27T21:59:07Z</time>
      </trkpt>
      <trkpt lat="47.78556" lon="-1.19138">
        <ele>97.8</ele>
        <time>2022-08-27T21:59:13Z</time>
      </trkpt>
      <trkpt lat="47.78554" lon="-1.19118">
        <ele>97.4</ele>
        <time>2022-08-27T21:59:17Z</time>
      </trkpt>
      <trkpt lat="47.78553" lon="-1.19088">
        <ele>97.2</ele>
        <time>2022-08-27T21:59:22Z</time>
      </trkpt>
      <trkpt lat="47.78552" lon="-1.19073">
        <ele>96.6</ele>
        <time>2022-08-27T21:59:26Z</time>
      </trkpt>
      <trkpt lat="47.78552" lon="-1.19049">
        <ele>95.8</ele>
        <time>2022-08-27T21:59:31Z</time>
      </trkpt>
      <trkpt lat="47.78553" lon="-1.19027">
        <ele>95</ele>
        <time>2022-08-27T21:59:36Z</time>
      </trkpt>
      <trkpt lat="47.78552" lon="-1.19002">
        <ele>93.8</ele>
        <time>2022-08-27T21:59:41Z</time>
      </trkpt>
      <trkpt lat="47.7855" lon="-1.18978">
        <ele>92.6</ele>
        <time>2022-08-27T21:59:46Z</time>
      </trkpt>
      <trkpt lat="47.78549" lon="-1.18955">
        <ele>91.2</ele>
        <time>2022-08-27T21:59:51Z</time>
      </trkpt>
      <trkpt lat="47.78548" lon="-1.18932">
        <ele>89.8</ele>
        <time>2022-08-27T21:59:56Z</time>
      </trkpt>
      <trkpt lat="47.78544" lon="-1.18906">
        <ele>88.4</ele>
        <time>2022-08-27T22:00:01Z</time>
      </trkpt>
      <trkpt lat="47.78536" lon="-1.1887">
        <ele>87.4</ele>
        <time>2022-08-27T22:00:07Z</time>
      </trkpt>
      <trkpt lat="47.78525" lon="-1.18831">
        <ele>87</ele>
        <time>2022-08-27T22:00:14Z</time>
      </trkpt>
      <trkpt lat="47.78519" lon="-1.18801">
        <ele>86.8</ele>
        <time>2022-08-27T22:00:20Z</time>
      </trkpt>
      <trkpt lat="47.7851" lon="-1.18756">
        <ele>86.6</ele>
        <time>2022-08-27T22:00:28Z</time>
      </trkpt>
      <trkpt lat="47.78505" lon="-1.18717">
        <ele>86.6</ele>
        <time>2022-08-27T22:00:35Z</time>
      </trkpt>
      <trkpt lat="47.78499" lon="-1.18678">
        <ele>88</ele>
        <time>2022-08-27T22:00:41Z</time>
      </trkpt>
      <trkpt lat="47.78494" lon="-1.18634">
        <ele>89</ele>
        <time>2022-08-27T22:00:48Z</time>
      </trkpt>
      <trkpt lat="47.78491" lon="-1.18598">
        <ele>89.4</ele>
        <time>2022-08-27T22:00:54Z</time>
      </trkpt>
      <trkpt lat="47.78488" lon="-1.18563">
        <ele>90</ele>
        <time>2022-08-27T22:01:00Z</time>
      </trkpt>
      <trkpt lat="47.78485" lon="-1.18515">
        <ele>90.8</ele>
        <time>2022-08-27T22:01:08Z</time>
      </trkpt>
      <trkpt lat="47.78485" lon="-1.18485">
        <ele>91.2</ele>
        <time>2022-08-27T22:01:14Z</time>
      </trkpt>
      <trkpt lat="47.78487" lon="-1.18462">
        <ele>91.2</ele>
        <time>2022-08-27T22:01:19Z</time>
      </trkpt>
      <trkpt lat="47.78489" lon="-1.18442">
        <ele>91.2</ele>
        <time>2022-08-27T22:01:23Z</time>
      </trkpt>
      <trkpt lat="47.7849" lon="-1.18438">
        <ele>91.2</ele>
        <time>2022-08-27T22:01:24Z</time>
      </trkpt>
      <trkpt lat="47.78492" lon="-1.1841">
        <ele>91.4</ele>
        <time>2022-08-27T22:01:29Z</time>
      </trkpt>
      <trkpt lat="47.78494" lon="-1.18371">
        <ele>91.4</ele>
        <time>2022-08-27T22:01:36Z</time>
      </trkpt>
      <trkpt lat="47.78492" lon="-1.18334">
        <ele>91.6</ele>
        <time>2022-08-27T22:01:42Z</time>
      </trkpt>
      <trkpt lat="47.78491" lon="-1.18296">
        <ele>91.6</ele>
        <time>2022-08-27T22:01:48Z</time>
      </trkpt>
      <trkpt lat="47.78489" lon="-1.18249">
        <ele>91.6</ele>
        <time>2022-08-27T22:01:56Z</time>
      </trkpt>
      <trkpt lat="47.78487" lon="-1.18218">
        <ele>91.2</ele>
        <time>2022-08-27T22:02:01Z</time>
      </trkpt>
      <trkpt lat="47.78487" lon="-1.18188">
        <ele>91.2</ele>
        <time>2022-08-27T22:02:06Z</time>
      </trkpt>
      <trkpt lat="47.78484" lon="-1.18145">
        <ele>91.2</ele>
        <time>2022-08-27T22:02:13Z</time>
      </trkpt>
      <trkpt lat="47.78483" lon="-1.18114">
        <ele>91.2</ele>
        <time>2022-08-27T22:02:19Z</time>
      </trkpt>
      <trkpt lat="47.78481" lon="-1.1809">
        <ele>91.2</ele>
        <time>2022-08-27T22:02:24Z</time>
      </trkpt>
      <trkpt lat="47.7848" lon="-1.18056">
        <ele>90.6</ele>
        <time>2022-08-27T22:02:31Z</time>
      </trkpt>
      <trkpt lat="47.78478" lon="-1.18017">
        <ele>90.6</ele>
        <time>2022-08-27T22:02:38Z</time>
      </trkpt>
      <trkpt lat="47.78476" lon="-1.17991">
        <ele>90.4</ele>
        <time>2022-08-27T22:02:43Z</time>
      </trkpt>
      <trkpt lat="47.78471" lon="-1.17953">
        <ele>90.4</ele>
        <time>2022-08-27T22:02:50Z</time>
      </trkpt>
      <trkpt lat="47.78469" lon="-1.17921">
        <ele>90</ele>
        <time>2022-08-27T22:02:57Z</time>
      </trkpt>
      <trkpt lat="47.78468" lon="-1.17887">
        <ele>89.8</ele>
        <time>2022-08-27T22:03:04Z</time>
      </trkpt>
      <trkpt lat="47.78469" lon="-1.17854">
        <ele>88.2</ele>
        <time>2022-08-27T22:03:12Z</time>
      </trkpt>
      <trkpt lat="47.7847" lon="-1.17835">
        <ele>87.2</ele>
        <time>2022-08-27T22:03:17Z</time>
      </trkpt>
      <trkpt lat="47.78469" lon="-1.17832">
        <ele>86.8</ele>
        <time>2022-08-27T22:03:18Z</time>
      </trkpt>
      <trkpt lat="47.78466" lon="-1.17827">
        <ele>86.4</ele>
        <time>2022-08-27T22:03:20Z</time>
      </trkpt>
      <trkpt lat="47.78462" lon="-1.17826">
        <ele>86</ele>
        <time>2022-08-27T22:03:21Z</time>
      </trkpt>
      <trkpt lat="47.78445" lon="-1.17828">
        <ele>84.4</ele>
        <time>2022-08-27T22:03:27Z</time>
      </trkpt>
      <trkpt lat="47.78424" lon="-1.1783">
        <ele>83.2</ele>
        <time>2022-08-27T22:03:33Z</time>
      </trkpt>
      <trkpt lat="47.78404" lon="-1.17831">
        <ele>82.6</ele>
        <time>2022-08-27T22:03:38Z</time>
      </trkpt>
      <trkpt lat="47.78383" lon="-1.17838">
        <ele>81.6</ele>
        <time>2022-08-27T22:03:43Z</time>
      </trkpt>
      <trkpt lat="47.78368" lon="-1.17846">
        <ele>79.8</ele>
        <time>2022-08-27T22:03:48Z</time>
      </trkpt>
      <trkpt lat="47.7835" lon="-1.17841">
        <ele>78.8</ele>
        <time>2022-08-27T22:03:53Z</time>
      </trkpt>
      <trkpt lat="47.78331" lon="-1.17836">
        <ele>79</ele>
        <time>2022-08-27T22:03:57Z</time>
      </trkpt>
      <trkpt lat="47.78312" lon="-1.17842">
        <ele>79.2</ele>
        <time>2022-08-27T22:04:02Z</time>
      </trkpt>
      <trkpt lat="47.78293" lon="-1.17853">
        <ele>78.6</ele>
        <time>2022-08-27T22:04:07Z</time>
      </trkpt>
      <trkpt lat="47.78283" lon="-1.17859">
        <ele>78.2</ele>
        <time>2022-08-27T22:04:09Z</time>
      </trkpt>
      <trkpt lat="47.78273" lon="-1.17869">
        <ele>77.8</ele>
        <time>2022-08-27T22:04:11Z</time>
      </trkpt>
      <trkpt lat="47.78262" lon="-1.17883">
        <ele>77.4</ele>
        <time>2022-08-27T22:04:14Z</time>
      </trkpt>
      <trkpt lat="47.78258" lon="-1.17888">
        <ele>77.2</ele>
        <time>2022-08-27T22:04:15Z</time>
      </trkpt>
      <trkpt lat="47.78255" lon="-1.17893">
        <ele>77</ele>
        <time>2022-08-27T22:04:16Z</time>
      </trkpt>
      <trkpt lat="47.78246" lon="-1.17899">
        <ele>76.6</ele>
        <time>2022-08-27T22:04:18Z</time>
      </trkpt>
      <trkpt lat="47.78236" lon="-1.17906">
        <ele>76.4</ele>
        <time>2022-08-27T22:04:20Z</time>
      </trkpt>
      <trkpt lat="47.78224" lon="-1.17915">
        <ele>75.8</ele>
        <time>2022-08-27T22:04:23Z</time>
      </trkpt>
      <trkpt lat="47.78211" lon="-1.17915">
        <ele>75.2</ele>
        <time>2022-08-27T22:04:26Z</time>
      </trkpt>
      <trkpt lat="47.78206" lon="-1.17914">
        <ele>75.2</ele>
        <time>2022-08-27T22:04:27Z</time>
      </trkpt>
      <trkpt lat="47.78201" lon="-1.17914">
        <ele>75</ele>
        <time>2022-08-27T22:04:28Z</time>
      </trkpt>
      <trkpt lat="47.78181" lon="-1.17913">
        <ele>74.8</ele>
        <time>2022-08-27T22:04:32Z</time>
      </trkpt>
      <trkpt lat="47.78172" lon="-1.17914">
        <ele>74.8</ele>
        <time>2022-08-27T22:04:34Z</time>
      </trkpt>
      <trkpt lat="47.78165" lon="-1.17914">
        <ele>74.6</ele>
        <time>2022-08-27T22:04:36Z</time>
      </trkpt>
      <trkpt lat="47.78147" lon="-1.17908">
        <ele>73.8</ele>
        <time>2022-08-27T22:04:41Z</time>
      </trkpt>
      <trkpt lat="47.78123" lon="-1.17904">
        <ele>73</ele>
        <time>2022-08-27T22:04:47Z</time>
      </trkpt>
      <trkpt lat="47.78102" lon="-1.17903">
        <ele>72.6</ele>
        <time>2022-08-27T22:04:52Z</time>
      </trkpt>
      <trkpt lat="47.78098" lon="-1.17901">
        <ele>72.6</ele>
        <time>2022-08-27T22:04:53Z</time>
      </trkpt>
      <trkpt lat="47.7808" lon="-1.17896">
        <ele>72.4</ele>
        <time>2022-08-27T22:04:58Z</time>
      </trkpt>
      <trkpt lat="47.78067" lon="-1.17895">
        <ele>72</ele>
        <time>2022-08-27T22:05:02Z</time>
      </trkpt>
      <trkpt lat="47.7805" lon="-1.17894">
        <ele>71.4</ele>
        <time>2022-08-27T22:05:07Z</time>
      </trkpt>
      <trkpt lat="47.78037" lon="-1.17891">
        <ele>71.2</ele>
        <time>2022-08-27T22:05:11Z</time>
      </trkpt>
      <trkpt lat="47.78018" lon="-1.17886">
        <ele>70.6</ele>
        <time>2022-08-27T22:05:16Z</time>
      </trkpt>
      <trkpt lat="47.77992" lon="-1.17878">
        <ele>71</ele>
        <time>2022-08-27T22:05:22Z</time>
      </trkpt>
      <trkpt lat="47.77976" lon="-1.17874">
        <ele>71</ele>
        <time>2022-08-27T22:05:26Z</time>
      </trkpt>
      <trkpt lat="47.77952" lon="-1.17868">
        <ele>70.8</ele>
        <time>2022-08-27T22:05:32Z</time>
      </trkpt>
      <trkpt lat="47.77934" lon="-1.17866">
        <ele>70.4</ele>
        <time>2022-08-27T22:05:37Z</time>
      </trkpt>
      <trkpt lat="47.77923" lon="-1.17861">
        <ele>70.2</ele>
        <time>2022-08-27T22:05:40Z</time>
      </trkpt>
      <trkpt lat="47.77906" lon="-1.17855">
        <ele>70.2</ele>
        <time>2022-08-27T22:05:45Z</time>
      </trkpt>
      <trkpt lat="47.77887" lon="-1.17847">
        <ele>70</ele>
        <time>2022-08-27T22:05:51Z</time>
      </trkpt>
      <trkpt lat="47.77872" lon="-1.1784">
        <ele>70.2</ele>
        <time>2022-08-27T22:05:55Z</time>
      </trkpt>
      <trkpt lat="47.77856" lon="-1.17838">
        <ele>69.8</ele>
        <time>2022-08-27T22:05:59Z</time>
      </trkpt>
      <trkpt lat="47.77842" lon="-1.17839">
        <ele>70.2</ele>
        <time>2022-08-27T22:06:04Z</time>
      </trkpt>
      <trkpt lat="47.77831" lon="-1.17841">
        <ele>70.4</ele>
        <time>2022-08-27T22:06:08Z</time>
      </trkpt>
      <trkpt lat="47.7782" lon="-1.17841">
        <ele>70.4</ele>
        <time>2022-08-27T22:06:12Z</time>
      </trkpt>
      <trkpt lat="47.77803" lon="-1.17839">
        <ele>70.6</ele>
        <time>2022-08-27T22:06:17Z</time>
      </trkpt>
      <trkpt lat="47.77793" lon="-1.17841">
        <ele>70.6</ele>
        <time>2022-08-27T22:06:21Z</time>
      </trkpt>
      <trkpt lat="47.77777" lon="-1.17841">
        <ele>71</ele>
        <time>2022-08-27T22:06:27Z</time>
      </trkpt>
      <trkpt lat="47.77764" lon="-1.1784">
        <ele>71.4</ele>
        <time>2022-08-27T22:06:31Z</time>
      </trkpt>
      <trkpt lat="47.77755" lon="-1.17839">
        <ele>71.8</ele>
        <time>2022-08-27T22:06:35Z</time>
      </trkpt>
      <trkpt lat="47.77752" lon="-1.17838">
        <ele>71.8</ele>
        <time>2022-08-27T22:06:36Z</time>
      </trkpt>
      <trkpt lat="47.7775" lon="-1.17838">
        <ele>72</ele>
        <time>2022-08-27T22:06:37Z</time>
      </trkpt>
      <trkpt lat="47.77744" lon="-1.17838">
        <ele>72</ele>
        <time>2022-08-27T22:06:40Z</time>
      </trkpt>
      <trkpt lat="47.77733" lon="-1.17837">
        <ele>72.4</ele>
        <time>2022-08-27T22:06:44Z</time>
      </trkpt>
      <trkpt lat="47.77723" lon="-1.17837">
        <ele>72.8</ele>
        <time>2022-08-27T22:06:48Z</time>
      </trkpt>
      <trkpt lat="47.77709" lon="-1.17834">
        <ele>73.4</ele>
        <time>2022-08-27T22:06:54Z</time>
      </trkpt>
      <trkpt lat="47.77698" lon="-1.17831">
        <ele>74</ele>
        <time>2022-08-27T22:06:58Z</time>
      </trkpt>
      <trkpt lat="47.77684" lon="-1.17829">
        <ele>74.6</ele>
        <time>2022-08-27T22:07:04Z</time>
      </trkpt>
      <trkpt lat="47.77666" lon="-1.17828">
        <ele>75.6</ele>
        <time>2022-08-27T22:07:11Z</time>
      </trkpt>
      <trkpt lat="47.77649" lon="-1.17826">
        <ele>76.2</ele>
        <time>2022-08-27T22:07:17Z</time>
      </trkpt>
      <trkpt lat="47.77634" lon="-1.17823">
        <ele>76.8</ele>
        <time>2022-08-27T22:07:22Z</time>
      </trkpt>
      <trkpt lat="47.7761" lon="-1.17818">
        <ele>77.4</ele>
        <time>2022-08-27T22:07:29Z</time>
      </trkpt>
      <trkpt lat="47.77591" lon="-1.17816">
        <ele>78</ele>
        <time>2022-08-27T22:07:35Z</time>
      </trkpt>
      <trkpt lat="47.77569" lon="-1.17814">
        <ele>78.4</ele>
        <time>2022-08-27T22:07:41Z</time>
      </trkpt>
      <trkpt lat="47.77549" lon="-1.17814">
        <ele>78.8</ele>
        <time>2022-08-27T22:07:47Z</time>
      </trkpt>
      <trkpt lat="47.77527" lon="-1.17811">
        <ele>79</ele>
        <time>2022-08-27T22:07:53Z</time>
      </trkpt>
      <trkpt lat="47.77516" lon="-1.17805">
        <ele>79</ele>
        <time>2022-08-27T22:07:57Z</time>
      </trkpt>
      <trkpt lat="47.77506" lon="-1.17801">
        <ele>79</ele>
        <time>2022-08-27T22:08:00Z</time>
      </trkpt>
      <trkpt lat="47.77503" lon="-1.17798">
        <ele>79</ele>
        <time>2022-08-27T22:08:01Z</time>
      </trkpt>
      <trkpt lat="47.77497" lon="-1.17794">
        <ele>79</ele>
        <time>2022-08-27T22:08:03Z</time>
      </trkpt>
      <trkpt lat="47.77485" lon="-1.17786">
        <ele>79</ele>
        <time>2022-08-27T22:08:07Z</time>
      </trkpt>
      <trkpt lat="47.77466" lon="-1.17773">
        <ele>78.4</ele>
        <time>2022-08-27T22:08:13Z</time>
      </trkpt>
      <trkpt lat="47.77452" lon="-1.17764">
        <ele>77.6</ele>
        <time>2022-08-27T22:08:18Z</time>
      </trkpt>
      <trkpt lat="47.77429" lon="-1.17751">
        <ele>76.8</ele>
        <time>2022-08-27T22:08:24Z</time>
      </trkpt>
      <trkpt lat="47.77409" lon="-1.17741">
        <ele>76.6</ele>
        <time>2022-08-27T22:08:29Z</time>
      </trkpt>
      <trkpt lat="47.77387" lon="-1.17726">
        <ele>76.4</ele>
        <time>2022-08-27T22:08:35Z</time>
      </trkpt>
      <trkpt lat="47.77366" lon="-1.1771">
        <ele>76</ele>
        <time>2022-08-27T22:08:42Z</time>
      </trkpt>
      <trkpt lat="47.77363" lon="-1.17707">
        <ele>75.8</ele>
        <time>2022-08-27T22:08:43Z</time>
      </trkpt>
      <trkpt lat="47.77356" lon="-1.17698">
        <ele>75.2</ele>
        <time>2022-08-27T22:08:46Z</time>
      </trkpt>
      <trkpt lat="47.77338" lon="-1.17683">
        <ele>73.6</ele>
        <time>2022-08-27T22:08:52Z</time>
      </trkpt>
      <trkpt lat="47.77332" lon="-1.17672">
        <ele>72.6</ele>
        <time>2022-08-27T22:08:56Z</time>
      </trkpt>
      <trkpt lat="47.77332" lon="-1.17655">
        <ele>71</ele>
        <time>2022-08-27T22:09:01Z</time>
      </trkpt>
      <trkpt lat="47.77335" lon="-1.17632">
        <ele>69.2</ele>
        <time>2022-08-27T22:09:07Z</time>
      </trkpt>
      <trkpt lat="47.77339" lon="-1.17615">
        <ele>67.8</ele>
        <time>2022-08-27T22:09:11Z</time>
      </trkpt>
      <trkpt lat="47.77342" lon="-1.17595">
        <ele>66.2</ele>
        <time>2022-08-27T22:09:15Z</time>
      </trkpt>
      <trkpt lat="47.77349" lon="-1.17568">
        <ele>64</ele>
        <time>2022-08-27T22:09:20Z</time>
      </trkpt>
      <trkpt lat="47.77352" lon="-1.17537">
        <ele>62.2</ele>
        <time>2022-08-27T22:09:25Z</time>
      </trkpt>
      <trkpt lat="47.77353" lon="-1.17506">
        <ele>60.2</ele>
        <time>2022-08-27T22:09:31Z</time>
      </trkpt>
      <trkpt lat="47.77349" lon="-1.17449">
        <ele>58.8</ele>
        <time>2022-08-27T22:09:39Z</time>
      </trkpt>
      <trkpt lat="47.77345" lon="-1.17408">
        <ele>57</ele>
        <time>2022-08-27T22:09:45Z</time>
      </trkpt>
      <trkpt lat="47.77339" lon="-1.17361">
        <ele>55</ele>
        <time>2022-08-27T22:09:52Z</time>
      </trkpt>
      <trkpt lat="47.77322" lon="-1.17324">
        <ele>54.4</ele>
        <time>2022-08-27T22:09:58Z</time>
      </trkpt>
      <trkpt lat="47.77308" lon="-1.17308">
        <ele>53.8</ele>
        <time>2022-08-27T22:10:03Z</time>
      </trkpt>
      <trkpt lat="47.77296" lon="-1.17308">
        <ele>52.8</ele>
        <time>2022-08-27T22:10:07Z</time>
      </trkpt>
      <trkpt lat="47.77278" lon="-1.1732">
        <ele>51.2</ele>
        <time>2022-08-27T22:10:13Z</time>
      </trkpt>
      <trkpt lat="47.77253" lon="-1.17323">
        <ele>51.6</ele>
        <time>2022-08-27T22:10:19Z</time>
      </trkpt>
      <trkpt lat="47.7722" lon="-1.17313">
        <ele>53.8</ele>
        <time>2022-08-27T22:10:25Z</time>
      </trkpt>
      <trkpt lat="47.77198" lon="-1.17307">
        <ele>54.6</ele>
        <time>2022-08-27T22:10:29Z</time>
      </trkpt>
      <trkpt lat="47.77187" lon="-1.17306">
        <ele>54.6</ele>
        <time>2022-08-27T22:10:32Z</time>
      </trkpt>
      <trkpt lat="47.77172" lon="-1.17313">
        <ele>54.8</ele>
        <time>2022-08-27T22:10:36Z</time>
      </trkpt>
      <trkpt lat="47.77169" lon="-1.17317">
        <ele>54.8</ele>
        <time>2022-08-27T22:10:37Z</time>
      </trkpt>
      <trkpt lat="47.77158" lon="-1.17335">
        <ele>55.2</ele>
        <time>2022-08-27T22:10:41Z</time>
      </trkpt>
      <trkpt lat="47.77132" lon="-1.17348">
        <ele>58.8</ele>
        <time>2022-08-27T22:10:47Z</time>
      </trkpt>
      <trkpt lat="47.7711" lon="-1.17397">
        <ele>60.4</ele>
        <time>2022-08-27T22:10:54Z</time>
      </trkpt>
      <trkpt lat="47.77087" lon="-1.17448">
        <ele>61.8</ele>
        <time>2022-08-27T22:11:01Z</time>
      </trkpt>
      <trkpt lat="47.77067" lon="-1.17491">
        <ele>63</ele>
        <time>2022-08-27T22:11:07Z</time>
      </trkpt>
      <trkpt lat="47.77058" lon="-1.17502">
        <ele>63.4</ele>
        <time>2022-08-27T22:11:09Z</time>
      </trkpt>
      <trkpt lat="47.77048" lon="-1.17513">
        <ele>63.8</ele>
        <time>2022-08-27T22:11:11Z</time>
      </trkpt>
      <trkpt lat="47.77037" lon="-1.1752">
        <ele>64.2</ele>
        <time>2022-08-27T22:11:13Z</time>
      </trkpt>
      <trkpt lat="47.77003" lon="-1.17528">
        <ele>65.8</ele>
        <time>2022-08-27T22:11:19Z</time>
      </trkpt>
      <trkpt lat="47.76967" lon="-1.17532">
        <ele>67.4</ele>
        <time>2022-08-27T22:11:26Z</time>
      </trkpt>
      <trkpt lat="47.76935" lon="-1.17537">
        <ele>69.4</ele>
        <time>2022-08-27T22:11:34Z</time>
      </trkpt>
      <trkpt lat="47.76916" lon="-1.17539">
        <ele>71</ele>
        <time>2022-08-27T22:11:40Z</time>
      </trkpt>
      <trkpt lat="47.76894" lon="-1.17543">
        <ele>73</ele>
        <time>2022-08-27T22:11:48Z</time>
      </trkpt>
      <trkpt lat="47.76872" lon="-1.17548">
        <ele>75</ele>
        <time>2022-08-27T22:11:56Z</time>
      </trkpt>
      <trkpt lat="47.76859" lon="-1.1755">
        <ele>76</ele>
        <time>2022-08-27T22:12:01Z</time>
      </trkpt>
      <trkpt lat="47.76839" lon="-1.17553">
        <ele>78</ele>
        <time>2022-08-27T22:12:09Z</time>
      </trkpt>
      <trkpt lat="47.76818" lon="-1.17555">
        <ele>79.8</ele>
        <time>2022-08-27T22:12:17Z</time>
      </trkpt>
      <trkpt lat="47.76794" lon="-1.17558">
        <ele>81.8</ele>
        <time>2022-08-27T22:12:26Z</time>
      </trkpt>
      <trkpt lat="47.76763" lon="-1.17555">
        <ele>84</ele>
        <time>2022-08-27T22:12:36Z</time>
      </trkpt>
      <trkpt lat="47.76732" lon="-1.17546">
        <ele>85.8</ele>
        <time>2022-08-27T22:12:44Z</time>
      </trkpt>
      <trkpt lat="47.7669" lon="-1.17537">
        <ele>87.8</ele>
        <time>2022-08-27T22:12:54Z</time>
      </trkpt>
      <trkpt lat="47.76658" lon="-1.17529">
        <ele>89</ele>
        <time>2022-08-27T22:13:01Z</time>
      </trkpt>
      <trkpt lat="47.76622" lon="-1.17519">
        <ele>90</ele>
        <time>2022-08-27T22:13:08Z</time>
      </trkpt>
      <trkpt lat="47.76577" lon="-1.1751">
        <ele>91</ele>
        <time>2022-08-27T22:13:16Z</time>
      </trkpt>
      <trkpt lat="47.76544" lon="-1.17501">
        <ele>91.6</ele>
        <time>2022-08-27T22:13:22Z</time>
      </trkpt>
      <trkpt lat="47.76533" lon="-1.17502">
        <ele>91.8</ele>
        <time>2022-08-27T22:13:24Z</time>
      </trkpt>
      <trkpt lat="47.76521" lon="-1.17501">
        <ele>92.2</ele>
        <time>2022-08-27T22:13:27Z</time>
      </trkpt>
      <trkpt lat="47.76513" lon="-1.17502">
        <ele>92.4</ele>
        <time>2022-08-27T22:13:29Z</time>
      </trkpt>
      <trkpt lat="47.76485" lon="-1.17505">
        <ele>92.6</ele>
        <time>2022-08-27T22:13:34Z</time>
      </trkpt>
      <trkpt lat="47.76468" lon="-1.17508">
        <ele>92.8</ele>
        <time>2022-08-27T22:13:37Z</time>
      </trkpt>
      <trkpt lat="47.76455" lon="-1.17511">
        <ele>92.8</ele>
        <time>2022-08-27T22:13:39Z</time>
      </trkpt>
      <trkpt lat="47.76442" lon="-1.17513">
        <ele>92.8</ele>
        <time>2022-08-27T22:13:41Z</time>
      </trkpt>
      <trkpt lat="47.76422" lon="-1.17517">
        <ele>92.8</ele>
        <time>2022-08-27T22:13:44Z</time>
      </trkpt>
      <trkpt lat="47.76392" lon="-1.17523">
        <ele>92.8</ele>
        <time>2022-08-27T22:13:49Z</time>
      </trkpt>
      <trkpt lat="47.76374" lon="-1.17527">
        <ele>92.8</ele>
        <time>2022-08-27T22:13:52Z</time>
      </trkpt>
      <trkpt lat="47.76355" lon="-1.17532">
        <ele>92.8</ele>
        <time>2022-08-27T22:13:55Z</time>
      </trkpt>
      <trkpt lat="47.76323" lon="-1.17541">
        <ele>92.6</ele>
        <time>2022-08-27T22:14:00Z</time>
      </trkpt>
      <trkpt lat="47.76317" lon="-1.17543">
        <ele>92.4</ele>
        <time>2022-08-27T22:14:01Z</time>
      </trkpt>
      <trkpt lat="47.76296" lon="-1.17548">
        <ele>92.2</ele>
        <time>2022-08-27T22:14:04Z</time>
      </trkpt>
      <trkpt lat="47.76258" lon="-1.17563">
        <ele>91.4</ele>
        <time>2022-08-27T22:14:10Z</time>
      </trkpt>
      <trkpt lat="47.76229" lon="-1.17574">
        <ele>90.8</ele>
        <time>2022-08-27T22:14:15Z</time>
      </trkpt>
      <trkpt lat="47.76216" lon="-1.17581">
        <ele>90.4</ele>
        <time>2022-08-27T22:14:17Z</time>
      </trkpt>
      <trkpt lat="47.76199" lon="-1.17595">
        <ele>90.2</ele>
        <time>2022-08-27T22:14:20Z</time>
      </trkpt>
      <trkpt lat="47.76172" lon="-1.17624">
        <ele>89.8</ele>
        <time>2022-08-27T22:14:25Z</time>
      </trkpt>
      <trkpt lat="47.76141" lon="-1.17677">
        <ele>89.2</ele>
        <time>2022-08-27T22:14:32Z</time>
      </trkpt>
      <trkpt lat="47.76111" lon="-1.17732">
        <ele>88.6</ele>
        <time>2022-08-27T22:14:39Z</time>
      </trkpt>
      <trkpt lat="47.7608" lon="-1.17787">
        <ele>88.2</ele>
        <time>2022-08-27T22:14:46Z</time>
      </trkpt>
      <trkpt lat="47.76066" lon="-1.17807">
        <ele>88</ele>
        <time>2022-08-27T22:14:49Z</time>
      </trkpt>
      <trkpt lat="47.76055" lon="-1.17815">
        <ele>87.8</ele>
        <time>2022-08-27T22:14:51Z</time>
      </trkpt>
      <trkpt lat="47.76025" lon="-1.17821">
        <ele>87.2</ele>
        <time>2022-08-27T22:14:56Z</time>
      </trkpt>
      <trkpt lat="47.76015" lon="-1.17824">
        <ele>87</ele>
        <time>2022-08-27T22:14:58Z</time>
      </trkpt>
      <trkpt lat="47.76011" lon="-1.17828">
        <ele>86.8</ele>
        <time>2022-08-27T22:14:59Z</time>
      </trkpt>
      <trkpt lat="47.76008" lon="-1.17833">
        <ele>86.8</ele>
        <time>2022-08-27T22:15:00Z</time>
      </trkpt>
      <trkpt lat="47.76002" lon="-1.17851">
        <ele>86.6</ele>
        <time>2022-08-27T22:15:03Z</time>
      </trkpt>
      <trkpt lat="47.75999" lon="-1.17858">
        <ele>86.4</ele>
        <time>2022-08-27T22:15:04Z</time>
      </trkpt>
      <trkpt lat="47.75991" lon="-1.17888">
        <ele>86</ele>
        <time>2022-08-27T22:15:08Z</time>
      </trkpt>
      <trkpt lat="47.75985" lon="-1.17948">
        <ele>85.4</ele>
        <time>2022-08-27T22:15:15Z</time>
      </trkpt>
      <trkpt lat="47.75978" lon="-1.18018">
        <ele>84.6</ele>
        <time>2022-08-27T22:15:24Z</time>
      </trkpt>
      <trkpt lat="47.7597" lon="-1.18076">
        <ele>84</ele>
        <time>2022-08-27T22:15:32Z</time>
      </trkpt>
      <trkpt lat="47.75964" lon="-1.18127">
        <ele>83.4</ele>
        <time>2022-08-27T22:15:38Z</time>
      </trkpt>
      <trkpt lat="47.75963" lon="-1.18134">
        <ele>83.2</ele>
        <time>2022-08-27T22:15:39Z</time>
      </trkpt>
      <trkpt lat="47.75959" lon="-1.18157">
        <ele>82.8</ele>
        <time>2022-08-27T22:15:42Z</time>
      </trkpt>
      <trkpt lat="47.75953" lon="-1.18168">
        <ele>82.6</ele>
        <time>2022-08-27T22:15:44Z</time>
      </trkpt>
      <trkpt lat="47.7595" lon="-1.18169">
        <ele>82.4</ele>
        <time>2022-08-27T22:15:45Z</time>
      </trkpt>
      <trkpt lat="47.75943" lon="-1.18171">
        <ele>82.2</ele>
        <time>2022-08-27T22:15:48Z</time>
      </trkpt>
      <trkpt lat="47.75942" lon="-1.18173">
        <ele>82.2</ele>
        <time>2022-08-27T22:15:49Z</time>
      </trkpt>
      <trkpt lat="47.7594" lon="-1.18179">
        <ele>82</ele>
        <time>2022-08-27T22:15:52Z</time>
      </trkpt>
      <trkpt lat="47.7594" lon="-1.1818">
        <ele>81.8</ele>
        <time>2022-08-27T22:15:54Z</time>
      </trkpt>
      <trkpt lat="47.75939" lon="-1.18177">
        <ele>78</ele>
        <time>2022-08-27T22:17:54Z</time>
      </trkpt>
      <trkpt lat="47.75938" lon="-1.18171">
        <ele>78</ele>
        <time>2022-08-27T22:17:56Z</time>
      </trkpt>
      <trkpt lat="47.75936" lon="-1.18168">
        <ele>78.2</ele>
        <time>2022-08-27T22:17:58Z</time>
      </trkpt>
      <trkpt lat="47.75933" lon="-1.18167">
        <ele>78.2</ele>
        <time>2022-08-27T22:18:00Z</time>
      </trkpt>
      <trkpt lat="47.75924" lon="-1.18172">
        <ele>78</ele>
        <time>2022-08-27T22:18:05Z</time>
      </trkpt>
      <trkpt lat="47.7592" lon="-1.18177">
        <ele>77.8</ele>
        <time>2022-08-27T22:18:10Z</time>
      </trkpt>
      <trkpt lat="47.75915" lon="-1.18176">
        <ele>77.6</ele>
        <time>2022-08-27T22:18:26Z</time>
      </trkpt>
      <trkpt lat="47.75911" lon="-1.18175">
        <ele>77.6</ele>
        <time>2022-08-27T22:18:28Z</time>
      </trkpt>
      <trkpt lat="47.75898" lon="-1.18167">
        <ele>77.4</ele>
        <time>2022-08-27T22:18:34Z</time>
      </trkpt>
      <trkpt lat="47.75898" lon="-1.18167">
        <ele>77.4</ele>
        <time>2022-08-27T22:18:36Z</time>
      </trkpt>
      <trkpt lat="47.75918" lon="-1.18176">
        <ele>77</ele>
        <time>2022-08-27T22:19:31Z</time>
      </trkpt>
      <trkpt lat="47.7592" lon="-1.18175">
        <ele>77.2</ele>
        <time>2022-08-27T22:19:32Z</time>
      </trkpt>
      <trkpt lat="47.75928" lon="-1.18168">
        <ele>77.2</ele>
        <time>2022-08-27T22:19:37Z</time>
      </trkpt>
      <trkpt lat="47.75938" lon="-1.18165">
        <ele>77.4</ele>
        <time>2022-08-27T22:19:42Z</time>
      </trkpt>
      <trkpt lat="47.7594" lon="-1.18166">
        <ele>77.4</ele>
        <time>2022-08-27T22:19:43Z</time>
      </trkpt>
      <trkpt lat="47.75941" lon="-1.18168">
        <ele>77.4</ele>
        <time>2022-08-27T22:19:44Z</time>
      </trkpt>
      <trkpt lat="47.75942" lon="-1.18174">
        <ele>77.4</ele>
        <time>2022-08-27T22:19:46Z</time>
      </trkpt>
      <trkpt lat="47.75942" lon="-1.18177">
        <ele>77.4</ele>
        <time>2022-08-27T22:19:47Z</time>
      </trkpt>
      <trkpt lat="47.75939" lon="-1.18199">
        <ele>77.8</ele>
        <time>2022-08-27T22:19:55Z</time>
      </trkpt>
      <trkpt lat="47.75937" lon="-1.18233">
        <ele>78.2</ele>
        <time>2022-08-27T22:20:04Z</time>
      </trkpt>
      <trkpt lat="47.75934" lon="-1.18268">
        <ele>78.6</ele>
        <time>2022-08-27T22:20:13Z</time>
      </trkpt>
      <trkpt lat="47.75931" lon="-1.18305">
        <ele>79</ele>
        <time>2022-08-27T22:20:22Z</time>
      </trkpt>
      <trkpt lat="47.75927" lon="-1.18337">
        <ele>79.2</ele>
        <time>2022-08-27T22:20:29Z</time>
      </trkpt>
      <trkpt lat="47.75923" lon="-1.18389">
        <ele>79.6</ele>
        <time>2022-08-27T22:20:38Z</time>
      </trkpt>
      <trkpt lat="47.75919" lon="-1.18442">
        <ele>79.6</ele>
        <time>2022-08-27T22:20:47Z</time>
      </trkpt>
      <trkpt lat="47.75915" lon="-1.18494">
        <ele>79.6</ele>
        <time>2022-08-27T22:20:55Z</time>
      </trkpt>
      <trkpt lat="47.75911" lon="-1.18531">
        <ele>79.8</ele>
        <time>2022-08-27T22:21:01Z</time>
      </trkpt>
      <trkpt lat="47.75904" lon="-1.18554">
        <ele>79.2</ele>
        <time>2022-08-27T22:21:07Z</time>
      </trkpt>
      <trkpt lat="47.759" lon="-1.18555">
        <ele>79.2</ele>
        <time>2022-08-27T22:21:08Z</time>
      </trkpt>
      <trkpt lat="47.75891" lon="-1.18553">
        <ele>79</ele>
        <time>2022-08-27T22:21:10Z</time>
      </trkpt>
      <trkpt lat="47.75861" lon="-1.18544">
        <ele>78.4</ele>
        <time>2022-08-27T22:21:15Z</time>
      </trkpt>
      <trkpt lat="47.75812" lon="-1.18526">
        <ele>78</ele>
        <time>2022-08-27T22:21:22Z</time>
      </trkpt>
      <trkpt lat="47.75777" lon="-1.18517">
        <ele>77.8</ele>
        <time>2022-08-27T22:21:27Z</time>
      </trkpt>
      <trkpt lat="47.75727" lon="-1.18496">
        <ele>77.6</ele>
        <time>2022-08-27T22:21:34Z</time>
      </trkpt>
      <trkpt lat="47.75672" lon="-1.18468">
        <ele>76.8</ele>
        <time>2022-08-27T22:21:42Z</time>
      </trkpt>
      <trkpt lat="47.75636" lon="-1.1845">
        <ele>75.6</ele>
        <time>2022-08-27T22:21:47Z</time>
      </trkpt>
      <trkpt lat="47.75596" lon="-1.18428">
        <ele>74.8</ele>
        <time>2022-08-27T22:21:53Z</time>
      </trkpt>
      <trkpt lat="47.75559" lon="-1.18408">
        <ele>74.6</ele>
        <time>2022-08-27T22:21:59Z</time>
      </trkpt>
      <trkpt lat="47.75529" lon="-1.18395">
        <ele>74.4</ele>
        <time>2022-08-27T22:22:05Z</time>
      </trkpt>
      <trkpt lat="47.75477" lon="-1.18369">
        <ele>74.2</ele>
        <time>2022-08-27T22:22:16Z</time>
      </trkpt>
      <trkpt lat="47.75472" lon="-1.18367">
        <ele>74.2</ele>
        <time>2022-08-27T22:22:17Z</time>
      </trkpt>
      <trkpt lat="47.75423" lon="-1.18342">
        <ele>74.2</ele>
        <time>2022-08-27T22:22:27Z</time>
      </trkpt>
      <trkpt lat="47.75378" lon="-1.18318">
        <ele>74.2</ele>
        <time>2022-08-27T22:22:35Z</time>
      </trkpt>
      <trkpt lat="47.75348" lon="-1.18293">
        <ele>74</ele>
        <time>2022-08-27T22:22:41Z</time>
      </trkpt>
      <trkpt lat="47.75329" lon="-1.1826">
        <ele>73.6</ele>
        <time>2022-08-27T22:22:46Z</time>
      </trkpt>
      <trkpt lat="47.75314" lon="-1.1822">
        <ele>73.2</ele>
        <time>2022-08-27T22:22:51Z</time>
      </trkpt>
      <trkpt lat="47.75289" lon="-1.18147">
        <ele>72.2</ele>
        <time>2022-08-27T22:22:59Z</time>
      </trkpt>
      <trkpt lat="47.75266" lon="-1.18079">
        <ele>71.6</ele>
        <time>2022-08-27T22:23:07Z</time>
      </trkpt>
      <trkpt lat="47.7525" lon="-1.18032">
        <ele>71.2</ele>
        <time>2022-08-27T22:23:14Z</time>
      </trkpt>
      <trkpt lat="47.75239" lon="-1.18001">
        <ele>71.2</ele>
        <time>2022-08-27T22:23:20Z</time>
      </trkpt>
      <trkpt lat="47.75235" lon="-1.17999">
        <ele>71.2</ele>
        <time>2022-08-27T22:23:22Z</time>
      </trkpt>
      <trkpt lat="47.75232" lon="-1.18">
        <ele>71.2</ele>
        <time>2022-08-27T22:23:23Z</time>
      </trkpt>
      <trkpt lat="47.75219" lon="-1.18012">
        <ele>71.2</ele>
        <time>2022-08-27T22:23:30Z</time>
      </trkpt>
      <trkpt lat="47.75218" lon="-1.18015">
        <ele>71.4</ele>
        <time>2022-08-27T22:23:31Z</time>
      </trkpt>
      <trkpt lat="47.75218" lon="-1.18019">
        <ele>70.8</ele>
        <time>2022-08-27T22:23:33Z</time>
      </trkpt>
      <trkpt lat="47.75218" lon="-1.18021">
        <ele>70.8</ele>
        <time>2022-08-27T22:23:34Z</time>
      </trkpt>
      <trkpt lat="47.75216" lon="-1.18026">
        <ele>71.2</ele>
        <time>2022-08-27T22:23:36Z</time>
      </trkpt>
      <trkpt lat="47.7521" lon="-1.1803">
        <ele>71</ele>
        <time>2022-08-27T22:23:38Z</time>
      </trkpt>
      <trkpt lat="47.75194" lon="-1.18038">
        <ele>70.8</ele>
        <time>2022-08-27T22:23:43Z</time>
      </trkpt>
      <trkpt lat="47.75191" lon="-1.18042">
        <ele>70.8</ele>
        <time>2022-08-27T22:23:44Z</time>
      </trkpt>
      <trkpt lat="47.7518" lon="-1.18061">
        <ele>70.2</ele>
        <time>2022-08-27T22:23:47Z</time>
      </trkpt>
      <trkpt lat="47.75171" lon="-1.18075">
        <ele>69.8</ele>
        <time>2022-08-27T22:23:50Z</time>
      </trkpt>
      <trkpt lat="47.7517" lon="-1.18075">
        <ele>69.8</ele>
        <time>2022-08-27T22:23:51Z</time>
      </trkpt>
      <trkpt lat="47.75168" lon="-1.18069">
        <ele>69.4</ele>
        <time>2022-08-27T22:23:53Z</time>
      </trkpt>
      <trkpt lat="47.75165" lon="-1.18063">
        <ele>69</ele>
        <time>2022-08-27T22:23:55Z</time>
      </trkpt>
      <trkpt lat="47.7516" lon="-1.18054">
        <ele>68.6</ele>
        <time>2022-08-27T22:23:58Z</time>
      </trkpt>
      <trkpt lat="47.75144" lon="-1.18033">
        <ele>67.8</ele>
        <time>2022-08-27T22:24:04Z</time>
      </trkpt>
      <trkpt lat="47.7513" lon="-1.18014">
        <ele>67.4</ele>
        <time>2022-08-27T22:24:08Z</time>
      </trkpt>
      <trkpt lat="47.75127" lon="-1.18011">
        <ele>67.4</ele>
        <time>2022-08-27T22:24:09Z</time>
      </trkpt>
      <trkpt lat="47.75123" lon="-1.18009">
        <ele>67.2</ele>
        <time>2022-08-27T22:24:10Z</time>
      </trkpt>
      <trkpt lat="47.75112" lon="-1.18003">
        <ele>66.8</ele>
        <time>2022-08-27T22:24:12Z</time>
      </trkpt>
      <trkpt lat="47.75104" lon="-1.17992">
        <ele>66.4</ele>
        <time>2022-08-27T22:24:14Z</time>
      </trkpt>
      <trkpt lat="47.75101" lon="-1.17986">
        <ele>66.4</ele>
        <time>2022-08-27T22:24:15Z</time>
      </trkpt>
      <trkpt lat="47.75093" lon="-1.17958">
        <ele>65.8</ele>
        <time>2022-08-27T22:24:20Z</time>
      </trkpt>
      <trkpt lat="47.75088" lon="-1.17928">
        <ele>65.2</ele>
        <time>2022-08-27T22:24:26Z</time>
      </trkpt>
      <trkpt lat="47.75076" lon="-1.1789">
        <ele>65.2</ele>
        <time>2022-08-27T22:24:33Z</time>
      </trkpt>
      <trkpt lat="47.75073" lon="-1.17888">
        <ele>65.2</ele>
        <time>2022-08-27T22:24:34Z</time>
      </trkpt>
      <trkpt lat="47.75066" lon="-1.17884">
        <ele>65.2</ele>
        <time>2022-08-27T22:24:36Z</time>
      </trkpt>
      <trkpt lat="47.75062" lon="-1.17884">
        <ele>65.2</ele>
        <time>2022-08-27T22:24:37Z</time>
      </trkpt>
      <trkpt lat="47.75043" lon="-1.17888">
        <ele>65.4</ele>
        <time>2022-08-27T22:24:41Z</time>
      </trkpt>
      <trkpt lat="47.74992" lon="-1.17911">
        <ele>65.6</ele>
        <time>2022-08-27T22:24:52Z</time>
      </trkpt>
      <trkpt lat="47.74987" lon="-1.17913">
        <ele>65.6</ele>
        <time>2022-08-27T22:24:53Z</time>
      </trkpt>
      <trkpt lat="47.74962" lon="-1.17915">
        <ele>65.6</ele>
        <time>2022-08-27T22:24:58Z</time>
      </trkpt>
      <trkpt lat="47.74936" lon="-1.17909">
        <ele>65.8</ele>
        <time>2022-08-27T22:25:04Z</time>
      </trkpt>
      <trkpt lat="47.74912" lon="-1.17896">
        <ele>66.2</ele>
        <time>2022-08-27T22:25:11Z</time>
      </trkpt>
      <trkpt lat="47.74894" lon="-1.17878">
        <ele>66.6</ele>
        <time>2022-08-27T22:25:18Z</time>
      </trkpt>
      <trkpt lat="47.74873" lon="-1.17854">
        <ele>67.2</ele>
        <time>2022-08-27T22:25:27Z</time>
      </trkpt>
      <trkpt lat="47.74856" lon="-1.17835">
        <ele>67.8</ele>
        <time>2022-08-27T22:25:34Z</time>
      </trkpt>
      <trkpt lat="47.74838" lon="-1.17816">
        <ele>68.2</ele>
        <time>2022-08-27T22:25:41Z</time>
      </trkpt>
      <trkpt lat="47.74814" lon="-1.17788">
        <ele>69</ele>
        <time>2022-08-27T22:25:51Z</time>
      </trkpt>
      <trkpt lat="47.74795" lon="-1.17758">
        <ele>69.8</ele>
        <time>2022-08-27T22:25:59Z</time>
      </trkpt>
      <trkpt lat="47.74793" lon="-1.17741">
        <ele>70</ele>
        <time>2022-08-27T22:26:02Z</time>
      </trkpt>
      <trkpt lat="47.74792" lon="-1.17728">
        <ele>70.2</ele>
        <time>2022-08-27T22:26:04Z</time>
      </trkpt>
      <trkpt lat="47.74791" lon="-1.17689">
        <ele>71.2</ele>
        <time>2022-08-27T22:26:11Z</time>
      </trkpt>
      <trkpt lat="47.74791" lon="-1.17652">
        <ele>72</ele>
        <time>2022-08-27T22:26:17Z</time>
      </trkpt>
      <trkpt lat="47.74787" lon="-1.17588">
        <ele>73</ele>
        <time>2022-08-27T22:26:27Z</time>
      </trkpt>
      <trkpt lat="47.74785" lon="-1.17569">
        <ele>73</ele>
        <time>2022-08-27T22:26:30Z</time>
      </trkpt>
      <trkpt lat="47.74784" lon="-1.17549">
        <ele>73.2</ele>
        <time>2022-08-27T22:26:33Z</time>
      </trkpt>
      <trkpt lat="47.74782" lon="-1.17504">
        <ele>73.8</ele>
        <time>2022-08-27T22:26:40Z</time>
      </trkpt>
      <trkpt lat="47.74781" lon="-1.17469">
        <ele>74.2</ele>
        <time>2022-08-27T22:26:46Z</time>
      </trkpt>
      <trkpt lat="47.74777" lon="-1.17451">
        <ele>74.4</ele>
        <time>2022-08-27T22:26:49Z</time>
      </trkpt>
      <trkpt lat="47.74769" lon="-1.17436">
        <ele>74.4</ele>
        <time>2022-08-27T22:26:52Z</time>
      </trkpt>
      <trkpt lat="47.74765" lon="-1.17433">
        <ele>74.4</ele>
        <time>2022-08-27T22:26:53Z</time>
      </trkpt>
      <trkpt lat="47.7476" lon="-1.17434">
        <ele>74.4</ele>
        <time>2022-08-27T22:26:54Z</time>
      </trkpt>
      <trkpt lat="47.74723" lon="-1.17448">
        <ele>74.4</ele>
        <time>2022-08-27T22:27:00Z</time>
      </trkpt>
      <trkpt lat="47.74685" lon="-1.17465">
        <ele>74.2</ele>
        <time>2022-08-27T22:27:06Z</time>
      </trkpt>
      <trkpt lat="47.74641" lon="-1.17482">
        <ele>74</ele>
        <time>2022-08-27T22:27:12Z</time>
      </trkpt>
      <trkpt lat="47.74618" lon="-1.17491">
        <ele>73.8</ele>
        <time>2022-08-27T22:27:15Z</time>
      </trkpt>
      <trkpt lat="47.7461" lon="-1.17493">
        <ele>73.6</ele>
        <time>2022-08-27T22:27:16Z</time>
      </trkpt>
      <trkpt lat="47.74602" lon="-1.17495">
        <ele>73.6</ele>
        <time>2022-08-27T22:27:17Z</time>
      </trkpt>
      <trkpt lat="47.74578" lon="-1.17506">
        <ele>73.2</ele>
        <time>2022-08-27T22:27:20Z</time>
      </trkpt>
      <trkpt lat="47.74526" lon="-1.1753">
        <ele>72.8</ele>
        <time>2022-08-27T22:27:27Z</time>
      </trkpt>
      <trkpt lat="47.74498" lon="-1.17544">
        <ele>73.2</ele>
        <time>2022-08-27T22:27:32Z</time>
      </trkpt>
      <trkpt lat="47.74493" lon="-1.17546">
        <ele>73.2</ele>
        <time>2022-08-27T22:27:33Z</time>
      </trkpt>
      <trkpt lat="47.74475" lon="-1.17556">
        <ele>73</ele>
        <time>2022-08-27T22:27:37Z</time>
      </trkpt>
      <trkpt lat="47.74444" lon="-1.17569">
        <ele>73.6</ele>
        <time>2022-08-27T22:27:44Z</time>
      </trkpt>
      <trkpt lat="47.74419" lon="-1.17578">
        <ele>73.8</ele>
        <time>2022-08-27T22:27:50Z</time>
      </trkpt>
      <trkpt lat="47.7439" lon="-1.17591">
        <ele>74.2</ele>
        <time>2022-08-27T22:27:57Z</time>
      </trkpt>
      <trkpt lat="47.74369" lon="-1.17602">
        <ele>74.8</ele>
        <time>2022-08-27T22:28:03Z</time>
      </trkpt>
      <trkpt lat="47.74342" lon="-1.17615">
        <ele>75.4</ele>
        <time>2022-08-27T22:28:11Z</time>
      </trkpt>
      <trkpt lat="47.74318" lon="-1.17627">
        <ele>75.8</ele>
        <time>2022-08-27T22:28:18Z</time>
      </trkpt>
      <trkpt lat="47.74299" lon="-1.17635">
        <ele>76</ele>
        <time>2022-08-27T22:28:24Z</time>
      </trkpt>
      <trkpt lat="47.74278" lon="-1.17642">
        <ele>76.6</ele>
        <time>2022-08-27T22:28:30Z</time>
      </trkpt>
      <trkpt lat="47.74265" lon="-1.17649">
        <ele>76.8</ele>
        <time>2022-08-27T22:28:35Z</time>
      </trkpt>
      <trkpt lat="47.74249" lon="-1.17653">
        <ele>77.2</ele>
        <time>2022-08-27T22:28:40Z</time>
      </trkpt>
      <trkpt lat="47.74229" lon="-1.17657">
        <ele>77.8</ele>
        <time>2022-08-27T22:28:46Z</time>
      </trkpt>
      <trkpt lat="47.74213" lon="-1.17663">
        <ele>78.6</ele>
        <time>2022-08-27T22:28:52Z</time>
      </trkpt>
      <trkpt lat="47.74194" lon="-1.17669">
        <ele>79</ele>
        <time>2022-08-27T22:28:59Z</time>
      </trkpt>
      <trkpt lat="47.74177" lon="-1.17673">
        <ele>79.2</ele>
        <time>2022-08-27T22:29:05Z</time>
      </trkpt>
      <trkpt lat="47.74164" lon="-1.17673">
        <ele>79.8</ele>
        <time>2022-08-27T22:29:10Z</time>
      </trkpt>
      <trkpt lat="47.74142" lon="-1.17674">
        <ele>80.4</ele>
        <time>2022-08-27T22:29:18Z</time>
      </trkpt>
      <trkpt lat="47.74125" lon="-1.17679">
        <ele>80.4</ele>
        <time>2022-08-27T22:29:24Z</time>
      </trkpt>
      <trkpt lat="47.7411" lon="-1.17681">
        <ele>80.4</ele>
        <time>2022-08-27T22:29:30Z</time>
      </trkpt>
      <trkpt lat="47.74096" lon="-1.17683">
        <ele>80.6</ele>
        <time>2022-08-27T22:29:36Z</time>
      </trkpt>
      <trkpt lat="47.74087" lon="-1.17682">
        <ele>81.2</ele>
        <time>2022-08-27T22:29:41Z</time>
      </trkpt>
      <trkpt lat="47.74086" lon="-1.17684">
        <ele>81</ele>
        <time>2022-08-27T22:29:42Z</time>
      </trkpt>
      <trkpt lat="47.74081" lon="-1.17684">
        <ele>80.8</ele>
        <time>2022-08-27T22:29:44Z</time>
      </trkpt>
      <trkpt lat="47.74078" lon="-1.17685">
        <ele>80.8</ele>
        <time>2022-08-27T22:29:45Z</time>
      </trkpt>
      <trkpt lat="47.74068" lon="-1.1769">
        <ele>81.2</ele>
        <time>2022-08-27T22:29:51Z</time>
      </trkpt>
      <trkpt lat="47.74055" lon="-1.17691">
        <ele>81.2</ele>
        <time>2022-08-27T22:29:55Z</time>
      </trkpt>
      <trkpt lat="47.74036" lon="-1.17697">
        <ele>81</ele>
        <time>2022-08-27T22:29:59Z</time>
      </trkpt>
      <trkpt lat="47.7403" lon="-1.17697">
        <ele>81.2</ele>
        <time>2022-08-27T22:30:00Z</time>
      </trkpt>
      <trkpt lat="47.74025" lon="-1.17696">
        <ele>81.2</ele>
        <time>2022-08-27T22:30:01Z</time>
      </trkpt>
      <trkpt lat="47.74018" lon="-1.17688">
        <ele>81</ele>
        <time>2022-08-27T22:30:03Z</time>
      </trkpt>
      <trkpt lat="47.7402" lon="-1.17671">
        <ele>81.4</ele>
        <time>2022-08-27T22:30:07Z</time>
      </trkpt>
      <trkpt lat="47.7402" lon="-1.1765">
        <ele>82</ele>
        <time>2022-08-27T22:30:12Z</time>
      </trkpt>
      <trkpt lat="47.74026" lon="-1.17622">
        <ele>82.8</ele>
        <time>2022-08-27T22:30:19Z</time>
      </trkpt>
      <trkpt lat="47.74034" lon="-1.17592">
        <ele>83.2</ele>
        <time>2022-08-27T22:30:26Z</time>
      </trkpt>
      <trkpt lat="47.74038" lon="-1.1757">
        <ele>83.6</ele>
        <time>2022-08-27T22:30:32Z</time>
      </trkpt>
      <trkpt lat="47.74036" lon="-1.17569">
        <ele>83.6</ele>
        <time>2022-08-27T22:30:34Z</time>
      </trkpt>
      <trkpt lat="47.74029" lon="-1.17565">
        <ele>83.6</ele>
        <time>2022-08-27T22:30:36Z</time>
      </trkpt>
      <trkpt lat="47.74009" lon="-1.17555">
        <ele>83.2</ele>
        <time>2022-08-27T22:30:41Z</time>
      </trkpt>
      <trkpt lat="47.73999" lon="-1.17551">
        <ele>84.2</ele>
        <time>2022-08-27T22:30:43Z</time>
      </trkpt>
      <trkpt lat="47.73983" lon="-1.17545">
        <ele>83</ele>
        <time>2022-08-27T22:30:46Z</time>
      </trkpt>
      <trkpt lat="47.73958" lon="-1.17538">
        <ele>82.6</ele>
        <time>2022-08-27T22:30:51Z</time>
      </trkpt>
      <trkpt lat="47.73949" lon="-1.17537">
        <ele>82.4</ele>
        <time>2022-08-27T22:30:53Z</time>
      </trkpt>
      <trkpt lat="47.73936" lon="-1.17531">
        <ele>82</ele>
        <time>2022-08-27T22:30:56Z</time>
      </trkpt>
      <trkpt lat="47.7393" lon="-1.1753">
        <ele>81.4</ele>
        <time>2022-08-27T22:30:59Z</time>
      </trkpt>
      <trkpt lat="47.73927" lon="-1.17533">
        <ele>81.2</ele>
        <time>2022-08-27T22:31:00Z</time>
      </trkpt>
      <trkpt lat="47.73926" lon="-1.17538">
        <ele>81</ele>
        <time>2022-08-27T22:31:01Z</time>
      </trkpt>
      <trkpt lat="47.73923" lon="-1.17549">
        <ele>80.8</ele>
        <time>2022-08-27T22:31:03Z</time>
      </trkpt>
      <trkpt lat="47.73915" lon="-1.17591">
        <ele>79.8</ele>
        <time>2022-08-27T22:31:08Z</time>
      </trkpt>
      <trkpt lat="47.73906" lon="-1.17638">
        <ele>78.6</ele>
        <time>2022-08-27T22:31:13Z</time>
      </trkpt>
      <trkpt lat="47.73897" lon="-1.17693">
        <ele>77.6</ele>
        <time>2022-08-27T22:31:18Z</time>
      </trkpt>
      <trkpt lat="47.73895" lon="-1.17704">
        <ele>77.4</ele>
        <time>2022-08-27T22:31:19Z</time>
      </trkpt>
      <trkpt lat="47.73888" lon="-1.17723">
        <ele>77</ele>
        <time>2022-08-27T22:31:21Z</time>
      </trkpt>
      <trkpt lat="47.73885" lon="-1.1773">
        <ele>76.8</ele>
        <time>2022-08-27T22:31:22Z</time>
      </trkpt>
      <trkpt lat="47.73876" lon="-1.17743">
        <ele>76.4</ele>
        <time>2022-08-27T22:31:24Z</time>
      </trkpt>
      <trkpt lat="47.73864" lon="-1.1775">
        <ele>76</ele>
        <time>2022-08-27T22:31:26Z</time>
      </trkpt>
      <trkpt lat="47.73853" lon="-1.17753">
        <ele>75.6</ele>
        <time>2022-08-27T22:31:28Z</time>
      </trkpt>
      <trkpt lat="47.7384" lon="-1.17753">
        <ele>75.2</ele>
        <time>2022-08-27T22:31:30Z</time>
      </trkpt>
      <trkpt lat="47.73815" lon="-1.17752">
        <ele>74</ele>
        <time>2022-08-27T22:31:35Z</time>
      </trkpt>
      <trkpt lat="47.73807" lon="-1.17754">
        <ele>73.6</ele>
        <time>2022-08-27T22:31:37Z</time>
      </trkpt>
      <trkpt lat="47.73804" lon="-1.17758">
        <ele>73.4</ele>
        <time>2022-08-27T22:31:38Z</time>
      </trkpt>
      <trkpt lat="47.73792" lon="-1.17773">
        <ele>72.6</ele>
        <time>2022-08-27T22:31:41Z</time>
      </trkpt>
      <trkpt lat="47.73782" lon="-1.17787">
        <ele>72</ele>
        <time>2022-08-27T22:31:43Z</time>
      </trkpt>
      <trkpt lat="47.73754" lon="-1.17834">
        <ele>70.8</ele>
        <time>2022-08-27T22:31:49Z</time>
      </trkpt>
      <trkpt lat="47.73734" lon="-1.17863">
        <ele>70</ele>
        <time>2022-08-27T22:31:54Z</time>
      </trkpt>
      <trkpt lat="47.73723" lon="-1.17882">
        <ele>69.2</ele>
        <time>2022-08-27T22:31:59Z</time>
      </trkpt>
      <trkpt lat="47.7371" lon="-1.17895">
        <ele>68.8</ele>
        <time>2022-08-27T22:32:04Z</time>
      </trkpt>
      <trkpt lat="47.7369" lon="-1.17903">
        <ele>68.4</ele>
        <time>2022-08-27T22:32:10Z</time>
      </trkpt>
      <trkpt lat="47.73664" lon="-1.17911">
        <ele>68</ele>
        <time>2022-08-27T22:32:18Z</time>
      </trkpt>
      <trkpt lat="47.73639" lon="-1.17918">
        <ele>67.8</ele>
        <time>2022-08-27T22:32:26Z</time>
      </trkpt>
      <trkpt lat="47.7362" lon="-1.17922">
        <ele>67.8</ele>
        <time>2022-08-27T22:32:32Z</time>
      </trkpt>
      <trkpt lat="47.73596" lon="-1.1793">
        <ele>67.8</ele>
        <time>2022-08-27T22:32:39Z</time>
      </trkpt>
      <trkpt lat="47.73571" lon="-1.17935">
        <ele>68</ele>
        <time>2022-08-27T22:32:46Z</time>
      </trkpt>
      <trkpt lat="47.73547" lon="-1.17942">
        <ele>68</ele>
        <time>2022-08-27T22:32:53Z</time>
      </trkpt>
      <trkpt lat="47.73515" lon="-1.17949">
        <ele>68.2</ele>
        <time>2022-08-27T22:33:02Z</time>
      </trkpt>
      <trkpt lat="47.73488" lon="-1.17958">
        <ele>68.4</ele>
        <time>2022-08-27T22:33:09Z</time>
      </trkpt>
      <trkpt lat="47.73459" lon="-1.17968">
        <ele>68.6</ele>
        <time>2022-08-27T22:33:16Z</time>
      </trkpt>
      <trkpt lat="47.73432" lon="-1.17977">
        <ele>68.8</ele>
        <time>2022-08-27T22:33:22Z</time>
      </trkpt>
      <trkpt lat="47.73404" lon="-1.17985">
        <ele>68.8</ele>
        <time>2022-08-27T22:33:28Z</time>
      </trkpt>
      <trkpt lat="47.73384" lon="-1.17993">
        <ele>68.6</ele>
        <time>2022-08-27T22:33:33Z</time>
      </trkpt>
      <trkpt lat="47.73365" lon="-1.18">
        <ele>68.8</ele>
        <time>2022-08-27T22:33:38Z</time>
      </trkpt>
      <trkpt lat="47.73341" lon="-1.18011">
        <ele>68.6</ele>
        <time>2022-08-27T22:33:45Z</time>
      </trkpt>
      <trkpt lat="47.73318" lon="-1.1802">
        <ele>68.8</ele>
        <time>2022-08-27T22:33:53Z</time>
      </trkpt>
      <trkpt lat="47.73295" lon="-1.18026">
        <ele>69</ele>
        <time>2022-08-27T22:34:00Z</time>
      </trkpt>
      <trkpt lat="47.73269" lon="-1.18036">
        <ele>69.6</ele>
        <time>2022-08-27T22:34:09Z</time>
      </trkpt>
      <trkpt lat="47.73239" lon="-1.18048">
        <ele>70.2</ele>
        <time>2022-08-27T22:34:19Z</time>
      </trkpt>
      <trkpt lat="47.7321" lon="-1.18059">
        <ele>70.8</ele>
        <time>2022-08-27T22:34:27Z</time>
      </trkpt>
      <trkpt lat="47.73187" lon="-1.18068">
        <ele>71.2</ele>
        <time>2022-08-27T22:34:33Z</time>
      </trkpt>
      <trkpt lat="47.73162" lon="-1.18078">
        <ele>71.6</ele>
        <time>2022-08-27T22:34:40Z</time>
      </trkpt>
      <trkpt lat="47.73131" lon="-1.18081">
        <ele>72</ele>
        <time>2022-08-27T22:34:48Z</time>
      </trkpt>
      <trkpt lat="47.73098" lon="-1.18082">
        <ele>72.4</ele>
        <time>2022-08-27T22:34:55Z</time>
      </trkpt>
      <trkpt lat="47.73065" lon="-1.18082">
        <ele>72.6</ele>
        <time>2022-08-27T22:35:02Z</time>
      </trkpt>
      <trkpt lat="47.73035" lon="-1.18082">
        <ele>72.6</ele>
        <time>2022-08-27T22:35:09Z</time>
      </trkpt>
      <trkpt lat="47.73004" lon="-1.18081">
        <ele>72.2</ele>
        <time>2022-08-27T22:35:15Z</time>
      </trkpt>
      <trkpt lat="47.72969" lon="-1.18082">
        <ele>72</ele>
        <time>2022-08-27T22:35:22Z</time>
      </trkpt>
      <trkpt lat="47.72944" lon="-1.18083">
        <ele>72</ele>
        <time>2022-08-27T22:35:28Z</time>
      </trkpt>
      <trkpt lat="47.72902" lon="-1.18082">
        <ele>72</ele>
        <time>2022-08-27T22:35:36Z</time>
      </trkpt>
      <trkpt lat="47.72863" lon="-1.18083">
        <ele>71.6</ele>
        <time>2022-08-27T22:35:43Z</time>
      </trkpt>
      <trkpt lat="47.7284" lon="-1.18082">
        <ele>71.2</ele>
        <time>2022-08-27T22:35:47Z</time>
      </trkpt>
      <trkpt lat="47.72826" lon="-1.18081">
        <ele>71</ele>
        <time>2022-08-27T22:35:49Z</time>
      </trkpt>
      <trkpt lat="47.72783" lon="-1.18082">
        <ele>70</ele>
        <time>2022-08-27T22:35:55Z</time>
      </trkpt>
      <trkpt lat="47.72745" lon="-1.1808">
        <ele>69.2</ele>
        <time>2022-08-27T22:36:00Z</time>
      </trkpt>
      <trkpt lat="47.72685" lon="-1.18076">
        <ele>68</ele>
        <time>2022-08-27T22:36:08Z</time>
      </trkpt>
      <trkpt lat="47.72637" lon="-1.18069">
        <ele>67.4</ele>
        <time>2022-08-27T22:36:15Z</time>
      </trkpt>
      <trkpt lat="47.72595" lon="-1.18062">
        <ele>66.6</ele>
        <time>2022-08-27T22:36:22Z</time>
      </trkpt>
      <trkpt lat="47.72558" lon="-1.18057">
        <ele>65.8</ele>
        <time>2022-08-27T22:36:28Z</time>
      </trkpt>
      <trkpt lat="47.72514" lon="-1.18046">
        <ele>64.8</ele>
        <time>2022-08-27T22:36:34Z</time>
      </trkpt>
      <trkpt lat="47.72456" lon="-1.18037">
        <ele>63.6</ele>
        <time>2022-08-27T22:36:42Z</time>
      </trkpt>
      <trkpt lat="47.72448" lon="-1.18037">
        <ele>63.4</ele>
        <time>2022-08-27T22:36:43Z</time>
      </trkpt>
      <trkpt lat="47.72428" lon="-1.18039">
        <ele>63</ele>
        <time>2022-08-27T22:36:46Z</time>
      </trkpt>
      <trkpt lat="47.72421" lon="-1.18041">
        <ele>63</ele>
        <time>2022-08-27T22:36:47Z</time>
      </trkpt>
      <trkpt lat="47.72387" lon="-1.18054">
        <ele>62.4</ele>
        <time>2022-08-27T22:36:53Z</time>
      </trkpt>
      <trkpt lat="47.72339" lon="-1.18071">
        <ele>61.6</ele>
        <time>2022-08-27T22:37:01Z</time>
      </trkpt>
      <trkpt lat="47.72305" lon="-1.18083">
        <ele>61.4</ele>
        <time>2022-08-27T22:37:07Z</time>
      </trkpt>
      <trkpt lat="47.72293" lon="-1.18083">
        <ele>61.2</ele>
        <time>2022-08-27T22:37:09Z</time>
      </trkpt>
      <trkpt lat="47.72274" lon="-1.1808">
        <ele>61</ele>
        <time>2022-08-27T22:37:12Z</time>
      </trkpt>
      <trkpt lat="47.72235" lon="-1.18064">
        <ele>60.2</ele>
        <time>2022-08-27T22:37:18Z</time>
      </trkpt>
      <trkpt lat="47.72182" lon="-1.18045">
        <ele>59.2</ele>
        <time>2022-08-27T22:37:26Z</time>
      </trkpt>
      <trkpt lat="47.72154" lon="-1.18035">
        <ele>58.6</ele>
        <time>2022-08-27T22:37:31Z</time>
      </trkpt>
      <trkpt lat="47.72121" lon="-1.18024">
        <ele>58</ele>
        <time>2022-08-27T22:37:37Z</time>
      </trkpt>
      <trkpt lat="47.72095" lon="-1.18013">
        <ele>57.6</ele>
        <time>2022-08-27T22:37:43Z</time>
      </trkpt>
      <trkpt lat="47.72076" lon="-1.18005">
        <ele>57.4</ele>
        <time>2022-08-27T22:37:49Z</time>
      </trkpt>
      <trkpt lat="47.72049" lon="-1.17995">
        <ele>56.8</ele>
        <time>2022-08-27T22:37:58Z</time>
      </trkpt>
      <trkpt lat="47.72024" lon="-1.17985">
        <ele>58</ele>
        <time>2022-08-27T22:38:07Z</time>
      </trkpt>
      <trkpt lat="47.72005" lon="-1.17978">
        <ele>58.4</ele>
        <time>2022-08-27T22:38:14Z</time>
      </trkpt>
      <trkpt lat="47.71987" lon="-1.1797">
        <ele>58.6</ele>
        <time>2022-08-27T22:38:20Z</time>
      </trkpt>
      <trkpt lat="47.71962" lon="-1.17962">
        <ele>58.8</ele>
        <time>2022-08-27T22:38:28Z</time>
      </trkpt>
      <trkpt lat="47.71932" lon="-1.1795">
        <ele>59.6</ele>
        <time>2022-08-27T22:38:37Z</time>
      </trkpt>
      <trkpt lat="47.71902" lon="-1.1794">
        <ele>60.2</ele>
        <time>2022-08-27T22:38:46Z</time>
      </trkpt>
      <trkpt lat="47.7187" lon="-1.17928">
        <ele>60.8</ele>
        <time>2022-08-27T22:38:55Z</time>
      </trkpt>
      <trkpt lat="47.71842" lon="-1.17917">
        <ele>61.6</ele>
        <time>2022-08-27T22:39:04Z</time>
      </trkpt>
      <trkpt lat="47.71823" lon="-1.17909">
        <ele>62.4</ele>
        <time>2022-08-27T22:39:11Z</time>
      </trkpt>
      <trkpt lat="47.71807" lon="-1.17901">
        <ele>63</ele>
        <time>2022-08-27T22:39:18Z</time>
      </trkpt>
      <trkpt lat="47.71794" lon="-1.17895">
        <ele>63.4</ele>
        <time>2022-08-27T22:39:23Z</time>
      </trkpt>
      <trkpt lat="47.71779" lon="-1.17885">
        <ele>64</ele>
        <time>2022-08-27T22:39:30Z</time>
      </trkpt>
      <trkpt lat="47.71761" lon="-1.17877">
        <ele>64.8</ele>
        <time>2022-08-27T22:39:38Z</time>
      </trkpt>
      <trkpt lat="47.71746" lon="-1.17872">
        <ele>65.8</ele>
        <time>2022-08-27T22:39:45Z</time>
      </trkpt>
      <trkpt lat="47.71744" lon="-1.17872">
        <ele>66</ele>
        <time>2022-08-27T22:39:46Z</time>
      </trkpt>
      <trkpt lat="47.71738" lon="-1.17874">
        <ele>66.6</ele>
        <time>2022-08-27T22:39:49Z</time>
      </trkpt>
      <trkpt lat="47.71737" lon="-1.17876">
        <ele>66.8</ele>
        <time>2022-08-27T22:39:50Z</time>
      </trkpt>
      <trkpt lat="47.71733" lon="-1.17878">
        <ele>67</ele>
        <time>2022-08-27T22:39:52Z</time>
      </trkpt>
      <trkpt lat="47.71731" lon="-1.17878">
        <ele>67.4</ele>
        <time>2022-08-27T22:39:54Z</time>
      </trkpt>
      <trkpt lat="47.7173" lon="-1.17876">
        <ele>67.6</ele>
        <time>2022-08-27T22:39:56Z</time>
      </trkpt>
      <trkpt lat="47.71727" lon="-1.1788">
        <ele>69.6</ele>
        <time>2022-08-27T22:40:16Z</time>
      </trkpt>
      <trkpt lat="47.71714" lon="-1.17896">
        <ele>70.2</ele>
        <time>2022-08-27T22:40:22Z</time>
      </trkpt>
      <trkpt lat="47.71706" lon="-1.17908">
        <ele>70.2</ele>
        <time>2022-08-27T22:40:25Z</time>
      </trkpt>
      <trkpt lat="47.71704" lon="-1.17914">
        <ele>70.2</ele>
        <time>2022-08-27T22:40:26Z</time>
      </trkpt>
      <trkpt lat="47.717" lon="-1.17927">
        <ele>70.4</ele>
        <time>2022-08-27T22:40:28Z</time>
      </trkpt>
      <trkpt lat="47.71695" lon="-1.17959">
        <ele>70.4</ele>
        <time>2022-08-27T22:40:32Z</time>
      </trkpt>
      <trkpt lat="47.71684" lon="-1.18017">
        <ele>70.4</ele>
        <time>2022-08-27T22:40:38Z</time>
      </trkpt>
      <trkpt lat="47.71677" lon="-1.18073">
        <ele>70.4</ele>
        <time>2022-08-27T22:40:43Z</time>
      </trkpt>
      <trkpt lat="47.7168" lon="-1.18138">
        <ele>69.8</ele>
        <time>2022-08-27T22:40:48Z</time>
      </trkpt>
      <trkpt lat="47.71684" lon="-1.18221">
        <ele>68.8</ele>
        <time>2022-08-27T22:40:54Z</time>
      </trkpt>
      <trkpt lat="47.71684" lon="-1.18235">
        <ele>68.6</ele>
        <time>2022-08-27T22:40:55Z</time>
      </trkpt>
      <trkpt lat="47.71689" lon="-1.18317">
        <ele>67.8</ele>
        <time>2022-08-27T22:41:01Z</time>
      </trkpt>
      <trkpt lat="47.71689" lon="-1.18343">
        <ele>67.6</ele>
        <time>2022-08-27T22:41:03Z</time>
      </trkpt>
      <trkpt lat="47.71693" lon="-1.18433">
        <ele>66.8</ele>
        <time>2022-08-27T22:41:10Z</time>
      </trkpt>
      <trkpt lat="47.71693" lon="-1.18445">
        <ele>66.6</ele>
        <time>2022-08-27T22:41:11Z</time>
      </trkpt>
      <trkpt lat="47.71696" lon="-1.18522">
        <ele>65.8</ele>
        <time>2022-08-27T22:41:18Z</time>
      </trkpt>
      <trkpt lat="47.71699" lon="-1.18576">
        <ele>65.2</ele>
        <time>2022-08-27T22:41:24Z</time>
      </trkpt>
      <trkpt lat="47.71698" lon="-1.18583">
        <ele>65</ele>
        <time>2022-08-27T22:41:25Z</time>
      </trkpt>
      <trkpt lat="47.71693" lon="-1.18595">
        <ele>64.8</ele>
        <time>2022-08-27T22:41:27Z</time>
      </trkpt>
      <trkpt lat="47.71679" lon="-1.18606">
        <ele>64.6</ele>
        <time>2022-08-27T22:41:31Z</time>
      </trkpt>
      <trkpt lat="47.71675" lon="-1.1861">
        <ele>64.6</ele>
        <time>2022-08-27T22:41:32Z</time>
      </trkpt>
      <trkpt lat="47.71672" lon="-1.18613">
        <ele>64.6</ele>
        <time>2022-08-27T22:41:33Z</time>
      </trkpt>
      <trkpt lat="47.71651" lon="-1.18628">
        <ele>64.4</ele>
        <time>2022-08-27T22:41:38Z</time>
      </trkpt>
      <trkpt lat="47.7162" lon="-1.18652">
        <ele>64.2</ele>
        <time>2022-08-27T22:41:46Z</time>
      </trkpt>
      <trkpt lat="47.71594" lon="-1.18673">
        <ele>64.2</ele>
        <time>2022-08-27T22:41:53Z</time>
      </trkpt>
      <trkpt lat="47.71564" lon="-1.18703">
        <ele>64.2</ele>
        <time>2022-08-27T22:42:02Z</time>
      </trkpt>
      <trkpt lat="47.7154" lon="-1.18741">
        <ele>64.6</ele>
        <time>2022-08-27T22:42:11Z</time>
      </trkpt>
      <trkpt lat="47.71515" lon="-1.18785">
        <ele>64.6</ele>
        <time>2022-08-27T22:42:21Z</time>
      </trkpt>
      <trkpt lat="47.71492" lon="-1.18814">
        <ele>65</ele>
        <time>2022-08-27T22:42:29Z</time>
      </trkpt>
      <trkpt lat="47.71463" lon="-1.18841">
        <ele>65.4</ele>
        <time>2022-08-27T22:42:38Z</time>
      </trkpt>
      <trkpt lat="47.71428" lon="-1.18866">
        <ele>65.6</ele>
        <time>2022-08-27T22:42:47Z</time>
      </trkpt>
      <trkpt lat="47.71385" lon="-1.18896">
        <ele>66</ele>
        <time>2022-08-27T22:42:58Z</time>
      </trkpt>
      <trkpt lat="47.71361" lon="-1.18912">
        <ele>66.2</ele>
        <time>2022-08-27T22:43:04Z</time>
      </trkpt>
      <trkpt lat="47.7135" lon="-1.18921">
        <ele>66.4</ele>
        <time>2022-08-27T22:43:07Z</time>
      </trkpt>
      <trkpt lat="47.71323" lon="-1.1894">
        <ele>66.6</ele>
        <time>2022-08-27T22:43:14Z</time>
      </trkpt>
      <trkpt lat="47.71291" lon="-1.18961">
        <ele>67</ele>
        <time>2022-08-27T22:43:22Z</time>
      </trkpt>
      <trkpt lat="47.71288" lon="-1.18964">
        <ele>67</ele>
        <time>2022-08-27T22:43:23Z</time>
      </trkpt>
      <trkpt lat="47.71278" lon="-1.18977">
        <ele>67.2</ele>
        <time>2022-08-27T22:43:27Z</time>
      </trkpt>
      <trkpt lat="47.71278" lon="-1.18982">
        <ele>67.2</ele>
        <time>2022-08-27T22:43:28Z</time>
      </trkpt>
      <trkpt lat="47.71283" lon="-1.19021">
        <ele>67.2</ele>
        <time>2022-08-27T22:43:34Z</time>
      </trkpt>
      <trkpt lat="47.71288" lon="-1.19069">
        <ele>67.4</ele>
        <time>2022-08-27T22:43:42Z</time>
      </trkpt>
      <trkpt lat="47.71294" lon="-1.19107">
        <ele>67.6</ele>
        <time>2022-08-27T22:43:48Z</time>
      </trkpt>
      <trkpt lat="47.71299" lon="-1.1914">
        <ele>67.8</ele>
        <time>2022-08-27T22:43:54Z</time>
      </trkpt>
      <trkpt lat="47.71306" lon="-1.19172">
        <ele>67.6</ele>
        <time>2022-08-27T22:44:00Z</time>
      </trkpt>
      <trkpt lat="47.71308" lon="-1.19195">
        <ele>67.2</ele>
        <time>2022-08-27T22:44:04Z</time>
      </trkpt>
      <trkpt lat="47.71309" lon="-1.19201">
        <ele>67.4</ele>
        <time>2022-08-27T22:44:05Z</time>
      </trkpt>
      <trkpt lat="47.71307" lon="-1.19219">
        <ele>67.4</ele>
        <time>2022-08-27T22:44:08Z</time>
      </trkpt>
      <trkpt lat="47.71305" lon="-1.19225">
        <ele>67.4</ele>
        <time>2022-08-27T22:44:09Z</time>
      </trkpt>
      <trkpt lat="47.71297" lon="-1.19254">
        <ele>67.2</ele>
        <time>2022-08-27T22:44:14Z</time>
      </trkpt>
      <trkpt lat="47.71289" lon="-1.19278">
        <ele>67.4</ele>
        <time>2022-08-27T22:44:19Z</time>
      </trkpt>
      <trkpt lat="47.71282" lon="-1.19294">
        <ele>68</ele>
        <time>2022-08-27T22:44:23Z</time>
      </trkpt>
      <trkpt lat="47.71279" lon="-1.19304">
        <ele>67.6</ele>
        <time>2022-08-27T22:44:25Z</time>
      </trkpt>
      <trkpt lat="47.71276" lon="-1.19316">
        <ele>67.8</ele>
        <time>2022-08-27T22:44:27Z</time>
      </trkpt>
      <trkpt lat="47.71275" lon="-1.19321">
        <ele>67.8</ele>
        <time>2022-08-27T22:44:28Z</time>
      </trkpt>
      <trkpt lat="47.71268" lon="-1.19351">
        <ele>68.2</ele>
        <time>2022-08-27T22:44:33Z</time>
      </trkpt>
      <trkpt lat="47.71265" lon="-1.19375">
        <ele>68.8</ele>
        <time>2022-08-27T22:44:37Z</time>
      </trkpt>
      <trkpt lat="47.71265" lon="-1.19382">
        <ele>69</ele>
        <time>2022-08-27T22:44:38Z</time>
      </trkpt>
      <trkpt lat="47.7126" lon="-1.19419">
        <ele>70.2</ele>
        <time>2022-08-27T22:44:44Z</time>
      </trkpt>
      <trkpt lat="47.71256" lon="-1.19453">
        <ele>71.4</ele>
        <time>2022-08-27T22:44:50Z</time>
      </trkpt>
      <trkpt lat="47.71249" lon="-1.19478">
        <ele>72.4</ele>
        <time>2022-08-27T22:44:55Z</time>
      </trkpt>
      <trkpt lat="47.71241" lon="-1.19495">
        <ele>73</ele>
        <time>2022-08-27T22:44:59Z</time>
      </trkpt>
      <trkpt lat="47.71228" lon="-1.19511">
        <ele>73.8</ele>
        <time>2022-08-27T22:45:04Z</time>
      </trkpt>
      <trkpt lat="47.71224" lon="-1.19515">
        <ele>73.8</ele>
        <time>2022-08-27T22:45:07Z</time>
      </trkpt>
      <trkpt lat="47.71221" lon="-1.19527">
        <ele>80.4</ele>
        <time>2022-08-27T22:46:21Z</time>
      </trkpt>
      <trkpt lat="47.71212" lon="-1.1954">
        <ele>80.4</ele>
        <time>2022-08-27T22:46:26Z</time>
      </trkpt>
      <trkpt lat="47.71208" lon="-1.19545">
        <ele>80.2</ele>
        <time>2022-08-27T22:46:28Z</time>
      </trkpt>
      <trkpt lat="47.71204" lon="-1.1955">
        <ele>80.2</ele>
        <time>2022-08-27T22:46:30Z</time>
      </trkpt>
      <trkpt lat="47.71192" lon="-1.19553">
        <ele>80.4</ele>
        <time>2022-08-27T22:46:34Z</time>
      </trkpt>
      <trkpt lat="47.71179" lon="-1.19549">
        <ele>80.6</ele>
        <time>2022-08-27T22:46:38Z</time>
      </trkpt>
      <trkpt lat="47.7117" lon="-1.19551">
        <ele>80.8</ele>
        <time>2022-08-27T22:46:43Z</time>
      </trkpt>
      <trkpt lat="47.71169" lon="-1.19552">
        <ele>81</ele>
        <time>2022-08-27T22:46:45Z</time>
      </trkpt>
      <trkpt lat="47.71169" lon="-1.19558">
        <ele>81.2</ele>
        <time>2022-08-27T22:46:47Z</time>
      </trkpt>
      <trkpt lat="47.71166" lon="-1.19559">
        <ele>81.4</ele>
        <time>2022-08-27T22:46:48Z</time>
      </trkpt>
      <trkpt lat="47.7116" lon="-1.19561">
        <ele>82</ele>
        <time>2022-08-27T22:46:51Z</time>
      </trkpt>
      <trkpt lat="47.71156" lon="-1.19559">
        <ele>82.4</ele>
        <time>2022-08-27T22:46:53Z</time>
      </trkpt>
      <trkpt lat="47.7112" lon="-1.19582">
        <ele>84.2</ele>
        <time>2022-08-27T22:47:13Z</time>
      </trkpt>
      <trkpt lat="47.71119" lon="-1.19584">
        <ele>84.2</ele>
        <time>2022-08-27T22:47:14Z</time>
      </trkpt>
      <trkpt lat="47.71111" lon="-1.19593">
        <ele>84.6</ele>
        <time>2022-08-27T22:47:19Z</time>
      </trkpt>
      <trkpt lat="47.71109" lon="-1.19595">
        <ele>84.8</ele>
        <time>2022-08-27T22:47:20Z</time>
      </trkpt>
      <trkpt lat="47.71101" lon="-1.19604">
        <ele>85</ele>
        <time>2022-08-27T22:47:24Z</time>
      </trkpt>
      <trkpt lat="47.71094" lon="-1.19613">
        <ele>85</ele>
        <time>2022-08-27T22:47:28Z</time>
      </trkpt>
      <trkpt lat="47.71093" lon="-1.19614">
        <ele>85</ele>
        <time>2022-08-27T22:47:29Z</time>
      </trkpt>
      <trkpt lat="47.71088" lon="-1.1962">
        <ele>85</ele>
        <time>2022-08-27T22:47:32Z</time>
      </trkpt>
      <trkpt lat="47.71083" lon="-1.19625">
        <ele>85.2</ele>
        <time>2022-08-27T22:47:35Z</time>
      </trkpt>
      <trkpt lat="47.71083" lon="-1.19628">
        <ele>85.2</ele>
        <time>2022-08-27T22:47:36Z</time>
      </trkpt>
      <trkpt lat="47.71081" lon="-1.19644">
        <ele>86</ele>
        <time>2022-08-27T22:47:42Z</time>
      </trkpt>
      <trkpt lat="47.71079" lon="-1.19665">
        <ele>86.6</ele>
        <time>2022-08-27T22:47:48Z</time>
      </trkpt>
      <trkpt lat="47.71079" lon="-1.1968">
        <ele>87</ele>
        <time>2022-08-27T22:47:52Z</time>
      </trkpt>
      <trkpt lat="47.71078" lon="-1.19689">
        <ele>87.4</ele>
        <time>2022-08-27T22:47:54Z</time>
      </trkpt>
      <trkpt lat="47.71078" lon="-1.19699">
        <ele>87.8</ele>
        <time>2022-08-27T22:47:57Z</time>
      </trkpt>
      <trkpt lat="47.71079" lon="-1.19709">
        <ele>88</ele>
        <time>2022-08-27T22:48:00Z</time>
      </trkpt>
      <trkpt lat="47.71078" lon="-1.19713">
        <ele>88</ele>
        <time>2022-08-27T22:48:01Z</time>
      </trkpt>
      <trkpt lat="47.71078" lon="-1.19727">
        <ele>88.4</ele>
        <time>2022-08-27T22:48:05Z</time>
      </trkpt>
      <trkpt lat="47.71077" lon="-1.19734">
        <ele>88.4</ele>
        <time>2022-08-27T22:48:07Z</time>
      </trkpt>
      <trkpt lat="47.71077" lon="-1.19739">
        <ele>88.6</ele>
        <time>2022-08-27T22:48:09Z</time>
      </trkpt>
      <trkpt lat="47.71077" lon="-1.19739">
        <ele>88.8</ele>
        <time>2022-08-27T22:48:10Z</time>
      </trkpt>
      <trkpt lat="47.71077" lon="-1.19743">
        <ele>89.6</ele>
        <time>2022-08-27T22:48:35Z</time>
      </trkpt>
      <trkpt lat="47.71076" lon="-1.19738">
        <ele>89.6</ele>
        <time>2022-08-27T22:48:37Z</time>
      </trkpt>
      <trkpt lat="47.71075" lon="-1.19725">
        <ele>89.4</ele>
        <time>2022-08-27T22:48:42Z</time>
      </trkpt>
      <trkpt lat="47.71074" lon="-1.19722">
        <ele>89.6</ele>
        <time>2022-08-27T22:48:43Z</time>
      </trkpt>
      <trkpt lat="47.71074" lon="-1.19714">
        <ele>89.6</ele>
        <time>2022-08-27T22:48:46Z</time>
      </trkpt>
      <trkpt lat="47.71074" lon="-1.19711">
        <ele>89.6</ele>
        <time>2022-08-27T22:48:47Z</time>
      </trkpt>
      <trkpt lat="47.71015" lon="-1.1967">
        <ele>91.6</ele>
        <time>2022-08-27T22:49:40Z</time>
      </trkpt>
      <trkpt lat="47.71009" lon="-1.19664">
        <ele>91.8</ele>
        <time>2022-08-27T22:49:42Z</time>
      </trkpt>
      <trkpt lat="47.70999" lon="-1.19653">
        <ele>92</ele>
        <time>2022-08-27T22:49:47Z</time>
      </trkpt>
      <trkpt lat="47.70995" lon="-1.19649">
        <ele>92</ele>
        <time>2022-08-27T22:49:48Z</time>
      </trkpt>
      <trkpt lat="47.70988" lon="-1.19639">
        <ele>92</ele>
        <time>2022-08-27T22:49:51Z</time>
      </trkpt>
      <trkpt lat="47.70978" lon="-1.19628">
        <ele>92</ele>
        <time>2022-08-27T22:49:55Z</time>
      </trkpt>
      <trkpt lat="47.70965" lon="-1.19613">
        <ele>91.8</ele>
        <time>2022-08-27T22:50:01Z</time>
      </trkpt>
      <trkpt lat="47.70958" lon="-1.19606">
        <ele>92</ele>
        <time>2022-08-27T22:50:05Z</time>
      </trkpt>
      <trkpt lat="47.70956" lon="-1.19604">
        <ele>91.8</ele>
        <time>2022-08-27T22:50:06Z</time>
      </trkpt>
      <trkpt lat="47.70954" lon="-1.19601">
        <ele>91.6</ele>
        <time>2022-08-27T22:50:10Z</time>
      </trkpt>
      <trkpt lat="47.70951" lon="-1.19598">
        <ele>91.6</ele>
        <time>2022-08-27T22:50:12Z</time>
      </trkpt>
      <trkpt lat="47.70941" lon="-1.19594">
        <ele>91.8</ele>
        <time>2022-08-27T22:50:17Z</time>
      </trkpt>
      <trkpt lat="47.70937" lon="-1.19593">
        <ele>92</ele>
        <time>2022-08-27T22:50:19Z</time>
      </trkpt>
      <trkpt lat="47.7093" lon="-1.19589">
        <ele>92.2</ele>
        <time>2022-08-27T22:50:21Z</time>
      </trkpt>
      <trkpt lat="47.7093" lon="-1.19589">
        <ele>92.2</ele>
        <time>2022-08-27T22:50:22Z</time>
      </trkpt>
      <trkpt lat="47.70832" lon="-1.19573">
        <ele>96.2</ele>
        <time>2022-08-27T22:51:05Z</time>
      </trkpt>
      <trkpt lat="47.70831" lon="-1.19572">
        <ele>96.2</ele>
        <time>2022-08-27T22:51:06Z</time>
      </trkpt>
      <trkpt lat="47.70829" lon="-1.19571">
        <ele>96.2</ele>
        <time>2022-08-27T22:51:07Z</time>
      </trkpt>
      <trkpt lat="47.70826" lon="-1.19566">
        <ele>96.2</ele>
        <time>2022-08-27T22:51:10Z</time>
      </trkpt>
      <trkpt lat="47.70821" lon="-1.19554">
        <ele>96</ele>
        <time>2022-08-27T22:51:15Z</time>
      </trkpt>
      <trkpt lat="47.7082" lon="-1.19549">
        <ele>96.2</ele>
        <time>2022-08-27T22:51:17Z</time>
      </trkpt>
      <trkpt lat="47.7082" lon="-1.19545">
        <ele>95.6</ele>
        <time>2022-08-27T22:51:18Z</time>
      </trkpt>
      <trkpt lat="47.70818" lon="-1.19539">
        <ele>95.4</ele>
        <time>2022-08-27T22:51:20Z</time>
      </trkpt>
      <trkpt lat="47.70817" lon="-1.19537">
        <ele>95.4</ele>
        <time>2022-08-27T22:51:21Z</time>
      </trkpt>
      <trkpt lat="47.70816" lon="-1.19527">
        <ele>94.8</ele>
        <time>2022-08-27T22:51:24Z</time>
      </trkpt>
      <trkpt lat="47.70814" lon="-1.1952">
        <ele>94.6</ele>
        <time>2022-08-27T22:51:26Z</time>
      </trkpt>
      <trkpt lat="47.70811" lon="-1.19512">
        <ele>94.4</ele>
        <time>2022-08-27T22:51:28Z</time>
      </trkpt>
      <trkpt lat="47.70803" lon="-1.19497">
        <ele>93.8</ele>
        <time>2022-08-27T22:51:32Z</time>
      </trkpt>
      <trkpt lat="47.70796" lon="-1.1948">
        <ele>93</ele>
        <time>2022-08-27T22:51:37Z</time>
      </trkpt>
      <trkpt lat="47.70795" lon="-1.19477">
        <ele>92.8</ele>
        <time>2022-08-27T22:51:38Z</time>
      </trkpt>
      <trkpt lat="47.70792" lon="-1.1947">
        <ele>92.4</ele>
        <time>2022-08-27T22:51:40Z</time>
      </trkpt>
      <trkpt lat="47.70788" lon="-1.19463">
        <ele>92</ele>
        <time>2022-08-27T22:51:42Z</time>
      </trkpt>
      <trkpt lat="47.70785" lon="-1.19459">
        <ele>91.8</ele>
        <time>2022-08-27T22:51:43Z</time>
      </trkpt>
      <trkpt lat="47.70781" lon="-1.19445">
        <ele>90.8</ele>
        <time>2022-08-27T22:51:48Z</time>
      </trkpt>
      <trkpt lat="47.70777" lon="-1.19435">
        <ele>90.4</ele>
        <time>2022-08-27T22:51:51Z</time>
      </trkpt>
      <trkpt lat="47.70769" lon="-1.19421">
        <ele>89.6</ele>
        <time>2022-08-27T22:51:55Z</time>
      </trkpt>
      <trkpt lat="47.70762" lon="-1.19404">
        <ele>89.2</ele>
        <time>2022-08-27T22:52:00Z</time>
      </trkpt>
      <trkpt lat="47.7076" lon="-1.1939">
        <ele>89.6</ele>
        <time>2022-08-27T22:52:05Z</time>
      </trkpt>
      <trkpt lat="47.70752" lon="-1.19373">
        <ele>89</ele>
        <time>2022-08-27T22:52:11Z</time>
      </trkpt>
      <trkpt lat="47.70744" lon="-1.19355">
        <ele>89</ele>
        <time>2022-08-27T22:52:16Z</time>
      </trkpt>
      <trkpt lat="47.70734" lon="-1.1934">
        <ele>89</ele>
        <time>2022-08-27T22:52:20Z</time>
      </trkpt>
      <trkpt lat="47.70729" lon="-1.19323">
        <ele>89</ele>
        <time>2022-08-27T22:52:24Z</time>
      </trkpt>
      <trkpt lat="47.70724" lon="-1.19303">
        <ele>89.8</ele>
        <time>2022-08-27T22:52:29Z</time>
      </trkpt>
      <trkpt lat="47.70721" lon="-1.19282">
        <ele>89.8</ele>
        <time>2022-08-27T22:52:33Z</time>
      </trkpt>
      <trkpt lat="47.70715" lon="-1.19258">
        <ele>89.8</ele>
        <time>2022-08-27T22:52:38Z</time>
      </trkpt>
      <trkpt lat="47.7071" lon="-1.19238">
        <ele>90</ele>
        <time>2022-08-27T22:52:43Z</time>
      </trkpt>
      <trkpt lat="47.70708" lon="-1.19221">
        <ele>89.8</ele>
        <time>2022-08-27T22:52:47Z</time>
      </trkpt>
      <trkpt lat="47.70705" lon="-1.192">
        <ele>89.2</ele>
        <time>2022-08-27T22:52:52Z</time>
      </trkpt>
      <trkpt lat="47.70703" lon="-1.19172">
        <ele>88.8</ele>
        <time>2022-08-27T22:52:58Z</time>
      </trkpt>
      <trkpt lat="47.70701" lon="-1.19161">
        <ele>88.6</ele>
        <time>2022-08-27T22:53:00Z</time>
      </trkpt>
      <trkpt lat="47.70698" lon="-1.19151">
        <ele>88.2</ele>
        <time>2022-08-27T22:53:02Z</time>
      </trkpt>
      <trkpt lat="47.70692" lon="-1.19137">
        <ele>87.4</ele>
        <time>2022-08-27T22:53:05Z</time>
      </trkpt>
      <trkpt lat="47.70693" lon="-1.19133">
        <ele>87.4</ele>
        <time>2022-08-27T22:53:06Z</time>
      </trkpt>
      <trkpt lat="47.70693" lon="-1.19124">
        <ele>87.6</ele>
        <time>2022-08-27T22:53:08Z</time>
      </trkpt>
      <trkpt lat="47.70692" lon="-1.19119">
        <ele>87.6</ele>
        <time>2022-08-27T22:53:09Z</time>
      </trkpt>
      <trkpt lat="47.7069" lon="-1.19102">
        <ele>87.8</ele>
        <time>2022-08-27T22:53:13Z</time>
      </trkpt>
      <trkpt lat="47.70686" lon="-1.19097">
        <ele>88</ele>
        <time>2022-08-27T22:53:16Z</time>
      </trkpt>
      <trkpt lat="47.70673" lon="-1.19095">
        <ele>87</ele>
        <time>2022-08-27T22:53:21Z</time>
      </trkpt>
      <trkpt lat="47.70655" lon="-1.19091">
        <ele>87.6</ele>
        <time>2022-08-27T22:53:26Z</time>
      </trkpt>
      <trkpt lat="47.70646" lon="-1.19089">
        <ele>87</ele>
        <time>2022-08-27T22:53:29Z</time>
      </trkpt>
      <trkpt lat="47.70626" lon="-1.19086">
        <ele>88</ele>
        <time>2022-08-27T22:53:34Z</time>
      </trkpt>
      <trkpt lat="47.7061" lon="-1.1908">
        <ele>88</ele>
        <time>2022-08-27T22:53:39Z</time>
      </trkpt>
      <trkpt lat="47.70604" lon="-1.19079">
        <ele>88.4</ele>
        <time>2022-08-27T22:53:41Z</time>
      </trkpt>
      <trkpt lat="47.70597" lon="-1.19079">
        <ele>88.8</ele>
        <time>2022-08-27T22:53:43Z</time>
      </trkpt>
      <trkpt lat="47.70594" lon="-1.19079">
        <ele>89</ele>
        <time>2022-08-27T22:53:44Z</time>
      </trkpt>
      <trkpt lat="47.70584" lon="-1.19078">
        <ele>89</ele>
        <time>2022-08-27T22:53:48Z</time>
      </trkpt>
      <trkpt lat="47.70569" lon="-1.19076">
        <ele>88.8</ele>
        <time>2022-08-27T22:53:53Z</time>
      </trkpt>
      <trkpt lat="47.70552" lon="-1.19078">
        <ele>88.8</ele>
        <time>2022-08-27T22:53:59Z</time>
      </trkpt>
      <trkpt lat="47.70547" lon="-1.19078">
        <ele>87.4</ele>
        <time>2022-08-27T22:54:02Z</time>
      </trkpt>
      <trkpt lat="47.70545" lon="-1.1908">
        <ele>88</ele>
        <time>2022-08-27T22:54:04Z</time>
      </trkpt>
      <trkpt lat="47.70544" lon="-1.1908">
        <ele>87.8</ele>
        <time>2022-08-27T22:54:05Z</time>
      </trkpt>
      <trkpt lat="47.70539" lon="-1.1908">
        <ele>87.8</ele>
        <time>2022-08-27T22:54:07Z</time>
      </trkpt>
      <trkpt lat="47.70523" lon="-1.19077">
        <ele>87.8</ele>
        <time>2022-08-27T22:54:10Z</time>
      </trkpt>
      <trkpt lat="47.70519" lon="-1.19076">
        <ele>87.6</ele>
        <time>2022-08-27T22:54:11Z</time>
      </trkpt>
      <trkpt lat="47.70492" lon="-1.1907">
        <ele>87.8</ele>
        <time>2022-08-27T22:54:16Z</time>
      </trkpt>
      <trkpt lat="47.7048" lon="-1.19071">
        <ele>87.8</ele>
        <time>2022-08-27T22:54:19Z</time>
      </trkpt>
      <trkpt lat="47.70478" lon="-1.19071">
        <ele>87.2</ele>
        <time>2022-08-27T22:54:20Z</time>
      </trkpt>
      <trkpt lat="47.70468" lon="-1.1907">
        <ele>87.2</ele>
        <time>2022-08-27T22:54:25Z</time>
      </trkpt>
      <trkpt lat="47.70463" lon="-1.1907">
        <ele>86.6</ele>
        <time>2022-08-27T22:54:28Z</time>
      </trkpt>
      <trkpt lat="47.70445" lon="-1.19067">
        <ele>86.8</ele>
        <time>2022-08-27T22:54:33Z</time>
      </trkpt>
      <trkpt lat="47.70425" lon="-1.19066">
        <ele>87.6</ele>
        <time>2022-08-27T22:54:38Z</time>
      </trkpt>
      <trkpt lat="47.70418" lon="-1.19066">
        <ele>87.8</ele>
        <time>2022-08-27T22:54:40Z</time>
      </trkpt>
      <trkpt lat="47.70416" lon="-1.19067">
        <ele>88</ele>
        <time>2022-08-27T22:54:41Z</time>
      </trkpt>
      <trkpt lat="47.70401" lon="-1.19068">
        <ele>88.2</ele>
        <time>2022-08-27T22:54:46Z</time>
      </trkpt>
      <trkpt lat="47.70384" lon="-1.19068">
        <ele>88.4</ele>
        <time>2022-08-27T22:54:51Z</time>
      </trkpt>
      <trkpt lat="47.70368" lon="-1.19066">
        <ele>88.8</ele>
        <time>2022-08-27T22:54:56Z</time>
      </trkpt>
      <trkpt lat="47.70347" lon="-1.19066">
        <ele>89.2</ele>
        <time>2022-08-27T22:55:03Z</time>
      </trkpt>
      <trkpt lat="47.70332" lon="-1.19064">
        <ele>89.4</ele>
        <time>2022-08-27T22:55:07Z</time>
      </trkpt>
      <trkpt lat="47.7033" lon="-1.19064">
        <ele>89.4</ele>
        <time>2022-08-27T22:55:08Z</time>
      </trkpt>
      <trkpt lat="47.70322" lon="-1.19062">
        <ele>89.6</ele>
        <time>2022-08-27T22:55:10Z</time>
      </trkpt>
      <trkpt lat="47.70315" lon="-1.19062">
        <ele>89.6</ele>
        <time>2022-08-27T22:55:12Z</time>
      </trkpt>
      <trkpt lat="47.70296" lon="-1.1906">
        <ele>89.8</ele>
        <time>2022-08-27T22:55:17Z</time>
      </trkpt>
      <trkpt lat="47.7028" lon="-1.19059">
        <ele>89.8</ele>
        <time>2022-08-27T22:55:21Z</time>
      </trkpt>
      <trkpt lat="47.70263" lon="-1.19057">
        <ele>89.6</ele>
        <time>2022-08-27T22:55:26Z</time>
      </trkpt>
      <trkpt lat="47.70252" lon="-1.19055">
        <ele>89.8</ele>
        <time>2022-08-27T22:55:29Z</time>
      </trkpt>
      <trkpt lat="47.70233" lon="-1.19053">
        <ele>90</ele>
        <time>2022-08-27T22:55:33Z</time>
      </trkpt>
      <trkpt lat="47.70209" lon="-1.19051">
        <ele>90.2</ele>
        <time>2022-08-27T22:55:38Z</time>
      </trkpt>
      <trkpt lat="47.70195" lon="-1.19049">
        <ele>90.2</ele>
        <time>2022-08-27T22:55:41Z</time>
      </trkpt>
      <trkpt lat="47.70177" lon="-1.19048">
        <ele>90</ele>
        <time>2022-08-27T22:55:45Z</time>
      </trkpt>
      <trkpt lat="47.70159" lon="-1.19047">
        <ele>90.2</ele>
        <time>2022-08-27T22:55:49Z</time>
      </trkpt>
      <trkpt lat="47.70154" lon="-1.19047">
        <ele>89.8</ele>
        <time>2022-08-27T22:55:50Z</time>
      </trkpt>
      <trkpt lat="47.70141" lon="-1.19046">
        <ele>89.6</ele>
        <time>2022-08-27T22:55:53Z</time>
      </trkpt>
      <trkpt lat="47.70131" lon="-1.19046">
        <ele>89.4</ele>
        <time>2022-08-27T22:55:55Z</time>
      </trkpt>
      <trkpt lat="47.70126" lon="-1.19046">
        <ele>89.2</ele>
        <time>2022-08-27T22:55:56Z</time>
      </trkpt>
      <trkpt lat="47.70122" lon="-1.19045">
        <ele>89</ele>
        <time>2022-08-27T22:55:57Z</time>
      </trkpt>
      <trkpt lat="47.70113" lon="-1.19044">
        <ele>88.8</ele>
        <time>2022-08-27T22:55:59Z</time>
      </trkpt>
      <trkpt lat="47.70108" lon="-1.19043">
        <ele>88.6</ele>
        <time>2022-08-27T22:56:00Z</time>
      </trkpt>
      <trkpt lat="47.70099" lon="-1.19042">
        <ele>88.4</ele>
        <time>2022-08-27T22:56:02Z</time>
      </trkpt>
      <trkpt lat="47.70088" lon="-1.19041">
        <ele>88.2</ele>
        <time>2022-08-27T22:56:04Z</time>
      </trkpt>
      <trkpt lat="47.70077" lon="-1.1904">
        <ele>87.8</ele>
        <time>2022-08-27T22:56:07Z</time>
      </trkpt>
      <trkpt lat="47.70058" lon="-1.1904">
        <ele>87</ele>
        <time>2022-08-27T22:56:12Z</time>
      </trkpt>
      <trkpt lat="47.70054" lon="-1.19039">
        <ele>86.6</ele>
        <time>2022-08-27T22:56:14Z</time>
      </trkpt>
      <trkpt lat="47.70051" lon="-1.19038">
        <ele>86.2</ele>
        <time>2022-08-27T22:56:15Z</time>
      </trkpt>
      <trkpt lat="47.70031" lon="-1.19034">
        <ele>84.2</ele>
        <time>2022-08-27T22:56:20Z</time>
      </trkpt>
      <trkpt lat="47.70013" lon="-1.19031">
        <ele>82.4</ele>
        <time>2022-08-27T22:56:24Z</time>
      </trkpt>
      <trkpt lat="47.6999" lon="-1.1903">
        <ele>80.4</ele>
        <time>2022-08-27T22:56:28Z</time>
      </trkpt>
      <trkpt lat="47.69974" lon="-1.1903">
        <ele>79</ele>
        <time>2022-08-27T22:56:31Z</time>
      </trkpt>
      <trkpt lat="47.69956" lon="-1.19027">
        <ele>77</ele>
        <time>2022-08-27T22:56:35Z</time>
      </trkpt>
      <trkpt lat="47.69945" lon="-1.19025">
        <ele>75.4</ele>
        <time>2022-08-27T22:56:39Z</time>
      </trkpt>
      <trkpt lat="47.69778" lon="-1.19014">
        <ele>72</ele>
        <time>2022-08-27T22:57:51Z</time>
      </trkpt>
      <trkpt lat="47.69767" lon="-1.19012">
        <ele>72.2</ele>
        <time>2022-08-27T22:57:55Z</time>
      </trkpt>
      <trkpt lat="47.6976" lon="-1.19011">
        <ele>72.2</ele>
        <time>2022-08-27T22:57:58Z</time>
      </trkpt>
      <trkpt lat="47.69748" lon="-1.1901">
        <ele>72</ele>
        <time>2022-08-27T22:58:04Z</time>
      </trkpt>
      <trkpt lat="47.69745" lon="-1.1901">
        <ele>72</ele>
        <time>2022-08-27T22:58:05Z</time>
      </trkpt>
      <trkpt lat="47.6974" lon="-1.19009">
        <ele>72.4</ele>
        <time>2022-08-27T22:58:08Z</time>
      </trkpt>
      <trkpt lat="47.69721" lon="-1.19005">
        <ele>71.6</ele>
        <time>2022-08-27T22:58:16Z</time>
      </trkpt>
      <trkpt lat="47.6971" lon="-1.19005">
        <ele>71.6</ele>
        <time>2022-08-27T22:58:20Z</time>
      </trkpt>
      <trkpt lat="47.69702" lon="-1.19004">
        <ele>71.6</ele>
        <time>2022-08-27T22:58:23Z</time>
      </trkpt>
      <trkpt lat="47.69688" lon="-1.19003">
        <ele>72.4</ele>
        <time>2022-08-27T22:58:28Z</time>
      </trkpt>
      <trkpt lat="47.69672" lon="-1.19003">
        <ele>72.4</ele>
        <time>2022-08-27T22:58:33Z</time>
      </trkpt>
      <trkpt lat="47.69654" lon="-1.19001">
        <ele>72.2</ele>
        <time>2022-08-27T22:58:38Z</time>
      </trkpt>
      <trkpt lat="47.69631" lon="-1.18996">
        <ele>72.8</ele>
        <time>2022-08-27T22:58:43Z</time>
      </trkpt>
      <trkpt lat="47.69608" lon="-1.18995">
        <ele>74</ele>
        <time>2022-08-27T22:58:49Z</time>
      </trkpt>
      <trkpt lat="47.69594" lon="-1.18995">
        <ele>74.8</ele>
        <time>2022-08-27T22:58:54Z</time>
      </trkpt>
      <trkpt lat="47.69576" lon="-1.18994">
        <ele>75.4</ele>
        <time>2022-08-27T22:59:00Z</time>
      </trkpt>
      <trkpt lat="47.69567" lon="-1.18989">
        <ele>75.2</ele>
        <time>2022-08-27T22:59:05Z</time>
      </trkpt>
      <trkpt lat="47.69563" lon="-1.1899">
        <ele>75</ele>
        <time>2022-08-27T22:59:07Z</time>
      </trkpt>
      <trkpt lat="47.69559" lon="-1.1899">
        <ele>74.8</ele>
        <time>2022-08-27T22:59:09Z</time>
      </trkpt>
      <trkpt lat="47.69557" lon="-1.1899">
        <ele>74.8</ele>
        <time>2022-08-27T22:59:10Z</time>
      </trkpt>
      <trkpt lat="47.69551" lon="-1.1899">
        <ele>74.6</ele>
        <time>2022-08-27T22:59:13Z</time>
      </trkpt>
      <trkpt lat="47.69541" lon="-1.18989">
        <ele>74</ele>
        <time>2022-08-27T22:59:18Z</time>
      </trkpt>
      <trkpt lat="47.69531" lon="-1.18984">
        <ele>74.4</ele>
        <time>2022-08-27T22:59:22Z</time>
      </trkpt>
      <trkpt lat="47.69524" lon="-1.18982">
        <ele>74.2</ele>
        <time>2022-08-27T22:59:27Z</time>
      </trkpt>
      <trkpt lat="47.69515" lon="-1.18982">
        <ele>74.4</ele>
        <time>2022-08-27T22:59:30Z</time>
      </trkpt>
      <trkpt lat="47.69493" lon="-1.18985">
        <ele>75.6</ele>
        <time>2022-08-27T22:59:36Z</time>
      </trkpt>
      <trkpt lat="47.69484" lon="-1.18983">
        <ele>75.6</ele>
        <time>2022-08-27T22:59:41Z</time>
      </trkpt>
      <trkpt lat="47.69481" lon="-1.18983">
        <ele>75.6</ele>
        <time>2022-08-27T22:59:42Z</time>
      </trkpt>
      <trkpt lat="47.69465" lon="-1.18982">
        <ele>76</ele>
        <time>2022-08-27T22:59:48Z</time>
      </trkpt>
      <trkpt lat="47.69464" lon="-1.18981">
        <ele>76</ele>
        <time>2022-08-27T22:59:49Z</time>
      </trkpt>
      <trkpt lat="47.69439" lon="-1.18979">
        <ele>76.4</ele>
        <time>2022-08-27T23:00:00Z</time>
      </trkpt>
      <trkpt lat="47.69432" lon="-1.18979">
        <ele>76.8</ele>
        <time>2022-08-27T23:00:02Z</time>
      </trkpt>
      <trkpt lat="47.69425" lon="-1.18978">
        <ele>77.2</ele>
        <time>2022-08-27T23:00:05Z</time>
      </trkpt>
      <trkpt lat="47.69411" lon="-1.18979">
        <ele>78</ele>
        <time>2022-08-27T23:00:10Z</time>
      </trkpt>
      <trkpt lat="47.69404" lon="-1.18979">
        <ele>78.4</ele>
        <time>2022-08-27T23:00:13Z</time>
      </trkpt>
      <trkpt lat="47.69402" lon="-1.18978">
        <ele>78.6</ele>
        <time>2022-08-27T23:00:14Z</time>
      </trkpt>
      <trkpt lat="47.69393" lon="-1.18978">
        <ele>78.6</ele>
        <time>2022-08-27T23:00:18Z</time>
      </trkpt>
      <trkpt lat="47.69383" lon="-1.1898">
        <ele>79</ele>
        <time>2022-08-27T23:00:22Z</time>
      </trkpt>
      <trkpt lat="47.69372" lon="-1.18978">
        <ele>79.6</ele>
        <time>2022-08-27T23:00:26Z</time>
      </trkpt>
      <trkpt lat="47.69361" lon="-1.18976">
        <ele>80</ele>
        <time>2022-08-27T23:00:31Z</time>
      </trkpt>
      <trkpt lat="47.69356" lon="-1.18976">
        <ele>80.2</ele>
        <time>2022-08-27T23:00:33Z</time>
      </trkpt>
      <trkpt lat="47.69353" lon="-1.18976">
        <ele>80.2</ele>
        <time>2022-08-27T23:00:34Z</time>
      </trkpt>
      <trkpt lat="47.69342" lon="-1.18974">
        <ele>80.8</ele>
        <time>2022-08-27T23:00:38Z</time>
      </trkpt>
      <trkpt lat="47.69337" lon="-1.1897">
        <ele>81.2</ele>
        <time>2022-08-27T23:00:41Z</time>
      </trkpt>
      <trkpt lat="47.69337" lon="-1.18969">
        <ele>81.4</ele>
        <time>2022-08-27T23:00:42Z</time>
      </trkpt>
      <trkpt lat="47.69336" lon="-1.18967">
        <ele>81.6</ele>
        <time>2022-08-27T23:00:43Z</time>
      </trkpt>
      <trkpt lat="47.69327" lon="-1.1897">
        <ele>82</ele>
        <time>2022-08-27T23:00:46Z</time>
      </trkpt>
      <trkpt lat="47.69323" lon="-1.18971">
        <ele>82</ele>
        <time>2022-08-27T23:00:47Z</time>
      </trkpt>
      <trkpt lat="47.69314" lon="-1.18973">
        <ele>82.4</ele>
        <time>2022-08-27T23:00:50Z</time>
      </trkpt>
      <trkpt lat="47.69308" lon="-1.18973">
        <ele>82.8</ele>
        <time>2022-08-27T23:00:52Z</time>
      </trkpt>
      <trkpt lat="47.69296" lon="-1.18971">
        <ele>83.2</ele>
        <time>2022-08-27T23:00:56Z</time>
      </trkpt>
      <trkpt lat="47.69279" lon="-1.18972">
        <ele>83.8</ele>
        <time>2022-08-27T23:01:01Z</time>
      </trkpt>
      <trkpt lat="47.69266" lon="-1.18969">
        <ele>84</ele>
        <time>2022-08-27T23:01:05Z</time>
      </trkpt>
      <trkpt lat="47.69248" lon="-1.18967">
        <ele>84.2</ele>
        <time>2022-08-27T23:01:10Z</time>
      </trkpt>
      <trkpt lat="47.6923" lon="-1.18965">
        <ele>84.4</ele>
        <time>2022-08-27T23:01:16Z</time>
      </trkpt>
      <trkpt lat="47.69214" lon="-1.18964">
        <ele>84.4</ele>
        <time>2022-08-27T23:01:20Z</time>
      </trkpt>
      <trkpt lat="47.69199" lon="-1.18963">
        <ele>84.6</ele>
        <time>2022-08-27T23:01:24Z</time>
      </trkpt>
      <trkpt lat="47.69185" lon="-1.18963">
        <ele>84.8</ele>
        <time>2022-08-27T23:01:27Z</time>
      </trkpt>
      <trkpt lat="47.69181" lon="-1.18962">
        <ele>85</ele>
        <time>2022-08-27T23:01:28Z</time>
      </trkpt>
      <trkpt lat="47.69171" lon="-1.1896">
        <ele>85</ele>
        <time>2022-08-27T23:01:31Z</time>
      </trkpt>
      <trkpt lat="47.69156" lon="-1.1896">
        <ele>85.2</ele>
        <time>2022-08-27T23:01:35Z</time>
      </trkpt>
      <trkpt lat="47.69142" lon="-1.18958">
        <ele>85</ele>
        <time>2022-08-27T23:01:39Z</time>
      </trkpt>
      <trkpt lat="47.69129" lon="-1.18957">
        <ele>85.4</ele>
        <time>2022-08-27T23:01:43Z</time>
      </trkpt>
      <trkpt lat="47.69114" lon="-1.18952">
        <ele>84.6</ele>
        <time>2022-08-27T23:01:48Z</time>
      </trkpt>
      <trkpt lat="47.69113" lon="-1.1895">
        <ele>84.6</ele>
        <time>2022-08-27T23:01:49Z</time>
      </trkpt>
      <trkpt lat="47.69107" lon="-1.18947">
        <ele>84.4</ele>
        <time>2022-08-27T23:01:51Z</time>
      </trkpt>
      <trkpt lat="47.69103" lon="-1.18945">
        <ele>84</ele>
        <time>2022-08-27T23:01:53Z</time>
      </trkpt>
      <trkpt lat="47.69095" lon="-1.18943">
        <ele>83</ele>
        <time>2022-08-27T23:01:57Z</time>
      </trkpt>
      <trkpt lat="47.69085" lon="-1.18938">
        <ele>81.6</ele>
        <time>2022-08-27T23:02:02Z</time>
      </trkpt>
      <trkpt lat="47.69083" lon="-1.18937">
        <ele>81.2</ele>
        <time>2022-08-27T23:02:03Z</time>
      </trkpt>
      <trkpt lat="47.69062" lon="-1.18934">
        <ele>79</ele>
        <time>2022-08-27T23:02:09Z</time>
      </trkpt>
      <trkpt lat="47.69044" lon="-1.18934">
        <ele>77.8</ele>
        <time>2022-08-27T23:02:13Z</time>
      </trkpt>
      <trkpt lat="47.69021" lon="-1.18934">
        <ele>76.2</ele>
        <time>2022-08-27T23:02:18Z</time>
      </trkpt>
      <trkpt lat="47.69003" lon="-1.18932">
        <ele>74</ele>
        <time>2022-08-27T23:02:23Z</time>
      </trkpt>
      <trkpt lat="47.69" lon="-1.18931">
        <ele>73.6</ele>
        <time>2022-08-27T23:02:24Z</time>
      </trkpt>
      <trkpt lat="47.68993" lon="-1.18929">
        <ele>72.2</ele>
        <time>2022-08-27T23:02:27Z</time>
      </trkpt>
      <trkpt lat="47.68979" lon="-1.18926">
        <ele>70.4</ele>
        <time>2022-08-27T23:02:32Z</time>
      </trkpt>
      <trkpt lat="47.68971" lon="-1.18927">
        <ele>68.8</ele>
        <time>2022-08-27T23:02:36Z</time>
      </trkpt>
      <trkpt lat="47.68957" lon="-1.18925">
        <ele>66.4</ele>
        <time>2022-08-27T23:02:42Z</time>
      </trkpt>
      <trkpt lat="47.68946" lon="-1.18923">
        <ele>63.8</ele>
        <time>2022-08-27T23:02:47Z</time>
      </trkpt>
      <trkpt lat="47.68932" lon="-1.18921">
        <ele>61.4</ele>
        <time>2022-08-27T23:02:52Z</time>
      </trkpt>
      <trkpt lat="47.68924" lon="-1.18919">
        <ele>59.8</ele>
        <time>2022-08-27T23:02:56Z</time>
      </trkpt>
      <trkpt lat="47.68922" lon="-1.18919">
        <ele>59.2</ele>
        <time>2022-08-27T23:02:57Z</time>
      </trkpt>
      <trkpt lat="47.68909" lon="-1.18917">
        <ele>56.4</ele>
        <time>2022-08-27T23:03:02Z</time>
      </trkpt>
      <trkpt lat="47.6889" lon="-1.18915">
        <ele>53.4</ele>
        <time>2022-08-27T23:03:08Z</time>
      </trkpt>
      <trkpt lat="47.68881" lon="-1.18914">
        <ele>51.4</ele>
        <time>2022-08-27T23:03:12Z</time>
      </trkpt>
      <trkpt lat="47.68866" lon="-1.18913">
        <ele>50.4</ele>
        <time>2022-08-27T23:03:15Z</time>
      </trkpt>
      <trkpt lat="47.68863" lon="-1.18913">
        <ele>50</ele>
        <time>2022-08-27T23:03:16Z</time>
      </trkpt>
      <trkpt lat="47.68856" lon="-1.18911">
        <ele>49.4</ele>
        <time>2022-08-27T23:03:18Z</time>
      </trkpt>
      <trkpt lat="47.68854" lon="-1.18911">
        <ele>49</ele>
        <time>2022-08-27T23:03:19Z</time>
      </trkpt>
      <trkpt lat="47.68842" lon="-1.18914">
        <ele>49</ele>
        <time>2022-08-27T23:03:22Z</time>
      </trkpt>
      <trkpt lat="47.68825" lon="-1.18915">
        <ele>48.8</ele>
        <time>2022-08-27T23:03:26Z</time>
      </trkpt>
      <trkpt lat="47.68811" lon="-1.18914">
        <ele>48.6</ele>
        <time>2022-08-27T23:03:30Z</time>
      </trkpt>
      <trkpt lat="47.688" lon="-1.18914">
        <ele>48</ele>
        <time>2022-08-27T23:03:34Z</time>
      </trkpt>
      <trkpt lat="47.68786" lon="-1.18913">
        <ele>47.4</ele>
        <time>2022-08-27T23:03:39Z</time>
      </trkpt>
      <trkpt lat="47.68784" lon="-1.18913">
        <ele>47.4</ele>
        <time>2022-08-27T23:03:40Z</time>
      </trkpt>
      <trkpt lat="47.68771" lon="-1.18911">
        <ele>46.8</ele>
        <time>2022-08-27T23:03:46Z</time>
      </trkpt>
      <trkpt lat="47.68763" lon="-1.18906">
        <ele>46.8</ele>
        <time>2022-08-27T23:03:50Z</time>
      </trkpt>
      <trkpt lat="47.68758" lon="-1.18897">
        <ele>46.4</ele>
        <time>2022-08-27T23:03:53Z</time>
      </trkpt>
      <trkpt lat="47.68742" lon="-1.18877">
        <ele>45.6</ele>
        <time>2022-08-27T23:03:58Z</time>
      </trkpt>
      <trkpt lat="47.68732" lon="-1.18854">
        <ele>44.4</ele>
        <time>2022-08-27T23:04:03Z</time>
      </trkpt>
      <trkpt lat="47.68726" lon="-1.18837">
        <ele>42.4</ele>
        <time>2022-08-27T23:04:08Z</time>
      </trkpt>
      <trkpt lat="47.68726" lon="-1.18816">
        <ele>39.8</ele>
        <time>2022-08-27T23:04:14Z</time>
      </trkpt>
      <trkpt lat="47.68727" lon="-1.18796">
        <ele>37</ele>
        <time>2022-08-27T23:04:20Z</time>
      </trkpt>
      <trkpt lat="47.68728" lon="-1.18793">
        <ele>36.6</ele>
        <time>2022-08-27T23:04:21Z</time>
      </trkpt>
      <trkpt lat="47.68724" lon="-1.18778">
        <ele>33.8</ele>
        <time>2022-08-27T23:04:26Z</time>
      </trkpt>
      <trkpt lat="47.68722" lon="-1.1877">
        <ele>32.6</ele>
        <time>2022-08-27T23:04:28Z</time>
      </trkpt>
      <trkpt lat="47.68721" lon="-1.18742">
        <ele>29.2</ele>
        <time>2022-08-27T23:04:34Z</time>
      </trkpt>
      <trkpt lat="47.68728" lon="-1.18711">
        <ele>26.4</ele>
        <time>2022-08-27T23:04:39Z</time>
      </trkpt>
      <trkpt lat="47.68725" lon="-1.18691">
        <ele>23</ele>
        <time>2022-08-27T23:04:44Z</time>
      </trkpt>
      <trkpt lat="47.68729" lon="-1.18666">
        <ele>20</ele>
        <time>2022-08-27T23:04:49Z</time>
      </trkpt>
      <trkpt lat="47.68731" lon="-1.18644">
        <ele>16.4</ele>
        <time>2022-08-27T23:04:54Z</time>
      </trkpt>
      <trkpt lat="47.6873" lon="-1.1863">
        <ele>13.2</ele>
        <time>2022-08-27T23:04:59Z</time>
      </trkpt>
      <trkpt lat="47.68727" lon="-1.18613">
        <ele>9.4</ele>
        <time>2022-08-27T23:05:05Z</time>
      </trkpt>
      <trkpt lat="47.68722" lon="-1.18594">
        <ele>4.8</ele>
        <time>2022-08-27T23:05:12Z</time>
      </trkpt>
      <trkpt lat="47.68715" lon="-1.18575">
        <ele>0.39999999999998</ele>
        <time>2022-08-27T23:05:18Z</time>
      </trkpt>
      <trkpt lat="47.68708" lon="-1.18565">
        <ele>-2.8</ele>
        <time>2022-08-27T23:05:22Z</time>
      </trkpt>
      <trkpt lat="47.68707" lon="-1.18562">
        <ele>-3.6</ele>
        <time>2022-08-27T23:05:23Z</time>
      </trkpt>
      <trkpt lat="47.68707" lon="-1.18555">
        <ele>-5.2</ele>
        <time>2022-08-27T23:05:25Z</time>
      </trkpt>
      <trkpt lat="47.68707" lon="-1.18552">
        <ele>-5.8</ele>
        <time>2022-08-27T23:05:26Z</time>
      </trkpt>
      <trkpt lat="47.68707" lon="-1.18543">
        <ele>-8.4</ele>
        <time>2022-08-27T23:05:30Z</time>
      </trkpt>
      <trkpt lat="47.68702" lon="-1.1854">
        <ele>-8.6</ele>
        <time>2022-08-27T23:05:32Z</time>
      </trkpt>
      <trkpt lat="47.68703" lon="-1.18537">
        <ele>-7.8</ele>
        <time>2022-08-27T23:05:34Z</time>
      </trkpt>
      <trkpt lat="47.68698" lon="-1.18534">
        <ele>-7.4</ele>
        <time>2022-08-27T23:05:38Z</time>
      </trkpt>
      <trkpt lat="47.68696" lon="-1.18533">
        <ele>-7.2</ele>
        <time>2022-08-27T23:05:39Z</time>
      </trkpt>
      <trkpt lat="47.6869" lon="-1.18529">
        <ele>-6.8</ele>
        <time>2022-08-27T23:05:43Z</time>
      </trkpt>
      <trkpt lat="47.68681" lon="-1.18517">
        <ele>-10</ele>
        <time>2022-08-27T23:05:48Z</time>
      </trkpt>
      <trkpt lat="47.68682" lon="-1.1851">
        <ele>-6</ele>
        <time>2022-08-27T23:05:50Z</time>
      </trkpt>
      <trkpt lat="47.68683" lon="-1.18509">
        <ele>-4.8</ele>
        <time>2022-08-27T23:05:51Z</time>
      </trkpt>
      <trkpt lat="47.68684" lon="-1.18512">
        <ele>-4.6</ele>
        <time>2022-08-27T23:05:54Z</time>
      </trkpt>
      <trkpt lat="47.68656" lon="-1.18528">
        <ele>-4.6</ele>
        <time>2022-08-27T23:05:59Z</time>
      </trkpt>
      <trkpt lat="47.68632" lon="-1.18577">
        <ele>4.2</ele>
        <time>2022-08-27T23:06:07Z</time>
      </trkpt>
      <trkpt lat="47.68623" lon="-1.18608">
        <ele>6.8</ele>
        <time>2022-08-27T23:06:12Z</time>
      </trkpt>
      <trkpt lat="47.68617" lon="-1.18631">
        <ele>8.6</ele>
        <time>2022-08-27T23:06:16Z</time>
      </trkpt>
      <trkpt lat="47.68606" lon="-1.18666">
        <ele>11.2</ele>
        <time>2022-08-27T23:06:22Z</time>
      </trkpt>
      <trkpt lat="47.686" lon="-1.18697">
        <ele>14.6</ele>
        <time>2022-08-27T23:06:28Z</time>
      </trkpt>
      <trkpt lat="47.68597" lon="-1.18719">
        <ele>18.4</ele>
        <time>2022-08-27T23:06:33Z</time>
      </trkpt>
      <trkpt lat="47.68583" lon="-1.18729">
        <ele>21.6</ele>
        <time>2022-08-27T23:06:38Z</time>
      </trkpt>
      <trkpt lat="47.68552" lon="-1.18741">
        <ele>26.6</ele>
        <time>2022-08-27T23:06:46Z</time>
      </trkpt>
      <trkpt lat="47.68529" lon="-1.18743">
        <ele>29.8</ele>
        <time>2022-08-27T23:06:52Z</time>
      </trkpt>
      <trkpt lat="47.68506" lon="-1.18735">
        <ele>33.2</ele>
        <time>2022-08-27T23:06:58Z</time>
      </trkpt>
      <trkpt lat="47.68479" lon="-1.18724">
        <ele>37</ele>
        <time>2022-08-27T23:07:05Z</time>
      </trkpt>
      <trkpt lat="47.68457" lon="-1.18713">
        <ele>39.2</ele>
        <time>2022-08-27T23:07:10Z</time>
      </trkpt>
      <trkpt lat="47.68438" lon="-1.18703">
        <ele>40.8</ele>
        <time>2022-08-27T23:07:14Z</time>
      </trkpt>
      <trkpt lat="47.68433" lon="-1.187">
        <ele>41.2</ele>
        <time>2022-08-27T23:07:15Z</time>
      </trkpt>
      <trkpt lat="47.68428" lon="-1.18697">
        <ele>41.6</ele>
        <time>2022-08-27T23:07:16Z</time>
      </trkpt>
      <trkpt lat="47.68414" lon="-1.18691">
        <ele>42.6</ele>
        <time>2022-08-27T23:07:19Z</time>
      </trkpt>
      <trkpt lat="47.68409" lon="-1.18688">
        <ele>42.8</ele>
        <time>2022-08-27T23:07:20Z</time>
      </trkpt>
      <trkpt lat="47.68398" lon="-1.18679">
        <ele>43.6</ele>
        <time>2022-08-27T23:07:23Z</time>
      </trkpt>
      <trkpt lat="47.68382" lon="-1.18673">
        <ele>44.6</ele>
        <time>2022-08-27T23:07:27Z</time>
      </trkpt>
      <trkpt lat="47.68375" lon="-1.18673">
        <ele>45.2</ele>
        <time>2022-08-27T23:07:29Z</time>
      </trkpt>
      <trkpt lat="47.68371" lon="-1.18672">
        <ele>45.2</ele>
        <time>2022-08-27T23:07:30Z</time>
      </trkpt>
      <trkpt lat="47.68367" lon="-1.18671">
        <ele>45.4</ele>
        <time>2022-08-27T23:07:31Z</time>
      </trkpt>
      <trkpt lat="47.68359" lon="-1.18664">
        <ele>45.8</ele>
        <time>2022-08-27T23:07:33Z</time>
      </trkpt>
      <trkpt lat="47.68354" lon="-1.18661">
        <ele>45.8</ele>
        <time>2022-08-27T23:07:34Z</time>
      </trkpt>
      <trkpt lat="47.68342" lon="-1.18655">
        <ele>46</ele>
        <time>2022-08-27T23:07:37Z</time>
      </trkpt>
      <trkpt lat="47.68337" lon="-1.18653">
        <ele>46</ele>
        <time>2022-08-27T23:07:39Z</time>
      </trkpt>
      <trkpt lat="47.68335" lon="-1.18651">
        <ele>46.2</ele>
        <time>2022-08-27T23:07:40Z</time>
      </trkpt>
      <trkpt lat="47.6833" lon="-1.18645">
        <ele>46.2</ele>
        <time>2022-08-27T23:07:42Z</time>
      </trkpt>
      <trkpt lat="47.68325" lon="-1.18641">
        <ele>46</ele>
        <time>2022-08-27T23:07:43Z</time>
      </trkpt>
      <trkpt lat="47.68321" lon="-1.18638">
        <ele>46</ele>
        <time>2022-08-27T23:07:44Z</time>
      </trkpt>
      <trkpt lat="47.6832" lon="-1.1863">
        <ele>45.8</ele>
        <time>2022-08-27T23:07:46Z</time>
      </trkpt>
      <trkpt lat="47.68318" lon="-1.18619">
        <ele>45.6</ele>
        <time>2022-08-27T23:07:49Z</time>
      </trkpt>
      <trkpt lat="47.68316" lon="-1.18616">
        <ele>45.4</ele>
        <time>2022-08-27T23:07:50Z</time>
      </trkpt>
      <trkpt lat="47.68311" lon="-1.18595">
        <ele>44.8</ele>
        <time>2022-08-27T23:07:55Z</time>
      </trkpt>
      <trkpt lat="47.68301" lon="-1.18583">
        <ele>45.8</ele>
        <time>2022-08-27T23:07:59Z</time>
      </trkpt>
      <trkpt lat="47.68288" lon="-1.18571">
        <ele>46.8</ele>
        <time>2022-08-27T23:08:05Z</time>
      </trkpt>
      <trkpt lat="47.68278" lon="-1.18564">
        <ele>47.2</ele>
        <time>2022-08-27T23:08:10Z</time>
      </trkpt>
      <trkpt lat="47.68276" lon="-1.18557">
        <ele>47.6</ele>
        <time>2022-08-27T23:08:14Z</time>
      </trkpt>
      <trkpt lat="47.68271" lon="-1.18551">
        <ele>47.8</ele>
        <time>2022-08-27T23:08:19Z</time>
      </trkpt>
      <trkpt lat="47.68255" lon="-1.18547">
        <ele>51.2</ele>
        <time>2022-08-27T23:08:54Z</time>
      </trkpt>
      <trkpt lat="47.68248" lon="-1.18546">
        <ele>51.6</ele>
        <time>2022-08-27T23:08:57Z</time>
      </trkpt>
      <trkpt lat="47.68237" lon="-1.18542">
        <ele>52.4</ele>
        <time>2022-08-27T23:09:03Z</time>
      </trkpt>
      <trkpt lat="47.68225" lon="-1.1854">
        <ele>53.4</ele>
        <time>2022-08-27T23:09:09Z</time>
      </trkpt>
      <trkpt lat="47.68215" lon="-1.1854">
        <ele>54</ele>
        <time>2022-08-27T23:09:14Z</time>
      </trkpt>
      <trkpt lat="47.68213" lon="-1.18539">
        <ele>54</ele>
        <time>2022-08-27T23:09:15Z</time>
      </trkpt>
      <trkpt lat="47.68203" lon="-1.18536">
        <ele>54.8</ele>
        <time>2022-08-27T23:09:20Z</time>
      </trkpt>
      <trkpt lat="47.68194" lon="-1.18535">
        <ele>55.6</ele>
        <time>2022-08-27T23:09:26Z</time>
      </trkpt>
      <trkpt lat="47.68188" lon="-1.18535">
        <ele>56.6</ele>
        <time>2022-08-27T23:09:31Z</time>
      </trkpt>
      <trkpt lat="47.68176" lon="-1.18533">
        <ele>57.4</ele>
        <time>2022-08-27T23:09:37Z</time>
      </trkpt>
      <trkpt lat="47.68162" lon="-1.18529">
        <ele>58.6</ele>
        <time>2022-08-27T23:09:44Z</time>
      </trkpt>
      <trkpt lat="47.68142" lon="-1.18524">
        <ele>60.6</ele>
        <time>2022-08-27T23:09:52Z</time>
      </trkpt>
      <trkpt lat="47.68121" lon="-1.1852">
        <ele>62.4</ele>
        <time>2022-08-27T23:10:00Z</time>
      </trkpt>
      <trkpt lat="47.68104" lon="-1.18517">
        <ele>63.6</ele>
        <time>2022-08-27T23:10:06Z</time>
      </trkpt>
      <trkpt lat="47.68079" lon="-1.18513">
        <ele>65.4</ele>
        <time>2022-08-27T23:10:14Z</time>
      </trkpt>
      <trkpt lat="47.68058" lon="-1.18511">
        <ele>66.8</ele>
        <time>2022-08-27T23:10:21Z</time>
      </trkpt>
      <trkpt lat="47.68039" lon="-1.18507">
        <ele>68</ele>
        <time>2022-08-27T23:10:28Z</time>
      </trkpt>
      <trkpt lat="47.68038" lon="-1.18508">
        <ele>68.2</ele>
        <time>2022-08-27T23:10:29Z</time>
      </trkpt>
      <trkpt lat="47.68033" lon="-1.18514">
        <ele>68.8</ele>
        <time>2022-08-27T23:10:32Z</time>
      </trkpt>
      <trkpt lat="47.68019" lon="-1.18523">
        <ele>70</ele>
        <time>2022-08-27T23:10:38Z</time>
      </trkpt>
      <trkpt lat="47.67997" lon="-1.18533">
        <ele>71</ele>
        <time>2022-08-27T23:10:45Z</time>
      </trkpt>
      <trkpt lat="47.67976" lon="-1.18546">
        <ele>71.6</ele>
        <time>2022-08-27T23:10:51Z</time>
      </trkpt>
      <trkpt lat="47.67972" lon="-1.18548">
        <ele>71.6</ele>
        <time>2022-08-27T23:10:52Z</time>
      </trkpt>
      <trkpt lat="47.67956" lon="-1.18559">
        <ele>72.2</ele>
        <time>2022-08-27T23:10:56Z</time>
      </trkpt>
      <trkpt lat="47.67951" lon="-1.18561">
        <ele>72.4</ele>
        <time>2022-08-27T23:10:57Z</time>
      </trkpt>
      <trkpt lat="47.67947" lon="-1.18562">
        <ele>72.6</ele>
        <time>2022-08-27T23:10:58Z</time>
      </trkpt>
      <trkpt lat="47.67926" lon="-1.18562">
        <ele>73</ele>
        <time>2022-08-27T23:11:02Z</time>
      </trkpt>
      <trkpt lat="47.67922" lon="-1.18561">
        <ele>73</ele>
        <time>2022-08-27T23:11:03Z</time>
      </trkpt>
      <trkpt lat="47.67915" lon="-1.18559">
        <ele>73</ele>
        <time>2022-08-27T23:11:05Z</time>
      </trkpt>
      <trkpt lat="47.67902" lon="-1.18547">
        <ele>73.2</ele>
        <time>2022-08-27T23:11:09Z</time>
      </trkpt>
      <trkpt lat="47.67897" lon="-1.18545">
        <ele>73.2</ele>
        <time>2022-08-27T23:11:10Z</time>
      </trkpt>
      <trkpt lat="47.67891" lon="-1.18542">
        <ele>73.2</ele>
        <time>2022-08-27T23:11:11Z</time>
      </trkpt>
      <trkpt lat="47.6788" lon="-1.18535">
        <ele>73.2</ele>
        <time>2022-08-27T23:11:13Z</time>
      </trkpt>
      <trkpt lat="47.67874" lon="-1.18531">
        <ele>73.2</ele>
        <time>2022-08-27T23:11:14Z</time>
      </trkpt>
      <trkpt lat="47.67859" lon="-1.18516">
        <ele>73.4</ele>
        <time>2022-08-27T23:11:17Z</time>
      </trkpt>
      <trkpt lat="47.67825" lon="-1.18485">
        <ele>73.4</ele>
        <time>2022-08-27T23:11:23Z</time>
      </trkpt>
      <trkpt lat="47.67801" lon="-1.18475">
        <ele>73.2</ele>
        <time>2022-08-27T23:11:26Z</time>
      </trkpt>
      <trkpt lat="47.67769" lon="-1.18466">
        <ele>73.4</ele>
        <time>2022-08-27T23:11:30Z</time>
      </trkpt>
      <trkpt lat="47.67737" lon="-1.18457">
        <ele>72.8</ele>
        <time>2022-08-27T23:11:35Z</time>
      </trkpt>
      <trkpt lat="47.67725" lon="-1.18461">
        <ele>72.6</ele>
        <time>2022-08-27T23:11:37Z</time>
      </trkpt>
      <trkpt lat="47.6772" lon="-1.18464">
        <ele>72.6</ele>
        <time>2022-08-27T23:11:38Z</time>
      </trkpt>
      <trkpt lat="47.67686" lon="-1.18482">
        <ele>72.2</ele>
        <time>2022-08-27T23:11:45Z</time>
      </trkpt>
      <trkpt lat="47.67682" lon="-1.18484">
        <ele>72.2</ele>
        <time>2022-08-27T23:11:46Z</time>
      </trkpt>
      <trkpt lat="47.67674" lon="-1.18482">
        <ele>72</ele>
        <time>2022-08-27T23:11:48Z</time>
      </trkpt>
      <trkpt lat="47.67669" lon="-1.18479">
        <ele>72</ele>
        <time>2022-08-27T23:11:49Z</time>
      </trkpt>
      <trkpt lat="47.67662" lon="-1.18472">
        <ele>72.2</ele>
        <time>2022-08-27T23:11:51Z</time>
      </trkpt>
      <trkpt lat="47.67649" lon="-1.18464">
        <ele>72.2</ele>
        <time>2022-08-27T23:11:54Z</time>
      </trkpt>
      <trkpt lat="47.6763" lon="-1.1845">
        <ele>72</ele>
        <time>2022-08-27T23:11:59Z</time>
      </trkpt>
      <trkpt lat="47.67626" lon="-1.18448">
        <ele>72</ele>
        <time>2022-08-27T23:12:00Z</time>
      </trkpt>
      <trkpt lat="47.67618" lon="-1.18443">
        <ele>71.8</ele>
        <time>2022-08-27T23:12:02Z</time>
      </trkpt>
      <trkpt lat="47.67611" lon="-1.18438">
        <ele>71.6</ele>
        <time>2022-08-27T23:12:04Z</time>
      </trkpt>
      <trkpt lat="47.67593" lon="-1.18423">
        <ele>71.2</ele>
        <time>2022-08-27T23:12:09Z</time>
      </trkpt>
      <trkpt lat="47.67582" lon="-1.18415">
        <ele>71</ele>
        <time>2022-08-27T23:12:12Z</time>
      </trkpt>
      <trkpt lat="47.67574" lon="-1.18412">
        <ele>70.8</ele>
        <time>2022-08-27T23:12:14Z</time>
      </trkpt>
      <trkpt lat="47.67563" lon="-1.18402">
        <ele>70.4</ele>
        <time>2022-08-27T23:12:18Z</time>
      </trkpt>
      <trkpt lat="47.67553" lon="-1.18394">
        <ele>70.2</ele>
        <time>2022-08-27T23:12:21Z</time>
      </trkpt>
      <trkpt lat="47.67549" lon="-1.18391">
        <ele>70.2</ele>
        <time>2022-08-27T23:12:22Z</time>
      </trkpt>
      <trkpt lat="47.67536" lon="-1.18381">
        <ele>69.8</ele>
        <time>2022-08-27T23:12:26Z</time>
      </trkpt>
      <trkpt lat="47.67523" lon="-1.18371">
        <ele>69.6</ele>
        <time>2022-08-27T23:12:30Z</time>
      </trkpt>
      <trkpt lat="47.67511" lon="-1.18362">
        <ele>69.2</ele>
        <time>2022-08-27T23:12:34Z</time>
      </trkpt>
      <trkpt lat="47.67502" lon="-1.18345">
        <ele>69.6</ele>
        <time>2022-08-27T23:12:39Z</time>
      </trkpt>
      <trkpt lat="47.67498" lon="-1.18342">
        <ele>69.4</ele>
        <time>2022-08-27T23:12:40Z</time>
      </trkpt>
      <trkpt lat="47.67492" lon="-1.18329">
        <ele>69.6</ele>
        <time>2022-08-27T23:12:44Z</time>
      </trkpt>
      <trkpt lat="47.67481" lon="-1.18301">
        <ele>70</ele>
        <time>2022-08-27T23:12:51Z</time>
      </trkpt>
      <trkpt lat="47.67472" lon="-1.18277">
        <ele>70.2</ele>
        <time>2022-08-27T23:12:57Z</time>
      </trkpt>
      <trkpt lat="47.67461" lon="-1.18253">
        <ele>70</ele>
        <time>2022-08-27T23:13:04Z</time>
      </trkpt>
      <trkpt lat="47.67456" lon="-1.18235">
        <ele>70</ele>
        <time>2022-08-27T23:13:09Z</time>
      </trkpt>
      <trkpt lat="47.67455" lon="-1.18231">
        <ele>70</ele>
        <time>2022-08-27T23:13:10Z</time>
      </trkpt>
      <trkpt lat="47.67451" lon="-1.18219">
        <ele>70.4</ele>
        <time>2022-08-27T23:13:13Z</time>
      </trkpt>
      <trkpt lat="47.67448" lon="-1.182">
        <ele>70.4</ele>
        <time>2022-08-27T23:13:18Z</time>
      </trkpt>
      <trkpt lat="47.67434" lon="-1.18179">
        <ele>71</ele>
        <time>2022-08-27T23:13:25Z</time>
      </trkpt>
      <trkpt lat="47.67414" lon="-1.18168">
        <ele>71.8</ele>
        <time>2022-08-27T23:13:31Z</time>
      </trkpt>
      <trkpt lat="47.67394" lon="-1.18169">
        <ele>72.2</ele>
        <time>2022-08-27T23:13:37Z</time>
      </trkpt>
      <trkpt lat="47.67366" lon="-1.18176">
        <ele>73.2</ele>
        <time>2022-08-27T23:13:45Z</time>
      </trkpt>
      <trkpt lat="47.67338" lon="-1.18181">
        <ele>74.2</ele>
        <time>2022-08-27T23:13:52Z</time>
      </trkpt>
      <trkpt lat="47.67312" lon="-1.18188">
        <ele>75.2</ele>
        <time>2022-08-27T23:13:59Z</time>
      </trkpt>
      <trkpt lat="47.67285" lon="-1.18192">
        <ele>75.8</ele>
        <time>2022-08-27T23:14:06Z</time>
      </trkpt>
      <trkpt lat="47.67251" lon="-1.18194">
        <ele>76.4</ele>
        <time>2022-08-27T23:14:14Z</time>
      </trkpt>
      <trkpt lat="47.67204" lon="-1.18191">
        <ele>77.6</ele>
        <time>2022-08-27T23:14:25Z</time>
      </trkpt>
      <trkpt lat="47.67165" lon="-1.1819">
        <ele>78.4</ele>
        <time>2022-08-27T23:14:33Z</time>
      </trkpt>
      <trkpt lat="47.67127" lon="-1.18187">
        <ele>78.8</ele>
        <time>2022-08-27T23:14:40Z</time>
      </trkpt>
      <trkpt lat="47.67089" lon="-1.18178">
        <ele>79.2</ele>
        <time>2022-08-27T23:14:47Z</time>
      </trkpt>
      <trkpt lat="47.67078" lon="-1.18175">
        <ele>79.2</ele>
        <time>2022-08-27T23:14:49Z</time>
      </trkpt>
      <trkpt lat="47.67063" lon="-1.18168">
        <ele>79.4</ele>
        <time>2022-08-27T23:14:52Z</time>
      </trkpt>
      <trkpt lat="47.67023" lon="-1.18156">
        <ele>79.6</ele>
        <time>2022-08-27T23:14:59Z</time>
      </trkpt>
      <trkpt lat="47.66988" lon="-1.18141">
        <ele>79.4</ele>
        <time>2022-08-27T23:15:05Z</time>
      </trkpt>
      <trkpt lat="47.66946" lon="-1.18126">
        <ele>79</ele>
        <time>2022-08-27T23:15:11Z</time>
      </trkpt>
      <trkpt lat="47.66898" lon="-1.18111">
        <ele>78.6</ele>
        <time>2022-08-27T23:15:17Z</time>
      </trkpt>
      <trkpt lat="47.6686" lon="-1.18096">
        <ele>77.8</ele>
        <time>2022-08-27T23:15:22Z</time>
      </trkpt>
      <trkpt lat="47.66853" lon="-1.18094">
        <ele>77.6</ele>
        <time>2022-08-27T23:15:23Z</time>
      </trkpt>
      <trkpt lat="47.66834" lon="-1.18084">
        <ele>77.4</ele>
        <time>2022-08-27T23:15:26Z</time>
      </trkpt>
      <trkpt lat="47.66808" lon="-1.18072">
        <ele>77</ele>
        <time>2022-08-27T23:15:31Z</time>
      </trkpt>
      <trkpt lat="47.6679" lon="-1.18065">
        <ele>76.8</ele>
        <time>2022-08-27T23:15:35Z</time>
      </trkpt>
      <trkpt lat="47.66786" lon="-1.18064">
        <ele>76.6</ele>
        <time>2022-08-27T23:15:36Z</time>
      </trkpt>
      <trkpt lat="47.66771" lon="-1.18059">
        <ele>76.2</ele>
        <time>2022-08-27T23:15:40Z</time>
      </trkpt>
      <trkpt lat="47.66767" lon="-1.18058">
        <ele>76</ele>
        <time>2022-08-27T23:15:41Z</time>
      </trkpt>
      <trkpt lat="47.66748" lon="-1.18049">
        <ele>75.6</ele>
        <time>2022-08-27T23:15:46Z</time>
      </trkpt>
      <trkpt lat="47.66721" lon="-1.1804">
        <ele>74.6</ele>
        <time>2022-08-27T23:15:53Z</time>
      </trkpt>
      <trkpt lat="47.66696" lon="-1.18041">
        <ele>74.2</ele>
        <time>2022-08-27T23:15:59Z</time>
      </trkpt>
      <trkpt lat="47.66666" lon="-1.18041">
        <ele>74</ele>
        <time>2022-08-27T23:16:06Z</time>
      </trkpt>
      <trkpt lat="47.66645" lon="-1.18037">
        <ele>73.4</ele>
        <time>2022-08-27T23:16:10Z</time>
      </trkpt>
      <trkpt lat="47.66634" lon="-1.18032">
        <ele>73.2</ele>
        <time>2022-08-27T23:16:12Z</time>
      </trkpt>
      <trkpt lat="47.66609" lon="-1.18021">
        <ele>72.8</ele>
        <time>2022-08-27T23:16:16Z</time>
      </trkpt>
      <trkpt lat="47.66583" lon="-1.18006">
        <ele>72.4</ele>
        <time>2022-08-27T23:16:20Z</time>
      </trkpt>
      <trkpt lat="47.66536" lon="-1.17978">
        <ele>71.8</ele>
        <time>2022-08-27T23:16:26Z</time>
      </trkpt>
      <trkpt lat="47.66512" lon="-1.17969">
        <ele>71.6</ele>
        <time>2022-08-27T23:16:29Z</time>
      </trkpt>
      <trkpt lat="47.66504" lon="-1.17969">
        <ele>71.4</ele>
        <time>2022-08-27T23:16:30Z</time>
      </trkpt>
      <trkpt lat="47.66497" lon="-1.17973">
        <ele>71.2</ele>
        <time>2022-08-27T23:16:31Z</time>
      </trkpt>
      <trkpt lat="47.66489" lon="-1.1798">
        <ele>71</ele>
        <time>2022-08-27T23:16:32Z</time>
      </trkpt>
      <trkpt lat="47.66483" lon="-1.17989">
        <ele>71</ele>
        <time>2022-08-27T23:16:33Z</time>
      </trkpt>
      <trkpt lat="47.66471" lon="-1.18008">
        <ele>70.8</ele>
        <time>2022-08-27T23:16:35Z</time>
      </trkpt>
      <trkpt lat="47.66466" lon="-1.18017">
        <ele>70.6</ele>
        <time>2022-08-27T23:16:36Z</time>
      </trkpt>
      <trkpt lat="47.66459" lon="-1.18033">
        <ele>70.6</ele>
        <time>2022-08-27T23:16:38Z</time>
      </trkpt>
      <trkpt lat="47.66448" lon="-1.18045">
        <ele>70.2</ele>
        <time>2022-08-27T23:16:40Z</time>
      </trkpt>
      <trkpt lat="47.66435" lon="-1.1805">
        <ele>70</ele>
        <time>2022-08-27T23:16:42Z</time>
      </trkpt>
      <trkpt lat="47.66429" lon="-1.1805">
        <ele>70</ele>
        <time>2022-08-27T23:16:43Z</time>
      </trkpt>
      <trkpt lat="47.66417" lon="-1.18048">
        <ele>70</ele>
        <time>2022-08-27T23:16:45Z</time>
      </trkpt>
      <trkpt lat="47.66401" lon="-1.18043">
        <ele>70</ele>
        <time>2022-08-27T23:16:48Z</time>
      </trkpt>
      <trkpt lat="47.66391" lon="-1.18039">
        <ele>70</ele>
        <time>2022-08-27T23:16:50Z</time>
      </trkpt>
      <trkpt lat="47.66378" lon="-1.18035">
        <ele>70</ele>
        <time>2022-08-27T23:16:53Z</time>
      </trkpt>
      <trkpt lat="47.66352" lon="-1.18027">
        <ele>70.2</ele>
        <time>2022-08-27T23:17:00Z</time>
      </trkpt>
      <trkpt lat="47.66325" lon="-1.18018">
        <ele>69.8</ele>
        <time>2022-08-27T23:17:08Z</time>
      </trkpt>
      <trkpt lat="47.66308" lon="-1.18015">
        <ele>69.8</ele>
        <time>2022-08-27T23:17:14Z</time>
      </trkpt>
      <trkpt lat="47.66289" lon="-1.18014">
        <ele>70</ele>
        <time>2022-08-27T23:17:20Z</time>
      </trkpt>
      <trkpt lat="47.6627" lon="-1.18012">
        <ele>71.2</ele>
        <time>2022-08-27T23:17:27Z</time>
      </trkpt>
      <trkpt lat="47.6625" lon="-1.18009">
        <ele>71.6</ele>
        <time>2022-08-27T23:17:34Z</time>
      </trkpt>
      <trkpt lat="47.66228" lon="-1.18004">
        <ele>72.2</ele>
        <time>2022-08-27T23:17:41Z</time>
      </trkpt>
      <trkpt lat="47.66213" lon="-1.17986">
        <ele>72.8</ele>
        <time>2022-08-27T23:17:47Z</time>
      </trkpt>
      <trkpt lat="47.6621" lon="-1.17983">
        <ele>72.8</ele>
        <time>2022-08-27T23:17:48Z</time>
      </trkpt>
      <trkpt lat="47.66204" lon="-1.17976">
        <ele>73</ele>
        <time>2022-08-27T23:17:50Z</time>
      </trkpt>
      <trkpt lat="47.66183" lon="-1.17957">
        <ele>73.8</ele>
        <time>2022-08-27T23:17:56Z</time>
      </trkpt>
      <trkpt lat="47.66172" lon="-1.17948">
        <ele>74</ele>
        <time>2022-08-27T23:17:59Z</time>
      </trkpt>
      <trkpt lat="47.66165" lon="-1.17943">
        <ele>74.4</ele>
        <time>2022-08-27T23:18:01Z</time>
      </trkpt>
      <trkpt lat="47.66161" lon="-1.17941">
        <ele>74.6</ele>
        <time>2022-08-27T23:18:02Z</time>
      </trkpt>
      <trkpt lat="47.66157" lon="-1.1794">
        <ele>74.6</ele>
        <time>2022-08-27T23:18:03Z</time>
      </trkpt>
      <trkpt lat="47.66139" lon="-1.17934">
        <ele>75</ele>
        <time>2022-08-27T23:18:07Z</time>
      </trkpt>
      <trkpt lat="47.66109" lon="-1.17929">
        <ele>75.4</ele>
        <time>2022-08-27T23:18:13Z</time>
      </trkpt>
      <trkpt lat="47.66077" lon="-1.17925">
        <ele>76</ele>
        <time>2022-08-27T23:18:19Z</time>
      </trkpt>
      <trkpt lat="47.66043" lon="-1.17918">
        <ele>76.2</ele>
        <time>2022-08-27T23:18:25Z</time>
      </trkpt>
      <trkpt lat="47.66019" lon="-1.17915">
        <ele>76.2</ele>
        <time>2022-08-27T23:18:29Z</time>
      </trkpt>
      <trkpt lat="47.66008" lon="-1.17913">
        <ele>76.2</ele>
        <time>2022-08-27T23:18:31Z</time>
      </trkpt>
      <trkpt lat="47.65973" lon="-1.17905">
        <ele>76.2</ele>
        <time>2022-08-27T23:18:37Z</time>
      </trkpt>
      <trkpt lat="47.65957" lon="-1.17898">
        <ele>76.2</ele>
        <time>2022-08-27T23:18:40Z</time>
      </trkpt>
      <trkpt lat="47.65947" lon="-1.17891">
        <ele>76.2</ele>
        <time>2022-08-27T23:18:42Z</time>
      </trkpt>
      <trkpt lat="47.65943" lon="-1.17887">
        <ele>76.2</ele>
        <time>2022-08-27T23:18:43Z</time>
      </trkpt>
      <trkpt lat="47.65912" lon="-1.17855">
        <ele>76</ele>
        <time>2022-08-27T23:18:50Z</time>
      </trkpt>
      <trkpt lat="47.65902" lon="-1.17847">
        <ele>75.8</ele>
        <time>2022-08-27T23:18:52Z</time>
      </trkpt>
      <trkpt lat="47.65894" lon="-1.1784">
        <ele>75.6</ele>
        <time>2022-08-27T23:18:54Z</time>
      </trkpt>
      <trkpt lat="47.6589" lon="-1.17836">
        <ele>75.6</ele>
        <time>2022-08-27T23:18:55Z</time>
      </trkpt>
      <trkpt lat="47.65882" lon="-1.17828">
        <ele>75.4</ele>
        <time>2022-08-27T23:18:57Z</time>
      </trkpt>
      <trkpt lat="47.65863" lon="-1.17809">
        <ele>75</ele>
        <time>2022-08-27T23:19:02Z</time>
      </trkpt>
      <trkpt lat="47.65854" lon="-1.17803">
        <ele>74.8</ele>
        <time>2022-08-27T23:19:05Z</time>
      </trkpt>
      <trkpt lat="47.65847" lon="-1.178">
        <ele>74.6</ele>
        <time>2022-08-27T23:19:07Z</time>
      </trkpt>
      <trkpt lat="47.65844" lon="-1.17798">
        <ele>74.6</ele>
        <time>2022-08-27T23:19:09Z</time>
      </trkpt>
      <trkpt lat="47.65837" lon="-1.17794">
        <ele>74.4</ele>
        <time>2022-08-27T23:19:12Z</time>
      </trkpt>
      <trkpt lat="47.65833" lon="-1.17791">
        <ele>74.2</ele>
        <time>2022-08-27T23:19:14Z</time>
      </trkpt>
      <trkpt lat="47.65826" lon="-1.17787">
        <ele>73.8</ele>
        <time>2022-08-27T23:19:19Z</time>
      </trkpt>
      <trkpt lat="47.65822" lon="-1.17785">
        <ele>73.4</ele>
        <time>2022-08-27T23:19:21Z</time>
      </trkpt>
      <trkpt lat="47.65817" lon="-1.17782">
        <ele>73.2</ele>
        <time>2022-08-27T23:19:23Z</time>
      </trkpt>
      <trkpt lat="47.65804" lon="-1.17773">
        <ele>73.4</ele>
        <time>2022-08-27T23:19:29Z</time>
      </trkpt>
      <trkpt lat="47.658" lon="-1.17767">
        <ele>73.6</ele>
        <time>2022-08-27T23:19:31Z</time>
      </trkpt>
      <trkpt lat="47.65792" lon="-1.17759">
        <ele>73</ele>
        <time>2022-08-27T23:19:35Z</time>
      </trkpt>
      <trkpt lat="47.65781" lon="-1.17746">
        <ele>74.2</ele>
        <time>2022-08-27T23:19:41Z</time>
      </trkpt>
      <trkpt lat="47.65769" lon="-1.17733">
        <ele>74.6</ele>
        <time>2022-08-27T23:19:47Z</time>
      </trkpt>
      <trkpt lat="47.65759" lon="-1.17723">
        <ele>74.2</ele>
        <time>2022-08-27T23:19:53Z</time>
      </trkpt>
      <trkpt lat="47.65749" lon="-1.17713">
        <ele>73</ele>
        <time>2022-08-27T23:19:58Z</time>
      </trkpt>
      <trkpt lat="47.65739" lon="-1.17704">
        <ele>73.2</ele>
        <time>2022-08-27T23:20:03Z</time>
      </trkpt>
      <trkpt lat="47.65724" lon="-1.17695">
        <ele>73</ele>
        <time>2022-08-27T23:20:09Z</time>
      </trkpt>
      <trkpt lat="47.65709" lon="-1.17684">
        <ele>73.2</ele>
        <time>2022-08-27T23:20:15Z</time>
      </trkpt>
      <trkpt lat="47.65689" lon="-1.17671">
        <ele>73.6</ele>
        <time>2022-08-27T23:20:22Z</time>
      </trkpt>
      <trkpt lat="47.65671" lon="-1.17658">
        <ele>74</ele>
        <time>2022-08-27T23:20:28Z</time>
      </trkpt>
      <trkpt lat="47.65644" lon="-1.17646">
        <ele>75.2</ele>
        <time>2022-08-27T23:20:34Z</time>
      </trkpt>
      <trkpt lat="47.6563" lon="-1.1764">
        <ele>75.8</ele>
        <time>2022-08-27T23:20:38Z</time>
      </trkpt>
      <trkpt lat="47.65606" lon="-1.17629">
        <ele>76.4</ele>
        <time>2022-08-27T23:20:45Z</time>
      </trkpt>
      <trkpt lat="47.65584" lon="-1.1762">
        <ele>77</ele>
        <time>2022-08-27T23:20:51Z</time>
      </trkpt>
      <trkpt lat="47.65567" lon="-1.17615">
        <ele>77.2</ele>
        <time>2022-08-27T23:20:55Z</time>
      </trkpt>
      <trkpt lat="47.65559" lon="-1.17607">
        <ele>77.6</ele>
        <time>2022-08-27T23:20:59Z</time>
      </trkpt>
      <trkpt lat="47.65559" lon="-1.17606">
        <ele>77.6</ele>
        <time>2022-08-27T23:21:00Z</time>
      </trkpt>
      <trkpt lat="47.65555" lon="-1.1759">
        <ele>82</ele>
        <time>2022-08-27T23:22:07Z</time>
      </trkpt>
      <trkpt lat="47.65555" lon="-1.17587">
        <ele>82.2</ele>
        <time>2022-08-27T23:22:08Z</time>
      </trkpt>
      <trkpt lat="47.65551" lon="-1.17573">
        <ele>82.2</ele>
        <time>2022-08-27T23:22:12Z</time>
      </trkpt>
      <trkpt lat="47.6555" lon="-1.17569">
        <ele>82.2</ele>
        <time>2022-08-27T23:22:13Z</time>
      </trkpt>
      <trkpt lat="47.6555" lon="-1.17565">
        <ele>82.2</ele>
        <time>2022-08-27T23:22:14Z</time>
      </trkpt>
      <trkpt lat="47.6555" lon="-1.17548">
        <ele>82.4</ele>
        <time>2022-08-27T23:22:17Z</time>
      </trkpt>
      <trkpt lat="47.65552" lon="-1.17529">
        <ele>82.4</ele>
        <time>2022-08-27T23:22:21Z</time>
      </trkpt>
      <trkpt lat="47.65552" lon="-1.17526">
        <ele>82.4</ele>
        <time>2022-08-27T23:22:22Z</time>
      </trkpt>
      <trkpt lat="47.6555" lon="-1.17511">
        <ele>82.6</ele>
        <time>2022-08-27T23:22:25Z</time>
      </trkpt>
      <trkpt lat="47.6555" lon="-1.17506">
        <ele>82.6</ele>
        <time>2022-08-27T23:22:26Z</time>
      </trkpt>
      <trkpt lat="47.65551" lon="-1.17481">
        <ele>82.8</ele>
        <time>2022-08-27T23:22:31Z</time>
      </trkpt>
      <trkpt lat="47.65552" lon="-1.17441">
        <ele>82</ele>
        <time>2022-08-27T23:22:39Z</time>
      </trkpt>
      <trkpt lat="47.65552" lon="-1.17407">
        <ele>81.4</ele>
        <time>2022-08-27T23:22:46Z</time>
      </trkpt>
      <trkpt lat="47.65551" lon="-1.17375">
        <ele>81.2</ele>
        <time>2022-08-27T23:22:53Z</time>
      </trkpt>
      <trkpt lat="47.6555" lon="-1.17341">
        <ele>80.6</ele>
        <time>2022-08-27T23:23:00Z</time>
      </trkpt>
      <trkpt lat="47.6555" lon="-1.17307">
        <ele>80</ele>
        <time>2022-08-27T23:23:07Z</time>
      </trkpt>
      <trkpt lat="47.65551" lon="-1.1727">
        <ele>80.4</ele>
        <time>2022-08-27T23:23:14Z</time>
      </trkpt>
      <trkpt lat="47.65551" lon="-1.17243">
        <ele>80</ele>
        <time>2022-08-27T23:23:19Z</time>
      </trkpt>
      <trkpt lat="47.6555" lon="-1.17209">
        <ele>81.2</ele>
        <time>2022-08-27T23:23:26Z</time>
      </trkpt>
      <trkpt lat="47.65543" lon="-1.17185">
        <ele>81</ele>
        <time>2022-08-27T23:23:32Z</time>
      </trkpt>
      <trkpt lat="47.65528" lon="-1.1718">
        <ele>81</ele>
        <time>2022-08-27T23:23:37Z</time>
      </trkpt>
      <trkpt lat="47.65516" lon="-1.17176">
        <ele>79.8</ele>
        <time>2022-08-27T23:23:41Z</time>
      </trkpt>
      <trkpt lat="47.65502" lon="-1.17171">
        <ele>80.4</ele>
        <time>2022-08-27T23:23:46Z</time>
      </trkpt>
      <trkpt lat="47.6548" lon="-1.17164">
        <ele>80</ele>
        <time>2022-08-27T23:23:52Z</time>
      </trkpt>
      <trkpt lat="47.65456" lon="-1.17154">
        <ele>79</ele>
        <time>2022-08-27T23:23:58Z</time>
      </trkpt>
      <trkpt lat="47.65452" lon="-1.17154">
        <ele>79</ele>
        <time>2022-08-27T23:23:59Z</time>
      </trkpt>
      <trkpt lat="47.65445" lon="-1.17151">
        <ele>78.6</ele>
        <time>2022-08-27T23:24:01Z</time>
      </trkpt>
      <trkpt lat="47.65426" lon="-1.17145">
        <ele>77.2</ele>
        <time>2022-08-27T23:24:06Z</time>
      </trkpt>
      <trkpt lat="47.65405" lon="-1.17139">
        <ele>75.8</ele>
        <time>2022-08-27T23:24:12Z</time>
      </trkpt>
      <trkpt lat="47.65385" lon="-1.17137">
        <ele>75.2</ele>
        <time>2022-08-27T23:24:17Z</time>
      </trkpt>
      <trkpt lat="47.65367" lon="-1.17131">
        <ele>74</ele>
        <time>2022-08-27T23:24:22Z</time>
      </trkpt>
      <trkpt lat="47.65343" lon="-1.17119">
        <ele>72.8</ele>
        <time>2022-08-27T23:24:30Z</time>
      </trkpt>
      <trkpt lat="47.65329" lon="-1.17108">
        <ele>71.2</ele>
        <time>2022-08-27T23:24:36Z</time>
      </trkpt>
      <trkpt lat="47.65316" lon="-1.17097">
        <ele>69</ele>
        <time>2022-08-27T23:24:42Z</time>
      </trkpt>
      <trkpt lat="47.65292" lon="-1.17089">
        <ele>67.4</ele>
        <time>2022-08-27T23:24:49Z</time>
      </trkpt>
      <trkpt lat="47.65269" lon="-1.17085">
        <ele>66.8</ele>
        <time>2022-08-27T23:24:55Z</time>
      </trkpt>
      <trkpt lat="47.65251" lon="-1.17078">
        <ele>65.4</ele>
        <time>2022-08-27T23:25:00Z</time>
      </trkpt>
      <trkpt lat="47.65237" lon="-1.17063">
        <ele>64.6</ele>
        <time>2022-08-27T23:25:05Z</time>
      </trkpt>
      <trkpt lat="47.65235" lon="-1.17059">
        <ele>64.6</ele>
        <time>2022-08-27T23:25:06Z</time>
      </trkpt>
      <trkpt lat="47.65223" lon="-1.17033">
        <ele>64.4</ele>
        <time>2022-08-27T23:25:11Z</time>
      </trkpt>
      <trkpt lat="47.65216" lon="-1.17011">
        <ele>64.2</ele>
        <time>2022-08-27T23:25:16Z</time>
      </trkpt>
      <trkpt lat="47.65215" lon="-1.1701">
        <ele>64</ele>
        <time>2022-08-27T23:25:18Z</time>
      </trkpt>
      <trkpt lat="47.65215" lon="-1.17008">
        <ele>63.6</ele>
        <time>2022-08-27T23:25:27Z</time>
      </trkpt>
      <trkpt lat="47.6521" lon="-1.17032">
        <ele>64.6</ele>
        <time>2022-08-27T23:25:33Z</time>
      </trkpt>
      <trkpt lat="47.65213" lon="-1.17058">
        <ele>66</ele>
        <time>2022-08-27T23:25:39Z</time>
      </trkpt>
      <trkpt lat="47.65217" lon="-1.17078">
        <ele>67.2</ele>
        <time>2022-08-27T23:25:45Z</time>
      </trkpt>
      <trkpt lat="47.65216" lon="-1.17084">
        <ele>67.2</ele>
        <time>2022-08-27T23:25:48Z</time>
      </trkpt>
      <trkpt lat="47.65213" lon="-1.17086">
        <ele>67.2</ele>
        <time>2022-08-27T23:25:50Z</time>
      </trkpt>
      <trkpt lat="47.65212" lon="-1.17087">
        <ele>67.4</ele>
        <time>2022-08-27T23:25:51Z</time>
      </trkpt>
      <trkpt lat="47.65209" lon="-1.17085">
        <ele>67.4</ele>
        <time>2022-08-27T23:25:54Z</time>
      </trkpt>
      <trkpt lat="47.65207" lon="-1.17085">
        <ele>67.6</ele>
        <time>2022-08-27T23:25:55Z</time>
      </trkpt>
      <trkpt lat="47.65206" lon="-1.17084">
        <ele>67.6</ele>
        <time>2022-08-27T23:25:56Z</time>
      </trkpt>
      <trkpt lat="47.65197" lon="-1.17081">
        <ele>67.8</ele>
        <time>2022-08-27T23:26:00Z</time>
      </trkpt>
      <trkpt lat="47.65184" lon="-1.17081">
        <ele>68.6</ele>
        <time>2022-08-27T23:26:05Z</time>
      </trkpt>
      <trkpt lat="47.65167" lon="-1.17079">
        <ele>69.4</ele>
        <time>2022-08-27T23:26:10Z</time>
      </trkpt>
      <trkpt lat="47.65147" lon="-1.1707">
        <ele>70</ele>
        <time>2022-08-27T23:26:16Z</time>
      </trkpt>
      <trkpt lat="47.6513" lon="-1.17066">
        <ele>70.2</ele>
        <time>2022-08-27T23:26:22Z</time>
      </trkpt>
      <trkpt lat="47.6511" lon="-1.17062">
        <ele>70.2</ele>
        <time>2022-08-27T23:26:28Z</time>
      </trkpt>
      <trkpt lat="47.65097" lon="-1.17058">
        <ele>69.8</ele>
        <time>2022-08-27T23:26:32Z</time>
      </trkpt>
      <trkpt lat="47.65082" lon="-1.17055">
        <ele>68.8</ele>
        <time>2022-08-27T23:26:37Z</time>
      </trkpt>
      <trkpt lat="47.6507" lon="-1.17052">
        <ele>67.6</ele>
        <time>2022-08-27T23:26:41Z</time>
      </trkpt>
      <trkpt lat="47.6506" lon="-1.1705">
        <ele>65.8</ele>
        <time>2022-08-27T23:26:45Z</time>
      </trkpt>
      <trkpt lat="47.65048" lon="-1.17046">
        <ele>63.6</ele>
        <time>2022-08-27T23:26:50Z</time>
      </trkpt>
      <trkpt lat="47.65041" lon="-1.17043">
        <ele>61.8</ele>
        <time>2022-08-27T23:26:54Z</time>
      </trkpt>
      <trkpt lat="47.65031" lon="-1.1704">
        <ele>59.2</ele>
        <time>2022-08-27T23:27:00Z</time>
      </trkpt>
      <trkpt lat="47.65024" lon="-1.1704">
        <ele>57.4</ele>
        <time>2022-08-27T23:27:04Z</time>
      </trkpt>
      <trkpt lat="47.65021" lon="-1.17036">
        <ele>55.4</ele>
        <time>2022-08-27T23:27:07Z</time>
      </trkpt>
      <trkpt lat="47.65009" lon="-1.17032">
        <ele>52.6</ele>
        <time>2022-08-27T23:27:12Z</time>
      </trkpt>
      <trkpt lat="47.64999" lon="-1.17032">
        <ele>50.6</ele>
        <time>2022-08-27T23:27:16Z</time>
      </trkpt>
      <trkpt lat="47.64981" lon="-1.17031">
        <ele>47.8</ele>
        <time>2022-08-27T23:27:22Z</time>
      </trkpt>
      <trkpt lat="47.64964" lon="-1.1703">
        <ele>44.4</ele>
        <time>2022-08-27T23:27:28Z</time>
      </trkpt>
      <trkpt lat="47.64958" lon="-1.17025">
        <ele>41.8</ele>
        <time>2022-08-27T23:27:32Z</time>
      </trkpt>
      <trkpt lat="47.64945" lon="-1.17022">
        <ele>39</ele>
        <time>2022-08-27T23:27:37Z</time>
      </trkpt>
      <trkpt lat="47.64941" lon="-1.17014">
        <ele>35.2</ele>
        <time>2022-08-27T23:27:43Z</time>
      </trkpt>
      <trkpt lat="47.64941" lon="-1.17012">
        <ele>34</ele>
        <time>2022-08-27T23:27:45Z</time>
      </trkpt>
      <trkpt lat="47.64961" lon="-1.16996">
        <ele>-0.19999999999999</ele>
        <time>2022-08-27T23:29:36Z</time>
      </trkpt>
      <trkpt lat="47.64959" lon="-1.16994">
        <ele>-0.39999999999998</ele>
        <time>2022-08-27T23:29:37Z</time>
      </trkpt>
      <trkpt lat="47.64957" lon="-1.1699">
        <ele>-0.60000000000002</ele>
        <time>2022-08-27T23:29:38Z</time>
      </trkpt>
      <trkpt lat="47.64956" lon="-1.16982">
        <ele>-1</ele>
        <time>2022-08-27T23:29:40Z</time>
      </trkpt>
      <trkpt lat="47.64955" lon="-1.16978">
        <ele>-1</ele>
        <time>2022-08-27T23:29:41Z</time>
      </trkpt>
      <trkpt lat="47.64944" lon="-1.16958">
        <ele>-2</ele>
        <time>2022-08-27T23:29:47Z</time>
      </trkpt>
      <trkpt lat="47.64933" lon="-1.16946">
        <ele>-1</ele>
        <time>2022-08-27T23:29:51Z</time>
      </trkpt>
      <trkpt lat="47.64917" lon="-1.16921">
        <ele>2.2</ele>
        <time>2022-08-27T23:29:57Z</time>
      </trkpt>
      <trkpt lat="47.6491" lon="-1.16907">
        <ele>4</ele>
        <time>2022-08-27T23:30:01Z</time>
      </trkpt>
      <trkpt lat="47.64892" lon="-1.16907">
        <ele>5.6</ele>
        <time>2022-08-27T23:30:05Z</time>
      </trkpt>
      <trkpt lat="47.64881" lon="-1.16908">
        <ele>6.4</ele>
        <time>2022-08-27T23:30:07Z</time>
      </trkpt>
      <trkpt lat="47.64859" lon="-1.16913">
        <ele>8.6</ele>
        <time>2022-08-27T23:30:11Z</time>
      </trkpt>
      <trkpt lat="47.64848" lon="-1.16917">
        <ele>9.8</ele>
        <time>2022-08-27T23:30:13Z</time>
      </trkpt>
      <trkpt lat="47.64838" lon="-1.1692">
        <ele>10.6</ele>
        <time>2022-08-27T23:30:15Z</time>
      </trkpt>
      <trkpt lat="47.64804" lon="-1.16929">
        <ele>14</ele>
        <time>2022-08-27T23:30:22Z</time>
      </trkpt>
      <trkpt lat="47.64775" lon="-1.16939">
        <ele>17.6</ele>
        <time>2022-08-27T23:30:28Z</time>
      </trkpt>
      <trkpt lat="47.6477" lon="-1.16941">
        <ele>18.2</ele>
        <time>2022-08-27T23:30:29Z</time>
      </trkpt>
      <trkpt lat="47.64736" lon="-1.16952">
        <ele>21.6</ele>
        <time>2022-08-27T23:30:36Z</time>
      </trkpt>
      <trkpt lat="47.64731" lon="-1.16954">
        <ele>22.2</ele>
        <time>2022-08-27T23:30:37Z</time>
      </trkpt>
      <trkpt lat="47.64716" lon="-1.16959">
        <ele>23.8</ele>
        <time>2022-08-27T23:30:40Z</time>
      </trkpt>
      <trkpt lat="47.64701" lon="-1.16964">
        <ele>25.4</ele>
        <time>2022-08-27T23:30:43Z</time>
      </trkpt>
      <trkpt lat="47.64686" lon="-1.1697">
        <ele>27.2</ele>
        <time>2022-08-27T23:30:46Z</time>
      </trkpt>
      <trkpt lat="47.64663" lon="-1.16977">
        <ele>30</ele>
        <time>2022-08-27T23:30:50Z</time>
      </trkpt>
      <trkpt lat="47.64618" lon="-1.16996">
        <ele>35.6</ele>
        <time>2022-08-27T23:30:58Z</time>
      </trkpt>
      <trkpt lat="47.64587" lon="-1.17007">
        <ele>39.4</ele>
        <time>2022-08-27T23:31:04Z</time>
      </trkpt>
      <trkpt lat="47.64548" lon="-1.1702">
        <ele>43.8</ele>
        <time>2022-08-27T23:31:12Z</time>
      </trkpt>
      <trkpt lat="47.64511" lon="-1.17033">
        <ele>48.4</ele>
        <time>2022-08-27T23:31:20Z</time>
      </trkpt>
      <trkpt lat="47.64496" lon="-1.17038">
        <ele>50</ele>
        <time>2022-08-27T23:31:23Z</time>
      </trkpt>
      <trkpt lat="47.64476" lon="-1.17045">
        <ele>52</ele>
        <time>2022-08-27T23:31:27Z</time>
      </trkpt>
      <trkpt lat="47.64448" lon="-1.17054">
        <ele>55</ele>
        <time>2022-08-27T23:31:33Z</time>
      </trkpt>
      <trkpt lat="47.6444" lon="-1.17056">
        <ele>56</ele>
        <time>2022-08-27T23:31:35Z</time>
      </trkpt>
      <trkpt lat="47.64422" lon="-1.17063">
        <ele>57.6</ele>
        <time>2022-08-27T23:31:39Z</time>
      </trkpt>
      <trkpt lat="47.64385" lon="-1.17077">
        <ele>61</ele>
        <time>2022-08-27T23:31:47Z</time>
      </trkpt>
      <trkpt lat="47.64356" lon="-1.17087">
        <ele>63.8</ele>
        <time>2022-08-27T23:31:54Z</time>
      </trkpt>
      <trkpt lat="47.64335" lon="-1.17094">
        <ele>65.8</ele>
        <time>2022-08-27T23:31:59Z</time>
      </trkpt>
      <trkpt lat="47.64322" lon="-1.17098">
        <ele>67</ele>
        <time>2022-08-27T23:32:02Z</time>
      </trkpt>
      <trkpt lat="47.64284" lon="-1.17113">
        <ele>70</ele>
        <time>2022-08-27T23:32:11Z</time>
      </trkpt>
      <trkpt lat="47.64254" lon="-1.17119">
        <ele>72</ele>
        <time>2022-08-27T23:32:18Z</time>
      </trkpt>
      <trkpt lat="47.64225" lon="-1.17114">
        <ele>73.8</ele>
        <time>2022-08-27T23:32:24Z</time>
      </trkpt>
      <trkpt lat="47.64215" lon="-1.17111">
        <ele>74.2</ele>
        <time>2022-08-27T23:32:26Z</time>
      </trkpt>
      <trkpt lat="47.6419" lon="-1.17097">
        <ele>75.4</ele>
        <time>2022-08-27T23:32:31Z</time>
      </trkpt>
      <trkpt lat="47.64164" lon="-1.17089">
        <ele>76.6</ele>
        <time>2022-08-27T23:32:36Z</time>
      </trkpt>
      <trkpt lat="47.64153" lon="-1.17088">
        <ele>77</ele>
        <time>2022-08-27T23:32:38Z</time>
      </trkpt>
      <trkpt lat="47.6412" lon="-1.17097">
        <ele>78.2</ele>
        <time>2022-08-27T23:32:44Z</time>
      </trkpt>
      <trkpt lat="47.64081" lon="-1.17114">
        <ele>79.4</ele>
        <time>2022-08-27T23:32:51Z</time>
      </trkpt>
      <trkpt lat="47.64036" lon="-1.17133">
        <ele>80.6</ele>
        <time>2022-08-27T23:32:59Z</time>
      </trkpt>
      <trkpt lat="47.63986" lon="-1.17155">
        <ele>81.8</ele>
        <time>2022-08-27T23:33:08Z</time>
      </trkpt>
      <trkpt lat="47.6396" lon="-1.17171">
        <ele>82.4</ele>
        <time>2022-08-27T23:33:13Z</time>
      </trkpt>
      <trkpt lat="47.63951" lon="-1.1718">
        <ele>82.6</ele>
        <time>2022-08-27T23:33:15Z</time>
      </trkpt>
      <trkpt lat="47.63926" lon="-1.17207">
        <ele>83.2</ele>
        <time>2022-08-27T23:33:21Z</time>
      </trkpt>
      <trkpt lat="47.63896" lon="-1.17246">
        <ele>83.8</ele>
        <time>2022-08-27T23:33:29Z</time>
      </trkpt>
      <trkpt lat="47.63867" lon="-1.17287">
        <ele>84.4</ele>
        <time>2022-08-27T23:33:37Z</time>
      </trkpt>
      <trkpt lat="47.63847" lon="-1.17319">
        <ele>84.8</ele>
        <time>2022-08-27T23:33:43Z</time>
      </trkpt>
      <trkpt lat="47.63841" lon="-1.1733">
        <ele>85</ele>
        <time>2022-08-27T23:33:45Z</time>
      </trkpt>
      <trkpt lat="47.6383" lon="-1.1735">
        <ele>85.2</ele>
        <time>2022-08-27T23:33:49Z</time>
      </trkpt>
      <trkpt lat="47.6381" lon="-1.17391">
        <ele>85.6</ele>
        <time>2022-08-27T23:33:56Z</time>
      </trkpt>
      <trkpt lat="47.63801" lon="-1.17407">
        <ele>85.8</ele>
        <time>2022-08-27T23:33:59Z</time>
      </trkpt>
      <trkpt lat="47.63789" lon="-1.1743">
        <ele>86</ele>
        <time>2022-08-27T23:34:03Z</time>
      </trkpt>
      <trkpt lat="47.63764" lon="-1.17479">
        <ele>86.4</ele>
        <time>2022-08-27T23:34:11Z</time>
      </trkpt>
      <trkpt lat="47.6374" lon="-1.17527">
        <ele>87</ele>
        <time>2022-08-27T23:34:19Z</time>
      </trkpt>
      <trkpt lat="47.63715" lon="-1.17578">
        <ele>87.4</ele>
        <time>2022-08-27T23:34:28Z</time>
      </trkpt>
      <trkpt lat="47.6369" lon="-1.17628">
        <ele>88.2</ele>
        <time>2022-08-27T23:34:37Z</time>
      </trkpt>
      <trkpt lat="47.6367" lon="-1.17666">
        <ele>88.6</ele>
        <time>2022-08-27T23:34:44Z</time>
      </trkpt>
      <trkpt lat="47.63664" lon="-1.17677">
        <ele>88.6</ele>
        <time>2022-08-27T23:34:46Z</time>
      </trkpt>
      <trkpt lat="47.63658" lon="-1.17691">
        <ele>88.8</ele>
        <time>2022-08-27T23:34:49Z</time>
      </trkpt>
      <trkpt lat="47.63655" lon="-1.17696">
        <ele>88.8</ele>
        <time>2022-08-27T23:34:50Z</time>
      </trkpt>
      <trkpt lat="47.63641" lon="-1.17725">
        <ele>89.4</ele>
        <time>2022-08-27T23:34:56Z</time>
      </trkpt>
      <trkpt lat="47.63619" lon="-1.17766">
        <ele>90.2</ele>
        <time>2022-08-27T23:35:05Z</time>
      </trkpt>
      <trkpt lat="47.63605" lon="-1.1779">
        <ele>90.6</ele>
        <time>2022-08-27T23:35:11Z</time>
      </trkpt>
      <trkpt lat="47.63598" lon="-1.17793">
        <ele>90.6</ele>
        <time>2022-08-27T23:35:14Z</time>
      </trkpt>
      <trkpt lat="47.63593" lon="-1.17793">
        <ele>90.6</ele>
        <time>2022-08-27T23:35:16Z</time>
      </trkpt>
      <trkpt lat="47.63589" lon="-1.17793">
        <ele>90.8</ele>
        <time>2022-08-27T23:35:18Z</time>
      </trkpt>
      <trkpt lat="47.63585" lon="-1.17797">
        <ele>90.8</ele>
        <time>2022-08-27T23:35:20Z</time>
      </trkpt>
      <trkpt lat="47.63571" lon="-1.17804">
        <ele>90.6</ele>
        <time>2022-08-27T23:35:25Z</time>
      </trkpt>
      <trkpt lat="47.63549" lon="-1.17815">
        <ele>90.6</ele>
        <time>2022-08-27T23:35:31Z</time>
      </trkpt>
      <trkpt lat="47.63522" lon="-1.17827">
        <ele>90.4</ele>
        <time>2022-08-27T23:35:38Z</time>
      </trkpt>
      <trkpt lat="47.63498" lon="-1.17839">
        <ele>90</ele>
        <time>2022-08-27T23:35:44Z</time>
      </trkpt>
      <trkpt lat="47.63486" lon="-1.17846">
        <ele>89.6</ele>
        <time>2022-08-27T23:35:47Z</time>
      </trkpt>
      <trkpt lat="47.63479" lon="-1.17849">
        <ele>89.4</ele>
        <time>2022-08-27T23:35:49Z</time>
      </trkpt>
      <trkpt lat="47.63474" lon="-1.17852">
        <ele>89.4</ele>
        <time>2022-08-27T23:35:50Z</time>
      </trkpt>
      <trkpt lat="47.63461" lon="-1.17858">
        <ele>89</ele>
        <time>2022-08-27T23:35:53Z</time>
      </trkpt>
      <trkpt lat="47.63433" lon="-1.1787">
        <ele>87.8</ele>
        <time>2022-08-27T23:35:59Z</time>
      </trkpt>
      <trkpt lat="47.63406" lon="-1.17882">
        <ele>87</ele>
        <time>2022-08-27T23:36:04Z</time>
      </trkpt>
      <trkpt lat="47.63369" lon="-1.17899">
        <ele>85.6</ele>
        <time>2022-08-27T23:36:10Z</time>
      </trkpt>
      <trkpt lat="47.63363" lon="-1.17902">
        <ele>85.2</ele>
        <time>2022-08-27T23:36:11Z</time>
      </trkpt>
      <trkpt lat="47.63344" lon="-1.17911">
        <ele>84.2</ele>
        <time>2022-08-27T23:36:14Z</time>
      </trkpt>
      <trkpt lat="47.63319" lon="-1.17924">
        <ele>83</ele>
        <time>2022-08-27T23:36:18Z</time>
      </trkpt>
      <trkpt lat="47.6331" lon="-1.17929">
        <ele>82.4</ele>
        <time>2022-08-27T23:36:20Z</time>
      </trkpt>
      <trkpt lat="47.63305" lon="-1.17928">
        <ele>82</ele>
        <time>2022-08-27T23:36:21Z</time>
      </trkpt>
      <trkpt lat="47.63301" lon="-1.17927">
        <ele>81.6</ele>
        <time>2022-08-27T23:36:22Z</time>
      </trkpt>
      <trkpt lat="47.63292" lon="-1.17924">
        <ele>81</ele>
        <time>2022-08-27T23:36:24Z</time>
      </trkpt>
      <trkpt lat="47.63287" lon="-1.17923">
        <ele>80.8</ele>
        <time>2022-08-27T23:36:25Z</time>
      </trkpt>
      <trkpt lat="47.63279" lon="-1.17921">
        <ele>79.8</ele>
        <time>2022-08-27T23:36:27Z</time>
      </trkpt>
      <trkpt lat="47.63275" lon="-1.17918">
        <ele>79.4</ele>
        <time>2022-08-27T23:36:28Z</time>
      </trkpt>
      <trkpt lat="47.63259" lon="-1.17902">
        <ele>77.8</ele>
        <time>2022-08-27T23:36:32Z</time>
      </trkpt>
      <trkpt lat="47.63237" lon="-1.17865">
        <ele>75.6</ele>
        <time>2022-08-27T23:36:39Z</time>
      </trkpt>
      <trkpt lat="47.63233" lon="-1.17834">
        <ele>76.4</ele>
        <time>2022-08-27T23:36:43Z</time>
      </trkpt>
      <trkpt lat="47.63228" lon="-1.1783">
        <ele>76.2</ele>
        <time>2022-08-27T23:36:44Z</time>
      </trkpt>
      <trkpt lat="47.63223" lon="-1.17827">
        <ele>76</ele>
        <time>2022-08-27T23:36:45Z</time>
      </trkpt>
      <trkpt lat="47.63216" lon="-1.17818">
        <ele>76</ele>
        <time>2022-08-27T23:36:47Z</time>
      </trkpt>
      <trkpt lat="47.63212" lon="-1.17814">
        <ele>75.8</ele>
        <time>2022-08-27T23:36:48Z</time>
      </trkpt>
      <trkpt lat="47.63205" lon="-1.17804">
        <ele>75.6</ele>
        <time>2022-08-27T23:36:50Z</time>
      </trkpt>
      <trkpt lat="47.63195" lon="-1.17798">
        <ele>75.2</ele>
        <time>2022-08-27T23:36:52Z</time>
      </trkpt>
      <trkpt lat="47.63178" lon="-1.17786">
        <ele>74</ele>
        <time>2022-08-27T23:36:56Z</time>
      </trkpt>
      <trkpt lat="47.63172" lon="-1.17775">
        <ele>74.2</ele>
        <time>2022-08-27T23:36:58Z</time>
      </trkpt>
      <trkpt lat="47.63165" lon="-1.17766">
        <ele>74</ele>
        <time>2022-08-27T23:37:00Z</time>
      </trkpt>
      <trkpt lat="47.63157" lon="-1.17757">
        <ele>73.8</ele>
        <time>2022-08-27T23:37:02Z</time>
      </trkpt>
      <trkpt lat="47.63143" lon="-1.17739">
        <ele>73</ele>
        <time>2022-08-27T23:37:06Z</time>
      </trkpt>
      <trkpt lat="47.63116" lon="-1.17714">
        <ele>72</ele>
        <time>2022-08-27T23:37:12Z</time>
      </trkpt>
      <trkpt lat="47.63105" lon="-1.17708">
        <ele>71.6</ele>
        <time>2022-08-27T23:37:14Z</time>
      </trkpt>
      <trkpt lat="47.63087" lon="-1.17696">
        <ele>71.2</ele>
        <time>2022-08-27T23:37:17Z</time>
      </trkpt>
      <trkpt lat="47.6307" lon="-1.17685">
        <ele>70.8</ele>
        <time>2022-08-27T23:37:20Z</time>
      </trkpt>
      <trkpt lat="47.63059" lon="-1.17679">
        <ele>70.4</ele>
        <time>2022-08-27T23:37:22Z</time>
      </trkpt>
      <trkpt lat="47.63038" lon="-1.17665">
        <ele>69.8</ele>
        <time>2022-08-27T23:37:27Z</time>
      </trkpt>
      <trkpt lat="47.63024" lon="-1.17656">
        <ele>69</ele>
        <time>2022-08-27T23:37:31Z</time>
      </trkpt>
      <trkpt lat="47.62998" lon="-1.17641">
        <ele>68.4</ele>
        <time>2022-08-27T23:37:37Z</time>
      </trkpt>
      <trkpt lat="47.62993" lon="-1.1764">
        <ele>68.2</ele>
        <time>2022-08-27T23:37:38Z</time>
      </trkpt>
      <trkpt lat="47.62964" lon="-1.17626">
        <ele>68</ele>
        <time>2022-08-27T23:37:44Z</time>
      </trkpt>
      <trkpt lat="47.62931" lon="-1.1762">
        <ele>67.8</ele>
        <time>2022-08-27T23:37:51Z</time>
      </trkpt>
      <trkpt lat="47.62909" lon="-1.17617">
        <ele>67.6</ele>
        <time>2022-08-27T23:37:56Z</time>
      </trkpt>
      <trkpt lat="47.62902" lon="-1.17616">
        <ele>67.6</ele>
        <time>2022-08-27T23:37:58Z</time>
      </trkpt>
      <trkpt lat="47.62894" lon="-1.17615">
        <ele>67.4</ele>
        <time>2022-08-27T23:38:00Z</time>
      </trkpt>
      <trkpt lat="47.62868" lon="-1.17609">
        <ele>68.2</ele>
        <time>2022-08-27T23:38:07Z</time>
      </trkpt>
      <trkpt lat="47.62846" lon="-1.17605">
        <ele>68.8</ele>
        <time>2022-08-27T23:38:13Z</time>
      </trkpt>
      <trkpt lat="47.62829" lon="-1.176">
        <ele>69.4</ele>
        <time>2022-08-27T23:38:18Z</time>
      </trkpt>
      <trkpt lat="47.62805" lon="-1.17585">
        <ele>70</ele>
        <time>2022-08-27T23:38:25Z</time>
      </trkpt>
      <trkpt lat="47.62788" lon="-1.17575">
        <ele>70.2</ele>
        <time>2022-08-27T23:38:30Z</time>
      </trkpt>
      <trkpt lat="47.62765" lon="-1.17562">
        <ele>70.6</ele>
        <time>2022-08-27T23:38:36Z</time>
      </trkpt>
      <trkpt lat="47.62752" lon="-1.17554">
        <ele>70.8</ele>
        <time>2022-08-27T23:38:40Z</time>
      </trkpt>
      <trkpt lat="47.62722" lon="-1.17535">
        <ele>71.4</ele>
        <time>2022-08-27T23:38:48Z</time>
      </trkpt>
      <trkpt lat="47.62708" lon="-1.17526">
        <ele>71.6</ele>
        <time>2022-08-27T23:38:51Z</time>
      </trkpt>
      <trkpt lat="47.62702" lon="-1.17524">
        <ele>71.6</ele>
        <time>2022-08-27T23:38:52Z</time>
      </trkpt>
      <trkpt lat="47.62697" lon="-1.17523">
        <ele>71.4</ele>
        <time>2022-08-27T23:38:53Z</time>
      </trkpt>
      <trkpt lat="47.62692" lon="-1.17526">
        <ele>71.4</ele>
        <time>2022-08-27T23:38:54Z</time>
      </trkpt>
      <trkpt lat="47.62687" lon="-1.17531">
        <ele>71.4</ele>
        <time>2022-08-27T23:38:55Z</time>
      </trkpt>
      <trkpt lat="47.6268" lon="-1.17545">
        <ele>71.4</ele>
        <time>2022-08-27T23:38:57Z</time>
      </trkpt>
      <trkpt lat="47.6266" lon="-1.17587">
        <ele>71.4</ele>
        <time>2022-08-27T23:39:03Z</time>
      </trkpt>
      <trkpt lat="47.62648" lon="-1.17612">
        <ele>71.6</ele>
        <time>2022-08-27T23:39:07Z</time>
      </trkpt>
      <trkpt lat="47.62645" lon="-1.17617">
        <ele>71.6</ele>
        <time>2022-08-27T23:39:08Z</time>
      </trkpt>
      <trkpt lat="47.62642" lon="-1.17622">
        <ele>71.6</ele>
        <time>2022-08-27T23:39:09Z</time>
      </trkpt>
      <trkpt lat="47.62635" lon="-1.17629">
        <ele>71.8</ele>
        <time>2022-08-27T23:39:11Z</time>
      </trkpt>
      <trkpt lat="47.62632" lon="-1.17634">
        <ele>71.8</ele>
        <time>2022-08-27T23:39:12Z</time>
      </trkpt>
      <trkpt lat="47.62621" lon="-1.17652">
        <ele>72</ele>
        <time>2022-08-27T23:39:16Z</time>
      </trkpt>
      <trkpt lat="47.62616" lon="-1.17661">
        <ele>72.2</ele>
        <time>2022-08-27T23:39:18Z</time>
      </trkpt>
      <trkpt lat="47.62602" lon="-1.17687">
        <ele>72.4</ele>
        <time>2022-08-27T23:39:25Z</time>
      </trkpt>
      <trkpt lat="47.62589" lon="-1.17699">
        <ele>72.6</ele>
        <time>2022-08-27T23:39:30Z</time>
      </trkpt>
      <trkpt lat="47.62572" lon="-1.177">
        <ele>73</ele>
        <time>2022-08-27T23:39:37Z</time>
      </trkpt>
      <trkpt lat="47.6256" lon="-1.17711">
        <ele>73.4</ele>
        <time>2022-08-27T23:39:43Z</time>
      </trkpt>
      <trkpt lat="47.62547" lon="-1.17714">
        <ele>73.6</ele>
        <time>2022-08-27T23:39:48Z</time>
      </trkpt>
      <trkpt lat="47.62528" lon="-1.1771">
        <ele>73.8</ele>
        <time>2022-08-27T23:39:54Z</time>
      </trkpt>
      <trkpt lat="47.62511" lon="-1.17705">
        <ele>73.8</ele>
        <time>2022-08-27T23:40:00Z</time>
      </trkpt>
      <trkpt lat="47.62501" lon="-1.17707">
        <ele>74</ele>
        <time>2022-08-27T23:40:05Z</time>
      </trkpt>
      <trkpt lat="47.62495" lon="-1.17724">
        <ele>74.4</ele>
        <time>2022-08-27T23:40:09Z</time>
      </trkpt>
      <trkpt lat="47.62488" lon="-1.17762">
        <ele>74.8</ele>
        <time>2022-08-27T23:40:15Z</time>
      </trkpt>
      <trkpt lat="47.62477" lon="-1.17824">
        <ele>74.8</ele>
        <time>2022-08-27T23:40:23Z</time>
      </trkpt>
      <trkpt lat="47.62464" lon="-1.17898">
        <ele>74.8</ele>
        <time>2022-08-27T23:40:32Z</time>
      </trkpt>
      <trkpt lat="47.62449" lon="-1.17978">
        <ele>75</ele>
        <time>2022-08-27T23:40:41Z</time>
      </trkpt>
      <trkpt lat="47.62433" lon="-1.18064">
        <ele>75</ele>
        <time>2022-08-27T23:40:50Z</time>
      </trkpt>
      <trkpt lat="47.62418" lon="-1.18146">
        <ele>75</ele>
        <time>2022-08-27T23:40:59Z</time>
      </trkpt>
      <trkpt lat="47.62416" lon="-1.18155">
        <ele>75</ele>
        <time>2022-08-27T23:41:00Z</time>
      </trkpt>
      <trkpt lat="47.62401" lon="-1.18235">
        <ele>74.8</ele>
        <time>2022-08-27T23:41:09Z</time>
      </trkpt>
      <trkpt lat="47.6239" lon="-1.18296">
        <ele>74.4</ele>
        <time>2022-08-27T23:41:16Z</time>
      </trkpt>
      <trkpt lat="47.62388" lon="-1.183">
        <ele>74.2</ele>
        <time>2022-08-27T23:41:18Z</time>
      </trkpt>
      <trkpt lat="47.62387" lon="-1.18299">
        <ele>74.2</ele>
        <time>2022-08-27T23:41:19Z</time>
      </trkpt>
      <trkpt lat="47.62389" lon="-1.18289">
        <ele>74</ele>
        <time>2022-08-27T23:41:23Z</time>
      </trkpt>
      <trkpt lat="47.62391" lon="-1.18282">
        <ele>74</ele>
        <time>2022-08-27T23:41:26Z</time>
      </trkpt>
      <trkpt lat="47.62388" lon="-1.18277">
        <ele>73.8</ele>
        <time>2022-08-27T23:41:29Z</time>
      </trkpt>
      <trkpt lat="47.62378" lon="-1.18278">
        <ele>73.6</ele>
        <time>2022-08-27T23:41:33Z</time>
      </trkpt>
      <trkpt lat="47.62363" lon="-1.18278">
        <ele>73</ele>
        <time>2022-08-27T23:41:38Z</time>
      </trkpt>
      <trkpt lat="47.62349" lon="-1.1828">
        <ele>72.2</ele>
        <time>2022-08-27T23:41:43Z</time>
      </trkpt>
      <trkpt lat="47.62335" lon="-1.18282">
        <ele>71.2</ele>
        <time>2022-08-27T23:41:47Z</time>
      </trkpt>
      <trkpt lat="47.62313" lon="-1.18283">
        <ele>70</ele>
        <time>2022-08-27T23:41:53Z</time>
      </trkpt>
      <trkpt lat="47.62308" lon="-1.18283">
        <ele>69.6</ele>
        <time>2022-08-27T23:41:55Z</time>
      </trkpt>
      <trkpt lat="47.62303" lon="-1.18282">
        <ele>69.2</ele>
        <time>2022-08-27T23:41:57Z</time>
      </trkpt>
      <trkpt lat="47.62289" lon="-1.18282">
        <ele>68.6</ele>
        <time>2022-08-27T23:42:01Z</time>
      </trkpt>
      <trkpt lat="47.62271" lon="-1.18282">
        <ele>67.8</ele>
        <time>2022-08-27T23:42:06Z</time>
      </trkpt>
      <trkpt lat="47.62257" lon="-1.1828">
        <ele>66.6</ele>
        <time>2022-08-27T23:42:10Z</time>
      </trkpt>
      <trkpt lat="47.62248" lon="-1.18278">
        <ele>66</ele>
        <time>2022-08-27T23:42:13Z</time>
      </trkpt>
      <trkpt lat="47.61866" lon="-1.18378">
        <ele>57.4</ele>
        <time>2022-08-27T23:44:20Z</time>
      </trkpt>
      <trkpt lat="47.61852" lon="-1.18386">
        <ele>57.4</ele>
        <time>2022-08-27T23:44:23Z</time>
      </trkpt>
      <trkpt lat="47.61836" lon="-1.18392">
        <ele>58</ele>
        <time>2022-08-27T23:44:28Z</time>
      </trkpt>
      <trkpt lat="47.61819" lon="-1.18397">
        <ele>59</ele>
        <time>2022-08-27T23:44:35Z</time>
      </trkpt>
      <trkpt lat="47.61817" lon="-1.18397">
        <ele>59.2</ele>
        <time>2022-08-27T23:44:38Z</time>
      </trkpt>
      <trkpt lat="47.61811" lon="-1.18399">
        <ele>71.6</ele>
        <time>2022-08-27T23:51:59Z</time>
      </trkpt>
      <trkpt lat="47.61807" lon="-1.184">
        <ele>71.4</ele>
        <time>2022-08-27T23:52:01Z</time>
      </trkpt>
      <trkpt lat="47.61796" lon="-1.18403">
        <ele>71.2</ele>
        <time>2022-08-27T23:52:07Z</time>
      </trkpt>
      <trkpt lat="47.61799" lon="-1.184">
        <ele>71</ele>
        <time>2022-08-27T23:52:10Z</time>
      </trkpt>
      <trkpt lat="47.61805" lon="-1.184">
        <ele>70.8</ele>
        <time>2022-08-27T23:52:13Z</time>
      </trkpt>
      <trkpt lat="47.61813" lon="-1.18398">
        <ele>70.8</ele>
        <time>2022-08-27T23:52:18Z</time>
      </trkpt>
      <trkpt lat="47.61815" lon="-1.18398">
        <ele>70.8</ele>
        <time>2022-08-27T23:52:19Z</time>
      </trkpt>
      <trkpt lat="47.61821" lon="-1.18396">
        <ele>70.6</ele>
        <time>2022-08-27T23:52:23Z</time>
      </trkpt>
      <trkpt lat="47.61822" lon="-1.18396">
        <ele>70.6</ele>
        <time>2022-08-27T23:52:24Z</time>
      </trkpt>
      <trkpt lat="47.61823" lon="-1.18395">
        <ele>70.4</ele>
        <time>2022-08-27T23:52:25Z</time>
      </trkpt>
      <trkpt lat="47.61822" lon="-1.18398">
        <ele>70.4</ele>
        <time>2022-08-27T23:52:27Z</time>
      </trkpt>
      <trkpt lat="47.61813" lon="-1.18398">
        <ele>70</ele>
        <time>2022-08-27T23:52:31Z</time>
      </trkpt>
      <trkpt lat="47.61796" lon="-1.18403">
        <ele>69.4</ele>
        <time>2022-08-27T23:52:37Z</time>
      </trkpt>
      <trkpt lat="47.6178" lon="-1.18407">
        <ele>69</ele>
        <time>2022-08-27T23:52:43Z</time>
      </trkpt>
      <trkpt lat="47.6176" lon="-1.18418">
        <ele>68.8</ele>
        <time>2022-08-27T23:52:49Z</time>
      </trkpt>
      <trkpt lat="47.61736" lon="-1.18443">
        <ele>69</ele>
        <time>2022-08-27T23:52:57Z</time>
      </trkpt>
      <trkpt lat="47.6171" lon="-1.18469">
        <ele>69.4</ele>
        <time>2022-08-27T23:53:06Z</time>
      </trkpt>
      <trkpt lat="47.61692" lon="-1.18488">
        <ele>69.6</ele>
        <time>2022-08-27T23:53:13Z</time>
      </trkpt>
      <trkpt lat="47.61673" lon="-1.18507">
        <ele>69.6</ele>
        <time>2022-08-27T23:53:21Z</time>
      </trkpt>
      <trkpt lat="47.61662" lon="-1.1852">
        <ele>69.8</ele>
        <time>2022-08-27T23:53:28Z</time>
      </trkpt>
      <trkpt lat="47.61661" lon="-1.18545">
        <ele>70</ele>
        <time>2022-08-27T23:53:34Z</time>
      </trkpt>
      <trkpt lat="47.61673" lon="-1.18564">
        <ele>70.2</ele>
        <time>2022-08-27T23:53:39Z</time>
      </trkpt>
      <trkpt lat="47.61678" lon="-1.18572">
        <ele>70.2</ele>
        <time>2022-08-27T23:53:41Z</time>
      </trkpt>
      <trkpt lat="47.61693" lon="-1.18595">
        <ele>70.2</ele>
        <time>2022-08-27T23:53:46Z</time>
      </trkpt>
      <trkpt lat="47.61717" lon="-1.18632">
        <ele>70.2</ele>
        <time>2022-08-27T23:53:54Z</time>
      </trkpt>
      <trkpt lat="47.61739" lon="-1.18667">
        <ele>70.4</ele>
        <time>2022-08-27T23:54:01Z</time>
      </trkpt>
      <trkpt lat="47.6176" lon="-1.187">
        <ele>70.4</ele>
        <time>2022-08-27T23:54:08Z</time>
      </trkpt>
      <trkpt lat="47.61788" lon="-1.18744">
        <ele>70.8</ele>
        <time>2022-08-27T23:54:17Z</time>
      </trkpt>
      <trkpt lat="47.61801" lon="-1.18764">
        <ele>70.8</ele>
        <time>2022-08-27T23:54:21Z</time>
      </trkpt>
      <trkpt lat="47.61811" lon="-1.1878">
        <ele>70.8</ele>
        <time>2022-08-27T23:54:24Z</time>
      </trkpt>
      <trkpt lat="47.61836" lon="-1.18819">
        <ele>71</ele>
        <time>2022-08-27T23:54:32Z</time>
      </trkpt>
      <trkpt lat="47.61862" lon="-1.1886">
        <ele>71.2</ele>
        <time>2022-08-27T23:54:40Z</time>
      </trkpt>
      <trkpt lat="47.61889" lon="-1.18903">
        <ele>71.2</ele>
        <time>2022-08-27T23:54:48Z</time>
      </trkpt>
      <trkpt lat="47.61912" lon="-1.18939">
        <ele>71.4</ele>
        <time>2022-08-27T23:54:55Z</time>
      </trkpt>
      <trkpt lat="47.61936" lon="-1.1898">
        <ele>71.6</ele>
        <time>2022-08-27T23:55:03Z</time>
      </trkpt>
      <trkpt lat="47.61956" lon="-1.19015">
        <ele>71.6</ele>
        <time>2022-08-27T23:55:10Z</time>
      </trkpt>
      <trkpt lat="47.61982" lon="-1.19065">
        <ele>72</ele>
        <time>2022-08-27T23:55:19Z</time>
      </trkpt>
      <trkpt lat="47.62007" lon="-1.19118">
        <ele>72.2</ele>
        <time>2022-08-27T23:55:28Z</time>
      </trkpt>
      <trkpt lat="47.62022" lon="-1.19151">
        <ele>72.2</ele>
        <time>2022-08-27T23:55:33Z</time>
      </trkpt>
      <trkpt lat="47.62025" lon="-1.19157">
        <ele>72.2</ele>
        <time>2022-08-27T23:55:34Z</time>
      </trkpt>
      <trkpt lat="47.62033" lon="-1.19177">
        <ele>72</ele>
        <time>2022-08-27T23:55:37Z</time>
      </trkpt>
      <trkpt lat="47.62039" lon="-1.19189">
        <ele>72.2</ele>
        <time>2022-08-27T23:55:39Z</time>
      </trkpt>
      <trkpt lat="47.62061" lon="-1.19239">
        <ele>71.8</ele>
        <time>2022-08-27T23:55:46Z</time>
      </trkpt>
      <trkpt lat="47.62081" lon="-1.19281">
        <ele>71.4</ele>
        <time>2022-08-27T23:55:52Z</time>
      </trkpt>
      <trkpt lat="47.62092" lon="-1.19302">
        <ele>71.4</ele>
        <time>2022-08-27T23:55:55Z</time>
      </trkpt>
      <trkpt lat="47.62099" lon="-1.19317">
        <ele>71.4</ele>
        <time>2022-08-27T23:55:57Z</time>
      </trkpt>
      <trkpt lat="47.62114" lon="-1.19359">
        <ele>71</ele>
        <time>2022-08-27T23:56:03Z</time>
      </trkpt>
      <trkpt lat="47.6212" lon="-1.19375">
        <ele>70.8</ele>
        <time>2022-08-27T23:56:06Z</time>
      </trkpt>
      <trkpt lat="47.62125" lon="-1.19385">
        <ele>70.6</ele>
        <time>2022-08-27T23:56:08Z</time>
      </trkpt>
      <trkpt lat="47.62133" lon="-1.194">
        <ele>70.4</ele>
        <time>2022-08-27T23:56:11Z</time>
      </trkpt>
      <trkpt lat="47.62142" lon="-1.19416">
        <ele>70.2</ele>
        <time>2022-08-27T23:56:14Z</time>
      </trkpt>
      <trkpt lat="47.62162" lon="-1.19456">
        <ele>69.6</ele>
        <time>2022-08-27T23:56:21Z</time>
      </trkpt>
      <trkpt lat="47.62173" lon="-1.1948">
        <ele>69.2</ele>
        <time>2022-08-27T23:56:26Z</time>
      </trkpt>
      <trkpt lat="47.62182" lon="-1.19502">
        <ele>68.8</ele>
        <time>2022-08-27T23:56:31Z</time>
      </trkpt>
      <trkpt lat="47.62185" lon="-1.19509">
        <ele>68.8</ele>
        <time>2022-08-27T23:56:34Z</time>
      </trkpt>
      <trkpt lat="47.62186" lon="-1.19515">
        <ele>68.8</ele>
        <time>2022-08-27T23:56:36Z</time>
      </trkpt>
      <trkpt lat="47.62188" lon="-1.1952">
        <ele>68.8</ele>
        <time>2022-08-27T23:56:38Z</time>
      </trkpt>
      <trkpt lat="47.62188" lon="-1.1952">
        <ele>68.6</ele>
        <time>2022-08-27T23:56:40Z</time>
      </trkpt>
      <trkpt lat="47.62188" lon="-1.19521">
        <ele>64.8</ele>
        <time>2022-08-28T00:07:42Z</time>
      </trkpt>
      <trkpt lat="47.62189" lon="-1.19525">
        <ele>64.8</ele>
        <time>2022-08-28T00:07:44Z</time>
      </trkpt>
      <trkpt lat="47.62192" lon="-1.19538">
        <ele>64.4</ele>
        <time>2022-08-28T00:07:49Z</time>
      </trkpt>
      <trkpt lat="47.62192" lon="-1.19538">
        <ele>64</ele>
        <time>2022-08-28T00:07:51Z</time>
      </trkpt>
      <trkpt lat="47.62194" lon="-1.19548">
        <ele>64.2</ele>
        <time>2022-08-28T00:08:05Z</time>
      </trkpt>
      <trkpt lat="47.62198" lon="-1.1957">
        <ele>64</ele>
        <time>2022-08-28T00:08:09Z</time>
      </trkpt>
      <trkpt lat="47.62209" lon="-1.19613">
        <ele>64</ele>
        <time>2022-08-28T00:08:15Z</time>
      </trkpt>
      <trkpt lat="47.62213" lon="-1.19619">
        <ele>64</ele>
        <time>2022-08-28T00:08:16Z</time>
      </trkpt>
      <trkpt lat="47.62217" lon="-1.19625">
        <ele>64</ele>
        <time>2022-08-28T00:08:17Z</time>
      </trkpt>
      <trkpt lat="47.6223" lon="-1.19638">
        <ele>64</ele>
        <time>2022-08-28T00:08:20Z</time>
      </trkpt>
      <trkpt lat="47.62237" lon="-1.19643">
        <ele>64</ele>
        <time>2022-08-28T00:08:22Z</time>
      </trkpt>
      <trkpt lat="47.62244" lon="-1.19648">
        <ele>63.8</ele>
        <time>2022-08-28T00:08:24Z</time>
      </trkpt>
      <trkpt lat="47.62248" lon="-1.19651">
        <ele>63.8</ele>
        <time>2022-08-28T00:08:25Z</time>
      </trkpt>
      <trkpt lat="47.6226" lon="-1.19662">
        <ele>63.4</ele>
        <time>2022-08-28T00:08:28Z</time>
      </trkpt>
      <trkpt lat="47.62268" lon="-1.19669">
        <ele>63.4</ele>
        <time>2022-08-28T00:08:31Z</time>
      </trkpt>
      <trkpt lat="47.62291" lon="-1.19692">
        <ele>63.2</ele>
        <time>2022-08-28T00:08:36Z</time>
      </trkpt>
      <trkpt lat="47.62317" lon="-1.19723">
        <ele>62.8</ele>
        <time>2022-08-28T00:08:43Z</time>
      </trkpt>
      <trkpt lat="47.62325" lon="-1.19732">
        <ele>62.6</ele>
        <time>2022-08-28T00:08:45Z</time>
      </trkpt>
      <trkpt lat="47.62336" lon="-1.19744">
        <ele>62.4</ele>
        <time>2022-08-28T00:08:48Z</time>
      </trkpt>
      <trkpt lat="47.62351" lon="-1.19755">
        <ele>62.2</ele>
        <time>2022-08-28T00:08:52Z</time>
      </trkpt>
      <trkpt lat="47.62381" lon="-1.19764">
        <ele>62</ele>
        <time>2022-08-28T00:08:58Z</time>
      </trkpt>
      <trkpt lat="47.62424" lon="-1.19771">
        <ele>62</ele>
        <time>2022-08-28T00:09:06Z</time>
      </trkpt>
      <trkpt lat="47.62441" lon="-1.19778">
        <ele>61.8</ele>
        <time>2022-08-28T00:09:09Z</time>
      </trkpt>
      <trkpt lat="47.62451" lon="-1.19783">
        <ele>61.8</ele>
        <time>2022-08-28T00:09:11Z</time>
      </trkpt>
      <trkpt lat="47.62456" lon="-1.19785">
        <ele>62</ele>
        <time>2022-08-28T00:09:12Z</time>
      </trkpt>
      <trkpt lat="47.62478" lon="-1.19805">
        <ele>62.6</ele>
        <time>2022-08-28T00:09:17Z</time>
      </trkpt>
      <trkpt lat="47.62509" lon="-1.19838">
        <ele>62.6</ele>
        <time>2022-08-28T00:09:25Z</time>
      </trkpt>
      <trkpt lat="47.62536" lon="-1.19867">
        <ele>62.8</ele>
        <time>2022-08-28T00:09:32Z</time>
      </trkpt>
      <trkpt lat="47.62568" lon="-1.19902">
        <ele>63</ele>
        <time>2022-08-28T00:09:40Z</time>
      </trkpt>
      <trkpt lat="47.62597" lon="-1.19933">
        <ele>63.4</ele>
        <time>2022-08-28T00:09:48Z</time>
      </trkpt>
      <trkpt lat="47.62626" lon="-1.19965">
        <ele>63.4</ele>
        <time>2022-08-28T00:09:57Z</time>
      </trkpt>
      <trkpt lat="47.62644" lon="-1.19984">
        <ele>63.4</ele>
        <time>2022-08-28T00:10:03Z</time>
      </trkpt>
      <trkpt lat="47.62667" lon="-1.20008">
        <ele>63.8</ele>
        <time>2022-08-28T00:10:11Z</time>
      </trkpt>
      <trkpt lat="47.62683" lon="-1.20025">
        <ele>64.2</ele>
        <time>2022-08-28T00:10:17Z</time>
      </trkpt>
      <trkpt lat="47.62685" lon="-1.20027">
        <ele>64.2</ele>
        <time>2022-08-28T00:10:18Z</time>
      </trkpt>
      <trkpt lat="47.62688" lon="-1.2003">
        <ele>64.2</ele>
        <time>2022-08-28T00:10:20Z</time>
      </trkpt>
      <trkpt lat="47.62688" lon="-1.2003">
        <ele>64.4</ele>
        <time>2022-08-28T00:10:22Z</time>
      </trkpt>
      <trkpt lat="47.62688" lon="-1.2003">
        <ele>65.8</ele>
        <time>2022-08-28T00:11:20Z</time>
      </trkpt>
      <trkpt lat="47.62684" lon="-1.2003">
        <ele>65.8</ele>
        <time>2022-08-28T00:11:21Z</time>
      </trkpt>
      <trkpt lat="47.62682" lon="-1.20028">
        <ele>65.8</ele>
        <time>2022-08-28T00:11:22Z</time>
      </trkpt>
      <trkpt lat="47.62678" lon="-1.2002">
        <ele>65.8</ele>
        <time>2022-08-28T00:11:25Z</time>
      </trkpt>
      <trkpt lat="47.62664" lon="-1.20005">
        <ele>65.8</ele>
        <time>2022-08-28T00:11:31Z</time>
      </trkpt>
      <trkpt lat="47.62645" lon="-1.19985">
        <ele>66</ele>
        <time>2022-08-28T00:11:38Z</time>
      </trkpt>
      <trkpt lat="47.62623" lon="-1.19961">
        <ele>66.2</ele>
        <time>2022-08-28T00:11:45Z</time>
      </trkpt>
      <trkpt lat="47.62594" lon="-1.1993">
        <ele>66</ele>
        <time>2022-08-28T00:11:52Z</time>
      </trkpt>
      <trkpt lat="47.62559" lon="-1.19892">
        <ele>65.8</ele>
        <time>2022-08-28T00:11:59Z</time>
      </trkpt>
      <trkpt lat="47.62521" lon="-1.19851">
        <ele>65.4</ele>
        <time>2022-08-28T00:12:07Z</time>
      </trkpt>
      <trkpt lat="47.62491" lon="-1.19819">
        <ele>65.2</ele>
        <time>2022-08-28T00:12:14Z</time>
      </trkpt>
      <trkpt lat="47.62478" lon="-1.19805">
        <ele>65.2</ele>
        <time>2022-08-28T00:12:17Z</time>
      </trkpt>
      <trkpt lat="47.62466" lon="-1.19791">
        <ele>65</ele>
        <time>2022-08-28T00:12:20Z</time>
      </trkpt>
      <trkpt lat="47.62446" lon="-1.19781">
        <ele>64.8</ele>
        <time>2022-08-28T00:12:25Z</time>
      </trkpt>
      <trkpt lat="47.62441" lon="-1.19779">
        <ele>64.8</ele>
        <time>2022-08-28T00:12:26Z</time>
      </trkpt>
      <trkpt lat="47.62412" lon="-1.19769">
        <ele>64.4</ele>
        <time>2022-08-28T00:12:32Z</time>
      </trkpt>
      <trkpt lat="47.62381" lon="-1.19764">
        <ele>64.2</ele>
        <time>2022-08-28T00:12:40Z</time>
      </trkpt>
      <trkpt lat="47.62359" lon="-1.19758">
        <ele>64.2</ele>
        <time>2022-08-28T00:12:46Z</time>
      </trkpt>
      <trkpt lat="47.62339" lon="-1.19754">
        <ele>64.4</ele>
        <time>2022-08-28T00:12:51Z</time>
      </trkpt>
      <trkpt lat="47.62336" lon="-1.19758">
        <ele>64.2</ele>
        <time>2022-08-28T00:12:52Z</time>
      </trkpt>
      <trkpt lat="47.6231" lon="-1.19765">
        <ele>64.2</ele>
        <time>2022-08-28T00:12:58Z</time>
      </trkpt>
      <trkpt lat="47.62275" lon="-1.1977">
        <ele>64</ele>
        <time>2022-08-28T00:13:05Z</time>
      </trkpt>
      <trkpt lat="47.62245" lon="-1.19773">
        <ele>63.6</ele>
        <time>2022-08-28T00:13:11Z</time>
      </trkpt>
      <trkpt lat="47.62205" lon="-1.19779">
        <ele>63.2</ele>
        <time>2022-08-28T00:13:19Z</time>
      </trkpt>
      <trkpt lat="47.62162" lon="-1.19782">
        <ele>63</ele>
        <time>2022-08-28T00:13:28Z</time>
      </trkpt>
      <trkpt lat="47.62138" lon="-1.19787">
        <ele>63</ele>
        <time>2022-08-28T00:13:34Z</time>
      </trkpt>
      <trkpt lat="47.62114" lon="-1.19791">
        <ele>63</ele>
        <time>2022-08-28T00:13:41Z</time>
      </trkpt>
      <trkpt lat="47.62082" lon="-1.19794">
        <ele>63.4</ele>
        <time>2022-08-28T00:13:50Z</time>
      </trkpt>
      <trkpt lat="47.62052" lon="-1.19799">
        <ele>63.6</ele>
        <time>2022-08-28T00:13:58Z</time>
      </trkpt>
      <trkpt lat="47.62015" lon="-1.19804">
        <ele>64</ele>
        <time>2022-08-28T00:14:08Z</time>
      </trkpt>
      <trkpt lat="47.61974" lon="-1.1981">
        <ele>64.4</ele>
        <time>2022-08-28T00:14:18Z</time>
      </trkpt>
      <trkpt lat="47.61938" lon="-1.19814">
        <ele>64.6</ele>
        <time>2022-08-28T00:14:26Z</time>
      </trkpt>
      <trkpt lat="47.61896" lon="-1.1982">
        <ele>65.2</ele>
        <time>2022-08-28T00:14:35Z</time>
      </trkpt>
      <trkpt lat="47.61856" lon="-1.19825">
        <ele>65.6</ele>
        <time>2022-08-28T00:14:43Z</time>
      </trkpt>
      <trkpt lat="47.6181" lon="-1.19831">
        <ele>65.8</ele>
        <time>2022-08-28T00:14:51Z</time>
      </trkpt>
      <trkpt lat="47.61758" lon="-1.19838">
        <ele>66.4</ele>
        <time>2022-08-28T00:15:00Z</time>
      </trkpt>
      <trkpt lat="47.6171" lon="-1.19844">
        <ele>66.8</ele>
        <time>2022-08-28T00:15:09Z</time>
      </trkpt>
      <trkpt lat="47.61668" lon="-1.1985">
        <ele>67.2</ele>
        <time>2022-08-28T00:15:18Z</time>
      </trkpt>
      <trkpt lat="47.61633" lon="-1.19854">
        <ele>67.6</ele>
        <time>2022-08-28T00:15:25Z</time>
      </trkpt>
      <trkpt lat="47.61587" lon="-1.19861">
        <ele>68.2</ele>
        <time>2022-08-28T00:15:34Z</time>
      </trkpt>
      <trkpt lat="47.61549" lon="-1.19866">
        <ele>68.6</ele>
        <time>2022-08-28T00:15:41Z</time>
      </trkpt>
      <trkpt lat="47.615" lon="-1.19875">
        <ele>68.8</ele>
        <time>2022-08-28T00:15:49Z</time>
      </trkpt>
      <trkpt lat="47.61458" lon="-1.19894">
        <ele>68.6</ele>
        <time>2022-08-28T00:15:55Z</time>
      </trkpt>
      <trkpt lat="47.6141" lon="-1.1993">
        <ele>68.6</ele>
        <time>2022-08-28T00:16:02Z</time>
      </trkpt>
      <trkpt lat="47.61361" lon="-1.1998">
        <ele>68.4</ele>
        <time>2022-08-28T00:16:10Z</time>
      </trkpt>
      <trkpt lat="47.61354" lon="-1.19987">
        <ele>68.4</ele>
        <time>2022-08-28T00:16:11Z</time>
      </trkpt>
      <trkpt lat="47.61306" lon="-1.20034">
        <ele>67.8</ele>
        <time>2022-08-28T00:16:18Z</time>
      </trkpt>
      <trkpt lat="47.61261" lon="-1.2008">
        <ele>67.2</ele>
        <time>2022-08-28T00:16:24Z</time>
      </trkpt>
      <trkpt lat="47.61245" lon="-1.20097">
        <ele>67</ele>
        <time>2022-08-28T00:16:26Z</time>
      </trkpt>
      <trkpt lat="47.61194" lon="-1.20145">
        <ele>66</ele>
        <time>2022-08-28T00:16:32Z</time>
      </trkpt>
      <trkpt lat="47.61185" lon="-1.20153">
        <ele>66</ele>
        <time>2022-08-28T00:16:33Z</time>
      </trkpt>
      <trkpt lat="47.61129" lon="-1.20189">
        <ele>65</ele>
        <time>2022-08-28T00:16:39Z</time>
      </trkpt>
      <trkpt lat="47.6112" lon="-1.20194">
        <ele>64.8</ele>
        <time>2022-08-28T00:16:40Z</time>
      </trkpt>
      <trkpt lat="47.61067" lon="-1.20215">
        <ele>63.8</ele>
        <time>2022-08-28T00:16:46Z</time>
      </trkpt>
      <trkpt lat="47.61027" lon="-1.20223">
        <ele>63</ele>
        <time>2022-08-28T00:16:51Z</time>
      </trkpt>
      <trkpt lat="47.60979" lon="-1.20226">
        <ele>62</ele>
        <time>2022-08-28T00:16:58Z</time>
      </trkpt>
      <trkpt lat="47.6093" lon="-1.20223">
        <ele>61</ele>
        <time>2022-08-28T00:17:06Z</time>
      </trkpt>
      <trkpt lat="47.60883" lon="-1.20212">
        <ele>59.8</ele>
        <time>2022-08-28T00:17:14Z</time>
      </trkpt>
      <trkpt lat="47.60849" lon="-1.20203">
        <ele>58.8</ele>
        <time>2022-08-28T00:17:20Z</time>
      </trkpt>
      <trkpt lat="47.60804" lon="-1.2019">
        <ele>57.8</ele>
        <time>2022-08-28T00:17:28Z</time>
      </trkpt>
      <trkpt lat="47.60752" lon="-1.2018">
        <ele>57.6</ele>
        <time>2022-08-28T00:17:38Z</time>
      </trkpt>
      <trkpt lat="47.6071" lon="-1.20174">
        <ele>57.8</ele>
        <time>2022-08-28T00:17:47Z</time>
      </trkpt>
      <trkpt lat="47.60659" lon="-1.20173">
        <ele>57.8</ele>
        <time>2022-08-28T00:17:58Z</time>
      </trkpt>
      <trkpt lat="47.60624" lon="-1.20174">
        <ele>58</ele>
        <time>2022-08-28T00:18:05Z</time>
      </trkpt>
      <trkpt lat="47.6059" lon="-1.20176">
        <ele>57.6</ele>
        <time>2022-08-28T00:18:12Z</time>
      </trkpt>
      <trkpt lat="47.60548" lon="-1.20179">
        <ele>57</ele>
        <time>2022-08-28T00:18:21Z</time>
      </trkpt>
      <trkpt lat="47.60518" lon="-1.20181">
        <ele>56.4</ele>
        <time>2022-08-28T00:18:27Z</time>
      </trkpt>
      <trkpt lat="47.60473" lon="-1.20186">
        <ele>56.2</ele>
        <time>2022-08-28T00:18:35Z</time>
      </trkpt>
      <trkpt lat="47.60424" lon="-1.20188">
        <ele>56.2</ele>
        <time>2022-08-28T00:18:44Z</time>
      </trkpt>
      <trkpt lat="47.60384" lon="-1.2019">
        <ele>57</ele>
        <time>2022-08-28T00:18:52Z</time>
      </trkpt>
      <trkpt lat="47.60334" lon="-1.20193">
        <ele>57.2</ele>
        <time>2022-08-28T00:19:03Z</time>
      </trkpt>
      <trkpt lat="47.60301" lon="-1.20195">
        <ele>57.8</ele>
        <time>2022-08-28T00:19:11Z</time>
      </trkpt>
      <trkpt lat="47.60277" lon="-1.20196">
        <ele>58.4</ele>
        <time>2022-08-28T00:19:17Z</time>
      </trkpt>
      <trkpt lat="47.60273" lon="-1.20196">
        <ele>58.4</ele>
        <time>2022-08-28T00:19:18Z</time>
      </trkpt>
      <trkpt lat="47.60251" lon="-1.20194">
        <ele>58.8</ele>
        <time>2022-08-28T00:19:23Z</time>
      </trkpt>
      <trkpt lat="47.60221" lon="-1.20187">
        <ele>59.2</ele>
        <time>2022-08-28T00:19:31Z</time>
      </trkpt>
      <trkpt lat="47.60199" lon="-1.20178">
        <ele>59.4</ele>
        <time>2022-08-28T00:19:37Z</time>
      </trkpt>
      <trkpt lat="47.60168" lon="-1.20164">
        <ele>59.8</ele>
        <time>2022-08-28T00:19:45Z</time>
      </trkpt>
      <trkpt lat="47.60142" lon="-1.20147">
        <ele>60.4</ele>
        <time>2022-08-28T00:19:52Z</time>
      </trkpt>
      <trkpt lat="47.60104" lon="-1.20116">
        <ele>61.4</ele>
        <time>2022-08-28T00:20:01Z</time>
      </trkpt>
      <trkpt lat="47.60064" lon="-1.2008">
        <ele>62</ele>
        <time>2022-08-28T00:20:10Z</time>
      </trkpt>
      <trkpt lat="47.60031" lon="-1.2005">
        <ele>62.8</ele>
        <time>2022-08-28T00:20:18Z</time>
      </trkpt>
      <trkpt lat="47.59999" lon="-1.20022">
        <ele>63.2</ele>
        <time>2022-08-28T00:20:26Z</time>
      </trkpt>
      <trkpt lat="47.59969" lon="-1.19996">
        <ele>63.6</ele>
        <time>2022-08-28T00:20:33Z</time>
      </trkpt>
      <trkpt lat="47.59933" lon="-1.19964">
        <ele>63.8</ele>
        <time>2022-08-28T00:20:41Z</time>
      </trkpt>
      <trkpt lat="47.59886" lon="-1.19922">
        <ele>64.6</ele>
        <time>2022-08-28T00:20:52Z</time>
      </trkpt>
      <trkpt lat="47.59848" lon="-1.19887">
        <ele>65.6</ele>
        <time>2022-08-28T00:21:02Z</time>
      </trkpt>
      <trkpt lat="47.59831" lon="-1.19872">
        <ele>66</ele>
        <time>2022-08-28T00:21:07Z</time>
      </trkpt>
      <trkpt lat="47.59825" lon="-1.19878">
        <ele>66</ele>
        <time>2022-08-28T00:21:08Z</time>
      </trkpt>
      <trkpt lat="47.59822" lon="-1.19877">
        <ele>66.2</ele>
        <time>2022-08-28T00:21:09Z</time>
      </trkpt>
      <trkpt lat="47.59819" lon="-1.19886">
        <ele>66.4</ele>
        <time>2022-08-28T00:21:11Z</time>
      </trkpt>
      <trkpt lat="47.59817" lon="-1.19896">
        <ele>66.6</ele>
        <time>2022-08-28T00:21:13Z</time>
      </trkpt>
      <trkpt lat="47.59815" lon="-1.19908">
        <ele>66.8</ele>
        <time>2022-08-28T00:21:15Z</time>
      </trkpt>
      <trkpt lat="47.59815" lon="-1.19908">
        <ele>66.8</ele>
        <time>2022-08-28T00:21:17Z</time>
      </trkpt>
      <trkpt lat="47.59815" lon="-1.19908">
        <ele>67</ele>
        <time>2022-08-28T00:21:18Z</time>
      </trkpt>
      <trkpt lat="47.59806" lon="-1.19914">
        <ele>67.2</ele>
        <time>2022-08-28T00:21:22Z</time>
      </trkpt>
      <trkpt lat="47.59789" lon="-1.19926">
        <ele>67.6</ele>
        <time>2022-08-28T00:21:28Z</time>
      </trkpt>
      <trkpt lat="47.59764" lon="-1.19944">
        <ele>68</ele>
        <time>2022-08-28T00:21:35Z</time>
      </trkpt>
      <trkpt lat="47.59735" lon="-1.19964">
        <ele>68.6</ele>
        <time>2022-08-28T00:21:42Z</time>
      </trkpt>
      <trkpt lat="47.59712" lon="-1.1998">
        <ele>68.8</ele>
        <time>2022-08-28T00:21:48Z</time>
      </trkpt>
      <trkpt lat="47.59688" lon="-1.19997">
        <ele>69.2</ele>
        <time>2022-08-28T00:21:54Z</time>
      </trkpt>
      <trkpt lat="47.5966" lon="-1.20017">
        <ele>69.2</ele>
        <time>2022-08-28T00:22:01Z</time>
      </trkpt>
      <trkpt lat="47.59636" lon="-1.20034">
        <ele>69.2</ele>
        <time>2022-08-28T00:22:07Z</time>
      </trkpt>
      <trkpt lat="47.59619" lon="-1.20046">
        <ele>69.2</ele>
        <time>2022-08-28T00:22:11Z</time>
      </trkpt>
      <trkpt lat="47.59615" lon="-1.20049">
        <ele>69.2</ele>
        <time>2022-08-28T00:22:12Z</time>
      </trkpt>
      <trkpt lat="47.59593" lon="-1.20064">
        <ele>69.4</ele>
        <time>2022-08-28T00:22:17Z</time>
      </trkpt>
      <trkpt lat="47.59585" lon="-1.2007">
        <ele>68.8</ele>
        <time>2022-08-28T00:22:19Z</time>
      </trkpt>
      <trkpt lat="47.59571" lon="-1.20079">
        <ele>68.8</ele>
        <time>2022-08-28T00:22:22Z</time>
      </trkpt>
      <trkpt lat="47.59534" lon="-1.20103">
        <ele>69</ele>
        <time>2022-08-28T00:22:29Z</time>
      </trkpt>
      <trkpt lat="47.59505" lon="-1.20118">
        <ele>68.8</ele>
        <time>2022-08-28T00:22:34Z</time>
      </trkpt>
      <trkpt lat="47.59467" lon="-1.20128">
        <ele>68</ele>
        <time>2022-08-28T00:22:40Z</time>
      </trkpt>
      <trkpt lat="47.59439" lon="-1.20142">
        <ele>67.6</ele>
        <time>2022-08-28T00:22:44Z</time>
      </trkpt>
      <trkpt lat="47.59432" lon="-1.20147">
        <ele>67.6</ele>
        <time>2022-08-28T00:22:45Z</time>
      </trkpt>
      <trkpt lat="47.59409" lon="-1.20165">
        <ele>67.2</ele>
        <time>2022-08-28T00:22:48Z</time>
      </trkpt>
      <trkpt lat="47.59392" lon="-1.2017">
        <ele>67</ele>
        <time>2022-08-28T00:22:50Z</time>
      </trkpt>
      <trkpt lat="47.59338" lon="-1.20185">
        <ele>66.4</ele>
        <time>2022-08-28T00:22:56Z</time>
      </trkpt>
      <trkpt lat="47.59321" lon="-1.2019">
        <ele>66</ele>
        <time>2022-08-28T00:22:58Z</time>
      </trkpt>
      <trkpt lat="47.59305" lon="-1.20203">
        <ele>65.8</ele>
        <time>2022-08-28T00:23:00Z</time>
      </trkpt>
      <trkpt lat="47.59253" lon="-1.2025">
        <ele>65.2</ele>
        <time>2022-08-28T00:23:07Z</time>
      </trkpt>
      <trkpt lat="47.59201" lon="-1.20297">
        <ele>64.2</ele>
        <time>2022-08-28T00:23:14Z</time>
      </trkpt>
      <trkpt lat="47.59193" lon="-1.20304">
        <ele>64.2</ele>
        <time>2022-08-28T00:23:15Z</time>
      </trkpt>
      <trkpt lat="47.59154" lon="-1.20357">
        <ele>63.2</ele>
        <time>2022-08-28T00:23:21Z</time>
      </trkpt>
      <trkpt lat="47.59115" lon="-1.20427">
        <ele>62.4</ele>
        <time>2022-08-28T00:23:28Z</time>
      </trkpt>
      <trkpt lat="47.59078" lon="-1.20497">
        <ele>61.2</ele>
        <time>2022-08-28T00:23:35Z</time>
      </trkpt>
      <trkpt lat="47.59055" lon="-1.2054">
        <ele>60.4</ele>
        <time>2022-08-28T00:23:40Z</time>
      </trkpt>
      <trkpt lat="47.59032" lon="-1.2058">
        <ele>60</ele>
        <time>2022-08-28T00:23:45Z</time>
      </trkpt>
      <trkpt lat="47.59027" lon="-1.20587">
        <ele>59.8</ele>
        <time>2022-08-28T00:23:46Z</time>
      </trkpt>
      <trkpt lat="47.5901" lon="-1.20606">
        <ele>59.6</ele>
        <time>2022-08-28T00:23:49Z</time>
      </trkpt>
      <trkpt lat="47.58998" lon="-1.20617">
        <ele>59.6</ele>
        <time>2022-08-28T00:23:51Z</time>
      </trkpt>
      <trkpt lat="47.58972" lon="-1.20643">
        <ele>58.8</ele>
        <time>2022-08-28T00:23:56Z</time>
      </trkpt>
      <trkpt lat="47.58929" lon="-1.20684">
        <ele>57.8</ele>
        <time>2022-08-28T00:24:04Z</time>
      </trkpt>
      <trkpt lat="47.58914" lon="-1.20697">
        <ele>57.6</ele>
        <time>2022-08-28T00:24:07Z</time>
      </trkpt>
      <trkpt lat="47.58909" lon="-1.207">
        <ele>57.4</ele>
        <time>2022-08-28T00:24:08Z</time>
      </trkpt>
      <trkpt lat="47.58869" lon="-1.20718">
        <ele>56.8</ele>
        <time>2022-08-28T00:24:15Z</time>
      </trkpt>
      <trkpt lat="47.58831" lon="-1.20734">
        <ele>56.2</ele>
        <time>2022-08-28T00:24:22Z</time>
      </trkpt>
      <trkpt lat="47.58797" lon="-1.20749">
        <ele>55.6</ele>
        <time>2022-08-28T00:24:29Z</time>
      </trkpt>
      <trkpt lat="47.58767" lon="-1.20762">
        <ele>55.4</ele>
        <time>2022-08-28T00:24:35Z</time>
      </trkpt>
      <trkpt lat="47.58741" lon="-1.20774">
        <ele>55</ele>
        <time>2022-08-28T00:24:41Z</time>
      </trkpt>
      <trkpt lat="47.58718" lon="-1.20779">
        <ele>54.8</ele>
        <time>2022-08-28T00:24:46Z</time>
      </trkpt>
      <trkpt lat="47.58714" lon="-1.2078">
        <ele>54.8</ele>
        <time>2022-08-28T00:24:47Z</time>
      </trkpt>
      <trkpt lat="47.58689" lon="-1.20777">
        <ele>54.8</ele>
        <time>2022-08-28T00:24:53Z</time>
      </trkpt>
      <trkpt lat="47.58661" lon="-1.20774">
        <ele>54.8</ele>
        <time>2022-08-28T00:25:00Z</time>
      </trkpt>
      <trkpt lat="47.58629" lon="-1.20771">
        <ele>55.2</ele>
        <time>2022-08-28T00:25:08Z</time>
      </trkpt>
      <trkpt lat="47.58602" lon="-1.20768">
        <ele>55.2</ele>
        <time>2022-08-28T00:25:15Z</time>
      </trkpt>
      <trkpt lat="47.58581" lon="-1.20767">
        <ele>55.6</ele>
        <time>2022-08-28T00:25:21Z</time>
      </trkpt>
      <trkpt lat="47.5856" lon="-1.20766">
        <ele>55.8</ele>
        <time>2022-08-28T00:25:27Z</time>
      </trkpt>
      <trkpt lat="47.58541" lon="-1.20764">
        <ele>56.2</ele>
        <time>2022-08-28T00:25:33Z</time>
      </trkpt>
      <trkpt lat="47.58521" lon="-1.20763">
        <ele>56.6</ele>
        <time>2022-08-28T00:25:39Z</time>
      </trkpt>
      <trkpt lat="47.58495" lon="-1.20761">
        <ele>57.2</ele>
        <time>2022-08-28T00:25:47Z</time>
      </trkpt>
      <trkpt lat="47.58465" lon="-1.20759">
        <ele>58</ele>
        <time>2022-08-28T00:25:57Z</time>
      </trkpt>
      <trkpt lat="47.58441" lon="-1.20758">
        <ele>58.4</ele>
        <time>2022-08-28T00:26:05Z</time>
      </trkpt>
      <trkpt lat="47.58411" lon="-1.20758">
        <ele>59</ele>
        <time>2022-08-28T00:26:15Z</time>
      </trkpt>
      <trkpt lat="47.58385" lon="-1.20758">
        <ele>59.6</ele>
        <time>2022-08-28T00:26:23Z</time>
      </trkpt>
      <trkpt lat="47.58366" lon="-1.20762">
        <ele>60</ele>
        <time>2022-08-28T00:26:29Z</time>
      </trkpt>
      <trkpt lat="47.5834" lon="-1.20746">
        <ele>60.4</ele>
        <time>2022-08-28T00:26:36Z</time>
      </trkpt>
      <trkpt lat="47.58331" lon="-1.20746">
        <ele>60.4</ele>
        <time>2022-08-28T00:26:38Z</time>
      </trkpt>
      <trkpt lat="47.58313" lon="-1.20748">
        <ele>60.6</ele>
        <time>2022-08-28T00:26:42Z</time>
      </trkpt>
      <trkpt lat="47.58273" lon="-1.20758">
        <ele>60.6</ele>
        <time>2022-08-28T00:26:50Z</time>
      </trkpt>
      <trkpt lat="47.58235" lon="-1.20767">
        <ele>59.8</ele>
        <time>2022-08-28T00:26:57Z</time>
      </trkpt>
      <trkpt lat="47.58184" lon="-1.20779">
        <ele>60</ele>
        <time>2022-08-28T00:27:05Z</time>
      </trkpt>
      <trkpt lat="47.58172" lon="-1.20782">
        <ele>59.8</ele>
        <time>2022-08-28T00:27:07Z</time>
      </trkpt>
      <trkpt lat="47.58153" lon="-1.2078">
        <ele>59.8</ele>
        <time>2022-08-28T00:27:10Z</time>
      </trkpt>
      <trkpt lat="47.58128" lon="-1.20771">
        <ele>59.4</ele>
        <time>2022-08-28T00:27:14Z</time>
      </trkpt>
      <trkpt lat="47.58116" lon="-1.20771">
        <ele>59.4</ele>
        <time>2022-08-28T00:27:16Z</time>
      </trkpt>
      <trkpt lat="47.58109" lon="-1.20772">
        <ele>59.2</ele>
        <time>2022-08-28T00:27:17Z</time>
      </trkpt>
      <trkpt lat="47.5809" lon="-1.20782">
        <ele>59</ele>
        <time>2022-08-28T00:27:21Z</time>
      </trkpt>
      <trkpt lat="47.58052" lon="-1.20802">
        <ele>58.4</ele>
        <time>2022-08-28T00:27:29Z</time>
      </trkpt>
      <trkpt lat="47.58017" lon="-1.20827">
        <ele>58.4</ele>
        <time>2022-08-28T00:27:37Z</time>
      </trkpt>
      <trkpt lat="47.57994" lon="-1.20859">
        <ele>58.4</ele>
        <time>2022-08-28T00:27:44Z</time>
      </trkpt>
      <trkpt lat="47.57988" lon="-1.20869">
        <ele>58.4</ele>
        <time>2022-08-28T00:27:46Z</time>
      </trkpt>
      <trkpt lat="47.57978" lon="-1.20884">
        <ele>58.8</ele>
        <time>2022-08-28T00:27:49Z</time>
      </trkpt>
      <trkpt lat="47.57942" lon="-1.20931">
        <ele>59.4</ele>
        <time>2022-08-28T00:27:59Z</time>
      </trkpt>
      <trkpt lat="47.57907" lon="-1.20969">
        <ele>59.8</ele>
        <time>2022-08-28T00:28:08Z</time>
      </trkpt>
      <trkpt lat="47.57878" lon="-1.21001">
        <ele>60.4</ele>
        <time>2022-08-28T00:28:16Z</time>
      </trkpt>
      <trkpt lat="47.57858" lon="-1.21018">
        <ele>60.8</ele>
        <time>2022-08-28T00:28:21Z</time>
      </trkpt>
      <trkpt lat="47.57846" lon="-1.21028">
        <ele>60.8</ele>
        <time>2022-08-28T00:28:24Z</time>
      </trkpt>
      <trkpt lat="47.57805" lon="-1.21046">
        <ele>61.6</ele>
        <time>2022-08-28T00:28:33Z</time>
      </trkpt>
      <trkpt lat="47.57782" lon="-1.2105">
        <ele>61.8</ele>
        <time>2022-08-28T00:28:39Z</time>
      </trkpt>
      <trkpt lat="47.57767" lon="-1.21056">
        <ele>62.4</ele>
        <time>2022-08-28T00:28:44Z</time>
      </trkpt>
      <trkpt lat="47.57764" lon="-1.21055">
        <ele>62.4</ele>
        <time>2022-08-28T00:28:45Z</time>
      </trkpt>
      <trkpt lat="47.57757" lon="-1.21048">
        <ele>62.6</ele>
        <time>2022-08-28T00:28:47Z</time>
      </trkpt>
      <trkpt lat="47.57729" lon="-1.21016">
        <ele>63</ele>
        <time>2022-08-28T00:28:55Z</time>
      </trkpt>
      <trkpt lat="47.57701" lon="-1.20984">
        <ele>63.6</ele>
        <time>2022-08-28T00:29:03Z</time>
      </trkpt>
      <trkpt lat="47.57667" lon="-1.20947">
        <ele>64.4</ele>
        <time>2022-08-28T00:29:13Z</time>
      </trkpt>
      <trkpt lat="47.57634" lon="-1.20909">
        <ele>65.2</ele>
        <time>2022-08-28T00:29:22Z</time>
      </trkpt>
      <trkpt lat="47.57611" lon="-1.20878">
        <ele>65.6</ele>
        <time>2022-08-28T00:29:29Z</time>
      </trkpt>
      <trkpt lat="47.57602" lon="-1.20864">
        <ele>65.8</ele>
        <time>2022-08-28T00:29:33Z</time>
      </trkpt>
      <trkpt lat="47.57589" lon="-1.2087">
        <ele>65.8</ele>
        <time>2022-08-28T00:29:35Z</time>
      </trkpt>
      <trkpt lat="47.5758" lon="-1.20871">
        <ele>66</ele>
        <time>2022-08-28T00:29:37Z</time>
      </trkpt>
      <trkpt lat="47.57562" lon="-1.20873">
        <ele>66</ele>
        <time>2022-08-28T00:29:41Z</time>
      </trkpt>
      <trkpt lat="47.57554" lon="-1.20874">
        <ele>66.2</ele>
        <time>2022-08-28T00:29:43Z</time>
      </trkpt>
      <trkpt lat="47.57529" lon="-1.20877">
        <ele>66.2</ele>
        <time>2022-08-28T00:29:49Z</time>
      </trkpt>
      <trkpt lat="47.57508" lon="-1.20866">
        <ele>66.4</ele>
        <time>2022-08-28T00:29:54Z</time>
      </trkpt>
      <trkpt lat="47.57478" lon="-1.20841">
        <ele>66.4</ele>
        <time>2022-08-28T00:30:01Z</time>
      </trkpt>
      <trkpt lat="47.57465" lon="-1.2083">
        <ele>66.4</ele>
        <time>2022-08-28T00:30:04Z</time>
      </trkpt>
      <trkpt lat="47.57457" lon="-1.20821">
        <ele>66.4</ele>
        <time>2022-08-28T00:30:06Z</time>
      </trkpt>
      <trkpt lat="47.57429" lon="-1.20792">
        <ele>66.4</ele>
        <time>2022-08-28T00:30:13Z</time>
      </trkpt>
      <trkpt lat="47.57413" lon="-1.20776">
        <ele>66.2</ele>
        <time>2022-08-28T00:30:17Z</time>
      </trkpt>
      <trkpt lat="47.57407" lon="-1.20774">
        <ele>66.2</ele>
        <time>2022-08-28T00:30:18Z</time>
      </trkpt>
      <trkpt lat="47.57403" lon="-1.20778">
        <ele>66.2</ele>
        <time>2022-08-28T00:30:19Z</time>
      </trkpt>
      <trkpt lat="47.57394" lon="-1.20788">
        <ele>66.2</ele>
        <time>2022-08-28T00:30:21Z</time>
      </trkpt>
      <trkpt lat="47.57365" lon="-1.20822">
        <ele>66</ele>
        <time>2022-08-28T00:30:27Z</time>
      </trkpt>
      <trkpt lat="47.5733" lon="-1.20864">
        <ele>65.6</ele>
        <time>2022-08-28T00:30:33Z</time>
      </trkpt>
      <trkpt lat="47.57297" lon="-1.20903">
        <ele>65</ele>
        <time>2022-08-28T00:30:38Z</time>
      </trkpt>
      <trkpt lat="47.57255" lon="-1.20956">
        <ele>64.4</ele>
        <time>2022-08-28T00:30:44Z</time>
      </trkpt>
      <trkpt lat="47.57235" lon="-1.21">
        <ele>64</ele>
        <time>2022-08-28T00:30:48Z</time>
      </trkpt>
      <trkpt lat="47.57206" lon="-1.21079">
        <ele>63.4</ele>
        <time>2022-08-28T00:30:55Z</time>
      </trkpt>
      <trkpt lat="47.57178" lon="-1.21156">
        <ele>62.6</ele>
        <time>2022-08-28T00:31:02Z</time>
      </trkpt>
      <trkpt lat="47.5717" lon="-1.21178">
        <ele>62.4</ele>
        <time>2022-08-28T00:31:04Z</time>
      </trkpt>
      <trkpt lat="47.57145" lon="-1.2125">
        <ele>62</ele>
        <time>2022-08-28T00:31:11Z</time>
      </trkpt>
      <trkpt lat="47.57142" lon="-1.2126">
        <ele>61.8</ele>
        <time>2022-08-28T00:31:12Z</time>
      </trkpt>
      <trkpt lat="47.57127" lon="-1.21324">
        <ele>61.4</ele>
        <time>2022-08-28T00:31:18Z</time>
      </trkpt>
      <trkpt lat="47.57111" lon="-1.21409">
        <ele>60.6</ele>
        <time>2022-08-28T00:31:26Z</time>
      </trkpt>
      <trkpt lat="47.57096" lon="-1.21468">
        <ele>60.6</ele>
        <time>2022-08-28T00:31:32Z</time>
      </trkpt>
      <trkpt lat="47.57069" lon="-1.21518">
        <ele>60.6</ele>
        <time>2022-08-28T00:31:38Z</time>
      </trkpt>
      <trkpt lat="47.57029" lon="-1.21574">
        <ele>60.2</ele>
        <time>2022-08-28T00:31:46Z</time>
      </trkpt>
      <trkpt lat="47.57024" lon="-1.21581">
        <ele>60.2</ele>
        <time>2022-08-28T00:31:47Z</time>
      </trkpt>
      <trkpt lat="47.56983" lon="-1.21638">
        <ele>59.6</ele>
        <time>2022-08-28T00:31:55Z</time>
      </trkpt>
      <trkpt lat="47.56963" lon="-1.21667">
        <ele>59.4</ele>
        <time>2022-08-28T00:31:59Z</time>
      </trkpt>
      <trkpt lat="47.56922" lon="-1.21724">
        <ele>59</ele>
        <time>2022-08-28T00:32:07Z</time>
      </trkpt>
      <trkpt lat="47.56907" lon="-1.21745">
        <ele>59</ele>
        <time>2022-08-28T00:32:10Z</time>
      </trkpt>
      <trkpt lat="47.56865" lon="-1.21802">
        <ele>58.6</ele>
        <time>2022-08-28T00:32:18Z</time>
      </trkpt>
      <trkpt lat="47.56855" lon="-1.21817">
        <ele>58.4</ele>
        <time>2022-08-28T00:32:20Z</time>
      </trkpt>
      <trkpt lat="47.5682" lon="-1.21866">
        <ele>58</ele>
        <time>2022-08-28T00:32:27Z</time>
      </trkpt>
      <trkpt lat="47.56789" lon="-1.21909">
        <ele>58</ele>
        <time>2022-08-28T00:32:33Z</time>
      </trkpt>
      <trkpt lat="47.56747" lon="-1.21967">
        <ele>57.8</ele>
        <time>2022-08-28T00:32:41Z</time>
      </trkpt>
      <trkpt lat="47.56742" lon="-1.21973">
        <ele>57.8</ele>
        <time>2022-08-28T00:32:42Z</time>
      </trkpt>
      <trkpt lat="47.56696" lon="-1.22022">
        <ele>57.4</ele>
        <time>2022-08-28T00:32:50Z</time>
      </trkpt>
      <trkpt lat="47.56647" lon="-1.2207">
        <ele>57</ele>
        <time>2022-08-28T00:32:58Z</time>
      </trkpt>
      <trkpt lat="47.56641" lon="-1.22076">
        <ele>56.8</ele>
        <time>2022-08-28T00:32:59Z</time>
      </trkpt>
      <trkpt lat="47.56598" lon="-1.22117">
        <ele>56.6</ele>
        <time>2022-08-28T00:33:06Z</time>
      </trkpt>
      <trkpt lat="47.56551" lon="-1.22163">
        <ele>56.4</ele>
        <time>2022-08-28T00:33:14Z</time>
      </trkpt>
      <trkpt lat="47.56545" lon="-1.22169">
        <ele>56.4</ele>
        <time>2022-08-28T00:33:15Z</time>
      </trkpt>
      <trkpt lat="47.56496" lon="-1.22217">
        <ele>56</ele>
        <time>2022-08-28T00:33:23Z</time>
      </trkpt>
      <trkpt lat="47.56484" lon="-1.22229">
        <ele>56</ele>
        <time>2022-08-28T00:33:25Z</time>
      </trkpt>
      <trkpt lat="47.56434" lon="-1.22277">
        <ele>55.8</ele>
        <time>2022-08-28T00:33:33Z</time>
      </trkpt>
      <trkpt lat="47.56428" lon="-1.22283">
        <ele>55.8</ele>
        <time>2022-08-28T00:33:34Z</time>
      </trkpt>
      <trkpt lat="47.5638" lon="-1.2233">
        <ele>55.4</ele>
        <time>2022-08-28T00:33:42Z</time>
      </trkpt>
      <trkpt lat="47.56374" lon="-1.22336">
        <ele>55.4</ele>
        <time>2022-08-28T00:33:43Z</time>
      </trkpt>
      <trkpt lat="47.56325" lon="-1.22383">
        <ele>55</ele>
        <time>2022-08-28T00:33:51Z</time>
      </trkpt>
      <trkpt lat="47.56277" lon="-1.2243">
        <ele>54.6</ele>
        <time>2022-08-28T00:33:59Z</time>
      </trkpt>
      <trkpt lat="47.5623" lon="-1.22475">
        <ele>54.2</ele>
        <time>2022-08-28T00:34:07Z</time>
      </trkpt>
      <trkpt lat="47.56224" lon="-1.22481">
        <ele>54.2</ele>
        <time>2022-08-28T00:34:08Z</time>
      </trkpt>
      <trkpt lat="47.56177" lon="-1.22527">
        <ele>53.8</ele>
        <time>2022-08-28T00:34:16Z</time>
      </trkpt>
      <trkpt lat="47.56171" lon="-1.22533">
        <ele>54</ele>
        <time>2022-08-28T00:34:17Z</time>
      </trkpt>
      <trkpt lat="47.56124" lon="-1.22578">
        <ele>53.8</ele>
        <time>2022-08-28T00:34:25Z</time>
      </trkpt>
      <trkpt lat="47.56119" lon="-1.22583">
        <ele>53.8</ele>
        <time>2022-08-28T00:34:26Z</time>
      </trkpt>
      <trkpt lat="47.56082" lon="-1.22618">
        <ele>54</ele>
        <time>2022-08-28T00:34:33Z</time>
      </trkpt>
      <trkpt lat="47.56043" lon="-1.22656">
        <ele>54.2</ele>
        <time>2022-08-28T00:34:41Z</time>
      </trkpt>
      <trkpt lat="47.5601" lon="-1.22689">
        <ele>54.6</ele>
        <time>2022-08-28T00:34:49Z</time>
      </trkpt>
      <trkpt lat="47.55975" lon="-1.22722">
        <ele>55.4</ele>
        <time>2022-08-28T00:34:59Z</time>
      </trkpt>
      <trkpt lat="47.55943" lon="-1.22754">
        <ele>56.2</ele>
        <time>2022-08-28T00:35:08Z</time>
      </trkpt>
      <trkpt lat="47.5592" lon="-1.22776">
        <ele>57</ele>
        <time>2022-08-28T00:35:15Z</time>
      </trkpt>
      <trkpt lat="47.55894" lon="-1.22801">
        <ele>57.8</ele>
        <time>2022-08-28T00:35:23Z</time>
      </trkpt>
      <trkpt lat="47.55866" lon="-1.22827">
        <ele>58.8</ele>
        <time>2022-08-28T00:35:32Z</time>
      </trkpt>
      <trkpt lat="47.55842" lon="-1.2284">
        <ele>59.4</ele>
        <time>2022-08-28T00:35:39Z</time>
      </trkpt>
      <trkpt lat="47.55814" lon="-1.22845">
        <ele>60.4</ele>
        <time>2022-08-28T00:35:47Z</time>
      </trkpt>
      <trkpt lat="47.55786" lon="-1.22834">
        <ele>61</ele>
        <time>2022-08-28T00:35:55Z</time>
      </trkpt>
      <trkpt lat="47.55768" lon="-1.22825">
        <ele>61.4</ele>
        <time>2022-08-28T00:36:00Z</time>
      </trkpt>
      <trkpt lat="47.55764" lon="-1.22823">
        <ele>61.4</ele>
        <time>2022-08-28T00:36:01Z</time>
      </trkpt>
      <trkpt lat="47.55732" lon="-1.22809">
        <ele>61.6</ele>
        <time>2022-08-28T00:36:08Z</time>
      </trkpt>
      <trkpt lat="47.55699" lon="-1.22793">
        <ele>61.4</ele>
        <time>2022-08-28T00:36:15Z</time>
      </trkpt>
      <trkpt lat="47.55659" lon="-1.22774">
        <ele>61.4</ele>
        <time>2022-08-28T00:36:23Z</time>
      </trkpt>
      <trkpt lat="47.55631" lon="-1.22761">
        <ele>61.2</ele>
        <time>2022-08-28T00:36:29Z</time>
      </trkpt>
      <trkpt lat="47.55595" lon="-1.22744">
        <ele>60.6</ele>
        <time>2022-08-28T00:36:36Z</time>
      </trkpt>
      <trkpt lat="47.55557" lon="-1.22727">
        <ele>60</ele>
        <time>2022-08-28T00:36:43Z</time>
      </trkpt>
      <trkpt lat="47.55551" lon="-1.22726">
        <ele>59.8</ele>
        <time>2022-08-28T00:36:44Z</time>
      </trkpt>
      <trkpt lat="47.5554" lon="-1.22724">
        <ele>59.6</ele>
        <time>2022-08-28T00:36:46Z</time>
      </trkpt>
      <trkpt lat="47.55521" lon="-1.22726">
        <ele>59.4</ele>
        <time>2022-08-28T00:36:49Z</time>
      </trkpt>
      <trkpt lat="47.55467" lon="-1.22745">
        <ele>59.2</ele>
        <time>2022-08-28T00:36:57Z</time>
      </trkpt>
      <trkpt lat="47.55409" lon="-1.22766">
        <ele>59.2</ele>
        <time>2022-08-28T00:37:05Z</time>
      </trkpt>
      <trkpt lat="47.55401" lon="-1.22768">
        <ele>59.2</ele>
        <time>2022-08-28T00:37:06Z</time>
      </trkpt>
      <trkpt lat="47.55344" lon="-1.22789">
        <ele>59.2</ele>
        <time>2022-08-28T00:37:14Z</time>
      </trkpt>
      <trkpt lat="47.55338" lon="-1.22791">
        <ele>59.2</ele>
        <time>2022-08-28T00:37:15Z</time>
      </trkpt>
      <trkpt lat="47.55284" lon="-1.2281">
        <ele>59.2</ele>
        <time>2022-08-28T00:37:23Z</time>
      </trkpt>
      <trkpt lat="47.55228" lon="-1.22831">
        <ele>59.6</ele>
        <time>2022-08-28T00:37:32Z</time>
      </trkpt>
      <trkpt lat="47.55222" lon="-1.22833">
        <ele>59.6</ele>
        <time>2022-08-28T00:37:33Z</time>
      </trkpt>
      <trkpt lat="47.55174" lon="-1.22849">
        <ele>59.6</ele>
        <time>2022-08-28T00:37:41Z</time>
      </trkpt>
      <trkpt lat="47.55126" lon="-1.22867">
        <ele>59.8</ele>
        <time>2022-08-28T00:37:49Z</time>
      </trkpt>
      <trkpt lat="47.55083" lon="-1.22883">
        <ele>60</ele>
        <time>2022-08-28T00:37:56Z</time>
      </trkpt>
      <trkpt lat="47.55028" lon="-1.22903">
        <ele>60</ele>
        <time>2022-08-28T00:38:04Z</time>
      </trkpt>
      <trkpt lat="47.55014" lon="-1.22908">
        <ele>59.6</ele>
        <time>2022-08-28T00:38:06Z</time>
      </trkpt>
      <trkpt lat="47.54956" lon="-1.22929">
        <ele>59.4</ele>
        <time>2022-08-28T00:38:14Z</time>
      </trkpt>
      <trkpt lat="47.5495" lon="-1.22931">
        <ele>59.2</ele>
        <time>2022-08-28T00:38:15Z</time>
      </trkpt>
      <trkpt lat="47.54926" lon="-1.22939">
        <ele>59</ele>
        <time>2022-08-28T00:38:19Z</time>
      </trkpt>
      <trkpt lat="47.54916" lon="-1.22943">
        <ele>59</ele>
        <time>2022-08-28T00:38:21Z</time>
      </trkpt>
      <trkpt lat="47.54903" lon="-1.22948">
        <ele>58.8</ele>
        <time>2022-08-28T00:38:24Z</time>
      </trkpt>
      <trkpt lat="47.54885" lon="-1.22954">
        <ele>58.2</ele>
        <time>2022-08-28T00:38:29Z</time>
      </trkpt>
      <trkpt lat="47.54869" lon="-1.2296">
        <ele>57.6</ele>
        <time>2022-08-28T00:38:34Z</time>
      </trkpt>
      <trkpt lat="47.54854" lon="-1.22965">
        <ele>57.6</ele>
        <time>2022-08-28T00:38:38Z</time>
      </trkpt>
      <trkpt lat="47.54837" lon="-1.22971">
        <ele>57.6</ele>
        <time>2022-08-28T00:38:42Z</time>
      </trkpt>
      <trkpt lat="47.54813" lon="-1.2298">
        <ele>58</ele>
        <time>2022-08-28T00:38:48Z</time>
      </trkpt>
      <trkpt lat="47.54799" lon="-1.22985">
        <ele>58</ele>
        <time>2022-08-28T00:38:53Z</time>
      </trkpt>
      <trkpt lat="47.54775" lon="-1.22993">
        <ele>58.4</ele>
        <time>2022-08-28T00:39:01Z</time>
      </trkpt>
      <trkpt lat="47.5476" lon="-1.22998">
        <ele>58.4</ele>
        <time>2022-08-28T00:39:07Z</time>
      </trkpt>
      <trkpt lat="47.54744" lon="-1.23004">
        <ele>58.6</ele>
        <time>2022-08-28T00:39:13Z</time>
      </trkpt>
      <trkpt lat="47.54725" lon="-1.23011">
        <ele>59</ele>
        <time>2022-08-28T00:39:20Z</time>
      </trkpt>
      <trkpt lat="47.5471" lon="-1.23016">
        <ele>59.4</ele>
        <time>2022-08-28T00:39:26Z</time>
      </trkpt>
      <trkpt lat="47.54692" lon="-1.23023">
        <ele>59.4</ele>
        <time>2022-08-28T00:39:33Z</time>
      </trkpt>
      <trkpt lat="47.54676" lon="-1.23029">
        <ele>59.6</ele>
        <time>2022-08-28T00:39:39Z</time>
      </trkpt>
      <trkpt lat="47.54658" lon="-1.23035">
        <ele>59.8</ele>
        <time>2022-08-28T00:39:46Z</time>
      </trkpt>
      <trkpt lat="47.54643" lon="-1.23041">
        <ele>60.4</ele>
        <time>2022-08-28T00:39:52Z</time>
      </trkpt>
      <trkpt lat="47.54627" lon="-1.23046">
        <ele>60.6</ele>
        <time>2022-08-28T00:39:58Z</time>
      </trkpt>
      <trkpt lat="47.54612" lon="-1.23052">
        <ele>61.4</ele>
        <time>2022-08-28T00:40:03Z</time>
      </trkpt>
      <trkpt lat="47.54581" lon="-1.2306">
        <ele>62.4</ele>
        <time>2022-08-28T00:40:10Z</time>
      </trkpt>
      <trkpt lat="47.54554" lon="-1.23068">
        <ele>62.6</ele>
        <time>2022-08-28T00:40:15Z</time>
      </trkpt>
      <trkpt lat="47.54512" lon="-1.23079">
        <ele>62.6</ele>
        <time>2022-08-28T00:40:21Z</time>
      </trkpt>
      <trkpt lat="47.54466" lon="-1.23092">
        <ele>62.4</ele>
        <time>2022-08-28T00:40:27Z</time>
      </trkpt>
      <trkpt lat="47.54458" lon="-1.23094">
        <ele>62.4</ele>
        <time>2022-08-28T00:40:28Z</time>
      </trkpt>
      <trkpt lat="47.54433" lon="-1.23101">
        <ele>62.4</ele>
        <time>2022-08-28T00:40:31Z</time>
      </trkpt>
      <trkpt lat="47.5437" lon="-1.23118">
        <ele>61.8</ele>
        <time>2022-08-28T00:40:38Z</time>
      </trkpt>
      <trkpt lat="47.54313" lon="-1.23133">
        <ele>61.2</ele>
        <time>2022-08-28T00:40:44Z</time>
      </trkpt>
      <trkpt lat="47.54303" lon="-1.23135">
        <ele>61</ele>
        <time>2022-08-28T00:40:45Z</time>
      </trkpt>
      <trkpt lat="47.54242" lon="-1.23151">
        <ele>59.8</ele>
        <time>2022-08-28T00:40:51Z</time>
      </trkpt>
      <trkpt lat="47.54189" lon="-1.23167">
        <ele>58.8</ele>
        <time>2022-08-28T00:40:56Z</time>
      </trkpt>
      <trkpt lat="47.54166" lon="-1.23175">
        <ele>58.2</ele>
        <time>2022-08-28T00:40:58Z</time>
      </trkpt>
      <trkpt lat="47.54155" lon="-1.23181">
        <ele>58</ele>
        <time>2022-08-28T00:40:59Z</time>
      </trkpt>
      <trkpt lat="47.54136" lon="-1.23199">
        <ele>57.4</ele>
        <time>2022-08-28T00:41:01Z</time>
      </trkpt>
      <trkpt lat="47.5409" lon="-1.23246">
        <ele>56.4</ele>
        <time>2022-08-28T00:41:06Z</time>
      </trkpt>
      <trkpt lat="47.54043" lon="-1.23294">
        <ele>55</ele>
        <time>2022-08-28T00:41:11Z</time>
      </trkpt>
      <trkpt lat="47.54034" lon="-1.23303">
        <ele>54.8</ele>
        <time>2022-08-28T00:41:12Z</time>
      </trkpt>
      <trkpt lat="47.53988" lon="-1.23352">
        <ele>53.2</ele>
        <time>2022-08-28T00:41:17Z</time>
      </trkpt>
      <trkpt lat="47.53979" lon="-1.23361">
        <ele>53</ele>
        <time>2022-08-28T00:41:18Z</time>
      </trkpt>
      <trkpt lat="47.53939" lon="-1.23404">
        <ele>51.4</ele>
        <time>2022-08-28T00:41:23Z</time>
      </trkpt>
      <trkpt lat="47.53924" lon="-1.2342">
        <ele>50.8</ele>
        <time>2022-08-28T00:41:25Z</time>
      </trkpt>
      <trkpt lat="47.539" lon="-1.23436">
        <ele>50.2</ele>
        <time>2022-08-28T00:41:28Z</time>
      </trkpt>
      <trkpt lat="47.53862" lon="-1.23445">
        <ele>49.6</ele>
        <time>2022-08-28T00:41:33Z</time>
      </trkpt>
      <trkpt lat="47.53804" lon="-1.2345">
        <ele>49</ele>
        <time>2022-08-28T00:41:41Z</time>
      </trkpt>
      <trkpt lat="47.53797" lon="-1.2345">
        <ele>49</ele>
        <time>2022-08-28T00:41:42Z</time>
      </trkpt>
      <trkpt lat="47.53739" lon="-1.23455">
        <ele>48.2</ele>
        <time>2022-08-28T00:41:51Z</time>
      </trkpt>
      <trkpt lat="47.5369" lon="-1.23458">
        <ele>47.6</ele>
        <time>2022-08-28T00:41:59Z</time>
      </trkpt>
      <trkpt lat="47.53636" lon="-1.23462">
        <ele>47</ele>
        <time>2022-08-28T00:42:08Z</time>
      </trkpt>
      <trkpt lat="47.5363" lon="-1.23461">
        <ele>47</ele>
        <time>2022-08-28T00:42:09Z</time>
      </trkpt>
      <trkpt lat="47.53587" lon="-1.23455">
        <ele>46.4</ele>
        <time>2022-08-28T00:42:15Z</time>
      </trkpt>
      <trkpt lat="47.53528" lon="-1.23446">
        <ele>45.2</ele>
        <time>2022-08-28T00:42:22Z</time>
      </trkpt>
      <trkpt lat="47.5352" lon="-1.23445">
        <ele>45.2</ele>
        <time>2022-08-28T00:42:23Z</time>
      </trkpt>
      <trkpt lat="47.53474" lon="-1.23448">
        <ele>44.4</ele>
        <time>2022-08-28T00:42:28Z</time>
      </trkpt>
      <trkpt lat="47.5342" lon="-1.23466">
        <ele>43.2</ele>
        <time>2022-08-28T00:42:34Z</time>
      </trkpt>
      <trkpt lat="47.53411" lon="-1.2347">
        <ele>43</ele>
        <time>2022-08-28T00:42:35Z</time>
      </trkpt>
      <trkpt lat="47.5336" lon="-1.2349">
        <ele>42</ele>
        <time>2022-08-28T00:42:41Z</time>
      </trkpt>
      <trkpt lat="47.53317" lon="-1.23507">
        <ele>41.4</ele>
        <time>2022-08-28T00:42:47Z</time>
      </trkpt>
      <trkpt lat="47.53276" lon="-1.23523">
        <ele>41</ele>
        <time>2022-08-28T00:42:54Z</time>
      </trkpt>
      <trkpt lat="47.53238" lon="-1.23531">
        <ele>40.2</ele>
        <time>2022-08-28T00:43:01Z</time>
      </trkpt>
      <trkpt lat="47.53201" lon="-1.23536">
        <ele>39.8</ele>
        <time>2022-08-28T00:43:08Z</time>
      </trkpt>
      <trkpt lat="47.53145" lon="-1.23543">
        <ele>39.4</ele>
        <time>2022-08-28T00:43:18Z</time>
      </trkpt>
      <trkpt lat="47.53105" lon="-1.23545">
        <ele>39</ele>
        <time>2022-08-28T00:43:25Z</time>
      </trkpt>
      <trkpt lat="47.53068" lon="-1.23533">
        <ele>38.6</ele>
        <time>2022-08-28T00:43:31Z</time>
      </trkpt>
      <trkpt lat="47.53015" lon="-1.23511">
        <ele>38.2</ele>
        <time>2022-08-28T00:43:40Z</time>
      </trkpt>
      <trkpt lat="47.53009" lon="-1.23508">
        <ele>38.2</ele>
        <time>2022-08-28T00:43:41Z</time>
      </trkpt>
      <trkpt lat="47.52978" lon="-1.23496">
        <ele>38</ele>
        <time>2022-08-28T00:43:47Z</time>
      </trkpt>
      <trkpt lat="47.52958" lon="-1.23488">
        <ele>37.8</ele>
        <time>2022-08-28T00:43:51Z</time>
      </trkpt>
      <trkpt lat="47.52949" lon="-1.23485">
        <ele>37.6</ele>
        <time>2022-08-28T00:43:53Z</time>
      </trkpt>
      <trkpt lat="47.5291" lon="-1.2347">
        <ele>37</ele>
        <time>2022-08-28T00:44:01Z</time>
      </trkpt>
      <trkpt lat="47.5288" lon="-1.23459">
        <ele>36.6</ele>
        <time>2022-08-28T00:44:07Z</time>
      </trkpt>
      <trkpt lat="47.52876" lon="-1.23457">
        <ele>36.4</ele>
        <time>2022-08-28T00:44:08Z</time>
      </trkpt>
      <trkpt lat="47.52844" lon="-1.23451">
        <ele>36.2</ele>
        <time>2022-08-28T00:44:14Z</time>
      </trkpt>
      <trkpt lat="47.52799" lon="-1.2346">
        <ele>36</ele>
        <time>2022-08-28T00:44:22Z</time>
      </trkpt>
      <trkpt lat="47.52779" lon="-1.23463">
        <ele>35.6</ele>
        <time>2022-08-28T00:44:27Z</time>
      </trkpt>
      <trkpt lat="47.5277" lon="-1.23465">
        <ele>35.2</ele>
        <time>2022-08-28T00:44:30Z</time>
      </trkpt>
      <trkpt lat="47.52763" lon="-1.23466">
        <ele>35.2</ele>
        <time>2022-08-28T00:44:32Z</time>
      </trkpt>
      <trkpt lat="47.5274" lon="-1.23468">
        <ele>34.6</ele>
        <time>2022-08-28T00:44:37Z</time>
      </trkpt>
      <trkpt lat="47.52734" lon="-1.23468">
        <ele>34.4</ele>
        <time>2022-08-28T00:44:38Z</time>
      </trkpt>
      <trkpt lat="47.52716" lon="-1.23462">
        <ele>34.2</ele>
        <time>2022-08-28T00:44:41Z</time>
      </trkpt>
      <trkpt lat="47.52705" lon="-1.2345">
        <ele>34</ele>
        <time>2022-08-28T00:44:43Z</time>
      </trkpt>
      <trkpt lat="47.52701" lon="-1.23442">
        <ele>34</ele>
        <time>2022-08-28T00:44:44Z</time>
      </trkpt>
      <trkpt lat="47.52697" lon="-1.23433">
        <ele>33.8</ele>
        <time>2022-08-28T00:44:45Z</time>
      </trkpt>
      <trkpt lat="47.5269" lon="-1.23414">
        <ele>33.8</ele>
        <time>2022-08-28T00:44:47Z</time>
      </trkpt>
      <trkpt lat="47.52678" lon="-1.23385">
        <ele>33.4</ele>
        <time>2022-08-28T00:44:50Z</time>
      </trkpt>
      <trkpt lat="47.52671" lon="-1.23378">
        <ele>33.4</ele>
        <time>2022-08-28T00:44:51Z</time>
      </trkpt>
      <trkpt lat="47.52663" lon="-1.23372">
        <ele>33.2</ele>
        <time>2022-08-28T00:44:52Z</time>
      </trkpt>
      <trkpt lat="47.52645" lon="-1.23368">
        <ele>33</ele>
        <time>2022-08-28T00:44:54Z</time>
      </trkpt>
      <trkpt lat="47.52628" lon="-1.23378">
        <ele>32.6</ele>
        <time>2022-08-28T00:44:56Z</time>
      </trkpt>
      <trkpt lat="47.5262" lon="-1.23386">
        <ele>32.4</ele>
        <time>2022-08-28T00:44:57Z</time>
      </trkpt>
      <trkpt lat="47.52575" lon="-1.23434">
        <ele>31.6</ele>
        <time>2022-08-28T00:45:03Z</time>
      </trkpt>
      <trkpt lat="47.52537" lon="-1.23477">
        <ele>31</ele>
        <time>2022-08-28T00:45:09Z</time>
      </trkpt>
      <trkpt lat="47.52498" lon="-1.2352">
        <ele>30.6</ele>
        <time>2022-08-28T00:45:16Z</time>
      </trkpt>
      <trkpt lat="47.52471" lon="-1.23549">
        <ele>30.4</ele>
        <time>2022-08-28T00:45:22Z</time>
      </trkpt>
      <trkpt lat="47.52446" lon="-1.23577">
        <ele>30.6</ele>
        <time>2022-08-28T00:45:29Z</time>
      </trkpt>
      <trkpt lat="47.52423" lon="-1.23602">
        <ele>31.4</ele>
        <time>2022-08-28T00:45:36Z</time>
      </trkpt>
      <trkpt lat="47.52399" lon="-1.23628">
        <ele>31.2</ele>
        <time>2022-08-28T00:45:44Z</time>
      </trkpt>
      <trkpt lat="47.52369" lon="-1.23662">
        <ele>31.8</ele>
        <time>2022-08-28T00:45:55Z</time>
      </trkpt>
      <trkpt lat="47.52346" lon="-1.23679">
        <ele>32.2</ele>
        <time>2022-08-28T00:46:02Z</time>
      </trkpt>
      <trkpt lat="47.52323" lon="-1.23669">
        <ele>32.8</ele>
        <time>2022-08-28T00:46:09Z</time>
      </trkpt>
      <trkpt lat="47.52297" lon="-1.23664">
        <ele>33</ele>
        <time>2022-08-28T00:46:17Z</time>
      </trkpt>
      <trkpt lat="47.5227" lon="-1.23658">
        <ele>33.2</ele>
        <time>2022-08-28T00:46:25Z</time>
      </trkpt>
      <trkpt lat="47.52247" lon="-1.23653">
        <ele>33.4</ele>
        <time>2022-08-28T00:46:32Z</time>
      </trkpt>
      <trkpt lat="47.52223" lon="-1.23648">
        <ele>33.8</ele>
        <time>2022-08-28T00:46:40Z</time>
      </trkpt>
      <trkpt lat="47.52195" lon="-1.23642">
        <ele>34.4</ele>
        <time>2022-08-28T00:46:49Z</time>
      </trkpt>
      <trkpt lat="47.52172" lon="-1.23637">
        <ele>34.8</ele>
        <time>2022-08-28T00:46:56Z</time>
      </trkpt>
      <trkpt lat="47.52131" lon="-1.2363">
        <ele>35.2</ele>
        <time>2022-08-28T00:47:08Z</time>
      </trkpt>
      <trkpt lat="47.52106" lon="-1.23622">
        <ele>35.4</ele>
        <time>2022-08-28T00:47:15Z</time>
      </trkpt>
      <trkpt lat="47.52091" lon="-1.23618">
        <ele>35.4</ele>
        <time>2022-08-28T00:47:19Z</time>
      </trkpt>
      <trkpt lat="47.5206" lon="-1.2361">
        <ele>35.6</ele>
        <time>2022-08-28T00:47:26Z</time>
      </trkpt>
      <trkpt lat="47.52036" lon="-1.23606">
        <ele>35.6</ele>
        <time>2022-08-28T00:47:31Z</time>
      </trkpt>
      <trkpt lat="47.5201" lon="-1.23598">
        <ele>35.6</ele>
        <time>2022-08-28T00:47:36Z</time>
      </trkpt>
      <trkpt lat="47.52" lon="-1.23592">
        <ele>35.6</ele>
        <time>2022-08-28T00:47:38Z</time>
      </trkpt>
      <trkpt lat="47.51966" lon="-1.23567">
        <ele>35.2</ele>
        <time>2022-08-28T00:47:44Z</time>
      </trkpt>
      <trkpt lat="47.51961" lon="-1.23563">
        <ele>35.2</ele>
        <time>2022-08-28T00:47:45Z</time>
      </trkpt>
      <trkpt lat="47.51939" lon="-1.23555">
        <ele>35</ele>
        <time>2022-08-28T00:47:49Z</time>
      </trkpt>
      <trkpt lat="47.51909" lon="-1.23548">
        <ele>34.8</ele>
        <time>2022-08-28T00:47:55Z</time>
      </trkpt>
      <trkpt lat="47.51879" lon="-1.2354">
        <ele>34.8</ele>
        <time>2022-08-28T00:48:02Z</time>
      </trkpt>
      <trkpt lat="47.51854" lon="-1.23535">
        <ele>35.6</ele>
        <time>2022-08-28T00:48:09Z</time>
      </trkpt>
      <trkpt lat="47.51828" lon="-1.23531">
        <ele>35.6</ele>
        <time>2022-08-28T00:48:16Z</time>
      </trkpt>
      <trkpt lat="47.51806" lon="-1.23527">
        <ele>36.4</ele>
        <time>2022-08-28T00:48:22Z</time>
      </trkpt>
      <trkpt lat="47.51789" lon="-1.2352">
        <ele>37</ele>
        <time>2022-08-28T00:48:28Z</time>
      </trkpt>
      <trkpt lat="47.5177" lon="-1.23503">
        <ele>37.6</ele>
        <time>2022-08-28T00:48:34Z</time>
      </trkpt>
      <trkpt lat="47.51767" lon="-1.235">
        <ele>37.8</ele>
        <time>2022-08-28T00:48:35Z</time>
      </trkpt>
      <trkpt lat="47.51761" lon="-1.23491">
        <ele>37.8</ele>
        <time>2022-08-28T00:48:37Z</time>
      </trkpt>
      <trkpt lat="47.51756" lon="-1.23483">
        <ele>38</ele>
        <time>2022-08-28T00:48:39Z</time>
      </trkpt>
      <trkpt lat="47.51742" lon="-1.23454">
        <ele>38</ele>
        <time>2022-08-28T00:48:45Z</time>
      </trkpt>
      <trkpt lat="47.51716" lon="-1.2343">
        <ele>37.8</ele>
        <time>2022-08-28T00:48:51Z</time>
      </trkpt>
      <trkpt lat="47.51705" lon="-1.23423">
        <ele>37.8</ele>
        <time>2022-08-28T00:48:53Z</time>
      </trkpt>
      <trkpt lat="47.51686" lon="-1.23418">
        <ele>37.8</ele>
        <time>2022-08-28T00:48:56Z</time>
      </trkpt>
      <trkpt lat="47.51646" lon="-1.23409">
        <ele>37.6</ele>
        <time>2022-08-28T00:49:02Z</time>
      </trkpt>
      <trkpt lat="47.51631" lon="-1.23407">
        <ele>37.6</ele>
        <time>2022-08-28T00:49:04Z</time>
      </trkpt>
      <trkpt lat="47.51617" lon="-1.23412">
        <ele>37.4</ele>
        <time>2022-08-28T00:49:06Z</time>
      </trkpt>
      <trkpt lat="47.51605" lon="-1.23419">
        <ele>37.2</ele>
        <time>2022-08-28T00:49:08Z</time>
      </trkpt>
      <trkpt lat="47.51594" lon="-1.23429">
        <ele>37.2</ele>
        <time>2022-08-28T00:49:10Z</time>
      </trkpt>
      <trkpt lat="47.51563" lon="-1.23455">
        <ele>37</ele>
        <time>2022-08-28T00:49:16Z</time>
      </trkpt>
      <trkpt lat="47.5153" lon="-1.23483">
        <ele>37</ele>
        <time>2022-08-28T00:49:23Z</time>
      </trkpt>
      <trkpt lat="47.51504" lon="-1.23506">
        <ele>36.8</ele>
        <time>2022-08-28T00:49:29Z</time>
      </trkpt>
      <trkpt lat="47.515" lon="-1.2351">
        <ele>36.8</ele>
        <time>2022-08-28T00:49:30Z</time>
      </trkpt>
      <trkpt lat="47.51495" lon="-1.23514">
        <ele>36.8</ele>
        <time>2022-08-28T00:49:31Z</time>
      </trkpt>
      <trkpt lat="47.51482" lon="-1.23526">
        <ele>36.8</ele>
        <time>2022-08-28T00:49:34Z</time>
      </trkpt>
      <trkpt lat="47.51473" lon="-1.23534">
        <ele>36.8</ele>
        <time>2022-08-28T00:49:36Z</time>
      </trkpt>
      <trkpt lat="47.51469" lon="-1.23538">
        <ele>36.8</ele>
        <time>2022-08-28T00:49:37Z</time>
      </trkpt>
      <trkpt lat="47.51459" lon="-1.23545">
        <ele>36.6</ele>
        <time>2022-08-28T00:49:39Z</time>
      </trkpt>
      <trkpt lat="47.51449" lon="-1.2355">
        <ele>36.8</ele>
        <time>2022-08-28T00:49:41Z</time>
      </trkpt>
      <trkpt lat="47.51415" lon="-1.23548">
        <ele>36.6</ele>
        <time>2022-08-28T00:49:47Z</time>
      </trkpt>
      <trkpt lat="47.51361" lon="-1.23538">
        <ele>36.4</ele>
        <time>2022-08-28T00:49:57Z</time>
      </trkpt>
      <trkpt lat="47.51316" lon="-1.2353">
        <ele>36.4</ele>
        <time>2022-08-28T00:50:06Z</time>
      </trkpt>
      <trkpt lat="47.51268" lon="-1.23521">
        <ele>36.8</ele>
        <time>2022-08-28T00:50:16Z</time>
      </trkpt>
      <trkpt lat="47.51231" lon="-1.23515">
        <ele>36.6</ele>
        <time>2022-08-28T00:50:23Z</time>
      </trkpt>
      <trkpt lat="47.51204" lon="-1.23513">
        <ele>36.2</ele>
        <time>2022-08-28T00:50:28Z</time>
      </trkpt>
      <trkpt lat="47.51189" lon="-1.23507">
        <ele>36</ele>
        <time>2022-08-28T00:50:31Z</time>
      </trkpt>
      <trkpt lat="47.51188" lon="-1.23502">
        <ele>35.8</ele>
        <time>2022-08-28T00:50:32Z</time>
      </trkpt>
      <trkpt lat="47.5119" lon="-1.23489">
        <ele>35.6</ele>
        <time>2022-08-28T00:50:34Z</time>
      </trkpt>
      <trkpt lat="47.51198" lon="-1.23474">
        <ele>35.6</ele>
        <time>2022-08-28T00:50:37Z</time>
      </trkpt>
      <trkpt lat="47.51207" lon="-1.23458">
        <ele>35.4</ele>
        <time>2022-08-28T00:50:40Z</time>
      </trkpt>
      <trkpt lat="47.51223" lon="-1.23431">
        <ele>35.4</ele>
        <time>2022-08-28T00:50:45Z</time>
      </trkpt>
      <trkpt lat="47.51246" lon="-1.23387">
        <ele>35.6</ele>
        <time>2022-08-28T00:50:53Z</time>
      </trkpt>
      <trkpt lat="47.51271" lon="-1.23339">
        <ele>36</ele>
        <time>2022-08-28T00:51:01Z</time>
      </trkpt>
      <trkpt lat="47.51286" lon="-1.23315">
        <ele>35.8</ele>
        <time>2022-08-28T00:51:05Z</time>
      </trkpt>
      <trkpt lat="47.51294" lon="-1.23303">
        <ele>35.6</ele>
        <time>2022-08-28T00:51:07Z</time>
      </trkpt>
      <trkpt lat="47.51304" lon="-1.23286">
        <ele>35.2</ele>
        <time>2022-08-28T00:51:10Z</time>
      </trkpt>
      <trkpt lat="47.51312" lon="-1.23273">
        <ele>35.4</ele>
        <time>2022-08-28T00:51:12Z</time>
      </trkpt>
      <trkpt lat="47.51327" lon="-1.23249">
        <ele>35.2</ele>
        <time>2022-08-28T00:51:16Z</time>
      </trkpt>
      <trkpt lat="47.5133" lon="-1.23238">
        <ele>35.2</ele>
        <time>2022-08-28T00:51:18Z</time>
      </trkpt>
      <trkpt lat="47.51325" lon="-1.23227">
        <ele>35</ele>
        <time>2022-08-28T00:51:21Z</time>
      </trkpt>
      <trkpt lat="47.51324" lon="-1.23225">
        <ele>34.8</ele>
        <time>2022-08-28T00:51:22Z</time>
      </trkpt>
      <trkpt lat="47.5132" lon="-1.23227">
        <ele>34.4</ele>
        <time>2022-08-28T00:51:24Z</time>
      </trkpt>
      <trkpt lat="47.51319" lon="-1.23229">
        <ele>34</ele>
        <time>2022-08-28T00:51:25Z</time>
      </trkpt>
      <trkpt lat="47.51311" lon="-1.23244">
        <ele>32.8</ele>
        <time>2022-08-28T00:51:29Z</time>
      </trkpt>
      <trkpt lat="47.513" lon="-1.23264">
        <ele>31.8</ele>
        <time>2022-08-28T00:51:33Z</time>
      </trkpt>
      <trkpt lat="47.51294" lon="-1.23274">
        <ele>31.2</ele>
        <time>2022-08-28T00:51:35Z</time>
      </trkpt>
      <trkpt lat="47.51279" lon="-1.23302">
        <ele>29.8</ele>
        <time>2022-08-28T00:51:40Z</time>
      </trkpt>
      <trkpt lat="47.51276" lon="-1.23309">
        <ele>29.6</ele>
        <time>2022-08-28T00:51:41Z</time>
      </trkpt>
      <trkpt lat="47.51272" lon="-1.23315">
        <ele>29.4</ele>
        <time>2022-08-28T00:51:42Z</time>
      </trkpt>
      <trkpt lat="47.51258" lon="-1.23341">
        <ele>28.8</ele>
        <time>2022-08-28T00:51:46Z</time>
      </trkpt>
      <trkpt lat="47.51234" lon="-1.23387">
        <ele>27.8</ele>
        <time>2022-08-28T00:51:53Z</time>
      </trkpt>
      <trkpt lat="47.51216" lon="-1.23419">
        <ele>27</ele>
        <time>2022-08-28T00:51:58Z</time>
      </trkpt>
      <trkpt lat="47.51212" lon="-1.23426">
        <ele>26.8</ele>
        <time>2022-08-28T00:51:59Z</time>
      </trkpt>
      <trkpt lat="47.51203" lon="-1.23444">
        <ele>26</ele>
        <time>2022-08-28T00:52:02Z</time>
      </trkpt>
      <trkpt lat="47.51196" lon="-1.23457">
        <ele>25.6</ele>
        <time>2022-08-28T00:52:04Z</time>
      </trkpt>
      <trkpt lat="47.51182" lon="-1.23482">
        <ele>25</ele>
        <time>2022-08-28T00:52:08Z</time>
      </trkpt>
      <trkpt lat="47.51175" lon="-1.23496">
        <ele>24.6</ele>
        <time>2022-08-28T00:52:10Z</time>
      </trkpt>
      <trkpt lat="47.51156" lon="-1.23529">
        <ele>24.4</ele>
        <time>2022-08-28T00:52:15Z</time>
      </trkpt>
      <trkpt lat="47.51124" lon="-1.23583">
        <ele>24.8</ele>
        <time>2022-08-28T00:52:23Z</time>
      </trkpt>
      <trkpt lat="47.51102" lon="-1.23623">
        <ele>23.8</ele>
        <time>2022-08-28T00:52:29Z</time>
      </trkpt>
      <trkpt lat="47.5107" lon="-1.23683">
        <ele>25.2</ele>
        <time>2022-08-28T00:52:38Z</time>
      </trkpt>
      <trkpt lat="47.51049" lon="-1.23722">
        <ele>25.2</ele>
        <time>2022-08-28T00:52:44Z</time>
      </trkpt>
      <trkpt lat="47.51045" lon="-1.23729">
        <ele>25.2</ele>
        <time>2022-08-28T00:52:45Z</time>
      </trkpt>
      <trkpt lat="47.51024" lon="-1.23767">
        <ele>24.4</ele>
        <time>2022-08-28T00:52:51Z</time>
      </trkpt>
      <trkpt lat="47.51003" lon="-1.23807">
        <ele>24.4</ele>
        <time>2022-08-28T00:52:57Z</time>
      </trkpt>
      <trkpt lat="47.50992" lon="-1.23827">
        <ele>24.2</ele>
        <time>2022-08-28T00:53:00Z</time>
      </trkpt>
      <trkpt lat="47.50981" lon="-1.23848">
        <ele>24.2</ele>
        <time>2022-08-28T00:53:03Z</time>
      </trkpt>
      <trkpt lat="47.50959" lon="-1.23889">
        <ele>24</ele>
        <time>2022-08-28T00:53:09Z</time>
      </trkpt>
      <trkpt lat="47.50955" lon="-1.23895">
        <ele>23.8</ele>
        <time>2022-08-28T00:53:10Z</time>
      </trkpt>
      <trkpt lat="47.50936" lon="-1.23927">
        <ele>23.4</ele>
        <time>2022-08-28T00:53:15Z</time>
      </trkpt>
      <trkpt lat="47.50932" lon="-1.23933">
        <ele>23.4</ele>
        <time>2022-08-28T00:53:16Z</time>
      </trkpt>
      <trkpt lat="47.50928" lon="-1.23939">
        <ele>23.4</ele>
        <time>2022-08-28T00:53:17Z</time>
      </trkpt>
      <trkpt lat="47.50916" lon="-1.23957">
        <ele>23.2</ele>
        <time>2022-08-28T00:53:20Z</time>
      </trkpt>
      <trkpt lat="47.50889" lon="-1.23998">
        <ele>22.4</ele>
        <time>2022-08-28T00:53:27Z</time>
      </trkpt>
      <trkpt lat="47.5087" lon="-1.24028">
        <ele>22</ele>
        <time>2022-08-28T00:53:32Z</time>
      </trkpt>
      <trkpt lat="47.50845" lon="-1.24063">
        <ele>21.6</ele>
        <time>2022-08-28T00:53:38Z</time>
      </trkpt>
      <trkpt lat="47.50841" lon="-1.24069">
        <ele>21.4</ele>
        <time>2022-08-28T00:53:39Z</time>
      </trkpt>
      <trkpt lat="47.50833" lon="-1.2408">
        <ele>21.4</ele>
        <time>2022-08-28T00:53:41Z</time>
      </trkpt>
      <trkpt lat="47.50825" lon="-1.24091">
        <ele>21.2</ele>
        <time>2022-08-28T00:53:43Z</time>
      </trkpt>
      <trkpt lat="47.50817" lon="-1.24102">
        <ele>21.2</ele>
        <time>2022-08-28T00:53:45Z</time>
      </trkpt>
      <trkpt lat="47.50799" lon="-1.24122">
        <ele>20.8</ele>
        <time>2022-08-28T00:53:49Z</time>
      </trkpt>
      <trkpt lat="47.50782" lon="-1.24143">
        <ele>20.6</ele>
        <time>2022-08-28T00:53:53Z</time>
      </trkpt>
      <trkpt lat="47.50777" lon="-1.24147">
        <ele>20.6</ele>
        <time>2022-08-28T00:53:54Z</time>
      </trkpt>
      <trkpt lat="47.50768" lon="-1.24155">
        <ele>20.4</ele>
        <time>2022-08-28T00:53:56Z</time>
      </trkpt>
      <trkpt lat="47.50754" lon="-1.24169">
        <ele>20.4</ele>
        <time>2022-08-28T00:53:59Z</time>
      </trkpt>
      <trkpt lat="47.50741" lon="-1.24181">
        <ele>20.4</ele>
        <time>2022-08-28T00:54:02Z</time>
      </trkpt>
      <trkpt lat="47.50737" lon="-1.24185">
        <ele>20.2</ele>
        <time>2022-08-28T00:54:03Z</time>
      </trkpt>
      <trkpt lat="47.50711" lon="-1.2421">
        <ele>19.8</ele>
        <time>2022-08-28T00:54:09Z</time>
      </trkpt>
      <trkpt lat="47.50689" lon="-1.2423">
        <ele>19.2</ele>
        <time>2022-08-28T00:54:14Z</time>
      </trkpt>
      <trkpt lat="47.50685" lon="-1.24234">
        <ele>19</ele>
        <time>2022-08-28T00:54:15Z</time>
      </trkpt>
      <trkpt lat="47.50672" lon="-1.24247">
        <ele>18.4</ele>
        <time>2022-08-28T00:54:18Z</time>
      </trkpt>
      <trkpt lat="47.50663" lon="-1.24255">
        <ele>18.2</ele>
        <time>2022-08-28T00:54:20Z</time>
      </trkpt>
      <trkpt lat="47.50655" lon="-1.24263">
        <ele>17.8</ele>
        <time>2022-08-28T00:54:22Z</time>
      </trkpt>
      <trkpt lat="47.50651" lon="-1.24267">
        <ele>17.8</ele>
        <time>2022-08-28T00:54:23Z</time>
      </trkpt>
      <trkpt lat="47.50646" lon="-1.24271">
        <ele>17.6</ele>
        <time>2022-08-28T00:54:24Z</time>
      </trkpt>
      <trkpt lat="47.50623" lon="-1.24291">
        <ele>17.2</ele>
        <time>2022-08-28T00:54:29Z</time>
      </trkpt>
      <trkpt lat="47.50598" lon="-1.24312">
        <ele>17.4</ele>
        <time>2022-08-28T00:54:34Z</time>
      </trkpt>
      <trkpt lat="47.50594" lon="-1.24316">
        <ele>17.4</ele>
        <time>2022-08-28T00:54:35Z</time>
      </trkpt>
      <trkpt lat="47.5059" lon="-1.2432">
        <ele>17.4</ele>
        <time>2022-08-28T00:54:36Z</time>
      </trkpt>
      <trkpt lat="47.50571" lon="-1.24335">
        <ele>17.6</ele>
        <time>2022-08-28T00:54:40Z</time>
      </trkpt>
      <trkpt lat="47.50558" lon="-1.24347">
        <ele>17.6</ele>
        <time>2022-08-28T00:54:43Z</time>
      </trkpt>
      <trkpt lat="47.50549" lon="-1.24355">
        <ele>17.6</ele>
        <time>2022-08-28T00:54:45Z</time>
      </trkpt>
      <trkpt lat="47.50519" lon="-1.24381">
        <ele>17</ele>
        <time>2022-08-28T00:54:52Z</time>
      </trkpt>
      <trkpt lat="47.50498" lon="-1.24399">
        <ele>17.6</ele>
        <time>2022-08-28T00:54:58Z</time>
      </trkpt>
      <trkpt lat="47.50495" lon="-1.24401">
        <ele>17.8</ele>
        <time>2022-08-28T00:54:59Z</time>
      </trkpt>
      <trkpt lat="47.50491" lon="-1.24404">
        <ele>18</ele>
        <time>2022-08-28T00:55:01Z</time>
      </trkpt>
      <trkpt lat="47.50478" lon="-1.24416">
        <ele>18.8</ele>
        <time>2022-08-28T00:55:07Z</time>
      </trkpt>
      <trkpt lat="47.50473" lon="-1.24419">
        <ele>18.8</ele>
        <time>2022-08-28T00:55:09Z</time>
      </trkpt>
      <trkpt lat="47.50468" lon="-1.24424">
        <ele>19.2</ele>
        <time>2022-08-28T00:55:11Z</time>
      </trkpt>
      <trkpt lat="47.50465" lon="-1.24426">
        <ele>19.4</ele>
        <time>2022-08-28T00:55:12Z</time>
      </trkpt>
      <trkpt lat="47.5046" lon="-1.24431">
        <ele>19.6</ele>
        <time>2022-08-28T00:55:14Z</time>
      </trkpt>
      <trkpt lat="47.50451" lon="-1.24439">
        <ele>19.8</ele>
        <time>2022-08-28T00:55:17Z</time>
      </trkpt>
      <trkpt lat="47.50447" lon="-1.24443">
        <ele>20</ele>
        <time>2022-08-28T00:55:18Z</time>
      </trkpt>
      <trkpt lat="47.50417" lon="-1.24469">
        <ele>20.8</ele>
        <time>2022-08-28T00:55:25Z</time>
      </trkpt>
      <trkpt lat="47.50413" lon="-1.24473">
        <ele>20.8</ele>
        <time>2022-08-28T00:55:26Z</time>
      </trkpt>
      <trkpt lat="47.5039" lon="-1.24492">
        <ele>21.2</ele>
        <time>2022-08-28T00:55:31Z</time>
      </trkpt>
      <trkpt lat="47.50372" lon="-1.24509">
        <ele>21.4</ele>
        <time>2022-08-28T00:55:35Z</time>
      </trkpt>
      <trkpt lat="47.50367" lon="-1.24513">
        <ele>21.4</ele>
        <time>2022-08-28T00:55:36Z</time>
      </trkpt>
      <trkpt lat="47.50339" lon="-1.24537">
        <ele>21.8</ele>
        <time>2022-08-28T00:55:42Z</time>
      </trkpt>
      <trkpt lat="47.50334" lon="-1.24541">
        <ele>21.8</ele>
        <time>2022-08-28T00:55:43Z</time>
      </trkpt>
      <trkpt lat="47.5032" lon="-1.24554">
        <ele>21.8</ele>
        <time>2022-08-28T00:55:46Z</time>
      </trkpt>
      <trkpt lat="47.50301" lon="-1.24571">
        <ele>21.8</ele>
        <time>2022-08-28T00:55:50Z</time>
      </trkpt>
      <trkpt lat="47.50271" lon="-1.24597">
        <ele>21.6</ele>
        <time>2022-08-28T00:55:56Z</time>
      </trkpt>
      <trkpt lat="47.50241" lon="-1.24623">
        <ele>21.4</ele>
        <time>2022-08-28T00:56:02Z</time>
      </trkpt>
      <trkpt lat="47.50231" lon="-1.24632">
        <ele>21.2</ele>
        <time>2022-08-28T00:56:04Z</time>
      </trkpt>
      <trkpt lat="47.50221" lon="-1.24641">
        <ele>21.2</ele>
        <time>2022-08-28T00:56:06Z</time>
      </trkpt>
      <trkpt lat="47.50188" lon="-1.24669">
        <ele>21.6</ele>
        <time>2022-08-28T00:56:12Z</time>
      </trkpt>
      <trkpt lat="47.50151" lon="-1.24702">
        <ele>21.8</ele>
        <time>2022-08-28T00:56:19Z</time>
      </trkpt>
      <trkpt lat="47.50146" lon="-1.24707">
        <ele>21.8</ele>
        <time>2022-08-28T00:56:20Z</time>
      </trkpt>
      <trkpt lat="47.50125" lon="-1.24725">
        <ele>21.8</ele>
        <time>2022-08-28T00:56:24Z</time>
      </trkpt>
      <trkpt lat="47.50087" lon="-1.24758">
        <ele>22.2</ele>
        <time>2022-08-28T00:56:31Z</time>
      </trkpt>
      <trkpt lat="47.50062" lon="-1.24781">
        <ele>22</ele>
        <time>2022-08-28T00:56:36Z</time>
      </trkpt>
      <trkpt lat="47.50056" lon="-1.24785">
        <ele>21.8</ele>
        <time>2022-08-28T00:56:37Z</time>
      </trkpt>
      <trkpt lat="47.50037" lon="-1.24802">
        <ele>21.6</ele>
        <time>2022-08-28T00:56:41Z</time>
      </trkpt>
      <trkpt lat="47.49995" lon="-1.24839">
        <ele>21</ele>
        <time>2022-08-28T00:56:49Z</time>
      </trkpt>
      <trkpt lat="47.49952" lon="-1.24877">
        <ele>20.8</ele>
        <time>2022-08-28T00:56:57Z</time>
      </trkpt>
      <trkpt lat="47.49909" lon="-1.24914">
        <ele>20.6</ele>
        <time>2022-08-28T00:57:05Z</time>
      </trkpt>
      <trkpt lat="47.49904" lon="-1.24919">
        <ele>20.6</ele>
        <time>2022-08-28T00:57:06Z</time>
      </trkpt>
      <trkpt lat="47.49883" lon="-1.24937">
        <ele>20.2</ele>
        <time>2022-08-28T00:57:10Z</time>
      </trkpt>
      <trkpt lat="47.49842" lon="-1.24973">
        <ele>20</ele>
        <time>2022-08-28T00:57:18Z</time>
      </trkpt>
      <trkpt lat="47.49815" lon="-1.24997">
        <ele>19.4</ele>
        <time>2022-08-28T00:57:24Z</time>
      </trkpt>
      <trkpt lat="47.49809" lon="-1.25002">
        <ele>19</ele>
        <time>2022-08-28T00:57:27Z</time>
      </trkpt>
      <trkpt lat="47.49808" lon="-1.25003">
        <ele>19</ele>
        <time>2022-08-28T00:57:28Z</time>
      </trkpt>
      <trkpt lat="47.49795" lon="-1.25014">
        <ele>19.2</ele>
        <time>2022-08-28T00:57:33Z</time>
      </trkpt>
      <trkpt lat="47.49793" lon="-1.25016">
        <ele>19.2</ele>
        <time>2022-08-28T00:57:34Z</time>
      </trkpt>
      <trkpt lat="47.49786" lon="-1.25023">
        <ele>19.4</ele>
        <time>2022-08-28T00:57:36Z</time>
      </trkpt>
      <trkpt lat="47.49781" lon="-1.25027">
        <ele>19.2</ele>
        <time>2022-08-28T00:57:37Z</time>
      </trkpt>
      <trkpt lat="47.49773" lon="-1.25035">
        <ele>19.2</ele>
        <time>2022-08-28T00:57:39Z</time>
      </trkpt>
      <trkpt lat="47.49768" lon="-1.25039">
        <ele>19</ele>
        <time>2022-08-28T00:57:40Z</time>
      </trkpt>
      <trkpt lat="47.4975" lon="-1.25056">
        <ele>18.6</ele>
        <time>2022-08-28T00:57:44Z</time>
      </trkpt>
      <trkpt lat="47.49745" lon="-1.2506">
        <ele>18.4</ele>
        <time>2022-08-28T00:57:45Z</time>
      </trkpt>
      <trkpt lat="47.49721" lon="-1.25083">
        <ele>17.8</ele>
        <time>2022-08-28T00:57:50Z</time>
      </trkpt>
      <trkpt lat="47.49705" lon="-1.25097">
        <ele>17.6</ele>
        <time>2022-08-28T00:57:53Z</time>
      </trkpt>
      <trkpt lat="47.4969" lon="-1.25111">
        <ele>17.4</ele>
        <time>2022-08-28T00:57:56Z</time>
      </trkpt>
      <trkpt lat="47.49654" lon="-1.25144">
        <ele>17</ele>
        <time>2022-08-28T00:58:03Z</time>
      </trkpt>
      <trkpt lat="47.49611" lon="-1.2518">
        <ele>17.4</ele>
        <time>2022-08-28T00:58:11Z</time>
      </trkpt>
      <trkpt lat="47.49568" lon="-1.25217">
        <ele>18.2</ele>
        <time>2022-08-28T00:58:19Z</time>
      </trkpt>
      <trkpt lat="47.49532" lon="-1.25249">
        <ele>18.6</ele>
        <time>2022-08-28T00:58:26Z</time>
      </trkpt>
      <trkpt lat="47.49497" lon="-1.25278">
        <ele>19.2</ele>
        <time>2022-08-28T00:58:33Z</time>
      </trkpt>
      <trkpt lat="47.49457" lon="-1.25311">
        <ele>19.6</ele>
        <time>2022-08-28T00:58:41Z</time>
      </trkpt>
      <trkpt lat="47.49418" lon="-1.25345">
        <ele>20.4</ele>
        <time>2022-08-28T00:58:49Z</time>
      </trkpt>
      <trkpt lat="47.49383" lon="-1.25375">
        <ele>20.6</ele>
        <time>2022-08-28T00:58:56Z</time>
      </trkpt>
      <trkpt lat="47.49353" lon="-1.25402">
        <ele>20.8</ele>
        <time>2022-08-28T00:59:02Z</time>
      </trkpt>
      <trkpt lat="47.49314" lon="-1.25437">
        <ele>21.6</ele>
        <time>2022-08-28T00:59:10Z</time>
      </trkpt>
      <trkpt lat="47.49274" lon="-1.25472">
        <ele>22.6</ele>
        <time>2022-08-28T00:59:18Z</time>
      </trkpt>
      <trkpt lat="47.49249" lon="-1.25494">
        <ele>22.8</ele>
        <time>2022-08-28T00:59:24Z</time>
      </trkpt>
      <trkpt lat="47.49246" lon="-1.25497">
        <ele>23</ele>
        <time>2022-08-28T00:59:25Z</time>
      </trkpt>
      <trkpt lat="47.49242" lon="-1.25501">
        <ele>23</ele>
        <time>2022-08-28T00:59:27Z</time>
      </trkpt>
      <trkpt lat="47.49233" lon="-1.25508">
        <ele>23.6</ele>
        <time>2022-08-28T00:59:32Z</time>
      </trkpt>
      <trkpt lat="47.49221" lon="-1.25519">
        <ele>24</ele>
        <time>2022-08-28T00:59:37Z</time>
      </trkpt>
      <trkpt lat="47.49195" lon="-1.25541">
        <ele>24.6</ele>
        <time>2022-08-28T00:59:43Z</time>
      </trkpt>
      <trkpt lat="47.49173" lon="-1.2556">
        <ele>25.2</ele>
        <time>2022-08-28T00:59:48Z</time>
      </trkpt>
      <trkpt lat="47.49161" lon="-1.25571">
        <ele>25.4</ele>
        <time>2022-08-28T00:59:51Z</time>
      </trkpt>
      <trkpt lat="47.49148" lon="-1.25581">
        <ele>25.8</ele>
        <time>2022-08-28T00:59:55Z</time>
      </trkpt>
      <trkpt lat="47.49122" lon="-1.25603">
        <ele>26.2</ele>
        <time>2022-08-28T01:00:01Z</time>
      </trkpt>
      <trkpt lat="47.49118" lon="-1.25607">
        <ele>26.2</ele>
        <time>2022-08-28T01:00:02Z</time>
      </trkpt>
      <trkpt lat="47.491" lon="-1.25623">
        <ele>26</ele>
        <time>2022-08-28T01:00:06Z</time>
      </trkpt>
      <trkpt lat="47.49062" lon="-1.25658">
        <ele>26</ele>
        <time>2022-08-28T01:00:14Z</time>
      </trkpt>
      <trkpt lat="47.49027" lon="-1.25689">
        <ele>26.2</ele>
        <time>2022-08-28T01:00:21Z</time>
      </trkpt>
      <trkpt lat="47.48996" lon="-1.25716">
        <ele>26.2</ele>
        <time>2022-08-28T01:00:27Z</time>
      </trkpt>
      <trkpt lat="47.48965" lon="-1.25743">
        <ele>26.2</ele>
        <time>2022-08-28T01:00:33Z</time>
      </trkpt>
      <trkpt lat="47.4893" lon="-1.25774">
        <ele>26</ele>
        <time>2022-08-28T01:00:40Z</time>
      </trkpt>
      <trkpt lat="47.489" lon="-1.25799">
        <ele>26</ele>
        <time>2022-08-28T01:00:46Z</time>
      </trkpt>
      <trkpt lat="47.48895" lon="-1.25803">
        <ele>26</ele>
        <time>2022-08-28T01:00:47Z</time>
      </trkpt>
      <trkpt lat="47.48875" lon="-1.25821">
        <ele>25.8</ele>
        <time>2022-08-28T01:00:51Z</time>
      </trkpt>
      <trkpt lat="47.4884" lon="-1.25852">
        <ele>25.4</ele>
        <time>2022-08-28T01:00:58Z</time>
      </trkpt>
      <trkpt lat="47.48804" lon="-1.25882">
        <ele>25</ele>
        <time>2022-08-28T01:01:05Z</time>
      </trkpt>
      <trkpt lat="47.48776" lon="-1.25907">
        <ele>24.6</ele>
        <time>2022-08-28T01:01:11Z</time>
      </trkpt>
      <trkpt lat="47.48771" lon="-1.25912">
        <ele>24.6</ele>
        <time>2022-08-28T01:01:12Z</time>
      </trkpt>
      <trkpt lat="47.48737" lon="-1.25941">
        <ele>23.6</ele>
        <time>2022-08-28T01:01:19Z</time>
      </trkpt>
      <trkpt lat="47.48712" lon="-1.25963">
        <ele>23</ele>
        <time>2022-08-28T01:01:24Z</time>
      </trkpt>
      <trkpt lat="47.48702" lon="-1.25971">
        <ele>22.8</ele>
        <time>2022-08-28T01:01:26Z</time>
      </trkpt>
      <trkpt lat="47.48668" lon="-1.26001">
        <ele>21.8</ele>
        <time>2022-08-28T01:01:33Z</time>
      </trkpt>
      <trkpt lat="47.48639" lon="-1.26026">
        <ele>21.4</ele>
        <time>2022-08-28T01:01:39Z</time>
      </trkpt>
      <trkpt lat="47.48624" lon="-1.26039">
        <ele>21.2</ele>
        <time>2022-08-28T01:01:42Z</time>
      </trkpt>
      <trkpt lat="47.48609" lon="-1.26052">
        <ele>20.8</ele>
        <time>2022-08-28T01:01:45Z</time>
      </trkpt>
      <trkpt lat="47.48578" lon="-1.26079">
        <ele>20.4</ele>
        <time>2022-08-28T01:01:51Z</time>
      </trkpt>
      <trkpt lat="47.48544" lon="-1.26109">
        <ele>19.8</ele>
        <time>2022-08-28T01:01:58Z</time>
      </trkpt>
      <trkpt lat="47.48538" lon="-1.26114">
        <ele>19.8</ele>
        <time>2022-08-28T01:01:59Z</time>
      </trkpt>
      <trkpt lat="47.48523" lon="-1.26127">
        <ele>19.4</ele>
        <time>2022-08-28T01:02:02Z</time>
      </trkpt>
      <trkpt lat="47.48518" lon="-1.26131">
        <ele>19.2</ele>
        <time>2022-08-28T01:02:03Z</time>
      </trkpt>
      <trkpt lat="47.48476" lon="-1.26168">
        <ele>19</ele>
        <time>2022-08-28T01:02:11Z</time>
      </trkpt>
      <trkpt lat="47.48461" lon="-1.26181">
        <ele>18.6</ele>
        <time>2022-08-28T01:02:15Z</time>
      </trkpt>
      <trkpt lat="47.48459" lon="-1.26183">
        <ele>18.4</ele>
        <time>2022-08-28T01:02:16Z</time>
      </trkpt>
      <trkpt lat="47.48455" lon="-1.26186">
        <ele>18</ele>
        <time>2022-08-28T01:02:18Z</time>
      </trkpt>
      <trkpt lat="47.48447" lon="-1.26193">
        <ele>18.2</ele>
        <time>2022-08-28T01:02:21Z</time>
      </trkpt>
      <trkpt lat="47.48445" lon="-1.26195">
        <ele>18.2</ele>
        <time>2022-08-28T01:02:22Z</time>
      </trkpt>
      <trkpt lat="47.48442" lon="-1.26198">
        <ele>18.2</ele>
        <time>2022-08-28T01:02:23Z</time>
      </trkpt>
      <trkpt lat="47.48434" lon="-1.26205">
        <ele>18.4</ele>
        <time>2022-08-28T01:02:25Z</time>
      </trkpt>
      <trkpt lat="47.4843" lon="-1.26208">
        <ele>18.4</ele>
        <time>2022-08-28T01:02:26Z</time>
      </trkpt>
      <trkpt lat="47.48416" lon="-1.26221">
        <ele>18.4</ele>
        <time>2022-08-28T01:02:29Z</time>
      </trkpt>
      <trkpt lat="47.48411" lon="-1.26225">
        <ele>18.4</ele>
        <time>2022-08-28T01:02:30Z</time>
      </trkpt>
      <trkpt lat="47.48382" lon="-1.26252">
        <ele>19</ele>
        <time>2022-08-28T01:02:36Z</time>
      </trkpt>
      <trkpt lat="47.48339" lon="-1.26291">
        <ele>19.6</ele>
        <time>2022-08-28T01:02:45Z</time>
      </trkpt>
      <trkpt lat="47.48303" lon="-1.26323">
        <ele>20.4</ele>
        <time>2022-08-28T01:02:53Z</time>
      </trkpt>
      <trkpt lat="47.48274" lon="-1.26348">
        <ele>21</ele>
        <time>2022-08-28T01:03:00Z</time>
      </trkpt>
      <trkpt lat="47.48245" lon="-1.26374">
        <ele>21.2</ele>
        <time>2022-08-28T01:03:07Z</time>
      </trkpt>
      <trkpt lat="47.48219" lon="-1.26397">
        <ele>21.2</ele>
        <time>2022-08-28T01:03:13Z</time>
      </trkpt>
      <trkpt lat="47.48184" lon="-1.26427">
        <ele>21</ele>
        <time>2022-08-28T01:03:21Z</time>
      </trkpt>
      <trkpt lat="47.48148" lon="-1.26457">
        <ele>20.6</ele>
        <time>2022-08-28T01:03:29Z</time>
      </trkpt>
      <trkpt lat="47.48122" lon="-1.26481">
        <ele>20</ele>
        <time>2022-08-28T01:03:35Z</time>
      </trkpt>
      <trkpt lat="47.48087" lon="-1.2651">
        <ele>19.6</ele>
        <time>2022-08-28T01:03:43Z</time>
      </trkpt>
      <trkpt lat="47.48057" lon="-1.26537">
        <ele>19</ele>
        <time>2022-08-28T01:03:51Z</time>
      </trkpt>
      <trkpt lat="47.4805" lon="-1.26542">
        <ele>19</ele>
        <time>2022-08-28T01:03:54Z</time>
      </trkpt>
      <trkpt lat="47.48042" lon="-1.2655">
        <ele>18.8</ele>
        <time>2022-08-28T01:03:58Z</time>
      </trkpt>
      <trkpt lat="47.48035" lon="-1.26556">
        <ele>18.8</ele>
        <time>2022-08-28T01:04:01Z</time>
      </trkpt>
      <trkpt lat="47.4803" lon="-1.2656">
        <ele>18.8</ele>
        <time>2022-08-28T01:04:03Z</time>
      </trkpt>
      <trkpt lat="47.48017" lon="-1.26572">
        <ele>18</ele>
        <time>2022-08-28T01:04:07Z</time>
      </trkpt>
      <trkpt lat="47.48003" lon="-1.26584">
        <ele>17.2</ele>
        <time>2022-08-28T01:04:11Z</time>
      </trkpt>
      <trkpt lat="47.47984" lon="-1.26601">
        <ele>16.8</ele>
        <time>2022-08-28T01:04:16Z</time>
      </trkpt>
      <trkpt lat="47.47959" lon="-1.26623">
        <ele>16.4</ele>
        <time>2022-08-28T01:04:22Z</time>
      </trkpt>
      <trkpt lat="47.4795" lon="-1.26631">
        <ele>16.2</ele>
        <time>2022-08-28T01:04:24Z</time>
      </trkpt>
      <trkpt lat="47.47933" lon="-1.26647">
        <ele>15.8</ele>
        <time>2022-08-28T01:04:28Z</time>
      </trkpt>
      <trkpt lat="47.47913" lon="-1.26664">
        <ele>15.6</ele>
        <time>2022-08-28T01:04:32Z</time>
      </trkpt>
      <trkpt lat="47.47903" lon="-1.26673">
        <ele>15.8</ele>
        <time>2022-08-28T01:04:34Z</time>
      </trkpt>
      <trkpt lat="47.47894" lon="-1.26681">
        <ele>15.8</ele>
        <time>2022-08-28T01:04:36Z</time>
      </trkpt>
      <trkpt lat="47.47876" lon="-1.26697">
        <ele>16</ele>
        <time>2022-08-28T01:04:40Z</time>
      </trkpt>
      <trkpt lat="47.47844" lon="-1.26726">
        <ele>15.8</ele>
        <time>2022-08-28T01:04:47Z</time>
      </trkpt>
      <trkpt lat="47.47816" lon="-1.2675">
        <ele>15.8</ele>
        <time>2022-08-28T01:04:53Z</time>
      </trkpt>
      <trkpt lat="47.47789" lon="-1.26773">
        <ele>15</ele>
        <time>2022-08-28T01:04:59Z</time>
      </trkpt>
      <trkpt lat="47.47762" lon="-1.26797">
        <ele>14.2</ele>
        <time>2022-08-28T01:05:05Z</time>
      </trkpt>
      <trkpt lat="47.47729" lon="-1.26824">
        <ele>13.4</ele>
        <time>2022-08-28T01:05:12Z</time>
      </trkpt>
      <trkpt lat="47.47692" lon="-1.26856">
        <ele>13.2</ele>
        <time>2022-08-28T01:05:20Z</time>
      </trkpt>
      <trkpt lat="47.47664" lon="-1.26881">
        <ele>13</ele>
        <time>2022-08-28T01:05:27Z</time>
      </trkpt>
      <trkpt lat="47.47655" lon="-1.26888">
        <ele>12.6</ele>
        <time>2022-08-28T01:05:31Z</time>
      </trkpt>
      <trkpt lat="47.47638" lon="-1.26903">
        <ele>12</ele>
        <time>2022-08-28T01:05:36Z</time>
      </trkpt>
      <trkpt lat="47.47626" lon="-1.26914">
        <ele>11.8</ele>
        <time>2022-08-28T01:05:39Z</time>
      </trkpt>
      <trkpt lat="47.47622" lon="-1.26917">
        <ele>11.8</ele>
        <time>2022-08-28T01:05:40Z</time>
      </trkpt>
      <trkpt lat="47.47619" lon="-1.2692">
        <ele>11.6</ele>
        <time>2022-08-28T01:05:41Z</time>
      </trkpt>
      <trkpt lat="47.47612" lon="-1.26926">
        <ele>11.6</ele>
        <time>2022-08-28T01:05:43Z</time>
      </trkpt>
      <trkpt lat="47.47594" lon="-1.26942">
        <ele>11.6</ele>
        <time>2022-08-28T01:05:47Z</time>
      </trkpt>
      <trkpt lat="47.47567" lon="-1.26968">
        <ele>11.8</ele>
        <time>2022-08-28T01:05:52Z</time>
      </trkpt>
      <trkpt lat="47.47534" lon="-1.26994">
        <ele>11.4</ele>
        <time>2022-08-28T01:05:58Z</time>
      </trkpt>
      <trkpt lat="47.47523" lon="-1.27003">
        <ele>11.8</ele>
        <time>2022-08-28T01:06:00Z</time>
      </trkpt>
      <trkpt lat="47.4749" lon="-1.27029">
        <ele>11.8</ele>
        <time>2022-08-28T01:06:06Z</time>
      </trkpt>
      <trkpt lat="47.47465" lon="-1.27051">
        <ele>11.6</ele>
        <time>2022-08-28T01:06:11Z</time>
      </trkpt>
      <trkpt lat="47.4746" lon="-1.27056">
        <ele>11.8</ele>
        <time>2022-08-28T01:06:12Z</time>
      </trkpt>
      <trkpt lat="47.47433" lon="-1.2708">
        <ele>12</ele>
        <time>2022-08-28T01:06:17Z</time>
      </trkpt>
      <trkpt lat="47.47401" lon="-1.27108">
        <ele>12</ele>
        <time>2022-08-28T01:06:23Z</time>
      </trkpt>
      <trkpt lat="47.4737" lon="-1.27135">
        <ele>12.4</ele>
        <time>2022-08-28T01:06:29Z</time>
      </trkpt>
      <trkpt lat="47.47339" lon="-1.27163">
        <ele>12.6</ele>
        <time>2022-08-28T01:06:35Z</time>
      </trkpt>
      <trkpt lat="47.47315" lon="-1.27184">
        <ele>12.8</ele>
        <time>2022-08-28T01:06:40Z</time>
      </trkpt>
      <trkpt lat="47.47311" lon="-1.27188">
        <ele>12.8</ele>
        <time>2022-08-28T01:06:41Z</time>
      </trkpt>
      <trkpt lat="47.47284" lon="-1.27212">
        <ele>13</ele>
        <time>2022-08-28T01:06:47Z</time>
      </trkpt>
      <trkpt lat="47.47248" lon="-1.27244">
        <ele>13.4</ele>
        <time>2022-08-28T01:06:55Z</time>
      </trkpt>
      <trkpt lat="47.47229" lon="-1.27261">
        <ele>13.6</ele>
        <time>2022-08-28T01:07:00Z</time>
      </trkpt>
      <trkpt lat="47.47221" lon="-1.27268">
        <ele>14</ele>
        <time>2022-08-28T01:07:03Z</time>
      </trkpt>
      <trkpt lat="47.47217" lon="-1.27272">
        <ele>14.4</ele>
        <time>2022-08-28T01:07:07Z</time>
      </trkpt>
      <trkpt lat="47.47214" lon="-1.27274">
        <ele>14.6</ele>
        <time>2022-08-28T01:07:11Z</time>
      </trkpt>
      <trkpt lat="47.4721" lon="-1.27278">
        <ele>14.8</ele>
        <time>2022-08-28T01:07:13Z</time>
      </trkpt>
      <trkpt lat="47.47208" lon="-1.2728">
        <ele>14.8</ele>
        <time>2022-08-28T01:07:14Z</time>
      </trkpt>
      <trkpt lat="47.47202" lon="-1.27285">
        <ele>15.2</ele>
        <time>2022-08-28T01:07:16Z</time>
      </trkpt>
      <trkpt lat="47.47199" lon="-1.27288">
        <ele>15.2</ele>
        <time>2022-08-28T01:07:17Z</time>
      </trkpt>
      <trkpt lat="47.47181" lon="-1.27303">
        <ele>16</ele>
        <time>2022-08-28T01:07:22Z</time>
      </trkpt>
      <trkpt lat="47.47157" lon="-1.27324">
        <ele>17</ele>
        <time>2022-08-28T01:07:29Z</time>
      </trkpt>
      <trkpt lat="47.47147" lon="-1.27333">
        <ele>17.4</ele>
        <time>2022-08-28T01:07:33Z</time>
      </trkpt>
      <trkpt lat="47.47124" lon="-1.27353">
        <ele>18</ele>
        <time>2022-08-28T01:07:39Z</time>
      </trkpt>
      <trkpt lat="47.47101" lon="-1.27372">
        <ele>18.4</ele>
        <time>2022-08-28T01:07:43Z</time>
      </trkpt>
      <trkpt lat="47.4709" lon="-1.27382">
        <ele>18.4</ele>
        <time>2022-08-28T01:07:45Z</time>
      </trkpt>
      <trkpt lat="47.47061" lon="-1.27407">
        <ele>18.6</ele>
        <time>2022-08-28T01:07:50Z</time>
      </trkpt>
      <trkpt lat="47.47032" lon="-1.27432">
        <ele>18.8</ele>
        <time>2022-08-28T01:07:55Z</time>
      </trkpt>
      <trkpt lat="47.47004" lon="-1.27456">
        <ele>18.8</ele>
        <time>2022-08-28T01:08:00Z</time>
      </trkpt>
      <trkpt lat="47.46965" lon="-1.2749">
        <ele>18.8</ele>
        <time>2022-08-28T01:08:07Z</time>
      </trkpt>
      <trkpt lat="47.46937" lon="-1.27514">
        <ele>18.2</ele>
        <time>2022-08-28T01:08:12Z</time>
      </trkpt>
      <trkpt lat="47.46904" lon="-1.27543">
        <ele>17.8</ele>
        <time>2022-08-28T01:08:18Z</time>
      </trkpt>
      <trkpt lat="47.46864" lon="-1.27577">
        <ele>17.2</ele>
        <time>2022-08-28T01:08:25Z</time>
      </trkpt>
      <trkpt lat="47.46829" lon="-1.27608">
        <ele>16.8</ele>
        <time>2022-08-28T01:08:31Z</time>
      </trkpt>
      <trkpt lat="47.46788" lon="-1.27643">
        <ele>16.8</ele>
        <time>2022-08-28T01:08:38Z</time>
      </trkpt>
      <trkpt lat="47.46753" lon="-1.27673">
        <ele>16.4</ele>
        <time>2022-08-28T01:08:44Z</time>
      </trkpt>
      <trkpt lat="47.46725" lon="-1.27697">
        <ele>16.4</ele>
        <time>2022-08-28T01:08:49Z</time>
      </trkpt>
      <trkpt lat="47.4672" lon="-1.27702">
        <ele>16.4</ele>
        <time>2022-08-28T01:08:50Z</time>
      </trkpt>
      <trkpt lat="47.46684" lon="-1.27738">
        <ele>16.4</ele>
        <time>2022-08-28T01:08:57Z</time>
      </trkpt>
      <trkpt lat="47.46655" lon="-1.27768">
        <ele>16</ele>
        <time>2022-08-28T01:09:03Z</time>
      </trkpt>
      <trkpt lat="47.46631" lon="-1.27792">
        <ele>16</ele>
        <time>2022-08-28T01:09:08Z</time>
      </trkpt>
      <trkpt lat="47.46608" lon="-1.27815">
        <ele>16</ele>
        <time>2022-08-28T01:09:13Z</time>
      </trkpt>
      <trkpt lat="47.4659" lon="-1.27834">
        <ele>15.8</ele>
        <time>2022-08-28T01:09:18Z</time>
      </trkpt>
      <trkpt lat="47.46581" lon="-1.27843">
        <ele>15.8</ele>
        <time>2022-08-28T01:09:21Z</time>
      </trkpt>
      <trkpt lat="47.46571" lon="-1.27852">
        <ele>16</ele>
        <time>2022-08-28T01:09:25Z</time>
      </trkpt>
      <trkpt lat="47.46568" lon="-1.27855">
        <ele>16</ele>
        <time>2022-08-28T01:09:27Z</time>
      </trkpt>
      <trkpt lat="47.46566" lon="-1.27857">
        <ele>16</ele>
        <time>2022-08-28T01:09:28Z</time>
      </trkpt>
      <trkpt lat="47.4655" lon="-1.27874">
        <ele>16.4</ele>
        <time>2022-08-28T01:09:33Z</time>
      </trkpt>
      <trkpt lat="47.46533" lon="-1.27891">
        <ele>17</ele>
        <time>2022-08-28T01:09:38Z</time>
      </trkpt>
      <trkpt lat="47.46528" lon="-1.27896">
        <ele>17.4</ele>
        <time>2022-08-28T01:09:40Z</time>
      </trkpt>
      <trkpt lat="47.46523" lon="-1.27901">
        <ele>17.6</ele>
        <time>2022-08-28T01:09:42Z</time>
      </trkpt>
      <trkpt lat="47.46514" lon="-1.2791">
        <ele>17.8</ele>
        <time>2022-08-28T01:09:45Z</time>
      </trkpt>
      <trkpt lat="47.46506" lon="-1.27918">
        <ele>17.8</ele>
        <time>2022-08-28T01:09:47Z</time>
      </trkpt>
      <trkpt lat="47.46498" lon="-1.27926">
        <ele>17.8</ele>
        <time>2022-08-28T01:09:49Z</time>
      </trkpt>
      <trkpt lat="47.4649" lon="-1.27935">
        <ele>18</ele>
        <time>2022-08-28T01:09:51Z</time>
      </trkpt>
      <trkpt lat="47.46469" lon="-1.27956">
        <ele>18.8</ele>
        <time>2022-08-28T01:09:56Z</time>
      </trkpt>
      <trkpt lat="47.46439" lon="-1.27986">
        <ele>19.6</ele>
        <time>2022-08-28T01:10:03Z</time>
      </trkpt>
      <trkpt lat="47.46412" lon="-1.28016">
        <ele>20.6</ele>
        <time>2022-08-28T01:10:10Z</time>
      </trkpt>
      <trkpt lat="47.46408" lon="-1.28019">
        <ele>20.6</ele>
        <time>2022-08-28T01:10:11Z</time>
      </trkpt>
      <trkpt lat="47.46396" lon="-1.28032">
        <ele>21</ele>
        <time>2022-08-28T01:10:15Z</time>
      </trkpt>
      <trkpt lat="47.46393" lon="-1.28035">
        <ele>21</ele>
        <time>2022-08-28T01:10:16Z</time>
      </trkpt>
      <trkpt lat="47.46387" lon="-1.28041">
        <ele>21</ele>
        <time>2022-08-28T01:10:18Z</time>
      </trkpt>
      <trkpt lat="47.46373" lon="-1.2806">
        <ele>21.6</ele>
        <time>2022-08-28T01:10:24Z</time>
      </trkpt>
      <trkpt lat="47.46357" lon="-1.28062">
        <ele>22.4</ele>
        <time>2022-08-28T01:10:28Z</time>
      </trkpt>
      <trkpt lat="47.46339" lon="-1.28067">
        <ele>23.4</ele>
        <time>2022-08-28T01:10:33Z</time>
      </trkpt>
      <trkpt lat="47.46326" lon="-1.28076">
        <ele>24.2</ele>
        <time>2022-08-28T01:10:37Z</time>
      </trkpt>
      <trkpt lat="47.46326" lon="-1.28077">
        <ele>24.4</ele>
        <time>2022-08-28T01:10:38Z</time>
      </trkpt>
      <trkpt lat="47.46326" lon="-1.28082">
        <ele>24.6</ele>
        <time>2022-08-28T01:10:40Z</time>
      </trkpt>
      <trkpt lat="47.46325" lon="-1.2809">
        <ele>24.8</ele>
        <time>2022-08-28T01:10:42Z</time>
      </trkpt>
      <trkpt lat="47.46324" lon="-1.28098">
        <ele>24.8</ele>
        <time>2022-08-28T01:10:44Z</time>
      </trkpt>
      <trkpt lat="47.46325" lon="-1.28107">
        <ele>24.8</ele>
        <time>2022-08-28T01:10:46Z</time>
      </trkpt>
      <trkpt lat="47.46329" lon="-1.28116">
        <ele>25</ele>
        <time>2022-08-28T01:10:49Z</time>
      </trkpt>
      <trkpt lat="47.46329" lon="-1.28121">
        <ele>24.8</ele>
        <time>2022-08-28T01:10:51Z</time>
      </trkpt>
      <trkpt lat="47.46329" lon="-1.28123">
        <ele>24.8</ele>
        <time>2022-08-28T01:10:52Z</time>
      </trkpt>
      <trkpt lat="47.46327" lon="-1.28132">
        <ele>24.8</ele>
        <time>2022-08-28T01:10:54Z</time>
      </trkpt>
      <trkpt lat="47.46316" lon="-1.28147">
        <ele>24.4</ele>
        <time>2022-08-28T01:10:59Z</time>
      </trkpt>
      <trkpt lat="47.46311" lon="-1.28155">
        <ele>23.8</ele>
        <time>2022-08-28T01:11:01Z</time>
      </trkpt>
      <trkpt lat="47.4631" lon="-1.28157">
        <ele>23</ele>
        <time>2022-08-28T01:11:02Z</time>
      </trkpt>
      <trkpt lat="47.46298" lon="-1.28181">
        <ele>23.2</ele>
        <time>2022-08-28T01:11:07Z</time>
      </trkpt>
      <trkpt lat="47.46282" lon="-1.28199">
        <ele>25</ele>
        <time>2022-08-28T01:11:13Z</time>
      </trkpt>
      <trkpt lat="47.46265" lon="-1.28217">
        <ele>25.6</ele>
        <time>2022-08-28T01:11:19Z</time>
      </trkpt>
      <trkpt lat="47.46248" lon="-1.28235">
        <ele>26.6</ele>
        <time>2022-08-28T01:11:25Z</time>
      </trkpt>
      <trkpt lat="47.46233" lon="-1.2825">
        <ele>27.2</ele>
        <time>2022-08-28T01:11:30Z</time>
      </trkpt>
      <trkpt lat="47.46233" lon="-1.2825">
        <ele>27.2</ele>
        <time>2022-08-28T01:11:31Z</time>
      </trkpt>
      <trkpt lat="47.4623" lon="-1.28238">
        <ele>27.6</ele>
        <time>2022-08-28T01:11:35Z</time>
      </trkpt>
      <trkpt lat="47.46231" lon="-1.28229">
        <ele>27.4</ele>
        <time>2022-08-28T01:11:37Z</time>
      </trkpt>
      <trkpt lat="47.46231" lon="-1.28225">
        <ele>27.4</ele>
        <time>2022-08-28T01:11:38Z</time>
      </trkpt>
      <trkpt lat="47.46228" lon="-1.28211">
        <ele>27.4</ele>
        <time>2022-08-28T01:11:41Z</time>
      </trkpt>
      <trkpt lat="47.46222" lon="-1.28199">
        <ele>27.4</ele>
        <time>2022-08-28T01:11:42Z</time>
      </trkpt>
      <trkpt lat="47.46217" lon="-1.28204">
        <ele>27.4</ele>
        <time>2022-08-28T01:11:44Z</time>
      </trkpt>
      <trkpt lat="47.46216" lon="-1.2821">
        <ele>27.4</ele>
        <time>2022-08-28T01:11:45Z</time>
      </trkpt>
      <trkpt lat="47.46216" lon="-1.28213">
        <ele>27.2</ele>
        <time>2022-08-28T01:11:46Z</time>
      </trkpt>
      <trkpt lat="47.46215" lon="-1.2822">
        <ele>27.2</ele>
        <time>2022-08-28T01:11:48Z</time>
      </trkpt>
      <trkpt lat="47.46204" lon="-1.28234">
        <ele>26</ele>
        <time>2022-08-28T01:11:51Z</time>
      </trkpt>
      <trkpt lat="47.46177" lon="-1.28263">
        <ele>26.2</ele>
        <time>2022-08-28T01:11:57Z</time>
      </trkpt>
      <trkpt lat="47.46152" lon="-1.28289">
        <ele>27.2</ele>
        <time>2022-08-28T01:12:03Z</time>
      </trkpt>
      <trkpt lat="47.46136" lon="-1.28305">
        <ele>27.6</ele>
        <time>2022-08-28T01:12:07Z</time>
      </trkpt>
      <trkpt lat="47.46128" lon="-1.28313">
        <ele>27.8</ele>
        <time>2022-08-28T01:12:09Z</time>
      </trkpt>
      <trkpt lat="47.46092" lon="-1.28351">
        <ele>28.6</ele>
        <time>2022-08-28T01:12:18Z</time>
      </trkpt>
      <trkpt lat="47.46067" lon="-1.28377">
        <ele>29.2</ele>
        <time>2022-08-28T01:12:24Z</time>
      </trkpt>
      <trkpt lat="47.46039" lon="-1.28406">
        <ele>30</ele>
        <time>2022-08-28T01:12:31Z</time>
      </trkpt>
      <trkpt lat="47.4601" lon="-1.28434">
        <ele>30.8</ele>
        <time>2022-08-28T01:12:38Z</time>
      </trkpt>
      <trkpt lat="47.45982" lon="-1.28457">
        <ele>31.4</ele>
        <time>2022-08-28T01:12:44Z</time>
      </trkpt>
      <trkpt lat="47.45976" lon="-1.28461">
        <ele>31.4</ele>
        <time>2022-08-28T01:12:45Z</time>
      </trkpt>
      <trkpt lat="47.45962" lon="-1.28474">
        <ele>31.6</ele>
        <time>2022-08-28T01:12:48Z</time>
      </trkpt>
      <trkpt lat="47.45947" lon="-1.28488">
        <ele>31.6</ele>
        <time>2022-08-28T01:12:51Z</time>
      </trkpt>
      <trkpt lat="47.45937" lon="-1.28498">
        <ele>31.6</ele>
        <time>2022-08-28T01:12:53Z</time>
      </trkpt>
      <trkpt lat="47.45913" lon="-1.28524">
        <ele>31.8</ele>
        <time>2022-08-28T01:12:58Z</time>
      </trkpt>
      <trkpt lat="47.45908" lon="-1.28529">
        <ele>31.8</ele>
        <time>2022-08-28T01:12:59Z</time>
      </trkpt>
      <trkpt lat="47.45882" lon="-1.28556">
        <ele>32</ele>
        <time>2022-08-28T01:13:04Z</time>
      </trkpt>
      <trkpt lat="47.45851" lon="-1.28588">
        <ele>32</ele>
        <time>2022-08-28T01:13:10Z</time>
      </trkpt>
      <trkpt lat="47.45825" lon="-1.28615">
        <ele>32</ele>
        <time>2022-08-28T01:13:15Z</time>
      </trkpt>
      <trkpt lat="47.45794" lon="-1.28648">
        <ele>32</ele>
        <time>2022-08-28T01:13:21Z</time>
      </trkpt>
      <trkpt lat="47.45761" lon="-1.28681">
        <ele>31.8</ele>
        <time>2022-08-28T01:13:27Z</time>
      </trkpt>
      <trkpt lat="47.45735" lon="-1.28708">
        <ele>31.6</ele>
        <time>2022-08-28T01:13:32Z</time>
      </trkpt>
      <trkpt lat="47.45704" lon="-1.28739">
        <ele>31.4</ele>
        <time>2022-08-28T01:13:38Z</time>
      </trkpt>
      <trkpt lat="47.45683" lon="-1.2876">
        <ele>31.4</ele>
        <time>2022-08-28T01:13:42Z</time>
      </trkpt>
      <trkpt lat="47.45673" lon="-1.2877">
        <ele>31.4</ele>
        <time>2022-08-28T01:13:44Z</time>
      </trkpt>
      <trkpt lat="47.45655" lon="-1.28788">
        <ele>31</ele>
        <time>2022-08-28T01:13:48Z</time>
      </trkpt>
      <trkpt lat="47.45652" lon="-1.28791">
        <ele>31</ele>
        <time>2022-08-28T01:13:49Z</time>
      </trkpt>
      <trkpt lat="47.45649" lon="-1.28793">
        <ele>30.8</ele>
        <time>2022-08-28T01:13:50Z</time>
      </trkpt>
      <trkpt lat="47.45645" lon="-1.28798">
        <ele>30.6</ele>
        <time>2022-08-28T01:13:52Z</time>
      </trkpt>
      <trkpt lat="47.45642" lon="-1.288">
        <ele>30.6</ele>
        <time>2022-08-28T01:13:53Z</time>
      </trkpt>
      <trkpt lat="47.45634" lon="-1.28809">
        <ele>30.4</ele>
        <time>2022-08-28T01:13:56Z</time>
      </trkpt>
      <trkpt lat="47.45625" lon="-1.28818">
        <ele>30.2</ele>
        <time>2022-08-28T01:13:59Z</time>
      </trkpt>
      <trkpt lat="47.45617" lon="-1.28826">
        <ele>30</ele>
        <time>2022-08-28T01:14:01Z</time>
      </trkpt>
      <trkpt lat="47.45603" lon="-1.2884">
        <ele>29.6</ele>
        <time>2022-08-28T01:14:04Z</time>
      </trkpt>
      <trkpt lat="47.45594" lon="-1.28849">
        <ele>29.4</ele>
        <time>2022-08-28T01:14:06Z</time>
      </trkpt>
      <trkpt lat="47.45585" lon="-1.28858">
        <ele>29.2</ele>
        <time>2022-08-28T01:14:08Z</time>
      </trkpt>
      <trkpt lat="47.45576" lon="-1.28866">
        <ele>28.8</ele>
        <time>2022-08-28T01:14:10Z</time>
      </trkpt>
      <trkpt lat="47.45567" lon="-1.28876">
        <ele>28.4</ele>
        <time>2022-08-28T01:14:12Z</time>
      </trkpt>
      <trkpt lat="47.45558" lon="-1.28885">
        <ele>28.2</ele>
        <time>2022-08-28T01:14:14Z</time>
      </trkpt>
      <trkpt lat="47.45532" lon="-1.28909">
        <ele>27.8</ele>
        <time>2022-08-28T01:14:19Z</time>
      </trkpt>
      <trkpt lat="47.45487" lon="-1.28944">
        <ele>27.4</ele>
        <time>2022-08-28T01:14:27Z</time>
      </trkpt>
      <trkpt lat="47.45447" lon="-1.28971">
        <ele>27.2</ele>
        <time>2022-08-28T01:14:34Z</time>
      </trkpt>
      <trkpt lat="47.4543" lon="-1.28981">
        <ele>26.8</ele>
        <time>2022-08-28T01:14:37Z</time>
      </trkpt>
      <trkpt lat="47.45419" lon="-1.28986">
        <ele>26.8</ele>
        <time>2022-08-28T01:14:39Z</time>
      </trkpt>
      <trkpt lat="47.45396" lon="-1.28996">
        <ele>26.4</ele>
        <time>2022-08-28T01:14:43Z</time>
      </trkpt>
      <trkpt lat="47.45356" lon="-1.29013">
        <ele>26.6</ele>
        <time>2022-08-28T01:14:49Z</time>
      </trkpt>
      <trkpt lat="47.45317" lon="-1.29029">
        <ele>26.4</ele>
        <time>2022-08-28T01:14:55Z</time>
      </trkpt>
      <trkpt lat="47.45285" lon="-1.29041">
        <ele>26.4</ele>
        <time>2022-08-28T01:15:00Z</time>
      </trkpt>
      <trkpt lat="47.45248" lon="-1.29055">
        <ele>26.2</ele>
        <time>2022-08-28T01:15:06Z</time>
      </trkpt>
      <trkpt lat="47.45235" lon="-1.29061">
        <ele>26</ele>
        <time>2022-08-28T01:15:08Z</time>
      </trkpt>
      <trkpt lat="47.45217" lon="-1.29068">
        <ele>25.8</ele>
        <time>2022-08-28T01:15:11Z</time>
      </trkpt>
      <trkpt lat="47.452" lon="-1.29074">
        <ele>25.6</ele>
        <time>2022-08-28T01:15:14Z</time>
      </trkpt>
      <trkpt lat="47.45193" lon="-1.29077">
        <ele>25.6</ele>
        <time>2022-08-28T01:15:15Z</time>
      </trkpt>
      <trkpt lat="47.45155" lon="-1.29092">
        <ele>25.4</ele>
        <time>2022-08-28T01:15:21Z</time>
      </trkpt>
      <trkpt lat="47.45149" lon="-1.29094">
        <ele>25.4</ele>
        <time>2022-08-28T01:15:22Z</time>
      </trkpt>
      <trkpt lat="47.45137" lon="-1.29099">
        <ele>25.2</ele>
        <time>2022-08-28T01:15:24Z</time>
      </trkpt>
      <trkpt lat="47.45125" lon="-1.29104">
        <ele>24.8</ele>
        <time>2022-08-28T01:15:26Z</time>
      </trkpt>
      <trkpt lat="47.4509" lon="-1.29117">
        <ele>24.2</ele>
        <time>2022-08-28T01:15:32Z</time>
      </trkpt>
      <trkpt lat="47.45084" lon="-1.2912">
        <ele>23.8</ele>
        <time>2022-08-28T01:15:34Z</time>
      </trkpt>
      <trkpt lat="47.45081" lon="-1.29121">
        <ele>23.8</ele>
        <time>2022-08-28T01:15:35Z</time>
      </trkpt>
      <trkpt lat="47.45069" lon="-1.29126">
        <ele>23.6</ele>
        <time>2022-08-28T01:15:39Z</time>
      </trkpt>
      <trkpt lat="47.45063" lon="-1.29128">
        <ele>23.4</ele>
        <time>2022-08-28T01:15:41Z</time>
      </trkpt>
      <trkpt lat="47.45057" lon="-1.2913">
        <ele>23.2</ele>
        <time>2022-08-28T01:15:43Z</time>
      </trkpt>
      <trkpt lat="47.4504" lon="-1.29137">
        <ele>22.4</ele>
        <time>2022-08-28T01:15:47Z</time>
      </trkpt>
      <trkpt lat="47.45007" lon="-1.29149">
        <ele>22</ele>
        <time>2022-08-28T01:15:53Z</time>
      </trkpt>
      <trkpt lat="47.4499" lon="-1.29156">
        <ele>21.8</ele>
        <time>2022-08-28T01:15:56Z</time>
      </trkpt>
      <trkpt lat="47.44979" lon="-1.2916">
        <ele>21.4</ele>
        <time>2022-08-28T01:15:58Z</time>
      </trkpt>
      <trkpt lat="47.44967" lon="-1.29165">
        <ele>21.2</ele>
        <time>2022-08-28T01:16:00Z</time>
      </trkpt>
      <trkpt lat="47.4495" lon="-1.29171">
        <ele>21</ele>
        <time>2022-08-28T01:16:03Z</time>
      </trkpt>
      <trkpt lat="47.44911" lon="-1.29186">
        <ele>20</ele>
        <time>2022-08-28T01:16:10Z</time>
      </trkpt>
      <trkpt lat="47.44884" lon="-1.29197">
        <ele>19.2</ele>
        <time>2022-08-28T01:16:15Z</time>
      </trkpt>
      <trkpt lat="47.44862" lon="-1.29205">
        <ele>19</ele>
        <time>2022-08-28T01:16:19Z</time>
      </trkpt>
      <trkpt lat="47.44851" lon="-1.29209">
        <ele>19.2</ele>
        <time>2022-08-28T01:16:21Z</time>
      </trkpt>
      <trkpt lat="47.44832" lon="-1.29217">
        <ele>18.8</ele>
        <time>2022-08-28T01:16:25Z</time>
      </trkpt>
      <trkpt lat="47.44822" lon="-1.29221">
        <ele>18.4</ele>
        <time>2022-08-28T01:16:27Z</time>
      </trkpt>
      <trkpt lat="47.44784" lon="-1.29235">
        <ele>18</ele>
        <time>2022-08-28T01:16:35Z</time>
      </trkpt>
      <trkpt lat="47.44772" lon="-1.2924">
        <ele>17.8</ele>
        <time>2022-08-28T01:16:39Z</time>
      </trkpt>
      <trkpt lat="47.44769" lon="-1.29241">
        <ele>18</ele>
        <time>2022-08-28T01:16:42Z</time>
      </trkpt>
      <trkpt lat="47.44769" lon="-1.29241">
        <ele>18.2</ele>
        <time>2022-08-28T01:16:44Z</time>
      </trkpt>
      <trkpt lat="47.44764" lon="-1.29243">
        <ele>17.6</ele>
        <time>2022-08-28T01:18:18Z</time>
      </trkpt>
      <trkpt lat="47.4476" lon="-1.29242">
        <ele>17.8</ele>
        <time>2022-08-28T01:18:19Z</time>
      </trkpt>
      <trkpt lat="47.44754" lon="-1.29225">
        <ele>18.6</ele>
        <time>2022-08-28T01:18:24Z</time>
      </trkpt>
      <trkpt lat="47.44741" lon="-1.29188">
        <ele>19</ele>
        <time>2022-08-28T01:18:31Z</time>
      </trkpt>
      <trkpt lat="47.44739" lon="-1.29181">
        <ele>19</ele>
        <time>2022-08-28T01:18:32Z</time>
      </trkpt>
      <trkpt lat="47.44731" lon="-1.29161">
        <ele>19</ele>
        <time>2022-08-28T01:18:35Z</time>
      </trkpt>
      <trkpt lat="47.44712" lon="-1.29108">
        <ele>19</ele>
        <time>2022-08-28T01:18:42Z</time>
      </trkpt>
      <trkpt lat="47.44686" lon="-1.29037">
        <ele>19.2</ele>
        <time>2022-08-28T01:18:50Z</time>
      </trkpt>
      <trkpt lat="47.44675" lon="-1.28998">
        <ele>19.2</ele>
        <time>2022-08-28T01:18:54Z</time>
      </trkpt>
      <trkpt lat="47.44672" lon="-1.28979">
        <ele>19.2</ele>
        <time>2022-08-28T01:18:56Z</time>
      </trkpt>
      <trkpt lat="47.4467" lon="-1.28971">
        <ele>19</ele>
        <time>2022-08-28T01:18:57Z</time>
      </trkpt>
      <trkpt lat="47.44664" lon="-1.28958">
        <ele>18.8</ele>
        <time>2022-08-28T01:18:59Z</time>
      </trkpt>
      <trkpt lat="47.44656" lon="-1.28962">
        <ele>18.8</ele>
        <time>2022-08-28T01:19:01Z</time>
      </trkpt>
      <trkpt lat="47.44651" lon="-1.28965">
        <ele>18.6</ele>
        <time>2022-08-28T01:19:02Z</time>
      </trkpt>
      <trkpt lat="47.4462" lon="-1.28979">
        <ele>18.2</ele>
        <time>2022-08-28T01:19:08Z</time>
      </trkpt>
      <trkpt lat="47.44581" lon="-1.28997">
        <ele>18</ele>
        <time>2022-08-28T01:19:15Z</time>
      </trkpt>
      <trkpt lat="47.44528" lon="-1.29021">
        <ele>17.8</ele>
        <time>2022-08-28T01:19:24Z</time>
      </trkpt>
      <trkpt lat="47.44476" lon="-1.29045">
        <ele>17.8</ele>
        <time>2022-08-28T01:19:33Z</time>
      </trkpt>
      <trkpt lat="47.4447" lon="-1.29048">
        <ele>17.8</ele>
        <time>2022-08-28T01:19:34Z</time>
      </trkpt>
      <trkpt lat="47.44426" lon="-1.29071">
        <ele>17.8</ele>
        <time>2022-08-28T01:19:42Z</time>
      </trkpt>
      <trkpt lat="47.44398" lon="-1.29095">
        <ele>17.8</ele>
        <time>2022-08-28T01:19:48Z</time>
      </trkpt>
      <trkpt lat="47.44388" lon="-1.29095">
        <ele>17.8</ele>
        <time>2022-08-28T01:19:50Z</time>
      </trkpt>
      <trkpt lat="47.44386" lon="-1.29091">
        <ele>17.6</ele>
        <time>2022-08-28T01:19:51Z</time>
      </trkpt>
      <trkpt lat="47.44383" lon="-1.29086">
        <ele>17.6</ele>
        <time>2022-08-28T01:19:52Z</time>
      </trkpt>
      <trkpt lat="47.44373" lon="-1.29068">
        <ele>17.6</ele>
        <time>2022-08-28T01:19:55Z</time>
      </trkpt>
      <trkpt lat="47.44362" lon="-1.29047">
        <ele>17.4</ele>
        <time>2022-08-28T01:19:58Z</time>
      </trkpt>
      <trkpt lat="47.44356" lon="-1.29032">
        <ele>17.2</ele>
        <time>2022-08-28T01:20:00Z</time>
      </trkpt>
      <trkpt lat="47.44345" lon="-1.29005">
        <ele>16.8</ele>
        <time>2022-08-28T01:20:04Z</time>
      </trkpt>
      <trkpt lat="47.44342" lon="-1.28999">
        <ele>16.6</ele>
        <time>2022-08-28T01:20:05Z</time>
      </trkpt>
      <trkpt lat="47.44339" lon="-1.28994">
        <ele>16.4</ele>
        <time>2022-08-28T01:20:06Z</time>
      </trkpt>
      <trkpt lat="47.44326" lon="-1.28984">
        <ele>16.2</ele>
        <time>2022-08-28T01:20:09Z</time>
      </trkpt>
      <trkpt lat="47.44298" lon="-1.28968">
        <ele>15.8</ele>
        <time>2022-08-28T01:20:15Z</time>
      </trkpt>
      <trkpt lat="47.4427" lon="-1.2895">
        <ele>16.2</ele>
        <time>2022-08-28T01:20:22Z</time>
      </trkpt>
      <trkpt lat="47.44252" lon="-1.2894">
        <ele>15.4</ele>
        <time>2022-08-28T01:20:28Z</time>
      </trkpt>
      <trkpt lat="47.44231" lon="-1.28927">
        <ele>16.4</ele>
        <time>2022-08-28T01:20:36Z</time>
      </trkpt>
      <trkpt lat="47.44217" lon="-1.28917">
        <ele>16.6</ele>
        <time>2022-08-28T01:20:41Z</time>
      </trkpt>
      <trkpt lat="47.44215" lon="-1.28915">
        <ele>16.8</ele>
        <time>2022-08-28T01:20:42Z</time>
      </trkpt>
      <trkpt lat="47.44211" lon="-1.28911">
        <ele>16.8</ele>
        <time>2022-08-28T01:20:44Z</time>
      </trkpt>
      <trkpt lat="47.44198" lon="-1.28899">
        <ele>17.2</ele>
        <time>2022-08-28T01:20:50Z</time>
      </trkpt>
      <trkpt lat="47.44182" lon="-1.28888">
        <ele>17.8</ele>
        <time>2022-08-28T01:20:56Z</time>
      </trkpt>
      <trkpt lat="47.44162" lon="-1.28877">
        <ele>18.4</ele>
        <time>2022-08-28T01:21:03Z</time>
      </trkpt>
      <trkpt lat="47.44139" lon="-1.28863">
        <ele>19</ele>
        <time>2022-08-28T01:21:11Z</time>
      </trkpt>
      <trkpt lat="47.44114" lon="-1.28848">
        <ele>19.8</ele>
        <time>2022-08-28T01:21:19Z</time>
      </trkpt>
      <trkpt lat="47.44092" lon="-1.28836">
        <ele>20.6</ele>
        <time>2022-08-28T01:21:26Z</time>
      </trkpt>
      <trkpt lat="47.44078" lon="-1.28818">
        <ele>21.2</ele>
        <time>2022-08-28T01:21:32Z</time>
      </trkpt>
      <trkpt lat="47.44071" lon="-1.28793">
        <ele>22</ele>
        <time>2022-08-28T01:21:38Z</time>
      </trkpt>
      <trkpt lat="47.44062" lon="-1.2877">
        <ele>22.6</ele>
        <time>2022-08-28T01:21:44Z</time>
      </trkpt>
      <trkpt lat="47.44052" lon="-1.28763">
        <ele>23</ele>
        <time>2022-08-28T01:21:48Z</time>
      </trkpt>
      <trkpt lat="47.44031" lon="-1.28771">
        <ele>24</ele>
        <time>2022-08-28T01:21:55Z</time>
      </trkpt>
      <trkpt lat="47.4401" lon="-1.28784">
        <ele>25</ele>
        <time>2022-08-28T01:22:02Z</time>
      </trkpt>
      <trkpt lat="47.4399" lon="-1.28796">
        <ele>25.6</ele>
        <time>2022-08-28T01:22:08Z</time>
      </trkpt>
      <trkpt lat="47.43973" lon="-1.28796">
        <ele>26</ele>
        <time>2022-08-28T01:22:13Z</time>
      </trkpt>
      <trkpt lat="47.43946" lon="-1.28791">
        <ele>26.8</ele>
        <time>2022-08-28T01:22:21Z</time>
      </trkpt>
      <trkpt lat="47.43924" lon="-1.28791">
        <ele>27.4</ele>
        <time>2022-08-28T01:22:27Z</time>
      </trkpt>
      <trkpt lat="47.43901" lon="-1.28796">
        <ele>28</ele>
        <time>2022-08-28T01:22:33Z</time>
      </trkpt>
      <trkpt lat="47.43879" lon="-1.28801">
        <ele>28.6</ele>
        <time>2022-08-28T01:22:39Z</time>
      </trkpt>
      <trkpt lat="47.4386" lon="-1.28806">
        <ele>29</ele>
        <time>2022-08-28T01:22:44Z</time>
      </trkpt>
      <trkpt lat="47.43853" lon="-1.28804">
        <ele>29.2</ele>
        <time>2022-08-28T01:22:45Z</time>
      </trkpt>
      <trkpt lat="47.4385" lon="-1.28794">
        <ele>29.2</ele>
        <time>2022-08-28T01:22:47Z</time>
      </trkpt>
      <trkpt lat="47.43847" lon="-1.28783">
        <ele>29.4</ele>
        <time>2022-08-28T01:22:49Z</time>
      </trkpt>
      <trkpt lat="47.43844" lon="-1.28765">
        <ele>29.6</ele>
        <time>2022-08-28T01:22:52Z</time>
      </trkpt>
      <trkpt lat="47.43838" lon="-1.28725">
        <ele>30.2</ele>
        <time>2022-08-28T01:22:59Z</time>
      </trkpt>
      <trkpt lat="47.43833" lon="-1.28691">
        <ele>31</ele>
        <time>2022-08-28T01:23:06Z</time>
      </trkpt>
      <trkpt lat="47.4383" lon="-1.2867">
        <ele>31.2</ele>
        <time>2022-08-28T01:23:10Z</time>
      </trkpt>
      <trkpt lat="47.43825" lon="-1.28633">
        <ele>32</ele>
        <time>2022-08-28T01:23:17Z</time>
      </trkpt>
      <trkpt lat="47.4382" lon="-1.28589">
        <ele>32.8</ele>
        <time>2022-08-28T01:23:25Z</time>
      </trkpt>
      <trkpt lat="47.43814" lon="-1.28538">
        <ele>33.8</ele>
        <time>2022-08-28T01:23:34Z</time>
      </trkpt>
      <trkpt lat="47.43808" lon="-1.2848">
        <ele>34.6</ele>
        <time>2022-08-28T01:23:44Z</time>
      </trkpt>
      <trkpt lat="47.43803" lon="-1.28468">
        <ele>34.8</ele>
        <time>2022-08-28T01:23:46Z</time>
      </trkpt>
      <trkpt lat="47.43799" lon="-1.28468">
        <ele>34.8</ele>
        <time>2022-08-28T01:23:47Z</time>
      </trkpt>
      <trkpt lat="47.43795" lon="-1.28468">
        <ele>35</ele>
        <time>2022-08-28T01:23:48Z</time>
      </trkpt>
      <trkpt lat="47.43776" lon="-1.28467">
        <ele>35.2</ele>
        <time>2022-08-28T01:23:52Z</time>
      </trkpt>
      <trkpt lat="47.43741" lon="-1.28465">
        <ele>35.6</ele>
        <time>2022-08-28T01:23:59Z</time>
      </trkpt>
      <trkpt lat="47.43696" lon="-1.28464">
        <ele>36</ele>
        <time>2022-08-28T01:24:07Z</time>
      </trkpt>
      <trkpt lat="47.43651" lon="-1.28462">
        <ele>36.2</ele>
        <time>2022-08-28T01:24:15Z</time>
      </trkpt>
      <trkpt lat="47.4362" lon="-1.28455">
        <ele>36.4</ele>
        <time>2022-08-28T01:24:21Z</time>
      </trkpt>
      <trkpt lat="47.43581" lon="-1.28445">
        <ele>36.4</ele>
        <time>2022-08-28T01:24:28Z</time>
      </trkpt>
      <trkpt lat="47.43538" lon="-1.28428">
        <ele>36.2</ele>
        <time>2022-08-28T01:24:34Z</time>
      </trkpt>
      <trkpt lat="47.43478" lon="-1.28405">
        <ele>35.4</ele>
        <time>2022-08-28T01:24:41Z</time>
      </trkpt>
      <trkpt lat="47.43417" lon="-1.28381">
        <ele>34.4</ele>
        <time>2022-08-28T01:24:47Z</time>
      </trkpt>
      <trkpt lat="47.43407" lon="-1.28377">
        <ele>34.2</ele>
        <time>2022-08-28T01:24:48Z</time>
      </trkpt>
      <trkpt lat="47.43354" lon="-1.28355">
        <ele>33</ele>
        <time>2022-08-28T01:24:53Z</time>
      </trkpt>
      <trkpt lat="47.43333" lon="-1.28346">
        <ele>32.6</ele>
        <time>2022-08-28T01:24:55Z</time>
      </trkpt>
      <trkpt lat="47.43285" lon="-1.28325">
        <ele>31.8</ele>
        <time>2022-08-28T01:25:00Z</time>
      </trkpt>
      <trkpt lat="47.43279" lon="-1.28323">
        <ele>31.6</ele>
        <time>2022-08-28T01:25:01Z</time>
      </trkpt>
      <trkpt lat="47.43275" lon="-1.28321">
        <ele>31.6</ele>
        <time>2022-08-28T01:25:02Z</time>
      </trkpt>
      <trkpt lat="47.43272" lon="-1.28308">
        <ele>31.4</ele>
        <time>2022-08-28T01:25:03Z</time>
      </trkpt>
      <trkpt lat="47.43274" lon="-1.28303">
        <ele>31.2</ele>
        <time>2022-08-28T01:25:04Z</time>
      </trkpt>
      <trkpt lat="47.4328" lon="-1.28291">
        <ele>31</ele>
        <time>2022-08-28T01:25:06Z</time>
      </trkpt>
      <trkpt lat="47.43289" lon="-1.28271">
        <ele>30.6</ele>
        <time>2022-08-28T01:25:09Z</time>
      </trkpt>
      <trkpt lat="47.43304" lon="-1.28238">
        <ele>30.2</ele>
        <time>2022-08-28T01:25:14Z</time>
      </trkpt>
      <trkpt lat="47.43309" lon="-1.28225">
        <ele>30</ele>
        <time>2022-08-28T01:25:16Z</time>
      </trkpt>
      <trkpt lat="47.43318" lon="-1.28206">
        <ele>29.8</ele>
        <time>2022-08-28T01:25:19Z</time>
      </trkpt>
      <trkpt lat="47.43326" lon="-1.28187">
        <ele>29.6</ele>
        <time>2022-08-28T01:25:22Z</time>
      </trkpt>
      <trkpt lat="47.43348" lon="-1.28134">
        <ele>29</ele>
        <time>2022-08-28T01:25:30Z</time>
      </trkpt>
      <trkpt lat="47.43365" lon="-1.28072">
        <ele>29</ele>
        <time>2022-08-28T01:25:39Z</time>
      </trkpt>
      <trkpt lat="47.43371" lon="-1.28032">
        <ele>29</ele>
        <time>2022-08-28T01:25:45Z</time>
      </trkpt>
      <trkpt lat="47.43377" lon="-1.27963">
        <ele>29</ele>
        <time>2022-08-28T01:25:55Z</time>
      </trkpt>
      <trkpt lat="47.43377" lon="-1.27898">
        <ele>29.2</ele>
        <time>2022-08-28T01:26:05Z</time>
      </trkpt>
      <trkpt lat="47.43377" lon="-1.27826">
        <ele>29.6</ele>
        <time>2022-08-28T01:26:16Z</time>
      </trkpt>
      <trkpt lat="47.43377" lon="-1.27772">
        <ele>29.8</ele>
        <time>2022-08-28T01:26:24Z</time>
      </trkpt>
      <trkpt lat="47.43377" lon="-1.27758">
        <ele>29.8</ele>
        <time>2022-08-28T01:26:26Z</time>
      </trkpt>
      <trkpt lat="47.43377" lon="-1.27729">
        <ele>29.8</ele>
        <time>2022-08-28T01:26:30Z</time>
      </trkpt>
      <trkpt lat="47.43374" lon="-1.2768">
        <ele>30</ele>
        <time>2022-08-28T01:26:37Z</time>
      </trkpt>
      <trkpt lat="47.4337" lon="-1.27619">
        <ele>30.4</ele>
        <time>2022-08-28T01:26:46Z</time>
      </trkpt>
      <trkpt lat="47.43369" lon="-1.27578">
        <ele>30.6</ele>
        <time>2022-08-28T01:26:52Z</time>
      </trkpt>
      <trkpt lat="47.43365" lon="-1.27566">
        <ele>30.6</ele>
        <time>2022-08-28T01:26:54Z</time>
      </trkpt>
      <trkpt lat="47.43357" lon="-1.2756">
        <ele>30.8</ele>
        <time>2022-08-28T01:26:56Z</time>
      </trkpt>
      <trkpt lat="47.43349" lon="-1.27551">
        <ele>30.8</ele>
        <time>2022-08-28T01:26:58Z</time>
      </trkpt>
      <trkpt lat="47.4331" lon="-1.27509">
        <ele>31</ele>
        <time>2022-08-28T01:27:08Z</time>
      </trkpt>
      <trkpt lat="47.43277" lon="-1.27474">
        <ele>30.8</ele>
        <time>2022-08-28T01:27:16Z</time>
      </trkpt>
      <trkpt lat="47.43239" lon="-1.27433">
        <ele>30.4</ele>
        <time>2022-08-28T01:27:25Z</time>
      </trkpt>
      <trkpt lat="47.43198" lon="-1.27389">
        <ele>30.4</ele>
        <time>2022-08-28T01:27:34Z</time>
      </trkpt>
      <trkpt lat="47.43165" lon="-1.27353">
        <ele>30.2</ele>
        <time>2022-08-28T01:27:42Z</time>
      </trkpt>
      <trkpt lat="47.43133" lon="-1.2732">
        <ele>29.8</ele>
        <time>2022-08-28T01:27:49Z</time>
      </trkpt>
      <trkpt lat="47.43096" lon="-1.2728">
        <ele>29.4</ele>
        <time>2022-08-28T01:27:57Z</time>
      </trkpt>
      <trkpt lat="47.43058" lon="-1.27239">
        <ele>28.8</ele>
        <time>2022-08-28T01:28:05Z</time>
      </trkpt>
      <trkpt lat="47.4302" lon="-1.27211">
        <ele>28</ele>
        <time>2022-08-28T01:28:12Z</time>
      </trkpt>
      <trkpt lat="47.43009" lon="-1.27204">
        <ele>27.8</ele>
        <time>2022-08-28T01:28:14Z</time>
      </trkpt>
      <trkpt lat="47.42994" lon="-1.27194">
        <ele>27.4</ele>
        <time>2022-08-28T01:28:17Z</time>
      </trkpt>
      <trkpt lat="47.42959" lon="-1.27171">
        <ele>26.8</ele>
        <time>2022-08-28T01:28:24Z</time>
      </trkpt>
      <trkpt lat="47.42934" lon="-1.27155">
        <ele>26.4</ele>
        <time>2022-08-28T01:28:30Z</time>
      </trkpt>
      <trkpt lat="47.42918" lon="-1.27145">
        <ele>26</ele>
        <time>2022-08-28T01:28:35Z</time>
      </trkpt>
      <trkpt lat="47.4291" lon="-1.27137">
        <ele>26</ele>
        <time>2022-08-28T01:28:37Z</time>
      </trkpt>
      <trkpt lat="47.42912" lon="-1.27128">
        <ele>25.8</ele>
        <time>2022-08-28T01:28:39Z</time>
      </trkpt>
      <trkpt lat="47.42916" lon="-1.27113">
        <ele>25.8</ele>
        <time>2022-08-28T01:28:42Z</time>
      </trkpt>
      <trkpt lat="47.42909" lon="-1.27106">
        <ele>25.6</ele>
        <time>2022-08-28T01:28:43Z</time>
      </trkpt>
      <trkpt lat="47.42907" lon="-1.27102">
        <ele>25.6</ele>
        <time>2022-08-28T01:28:44Z</time>
      </trkpt>
      <trkpt lat="47.42892" lon="-1.2708">
        <ele>25.8</ele>
        <time>2022-08-28T01:28:49Z</time>
      </trkpt>
      <trkpt lat="47.4288" lon="-1.27061">
        <ele>25.8</ele>
        <time>2022-08-28T01:28:53Z</time>
      </trkpt>
      <trkpt lat="47.42868" lon="-1.27042">
        <ele>25.8</ele>
        <time>2022-08-28T01:28:57Z</time>
      </trkpt>
      <trkpt lat="47.42842" lon="-1.27003">
        <ele>26</ele>
        <time>2022-08-28T01:29:05Z</time>
      </trkpt>
      <trkpt lat="47.42808" lon="-1.26951">
        <ele>25.8</ele>
        <time>2022-08-28T01:29:15Z</time>
      </trkpt>
      <trkpt lat="47.42788" lon="-1.26922">
        <ele>25.8</ele>
        <time>2022-08-28T01:29:21Z</time>
      </trkpt>
      <trkpt lat="47.42763" lon="-1.2689">
        <ele>25.8</ele>
        <time>2022-08-28T01:29:28Z</time>
      </trkpt>
      <trkpt lat="47.42736" lon="-1.26859">
        <ele>25.6</ele>
        <time>2022-08-28T01:29:35Z</time>
      </trkpt>
      <trkpt lat="47.42713" lon="-1.26833">
        <ele>25.6</ele>
        <time>2022-08-28T01:29:41Z</time>
      </trkpt>
      <trkpt lat="47.42686" lon="-1.26801">
        <ele>25.6</ele>
        <time>2022-08-28T01:29:48Z</time>
      </trkpt>
      <trkpt lat="47.42663" lon="-1.26773">
        <ele>25.4</ele>
        <time>2022-08-28T01:29:54Z</time>
      </trkpt>
      <trkpt lat="47.42659" lon="-1.26768">
        <ele>25.4</ele>
        <time>2022-08-28T01:29:55Z</time>
      </trkpt>
      <trkpt lat="47.42651" lon="-1.26759">
        <ele>25.4</ele>
        <time>2022-08-28T01:29:57Z</time>
      </trkpt>
      <trkpt lat="47.42647" lon="-1.26755">
        <ele>25.6</ele>
        <time>2022-08-28T01:29:58Z</time>
      </trkpt>
      <trkpt lat="47.42629" lon="-1.26734">
        <ele>25.4</ele>
        <time>2022-08-28T01:30:03Z</time>
      </trkpt>
      <trkpt lat="47.42607" lon="-1.26708">
        <ele>25.4</ele>
        <time>2022-08-28T01:30:09Z</time>
      </trkpt>
      <trkpt lat="47.42576" lon="-1.26672">
        <ele>25.2</ele>
        <time>2022-08-28T01:30:17Z</time>
      </trkpt>
      <trkpt lat="47.42544" lon="-1.26634">
        <ele>25</ele>
        <time>2022-08-28T01:30:26Z</time>
      </trkpt>
      <trkpt lat="47.42514" lon="-1.26599">
        <ele>25</ele>
        <time>2022-08-28T01:30:34Z</time>
      </trkpt>
      <trkpt lat="47.42491" lon="-1.26573">
        <ele>24.8</ele>
        <time>2022-08-28T01:30:40Z</time>
      </trkpt>
      <trkpt lat="47.42461" lon="-1.26547">
        <ele>25.2</ele>
        <time>2022-08-28T01:30:47Z</time>
      </trkpt>
      <trkpt lat="47.42423" lon="-1.26515">
        <ele>25.4</ele>
        <time>2022-08-28T01:30:56Z</time>
      </trkpt>
      <trkpt lat="47.42392" lon="-1.26481">
        <ele>25.8</ele>
        <time>2022-08-28T01:31:04Z</time>
      </trkpt>
      <trkpt lat="47.42371" lon="-1.26456">
        <ele>25.8</ele>
        <time>2022-08-28T01:31:10Z</time>
      </trkpt>
      <trkpt lat="47.4235" lon="-1.26429">
        <ele>26</ele>
        <time>2022-08-28T01:31:16Z</time>
      </trkpt>
      <trkpt lat="47.42317" lon="-1.2639">
        <ele>26.4</ele>
        <time>2022-08-28T01:31:23Z</time>
      </trkpt>
      <trkpt lat="47.42271" lon="-1.26335">
        <ele>26.6</ele>
        <time>2022-08-28T01:31:33Z</time>
      </trkpt>
      <trkpt lat="47.42228" lon="-1.26284">
        <ele>27</ele>
        <time>2022-08-28T01:31:42Z</time>
      </trkpt>
      <trkpt lat="47.42219" lon="-1.26272">
        <ele>27</ele>
        <time>2022-08-28T01:31:44Z</time>
      </trkpt>
      <trkpt lat="47.4218" lon="-1.26226">
        <ele>27.4</ele>
        <time>2022-08-28T01:31:52Z</time>
      </trkpt>
      <trkpt lat="47.42135" lon="-1.26172">
        <ele>27.8</ele>
        <time>2022-08-28T01:32:01Z</time>
      </trkpt>
      <trkpt lat="47.42126" lon="-1.2616">
        <ele>27.8</ele>
        <time>2022-08-28T01:32:03Z</time>
      </trkpt>
      <trkpt lat="47.42081" lon="-1.26106">
        <ele>28</ele>
        <time>2022-08-28T01:32:12Z</time>
      </trkpt>
      <trkpt lat="47.42076" lon="-1.261">
        <ele>28</ele>
        <time>2022-08-28T01:32:13Z</time>
      </trkpt>
      <trkpt lat="47.42042" lon="-1.2606">
        <ele>28.2</ele>
        <time>2022-08-28T01:32:20Z</time>
      </trkpt>
      <trkpt lat="47.42008" lon="-1.26019">
        <ele>28.2</ele>
        <time>2022-08-28T01:32:27Z</time>
      </trkpt>
      <trkpt lat="47.41966" lon="-1.25969">
        <ele>28.2</ele>
        <time>2022-08-28T01:32:36Z</time>
      </trkpt>
      <trkpt lat="47.41928" lon="-1.25921">
        <ele>28</ele>
        <time>2022-08-28T01:32:44Z</time>
      </trkpt>
      <trkpt lat="47.41905" lon="-1.25877">
        <ele>27.8</ele>
        <time>2022-08-28T01:32:50Z</time>
      </trkpt>
      <trkpt lat="47.41876" lon="-1.25829">
        <ele>27.4</ele>
        <time>2022-08-28T01:32:56Z</time>
      </trkpt>
      <trkpt lat="47.4184" lon="-1.25769">
        <ele>26.8</ele>
        <time>2022-08-28T01:33:03Z</time>
      </trkpt>
      <trkpt lat="47.41834" lon="-1.25762">
        <ele>26.6</ele>
        <time>2022-08-28T01:33:04Z</time>
      </trkpt>
      <trkpt lat="47.41807" lon="-1.25744">
        <ele>26.4</ele>
        <time>2022-08-28T01:33:08Z</time>
      </trkpt>
      <trkpt lat="47.41767" lon="-1.25723">
        <ele>25.8</ele>
        <time>2022-08-28T01:33:14Z</time>
      </trkpt>
      <trkpt lat="47.41721" lon="-1.25701">
        <ele>25</ele>
        <time>2022-08-28T01:33:21Z</time>
      </trkpt>
      <trkpt lat="47.41689" lon="-1.25693">
        <ele>24.4</ele>
        <time>2022-08-28T01:33:26Z</time>
      </trkpt>
      <trkpt lat="47.41683" lon="-1.25692">
        <ele>24.4</ele>
        <time>2022-08-28T01:33:27Z</time>
      </trkpt>
      <trkpt lat="47.41657" lon="-1.25685">
        <ele>23.4</ele>
        <time>2022-08-28T01:33:32Z</time>
      </trkpt>
      <trkpt lat="47.41641" lon="-1.25682">
        <ele>22.8</ele>
        <time>2022-08-28T01:33:35Z</time>
      </trkpt>
      <trkpt lat="47.41635" lon="-1.25683">
        <ele>22.6</ele>
        <time>2022-08-28T01:33:36Z</time>
      </trkpt>
      <trkpt lat="47.41607" lon="-1.25687">
        <ele>22</ele>
        <time>2022-08-28T01:33:41Z</time>
      </trkpt>
      <trkpt lat="47.41596" lon="-1.25688">
        <ele>21.8</ele>
        <time>2022-08-28T01:33:43Z</time>
      </trkpt>
      <trkpt lat="47.41585" lon="-1.2569">
        <ele>21.6</ele>
        <time>2022-08-28T01:33:45Z</time>
      </trkpt>
      <trkpt lat="47.41555" lon="-1.25687">
        <ele>21</ele>
        <time>2022-08-28T01:33:50Z</time>
      </trkpt>
      <trkpt lat="47.4155" lon="-1.25684">
        <ele>21</ele>
        <time>2022-08-28T01:33:51Z</time>
      </trkpt>
      <trkpt lat="47.41526" lon="-1.25667">
        <ele>20.4</ele>
        <time>2022-08-28T01:33:56Z</time>
      </trkpt>
      <trkpt lat="47.41522" lon="-1.25663">
        <ele>20.2</ele>
        <time>2022-08-28T01:33:57Z</time>
      </trkpt>
      <trkpt lat="47.41505" lon="-1.25641">
        <ele>19.8</ele>
        <time>2022-08-28T01:34:02Z</time>
      </trkpt>
      <trkpt lat="47.41498" lon="-1.25632">
        <ele>19.6</ele>
        <time>2022-08-28T01:34:04Z</time>
      </trkpt>
      <trkpt lat="47.41481" lon="-1.25589">
        <ele>19.4</ele>
        <time>2022-08-28T01:34:11Z</time>
      </trkpt>
      <trkpt lat="47.41467" lon="-1.25536">
        <ele>19.2</ele>
        <time>2022-08-28T01:34:19Z</time>
      </trkpt>
      <trkpt lat="47.41458" lon="-1.2551">
        <ele>19.4</ele>
        <time>2022-08-28T01:34:23Z</time>
      </trkpt>
      <trkpt lat="47.41449" lon="-1.25494">
        <ele>19.4</ele>
        <time>2022-08-28T01:34:26Z</time>
      </trkpt>
      <trkpt lat="47.41414" lon="-1.25445">
        <ele>19.8</ele>
        <time>2022-08-28T01:34:37Z</time>
      </trkpt>
      <trkpt lat="47.41405" lon="-1.25431">
        <ele>20</ele>
        <time>2022-08-28T01:34:41Z</time>
      </trkpt>
      <trkpt lat="47.41401" lon="-1.25414">
        <ele>20.2</ele>
        <time>2022-08-28T01:34:44Z</time>
      </trkpt>
      <trkpt lat="47.41396" lon="-1.25403">
        <ele>20.4</ele>
        <time>2022-08-28T01:34:46Z</time>
      </trkpt>
      <trkpt lat="47.41388" lon="-1.25384">
        <ele>20.4</ele>
        <time>2022-08-28T01:34:49Z</time>
      </trkpt>
      <trkpt lat="47.41378" lon="-1.25363">
        <ele>20.8</ele>
        <time>2022-08-28T01:34:53Z</time>
      </trkpt>
      <trkpt lat="47.41361" lon="-1.25324">
        <ele>21.4</ele>
        <time>2022-08-28T01:35:01Z</time>
      </trkpt>
      <trkpt lat="47.41345" lon="-1.25305">
        <ele>21.8</ele>
        <time>2022-08-28T01:35:07Z</time>
      </trkpt>
      <trkpt lat="47.4132" lon="-1.25285">
        <ele>22.4</ele>
        <time>2022-08-28T01:35:15Z</time>
      </trkpt>
      <trkpt lat="47.41291" lon="-1.25263">
        <ele>23</ele>
        <time>2022-08-28T01:35:24Z</time>
      </trkpt>
      <trkpt lat="47.41266" lon="-1.25245">
        <ele>23.6</ele>
        <time>2022-08-28T01:35:32Z</time>
      </trkpt>
      <trkpt lat="47.41241" lon="-1.25239">
        <ele>24</ele>
        <time>2022-08-28T01:35:39Z</time>
      </trkpt>
      <trkpt lat="47.41216" lon="-1.25247">
        <ele>24.6</ele>
        <time>2022-08-28T01:35:46Z</time>
      </trkpt>
      <trkpt lat="47.41189" lon="-1.25264">
        <ele>25.2</ele>
        <time>2022-08-28T01:35:54Z</time>
      </trkpt>
      <trkpt lat="47.41164" lon="-1.25278">
        <ele>25.6</ele>
        <time>2022-08-28T01:36:00Z</time>
      </trkpt>
      <trkpt lat="47.41156" lon="-1.25283">
        <ele>25.6</ele>
        <time>2022-08-28T01:36:02Z</time>
      </trkpt>
      <trkpt lat="47.41147" lon="-1.25274">
        <ele>25.8</ele>
        <time>2022-08-28T01:36:04Z</time>
      </trkpt>
      <trkpt lat="47.41138" lon="-1.25252">
        <ele>26</ele>
        <time>2022-08-28T01:36:09Z</time>
      </trkpt>
      <trkpt lat="47.41133" lon="-1.25229">
        <ele>26</ele>
        <time>2022-08-28T01:36:13Z</time>
      </trkpt>
      <trkpt lat="47.4113" lon="-1.25201">
        <ele>26</ele>
        <time>2022-08-28T01:36:17Z</time>
      </trkpt>
      <trkpt lat="47.41129" lon="-1.25191">
        <ele>26</ele>
        <time>2022-08-28T01:36:19Z</time>
      </trkpt>
      <trkpt lat="47.41123" lon="-1.25179">
        <ele>26</ele>
        <time>2022-08-28T01:36:24Z</time>
      </trkpt>
      <trkpt lat="47.41108" lon="-1.25177">
        <ele>26</ele>
        <time>2022-08-28T01:36:28Z</time>
      </trkpt>
      <trkpt lat="47.41104" lon="-1.25177">
        <ele>26.2</ele>
        <time>2022-08-28T01:36:29Z</time>
      </trkpt>
      <trkpt lat="47.41083" lon="-1.25174">
        <ele>25.8</ele>
        <time>2022-08-28T01:36:33Z</time>
      </trkpt>
      <trkpt lat="47.41049" lon="-1.25171">
        <ele>25.4</ele>
        <time>2022-08-28T01:36:39Z</time>
      </trkpt>
      <trkpt lat="47.40999" lon="-1.25167">
        <ele>24.6</ele>
        <time>2022-08-28T01:36:48Z</time>
      </trkpt>
      <trkpt lat="47.4097" lon="-1.25164">
        <ele>24.2</ele>
        <time>2022-08-28T01:36:53Z</time>
      </trkpt>
      <trkpt lat="47.4096" lon="-1.25157">
        <ele>24</ele>
        <time>2022-08-28T01:36:55Z</time>
      </trkpt>
      <trkpt lat="47.40952" lon="-1.25148">
        <ele>24</ele>
        <time>2022-08-28T01:36:57Z</time>
      </trkpt>
      <trkpt lat="47.4094" lon="-1.25132">
        <ele>23.6</ele>
        <time>2022-08-28T01:37:00Z</time>
      </trkpt>
      <trkpt lat="47.4092" lon="-1.25102">
        <ele>23</ele>
        <time>2022-08-28T01:37:06Z</time>
      </trkpt>
      <trkpt lat="47.40897" lon="-1.25068">
        <ele>22.6</ele>
        <time>2022-08-28T01:37:13Z</time>
      </trkpt>
      <trkpt lat="47.40869" lon="-1.25028">
        <ele>22.2</ele>
        <time>2022-08-28T01:37:21Z</time>
      </trkpt>
      <trkpt lat="47.40847" lon="-1.24995">
        <ele>22.2</ele>
        <time>2022-08-28T01:37:29Z</time>
      </trkpt>
      <trkpt lat="47.40824" lon="-1.24962">
        <ele>22.2</ele>
        <time>2022-08-28T01:37:37Z</time>
      </trkpt>
      <trkpt lat="47.40803" lon="-1.24931">
        <ele>22</ele>
        <time>2022-08-28T01:37:44Z</time>
      </trkpt>
      <trkpt lat="47.4078" lon="-1.24897">
        <ele>22.2</ele>
        <time>2022-08-28T01:37:52Z</time>
      </trkpt>
      <trkpt lat="47.40768" lon="-1.24857">
        <ele>22.4</ele>
        <time>2022-08-28T01:37:59Z</time>
      </trkpt>
      <trkpt lat="47.40764" lon="-1.2484">
        <ele>22.4</ele>
        <time>2022-08-28T01:38:02Z</time>
      </trkpt>
      <trkpt lat="47.40756" lon="-1.2481">
        <ele>22.4</ele>
        <time>2022-08-28T01:38:07Z</time>
      </trkpt>
      <trkpt lat="47.40744" lon="-1.24764">
        <ele>22.8</ele>
        <time>2022-08-28T01:38:15Z</time>
      </trkpt>
      <trkpt lat="47.40733" lon="-1.24719">
        <ele>23</ele>
        <time>2022-08-28T01:38:23Z</time>
      </trkpt>
      <trkpt lat="47.40718" lon="-1.24674">
        <ele>23.4</ele>
        <time>2022-08-28T01:38:31Z</time>
      </trkpt>
      <trkpt lat="47.40703" lon="-1.24646">
        <ele>23.4</ele>
        <time>2022-08-28T01:38:37Z</time>
      </trkpt>
      <trkpt lat="47.40678" lon="-1.24609">
        <ele>23.6</ele>
        <time>2022-08-28T01:38:45Z</time>
      </trkpt>
      <trkpt lat="47.40671" lon="-1.24604">
        <ele>23.6</ele>
        <time>2022-08-28T01:38:47Z</time>
      </trkpt>
      <trkpt lat="47.40664" lon="-1.24597">
        <ele>23.6</ele>
        <time>2022-08-28T01:38:49Z</time>
      </trkpt>
      <trkpt lat="47.40636" lon="-1.24573">
        <ele>23.8</ele>
        <time>2022-08-28T01:38:56Z</time>
      </trkpt>
      <trkpt lat="47.40615" lon="-1.24557">
        <ele>23.2</ele>
        <time>2022-08-28T01:39:01Z</time>
      </trkpt>
      <trkpt lat="47.40594" lon="-1.24544">
        <ele>23</ele>
        <time>2022-08-28T01:39:06Z</time>
      </trkpt>
      <trkpt lat="47.40574" lon="-1.24536">
        <ele>22.4</ele>
        <time>2022-08-28T01:39:11Z</time>
      </trkpt>
      <trkpt lat="47.40561" lon="-1.2453">
        <ele>22.2</ele>
        <time>2022-08-28T01:39:14Z</time>
      </trkpt>
      <trkpt lat="47.40552" lon="-1.24526">
        <ele>22.2</ele>
        <time>2022-08-28T01:39:16Z</time>
      </trkpt>
      <trkpt lat="47.40534" lon="-1.24519">
        <ele>22</ele>
        <time>2022-08-28T01:39:20Z</time>
      </trkpt>
      <trkpt lat="47.40517" lon="-1.24514">
        <ele>22</ele>
        <time>2022-08-28T01:39:24Z</time>
      </trkpt>
      <trkpt lat="47.40495" lon="-1.24518">
        <ele>22.2</ele>
        <time>2022-08-28T01:39:30Z</time>
      </trkpt>
      <trkpt lat="47.4048" lon="-1.24527">
        <ele>22.4</ele>
        <time>2022-08-28T01:39:35Z</time>
      </trkpt>
      <trkpt lat="47.40465" lon="-1.24548">
        <ele>22.4</ele>
        <time>2022-08-28T01:39:40Z</time>
      </trkpt>
      <trkpt lat="47.40445" lon="-1.24574">
        <ele>22.4</ele>
        <time>2022-08-28T01:39:46Z</time>
      </trkpt>
      <trkpt lat="47.40441" lon="-1.24579">
        <ele>22.4</ele>
        <time>2022-08-28T01:39:47Z</time>
      </trkpt>
      <trkpt lat="47.40427" lon="-1.24598">
        <ele>22.4</ele>
        <time>2022-08-28T01:39:51Z</time>
      </trkpt>
      <trkpt lat="47.40391" lon="-1.24644">
        <ele>22.4</ele>
        <time>2022-08-28T01:40:00Z</time>
      </trkpt>
      <trkpt lat="47.40351" lon="-1.24696">
        <ele>22.6</ele>
        <time>2022-08-28T01:40:10Z</time>
      </trkpt>
      <trkpt lat="47.40347" lon="-1.24702">
        <ele>22.6</ele>
        <time>2022-08-28T01:40:11Z</time>
      </trkpt>
      <trkpt lat="47.40318" lon="-1.24738">
        <ele>22.6</ele>
        <time>2022-08-28T01:40:18Z</time>
      </trkpt>
      <trkpt lat="47.40277" lon="-1.24792">
        <ele>22.8</ele>
        <time>2022-08-28T01:40:28Z</time>
      </trkpt>
      <trkpt lat="47.40268" lon="-1.24802">
        <ele>22.8</ele>
        <time>2022-08-28T01:40:30Z</time>
      </trkpt>
      <trkpt lat="47.40233" lon="-1.24832">
        <ele>22.8</ele>
        <time>2022-08-28T01:40:37Z</time>
      </trkpt>
      <trkpt lat="47.4018" lon="-1.2487">
        <ele>22.8</ele>
        <time>2022-08-28T01:40:47Z</time>
      </trkpt>
      <trkpt lat="47.4016" lon="-1.24885">
        <ele>22.8</ele>
        <time>2022-08-28T01:40:51Z</time>
      </trkpt>
      <trkpt lat="47.40151" lon="-1.24892">
        <ele>22.8</ele>
        <time>2022-08-28T01:40:53Z</time>
      </trkpt>
      <trkpt lat="47.40124" lon="-1.24911">
        <ele>22.8</ele>
        <time>2022-08-28T01:40:59Z</time>
      </trkpt>
      <trkpt lat="47.40105" lon="-1.24926">
        <ele>22.4</ele>
        <time>2022-08-28T01:41:05Z</time>
      </trkpt>
      <trkpt lat="47.40087" lon="-1.24938">
        <ele>22.4</ele>
        <time>2022-08-28T01:41:10Z</time>
      </trkpt>
      <trkpt lat="47.4006" lon="-1.24958">
        <ele>22.2</ele>
        <time>2022-08-28T01:41:17Z</time>
      </trkpt>
      <trkpt lat="47.40035" lon="-1.24976">
        <ele>22.2</ele>
        <time>2022-08-28T01:41:24Z</time>
      </trkpt>
      <trkpt lat="47.4002" lon="-1.24987">
        <ele>22.6</ele>
        <time>2022-08-28T01:41:30Z</time>
      </trkpt>
      <trkpt lat="47.40017" lon="-1.24986">
        <ele>22.8</ele>
        <time>2022-08-28T01:41:32Z</time>
      </trkpt>
      <trkpt lat="47.40015" lon="-1.24982">
        <ele>22.8</ele>
        <time>2022-08-28T01:41:33Z</time>
      </trkpt>
      <trkpt lat="47.40004" lon="-1.24954">
        <ele>22.8</ele>
        <time>2022-08-28T01:41:39Z</time>
      </trkpt>
      <trkpt lat="47.39987" lon="-1.24911">
        <ele>23</ele>
        <time>2022-08-28T01:41:46Z</time>
      </trkpt>
      <trkpt lat="47.39968" lon="-1.24864">
        <ele>23</ele>
        <time>2022-08-28T01:41:52Z</time>
      </trkpt>
      <trkpt lat="47.39941" lon="-1.24799">
        <ele>23.2</ele>
        <time>2022-08-28T01:42:01Z</time>
      </trkpt>
      <trkpt lat="47.39913" lon="-1.24726">
        <ele>23.4</ele>
        <time>2022-08-28T01:42:11Z</time>
      </trkpt>
      <trkpt lat="47.39889" lon="-1.24658">
        <ele>23.2</ele>
        <time>2022-08-28T01:42:20Z</time>
      </trkpt>
      <trkpt lat="47.39862" lon="-1.24584">
        <ele>23.4</ele>
        <time>2022-08-28T01:42:30Z</time>
      </trkpt>
      <trkpt lat="47.39835" lon="-1.2451">
        <ele>23.6</ele>
        <time>2022-08-28T01:42:40Z</time>
      </trkpt>
      <trkpt lat="47.39813" lon="-1.24451">
        <ele>24</ele>
        <time>2022-08-28T01:42:48Z</time>
      </trkpt>
      <trkpt lat="47.39788" lon="-1.24381">
        <ele>24.6</ele>
        <time>2022-08-28T01:42:58Z</time>
      </trkpt>
      <trkpt lat="47.39768" lon="-1.24326">
        <ele>25.2</ele>
        <time>2022-08-28T01:43:06Z</time>
      </trkpt>
      <trkpt lat="47.39745" lon="-1.24262">
        <ele>25.6</ele>
        <time>2022-08-28T01:43:15Z</time>
      </trkpt>
      <trkpt lat="47.39725" lon="-1.24209">
        <ele>26.2</ele>
        <time>2022-08-28T01:43:22Z</time>
      </trkpt>
      <trkpt lat="47.39697" lon="-1.24137">
        <ele>27</ele>
        <time>2022-08-28T01:43:32Z</time>
      </trkpt>
      <trkpt lat="47.39694" lon="-1.24129">
        <ele>27</ele>
        <time>2022-08-28T01:43:33Z</time>
      </trkpt>
      <trkpt lat="47.39669" lon="-1.24065">
        <ele>27.6</ele>
        <time>2022-08-28T01:43:42Z</time>
      </trkpt>
      <trkpt lat="47.39645" lon="-1.24002">
        <ele>28.2</ele>
        <time>2022-08-28T01:43:51Z</time>
      </trkpt>
      <trkpt lat="47.39617" lon="-1.23931">
        <ele>28.6</ele>
        <time>2022-08-28T01:44:01Z</time>
      </trkpt>
      <trkpt lat="47.39614" lon="-1.23923">
        <ele>28.6</ele>
        <time>2022-08-28T01:44:02Z</time>
      </trkpt>
      <trkpt lat="47.3959" lon="-1.23865">
        <ele>29</ele>
        <time>2022-08-28T01:44:10Z</time>
      </trkpt>
      <trkpt lat="47.39561" lon="-1.23792">
        <ele>29.4</ele>
        <time>2022-08-28T01:44:20Z</time>
      </trkpt>
      <trkpt lat="47.39555" lon="-1.23778">
        <ele>29.4</ele>
        <time>2022-08-28T01:44:22Z</time>
      </trkpt>
      <trkpt lat="47.39526" lon="-1.23706">
        <ele>30</ele>
        <time>2022-08-28T01:44:32Z</time>
      </trkpt>
      <trkpt lat="47.39495" lon="-1.23633">
        <ele>30.4</ele>
        <time>2022-08-28T01:44:42Z</time>
      </trkpt>
      <trkpt lat="47.39492" lon="-1.23626">
        <ele>30.6</ele>
        <time>2022-08-28T01:44:43Z</time>
      </trkpt>
      <trkpt lat="47.39461" lon="-1.23565">
        <ele>31</ele>
        <time>2022-08-28T01:44:52Z</time>
      </trkpt>
      <trkpt lat="47.39424" lon="-1.23501">
        <ele>31.4</ele>
        <time>2022-08-28T01:45:02Z</time>
      </trkpt>
      <trkpt lat="47.39421" lon="-1.23495">
        <ele>31.4</ele>
        <time>2022-08-28T01:45:03Z</time>
      </trkpt>
      <trkpt lat="47.39382" lon="-1.23431">
        <ele>31.6</ele>
        <time>2022-08-28T01:45:13Z</time>
      </trkpt>
      <trkpt lat="47.39346" lon="-1.23372">
        <ele>32.2</ele>
        <time>2022-08-28T01:45:23Z</time>
      </trkpt>
      <trkpt lat="47.39313" lon="-1.23319">
        <ele>32.8</ele>
        <time>2022-08-28T01:45:33Z</time>
      </trkpt>
      <trkpt lat="47.39281" lon="-1.23266">
        <ele>33.4</ele>
        <time>2022-08-28T01:45:43Z</time>
      </trkpt>
      <trkpt lat="47.39257" lon="-1.23226">
        <ele>34</ele>
        <time>2022-08-28T01:45:51Z</time>
      </trkpt>
      <trkpt lat="47.39223" lon="-1.23171">
        <ele>34.6</ele>
        <time>2022-08-28T01:46:01Z</time>
      </trkpt>
      <trkpt lat="47.39191" lon="-1.23117">
        <ele>34.8</ele>
        <time>2022-08-28T01:46:10Z</time>
      </trkpt>
      <trkpt lat="47.39159" lon="-1.23065">
        <ele>35</ele>
        <time>2022-08-28T01:46:18Z</time>
      </trkpt>
      <trkpt lat="47.39122" lon="-1.23002">
        <ele>35.2</ele>
        <time>2022-08-28T01:46:27Z</time>
      </trkpt>
      <trkpt lat="47.39082" lon="-1.2294">
        <ele>35</ele>
        <time>2022-08-28T01:46:36Z</time>
      </trkpt>
      <trkpt lat="47.39042" lon="-1.22885">
        <ele>34.8</ele>
        <time>2022-08-28T01:46:44Z</time>
      </trkpt>
      <trkpt lat="47.39032" lon="-1.22872">
        <ele>34.8</ele>
        <time>2022-08-28T01:46:46Z</time>
      </trkpt>
      <trkpt lat="47.3899" lon="-1.22825">
        <ele>34.8</ele>
        <time>2022-08-28T01:46:54Z</time>
      </trkpt>
      <trkpt lat="47.38942" lon="-1.22776">
        <ele>34.6</ele>
        <time>2022-08-28T01:47:03Z</time>
      </trkpt>
      <trkpt lat="47.38898" lon="-1.22732">
        <ele>34.2</ele>
        <time>2022-08-28T01:47:11Z</time>
      </trkpt>
      <trkpt lat="47.38864" lon="-1.22699">
        <ele>33.8</ele>
        <time>2022-08-28T01:47:17Z</time>
      </trkpt>
      <trkpt lat="47.38824" lon="-1.2266">
        <ele>33.4</ele>
        <time>2022-08-28T01:47:24Z</time>
      </trkpt>
      <trkpt lat="47.38783" lon="-1.22619">
        <ele>32.8</ele>
        <time>2022-08-28T01:47:31Z</time>
      </trkpt>
      <trkpt lat="47.38738" lon="-1.22575">
        <ele>32.4</ele>
        <time>2022-08-28T01:47:39Z</time>
      </trkpt>
      <trkpt lat="47.38733" lon="-1.22569">
        <ele>32.4</ele>
        <time>2022-08-28T01:47:40Z</time>
      </trkpt>
      <trkpt lat="47.3869" lon="-1.22517">
        <ele>32.2</ele>
        <time>2022-08-28T01:47:48Z</time>
      </trkpt>
      <trkpt lat="47.38657" lon="-1.22465">
        <ele>31.8</ele>
        <time>2022-08-28T01:47:55Z</time>
      </trkpt>
      <trkpt lat="47.38627" lon="-1.22394">
        <ele>31.4</ele>
        <time>2022-08-28T01:48:03Z</time>
      </trkpt>
      <trkpt lat="47.38602" lon="-1.22316">
        <ele>31</ele>
        <time>2022-08-28T01:48:11Z</time>
      </trkpt>
      <trkpt lat="47.38579" lon="-1.22238">
        <ele>30.6</ele>
        <time>2022-08-28T01:48:19Z</time>
      </trkpt>
      <trkpt lat="47.38556" lon="-1.2216">
        <ele>30</ele>
        <time>2022-08-28T01:48:27Z</time>
      </trkpt>
      <trkpt lat="47.38536" lon="-1.22083">
        <ele>29.6</ele>
        <time>2022-08-28T01:48:35Z</time>
      </trkpt>
      <trkpt lat="47.38531" lon="-1.22064">
        <ele>29.4</ele>
        <time>2022-08-28T01:48:37Z</time>
      </trkpt>
      <trkpt lat="47.38513" lon="-1.21986">
        <ele>29</ele>
        <time>2022-08-28T01:48:45Z</time>
      </trkpt>
      <trkpt lat="47.38499" lon="-1.21921">
        <ele>28.6</ele>
        <time>2022-08-28T01:48:52Z</time>
      </trkpt>
      <trkpt lat="47.3848" lon="-1.2184">
        <ele>28.2</ele>
        <time>2022-08-28T01:49:01Z</time>
      </trkpt>
      <trkpt lat="47.38457" lon="-1.21778">
        <ele>27.8</ele>
        <time>2022-08-28T01:49:08Z</time>
      </trkpt>
      <trkpt lat="47.3843" lon="-1.21734">
        <ele>27.4</ele>
        <time>2022-08-28T01:49:14Z</time>
      </trkpt>
      <trkpt lat="47.38391" lon="-1.21687">
        <ele>27</ele>
        <time>2022-08-28T01:49:22Z</time>
      </trkpt>
      <trkpt lat="47.38354" lon="-1.21641">
        <ele>26.8</ele>
        <time>2022-08-28T01:49:30Z</time>
      </trkpt>
      <trkpt lat="47.38327" lon="-1.21594">
        <ele>26.6</ele>
        <time>2022-08-28T01:49:37Z</time>
      </trkpt>
      <trkpt lat="47.3831" lon="-1.21541">
        <ele>26.6</ele>
        <time>2022-08-28T01:49:44Z</time>
      </trkpt>
      <trkpt lat="47.38293" lon="-1.21476">
        <ele>26.6</ele>
        <time>2022-08-28T01:49:52Z</time>
      </trkpt>
      <trkpt lat="47.38272" lon="-1.21423">
        <ele>26.6</ele>
        <time>2022-08-28T01:49:59Z</time>
      </trkpt>
      <trkpt lat="47.38243" lon="-1.21378">
        <ele>26.6</ele>
        <time>2022-08-28T01:50:06Z</time>
      </trkpt>
      <trkpt lat="47.38207" lon="-1.21332">
        <ele>26.6</ele>
        <time>2022-08-28T01:50:14Z</time>
      </trkpt>
      <trkpt lat="47.38198" lon="-1.21322">
        <ele>26.6</ele>
        <time>2022-08-28T01:50:16Z</time>
      </trkpt>
      <trkpt lat="47.38184" lon="-1.21305">
        <ele>26.8</ele>
        <time>2022-08-28T01:50:19Z</time>
      </trkpt>
      <trkpt lat="47.38141" lon="-1.21255">
        <ele>27</ele>
        <time>2022-08-28T01:50:28Z</time>
      </trkpt>
      <trkpt lat="47.38106" lon="-1.21214">
        <ele>27.2</ele>
        <time>2022-08-28T01:50:36Z</time>
      </trkpt>
      <trkpt lat="47.38077" lon="-1.21178">
        <ele>27.4</ele>
        <time>2022-08-28T01:50:43Z</time>
      </trkpt>
      <trkpt lat="47.38042" lon="-1.21136">
        <ele>27.6</ele>
        <time>2022-08-28T01:50:51Z</time>
      </trkpt>
      <trkpt lat="47.38018" lon="-1.21106">
        <ele>27.6</ele>
        <time>2022-08-28T01:50:57Z</time>
      </trkpt>
      <trkpt lat="47.3801" lon="-1.21096">
        <ele>27.8</ele>
        <time>2022-08-28T01:50:59Z</time>
      </trkpt>
      <trkpt lat="47.38002" lon="-1.21086">
        <ele>27.8</ele>
        <time>2022-08-28T01:51:01Z</time>
      </trkpt>
      <trkpt lat="47.37991" lon="-1.21085">
        <ele>27.8</ele>
        <time>2022-08-28T01:51:03Z</time>
      </trkpt>
      <trkpt lat="47.3798" lon="-1.21078">
        <ele>27.8</ele>
        <time>2022-08-28T01:51:05Z</time>
      </trkpt>
      <trkpt lat="47.37975" lon="-1.2107">
        <ele>28</ele>
        <time>2022-08-28T01:51:06Z</time>
      </trkpt>
      <trkpt lat="47.37973" lon="-1.21062">
        <ele>28</ele>
        <time>2022-08-28T01:51:07Z</time>
      </trkpt>
      <trkpt lat="47.37971" lon="-1.2103">
        <ele>28</ele>
        <time>2022-08-28T01:51:11Z</time>
      </trkpt>
      <trkpt lat="47.37968" lon="-1.21023">
        <ele>28</ele>
        <time>2022-08-28T01:51:12Z</time>
      </trkpt>
      <trkpt lat="47.37962" lon="-1.21012">
        <ele>28</ele>
        <time>2022-08-28T01:51:14Z</time>
      </trkpt>
      <trkpt lat="47.37959" lon="-1.21007">
        <ele>28.2</ele>
        <time>2022-08-28T01:51:15Z</time>
      </trkpt>
      <trkpt lat="47.37934" lon="-1.20983">
        <ele>28.4</ele>
        <time>2022-08-28T01:51:22Z</time>
      </trkpt>
      <trkpt lat="47.3792" lon="-1.20971">
        <ele>28.4</ele>
        <time>2022-08-28T01:51:26Z</time>
      </trkpt>
      <trkpt lat="47.37912" lon="-1.20964">
        <ele>28.4</ele>
        <time>2022-08-28T01:51:28Z</time>
      </trkpt>
      <trkpt lat="47.37908" lon="-1.2096">
        <ele>28.6</ele>
        <time>2022-08-28T01:51:29Z</time>
      </trkpt>
      <trkpt lat="47.37887" lon="-1.20922">
        <ele>28.6</ele>
        <time>2022-08-28T01:51:36Z</time>
      </trkpt>
      <trkpt lat="47.37863" lon="-1.20869">
        <ele>29</ele>
        <time>2022-08-28T01:51:45Z</time>
      </trkpt>
      <trkpt lat="47.3783" lon="-1.20811">
        <ele>29.4</ele>
        <time>2022-08-28T01:51:55Z</time>
      </trkpt>
      <trkpt lat="47.378" lon="-1.20762">
        <ele>29.6</ele>
        <time>2022-08-28T01:52:03Z</time>
      </trkpt>
      <trkpt lat="47.37767" lon="-1.20705">
        <ele>30</ele>
        <time>2022-08-28T01:52:12Z</time>
      </trkpt>
      <trkpt lat="47.37734" lon="-1.20643">
        <ele>30.2</ele>
        <time>2022-08-28T01:52:21Z</time>
      </trkpt>
      <trkpt lat="47.37704" lon="-1.20576">
        <ele>30.4</ele>
        <time>2022-08-28T01:52:30Z</time>
      </trkpt>
      <trkpt lat="47.37701" lon="-1.20569">
        <ele>30.4</ele>
        <time>2022-08-28T01:52:31Z</time>
      </trkpt>
      <trkpt lat="47.37672" lon="-1.2051">
        <ele>30.4</ele>
        <time>2022-08-28T01:52:39Z</time>
      </trkpt>
      <trkpt lat="47.37643" lon="-1.20456">
        <ele>30.4</ele>
        <time>2022-08-28T01:52:46Z</time>
      </trkpt>
      <trkpt lat="47.37601" lon="-1.20407">
        <ele>30.2</ele>
        <time>2022-08-28T01:52:54Z</time>
      </trkpt>
      <trkpt lat="47.37563" lon="-1.2037">
        <ele>30</ele>
        <time>2022-08-28T01:53:01Z</time>
      </trkpt>
      <trkpt lat="47.37558" lon="-1.20365">
        <ele>30</ele>
        <time>2022-08-28T01:53:02Z</time>
      </trkpt>
      <trkpt lat="47.37536" lon="-1.20346">
        <ele>29.8</ele>
        <time>2022-08-28T01:53:06Z</time>
      </trkpt>
      <trkpt lat="47.37485" lon="-1.20306">
        <ele>29.6</ele>
        <time>2022-08-28T01:53:15Z</time>
      </trkpt>
      <trkpt lat="47.37447" lon="-1.20273">
        <ele>29.4</ele>
        <time>2022-08-28T01:53:22Z</time>
      </trkpt>
      <trkpt lat="47.37416" lon="-1.20248">
        <ele>29.2</ele>
        <time>2022-08-28T01:53:28Z</time>
      </trkpt>
      <trkpt lat="47.37385" lon="-1.20224">
        <ele>29.2</ele>
        <time>2022-08-28T01:53:34Z</time>
      </trkpt>
      <trkpt lat="47.3735" lon="-1.20196">
        <ele>29.2</ele>
        <time>2022-08-28T01:53:41Z</time>
      </trkpt>
      <trkpt lat="47.37325" lon="-1.20176">
        <ele>29.2</ele>
        <time>2022-08-28T01:53:46Z</time>
      </trkpt>
      <trkpt lat="47.37299" lon="-1.20156">
        <ele>29.2</ele>
        <time>2022-08-28T01:53:51Z</time>
      </trkpt>
      <trkpt lat="47.37271" lon="-1.20132">
        <ele>29.2</ele>
        <time>2022-08-28T01:53:57Z</time>
      </trkpt>
      <trkpt lat="47.37245" lon="-1.2011">
        <ele>29.4</ele>
        <time>2022-08-28T01:54:03Z</time>
      </trkpt>
      <trkpt lat="47.37229" lon="-1.20096">
        <ele>29.6</ele>
        <time>2022-08-28T01:54:07Z</time>
      </trkpt>
      <trkpt lat="47.37224" lon="-1.20092">
        <ele>29.6</ele>
        <time>2022-08-28T01:54:08Z</time>
      </trkpt>
      <trkpt lat="47.372" lon="-1.2007">
        <ele>29.8</ele>
        <time>2022-08-28T01:54:13Z</time>
      </trkpt>
      <trkpt lat="47.37175" lon="-1.20048">
        <ele>30</ele>
        <time>2022-08-28T01:54:19Z</time>
      </trkpt>
      <trkpt lat="47.3715" lon="-1.20026">
        <ele>30.4</ele>
        <time>2022-08-28T01:54:25Z</time>
      </trkpt>
      <trkpt lat="47.37138" lon="-1.20012">
        <ele>30.6</ele>
        <time>2022-08-28T01:54:28Z</time>
      </trkpt>
      <trkpt lat="47.37126" lon="-1.19998">
        <ele>30.8</ele>
        <time>2022-08-28T01:54:31Z</time>
      </trkpt>
      <trkpt lat="47.37119" lon="-1.19985">
        <ele>31</ele>
        <time>2022-08-28T01:54:36Z</time>
      </trkpt>
      <trkpt lat="47.37106" lon="-1.19978">
        <ele>31</ele>
        <time>2022-08-28T01:54:37Z</time>
      </trkpt>
      <trkpt lat="47.37103" lon="-1.19968">
        <ele>31</ele>
        <time>2022-08-28T01:54:38Z</time>
      </trkpt>
      <trkpt lat="47.37104" lon="-1.19944">
        <ele>31</ele>
        <time>2022-08-28T01:54:41Z</time>
      </trkpt>
      <trkpt lat="47.371" lon="-1.1993">
        <ele>31</ele>
        <time>2022-08-28T01:54:43Z</time>
      </trkpt>
      <trkpt lat="47.37096" lon="-1.19925">
        <ele>31</ele>
        <time>2022-08-28T01:54:44Z</time>
      </trkpt>
      <trkpt lat="47.37093" lon="-1.19919">
        <ele>31</ele>
        <time>2022-08-28T01:54:45Z</time>
      </trkpt>
      <trkpt lat="47.37085" lon="-1.1991">
        <ele>31.2</ele>
        <time>2022-08-28T01:54:47Z</time>
      </trkpt>
      <trkpt lat="47.3708" lon="-1.19908">
        <ele>31.2</ele>
        <time>2022-08-28T01:54:48Z</time>
      </trkpt>
      <trkpt lat="47.3707" lon="-1.19903">
        <ele>31.4</ele>
        <time>2022-08-28T01:54:50Z</time>
      </trkpt>
      <trkpt lat="47.37056" lon="-1.19897">
        <ele>31.6</ele>
        <time>2022-08-28T01:54:53Z</time>
      </trkpt>
      <trkpt lat="47.37046" lon="-1.19894">
        <ele>31.8</ele>
        <time>2022-08-28T01:54:56Z</time>
      </trkpt>
      <trkpt lat="47.37024" lon="-1.19885">
        <ele>32</ele>
        <time>2022-08-28T01:55:01Z</time>
      </trkpt>
      <trkpt lat="47.36994" lon="-1.19873">
        <ele>32.4</ele>
        <time>2022-08-28T01:55:08Z</time>
      </trkpt>
      <trkpt lat="47.36982" lon="-1.19867">
        <ele>32.6</ele>
        <time>2022-08-28T01:55:11Z</time>
      </trkpt>
      <trkpt lat="47.36974" lon="-1.19864">
        <ele>32.8</ele>
        <time>2022-08-28T01:55:13Z</time>
      </trkpt>
      <trkpt lat="47.36954" lon="-1.19853">
        <ele>32.8</ele>
        <time>2022-08-28T01:55:18Z</time>
      </trkpt>
      <trkpt lat="47.36932" lon="-1.19837">
        <ele>33</ele>
        <time>2022-08-28T01:55:24Z</time>
      </trkpt>
      <trkpt lat="47.36922" lon="-1.19831">
        <ele>33.2</ele>
        <time>2022-08-28T01:55:26Z</time>
      </trkpt>
      <trkpt lat="47.36907" lon="-1.19821">
        <ele>33.2</ele>
        <time>2022-08-28T01:55:29Z</time>
      </trkpt>
      <trkpt lat="47.36872" lon="-1.19805">
        <ele>33.6</ele>
        <time>2022-08-28T01:55:36Z</time>
      </trkpt>
      <trkpt lat="47.36853" lon="-1.198">
        <ele>33.8</ele>
        <time>2022-08-28T01:55:40Z</time>
      </trkpt>
      <trkpt lat="47.36818" lon="-1.19796">
        <ele>33.8</ele>
        <time>2022-08-28T01:55:46Z</time>
      </trkpt>
      <trkpt lat="47.36791" lon="-1.19793">
        <ele>33.6</ele>
        <time>2022-08-28T01:55:50Z</time>
      </trkpt>
      <trkpt lat="47.36746" lon="-1.19788">
        <ele>33</ele>
        <time>2022-08-28T01:55:56Z</time>
      </trkpt>
      <trkpt lat="47.36719" lon="-1.19786">
        <ele>33.4</ele>
        <time>2022-08-28T01:56:00Z</time>
      </trkpt>
      <trkpt lat="47.36713" lon="-1.19785">
        <ele>33.2</ele>
        <time>2022-08-28T01:56:01Z</time>
      </trkpt>
      <trkpt lat="47.3667" lon="-1.1978">
        <ele>33.2</ele>
        <time>2022-08-28T01:56:08Z</time>
      </trkpt>
      <trkpt lat="47.36658" lon="-1.19778">
        <ele>33.2</ele>
        <time>2022-08-28T01:56:10Z</time>
      </trkpt>
      <trkpt lat="47.36647" lon="-1.19775">
        <ele>33.2</ele>
        <time>2022-08-28T01:56:12Z</time>
      </trkpt>
      <trkpt lat="47.36614" lon="-1.19759">
        <ele>33</ele>
        <time>2022-08-28T01:56:18Z</time>
      </trkpt>
      <trkpt lat="47.36574" lon="-1.19741">
        <ele>33</ele>
        <time>2022-08-28T01:56:26Z</time>
      </trkpt>
      <trkpt lat="47.36564" lon="-1.19738">
        <ele>32.8</ele>
        <time>2022-08-28T01:56:28Z</time>
      </trkpt>
      <trkpt lat="47.36552" lon="-1.19735">
        <ele>32.8</ele>
        <time>2022-08-28T01:56:31Z</time>
      </trkpt>
      <trkpt lat="47.3654" lon="-1.19733">
        <ele>32.8</ele>
        <time>2022-08-28T01:56:33Z</time>
      </trkpt>
      <trkpt lat="47.36543" lon="-1.19704">
        <ele>32.6</ele>
        <time>2022-08-28T01:56:36Z</time>
      </trkpt>
      <trkpt lat="47.36545" lon="-1.19629">
        <ele>32</ele>
        <time>2022-08-28T01:56:44Z</time>
      </trkpt>
      <trkpt lat="47.36546" lon="-1.1956">
        <ele>31.6</ele>
        <time>2022-08-28T01:56:51Z</time>
      </trkpt>
      <trkpt lat="47.36549" lon="-1.19489">
        <ele>31</ele>
        <time>2022-08-28T01:56:58Z</time>
      </trkpt>
      <trkpt lat="47.36552" lon="-1.19405">
        <ele>30</ele>
        <time>2022-08-28T01:57:06Z</time>
      </trkpt>
      <trkpt lat="47.36552" lon="-1.19394">
        <ele>30</ele>
        <time>2022-08-28T01:57:07Z</time>
      </trkpt>
      <trkpt lat="47.36556" lon="-1.19331">
        <ele>29.2</ele>
        <time>2022-08-28T01:57:13Z</time>
      </trkpt>
      <trkpt lat="47.36558" lon="-1.19252">
        <ele>28.4</ele>
        <time>2022-08-28T01:57:20Z</time>
      </trkpt>
      <trkpt lat="47.36545" lon="-1.19184">
        <ele>27.4</ele>
        <time>2022-08-28T01:57:26Z</time>
      </trkpt>
      <trkpt lat="47.36529" lon="-1.19126">
        <ele>26.8</ele>
        <time>2022-08-28T01:57:32Z</time>
      </trkpt>
      <trkpt lat="47.36512" lon="-1.19057">
        <ele>25.8</ele>
        <time>2022-08-28T01:57:40Z</time>
      </trkpt>
      <trkpt lat="47.36497" lon="-1.19003">
        <ele>24.8</ele>
        <time>2022-08-28T01:57:46Z</time>
      </trkpt>
      <trkpt lat="47.36488" lon="-1.18972">
        <ele>23.8</ele>
        <time>2022-08-28T01:57:50Z</time>
      </trkpt>
      <trkpt lat="47.36482" lon="-1.18958">
        <ele>23.4</ele>
        <time>2022-08-28T01:57:52Z</time>
      </trkpt>
      <trkpt lat="47.3648" lon="-1.18959">
        <ele>23.2</ele>
        <time>2022-08-28T01:57:53Z</time>
      </trkpt>
      <trkpt lat="47.36464" lon="-1.18966">
        <ele>22.4</ele>
        <time>2022-08-28T01:57:58Z</time>
      </trkpt>
      <trkpt lat="47.36437" lon="-1.18978">
        <ele>21.4</ele>
        <time>2022-08-28T01:58:04Z</time>
      </trkpt>
      <trkpt lat="47.36416" lon="-1.18987">
        <ele>20.6</ele>
        <time>2022-08-28T01:58:09Z</time>
      </trkpt>
      <trkpt lat="47.36411" lon="-1.18998">
        <ele>20.4</ele>
        <time>2022-08-28T01:58:11Z</time>
      </trkpt>
      <trkpt lat="47.36408" lon="-1.18988">
        <ele>20.2</ele>
        <time>2022-08-28T01:58:12Z</time>
      </trkpt>
      <trkpt lat="47.36407" lon="-1.18983">
        <ele>20.2</ele>
        <time>2022-08-28T01:58:13Z</time>
      </trkpt>
      <trkpt lat="47.36403" lon="-1.18968">
        <ele>19.6</ele>
        <time>2022-08-28T01:58:16Z</time>
      </trkpt>
      <trkpt lat="47.36398" lon="-1.18945">
        <ele>18.6</ele>
        <time>2022-08-28T01:58:21Z</time>
      </trkpt>
      <trkpt lat="47.36396" lon="-1.18934">
        <ele>18.2</ele>
        <time>2022-08-28T01:58:23Z</time>
      </trkpt>
      <trkpt lat="47.36393" lon="-1.18916">
        <ele>17.4</ele>
        <time>2022-08-28T01:58:26Z</time>
      </trkpt>
      <trkpt lat="47.36391" lon="-1.1891">
        <ele>17.4</ele>
        <time>2022-08-28T01:58:27Z</time>
      </trkpt>
      <trkpt lat="47.36387" lon="-1.18888">
        <ele>17</ele>
        <time>2022-08-28T01:58:30Z</time>
      </trkpt>
      <trkpt lat="47.36378" lon="-1.18842">
        <ele>16.4</ele>
        <time>2022-08-28T01:58:37Z</time>
      </trkpt>
      <trkpt lat="47.36367" lon="-1.18794">
        <ele>15.4</ele>
        <time>2022-08-28T01:58:45Z</time>
      </trkpt>
      <trkpt lat="47.36363" lon="-1.18768">
        <ele>15</ele>
        <time>2022-08-28T01:58:50Z</time>
      </trkpt>
      <trkpt lat="47.36351" lon="-1.18767">
        <ele>14.8</ele>
        <time>2022-08-28T01:58:53Z</time>
      </trkpt>
      <trkpt lat="47.36346" lon="-1.1877">
        <ele>14.8</ele>
        <time>2022-08-28T01:58:56Z</time>
      </trkpt>
      <trkpt lat="47.36344" lon="-1.18767">
        <ele>14.4</ele>
        <time>2022-08-28T01:58:58Z</time>
      </trkpt>
      <trkpt lat="47.36335" lon="-1.18753">
        <ele>14</ele>
        <time>2022-08-28T01:59:02Z</time>
      </trkpt>
      <trkpt lat="47.36332" lon="-1.18749">
        <ele>14</ele>
        <time>2022-08-28T01:59:03Z</time>
      </trkpt>
      <trkpt lat="47.36325" lon="-1.1874">
        <ele>14</ele>
        <time>2022-08-28T01:59:05Z</time>
      </trkpt>
      <trkpt lat="47.36321" lon="-1.18737">
        <ele>13.8</ele>
        <time>2022-08-28T01:59:06Z</time>
      </trkpt>
      <trkpt lat="47.36313" lon="-1.18732">
        <ele>13.6</ele>
        <time>2022-08-28T01:59:08Z</time>
      </trkpt>
      <trkpt lat="47.36302" lon="-1.18728">
        <ele>13.4</ele>
        <time>2022-08-28T01:59:10Z</time>
      </trkpt>
      <trkpt lat="47.3628" lon="-1.18721">
        <ele>12.8</ele>
        <time>2022-08-28T01:59:15Z</time>
      </trkpt>
      <trkpt lat="47.36263" lon="-1.18715">
        <ele>12.6</ele>
        <time>2022-08-28T01:59:20Z</time>
      </trkpt>
      <trkpt lat="47.36255" lon="-1.18712">
        <ele>12.6</ele>
        <time>2022-08-28T01:59:23Z</time>
      </trkpt>
      <trkpt lat="47.3625" lon="-1.18711">
        <ele>12.4</ele>
        <time>2022-08-28T01:59:25Z</time>
      </trkpt>
      <trkpt lat="47.36238" lon="-1.18724">
        <ele>12</ele>
        <time>2022-08-28T01:59:30Z</time>
      </trkpt>
      <trkpt lat="47.36233" lon="-1.18733">
        <ele>11.8</ele>
        <time>2022-08-28T01:59:35Z</time>
      </trkpt>
      <trkpt lat="47.36224" lon="-1.18752">
        <ele>11.4</ele>
        <time>2022-08-28T01:59:40Z</time>
      </trkpt>
      <trkpt lat="47.36217" lon="-1.18776">
        <ele>11</ele>
        <time>2022-08-28T01:59:46Z</time>
      </trkpt>
      <trkpt lat="47.36211" lon="-1.18795">
        <ele>10.8</ele>
        <time>2022-08-28T01:59:51Z</time>
      </trkpt>
      <trkpt lat="47.36205" lon="-1.18821">
        <ele>10.6</ele>
        <time>2022-08-28T01:59:57Z</time>
      </trkpt>
      <trkpt lat="47.362" lon="-1.1885">
        <ele>10</ele>
        <time>2022-08-28T02:00:03Z</time>
      </trkpt>
      <trkpt lat="47.36193" lon="-1.18887">
        <ele>9.6</ele>
        <time>2022-08-28T02:00:10Z</time>
      </trkpt>
      <trkpt lat="47.36194" lon="-1.18897">
        <ele>9.6</ele>
        <time>2022-08-28T02:00:12Z</time>
      </trkpt>
      <trkpt lat="47.36194" lon="-1.18902">
        <ele>9.4</ele>
        <time>2022-08-28T02:00:13Z</time>
      </trkpt>
      <trkpt lat="47.36194" lon="-1.18907">
        <ele>9.2</ele>
        <time>2022-08-28T02:00:14Z</time>
      </trkpt>
      <trkpt lat="47.36196" lon="-1.18927">
        <ele>9</ele>
        <time>2022-08-28T02:00:17Z</time>
      </trkpt>
      <trkpt lat="47.36197" lon="-1.18933">
        <ele>8.8</ele>
        <time>2022-08-28T02:00:18Z</time>
      </trkpt>
      <trkpt lat="47.36199" lon="-1.18944">
        <ele>8.6</ele>
        <time>2022-08-28T02:00:21Z</time>
      </trkpt>
      <trkpt lat="47.362" lon="-1.18946">
        <ele>8.6</ele>
        <time>2022-08-28T02:00:24Z</time>
      </trkpt>
      <trkpt lat="47.36202" lon="-1.18954">
        <ele>8.4</ele>
        <time>2022-08-28T02:00:26Z</time>
      </trkpt>
      <trkpt lat="47.36186" lon="-1.1897">
        <ele>8.2</ele>
        <time>2022-08-28T02:00:29Z</time>
      </trkpt>
      <trkpt lat="47.36166" lon="-1.18991">
        <ele>8</ele>
        <time>2022-08-28T02:00:36Z</time>
      </trkpt>
      <trkpt lat="47.36152" lon="-1.18992">
        <ele>7.8</ele>
        <time>2022-08-28T02:00:40Z</time>
      </trkpt>
      <trkpt lat="47.36137" lon="-1.1899">
        <ele>7.6</ele>
        <time>2022-08-28T02:00:44Z</time>
      </trkpt>
      <trkpt lat="47.36136" lon="-1.1899">
        <ele>7.6</ele>
        <time>2022-08-28T02:00:45Z</time>
      </trkpt>
      <trkpt lat="47.36121" lon="-1.18989">
        <ele>7.4</ele>
        <time>2022-08-28T02:00:48Z</time>
      </trkpt>
      <trkpt lat="47.36115" lon="-1.18989">
        <ele>7.4</ele>
        <time>2022-08-28T02:00:51Z</time>
      </trkpt>
      <trkpt lat="47.36103" lon="-1.18989">
        <ele>7.2</ele>
        <time>2022-08-28T02:00:54Z</time>
      </trkpt>
      <trkpt lat="47.36094" lon="-1.18991">
        <ele>7.2</ele>
        <time>2022-08-28T02:00:56Z</time>
      </trkpt>
      <trkpt lat="47.36089" lon="-1.18993">
        <ele>7.2</ele>
        <time>2022-08-28T02:00:58Z</time>
      </trkpt>
      <trkpt lat="47.36072" lon="-1.18995">
        <ele>7.4</ele>
        <time>2022-08-28T02:01:04Z</time>
      </trkpt>
      <trkpt lat="47.3607" lon="-1.18999">
        <ele>7</ele>
        <time>2022-08-28T02:01:06Z</time>
      </trkpt>
      <trkpt lat="47.3607" lon="-1.19003">
        <ele>7</ele>
        <time>2022-08-28T02:01:07Z</time>
      </trkpt>
      <trkpt lat="47.36074" lon="-1.19007">
        <ele>7.2</ele>
        <time>2022-08-28T02:01:10Z</time>
      </trkpt>
      <trkpt lat="47.36086" lon="-1.19015">
        <ele>7</ele>
        <time>2022-08-28T02:01:15Z</time>
      </trkpt>
      <trkpt lat="47.361" lon="-1.19019">
        <ele>6.6</ele>
        <time>2022-08-28T02:01:20Z</time>
      </trkpt>
      <trkpt lat="47.36102" lon="-1.1902">
        <ele>6.4</ele>
        <time>2022-08-28T02:01:22Z</time>
      </trkpt>
      <trkpt lat="47.36107" lon="-1.19022">
        <ele>6.2</ele>
        <time>2022-08-28T02:01:24Z</time>
      </trkpt>
      <trkpt lat="47.36106" lon="-1.19026">
        <ele>6</ele>
        <time>2022-08-28T02:01:25Z</time>
      </trkpt>
      <trkpt lat="47.36105" lon="-1.19033">
        <ele>5.8</ele>
        <time>2022-08-28T02:01:27Z</time>
      </trkpt>
      <trkpt lat="47.36102" lon="-1.19037">
        <ele>5.6</ele>
        <time>2022-08-28T02:01:29Z</time>
      </trkpt>
      <trkpt lat="47.36098" lon="-1.19038">
        <ele>5.6</ele>
        <time>2022-08-28T02:01:31Z</time>
      </trkpt>
      <trkpt lat="47.3609" lon="-1.19039">
        <ele>5.4</ele>
        <time>2022-08-28T02:01:35Z</time>
      </trkpt>
      <trkpt lat="47.36077" lon="-1.19037">
        <ele>5.4</ele>
        <time>2022-08-28T02:01:40Z</time>
      </trkpt>
      <trkpt lat="47.3607" lon="-1.19038">
        <ele>5.2</ele>
        <time>2022-08-28T02:01:44Z</time>
      </trkpt>
      <trkpt lat="47.36056" lon="-1.19045">
        <ele>5</ele>
        <time>2022-08-28T02:01:49Z</time>
      </trkpt>
      <trkpt lat="47.36051" lon="-1.19049">
        <ele>5</ele>
        <time>2022-08-28T02:01:52Z</time>
      </trkpt>
      <trkpt lat="47.36053" lon="-1.19051">
        <ele>5</ele>
        <time>2022-08-28T02:01:53Z</time>
      </trkpt>
      <trkpt lat="47.36051" lon="-1.19059">
        <ele>4.8</ele>
        <time>2022-08-28T02:01:58Z</time>
      </trkpt>
      <trkpt lat="47.36049" lon="-1.19068">
        <ele>5</ele>
        <time>2022-08-28T02:02:02Z</time>
      </trkpt>
      <trkpt lat="47.36049" lon="-1.1907">
        <ele>5</ele>
        <time>2022-08-28T02:02:03Z</time>
      </trkpt>
      <trkpt lat="47.36046" lon="-1.19078">
        <ele>5</ele>
        <time>2022-08-28T02:02:06Z</time>
      </trkpt>
      <trkpt lat="47.36045" lon="-1.19079">
        <ele>5</ele>
        <time>2022-08-28T02:02:07Z</time>
      </trkpt>
      <trkpt lat="47.36041" lon="-1.19085">
        <ele>5</ele>
        <time>2022-08-28T02:02:10Z</time>
      </trkpt>
      <trkpt lat="47.36038" lon="-1.19086">
        <ele>5</ele>
        <time>2022-08-28T02:02:12Z</time>
      </trkpt>
      <trkpt lat="47.36037" lon="-1.19086">
        <ele>5</ele>
        <time>2022-08-28T02:02:14Z</time>
      </trkpt>
      <trkpt lat="47.36034" lon="-1.19088">
        <ele>5.2</ele>
        <time>2022-08-28T02:02:16Z</time>
      </trkpt>
      <trkpt lat="47.36031" lon="-1.19089">
        <ele>5.2</ele>
        <time>2022-08-28T02:02:17Z</time>
      </trkpt>
      <trkpt lat="47.36026" lon="-1.1909">
        <ele>5.2</ele>
        <time>2022-08-28T02:02:19Z</time>
      </trkpt>
      <trkpt lat="47.36023" lon="-1.19096">
        <ele>5.2</ele>
        <time>2022-08-28T02:02:21Z</time>
      </trkpt>
      <trkpt lat="47.36023" lon="-1.191">
        <ele>5.2</ele>
        <time>2022-08-28T02:02:22Z</time>
      </trkpt>
      <trkpt lat="47.36021" lon="-1.19108">
        <ele>5.2</ele>
        <time>2022-08-28T02:02:24Z</time>
      </trkpt>
      <trkpt lat="47.36021" lon="-1.19119">
        <ele>5.2</ele>
        <time>2022-08-28T02:02:27Z</time>
      </trkpt>
      <trkpt lat="47.36023" lon="-1.19122">
        <ele>5.4</ele>
        <time>2022-08-28T02:02:28Z</time>
      </trkpt>
      <trkpt lat="47.36035" lon="-1.19126">
        <ele>5.6</ele>
        <time>2022-08-28T02:02:32Z</time>
      </trkpt>
      <trkpt lat="47.36051" lon="-1.19135">
        <ele>5.4</ele>
        <time>2022-08-28T02:02:37Z</time>
      </trkpt>
      <trkpt lat="47.36066" lon="-1.19141">
        <ele>5.4</ele>
        <time>2022-08-28T02:02:42Z</time>
      </trkpt>
      <trkpt lat="47.36087" lon="-1.19143">
        <ele>5.2</ele>
        <time>2022-08-28T02:02:48Z</time>
      </trkpt>
      <trkpt lat="47.36097" lon="-1.19143">
        <ele>5.4</ele>
        <time>2022-08-28T02:02:52Z</time>
      </trkpt>
      <trkpt lat="47.36099" lon="-1.19141">
        <ele>5.6</ele>
        <time>2022-08-28T02:02:53Z</time>
      </trkpt>
      <trkpt lat="47.36104" lon="-1.19124">
        <ele>5.4</ele>
        <time>2022-08-28T02:02:57Z</time>
      </trkpt>
      <trkpt lat="47.36107" lon="-1.19101">
        <ele>5.2</ele>
        <time>2022-08-28T02:03:02Z</time>
      </trkpt>
      <trkpt lat="47.36108" lon="-1.19097">
        <ele>5.2</ele>
        <time>2022-08-28T02:03:03Z</time>
      </trkpt>
      <trkpt lat="47.36111" lon="-1.19091">
        <ele>5.2</ele>
        <time>2022-08-28T02:03:05Z</time>
      </trkpt>
      <trkpt lat="47.36119" lon="-1.1909">
        <ele>5.2</ele>
        <time>2022-08-28T02:03:09Z</time>
      </trkpt>
      <trkpt lat="47.36135" lon="-1.1909">
        <ele>5.4</ele>
        <time>2022-08-28T02:03:14Z</time>
      </trkpt>
      <trkpt lat="47.36154" lon="-1.19092">
        <ele>5.2</ele>
        <time>2022-08-28T02:03:20Z</time>
      </trkpt>
      <trkpt lat="47.36171" lon="-1.19093">
        <ele>5</ele>
        <time>2022-08-28T02:03:26Z</time>
      </trkpt>
      <trkpt lat="47.36182" lon="-1.19091">
        <ele>4.8</ele>
        <time>2022-08-28T02:03:31Z</time>
      </trkpt>
      <trkpt lat="47.36182" lon="-1.19088">
        <ele>4.6</ele>
        <time>2022-08-28T02:03:34Z</time>
      </trkpt>
      <trkpt lat="47.36182" lon="-1.19088">
        <ele>4.6</ele>
        <time>2022-08-28T02:03:36Z</time>
      </trkpt>
    </trkseg>
  </trk>
</gpx>